<?xml version="1.0" encoding="UTF-8" standalone="no" ?><gpx xmlns="http://www.topografix.com/GPX/1/1" xmlns:gpxx="http://www.garmin.com/xmlschemas/GpxExtensions/v3" xmlns:wptx1="http://www.garmin.com/xmlschemas/WaypointExtension/v1" xmlns:gpxtpx="http://www.garmin.com/xmlschemas/TrackPointExtension/v1" creator="GPSMAP 62s" version="1.1" xmlns:xsi="http://www.w3.org/2001/XMLSchema-instance" xsi:schemaLocation="http://www.topografix.com/GPX/1/1 http://www.topografix.com/GPX/1/1/gpx.xsd http://www.garmin.com/xmlschemas/GpxExtensions/v3 http://www8.garmin.com/xmlschemas/GpxExtensionsv3.xsd http://www.garmin.com/xmlschemas/WaypointExtension/v1 http://www8.garmin.com/xmlschemas/WaypointExtensionv1.xsd http://www.garmin.com/xmlschemas/TrackPointExtension/v1 http://www.garmin.com/xmlschemas/TrackPointExtensionv1.xsd"><metadata><link href="http://www.garmin.com"><text>Garmin International</text></link><time>2011-10-23T13:45:57Z</time></metadata><trk><name>SEGELN OKT2011</name><extensions><gpxx:TrackExtension><gpxx:DisplayColor>Cyan</gpxx:DisplayColor></gpxx:TrackExtension></extensions><trkseg><trkpt lat="44.0515259653" lon="15.1109694690"><ele>-143.10</ele><time>2011-10-10T08:49:24Z</time></trkpt><trkpt lat="44.0511393920" lon="15.1108751725"><ele>-19.57</ele><time>2011-10-10T08:49:56Z</time></trkpt><trkpt lat="44.0511004161" lon="15.1108883321"><ele>-5.63</ele><time>2011-10-10T08:50:17Z</time></trkpt><trkpt lat="44.0510850772" lon="15.1109196804"><ele>-2.27</ele><time>2011-10-10T08:50:28Z</time></trkpt><trkpt lat="44.0511156712" lon="15.1108956244"><ele>3.98</ele><time>2011-10-10T08:50:52Z</time></trkpt><trkpt lat="44.0511120670" lon="15.1108902600"><ele>3.98</ele><time>2011-10-10T08:51:20Z</time></trkpt><trkpt lat="44.0511082951" lon="15.1108926069"><ele>3.50</ele><time>2011-10-10T08:51:47Z</time></trkpt><trkpt lat="44.0511082951" lon="15.1108926069"><ele>3.50</ele><time>2011-10-10T08:52:15Z</time></trkpt><trkpt lat="44.0511090495" lon="15.1108925231"><ele>3.98</ele><time>2011-10-10T08:52:38Z</time></trkpt><trkpt lat="44.0511916112" lon="15.1107207779"><ele>4.94</ele><time>2011-10-10T08:53:04Z</time></trkpt><trkpt lat="44.0513093770" lon="15.1105394773"><ele>3.50</ele><time>2011-10-10T08:53:30Z</time></trkpt><trkpt lat="44.0515869856" lon="15.1106738392"><ele>3.50</ele><time>2011-10-10T08:53:51Z</time></trkpt><trkpt lat="44.0518549550" lon="15.1111957803"><ele>2.54</ele><time>2011-10-10T08:54:17Z</time></trkpt><trkpt lat="44.0520202462" lon="15.1116730459"><ele>3.02</ele><time>2011-10-10T08:54:40Z</time></trkpt><trkpt lat="44.0521684382" lon="15.1121553406"><ele>1.58</ele><time>2011-10-10T08:55:06Z</time></trkpt><trkpt lat="44.0523126069" lon="15.1125373039"><ele>0.62</ele><time>2011-10-10T08:55:28Z</time></trkpt><trkpt lat="44.0525100008" lon="15.1129294932"><ele>2.06</ele><time>2011-10-10T08:55:51Z</time></trkpt><trkpt lat="44.0527101606" lon="15.1133402064"><ele>2.54</ele><time>2011-10-10T08:56:17Z</time></trkpt><trkpt lat="44.0530695766" lon="15.1136398595"><ele>1.58</ele><time>2011-10-10T08:56:40Z</time></trkpt><trkpt lat="44.0535683837" lon="15.1138964295"><ele>2.06</ele><time>2011-10-10T08:57:04Z</time></trkpt><trkpt lat="44.0541572124" lon="15.1142270956"><ele>0.62</ele><time>2011-10-10T08:57:33Z</time></trkpt><trkpt lat="44.0547283553" lon="15.1144570950"><ele>0.14</ele><time>2011-10-10T08:57:59Z</time></trkpt><trkpt lat="44.0552873444" lon="15.1145522296"><ele>2.06</ele><time>2011-10-10T08:58:24Z</time></trkpt><trkpt lat="44.0557899233" lon="15.1146316063"><ele>3.02</ele><time>2011-10-10T08:58:46Z</time></trkpt><trkpt lat="44.0562394448" lon="15.1146240626"><ele>2.06</ele><time>2011-10-10T08:59:06Z</time></trkpt><trkpt lat="44.0567103401" lon="15.1146197878"><ele>0.62</ele><time>2011-10-10T08:59:27Z</time></trkpt><trkpt lat="44.0572828241" lon="15.1148165110"><ele>1.58</ele><time>2011-10-10T08:59:54Z</time></trkpt><trkpt lat="44.0577790327" lon="15.1150746737"><ele>0.62</ele><time>2011-10-10T09:00:18Z</time></trkpt><trkpt lat="44.0582285542" lon="15.1153555512"><ele>1.10</ele><time>2011-10-10T09:00:43Z</time></trkpt><trkpt lat="44.0586394351" lon="15.1156086847"><ele>1.58</ele><time>2011-10-10T09:01:07Z</time></trkpt><trkpt lat="44.0590549260" lon="15.1158708706"><ele>1.10</ele><time>2011-10-10T09:01:31Z</time></trkpt><trkpt lat="44.0596054494" lon="15.1162021235"><ele>1.58</ele><time>2011-10-10T09:01:57Z</time></trkpt><trkpt lat="44.0600272268" lon="15.1162351482"><ele>1.58</ele><time>2011-10-10T09:02:15Z</time></trkpt><trkpt lat="44.0605942626" lon="15.1158168074"><ele>1.10</ele><time>2011-10-10T09:02:41Z</time></trkpt><trkpt lat="44.0611618850" lon="15.1154071838"><ele>2.06</ele><time>2011-10-10T09:03:07Z</time></trkpt><trkpt lat="44.0617696568" lon="15.1149028447"><ele>1.10</ele><time>2011-10-10T09:03:34Z</time></trkpt><trkpt lat="44.0623365249" lon="15.1144083124"><ele>1.58</ele><time>2011-10-10T09:03:57Z</time></trkpt><trkpt lat="44.0629547741" lon="15.1138535980"><ele>0.62</ele><time>2011-10-10T09:04:22Z</time></trkpt><trkpt lat="44.0636471193" lon="15.1132655237"><ele>0.62</ele><time>2011-10-10T09:04:50Z</time></trkpt><trkpt lat="44.0644195117" lon="15.1125476975"><ele>0.62</ele><time>2011-10-10T09:05:22Z</time></trkpt><trkpt lat="44.0651429538" lon="15.1118664164"><ele>0.62</ele><time>2011-10-10T09:05:52Z</time></trkpt><trkpt lat="44.0658637974" lon="15.1111904159"><ele>0.14</ele><time>2011-10-10T09:06:22Z</time></trkpt><trkpt lat="44.0666167438" lon="15.1105717476"><ele>0.14</ele><time>2011-10-10T09:06:52Z</time></trkpt><trkpt lat="44.0673011262" lon="15.1099891216"><ele>0.14</ele><time>2011-10-10T09:07:20Z</time></trkpt><trkpt lat="44.0680140071" lon="15.1093384344"><ele>0.62</ele><time>2011-10-10T09:07:50Z</time></trkpt><trkpt lat="44.0686532948" lon="15.1087647770"><ele>0.14</ele><time>2011-10-10T09:08:17Z</time></trkpt><trkpt lat="44.0692045726" lon="15.1083305106"><ele>0.62</ele><time>2011-10-10T09:08:40Z</time></trkpt><trkpt lat="44.0699819103" lon="15.1082548220"><ele>2.06</ele><time>2011-10-10T09:09:07Z</time></trkpt><trkpt lat="44.0706900973" lon="15.1082386449"><ele>3.50</ele><time>2011-10-10T09:09:31Z</time></trkpt><trkpt lat="44.0711490903" lon="15.1082279161"><ele>2.54</ele><time>2011-10-10T09:09:50Z</time></trkpt><trkpt lat="44.0713923331" lon="15.1081311889"><ele>1.10</ele><time>2011-10-10T09:10:10Z</time></trkpt><trkpt lat="44.0714334045" lon="15.1080764551"><ele>1.10</ele><time>2011-10-10T09:10:16Z</time></trkpt><trkpt lat="44.0715055726" lon="15.1078729425"><ele>1.58</ele><time>2011-10-10T09:10:41Z</time></trkpt><trkpt lat="44.0715443809" lon="15.1077617146"><ele>0.62</ele><time>2011-10-10T09:11:05Z</time></trkpt><trkpt lat="44.0714639984" lon="15.1076260954"><ele>0.14</ele><time>2011-10-10T09:11:31Z</time></trkpt><trkpt lat="44.0713362582" lon="15.1074399333"><ele>1.10</ele><time>2011-10-10T09:11:56Z</time></trkpt><trkpt lat="44.0713231824" lon="15.1072852034"><ele>0.14</ele><time>2011-10-10T09:12:18Z</time></trkpt><trkpt lat="44.0712236054" lon="15.1071771607"><ele>-0.34</ele><time>2011-10-10T09:12:33Z</time></trkpt><trkpt lat="44.0710994694" lon="15.1069545373"><ele>-0.34</ele><time>2011-10-10T09:12:54Z</time></trkpt><trkpt lat="44.0709320828" lon="15.1066492684"><ele>0.14</ele><time>2011-10-10T09:13:21Z</time></trkpt><trkpt lat="44.0706781950" lon="15.1061820611"><ele>0.14</ele><time>2011-10-10T09:13:48Z</time></trkpt><trkpt lat="44.0704738442" lon="15.1056240778"><ele>0.62</ele><time>2011-10-10T09:14:13Z</time></trkpt><trkpt lat="44.0703094751" lon="15.1051107701"><ele>1.58</ele><time>2011-10-10T09:14:35Z</time></trkpt><trkpt lat="44.0701415855" lon="15.1045801118"><ele>1.58</ele><time>2011-10-10T09:14:57Z</time></trkpt><trkpt lat="44.0699374862" lon="15.1039318554"><ele>1.10</ele><time>2011-10-10T09:15:25Z</time></trkpt><trkpt lat="44.0697568562" lon="15.1034353953"><ele>2.54</ele><time>2011-10-10T09:15:48Z</time></trkpt><trkpt lat="44.0695288684" lon="15.1028391905"><ele>2.54</ele><time>2011-10-10T09:16:17Z</time></trkpt><trkpt lat="44.0694233403" lon="15.1025048364"><ele>2.06</ele><time>2011-10-10T09:16:37Z</time></trkpt><trkpt lat="44.0694598854" lon="15.1024847198"><ele>2.06</ele><time>2011-10-10T09:16:41Z</time></trkpt><trkpt lat="44.0697263461" lon="15.1025156491"><ele>1.58</ele><time>2011-10-10T09:17:04Z</time></trkpt><trkpt lat="44.0699861851" lon="15.1025512721"><ele>1.58</ele><time>2011-10-10T09:17:26Z</time></trkpt><trkpt lat="44.0702880174" lon="15.1026621647"><ele>0.62</ele><time>2011-10-10T09:17:50Z</time></trkpt><trkpt lat="44.0706760157" lon="15.1028470695"><ele>1.58</ele><time>2011-10-10T09:18:19Z</time></trkpt><trkpt lat="44.0710207634" lon="15.1030078344"><ele>1.10</ele><time>2011-10-10T09:18:46Z</time></trkpt><trkpt lat="44.0713236015" lon="15.1031315513"><ele>1.58</ele><time>2011-10-10T09:19:10Z</time></trkpt><trkpt lat="44.0715385135" lon="15.1032058150"><ele>0.14</ele><time>2011-10-10T09:19:28Z</time></trkpt><trkpt lat="44.0718354844" lon="15.1034395862"><ele>1.58</ele><time>2011-10-10T09:19:52Z</time></trkpt><trkpt lat="44.0721990075" lon="15.1036871038"><ele>3.02</ele><time>2011-10-10T09:20:13Z</time></trkpt><trkpt lat="44.0725503769" lon="15.1039532293"><ele>2.54</ele><time>2011-10-10T09:20:35Z</time></trkpt><trkpt lat="44.0728538856" lon="15.1041961368"><ele>2.06</ele><time>2011-10-10T09:20:54Z</time></trkpt><trkpt lat="44.0731721465" lon="15.1044152398"><ele>1.58</ele><time>2011-10-10T09:21:11Z</time></trkpt><trkpt lat="44.0736485738" lon="15.1047172397"><ele>2.06</ele><time>2011-10-10T09:21:34Z</time></trkpt><trkpt lat="44.0741069801" lon="15.1050572097"><ele>2.06</ele><time>2011-10-10T09:21:56Z</time></trkpt><trkpt lat="44.0744746104" lon="15.1053429488"><ele>1.58</ele><time>2011-10-10T09:22:14Z</time></trkpt><trkpt lat="44.0749322623" lon="15.1056101639"><ele>2.54</ele><time>2011-10-10T09:22:35Z</time></trkpt><trkpt lat="44.0754078515" lon="15.1059272513"><ele>2.54</ele><time>2011-10-10T09:22:59Z</time></trkpt><trkpt lat="44.0759555250" lon="15.1061958913"><ele>2.06</ele><time>2011-10-10T09:23:24Z</time></trkpt><trkpt lat="44.0765346307" lon="15.1064090431"><ele>2.54</ele><time>2011-10-10T09:23:48Z</time></trkpt><trkpt lat="44.0770730842" lon="15.1065566484"><ele>3.02</ele><time>2011-10-10T09:24:10Z</time></trkpt><trkpt lat="44.0776930097" lon="15.1066272240"><ele>3.02</ele><time>2011-10-10T09:24:34Z</time></trkpt><trkpt lat="44.0781259350" lon="15.1067931019"><ele>3.50</ele><time>2011-10-10T09:24:53Z</time></trkpt><trkpt lat="44.0786570124" lon="15.1070500072"><ele>3.50</ele><time>2011-10-10T09:25:15Z</time></trkpt><trkpt lat="44.0791455097" lon="15.1072961837"><ele>3.02</ele><time>2011-10-10T09:25:35Z</time></trkpt><trkpt lat="44.0795537923" lon="15.1075126044"><ele>2.54</ele><time>2011-10-10T09:25:55Z</time></trkpt><trkpt lat="44.0798635874" lon="15.1076970901"><ele>1.58</ele><time>2011-10-10T09:26:13Z</time></trkpt><trkpt lat="44.0801375918" lon="15.1077849325"><ele>1.58</ele><time>2011-10-10T09:26:31Z</time></trkpt><trkpt lat="44.0804803278" lon="15.1078704279"><ele>2.06</ele><time>2011-10-10T09:26:54Z</time></trkpt><trkpt lat="44.0808450244" lon="15.1079402491"><ele>1.58</ele><time>2011-10-10T09:27:15Z</time></trkpt><trkpt lat="44.0812285803" lon="15.1081943046"><ele>2.54</ele><time>2011-10-10T09:27:36Z</time></trkpt><trkpt lat="44.0817074385" lon="15.1086060237"><ele>3.02</ele><time>2011-10-10T09:28:01Z</time></trkpt><trkpt lat="44.0820608195" lon="15.1089756656"><ele>2.06</ele><time>2011-10-10T09:28:21Z</time></trkpt><trkpt lat="44.0823669266" lon="15.1093278732"><ele>1.10</ele><time>2011-10-10T09:28:39Z</time></trkpt><trkpt lat="44.0826411825" lon="15.1096896362"><ele>1.58</ele><time>2011-10-10T09:28:57Z</time></trkpt><trkpt lat="44.0831013490" lon="15.1102169417"><ele>1.10</ele><time>2011-10-10T09:29:25Z</time></trkpt><trkpt lat="44.0834553167" lon="15.1105973963"><ele>1.58</ele><time>2011-10-10T09:29:49Z</time></trkpt><trkpt lat="44.0836715698" lon="15.1107882522"><ele>1.58</ele><time>2011-10-10T09:30:06Z</time></trkpt><trkpt lat="44.0837352723" lon="15.1106787845"><ele>2.06</ele><time>2011-10-10T09:30:16Z</time></trkpt><trkpt lat="44.0836446639" lon="15.1103414968"><ele>3.50</ele><time>2011-10-10T09:30:39Z</time></trkpt><trkpt lat="44.0835489426" lon="15.1098734513"><ele>3.50</ele><time>2011-10-10T09:31:05Z</time></trkpt><trkpt lat="44.0834218729" lon="15.1093153004"><ele>2.54</ele><time>2011-10-10T09:31:31Z</time></trkpt><trkpt lat="44.0832007583" lon="15.1088227797"><ele>2.06</ele><time>2011-10-10T09:31:54Z</time></trkpt><trkpt lat="44.0829529893" lon="15.1084078755"><ele>2.06</ele><time>2011-10-10T09:32:15Z</time></trkpt><trkpt lat="44.0826484747" lon="15.1078615431"><ele>1.58</ele><time>2011-10-10T09:32:42Z</time></trkpt><trkpt lat="44.0821760707" lon="15.1072658412"><ele>1.58</ele><time>2011-10-10T09:33:13Z</time></trkpt><trkpt lat="44.0816720668" lon="15.1066262182"><ele>1.58</ele><time>2011-10-10T09:33:43Z</time></trkpt><trkpt lat="44.0812106431" lon="15.1060853340"><ele>2.06</ele><time>2011-10-10T09:34:10Z</time></trkpt><trkpt lat="44.0807804000" lon="15.1054934040"><ele>1.58</ele><time>2011-10-10T09:34:37Z</time></trkpt><trkpt lat="44.0804068185" lon="15.1048407052"><ele>2.54</ele><time>2011-10-10T09:35:03Z</time></trkpt><trkpt lat="44.0800241847" lon="15.1039917860"><ele>2.06</ele><time>2011-10-10T09:35:31Z</time></trkpt><trkpt lat="44.0796856396" lon="15.1030823495"><ele>1.58</ele><time>2011-10-10T09:35:58Z</time></trkpt><trkpt lat="44.0793226194" lon="15.1020865794"><ele>1.10</ele><time>2011-10-10T09:36:27Z</time></trkpt><trkpt lat="44.0791223757" lon="15.1013685856"><ele>1.10</ele><time>2011-10-10T09:36:51Z</time></trkpt><trkpt lat="44.0788637940" lon="15.1007750630"><ele>1.58</ele><time>2011-10-10T09:37:17Z</time></trkpt><trkpt lat="44.0786964912" lon="15.1003353484"><ele>1.58</ele><time>2011-10-10T09:37:43Z</time></trkpt><trkpt lat="44.0786251612" lon="15.0999993179"><ele>0.62</ele><time>2011-10-10T09:38:05Z</time></trkpt><trkpt lat="44.0786839183" lon="15.0999911875"><ele>1.10</ele><time>2011-10-10T09:38:13Z</time></trkpt><trkpt lat="44.0789331961" lon="15.1002996415"><ele>1.10</ele><time>2011-10-10T09:38:35Z</time></trkpt><trkpt lat="44.0792525467" lon="15.1006340794"><ele>0.14</ele><time>2011-10-10T09:38:57Z</time></trkpt><trkpt lat="44.0796234459" lon="15.1009842753"><ele>-0.34</ele><time>2011-10-10T09:39:20Z</time></trkpt><trkpt lat="44.0799276251" lon="15.1013060566"><ele>0.62</ele><time>2011-10-10T09:39:40Z</time></trkpt><trkpt lat="44.0802561119" lon="15.1017496269"><ele>1.58</ele><time>2011-10-10T09:40:04Z</time></trkpt><trkpt lat="44.0805782285" lon="15.1022201031"><ele>1.58</ele><time>2011-10-10T09:40:29Z</time></trkpt><trkpt lat="44.0808663145" lon="15.1026727259"><ele>1.58</ele><time>2011-10-10T09:40:54Z</time></trkpt><trkpt lat="44.0812440030" lon="15.1031561103"><ele>0.62</ele><time>2011-10-10T09:41:23Z</time></trkpt><trkpt lat="44.0815799497" lon="15.1034317911"><ele>0.14</ele><time>2011-10-10T09:41:43Z</time></trkpt><trkpt lat="44.0819662716" lon="15.1036749501"><ele>0.14</ele><time>2011-10-10T09:42:04Z</time></trkpt><trkpt lat="44.0823534317" lon="15.1039045304"><ele>0.14</ele><time>2011-10-10T09:42:26Z</time></trkpt><trkpt lat="44.0827149432" lon="15.1040818915"><ele>0.62</ele><time>2011-10-10T09:42:48Z</time></trkpt><trkpt lat="44.0830389038" lon="15.1042859070"><ele>1.10</ele><time>2011-10-10T09:43:09Z</time></trkpt><trkpt lat="44.0833637025" lon="15.1044632681"><ele>0.62</ele><time>2011-10-10T09:43:28Z</time></trkpt><trkpt lat="44.0836739168" lon="15.1047634240"><ele>-0.82</ele><time>2011-10-10T09:43:50Z</time></trkpt><trkpt lat="44.0839637630" lon="15.1050645020"><ele>-0.34</ele><time>2011-10-10T09:44:09Z</time></trkpt><trkpt lat="44.0842842869" lon="15.1054147817"><ele>-0.82</ele><time>2011-10-10T09:44:28Z</time></trkpt><trkpt lat="44.0846351534" lon="15.1057358086"><ele>-0.82</ele><time>2011-10-10T09:44:45Z</time></trkpt><trkpt lat="44.0850440226" lon="15.1061813906"><ele>0.14</ele><time>2011-10-10T09:45:07Z</time></trkpt><trkpt lat="44.0854198672" lon="15.1065449975"><ele>0.14</ele><time>2011-10-10T09:45:26Z</time></trkpt><trkpt lat="44.0857741702" lon="15.1069328282"><ele>0.62</ele><time>2011-10-10T09:45:47Z</time></trkpt><trkpt lat="44.0861324966" lon="15.1073415298"><ele>-1.30</ele><time>2011-10-10T09:46:10Z</time></trkpt><trkpt lat="44.0864760708" lon="15.1076701842"><ele>-1.30</ele><time>2011-10-10T09:46:33Z</time></trkpt><trkpt lat="44.0867499914" lon="15.1079131756"><ele>-0.34</ele><time>2011-10-10T09:46:54Z</time></trkpt><trkpt lat="44.0869810805" lon="15.1081404090"><ele>-0.34</ele><time>2011-10-10T09:47:14Z</time></trkpt><trkpt lat="44.0872165281" lon="15.1082838234"><ele>0.14</ele><time>2011-10-10T09:47:33Z</time></trkpt><trkpt lat="44.0875121579" lon="15.1083476096"><ele>1.10</ele><time>2011-10-10T09:47:56Z</time></trkpt><trkpt lat="44.0878208634" lon="15.1083799638"><ele>1.10</ele><time>2011-10-10T09:48:17Z</time></trkpt><trkpt lat="44.0882347617" lon="15.1083434187"><ele>0.62</ele><time>2011-10-10T09:48:39Z</time></trkpt><trkpt lat="44.0886378475" lon="15.1082871761"><ele>1.10</ele><time>2011-10-10T09:49:01Z</time></trkpt><trkpt lat="44.0890460461" lon="15.1082642935"><ele>1.10</ele><time>2011-10-10T09:49:22Z</time></trkpt><trkpt lat="44.0894817375" lon="15.1082984079"><ele>0.14</ele><time>2011-10-10T09:49:43Z</time></trkpt><trkpt lat="44.0899295826" lon="15.1083980687"><ele>0.62</ele><time>2011-10-10T09:50:03Z</time></trkpt><trkpt lat="44.0903564729" lon="15.1085753459"><ele>1.10</ele><time>2011-10-10T09:50:23Z</time></trkpt><trkpt lat="44.0908080898" lon="15.1087998971"><ele>0.14</ele><time>2011-10-10T09:50:44Z</time></trkpt><trkpt lat="44.0912406798" lon="15.1089787669"><ele>-0.34</ele><time>2011-10-10T09:51:03Z</time></trkpt><trkpt lat="44.0918074641" lon="15.1092469878"><ele>0.62</ele><time>2011-10-10T09:51:27Z</time></trkpt><trkpt lat="44.0923891682" lon="15.1095667575"><ele>0.62</ele><time>2011-10-10T09:51:52Z</time></trkpt><trkpt lat="44.0929249395" lon="15.1099588629"><ele>1.58</ele><time>2011-10-10T09:52:16Z</time></trkpt><trkpt lat="44.0934182145" lon="15.1102300175"><ele>0.14</ele><time>2011-10-10T09:52:37Z</time></trkpt><trkpt lat="44.0938539058" lon="15.1105632819"><ele>1.10</ele><time>2011-10-10T09:52:58Z</time></trkpt><trkpt lat="44.0942918602" lon="15.1107879169"><ele>0.62</ele><time>2011-10-10T09:53:17Z</time></trkpt><trkpt lat="44.0947521105" lon="15.1110020746"><ele>0.62</ele><time>2011-10-10T09:53:37Z</time></trkpt><trkpt lat="44.0952085890" lon="15.1111891586"><ele>1.10</ele><time>2011-10-10T09:53:55Z</time></trkpt><trkpt lat="44.0957954060" lon="15.1114648394"><ele>1.10</ele><time>2011-10-10T09:54:18Z</time></trkpt><trkpt lat="44.0961936302" lon="15.1115888916"><ele>0.62</ele><time>2011-10-10T09:54:34Z</time></trkpt><trkpt lat="44.0962720849" lon="15.1112800185"><ele>1.10</ele><time>2011-10-10T09:54:47Z</time></trkpt><trkpt lat="44.0962626971" lon="15.1107354462"><ele>1.58</ele><time>2011-10-10T09:55:05Z</time></trkpt><trkpt lat="44.0962031018" lon="15.1099208090"><ele>2.06</ele><time>2011-10-10T09:55:27Z</time></trkpt><trkpt lat="44.0961174387" lon="15.1090899110"><ele>1.58</ele><time>2011-10-10T09:55:48Z</time></trkpt><trkpt lat="44.0960100666" lon="15.1081248187"><ele>1.10</ele><time>2011-10-10T09:56:11Z</time></trkpt><trkpt lat="44.0959271695" lon="15.1074108481"><ele>1.10</ele><time>2011-10-10T09:56:29Z</time></trkpt><trkpt lat="44.0959871840" lon="15.1073235925"><ele>0.62</ele><time>2011-10-10T09:56:35Z</time></trkpt><trkpt lat="44.0959808975" lon="15.1067812834"><ele>1.58</ele><time>2011-10-10T09:56:52Z</time></trkpt><trkpt lat="44.0959182847" lon="15.1060016826"><ele>1.58</ele><time>2011-10-10T09:57:10Z</time></trkpt><trkpt lat="44.0957545023" lon="15.1052138675"><ele>3.02</ele><time>2011-10-10T09:57:29Z</time></trkpt><trkpt lat="44.0955715254" lon="15.1045315806"><ele>3.02</ele><time>2011-10-10T09:57:47Z</time></trkpt><trkpt lat="44.0953994449" lon="15.1035682485"><ele>2.06</ele><time>2011-10-10T09:58:11Z</time></trkpt><trkpt lat="44.0953335632" lon="15.1027804334"><ele>1.58</ele><time>2011-10-10T09:58:31Z</time></trkpt><trkpt lat="44.0952825174" lon="15.1021049358"><ele>1.58</ele><time>2011-10-10T09:58:49Z</time></trkpt><trkpt lat="44.0952236764" lon="15.1014089864"><ele>2.06</ele><time>2011-10-10T09:59:09Z</time></trkpt><trkpt lat="44.0951292962" lon="15.1006129570"><ele>1.58</ele><time>2011-10-10T09:59:31Z</time></trkpt><trkpt lat="44.0950684436" lon="15.0997777842"><ele>2.54</ele><time>2011-10-10T09:59:52Z</time></trkpt><trkpt lat="44.0950620733" lon="15.0991298631"><ele>2.06</ele><time>2011-10-10T10:00:09Z</time></trkpt><trkpt lat="44.0950882249" lon="15.0983481668"><ele>2.06</ele><time>2011-10-10T10:00:29Z</time></trkpt><trkpt lat="44.0950608999" lon="15.0974651333"><ele>1.10</ele><time>2011-10-10T10:00:51Z</time></trkpt><trkpt lat="44.0950263664" lon="15.0966973510"><ele>0.62</ele><time>2011-10-10T10:01:11Z</time></trkpt><trkpt lat="44.0949900728" lon="15.0958410557"><ele>-0.34</ele><time>2011-10-10T10:01:32Z</time></trkpt><trkpt lat="44.0949723031" lon="15.0948767178"><ele>-0.34</ele><time>2011-10-10T10:01:55Z</time></trkpt><trkpt lat="44.0949377697" lon="15.0940857176"><ele>0.62</ele><time>2011-10-10T10:02:15Z</time></trkpt><trkpt lat="44.0949366800" lon="15.0931983255"><ele>1.58</ele><time>2011-10-10T10:02:37Z</time></trkpt><trkpt lat="44.0949354228" lon="15.0922168046"><ele>1.10</ele><time>2011-10-10T10:03:03Z</time></trkpt><trkpt lat="44.0949449781" lon="15.0915118027"><ele>0.14</ele><time>2011-10-10T10:03:22Z</time></trkpt><trkpt lat="44.0949665196" lon="15.0906880293"><ele>0.62</ele><time>2011-10-10T10:03:43Z</time></trkpt><trkpt lat="44.0949374344" lon="15.0898398645"><ele>1.10</ele><time>2011-10-10T10:04:04Z</time></trkpt><trkpt lat="44.0948562976" lon="15.0890097208"><ele>2.54</ele><time>2011-10-10T10:04:26Z</time></trkpt><trkpt lat="44.0948235244" lon="15.0880810898"><ele>2.06</ele><time>2011-10-10T10:04:49Z</time></trkpt><trkpt lat="44.0948174894" lon="15.0870330166"><ele>1.10</ele><time>2011-10-10T10:05:13Z</time></trkpt><trkpt lat="44.0947953612" lon="15.0861847680"><ele>0.62</ele><time>2011-10-10T10:05:35Z</time></trkpt><trkpt lat="44.0947498474" lon="15.0854291394"><ele>0.14</ele><time>2011-10-10T10:05:55Z</time></trkpt><trkpt lat="44.0946855582" lon="15.0846521370"><ele>1.10</ele><time>2011-10-10T10:06:14Z</time></trkpt><trkpt lat="44.0947830398" lon="15.0845017657"><ele>0.14</ele><time>2011-10-10T10:06:23Z</time></trkpt><trkpt lat="44.0948282182" lon="15.0839548465"><ele>0.62</ele><time>2011-10-10T10:06:40Z</time></trkpt><trkpt lat="44.0948154777" lon="15.0829928555"><ele>0.14</ele><time>2011-10-10T10:07:04Z</time></trkpt><trkpt lat="44.0947756637" lon="15.0821580179"><ele>-0.34</ele><time>2011-10-10T10:07:24Z</time></trkpt><trkpt lat="44.0947154816" lon="15.0813006330"><ele>0.14</ele><time>2011-10-10T10:07:45Z</time></trkpt><trkpt lat="44.0946969576" lon="15.0805177633"><ele>0.62</ele><time>2011-10-10T10:08:05Z</time></trkpt><trkpt lat="44.0946304891" lon="15.0797074847"><ele>1.58</ele><time>2011-10-10T10:08:26Z</time></trkpt><trkpt lat="44.0945643559" lon="15.0789547898"><ele>2.06</ele><time>2011-10-10T10:08:46Z</time></trkpt><trkpt lat="44.0945849754" lon="15.0780889392"><ele>1.10</ele><time>2011-10-10T10:09:08Z</time></trkpt><trkpt lat="44.0946294833" lon="15.0772838574"><ele>1.10</ele><time>2011-10-10T10:09:29Z</time></trkpt><trkpt lat="44.0947438963" lon="15.0764558930"><ele>-0.34</ele><time>2011-10-10T10:09:52Z</time></trkpt><trkpt lat="44.0948247816" lon="15.0756316166"><ele>-0.34</ele><time>2011-10-10T10:10:16Z</time></trkpt><trkpt lat="44.0948187467" lon="15.0750063267"><ele>0.14</ele><time>2011-10-10T10:10:36Z</time></trkpt><trkpt lat="44.0947775915" lon="15.0743285660"><ele>0.62</ele><time>2011-10-10T10:11:02Z</time></trkpt><trkpt lat="44.0947516076" lon="15.0737606920"><ele>1.58</ele><time>2011-10-10T10:11:24Z</time></trkpt><trkpt lat="44.0947685391" lon="15.0730488170"><ele>1.10</ele><time>2011-10-10T10:11:45Z</time></trkpt><trkpt lat="44.0948314033" lon="15.0723333377"><ele>1.10</ele><time>2011-10-10T10:12:06Z</time></trkpt><trkpt lat="44.0949107800" lon="15.0715481211"><ele>0.62</ele><time>2011-10-10T10:12:29Z</time></trkpt><trkpt lat="44.0949652623" lon="15.0708898064"><ele>0.14</ele><time>2011-10-10T10:12:46Z</time></trkpt><trkpt lat="44.0950298030" lon="15.0701496843"><ele>0.62</ele><time>2011-10-10T10:13:06Z</time></trkpt><trkpt lat="44.0951472335" lon="15.0692816544"><ele>1.10</ele><time>2011-10-10T10:13:29Z</time></trkpt><trkpt lat="44.0952365845" lon="15.0686240941"><ele>1.10</ele><time>2011-10-10T10:13:47Z</time></trkpt><trkpt lat="44.0953727067" lon="15.0681636762"><ele>0.62</ele><time>2011-10-10T10:14:03Z</time></trkpt><trkpt lat="44.0955136064" lon="15.0677843112"><ele>0.62</ele><time>2011-10-10T10:14:18Z</time></trkpt><trkpt lat="44.0955975093" lon="15.0673554093"><ele>0.62</ele><time>2011-10-10T10:14:33Z</time></trkpt><trkpt lat="44.0957116708" lon="15.0668042991"><ele>-0.34</ele><time>2011-10-10T10:14:50Z</time></trkpt><trkpt lat="44.0958057158" lon="15.0661835354"><ele>-2.27</ele><time>2011-10-10T10:15:13Z</time></trkpt><trkpt lat="44.0958759561" lon="15.0656522065"><ele>-2.27</ele><time>2011-10-10T10:15:31Z</time></trkpt><trkpt lat="44.0959696658" lon="15.0650042016"><ele>-3.23</ele><time>2011-10-10T10:15:48Z</time></trkpt><trkpt lat="44.0960955620" lon="15.0642602239"><ele>-2.75</ele><time>2011-10-10T10:16:07Z</time></trkpt><trkpt lat="44.0962091368" lon="15.0636212714"><ele>-2.75</ele><time>2011-10-10T10:16:23Z</time></trkpt><trkpt lat="44.0963328537" lon="15.0629456900"><ele>-2.75</ele><time>2011-10-10T10:16:40Z</time></trkpt><trkpt lat="44.0964683890" lon="15.0621686876"><ele>-3.23</ele><time>2011-10-10T10:17:00Z</time></trkpt><trkpt lat="44.0965918545" lon="15.0615426432"><ele>-3.71</ele><time>2011-10-10T10:17:16Z</time></trkpt><trkpt lat="44.0967257973" lon="15.0607696641"><ele>-2.27</ele><time>2011-10-10T10:17:35Z</time></trkpt><trkpt lat="44.0968932677" lon="15.0600828510"><ele>-2.27</ele><time>2011-10-10T10:17:53Z</time></trkpt><trkpt lat="44.0970327426" lon="15.0593159068"><ele>-1.30</ele><time>2011-10-10T10:18:12Z</time></trkpt><trkpt lat="44.0971308947" lon="15.0587197021"><ele>-1.30</ele><time>2011-10-10T10:18:27Z</time></trkpt><trkpt lat="44.0973742213" lon="15.0579905603"><ele>-1.79</ele><time>2011-10-10T10:18:48Z</time></trkpt><trkpt lat="44.0975514986" lon="15.0573880691"><ele>-1.79</ele><time>2011-10-10T10:19:05Z</time></trkpt><trkpt lat="44.0976373293" lon="15.0567707419"><ele>-1.79</ele><time>2011-10-10T10:19:23Z</time></trkpt><trkpt lat="44.0976504888" lon="15.0562740304"><ele>0.14</ele><time>2011-10-10T10:19:39Z</time></trkpt><trkpt lat="44.0977091622" lon="15.0557528436"><ele>-0.82</ele><time>2011-10-10T10:19:55Z</time></trkpt><trkpt lat="44.0978631377" lon="15.0553149730"><ele>-1.79</ele><time>2011-10-10T10:20:08Z</time></trkpt><trkpt lat="44.0981609467" lon="15.0546024274"><ele>-0.82</ele><time>2011-10-10T10:20:28Z</time></trkpt><trkpt lat="44.0982786287" lon="15.0539998524"><ele>-1.79</ele><time>2011-10-10T10:20:43Z</time></trkpt><trkpt lat="44.0984492004" lon="15.0533650909"><ele>-1.30</ele><time>2011-10-10T10:21:00Z</time></trkpt><trkpt lat="44.0986063611" lon="15.0527782738"><ele>-1.79</ele><time>2011-10-10T10:21:16Z</time></trkpt><trkpt lat="44.0987460874" lon="15.0521870982"><ele>-0.82</ele><time>2011-10-10T10:21:31Z</time></trkpt><trkpt lat="44.0988905914" lon="15.0516202301"><ele>-1.79</ele><time>2011-10-10T10:21:45Z</time></trkpt><trkpt lat="44.0990526136" lon="15.0509298127"><ele>-1.79</ele><time>2011-10-10T10:22:03Z</time></trkpt><trkpt lat="44.0991614107" lon="15.0504864100"><ele>-2.27</ele><time>2011-10-10T10:22:15Z</time></trkpt><trkpt lat="44.0993532725" lon="15.0497554243"><ele>-2.75</ele><time>2011-10-10T10:22:32Z</time></trkpt><trkpt lat="44.0995263588" lon="15.0491117779"><ele>-2.75</ele><time>2011-10-10T10:22:47Z</time></trkpt><trkpt lat="44.0997029655" lon="15.0483773556"><ele>-2.75</ele><time>2011-10-10T10:23:04Z</time></trkpt><trkpt lat="44.0998355672" lon="15.0478627067"><ele>-2.75</ele><time>2011-10-10T10:23:16Z</time></trkpt><trkpt lat="44.0999987628" lon="15.0471484847"><ele>-2.27</ele><time>2011-10-10T10:23:33Z</time></trkpt><trkpt lat="44.1001319513" lon="15.0465205964"><ele>-2.75</ele><time>2011-10-10T10:23:48Z</time></trkpt><trkpt lat="44.1002913751" lon="15.0457314402"><ele>-3.23</ele><time>2011-10-10T10:24:07Z</time></trkpt><trkpt lat="44.1004561633" lon="15.0450333115"><ele>-1.79</ele><time>2011-10-10T10:24:24Z</time></trkpt><trkpt lat="44.1006232984" lon="15.0443468336"><ele>-1.79</ele><time>2011-10-10T10:24:40Z</time></trkpt><trkpt lat="44.1007860750" lon="15.0436373055"><ele>-2.27</ele><time>2011-10-10T10:24:57Z</time></trkpt><trkpt lat="44.1009319201" lon="15.0430245884"><ele>-2.75</ele><time>2011-10-10T10:25:12Z</time></trkpt><trkpt lat="44.1010982171" lon="15.0423430558"><ele>-2.75</ele><time>2011-10-10T10:25:28Z</time></trkpt><trkpt lat="44.1012462415" lon="15.0417022593"><ele>-1.79</ele><time>2011-10-10T10:25:43Z</time></trkpt><trkpt lat="44.1013803519" lon="15.0410748739"><ele>-2.75</ele><time>2011-10-10T10:25:58Z</time></trkpt><trkpt lat="44.1015464813" lon="15.0404590555"><ele>-2.27</ele><time>2011-10-10T10:26:13Z</time></trkpt><trkpt lat="44.1017327271" lon="15.0398398004"><ele>-1.79</ele><time>2011-10-10T10:26:28Z</time></trkpt><trkpt lat="44.1019503213" lon="15.0390746165"><ele>0.14</ele><time>2011-10-10T10:26:46Z</time></trkpt><trkpt lat="44.1021347232" lon="15.0384978577"><ele>-0.34</ele><time>2011-10-10T10:27:00Z</time></trkpt><trkpt lat="44.1023689136" lon="15.0379439816"><ele>0.14</ele><time>2011-10-10T10:27:15Z</time></trkpt><trkpt lat="44.1025858372" lon="15.0373850763"><ele>1.10</ele><time>2011-10-10T10:27:31Z</time></trkpt><trkpt lat="44.1027689818" lon="15.0367856026"><ele>1.10</ele><time>2011-10-10T10:27:46Z</time></trkpt><trkpt lat="44.1029364523" lon="15.0362116937"><ele>0.14</ele><time>2011-10-10T10:28:00Z</time></trkpt><trkpt lat="44.1031459998" lon="15.0354771875"><ele>-0.34</ele><time>2011-10-10T10:28:18Z</time></trkpt><trkpt lat="44.1033244506" lon="15.0348021090"><ele>-0.82</ele><time>2011-10-10T10:28:34Z</time></trkpt><trkpt lat="44.1035159770" lon="15.0341012981"><ele>-2.75</ele><time>2011-10-10T10:28:51Z</time></trkpt><trkpt lat="44.1037286259" lon="15.0333351083"><ele>-2.75</ele><time>2011-10-10T10:29:09Z</time></trkpt><trkpt lat="44.1038897261" lon="15.0326946471"><ele>-3.23</ele><time>2011-10-10T10:29:25Z</time></trkpt><trkpt lat="44.1040439531" lon="15.0320453010"><ele>-2.27</ele><time>2011-10-10T10:29:44Z</time></trkpt><trkpt lat="44.1041910555" lon="15.0314537063"><ele>-2.27</ele><time>2011-10-10T10:30:00Z</time></trkpt><trkpt lat="44.1043577716" lon="15.0308228005"><ele>-1.79</ele><time>2011-10-10T10:30:16Z</time></trkpt><trkpt lat="44.1045104899" lon="15.0301866140"><ele>-1.79</ele><time>2011-10-10T10:30:33Z</time></trkpt><trkpt lat="44.1046136711" lon="15.0296457298"><ele>-2.27</ele><time>2011-10-10T10:30:48Z</time></trkpt><trkpt lat="44.1046959814" lon="15.0291109644"><ele>-1.79</ele><time>2011-10-10T10:31:03Z</time></trkpt><trkpt lat="44.1048110649" lon="15.0285202917"><ele>-0.82</ele><time>2011-10-10T10:31:20Z</time></trkpt><trkpt lat="44.1049300041" lon="15.0280457083"><ele>-0.34</ele><time>2011-10-10T10:31:34Z</time></trkpt><trkpt lat="44.1050686408" lon="15.0274864677"><ele>-0.34</ele><time>2011-10-10T10:31:50Z</time></trkpt><trkpt lat="44.1051986441" lon="15.0269424822"><ele>-1.79</ele><time>2011-10-10T10:32:05Z</time></trkpt><trkpt lat="44.1053475067" lon="15.0262739416"><ele>-2.27</ele><time>2011-10-10T10:32:25Z</time></trkpt><trkpt lat="44.1055213474" lon="15.0260534976"><ele>-1.30</ele><time>2011-10-10T10:32:40Z</time></trkpt><trkpt lat="44.1055779252" lon="15.0260405056"><ele>-0.82</ele><time>2011-10-10T10:32:56Z</time></trkpt><trkpt lat="44.1055731475" lon="15.0260928925"><ele>-0.34</ele><time>2011-10-10T10:33:06Z</time></trkpt><trkpt lat="44.1053788550" lon="15.0264030229"><ele>-0.82</ele><time>2011-10-10T10:33:24Z</time></trkpt><trkpt lat="44.1052031703" lon="15.0263456907"><ele>-0.34</ele><time>2011-10-10T10:33:34Z</time></trkpt><trkpt lat="44.1052047629" lon="15.0262254104"><ele>-0.34</ele><time>2011-10-10T10:33:39Z</time></trkpt><trkpt lat="44.1052180901" lon="15.0256662536"><ele>-1.79</ele><time>2011-10-10T10:33:55Z</time></trkpt><trkpt lat="44.1052796133" lon="15.0250195898"><ele>-1.30</ele><time>2011-10-10T10:34:12Z</time></trkpt><trkpt lat="44.1053378675" lon="15.0245424919"><ele>-1.30</ele><time>2011-10-10T10:34:26Z</time></trkpt><trkpt lat="44.1053717304" lon="15.0239238236"><ele>-1.79</ele><time>2011-10-10T10:34:44Z</time></trkpt><trkpt lat="44.1054211836" lon="15.0234204065"><ele>-2.75</ele><time>2011-10-10T10:34:59Z</time></trkpt><trkpt lat="44.1055332497" lon="15.0227735750"><ele>-2.75</ele><time>2011-10-10T10:35:19Z</time></trkpt><trkpt lat="44.1056255344" lon="15.0222417433"><ele>-1.79</ele><time>2011-10-10T10:35:35Z</time></trkpt><trkpt lat="44.1057677753" lon="15.0216995180"><ele>-0.82</ele><time>2011-10-10T10:35:54Z</time></trkpt><trkpt lat="44.1058329027" lon="15.0212620664"><ele>-0.82</ele><time>2011-10-10T10:36:10Z</time></trkpt><trkpt lat="44.1059340723" lon="15.0208213460"><ele>-1.30</ele><time>2011-10-10T10:36:26Z</time></trkpt><trkpt lat="44.1059883032" lon="15.0204118900"><ele>-1.30</ele><time>2011-10-10T10:36:41Z</time></trkpt><trkpt lat="44.1061006207" lon="15.0198343769"><ele>-0.82</ele><time>2011-10-10T10:36:59Z</time></trkpt><trkpt lat="44.1062152013" lon="15.0192328077"><ele>-1.30</ele><time>2011-10-10T10:37:16Z</time></trkpt><trkpt lat="44.1063238308" lon="15.0187092740"><ele>-0.82</ele><time>2011-10-10T10:37:33Z</time></trkpt><trkpt lat="44.1063572746" lon="15.0182527956"><ele>-0.34</ele><time>2011-10-10T10:37:50Z</time></trkpt><trkpt lat="44.1063797381" lon="15.0177008472"><ele>-1.79</ele><time>2011-10-10T10:38:07Z</time></trkpt><trkpt lat="44.1064296942" lon="15.0172613002"><ele>-2.27</ele><time>2011-10-10T10:38:20Z</time></trkpt><trkpt lat="44.1065329593" lon="15.0166867208"><ele>-3.23</ele><time>2011-10-10T10:38:37Z</time></trkpt><trkpt lat="44.1066432651" lon="15.0161296595"><ele>-2.75</ele><time>2011-10-10T10:38:53Z</time></trkpt><trkpt lat="44.1067084763" lon="15.0156169385"><ele>-1.79</ele><time>2011-10-10T10:39:08Z</time></trkpt><trkpt lat="44.1067219712" lon="15.0151848514"><ele>-2.27</ele><time>2011-10-10T10:39:21Z</time></trkpt><trkpt lat="44.1067409981" lon="15.0147293787"><ele>-2.75</ele><time>2011-10-10T10:39:35Z</time></trkpt><trkpt lat="44.1068352945" lon="15.0142429769"><ele>-2.27</ele><time>2011-10-10T10:39:52Z</time></trkpt><trkpt lat="44.1069164313" lon="15.0137027632"><ele>-2.75</ele><time>2011-10-10T10:40:10Z</time></trkpt><trkpt lat="44.1070334427" lon="15.0131852645"><ele>-3.23</ele><time>2011-10-10T10:40:26Z</time></trkpt><trkpt lat="44.1071678884" lon="15.0126801711"><ele>-2.75</ele><time>2011-10-10T10:40:42Z</time></trkpt><trkpt lat="44.1072946228" lon="15.0122355949"><ele>-2.27</ele><time>2011-10-10T10:40:57Z</time></trkpt><trkpt lat="44.1074508615" lon="15.0117584970"><ele>-1.79</ele><time>2011-10-10T10:41:14Z</time></trkpt><trkpt lat="44.1075363569" lon="15.0114007574"><ele>-1.79</ele><time>2011-10-10T10:41:30Z</time></trkpt><trkpt lat="44.1075371951" lon="15.0110452808"><ele>-1.30</ele><time>2011-10-10T10:41:46Z</time></trkpt><trkpt lat="44.1075553838" lon="15.0106165465"><ele>-1.30</ele><time>2011-10-10T10:42:04Z</time></trkpt><trkpt lat="44.1075681243" lon="15.0102115329"><ele>-0.82</ele><time>2011-10-10T10:42:18Z</time></trkpt><trkpt lat="44.1075925156" lon="15.0097672921"><ele>-0.34</ele><time>2011-10-10T10:42:32Z</time></trkpt><trkpt lat="44.1076228581" lon="15.0092212111"><ele>0.14</ele><time>2011-10-10T10:42:48Z</time></trkpt><trkpt lat="44.1076233611" lon="15.0087734498"><ele>0.14</ele><time>2011-10-10T10:43:02Z</time></trkpt><trkpt lat="44.1076175775" lon="15.0084207393"><ele>0.14</ele><time>2011-10-10T10:43:14Z</time></trkpt><trkpt lat="44.1076787654" lon="15.0078485068"><ele>-0.34</ele><time>2011-10-10T10:43:32Z</time></trkpt><trkpt lat="44.1077644285" lon="15.0073375460"><ele>-0.82</ele><time>2011-10-10T10:43:48Z</time></trkpt><trkpt lat="44.1078743991" lon="15.0068255793"><ele>-0.34</ele><time>2011-10-10T10:44:05Z</time></trkpt><trkpt lat="44.1079504229" lon="15.0063532591"><ele>-0.82</ele><time>2011-10-10T10:44:21Z</time></trkpt><trkpt lat="44.1080456413" lon="15.0058828667"><ele>-1.79</ele><time>2011-10-10T10:44:38Z</time></trkpt><trkpt lat="44.1081007943" lon="15.0055067707"><ele>-2.75</ele><time>2011-10-10T10:44:53Z</time></trkpt><trkpt lat="44.1081092600" lon="15.0050731748"><ele>-1.79</ele><time>2011-10-10T10:45:09Z</time></trkpt><trkpt lat="44.1081507504" lon="15.0045165326"><ele>-2.27</ele><time>2011-10-10T10:45:27Z</time></trkpt><trkpt lat="44.1081256885" lon="15.0039913226"><ele>-2.27</ele><time>2011-10-10T10:45:42Z</time></trkpt><trkpt lat="44.1080634948" lon="15.0035108719"><ele>-2.75</ele><time>2011-10-10T10:45:56Z</time></trkpt><trkpt lat="44.1080311406" lon="15.0030205306"><ele>-2.75</ele><time>2011-10-10T10:46:10Z</time></trkpt><trkpt lat="44.1080322303" lon="15.0025192928"><ele>-3.23</ele><time>2011-10-10T10:46:25Z</time></trkpt><trkpt lat="44.1080210824" lon="15.0020186417"><ele>-2.75</ele><time>2011-10-10T10:46:40Z</time></trkpt><trkpt lat="44.1080805101" lon="15.0015202537"><ele>-1.79</ele><time>2011-10-10T10:46:57Z</time></trkpt><trkpt lat="44.1081230063" lon="15.0010336842"><ele>-1.30</ele><time>2011-10-10T10:47:14Z</time></trkpt><trkpt lat="44.1081581265" lon="15.0006575044"><ele>-0.34</ele><time>2011-10-10T10:47:29Z</time></trkpt><trkpt lat="44.1081637423" lon="15.0001893751"><ele>-1.30</ele><time>2011-10-10T10:47:49Z</time></trkpt><trkpt lat="44.1081530135" lon="14.9998188950"><ele>-1.30</ele><time>2011-10-10T10:48:03Z</time></trkpt><trkpt lat="44.1081362497" lon="14.9993308168"><ele>-1.30</ele><time>2011-10-10T10:48:19Z</time></trkpt><trkpt lat="44.1081362497" lon="14.9986782018"><ele>-1.30</ele><time>2011-10-10T10:48:38Z</time></trkpt><trkpt lat="44.1081290413" lon="14.9982373137"><ele>-1.30</ele><time>2011-10-10T10:48:52Z</time></trkpt><trkpt lat="44.1081593838" lon="14.9978058971"><ele>-0.34</ele><time>2011-10-10T10:49:06Z</time></trkpt><trkpt lat="44.1081649996" lon="14.9974195752"><ele>0.14</ele><time>2011-10-10T10:49:18Z</time></trkpt><trkpt lat="44.1082255170" lon="14.9969495181"><ele>-0.34</ele><time>2011-10-10T10:49:35Z</time></trkpt><trkpt lat="44.1082347371" lon="14.9966201093"><ele>-0.82</ele><time>2011-10-10T10:49:48Z</time></trkpt><trkpt lat="44.1082516685" lon="14.9962167721"><ele>-0.82</ele><time>2011-10-10T10:50:03Z</time></trkpt><trkpt lat="44.1082432866" lon="14.9957556836"><ele>-0.82</ele><time>2011-10-10T10:50:20Z</time></trkpt><trkpt lat="44.1081832722" lon="14.9951795954"><ele>-0.82</ele><time>2011-10-10T10:50:37Z</time></trkpt><trkpt lat="44.1081433743" lon="14.9946408905"><ele>-0.34</ele><time>2011-10-10T10:50:53Z</time></trkpt><trkpt lat="44.1081608087" lon="14.9941894412"><ele>-0.82</ele><time>2011-10-10T10:51:07Z</time></trkpt><trkpt lat="44.1081564501" lon="14.9937295262"><ele>-0.34</ele><time>2011-10-10T10:51:22Z</time></trkpt><trkpt lat="44.1081701126" lon="14.9932330661"><ele>-1.30</ele><time>2011-10-10T10:51:39Z</time></trkpt><trkpt lat="44.1081524268" lon="14.9927699659"><ele>-1.30</ele><time>2011-10-10T10:51:54Z</time></trkpt><trkpt lat="44.1081216652" lon="14.9922751822"><ele>-0.82</ele><time>2011-10-10T10:52:10Z</time></trkpt><trkpt lat="44.1080814321" lon="14.9918190390"><ele>-1.30</ele><time>2011-10-10T10:52:23Z</time></trkpt><trkpt lat="44.1081022192" lon="14.9912033044"><ele>-1.79</ele><time>2011-10-10T10:52:40Z</time></trkpt><trkpt lat="44.1081293765" lon="14.9908260349"><ele>-0.34</ele><time>2011-10-10T10:52:52Z</time></trkpt><trkpt lat="44.1081465594" lon="14.9903516192"><ele>-0.34</ele><time>2011-10-10T10:53:09Z</time></trkpt><trkpt lat="44.1081546061" lon="14.9899076298"><ele>-0.82</ele><time>2011-10-10T10:53:25Z</time></trkpt><trkpt lat="44.1081184801" lon="14.9894879479"><ele>-0.82</ele><time>2011-10-10T10:53:40Z</time></trkpt><trkpt lat="44.1080663446" lon="14.9889685214"><ele>-0.82</ele><time>2011-10-10T10:53:58Z</time></trkpt><trkpt lat="44.1080395225" lon="14.9884497654"><ele>-1.30</ele><time>2011-10-10T10:54:14Z</time></trkpt><trkpt lat="44.1080432106" lon="14.9878867529"><ele>-1.30</ele><time>2011-10-10T10:54:29Z</time></trkpt><trkpt lat="44.1080213338" lon="14.9873782229"><ele>-0.34</ele><time>2011-10-10T10:54:44Z</time></trkpt><trkpt lat="44.1080570407" lon="14.9869365804"><ele>-0.34</ele><time>2011-10-10T10:55:01Z</time></trkpt><trkpt lat="44.1080523469" lon="14.9864829518"><ele>0.62</ele><time>2011-10-10T10:55:16Z</time></trkpt><trkpt lat="44.1080799233" lon="14.9859879166"><ele>0.14</ele><time>2011-10-10T10:55:32Z</time></trkpt><trkpt lat="44.1081133671" lon="14.9854365550"><ele>0.14</ele><time>2011-10-10T10:55:49Z</time></trkpt><trkpt lat="44.1081538517" lon="14.9848647416"><ele>1.10</ele><time>2011-10-10T10:56:06Z</time></trkpt><trkpt lat="44.1081587132" lon="14.9842927605"><ele>1.58</ele><time>2011-10-10T10:56:22Z</time></trkpt><trkpt lat="44.1081726272" lon="14.9837826379"><ele>2.06</ele><time>2011-10-10T10:56:37Z</time></trkpt><trkpt lat="44.1081795003" lon="14.9832000118"><ele>1.58</ele><time>2011-10-10T10:56:54Z</time></trkpt><trkpt lat="44.1082601342" lon="14.9826162122"><ele>2.54</ele><time>2011-10-10T10:57:12Z</time></trkpt><trkpt lat="44.1082824301" lon="14.9821084365"><ele>2.54</ele><time>2011-10-10T10:57:29Z</time></trkpt><trkpt lat="44.1082869563" lon="14.9815057777"><ele>2.06</ele><time>2011-10-10T10:57:47Z</time></trkpt><trkpt lat="44.1083125211" lon="14.9808753747"><ele>2.54</ele><time>2011-10-10T10:58:05Z</time></trkpt><trkpt lat="44.1083306260" lon="14.9803139549"><ele>2.54</ele><time>2011-10-10T10:58:21Z</time></trkpt><trkpt lat="44.1083463002" lon="14.9797863979"><ele>2.06</ele><time>2011-10-10T10:58:37Z</time></trkpt><trkpt lat="44.1083641537" lon="14.9791735969"><ele>2.54</ele><time>2011-10-10T10:58:54Z</time></trkpt><trkpt lat="44.1084078234" lon="14.9786291923"><ele>3.02</ele><time>2011-10-10T10:59:10Z</time></trkpt><trkpt lat="44.1084128525" lon="14.9781271163"><ele>3.02</ele><time>2011-10-10T10:59:26Z</time></trkpt><trkpt lat="44.1084454581" lon="14.9776248727"><ele>2.54</ele><time>2011-10-10T10:59:42Z</time></trkpt><trkpt lat="44.1084504873" lon="14.9771160912"><ele>2.54</ele><time>2011-10-10T10:59:58Z</time></trkpt><trkpt lat="44.1085664090" lon="14.9765488878"><ele>3.50</ele><time>2011-10-10T11:00:16Z</time></trkpt><trkpt lat="44.1086348891" lon="14.9760406092"><ele>3.02</ele><time>2011-10-10T11:00:31Z</time></trkpt><trkpt lat="44.1087762918" lon="14.9754466675"><ele>3.50</ele><time>2011-10-10T11:00:48Z</time></trkpt><trkpt lat="44.1089517251" lon="14.9748452660"><ele>3.02</ele><time>2011-10-10T11:01:06Z</time></trkpt><trkpt lat="44.1091133282" lon="14.9742448702"><ele>3.50</ele><time>2011-10-10T11:01:23Z</time></trkpt><trkpt lat="44.1093165055" lon="14.9736462347"><ele>3.98</ele><time>2011-10-10T11:01:42Z</time></trkpt><trkpt lat="44.1094905976" lon="14.9731444940"><ele>3.98</ele><time>2011-10-10T11:02:01Z</time></trkpt><trkpt lat="44.1096362751" lon="14.9727662187"><ele>3.98</ele><time>2011-10-10T11:02:18Z</time></trkpt><trkpt lat="44.1096905898" lon="14.9723054655"><ele>4.94</ele><time>2011-10-10T11:02:36Z</time></trkpt><trkpt lat="44.1097164061" lon="14.9717617314"><ele>4.94</ele><time>2011-10-10T11:02:54Z</time></trkpt><trkpt lat="44.1097647697" lon="14.9712806940"><ele>4.46</ele><time>2011-10-10T11:03:09Z</time></trkpt><trkpt lat="44.1098127142" lon="14.9706820585"><ele>3.98</ele><time>2011-10-10T11:03:26Z</time></trkpt><trkpt lat="44.1099291388" lon="14.9701374024"><ele>3.98</ele><time>2011-10-10T11:03:42Z</time></trkpt><trkpt lat="44.1100458987" lon="14.9695266970"><ele>3.50</ele><time>2011-10-10T11:04:01Z</time></trkpt><trkpt lat="44.1101380158" lon="14.9689687975"><ele>3.98</ele><time>2011-10-10T11:04:21Z</time></trkpt><trkpt lat="44.1101210844" lon="14.9684982374"><ele>4.46</ele><time>2011-10-10T11:04:37Z</time></trkpt><trkpt lat="44.1100847907" lon="14.9679376557"><ele>4.46</ele><time>2011-10-10T11:04:53Z</time></trkpt><trkpt lat="44.1100323200" lon="14.9673339911"><ele>4.94</ele><time>2011-10-10T11:05:10Z</time></trkpt><trkpt lat="44.1099842917" lon="14.9667574838"><ele>4.94</ele><time>2011-10-10T11:05:26Z</time></trkpt><trkpt lat="44.1099532787" lon="14.9661016837"><ele>4.94</ele><time>2011-10-10T11:05:43Z</time></trkpt><trkpt lat="44.1099858005" lon="14.9655585364"><ele>4.46</ele><time>2011-10-10T11:05:57Z</time></trkpt><trkpt lat="44.1100237705" lon="14.9649949372"><ele>3.98</ele><time>2011-10-10T11:06:12Z</time></trkpt><trkpt lat="44.1100863833" lon="14.9644582439"><ele>4.46</ele><time>2011-10-10T11:06:26Z</time></trkpt><trkpt lat="44.1102162190" lon="14.9639007635"><ele>4.94</ele><time>2011-10-10T11:06:42Z</time></trkpt><trkpt lat="44.1103882995" lon="14.9640431721"><ele>2.54</ele><time>2011-10-10T11:06:55Z</time></trkpt><trkpt lat="44.1104903910" lon="14.9644796178"><ele>0.62</ele><time>2011-10-10T11:07:11Z</time></trkpt><trkpt lat="44.1107184626" lon="14.9649936799"><ele>0.62</ele><time>2011-10-10T11:07:32Z</time></trkpt><trkpt lat="44.1109880246" lon="14.9653178919"><ele>1.58</ele><time>2011-10-10T11:07:49Z</time></trkpt><trkpt lat="44.1113712452" lon="14.9657344725"><ele>1.10</ele><time>2011-10-10T11:08:10Z</time></trkpt><trkpt lat="44.1117333435" lon="14.9662080500"><ele>0.62</ele><time>2011-10-10T11:08:28Z</time></trkpt><trkpt lat="44.1120062582" lon="14.9666907638"><ele>1.10</ele><time>2011-10-10T11:08:43Z</time></trkpt><trkpt lat="44.1124287061" lon="14.9671353400"><ele>1.58</ele><time>2011-10-10T11:09:02Z</time></trkpt><trkpt lat="44.1127160378" lon="14.9674910679"><ele>1.58</ele><time>2011-10-10T11:09:17Z</time></trkpt><trkpt lat="44.1131242365" lon="14.9678660743"><ele>1.58</ele><time>2011-10-10T11:09:35Z</time></trkpt><trkpt lat="44.1134939622" lon="14.9681114964"><ele>1.10</ele><time>2011-10-10T11:09:52Z</time></trkpt><trkpt lat="44.1138595808" lon="14.9683067109"><ele>0.62</ele><time>2011-10-10T11:10:08Z</time></trkpt><trkpt lat="44.1143439710" lon="14.9685266521"><ele>0.62</ele><time>2011-10-10T11:10:29Z</time></trkpt><trkpt lat="44.1147373337" lon="14.9687905982"><ele>1.58</ele><time>2011-10-10T11:10:49Z</time></trkpt><trkpt lat="44.1151161119" lon="14.9690868985"><ele>1.58</ele><time>2011-10-10T11:11:06Z</time></trkpt><trkpt lat="44.1154713370" lon="14.9694360048"><ele>1.58</ele><time>2011-10-10T11:11:25Z</time></trkpt><trkpt lat="44.1157887597" lon="14.9697181396"><ele>1.58</ele><time>2011-10-10T11:11:42Z</time></trkpt><trkpt lat="44.1161289811" lon="14.9701199681"><ele>2.54</ele><time>2011-10-10T11:12:02Z</time></trkpt><trkpt lat="44.1164604854" lon="14.9704612792"><ele>2.54</ele><time>2011-10-10T11:12:19Z</time></trkpt><trkpt lat="44.1168045625" lon="14.9708123971"><ele>1.58</ele><time>2011-10-10T11:12:36Z</time></trkpt><trkpt lat="44.1171548422" lon="14.9710861500"><ele>2.06</ele><time>2011-10-10T11:12:54Z</time></trkpt><trkpt lat="44.1174755339" lon="14.9714420456"><ele>2.06</ele><time>2011-10-10T11:13:13Z</time></trkpt><trkpt lat="44.1178602632" lon="14.9718393479"><ele>2.54</ele><time>2011-10-10T11:13:32Z</time></trkpt><trkpt lat="44.1181983892" lon="14.9721853528"><ele>2.54</ele><time>2011-10-10T11:13:49Z</time></trkpt><trkpt lat="44.1186016425" lon="14.9725485407"><ele>1.58</ele><time>2011-10-10T11:14:09Z</time></trkpt><trkpt lat="44.1190126073" lon="14.9728397280"><ele>0.62</ele><time>2011-10-10T11:14:29Z</time></trkpt><trkpt lat="44.1194263380" lon="14.9730417319"><ele>1.10</ele><time>2011-10-10T11:14:48Z</time></trkpt><trkpt lat="44.1198199522" lon="14.9732705578"><ele>1.10</ele><time>2011-10-10T11:15:06Z</time></trkpt><trkpt lat="44.1201924440" lon="14.9736635853"><ele>0.62</ele><time>2011-10-10T11:15:24Z</time></trkpt><trkpt lat="44.1205452383" lon="14.9740053155"><ele>1.58</ele><time>2011-10-10T11:15:41Z</time></trkpt><trkpt lat="44.1209824383" lon="14.9742796551"><ele>0.14</ele><time>2011-10-10T11:15:59Z</time></trkpt><trkpt lat="44.1214184649" lon="14.9745677412"><ele>1.10</ele><time>2011-10-10T11:16:18Z</time></trkpt><trkpt lat="44.1218584310" lon="14.9748626165"><ele>1.10</ele><time>2011-10-10T11:16:37Z</time></trkpt><trkpt lat="44.1224395484" lon="14.9751818832"><ele>1.10</ele><time>2011-10-10T11:17:00Z</time></trkpt><trkpt lat="44.1229184065" lon="14.9753331766"><ele>1.10</ele><time>2011-10-10T11:17:19Z</time></trkpt><trkpt lat="44.1234947462" lon="14.9755501840"><ele>0.14</ele><time>2011-10-10T11:17:43Z</time></trkpt><trkpt lat="44.1240172740" lon="14.9756936822"><ele>1.10</ele><time>2011-10-10T11:18:04Z</time></trkpt><trkpt lat="44.1245113034" lon="14.9758533575"><ele>1.58</ele><time>2011-10-10T11:18:24Z</time></trkpt><trkpt lat="44.1250675265" lon="14.9760126974"><ele>1.58</ele><time>2011-10-10T11:18:46Z</time></trkpt><trkpt lat="44.1256540921" lon="14.9762233347"><ele>-0.34</ele><time>2011-10-10T11:19:10Z</time></trkpt><trkpt lat="44.1261095647" lon="14.9764607940"><ele>0.62</ele><time>2011-10-10T11:19:30Z</time></trkpt><trkpt lat="44.1265269835" lon="14.9767942261"><ele>2.54</ele><time>2011-10-10T11:19:50Z</time></trkpt><trkpt lat="44.1270517744" lon="14.9772387184"><ele>3.02</ele><time>2011-10-10T11:20:13Z</time></trkpt><trkpt lat="44.1274688579" lon="14.9775789399"><ele>1.58</ele><time>2011-10-10T11:20:30Z</time></trkpt><trkpt lat="44.1278760508" lon="14.9778205901"><ele>2.06</ele><time>2011-10-10T11:20:46Z</time></trkpt><trkpt lat="44.1282845847" lon="14.9780861288"><ele>0.62</ele><time>2011-10-10T11:21:03Z</time></trkpt><trkpt lat="44.1287354473" lon="14.9783679284"><ele>-0.34</ele><time>2011-10-10T11:21:21Z</time></trkpt><trkpt lat="44.1291589011" lon="14.9786560982"><ele>0.14</ele><time>2011-10-10T11:21:38Z</time></trkpt><trkpt lat="44.1296133678" lon="14.9789383169"><ele>-0.82</ele><time>2011-10-10T11:21:56Z</time></trkpt><trkpt lat="44.1300260089" lon="14.9791306816"><ele>0.14</ele><time>2011-10-10T11:22:12Z</time></trkpt><trkpt lat="44.1303534899" lon="14.9792911112"><ele>0.62</ele><time>2011-10-10T11:22:26Z</time></trkpt><trkpt lat="44.1304458585" lon="14.9792543147"><ele>2.06</ele><time>2011-10-10T11:22:31Z</time></trkpt><trkpt lat="44.1304333694" lon="14.9788815714"><ele>4.46</ele><time>2011-10-10T11:22:45Z</time></trkpt><trkpt lat="44.1304803081" lon="14.9785411824"><ele>5.91</ele><time>2011-10-10T11:22:58Z</time></trkpt><trkpt lat="44.1305451002" lon="14.9779184069"><ele>7.35</ele><time>2011-10-10T11:23:17Z</time></trkpt><trkpt lat="44.1306423303" lon="14.9772427417"><ele>8.31</ele><time>2011-10-10T11:23:38Z</time></trkpt><trkpt lat="44.1307303403" lon="14.9767476227"><ele>7.35</ele><time>2011-10-10T11:23:55Z</time></trkpt><trkpt lat="44.1307944618" lon="14.9762371648"><ele>7.35</ele><time>2011-10-10T11:24:13Z</time></trkpt><trkpt lat="44.1308906861" lon="14.9756841268"><ele>6.87</ele><time>2011-10-10T11:24:32Z</time></trkpt><trkpt lat="44.1309901793" lon="14.9750771932"><ele>7.35</ele><time>2011-10-10T11:24:51Z</time></trkpt><trkpt lat="44.1310790274" lon="14.9744505621"><ele>7.35</ele><time>2011-10-10T11:25:11Z</time></trkpt><trkpt lat="44.1311449930" lon="14.9739723746"><ele>6.87</ele><time>2011-10-10T11:25:25Z</time></trkpt><trkpt lat="44.1312050913" lon="14.9734196719"><ele>6.87</ele><time>2011-10-10T11:25:41Z</time></trkpt><trkpt lat="44.1312587354" lon="14.9727794621"><ele>5.91</ele><time>2011-10-10T11:26:00Z</time></trkpt><trkpt lat="44.1313531995" lon="14.9721852690"><ele>6.87</ele><time>2011-10-10T11:26:19Z</time></trkpt><trkpt lat="44.1314992122" lon="14.9716073368"><ele>5.91</ele><time>2011-10-10T11:26:39Z</time></trkpt><trkpt lat="44.1316236835" lon="14.9710778520"><ele>4.46</ele><time>2011-10-10T11:26:58Z</time></trkpt><trkpt lat="44.1318108514" lon="14.9703495484"><ele>3.02</ele><time>2011-10-10T11:27:22Z</time></trkpt><trkpt lat="44.1319226660" lon="14.9698028807"><ele>4.46</ele><time>2011-10-10T11:27:42Z</time></trkpt><trkpt lat="44.1319727898" lon="14.9692519382"><ele>3.02</ele><time>2011-10-10T11:28:02Z</time></trkpt><trkpt lat="44.1319653299" lon="14.9686991517"><ele>2.54</ele><time>2011-10-10T11:28:19Z</time></trkpt><trkpt lat="44.1319846082" lon="14.9679819122"><ele>3.02</ele><time>2011-10-10T11:28:39Z</time></trkpt><trkpt lat="44.1319868714" lon="14.9673831929"><ele>3.98</ele><time>2011-10-10T11:28:56Z</time></trkpt><trkpt lat="44.1319950018" lon="14.9668238685"><ele>4.46</ele><time>2011-10-10T11:29:12Z</time></trkpt><trkpt lat="44.1320004500" lon="14.9662790447"><ele>4.46</ele><time>2011-10-10T11:29:27Z</time></trkpt><trkpt lat="44.1320198961" lon="14.9656564370"><ele>4.46</ele><time>2011-10-10T11:29:44Z</time></trkpt><trkpt lat="44.1320180520" lon="14.9651361722"><ele>3.98</ele><time>2011-10-10T11:30:00Z</time></trkpt><trkpt lat="44.1320032161" lon="14.9646633491"><ele>4.46</ele><time>2011-10-10T11:30:15Z</time></trkpt><trkpt lat="44.1319542658" lon="14.9640798010"><ele>3.98</ele><time>2011-10-10T11:30:33Z</time></trkpt><trkpt lat="44.1318888869" lon="14.9637250789"><ele>4.46</ele><time>2011-10-10T11:30:45Z</time></trkpt><trkpt lat="44.1318136174" lon="14.9631848652"><ele>3.98</ele><time>2011-10-10T11:31:03Z</time></trkpt><trkpt lat="44.1317124479" lon="14.9626688752"><ele>3.50</ele><time>2011-10-10T11:31:18Z</time></trkpt><trkpt lat="44.1316263657" lon="14.9620600976"><ele>3.02</ele><time>2011-10-10T11:31:34Z</time></trkpt><trkpt lat="44.1315273754" lon="14.9614173733"><ele>3.50</ele><time>2011-10-10T11:31:51Z</time></trkpt><trkpt lat="44.1314838734" lon="14.9608784169"><ele>3.50</ele><time>2011-10-10T11:32:05Z</time></trkpt><trkpt lat="44.1314133815" lon="14.9602817092"><ele>3.02</ele><time>2011-10-10T11:32:22Z</time></trkpt><trkpt lat="44.1313566361" lon="14.9597844109"><ele>2.54</ele><time>2011-10-10T11:32:36Z</time></trkpt><trkpt lat="44.1313001420" lon="14.9592635594"><ele>2.54</ele><time>2011-10-10T11:32:52Z</time></trkpt><trkpt lat="44.1312638484" lon="14.9586904887"><ele>2.54</ele><time>2011-10-10T11:33:08Z</time></trkpt><trkpt lat="44.1312477551" lon="14.9581395462"><ele>3.02</ele><time>2011-10-10T11:33:23Z</time></trkpt><trkpt lat="44.1312414687" lon="14.9574229773"><ele>4.46</ele><time>2011-10-10T11:33:44Z</time></trkpt><trkpt lat="44.1313005611" lon="14.9567021336"><ele>4.46</ele><time>2011-10-10T11:34:05Z</time></trkpt><trkpt lat="44.1312656924" lon="14.9561811984"><ele>3.50</ele><time>2011-10-10T11:34:22Z</time></trkpt><trkpt lat="44.1312289797" lon="14.9557226244"><ele>3.02</ele><time>2011-10-10T11:34:36Z</time></trkpt><trkpt lat="44.1312414687" lon="14.9552768748"><ele>3.02</ele><time>2011-10-10T11:34:50Z</time></trkpt><trkpt lat="44.1312207654" lon="14.9546919018"><ele>2.54</ele><time>2011-10-10T11:35:09Z</time></trkpt><trkpt lat="44.1311768442" lon="14.9541192502"><ele>3.02</ele><time>2011-10-10T11:35:29Z</time></trkpt><trkpt lat="44.1311514471" lon="14.9535243865"><ele>3.98</ele><time>2011-10-10T11:35:48Z</time></trkpt><trkpt lat="44.1311359406" lon="14.9531316943"><ele>3.50</ele><time>2011-10-10T11:36:01Z</time></trkpt><trkpt lat="44.1311408859" lon="14.9526383355"><ele>3.50</ele><time>2011-10-10T11:36:15Z</time></trkpt><trkpt lat="44.1311285645" lon="14.9519677833"><ele>3.98</ele><time>2011-10-10T11:36:34Z</time></trkpt><trkpt lat="44.1311327554" lon="14.9512822274"><ele>4.46</ele><time>2011-10-10T11:36:53Z</time></trkpt><trkpt lat="44.1311570629" lon="14.9506625533"><ele>4.94</ele><time>2011-10-10T11:37:09Z</time></trkpt><trkpt lat="44.1311760060" lon="14.9500800949"><ele>4.46</ele><time>2011-10-10T11:37:25Z</time></trkpt><trkpt lat="44.1311835498" lon="14.9493444152"><ele>3.98</ele><time>2011-10-10T11:37:46Z</time></trkpt><trkpt lat="44.1312027443" lon="14.9486757070"><ele>3.50</ele><time>2011-10-10T11:38:06Z</time></trkpt><trkpt lat="44.1311972123" lon="14.9482076615"><ele>3.98</ele><time>2011-10-10T11:38:22Z</time></trkpt><trkpt lat="44.1312105395" lon="14.9477105308"><ele>3.02</ele><time>2011-10-10T11:38:41Z</time></trkpt><trkpt lat="44.1312167421" lon="14.9472479336"><ele>2.54</ele><time>2011-10-10T11:38:59Z</time></trkpt><trkpt lat="44.1312373616" lon="14.9467869289"><ele>2.54</ele><time>2011-10-10T11:39:17Z</time></trkpt><trkpt lat="44.1312278062" lon="14.9462967552"><ele>3.02</ele><time>2011-10-10T11:39:36Z</time></trkpt><trkpt lat="44.1312063485" lon="14.9457087647"><ele>3.02</ele><time>2011-10-10T11:39:57Z</time></trkpt><trkpt lat="44.1311537940" lon="14.9451374542"><ele>2.54</ele><time>2011-10-10T11:40:18Z</time></trkpt><trkpt lat="44.1310929414" lon="14.9444356374"><ele>2.54</ele><time>2011-10-10T11:40:39Z</time></trkpt><trkpt lat="44.1311319172" lon="14.9437753949"><ele>3.50</ele><time>2011-10-10T11:40:56Z</time></trkpt><trkpt lat="44.1311871540" lon="14.9431036692"><ele>3.98</ele><time>2011-10-10T11:41:14Z</time></trkpt><trkpt lat="44.1312694643" lon="14.9424940534"><ele>4.94</ele><time>2011-10-10T11:41:31Z</time></trkpt><trkpt lat="44.1313710529" lon="14.9418510776"><ele>3.98</ele><time>2011-10-10T11:41:49Z</time></trkpt><trkpt lat="44.1314802691" lon="14.9412434734"><ele>3.02</ele><time>2011-10-10T11:42:06Z</time></trkpt><trkpt lat="44.1316065844" lon="14.9404694885"><ele>3.98</ele><time>2011-10-10T11:42:28Z</time></trkpt><trkpt lat="44.1316386871" lon="14.9397822563"><ele>2.54</ele><time>2011-10-10T11:42:48Z</time></trkpt><trkpt lat="44.1316598933" lon="14.9391590618"><ele>2.54</ele><time>2011-10-10T11:43:06Z</time></trkpt><trkpt lat="44.1316890623" lon="14.9385773577"><ele>1.58</ele><time>2011-10-10T11:43:26Z</time></trkpt><trkpt lat="44.1316813510" lon="14.9378853478"><ele>2.54</ele><time>2011-10-10T11:43:46Z</time></trkpt><trkpt lat="44.1317140404" lon="14.9372018874"><ele>2.54</ele><time>2011-10-10T11:44:05Z</time></trkpt><trkpt lat="44.1317780782" lon="14.9364525452"><ele>2.54</ele><time>2011-10-10T11:44:25Z</time></trkpt><trkpt lat="44.1318644118" lon="14.9356899597"><ele>3.50</ele><time>2011-10-10T11:44:45Z</time></trkpt><trkpt lat="44.1319099255" lon="14.9350062478"><ele>1.58</ele><time>2011-10-10T11:45:05Z</time></trkpt><trkpt lat="44.1319217440" lon="14.9343364500"><ele>1.58</ele><time>2011-10-10T11:45:24Z</time></trkpt><trkpt lat="44.1319649108" lon="14.9336772133"><ele>1.10</ele><time>2011-10-10T11:45:43Z</time></trkpt><trkpt lat="44.1319631506" lon="14.9330978561"><ele>0.62</ele><time>2011-10-10T11:46:00Z</time></trkpt><trkpt lat="44.1319613066" lon="14.9325506017"><ele>2.54</ele><time>2011-10-10T11:46:18Z</time></trkpt><trkpt lat="44.1319696885" lon="14.9319214560"><ele>3.98</ele><time>2011-10-10T11:46:38Z</time></trkpt><trkpt lat="44.1319854464" lon="14.9312861077"><ele>3.98</ele><time>2011-10-10T11:46:55Z</time></trkpt><trkpt lat="44.1320076585" lon="14.9304558802"><ele>3.50</ele><time>2011-10-10T11:47:18Z</time></trkpt><trkpt lat="44.1319806688" lon="14.9296768662"><ele>2.54</ele><time>2011-10-10T11:47:40Z</time></trkpt><trkpt lat="44.1319478955" lon="14.9289359059"><ele>2.06</ele><time>2011-10-10T11:48:00Z</time></trkpt><trkpt lat="44.1319318023" lon="14.9282090273"><ele>2.06</ele><time>2011-10-10T11:48:20Z</time></trkpt><trkpt lat="44.1319788247" lon="14.9273010157"><ele>2.06</ele><time>2011-10-10T11:48:46Z</time></trkpt><trkpt lat="44.1320649069" lon="14.9264738057"><ele>2.06</ele><time>2011-10-10T11:49:11Z</time></trkpt><trkpt lat="44.1321446188" lon="14.9258553889"><ele>2.06</ele><time>2011-10-10T11:49:31Z</time></trkpt><trkpt lat="44.1321609635" lon="14.9251648039"><ele>0.62</ele><time>2011-10-10T11:49:54Z</time></trkpt><trkpt lat="44.1321564373" lon="14.9245261028"><ele>1.58</ele><time>2011-10-10T11:50:13Z</time></trkpt><trkpt lat="44.1321939882" lon="14.9238513596"><ele>1.58</ele><time>2011-10-10T11:50:31Z</time></trkpt><trkpt lat="44.1322468780" lon="14.9230938870"><ele>1.58</ele><time>2011-10-10T11:50:53Z</time></trkpt><trkpt lat="44.1322747059" lon="14.9223893881"><ele>1.58</ele><time>2011-10-10T11:51:15Z</time></trkpt><trkpt lat="44.1322805732" lon="14.9215819594"><ele>1.10</ele><time>2011-10-10T11:51:39Z</time></trkpt><trkpt lat="44.1323962435" lon="14.9212681409"><ele>0.62</ele><time>2011-10-10T11:51:53Z</time></trkpt><trkpt lat="44.1326324455" lon="14.9213617668"><ele>0.62</ele><time>2011-10-10T11:52:09Z</time></trkpt><trkpt lat="44.1330227070" lon="14.9215979688"><ele>-0.34</ele><time>2011-10-10T11:52:31Z</time></trkpt><trkpt lat="44.1335697100" lon="14.9220725521"><ele>0.14</ele><time>2011-10-10T11:52:59Z</time></trkpt><trkpt lat="44.1340596322" lon="14.9225491472"><ele>-0.34</ele><time>2011-10-10T11:53:22Z</time></trkpt><trkpt lat="44.1344322078" lon="14.9230765365"><ele>0.62</ele><time>2011-10-10T11:53:41Z</time></trkpt><trkpt lat="44.1348753590" lon="14.9237252958"><ele>-0.34</ele><time>2011-10-10T11:54:02Z</time></trkpt><trkpt lat="44.1352843959" lon="14.9241844565"><ele>-0.82</ele><time>2011-10-10T11:54:20Z</time></trkpt><trkpt lat="44.1357146390" lon="14.9245603848"><ele>-0.34</ele><time>2011-10-10T11:54:39Z</time></trkpt><trkpt lat="44.1361484025" lon="14.9249960762"><ele>-1.30</ele><time>2011-10-10T11:55:00Z</time></trkpt><trkpt lat="44.1365597863" lon="14.9255201966"><ele>-2.27</ele><time>2011-10-10T11:55:21Z</time></trkpt><trkpt lat="44.1370380577" lon="14.9260086939"><ele>-2.27</ele><time>2011-10-10T11:55:44Z</time></trkpt><trkpt lat="44.1374768503" lon="14.9264444690"><ele>-0.34</ele><time>2011-10-10T11:56:05Z</time></trkpt><trkpt lat="44.1380468197" lon="14.9268796574"><ele>0.14</ele><time>2011-10-10T11:56:29Z</time></trkpt><trkpt lat="44.1385811660" lon="14.9272864312"><ele>1.10</ele><time>2011-10-10T11:56:53Z</time></trkpt><trkpt lat="44.1390717588" lon="14.9276646227"><ele>0.62</ele><time>2011-10-10T11:57:17Z</time></trkpt><trkpt lat="44.1395283211" lon="14.9280864000"><ele>0.62</ele><time>2011-10-10T11:57:43Z</time></trkpt><trkpt lat="44.1399174090" lon="14.9285010528"><ele>-0.34</ele><time>2011-10-10T11:58:04Z</time></trkpt><trkpt lat="44.1404764820" lon="14.9289590400"><ele>0.14</ele><time>2011-10-10T11:58:27Z</time></trkpt><trkpt lat="44.1411193740" lon="14.9293098226"><ele>0.62</ele><time>2011-10-10T11:58:52Z</time></trkpt><trkpt lat="44.1416777764" lon="14.9295677338"><ele>0.14</ele><time>2011-10-10T11:59:13Z</time></trkpt><trkpt lat="44.1421935149" lon="14.9296569172"><ele>0.14</ele><time>2011-10-10T11:59:32Z</time></trkpt><trkpt lat="44.1428566072" lon="14.9297829811"><ele>1.10</ele><time>2011-10-10T11:59:55Z</time></trkpt><trkpt lat="44.1435123235" lon="14.9300565664"><ele>0.62</ele><time>2011-10-10T12:00:20Z</time></trkpt><trkpt lat="44.1440591589" lon="14.9303166568"><ele>0.14</ele><time>2011-10-10T12:00:42Z</time></trkpt><trkpt lat="44.1446652543" lon="14.9305251148"><ele>0.14</ele><time>2011-10-10T12:01:07Z</time></trkpt><trkpt lat="44.1451063938" lon="14.9306438863"><ele>0.62</ele><time>2011-10-10T12:01:28Z</time></trkpt><trkpt lat="44.1455167718" lon="14.9308783282"><ele>0.14</ele><time>2011-10-10T12:01:53Z</time></trkpt><trkpt lat="44.1458655428" lon="14.9311121833"><ele>0.14</ele><time>2011-10-10T12:02:17Z</time></trkpt><trkpt lat="44.1462875716" lon="14.9313493073"><ele>-0.82</ele><time>2011-10-10T12:02:43Z</time></trkpt><trkpt lat="44.1466202494" lon="14.9315168615"><ele>-1.79</ele><time>2011-10-10T12:03:06Z</time></trkpt><trkpt lat="44.1469165497" lon="14.9317404907"><ele>-1.79</ele><time>2011-10-10T12:03:31Z</time></trkpt><trkpt lat="44.1471518297" lon="14.9317761138"><ele>0.14</ele><time>2011-10-10T12:03:51Z</time></trkpt><trkpt lat="44.1472136881" lon="14.9313915521"><ele>1.58</ele><time>2011-10-10T12:04:09Z</time></trkpt><trkpt lat="44.1473197192" lon="14.9307930004"><ele>0.14</ele><time>2011-10-10T12:04:32Z</time></trkpt><trkpt lat="44.1474416759" lon="14.9301537126"><ele>0.14</ele><time>2011-10-10T12:04:56Z</time></trkpt><trkpt lat="44.1475080606" lon="14.9296176061"><ele>-0.34</ele><time>2011-10-10T12:05:18Z</time></trkpt><trkpt lat="44.1475332063" lon="14.9291281868"><ele>0.14</ele><time>2011-10-10T12:05:40Z</time></trkpt><trkpt lat="44.1475260817" lon="14.9287344888"><ele>0.62</ele><time>2011-10-10T12:06:02Z</time></trkpt><trkpt lat="44.1474855971" lon="14.9281031638"><ele>2.54</ele><time>2011-10-10T12:06:30Z</time></trkpt><trkpt lat="44.1475066356" lon="14.9274238944"><ele>2.06</ele><time>2011-10-10T12:06:54Z</time></trkpt><trkpt lat="44.1474817414" lon="14.9268565234"><ele>2.06</ele><time>2011-10-10T12:07:12Z</time></trkpt><trkpt lat="44.1474007722" lon="14.9261129647"><ele>2.54</ele><time>2011-10-10T12:07:32Z</time></trkpt><trkpt lat="44.1474511474" lon="14.9253852479"><ele>2.54</ele><time>2011-10-10T12:07:52Z</time></trkpt><trkpt lat="44.1475034505" lon="14.9246660806"><ele>2.06</ele><time>2011-10-10T12:08:14Z</time></trkpt><trkpt lat="44.1475815699" lon="14.9239282217"><ele>2.54</ele><time>2011-10-10T12:08:38Z</time></trkpt><trkpt lat="44.1476595215" lon="14.9233132415"><ele>3.98</ele><time>2011-10-10T12:08:56Z</time></trkpt><trkpt lat="44.1478087194" lon="14.9225630611"><ele>3.02</ele><time>2011-10-10T12:09:19Z</time></trkpt><trkpt lat="44.1479476914" lon="14.9217341747"><ele>2.54</ele><time>2011-10-10T12:09:45Z</time></trkpt><trkpt lat="44.1480476875" lon="14.9208966549"><ele>3.98</ele><time>2011-10-10T12:10:11Z</time></trkpt><trkpt lat="44.1481233761" lon="14.9201292917"><ele>3.50</ele><time>2011-10-10T12:10:36Z</time></trkpt><trkpt lat="44.1481606755" lon="14.9195338413"><ele>3.50</ele><time>2011-10-10T12:10:55Z</time></trkpt><trkpt lat="44.1481839772" lon="14.9188928772"><ele>3.50</ele><time>2011-10-10T12:11:15Z</time></trkpt><trkpt lat="44.1482344363" lon="14.9181653280"><ele>3.02</ele><time>2011-10-10T12:11:35Z</time></trkpt><trkpt lat="44.1482941154" lon="14.9172736611"><ele>3.50</ele><time>2011-10-10T12:11:59Z</time></trkpt><trkpt lat="44.1484137252" lon="14.9164705072"><ele>2.54</ele><time>2011-10-10T12:12:22Z</time></trkpt><trkpt lat="44.1485282220" lon="14.9157478195"><ele>3.02</ele><time>2011-10-10T12:12:43Z</time></trkpt><trkpt lat="44.1486327443" lon="14.9150539655"><ele>2.54</ele><time>2011-10-10T12:13:06Z</time></trkpt><trkpt lat="44.1486791801" lon="14.9143570103"><ele>3.02</ele><time>2011-10-10T12:13:29Z</time></trkpt><trkpt lat="44.1487402003" lon="14.9134847894"><ele>3.50</ele><time>2011-10-10T12:13:54Z</time></trkpt><trkpt lat="44.1488360055" lon="14.9126379658"><ele>3.50</ele><time>2011-10-10T12:14:16Z</time></trkpt><trkpt lat="44.1489779111" lon="14.9117154535"><ele>3.02</ele><time>2011-10-10T12:14:38Z</time></trkpt><trkpt lat="44.1491138656" lon="14.9108964577"><ele>1.10</ele><time>2011-10-10T12:15:01Z</time></trkpt><trkpt lat="44.1492562741" lon="14.9101234786"><ele>-1.30</ele><time>2011-10-10T12:15:26Z</time></trkpt><trkpt lat="44.1493848525" lon="14.9093520083"><ele>-1.79</ele><time>2011-10-10T12:15:53Z</time></trkpt><trkpt lat="44.1494546738" lon="14.9085942004"><ele>-0.82</ele><time>2011-10-10T12:16:19Z</time></trkpt><trkpt lat="44.1495498084" lon="14.9077722710"><ele>-0.82</ele><time>2011-10-10T12:16:43Z</time></trkpt><trkpt lat="44.1496218927" lon="14.9070403632"><ele>0.14</ele><time>2011-10-10T12:17:02Z</time></trkpt><trkpt lat="44.1497425083" lon="14.9062614329"><ele>0.62</ele><time>2011-10-10T12:17:22Z</time></trkpt><trkpt lat="44.1498004273" lon="14.9054202251"><ele>1.10</ele><time>2011-10-10T12:17:45Z</time></trkpt><trkpt lat="44.1498629563" lon="14.9046934303"><ele>-0.34</ele><time>2011-10-10T12:18:05Z</time></trkpt><trkpt lat="44.1499308497" lon="14.9038016796"><ele>-0.82</ele><time>2011-10-10T12:18:28Z</time></trkpt><trkpt lat="44.1499629524" lon="14.9029721227"><ele>1.10</ele><time>2011-10-10T12:18:48Z</time></trkpt><trkpt lat="44.1499998327" lon="14.9021902587"><ele>2.06</ele><time>2011-10-10T12:19:06Z</time></trkpt><trkpt lat="44.1501406487" lon="14.9018130731"><ele>1.58</ele><time>2011-10-10T12:19:19Z</time></trkpt><trkpt lat="44.1504014097" lon="14.9018705729"><ele>0.62</ele><time>2011-10-10T12:19:34Z</time></trkpt><trkpt lat="44.1508946847" lon="14.9020267278"><ele>-0.34</ele><time>2011-10-10T12:19:55Z</time></trkpt><trkpt lat="44.1514136083" lon="14.9022516143"><ele>0.62</ele><time>2011-10-10T12:20:17Z</time></trkpt><trkpt lat="44.1518881079" lon="14.9025216792"><ele>1.10</ele><time>2011-10-10T12:20:38Z</time></trkpt><trkpt lat="44.1523126513" lon="14.9028106872"><ele>0.14</ele><time>2011-10-10T12:20:57Z</time></trkpt><trkpt lat="44.1528363526" lon="14.9032459594"><ele>0.14</ele><time>2011-10-10T12:21:22Z</time></trkpt><trkpt lat="44.1533332318" lon="14.9036538228"><ele>0.62</ele><time>2011-10-10T12:21:46Z</time></trkpt><trkpt lat="44.1537121776" lon="14.9040249735"><ele>-0.34</ele><time>2011-10-10T12:22:05Z</time></trkpt><trkpt lat="44.1541150957" lon="14.9044173304"><ele>0.14</ele><time>2011-10-10T12:22:26Z</time></trkpt><trkpt lat="44.1545179300" lon="14.9048030656"><ele>0.14</ele><time>2011-10-10T12:22:48Z</time></trkpt><trkpt lat="44.1549907532" lon="14.9050515890"><ele>0.14</ele><time>2011-10-10T12:23:08Z</time></trkpt><trkpt lat="44.1553814337" lon="14.9052247591"><ele>0.62</ele><time>2011-10-10T12:23:24Z</time></trkpt><trkpt lat="44.1558793187" lon="14.9053518288"><ele>1.10</ele><time>2011-10-10T12:23:44Z</time></trkpt><trkpt lat="44.1563524771" lon="14.9054074008"><ele>0.62</ele><time>2011-10-10T12:24:05Z</time></trkpt><trkpt lat="44.1567104682" lon="14.9055199698"><ele>0.14</ele><time>2011-10-10T12:24:26Z</time></trkpt><trkpt lat="44.1571105365" lon="14.9057140946"><ele>0.62</ele><time>2011-10-10T12:24:48Z</time></trkpt><trkpt lat="44.1574497521" lon="14.9059008434"><ele>0.62</ele><time>2011-10-10T12:25:09Z</time></trkpt><trkpt lat="44.1577764787" lon="14.9061712436"><ele>0.62</ele><time>2011-10-10T12:25:29Z</time></trkpt><trkpt lat="44.1579255927" lon="14.9060231354"><ele>0.62</ele><time>2011-10-10T12:25:39Z</time></trkpt><trkpt lat="44.1579363216" lon="14.9054913875"><ele>-0.34</ele><time>2011-10-10T12:25:59Z</time></trkpt><trkpt lat="44.1580211464" lon="14.9048170634"><ele>-1.79</ele><time>2011-10-10T12:26:24Z</time></trkpt><trkpt lat="44.1580949072" lon="14.9042755924"><ele>-2.27</ele><time>2011-10-10T12:26:45Z</time></trkpt><trkpt lat="44.1581298597" lon="14.9036493804"><ele>-1.30</ele><time>2011-10-10T12:27:08Z</time></trkpt><trkpt lat="44.1581587773" lon="14.9030763097"><ele>-0.34</ele><time>2011-10-10T12:27:25Z</time></trkpt><trkpt lat="44.1581571009" lon="14.9023509398"><ele>-0.82</ele><time>2011-10-10T12:27:46Z</time></trkpt><trkpt lat="44.1582177021" lon="14.9016328622"><ele>3.98</ele><time>2011-10-10T12:28:04Z</time></trkpt><trkpt lat="44.1582126729" lon="14.9008650798"><ele>7.83</ele><time>2011-10-10T12:28:24Z</time></trkpt><trkpt lat="44.1582127567" lon="14.9001115467"><ele>8.31</ele><time>2011-10-10T12:28:42Z</time></trkpt><trkpt lat="44.1582637187" lon="14.8991570994"><ele>7.35</ele><time>2011-10-10T12:29:04Z</time></trkpt><trkpt lat="44.1583645530" lon="14.8984818533"><ele>6.87</ele><time>2011-10-10T12:29:20Z</time></trkpt><trkpt lat="44.1585142538" lon="14.8978372850"><ele>6.87</ele><time>2011-10-10T12:29:36Z</time></trkpt><trkpt lat="44.1587403975" lon="14.8970965762"><ele>6.87</ele><time>2011-10-10T12:29:57Z</time></trkpt><trkpt lat="44.1589107178" lon="14.8966447916"><ele>5.91</ele><time>2011-10-10T12:30:11Z</time></trkpt><trkpt lat="44.1591452435" lon="14.8961402010"><ele>5.91</ele><time>2011-10-10T12:30:28Z</time></trkpt><trkpt lat="44.1593575571" lon="14.8957319185"><ele>3.50</ele><time>2011-10-10T12:30:43Z</time></trkpt><trkpt lat="44.1595774982" lon="14.8952701595"><ele>3.02</ele><time>2011-10-10T12:30:59Z</time></trkpt><trkpt lat="44.1598183941" lon="14.8948112503"><ele>2.54</ele><time>2011-10-10T12:31:15Z</time></trkpt><trkpt lat="44.1600771435" lon="14.8944103438"><ele>1.58</ele><time>2011-10-10T12:31:31Z</time></trkpt><trkpt lat="44.1603286844" lon="14.8939898238"><ele>3.02</ele><time>2011-10-10T12:31:46Z</time></trkpt><trkpt lat="44.1606715880" lon="14.8934771027"><ele>3.50</ele><time>2011-10-10T12:32:06Z</time></trkpt><trkpt lat="44.1609673854" lon="14.8930605222"><ele>3.02</ele><time>2011-10-10T12:32:24Z</time></trkpt><trkpt lat="44.1612531245" lon="14.8926149402"><ele>2.06</ele><time>2011-10-10T12:32:43Z</time></trkpt><trkpt lat="44.1615004744" lon="14.8922609724"><ele>0.14</ele><time>2011-10-10T12:33:01Z</time></trkpt><trkpt lat="44.1617137939" lon="14.8919021431"><ele>-0.82</ele><time>2011-10-10T12:33:19Z</time></trkpt><trkpt lat="44.1619113553" lon="14.8915186711"><ele>0.14</ele><time>2011-10-10T12:33:38Z</time></trkpt><trkpt lat="44.1621162929" lon="14.8911641166"><ele>1.58</ele><time>2011-10-10T12:33:53Z</time></trkpt><trkpt lat="44.1623733658" lon="14.8907176964"><ele>4.46</ele><time>2011-10-10T12:34:11Z</time></trkpt><trkpt lat="44.1626085620" lon="14.8902969249"><ele>6.39</ele><time>2011-10-10T12:34:27Z</time></trkpt><trkpt lat="44.1628213786" lon="14.8899742216"><ele>6.87</ele><time>2011-10-10T12:34:41Z</time></trkpt><trkpt lat="44.1629859991" lon="14.8897885624"><ele>4.94</ele><time>2011-10-10T12:34:52Z</time></trkpt><trkpt lat="44.1630268190" lon="14.8896987922"><ele>4.94</ele><time>2011-10-10T12:34:57Z</time></trkpt><trkpt lat="44.1631490272" lon="14.8894675355"><ele>6.39</ele><time>2011-10-10T12:35:12Z</time></trkpt><trkpt lat="44.1632906813" lon="14.8891335167"><ele>8.31</ele><time>2011-10-10T12:35:30Z</time></trkpt><trkpt lat="44.1634576488" lon="14.8888399825"><ele>9.75</ele><time>2011-10-10T12:35:45Z</time></trkpt><trkpt lat="44.1636200063" lon="14.8885304388"><ele>10.23</ele><time>2011-10-10T12:36:00Z</time></trkpt><trkpt lat="44.1636485048" lon="14.8884768784"><ele>10.23</ele><time>2011-10-10T12:36:03Z</time></trkpt><trkpt lat="44.1637109499" lon="14.8883214779"><ele>9.27</ele><time>2011-10-10T12:36:11Z</time></trkpt><trkpt lat="44.1638746485" lon="14.8879576195"><ele>8.79</ele><time>2011-10-10T12:36:27Z</time></trkpt><trkpt lat="44.1640942544" lon="14.8875780869"><ele>8.79</ele><time>2011-10-10T12:36:43Z</time></trkpt><trkpt lat="44.1642808355" lon="14.8872315791"><ele>9.27</ele><time>2011-10-10T12:36:58Z</time></trkpt><trkpt lat="44.1645036265" lon="14.8868788686"><ele>10.23</ele><time>2011-10-10T12:37:13Z</time></trkpt><trkpt lat="44.1647427622" lon="14.8865271639"><ele>10.23</ele><time>2011-10-10T12:37:28Z</time></trkpt><trkpt lat="44.1649771202" lon="14.8861026205"><ele>8.79</ele><time>2011-10-10T12:37:45Z</time></trkpt><trkpt lat="44.1651709937" lon="14.8857510835"><ele>9.27</ele><time>2011-10-10T12:37:59Z</time></trkpt><trkpt lat="44.1653249692" lon="14.8854003847"><ele>8.31</ele><time>2011-10-10T12:38:13Z</time></trkpt><trkpt lat="44.1654972173" lon="14.8851198424"><ele>5.91</ele><time>2011-10-10T12:38:27Z</time></trkpt><trkpt lat="44.1655604169" lon="14.8848263081"><ele>5.42</ele><time>2011-10-10T12:38:40Z</time></trkpt><trkpt lat="44.1655843891" lon="14.8847728316"><ele>4.94</ele><time>2011-10-10T12:38:43Z</time></trkpt><trkpt lat="44.1657144763" lon="14.8848544713"><ele>2.54</ele><time>2011-10-10T12:38:55Z</time></trkpt><trkpt lat="44.1659080144" lon="14.8851262126"><ele>1.10</ele><time>2011-10-10T12:39:10Z</time></trkpt><trkpt lat="44.1662357468" lon="14.8854014743"><ele>1.58</ele><time>2011-10-10T12:39:29Z</time></trkpt><trkpt lat="44.1665445361" lon="14.8856716231"><ele>0.14</ele><time>2011-10-10T12:39:48Z</time></trkpt><trkpt lat="44.1668237373" lon="14.8859176319"><ele>-0.34</ele><time>2011-10-10T12:40:04Z</time></trkpt><trkpt lat="44.1670890246" lon="14.8862075619"><ele>0.14</ele><time>2011-10-10T12:40:24Z</time></trkpt><trkpt lat="44.1672268230" lon="14.8864407465"><ele>-0.82</ele><time>2011-10-10T12:40:40Z</time></trkpt><trkpt lat="44.1673937067" lon="14.8867135774"><ele>0.62</ele><time>2011-10-10T12:40:56Z</time></trkpt><trkpt lat="44.1677220259" lon="14.8870964628"><ele>1.58</ele><time>2011-10-10T12:41:14Z</time></trkpt><trkpt lat="44.1680961940" lon="14.8874863051"><ele>2.06</ele><time>2011-10-10T12:41:33Z</time></trkpt><trkpt lat="44.1683764011" lon="14.8877489939"><ele>1.10</ele><time>2011-10-10T12:41:47Z</time></trkpt><trkpt lat="44.1686546803" lon="14.8879992776"><ele>0.62</ele><time>2011-10-10T12:42:00Z</time></trkpt><trkpt lat="44.1689346358" lon="14.8882493936"><ele>-0.34</ele><time>2011-10-10T12:42:13Z</time></trkpt><trkpt lat="44.1691910382" lon="14.8884433508"><ele>-0.34</ele><time>2011-10-10T12:42:25Z</time></trkpt><trkpt lat="44.1694420762" lon="14.8885751143"><ele>-2.27</ele><time>2011-10-10T12:42:36Z</time></trkpt><trkpt lat="44.1695483588" lon="14.8883474618"><ele>-1.30</ele><time>2011-10-10T12:42:47Z</time></trkpt><trkpt lat="44.1695995722" lon="14.8878605571"><ele>0.14</ele><time>2011-10-10T12:43:02Z</time></trkpt><trkpt lat="44.1696144920" lon="14.8877928313"><ele>0.14</ele><time>2011-10-10T12:43:04Z</time></trkpt><trkpt lat="44.1696847323" lon="14.8872050922"><ele>1.58</ele><time>2011-10-10T12:43:19Z</time></trkpt><trkpt lat="44.1697729100" lon="14.8867438361"><ele>3.02</ele><time>2011-10-10T12:43:31Z</time></trkpt><trkpt lat="44.1698393784" lon="14.8863393255"><ele>3.50</ele><time>2011-10-10T12:43:43Z</time></trkpt><trkpt lat="44.1698886640" lon="14.8857996985"><ele>4.46</ele><time>2011-10-10T12:44:01Z</time></trkpt><trkpt lat="44.1699191742" lon="14.8853764962"><ele>4.94</ele><time>2011-10-10T12:44:14Z</time></trkpt><trkpt lat="44.1699679568" lon="14.8847982287"><ele>5.42</ele><time>2011-10-10T12:44:31Z</time></trkpt><trkpt lat="44.1699850559" lon="14.8843198735"><ele>6.39</ele><time>2011-10-10T12:44:46Z</time></trkpt><trkpt lat="44.1700140573" lon="14.8839191347"><ele>6.87</ele><time>2011-10-10T12:45:00Z</time></trkpt><trkpt lat="44.1700649355" lon="14.8835155461"><ele>7.35</ele><time>2011-10-10T12:45:15Z</time></trkpt><trkpt lat="44.1701176576" lon="14.8831362650"><ele>8.31</ele><time>2011-10-10T12:45:29Z</time></trkpt><trkpt lat="44.1701889876" lon="14.8827449139"><ele>7.83</ele><time>2011-10-10T12:45:44Z</time></trkpt><trkpt lat="44.1702391952" lon="14.8823464382"><ele>9.27</ele><time>2011-10-10T12:45:59Z</time></trkpt><trkpt lat="44.1703133751" lon="14.8820043728"><ele>6.87</ele><time>2011-10-10T12:46:14Z</time></trkpt><trkpt lat="44.1703686956" lon="14.8816844355"><ele>4.94</ele><time>2011-10-10T12:46:27Z</time></trkpt><trkpt lat="44.1704331525" lon="14.8812282085"><ele>5.42</ele><time>2011-10-10T12:46:45Z</time></trkpt><trkpt lat="44.1704988666" lon="14.8808962014"><ele>5.91</ele><time>2011-10-10T12:46:58Z</time></trkpt><trkpt lat="44.1705867089" lon="14.8805231228"><ele>5.42</ele><time>2011-10-10T12:47:13Z</time></trkpt><trkpt lat="44.1706135310" lon="14.8804266471"><ele>4.94</ele><time>2011-10-10T12:47:17Z</time></trkpt><trkpt lat="44.1706494894" lon="14.8803193588"><ele>3.98</ele><time>2011-10-10T12:47:22Z</time></trkpt><trkpt lat="44.1707745474" lon="14.8799580149"><ele>3.02</ele><time>2011-10-10T12:47:38Z</time></trkpt><trkpt lat="44.1708887927" lon="14.8795393389"><ele>6.39</ele><time>2011-10-10T12:47:54Z</time></trkpt><trkpt lat="44.1709765512" lon="14.8791774083"><ele>9.75</ele><time>2011-10-10T12:48:08Z</time></trkpt><trkpt lat="44.1710905451" lon="14.8787577264"><ele>10.23</ele><time>2011-10-10T12:48:25Z</time></trkpt><trkpt lat="44.1711683292" lon="14.8784726579"><ele>9.75</ele><time>2011-10-10T12:48:37Z</time></trkpt><trkpt lat="44.1712540761" lon="14.8781570792"><ele>9.75</ele><time>2011-10-10T12:48:50Z</time></trkpt><trkpt lat="44.1713222209" lon="14.8779238947"><ele>10.23</ele><time>2011-10-10T12:49:01Z</time></trkpt><trkpt lat="44.1713873483" lon="14.8777281772"><ele>9.75</ele><time>2011-10-10T12:49:10Z</time></trkpt><trkpt lat="44.1714552417" lon="14.8776705936"><ele>7.83</ele><time>2011-10-10T12:49:17Z</time></trkpt><trkpt lat="44.1716345306" lon="14.8778385669"><ele>3.98</ele><time>2011-10-10T12:49:32Z</time></trkpt><trkpt lat="44.1718415637" lon="14.8780015111"><ele>2.06</ele><time>2011-10-10T12:49:47Z</time></trkpt><trkpt lat="44.1720842198" lon="14.8781704903"><ele>1.10</ele><time>2011-10-10T12:50:03Z</time></trkpt><trkpt lat="44.1723134648" lon="14.8783796187"><ele>0.62</ele><time>2011-10-10T12:50:18Z</time></trkpt><trkpt lat="44.1725490801" lon="14.8786093667"><ele>0.14</ele><time>2011-10-10T12:50:34Z</time></trkpt><trkpt lat="44.1727997828" lon="14.8788892385"><ele>0.14</ele><time>2011-10-10T12:50:51Z</time></trkpt><trkpt lat="44.1729654931" lon="14.8790991213"><ele>-0.34</ele><time>2011-10-10T12:51:04Z</time></trkpt><trkpt lat="44.1732179560" lon="14.8793868721"><ele>0.14</ele><time>2011-10-10T12:51:21Z</time></trkpt><trkpt lat="44.1734334547" lon="14.8796729464"><ele>-0.34</ele><time>2011-10-10T12:51:37Z</time></trkpt><trkpt lat="44.1737886798" lon="14.8800700810"><ele>0.14</ele><time>2011-10-10T12:51:59Z</time></trkpt><trkpt lat="44.1741157416" lon="14.8803988192"><ele>1.58</ele><time>2011-10-10T12:52:17Z</time></trkpt><trkpt lat="44.1744047496" lon="14.8807157390"><ele>1.10</ele><time>2011-10-10T12:52:34Z</time></trkpt><trkpt lat="44.1746692825" lon="14.8810872249"><ele>0.14</ele><time>2011-10-10T12:52:53Z</time></trkpt><trkpt lat="44.1749159619" lon="14.8814460542"><ele>-0.34</ele><time>2011-10-10T12:53:11Z</time></trkpt><trkpt lat="44.1751232464" lon="14.8817384150"><ele>1.10</ele><time>2011-10-10T12:53:25Z</time></trkpt><trkpt lat="44.1753669921" lon="14.8820238188"><ele>0.62</ele><time>2011-10-10T12:53:42Z</time></trkpt><trkpt lat="44.1755956504" lon="14.8823290877"><ele>1.58</ele><time>2011-10-10T12:53:59Z</time></trkpt><trkpt lat="44.1758097243" lon="14.8826592509"><ele>1.58</ele><time>2011-10-10T12:54:15Z</time></trkpt><trkpt lat="44.1761211120" lon="14.8829589039"><ele>1.58</ele><time>2011-10-10T12:54:32Z</time></trkpt><trkpt lat="44.1764509398" lon="14.8832609877"><ele>1.10</ele><time>2011-10-10T12:54:50Z</time></trkpt><trkpt lat="44.1767075099" lon="14.8834864609"><ele>2.06</ele><time>2011-10-10T12:55:04Z</time></trkpt><trkpt lat="44.1770557780" lon="14.8837752175"><ele>-0.34</ele><time>2011-10-10T12:55:21Z</time></trkpt><trkpt lat="44.1774151940" lon="14.8840296920"><ele>-0.34</ele><time>2011-10-10T12:55:38Z</time></trkpt><trkpt lat="44.1777210496" lon="14.8842627089"><ele>-0.82</ele><time>2011-10-10T12:55:53Z</time></trkpt><trkpt lat="44.1780292522" lon="14.8844524752"><ele>-1.79</ele><time>2011-10-10T12:56:07Z</time></trkpt><trkpt lat="44.1784387920" lon="14.8846553173"><ele>-1.30</ele><time>2011-10-10T12:56:24Z</time></trkpt><trkpt lat="44.1787896585" lon="14.8849003203"><ele>-0.82</ele><time>2011-10-10T12:56:40Z</time></trkpt><trkpt lat="44.1790361702" lon="14.8851430602"><ele>-0.34</ele><time>2011-10-10T12:56:53Z</time></trkpt><trkpt lat="44.1792833526" lon="14.8853699584"><ele>-0.82</ele><time>2011-10-10T12:57:06Z</time></trkpt><trkpt lat="44.1795081552" lon="14.8856160510"><ele>-0.82</ele><time>2011-10-10T12:57:20Z</time></trkpt><trkpt lat="44.1797459498" lon="14.8858655803"><ele>0.62</ele><time>2011-10-10T12:57:34Z</time></trkpt><trkpt lat="44.1800045315" lon="14.8861509003"><ele>0.14</ele><time>2011-10-10T12:57:51Z</time></trkpt><trkpt lat="44.1803056095" lon="14.8864369746"><ele>0.62</ele><time>2011-10-10T12:58:10Z</time></trkpt><trkpt lat="44.1805099603" lon="14.8866431694"><ele>0.62</ele><time>2011-10-10T12:58:24Z</time></trkpt><trkpt lat="44.1805418953" lon="14.8866901919"><ele>0.62</ele><time>2011-10-10T12:58:27Z</time></trkpt><trkpt lat="44.1806209367" lon="14.8867713287"><ele>0.62</ele><time>2011-10-10T12:58:33Z</time></trkpt><trkpt lat="44.1808238626" lon="14.8869755957"><ele>-0.82</ele><time>2011-10-10T12:58:48Z</time></trkpt><trkpt lat="44.1808705498" lon="14.8869847320"><ele>-1.30</ele><time>2011-10-10T12:58:52Z</time></trkpt><trkpt lat="44.1809008084" lon="14.8869496118"><ele>-1.30</ele><time>2011-10-10T12:58:56Z</time></trkpt><trkpt lat="44.1808484215" lon="14.8866419122"><ele>-0.82</ele><time>2011-10-10T12:59:12Z</time></trkpt><trkpt lat="44.1808555461" lon="14.8865185305"><ele>-0.82</ele><time>2011-10-10T12:59:18Z</time></trkpt><trkpt lat="44.1809074301" lon="14.8862510640"><ele>0.14</ele><time>2011-10-10T12:59:30Z</time></trkpt><trkpt lat="44.1810027324" lon="14.8857633211"><ele>0.62</ele><time>2011-10-10T12:59:49Z</time></trkpt><trkpt lat="44.1810234357" lon="14.8856709525"><ele>0.14</ele><time>2011-10-10T12:59:53Z</time></trkpt><trkpt lat="44.1810499225" lon="14.8855537735"><ele>0.62</ele><time>2011-10-10T12:59:58Z</time></trkpt><trkpt lat="44.1811077576" lon="14.8851618357"><ele>0.62</ele><time>2011-10-10T13:00:13Z</time></trkpt><trkpt lat="44.1812155489" lon="14.8847918585"><ele>0.62</ele><time>2011-10-10T13:00:28Z</time></trkpt><trkpt lat="44.1813015472" lon="14.8845431674"><ele>0.14</ele><time>2011-10-10T13:00:40Z</time></trkpt><trkpt lat="44.1813939158" lon="14.8841393273"><ele>0.14</ele><time>2011-10-10T13:00:59Z</time></trkpt><trkpt lat="44.1814412735" lon="14.8838683404"><ele>0.62</ele><time>2011-10-10T13:01:13Z</time></trkpt><trkpt lat="44.1815191414" lon="14.8834929150"><ele>0.62</ele><time>2011-10-10T13:01:28Z</time></trkpt><trkpt lat="44.1815913096" lon="14.8832632508"><ele>0.62</ele><time>2011-10-10T13:01:38Z</time></trkpt><trkpt lat="44.1816053074" lon="14.8831361812"><ele>1.10</ele><time>2011-10-10T13:01:44Z</time></trkpt><trkpt lat="44.1816856898" lon="14.8827338498"><ele>1.58</ele><time>2011-10-10T13:02:01Z</time></trkpt><trkpt lat="44.1817913018" lon="14.8823397327"><ele>1.58</ele><time>2011-10-10T13:02:16Z</time></trkpt><trkpt lat="44.1819378175" lon="14.8818853498"><ele>0.62</ele><time>2011-10-10T13:02:33Z</time></trkpt><trkpt lat="44.1820953973" lon="14.8813985288"><ele>-0.34</ele><time>2011-10-10T13:02:51Z</time></trkpt><trkpt lat="44.1821901128" lon="14.8809912521"><ele>-0.34</ele><time>2011-10-10T13:03:05Z</time></trkpt><trkpt lat="44.1822946351" lon="14.8805980571"><ele>0.62</ele><time>2011-10-10T13:03:18Z</time></trkpt><trkpt lat="44.1824284941" lon="14.8801618628"><ele>0.62</ele><time>2011-10-10T13:03:33Z</time></trkpt><trkpt lat="44.1825510375" lon="14.8797648959"><ele>0.62</ele><time>2011-10-10T13:03:46Z</time></trkpt><trkpt lat="44.1826902609" lon="14.8793363292"><ele>0.62</ele><time>2011-10-10T13:04:00Z</time></trkpt><trkpt lat="44.1828114633" lon="14.8789334949"><ele>1.10</ele><time>2011-10-10T13:04:13Z</time></trkpt><trkpt lat="44.1829520278" lon="14.8785159085"><ele>1.10</ele><time>2011-10-10T13:04:27Z</time></trkpt><trkpt lat="44.1831118707" lon="14.8780411575"><ele>1.10</ele><time>2011-10-10T13:04:43Z</time></trkpt><trkpt lat="44.1832489986" lon="14.8776050471"><ele>1.10</ele><time>2011-10-10T13:04:58Z</time></trkpt><trkpt lat="44.1833552811" lon="14.8771921545"><ele>1.58</ele><time>2011-10-10T13:05:13Z</time></trkpt><trkpt lat="44.1834687721" lon="14.8767775018"><ele>1.58</ele><time>2011-10-10T13:05:27Z</time></trkpt><trkpt lat="44.1835372522" lon="14.8763659503"><ele>2.54</ele><time>2011-10-10T13:05:41Z</time></trkpt><trkpt lat="44.1835933272" lon="14.8760901019"><ele>3.02</ele><time>2011-10-10T13:05:52Z</time></trkpt><trkpt lat="44.1836482286" lon="14.8757829890"><ele>3.02</ele><time>2011-10-10T13:06:05Z</time></trkpt><trkpt lat="44.1837110929" lon="14.8754267581"><ele>3.50</ele><time>2011-10-10T13:06:19Z</time></trkpt><trkpt lat="44.1837294493" lon="14.8753556795"><ele>3.98</ele><time>2011-10-10T13:06:22Z</time></trkpt><trkpt lat="44.1837728675" lon="14.8751090001"><ele>3.98</ele><time>2011-10-10T13:06:32Z</time></trkpt><trkpt lat="44.1837793216" lon="14.8750830162"><ele>3.98</ele><time>2011-10-10T13:06:33Z</time></trkpt><trkpt lat="44.1838010307" lon="14.8749492411"><ele>3.98</ele><time>2011-10-10T13:06:38Z</time></trkpt><trkpt lat="44.1838239133" lon="14.8748464789"><ele>4.46</ele><time>2011-10-10T13:06:42Z</time></trkpt><trkpt lat="44.1838785633" lon="14.8746850435"><ele>3.98</ele><time>2011-10-10T13:06:50Z</time></trkpt><trkpt lat="44.1838975903" lon="14.8746148869"><ele>3.98</ele><time>2011-10-10T13:06:54Z</time></trkpt><trkpt lat="44.1838998534" lon="14.8745246977"><ele>3.98</ele><time>2011-10-10T13:06:58Z</time></trkpt><trkpt lat="44.1839229036" lon="14.8743475880"><ele>5.42</ele><time>2011-10-10T13:07:06Z</time></trkpt><trkpt lat="44.1839588620" lon="14.8741392139"><ele>6.39</ele><time>2011-10-10T13:07:15Z</time></trkpt><trkpt lat="44.1840418428" lon="14.8736954760"><ele>6.87</ele><time>2011-10-10T13:07:33Z</time></trkpt><trkpt lat="44.1841244046" lon="14.8733423464"><ele>6.39</ele><time>2011-10-10T13:07:46Z</time></trkpt><trkpt lat="44.1841835808" lon="14.8730421904"><ele>7.35</ele><time>2011-10-10T13:07:57Z</time></trkpt><trkpt lat="44.1842854209" lon="14.8726092651"><ele>7.35</ele><time>2011-10-10T13:08:12Z</time></trkpt><trkpt lat="44.1843710002" lon="14.8722649366"><ele>8.31</ele><time>2011-10-10T13:08:24Z</time></trkpt><trkpt lat="44.1844686493" lon="14.8719310015"><ele>6.39</ele><time>2011-10-10T13:08:37Z</time></trkpt><trkpt lat="44.1845533904" lon="14.8715514690"><ele>5.91</ele><time>2011-10-10T13:08:51Z</time></trkpt><trkpt lat="44.1845792066" lon="14.8714725114"><ele>5.91</ele><time>2011-10-10T13:08:54Z</time></trkpt><trkpt lat="44.1846180987" lon="14.8713736888"><ele>4.94</ele><time>2011-10-10T13:08:58Z</time></trkpt><trkpt lat="44.1846620198" lon="14.8711814918"><ele>5.42</ele><time>2011-10-10T13:09:05Z</time></trkpt><trkpt lat="44.1847753432" lon="14.8708281107"><ele>4.46</ele><time>2011-10-10T13:09:18Z</time></trkpt><trkpt lat="44.1848865710" lon="14.8704374302"><ele>4.46</ele><time>2011-10-10T13:09:31Z</time></trkpt><trkpt lat="44.1850459948" lon="14.8699243739"><ele>3.50</ele><time>2011-10-10T13:09:47Z</time></trkpt><trkpt lat="44.1851446498" lon="14.8695947137"><ele>3.98</ele><time>2011-10-10T13:09:57Z</time></trkpt><trkpt lat="44.1852507647" lon="14.8692818172"><ele>3.98</ele><time>2011-10-10T13:10:07Z</time></trkpt><trkpt lat="44.1854201630" lon="14.8688571062"><ele>3.50</ele><time>2011-10-10T13:10:21Z</time></trkpt><trkpt lat="44.1855458077" lon="14.8685558606"><ele>3.50</ele><time>2011-10-10T13:10:32Z</time></trkpt><trkpt lat="44.1855987813" lon="14.8684227560"><ele>3.50</ele><time>2011-10-10T13:10:37Z</time></trkpt><trkpt lat="44.1857582889" lon="14.8680999689"><ele>3.02</ele><time>2011-10-10T13:10:49Z</time></trkpt><trkpt lat="44.1859364044" lon="14.8676297441"><ele>3.02</ele><time>2011-10-10T13:11:04Z</time></trkpt><trkpt lat="44.1860768013" lon="14.8672914505"><ele>3.02</ele><time>2011-10-10T13:11:15Z</time></trkpt><trkpt lat="44.1861757915" lon="14.8669816554"><ele>3.98</ele><time>2011-10-10T13:11:25Z</time></trkpt><trkpt lat="44.1863449384" lon="14.8665654100"><ele>3.98</ele><time>2011-10-10T13:11:39Z</time></trkpt><trkpt lat="44.1863609478" lon="14.8665398452"><ele>3.98</ele><time>2011-10-10T13:11:40Z</time></trkpt><trkpt lat="44.1864239797" lon="14.8664085008"><ele>3.50</ele><time>2011-10-10T13:11:45Z</time></trkpt><trkpt lat="44.1864896100" lon="14.8662717920"><ele>3.50</ele><time>2011-10-10T13:11:50Z</time></trkpt><trkpt lat="44.1866277438" lon="14.8659439757"><ele>3.50</ele><time>2011-10-10T13:12:01Z</time></trkpt><trkpt lat="44.1867362056" lon="14.8656692170"><ele>3.50</ele><time>2011-10-10T13:12:10Z</time></trkpt><trkpt lat="44.1867586691" lon="14.8656051792"><ele>3.02</ele><time>2011-10-10T13:12:12Z</time></trkpt><trkpt lat="44.1869100463" lon="14.8652005009"><ele>3.02</ele><time>2011-10-10T13:12:25Z</time></trkpt><trkpt lat="44.1870305780" lon="14.8648197949"><ele>3.50</ele><time>2011-10-10T13:12:37Z</time></trkpt><trkpt lat="44.1870807018" lon="14.8646802362"><ele>3.98</ele><time>2011-10-10T13:12:42Z</time></trkpt><trkpt lat="44.1871259641" lon="14.8645839281"><ele>3.98</ele><time>2011-10-10T13:12:46Z</time></trkpt><trkpt lat="44.1871652752" lon="14.8644757178"><ele>3.50</ele><time>2011-10-10T13:12:50Z</time></trkpt><trkpt lat="44.1872780118" lon="14.8642017134"><ele>3.98</ele><time>2011-10-10T13:13:01Z</time></trkpt><trkpt lat="44.1873350088" lon="14.8640588857"><ele>3.98</ele><time>2011-10-10T13:13:07Z</time></trkpt><trkpt lat="44.1874127090" lon="14.8638671916"><ele>3.98</ele><time>2011-10-10T13:13:15Z</time></trkpt><trkpt lat="44.1875429638" lon="14.8635181691"><ele>4.46</ele><time>2011-10-10T13:13:29Z</time></trkpt><trkpt lat="44.1876422893" lon="14.8632574081"><ele>4.94</ele><time>2011-10-10T13:13:40Z</time></trkpt><trkpt lat="44.1876921616" lon="14.8630905244"><ele>4.94</ele><time>2011-10-10T13:13:47Z</time></trkpt><trkpt lat="44.1877428722" lon="14.8629421648"><ele>4.46</ele><time>2011-10-10T13:13:53Z</time></trkpt><trkpt lat="44.1878022160" lon="14.8628090601"><ele>4.46</ele><time>2011-10-10T13:13:59Z</time></trkpt><trkpt lat="44.1879338957" lon="14.8625038750"><ele>3.98</ele><time>2011-10-10T13:14:12Z</time></trkpt><trkpt lat="44.1880308744" lon="14.8621982709"><ele>4.94</ele><time>2011-10-10T13:14:24Z</time></trkpt><trkpt lat="44.1881441977" lon="14.8618009686"><ele>5.91</ele><time>2011-10-10T13:14:39Z</time></trkpt><trkpt lat="44.1881688405" lon="14.8617554549"><ele>5.91</ele><time>2011-10-10T13:14:41Z</time></trkpt><trkpt lat="44.1882199701" lon="14.8616922554"><ele>5.91</ele><time>2011-10-10T13:14:44Z</time></trkpt><trkpt lat="44.1883104108" lon="14.8614760023"><ele>4.94</ele><time>2011-10-10T13:14:53Z</time></trkpt><trkpt lat="44.1883266717" lon="14.8614255432"><ele>4.94</ele><time>2011-10-10T13:14:55Z</time></trkpt><trkpt lat="44.1884172801" lon="14.8612502776"><ele>3.02</ele><time>2011-10-10T13:15:02Z</time></trkpt><trkpt lat="44.1884595249" lon="14.8611430731"><ele>3.50</ele><time>2011-10-10T13:15:06Z</time></trkpt><trkpt lat="44.1884867661" lon="14.8610914405"><ele>3.50</ele><time>2011-10-10T13:15:08Z</time></trkpt><trkpt lat="44.1885996703" lon="14.8608166818"><ele>3.50</ele><time>2011-10-10T13:15:18Z</time></trkpt><trkpt lat="44.1886713356" lon="14.8606428411"><ele>3.02</ele><time>2011-10-10T13:15:24Z</time></trkpt><trkpt lat="44.1888813861" lon="14.8602111731"><ele>3.02</ele><time>2011-10-10T13:15:39Z</time></trkpt><trkpt lat="44.1889834777" lon="14.8599452153"><ele>3.02</ele><time>2011-10-10T13:15:48Z</time></trkpt><trkpt lat="44.1890541371" lon="14.8597406968"><ele>3.50</ele><time>2011-10-10T13:15:55Z</time></trkpt><trkpt lat="44.1891487688" lon="14.8593799397"><ele>3.02</ele><time>2011-10-10T13:16:08Z</time></trkpt><trkpt lat="44.1892187577" lon="14.8590502795"><ele>3.98</ele><time>2011-10-10T13:16:21Z</time></trkpt><trkpt lat="44.1892392095" lon="14.8587374669"><ele>3.98</ele><time>2011-10-10T13:16:32Z</time></trkpt><trkpt lat="44.1892748326" lon="14.8584865965"><ele>3.50</ele><time>2011-10-10T13:16:41Z</time></trkpt><trkpt lat="44.1892954521" lon="14.8584131710"><ele>3.98</ele><time>2011-10-10T13:16:44Z</time></trkpt><trkpt lat="44.1893370263" lon="14.8582433537"><ele>3.98</ele><time>2011-10-10T13:16:50Z</time></trkpt><trkpt lat="44.1894674487" lon="14.8578719515"><ele>3.02</ele><time>2011-10-10T13:17:03Z</time></trkpt><trkpt lat="44.1895473283" lon="14.8575453926"><ele>3.02</ele><time>2011-10-10T13:17:14Z</time></trkpt><trkpt lat="44.1895879805" lon="14.8573750723"><ele>3.02</ele><time>2011-10-10T13:17:20Z</time></trkpt><trkpt lat="44.1896488331" lon="14.8571542092"><ele>3.02</ele><time>2011-10-10T13:17:28Z</time></trkpt><trkpt lat="44.1897449736" lon="14.8567433283"><ele>3.50</ele><time>2011-10-10T13:17:42Z</time></trkpt><trkpt lat="44.1898556985" lon="14.8563974909"><ele>3.98</ele><time>2011-10-10T13:17:54Z</time></trkpt><trkpt lat="44.1899142880" lon="14.8561529070"><ele>4.46</ele><time>2011-10-10T13:18:02Z</time></trkpt><trkpt lat="44.1900380887" lon="14.8557680100"><ele>4.46</ele><time>2011-10-10T13:18:15Z</time></trkpt><trkpt lat="44.1901445389" lon="14.8554342426"><ele>3.50</ele><time>2011-10-10T13:18:26Z</time></trkpt><trkpt lat="44.1902769729" lon="14.8550754134"><ele>3.98</ele><time>2011-10-10T13:18:37Z</time></trkpt><trkpt lat="44.1903213970" lon="14.8549033329"><ele>3.98</ele><time>2011-10-10T13:18:42Z</time></trkpt><trkpt lat="44.1904556751" lon="14.8545285780"><ele>4.46</ele><time>2011-10-10T13:18:54Z</time></trkpt><trkpt lat="44.1905732732" lon="14.8541070521"><ele>4.46</ele><time>2011-10-10T13:19:08Z</time></trkpt><trkpt lat="44.1907028574" lon="14.8537392542"><ele>3.98</ele><time>2011-10-10T13:19:21Z</time></trkpt><trkpt lat="44.1908693220" lon="14.8533449695"><ele>3.50</ele><time>2011-10-10T13:19:34Z</time></trkpt><trkpt lat="44.1910429113" lon="14.8528969567"><ele>3.50</ele><time>2011-10-10T13:19:49Z</time></trkpt><trkpt lat="44.1912007425" lon="14.8525237944"><ele>3.50</ele><time>2011-10-10T13:20:02Z</time></trkpt><trkpt lat="44.1913254652" lon="14.8521654680"><ele>3.50</ele><time>2011-10-10T13:20:14Z</time></trkpt><trkpt lat="44.1914400458" lon="14.8518281803"><ele>3.50</ele><time>2011-10-10T13:20:26Z</time></trkpt><trkpt lat="44.1915662773" lon="14.8514836002"><ele>2.54</ele><time>2011-10-10T13:20:39Z</time></trkpt><trkpt lat="44.1916954424" lon="14.8511036485"><ele>3.02</ele><time>2011-10-10T13:20:53Z</time></trkpt><trkpt lat="44.1917592287" lon="14.8509443086"><ele>3.02</ele><time>2011-10-10T13:20:59Z</time></trkpt><trkpt lat="44.1919378471" lon="14.8504764307"><ele>2.54</ele><time>2011-10-10T13:21:16Z</time></trkpt><trkpt lat="44.1920709517" lon="14.8501227144"><ele>3.02</ele><time>2011-10-10T13:21:28Z</time></trkpt><trkpt lat="44.1922188923" lon="14.8497522343"><ele>3.98</ele><time>2011-10-10T13:21:41Z</time></trkpt><trkpt lat="44.1923601273" lon="14.8494820017"><ele>3.98</ele><time>2011-10-10T13:21:52Z</time></trkpt><trkpt lat="44.1925077327" lon="14.8491803370"><ele>3.98</ele><time>2011-10-10T13:22:03Z</time></trkpt><trkpt lat="44.1925932281" lon="14.8490753956"><ele>3.02</ele><time>2011-10-10T13:22:08Z</time></trkpt><trkpt lat="44.1926898714" lon="14.8489021417"><ele>2.06</ele><time>2011-10-10T13:22:15Z</time></trkpt><trkpt lat="44.1927798092" lon="14.8486849666"><ele>2.06</ele><time>2011-10-10T13:22:24Z</time></trkpt><trkpt lat="44.1928148456" lon="14.8485872336"><ele>2.06</ele><time>2011-10-10T13:22:28Z</time></trkpt><trkpt lat="44.1929388139" lon="14.8482962139"><ele>2.54</ele><time>2011-10-10T13:22:40Z</time></trkpt><trkpt lat="44.1931293346" lon="14.8478718381"><ele>3.50</ele><time>2011-10-10T13:22:55Z</time></trkpt><trkpt lat="44.1932553146" lon="14.8476000968"><ele>2.54</ele><time>2011-10-10T13:23:06Z</time></trkpt><trkpt lat="44.1933709849" lon="14.8472638149"><ele>3.50</ele><time>2011-10-10T13:23:19Z</time></trkpt><trkpt lat="44.1935242899" lon="14.8468994536"><ele>3.50</ele><time>2011-10-10T13:23:33Z</time></trkpt><trkpt lat="44.1936765052" lon="14.8465364333"><ele>3.50</ele><time>2011-10-10T13:23:46Z</time></trkpt><trkpt lat="44.1938849632" lon="14.8465582263"><ele>2.06</ele><time>2011-10-10T13:24:01Z</time></trkpt><trkpt lat="44.1940703709" lon="14.8467348330"><ele>1.58</ele><time>2011-10-10T13:24:16Z</time></trkpt><trkpt lat="44.1942789964" lon="14.8469363339"><ele>0.62</ele><time>2011-10-10T13:24:34Z</time></trkpt><trkpt lat="44.1945488099" lon="14.8472460452"><ele>0.62</ele><time>2011-10-10T13:24:53Z</time></trkpt><trkpt lat="44.1948319506" lon="14.8475761246"><ele>0.14</ele><time>2011-10-10T13:25:12Z</time></trkpt><trkpt lat="44.1951010935" lon="14.8479175195"><ele>0.14</ele><time>2011-10-10T13:25:29Z</time></trkpt><trkpt lat="44.1954945400" lon="14.8484404664"><ele>-0.82</ele><time>2011-10-10T13:25:51Z</time></trkpt><trkpt lat="44.1957771778" lon="14.8488308955"><ele>-0.82</ele><time>2011-10-10T13:26:05Z</time></trkpt><trkpt lat="44.1961370129" lon="14.8493038863"><ele>-0.34</ele><time>2011-10-10T13:26:21Z</time></trkpt><trkpt lat="44.1964012943" lon="14.8496237397"><ele>0.14</ele><time>2011-10-10T13:26:33Z</time></trkpt><trkpt lat="44.1968760453" lon="14.8501129914"><ele>-0.34</ele><time>2011-10-10T13:26:54Z</time></trkpt><trkpt lat="44.1971479543" lon="14.8504496925"><ele>-0.34</ele><time>2011-10-10T13:27:07Z</time></trkpt><trkpt lat="44.1975476872" lon="14.8509035725"><ele>-0.82</ele><time>2011-10-10T13:27:25Z</time></trkpt><trkpt lat="44.1979076061" lon="14.8512782436"><ele>-0.82</ele><time>2011-10-10T13:27:41Z</time></trkpt><trkpt lat="44.1983335745" lon="14.8516174592"><ele>-0.34</ele><time>2011-10-10T13:27:58Z</time></trkpt><trkpt lat="44.1986574512" lon="14.8518904578"><ele>-0.34</ele><time>2011-10-10T13:28:12Z</time></trkpt><trkpt lat="44.1989580262" lon="14.8520976584"><ele>-0.34</ele><time>2011-10-10T13:28:24Z</time></trkpt><trkpt lat="44.1992549133" lon="14.8522937950"><ele>0.14</ele><time>2011-10-10T13:28:36Z</time></trkpt><trkpt lat="44.1997135710" lon="14.8526385427"><ele>0.62</ele><time>2011-10-10T13:28:55Z</time></trkpt><trkpt lat="44.2001549620" lon="14.8529720586"><ele>0.62</ele><time>2011-10-10T13:29:13Z</time></trkpt><trkpt lat="44.2005008832" lon="14.8532763217"><ele>0.14</ele><time>2011-10-10T13:29:29Z</time></trkpt><trkpt lat="44.2008156236" lon="14.8535372503"><ele>0.62</ele><time>2011-10-10T13:29:43Z</time></trkpt><trkpt lat="44.2012353055" lon="14.8537859414"><ele>1.58</ele><time>2011-10-10T13:30:00Z</time></trkpt><trkpt lat="44.2015695758" lon="14.8540158570"><ele>1.10</ele><time>2011-10-10T13:30:14Z</time></trkpt><trkpt lat="44.2018455919" lon="14.8542238958"><ele>0.62</ele><time>2011-10-10T13:30:26Z</time></trkpt><trkpt lat="44.2021439038" lon="14.8545133229"><ele>0.62</ele><time>2011-10-10T13:30:43Z</time></trkpt><trkpt lat="44.2025036551" lon="14.8548528738"><ele>0.62</ele><time>2011-10-10T13:31:01Z</time></trkpt><trkpt lat="44.2028861213" lon="14.8552003037"><ele>0.14</ele><time>2011-10-10T13:31:18Z</time></trkpt><trkpt lat="44.2032825854" lon="14.8554971907"><ele>0.62</ele><time>2011-10-10T13:31:35Z</time></trkpt><trkpt lat="44.2036542390" lon="14.8557960894"><ele>0.14</ele><time>2011-10-10T13:31:51Z</time></trkpt><trkpt lat="44.2039520480" lon="14.8560329620"><ele>0.14</ele><time>2011-10-10T13:32:04Z</time></trkpt><trkpt lat="44.2042603344" lon="14.8562927172"><ele>0.14</ele><time>2011-10-10T13:32:19Z</time></trkpt><trkpt lat="44.2045159824" lon="14.8566103913"><ele>-0.82</ele><time>2011-10-10T13:32:35Z</time></trkpt><trkpt lat="44.2048514262" lon="14.8569877446"><ele>-0.34</ele><time>2011-10-10T13:32:55Z</time></trkpt><trkpt lat="44.2050968483" lon="14.8572734836"><ele>-0.82</ele><time>2011-10-10T13:33:08Z</time></trkpt><trkpt lat="44.2054436076" lon="14.8575478233"><ele>-0.82</ele><time>2011-10-10T13:33:24Z</time></trkpt><trkpt lat="44.2058239784" lon="14.8578805849"><ele>-0.34</ele><time>2011-10-10T13:33:44Z</time></trkpt><trkpt lat="44.2061351147" lon="14.8582107481"><ele>-0.34</ele><time>2011-10-10T13:34:01Z</time></trkpt><trkpt lat="44.2065079417" lon="14.8585324455"><ele>0.14</ele><time>2011-10-10T13:34:18Z</time></trkpt><trkpt lat="44.2068417929" lon="14.8588483594"><ele>0.62</ele><time>2011-10-10T13:34:38Z</time></trkpt><trkpt lat="44.2070270330" lon="14.8591342662"><ele>0.14</ele><time>2011-10-10T13:34:53Z</time></trkpt><trkpt lat="44.2072895542" lon="14.8594871443"><ele>-0.34</ele><time>2011-10-10T13:35:12Z</time></trkpt><trkpt lat="44.2075319588" lon="14.8598460574"><ele>-0.34</ele><time>2011-10-10T13:35:30Z</time></trkpt><trkpt lat="44.2078162730" lon="14.8601876199"><ele>-0.34</ele><time>2011-10-10T13:35:48Z</time></trkpt><trkpt lat="44.2081253137" lon="14.8604687490"><ele>-0.34</ele><time>2011-10-10T13:36:05Z</time></trkpt><trkpt lat="44.2084748391" lon="14.8608520534"><ele>0.62</ele><time>2011-10-10T13:36:26Z</time></trkpt><trkpt lat="44.2087540403" lon="14.8611764330"><ele>0.14</ele><time>2011-10-10T13:36:43Z</time></trkpt><trkpt lat="44.2090845387" lon="14.8614548799"><ele>-0.34</ele><time>2011-10-10T13:36:59Z</time></trkpt><trkpt lat="44.2094115168" lon="14.8617009725"><ele>-0.82</ele><time>2011-10-10T13:37:19Z</time></trkpt><trkpt lat="44.2096039653" lon="14.8617968615"><ele>-0.34</ele><time>2011-10-10T13:37:35Z</time></trkpt><trkpt lat="44.2098664865" lon="14.8618992046"><ele>0.62</ele><time>2011-10-10T13:37:55Z</time></trkpt><trkpt lat="44.2101024371" lon="14.8618990369"><ele>0.14</ele><time>2011-10-10T13:38:12Z</time></trkpt><trkpt lat="44.2103074584" lon="14.8618724663"><ele>-0.34</ele><time>2011-10-10T13:38:27Z</time></trkpt><trkpt lat="44.2105778586" lon="14.8618178163"><ele>-0.34</ele><time>2011-10-10T13:38:46Z</time></trkpt><trkpt lat="44.2108321656" lon="14.8617770802"><ele>0.14</ele><time>2011-10-10T13:39:05Z</time></trkpt><trkpt lat="44.2110488378" lon="14.8617404513"><ele>0.14</ele><time>2011-10-10T13:39:22Z</time></trkpt><trkpt lat="44.2113315593" lon="14.8617106117"><ele>0.62</ele><time>2011-10-10T13:39:41Z</time></trkpt><trkpt lat="44.2116378341" lon="14.8616754916"><ele>-0.34</ele><time>2011-10-10T13:40:00Z</time></trkpt><trkpt lat="44.2118812446" lon="14.8614097014"><ele>-0.34</ele><time>2011-10-10T13:40:12Z</time></trkpt><trkpt lat="44.2120398302" lon="14.8607992474"><ele>1.58</ele><time>2011-10-10T13:40:27Z</time></trkpt><trkpt lat="44.2121577635" lon="14.8600676749"><ele>2.06</ele><time>2011-10-10T13:40:44Z</time></trkpt><trkpt lat="44.2122484557" lon="14.8592251260"><ele>1.58</ele><time>2011-10-10T13:41:03Z</time></trkpt><trkpt lat="44.2123034410" lon="14.8583752010"><ele>2.06</ele><time>2011-10-10T13:41:22Z</time></trkpt><trkpt lat="44.2123584263" lon="14.8575100210"><ele>2.54</ele><time>2011-10-10T13:41:41Z</time></trkpt><trkpt lat="44.2124112323" lon="14.8568349425"><ele>3.02</ele><time>2011-10-10T13:41:56Z</time></trkpt><trkpt lat="44.2124885973" lon="14.8561192956"><ele>2.54</ele><time>2011-10-10T13:42:12Z</time></trkpt><trkpt lat="44.2126401421" lon="14.8552615754"><ele>3.02</ele><time>2011-10-10T13:42:32Z</time></trkpt><trkpt lat="44.2128509469" lon="14.8543750215"><ele>2.54</ele><time>2011-10-10T13:42:53Z</time></trkpt><trkpt lat="44.2130438145" lon="14.8535700236"><ele>3.50</ele><time>2011-10-10T13:43:12Z</time></trkpt><trkpt lat="44.2132130452" lon="14.8528404627"><ele>3.50</ele><time>2011-10-10T13:43:29Z</time></trkpt><trkpt lat="44.2134339083" lon="14.8519975785"><ele>2.54</ele><time>2011-10-10T13:43:49Z</time></trkpt><trkpt lat="44.2136643268" lon="14.8510697857"><ele>2.06</ele><time>2011-10-10T13:44:11Z</time></trkpt><trkpt lat="44.2138898000" lon="14.8501912784"><ele>2.06</ele><time>2011-10-10T13:44:32Z</time></trkpt><trkpt lat="44.2141593620" lon="14.8493905552"><ele>3.02</ele><time>2011-10-10T13:44:52Z</time></trkpt><trkpt lat="44.2145597655" lon="14.8484318331"><ele>3.02</ele><time>2011-10-10T13:45:17Z</time></trkpt><trkpt lat="44.2149196845" lon="14.8477218021"><ele>3.50</ele><time>2011-10-10T13:45:37Z</time></trkpt><trkpt lat="44.2153612431" lon="14.8469237611"><ele>3.50</ele><time>2011-10-10T13:46:00Z</time></trkpt><trkpt lat="44.2158742994" lon="14.8459858261"><ele>3.02</ele><time>2011-10-10T13:46:27Z</time></trkpt><trkpt lat="44.2162819114" lon="14.8453175370"><ele>3.02</ele><time>2011-10-10T13:46:47Z</time></trkpt><trkpt lat="44.2167701572" lon="14.8445772473"><ele>2.54</ele><time>2011-10-10T13:47:10Z</time></trkpt><trkpt lat="44.2172772624" lon="14.8438408971"><ele>3.98</ele><time>2011-10-10T13:47:33Z</time></trkpt><trkpt lat="44.2177304719" lon="14.8431867734"><ele>3.02</ele><time>2011-10-10T13:47:54Z</time></trkpt><trkpt lat="44.2181607150" lon="14.8426427040"><ele>3.98</ele><time>2011-10-10T13:48:12Z</time></trkpt><trkpt lat="44.2186565883" lon="14.8419652786"><ele>3.02</ele><time>2011-10-10T13:48:34Z</time></trkpt><trkpt lat="44.2192180082" lon="14.8411736079"><ele>3.98</ele><time>2011-10-10T13:48:59Z</time></trkpt><trkpt lat="44.2197360098" lon="14.8404077534"><ele>4.46</ele><time>2011-10-10T13:49:23Z</time></trkpt><trkpt lat="44.2201729584" lon="14.8397930246"><ele>3.98</ele><time>2011-10-10T13:49:44Z</time></trkpt><trkpt lat="44.2205748707" lon="14.8393807188"><ele>4.94</ele><time>2011-10-10T13:50:03Z</time></trkpt><trkpt lat="44.2209899426" lon="14.8390359711"><ele>5.91</ele><time>2011-10-10T13:50:23Z</time></trkpt><trkpt lat="44.2214510310" lon="14.8387293611"><ele>7.35</ele><time>2011-10-10T13:50:44Z</time></trkpt><trkpt lat="44.2220672686" lon="14.8384134471"><ele>6.39</ele><time>2011-10-10T13:51:11Z</time></trkpt><trkpt lat="44.2224547639" lon="14.8382346611"><ele>6.87</ele><time>2011-10-10T13:51:32Z</time></trkpt><trkpt lat="44.2227989249" lon="14.8380654305"><ele>7.35</ele><time>2011-10-10T13:51:51Z</time></trkpt><trkpt lat="44.2232244741" lon="14.8378651869"><ele>4.94</ele><time>2011-10-10T13:52:14Z</time></trkpt><trkpt lat="44.2236077785" lon="14.8377418891"><ele>3.98</ele><time>2011-10-10T13:52:37Z</time></trkpt><trkpt lat="44.2236980516" lon="14.8376418091"><ele>3.98</ele><time>2011-10-10T13:52:45Z</time></trkpt><trkpt lat="44.2235952057" lon="14.8374069482"><ele>3.98</ele><time>2011-10-10T13:53:01Z</time></trkpt><trkpt lat="44.2232108954" lon="14.8371569160"><ele>4.94</ele><time>2011-10-10T13:53:26Z</time></trkpt><trkpt lat="44.2226549238" lon="14.8369505536"><ele>3.02</ele><time>2011-10-10T13:53:55Z</time></trkpt><trkpt lat="44.2222135328" lon="14.8370395694"><ele>3.02</ele><time>2011-10-10T13:54:18Z</time></trkpt><trkpt lat="44.2220780812" lon="14.8373910226"><ele>3.98</ele><time>2011-10-10T13:54:33Z</time></trkpt><trkpt lat="44.2218649294" lon="14.8372587562"><ele>4.94</ele><time>2011-10-10T13:54:47Z</time></trkpt><trkpt lat="44.2218753230" lon="14.8369650543"><ele>3.02</ele><time>2011-10-10T13:55:04Z</time></trkpt><trkpt lat="44.2220169771" lon="14.8368621245"><ele>2.54</ele><time>2011-10-10T13:55:25Z</time></trkpt><trkpt lat="44.2221153807" lon="14.8367145192"><ele>2.06</ele><time>2011-10-10T13:55:50Z</time></trkpt><trkpt lat="44.2221208289" lon="14.8365390021"><ele>1.10</ele><time>2011-10-10T13:56:12Z</time></trkpt><trkpt lat="44.2221862078" lon="14.8363462184"><ele>2.06</ele><time>2011-10-10T13:56:28Z</time></trkpt><trkpt lat="44.2223794945" lon="14.8362720385"><ele>1.58</ele><time>2011-10-10T13:56:47Z</time></trkpt><trkpt lat="44.2225294467" lon="14.8363406025"><ele>1.58</ele><time>2011-10-10T13:57:05Z</time></trkpt><trkpt lat="44.2223476432" lon="14.8367369827"><ele>1.58</ele><time>2011-10-10T13:57:26Z</time></trkpt><trkpt lat="44.2218930926" lon="14.8367806524"><ele>1.10</ele><time>2011-10-10T13:57:46Z</time></trkpt><trkpt lat="44.2216884904" lon="14.8365094978"><ele>1.10</ele><time>2011-10-10T13:58:00Z</time></trkpt><trkpt lat="44.2218319885" lon="14.8363260180"><ele>1.10</ele><time>2011-10-10T13:58:15Z</time></trkpt><trkpt lat="44.2220022250" lon="14.8361546081"><ele>1.10</ele><time>2011-10-10T13:58:37Z</time></trkpt><trkpt lat="44.2220961861" lon="14.8360350821"><ele>1.10</ele><time>2011-10-10T13:59:00Z</time></trkpt><trkpt lat="44.2221104354" lon="14.8360189050"><ele>0.62</ele><time>2011-10-10T13:59:24Z</time></trkpt><trkpt lat="44.2221146263" lon="14.8360251077"><ele>0.62</ele><time>2011-10-10T13:59:43Z</time></trkpt><trkpt lat="44.2221071664" lon="14.8360778298"><ele>0.14</ele><time>2011-10-10T13:59:49Z</time></trkpt><trkpt lat="44.2221296299" lon="14.8364631459"><ele>-0.34</ele><time>2011-10-10T14:00:10Z</time></trkpt><trkpt lat="44.2218799330" lon="14.8365563527"><ele>0.14</ele><time>2011-10-10T14:00:25Z</time></trkpt><trkpt lat="44.2218262888" lon="14.8362857010"><ele>0.14</ele><time>2011-10-10T14:00:38Z</time></trkpt><trkpt lat="44.2219627462" lon="14.8361432925"><ele>1.10</ele><time>2011-10-10T14:00:59Z</time></trkpt><trkpt lat="44.2220135406" lon="14.8360842839"><ele>0.62</ele><time>2011-10-10T14:01:26Z</time></trkpt><trkpt lat="44.2221173085" lon="14.8360631615"><ele>0.62</ele><time>2011-10-10T14:01:49Z</time></trkpt><trkpt lat="44.2221507523" lon="14.8360194918"><ele>0.62</ele><time>2011-10-10T14:02:07Z</time></trkpt><trkpt lat="44.2221580446" lon="14.8360129539"><ele>0.62</ele><time>2011-10-10T14:02:25Z</time></trkpt><trkpt lat="44.2222135328" lon="14.8360805959"><ele>0.14</ele><time>2011-10-10T14:02:44Z</time></trkpt><trkpt lat="44.2222177237" lon="14.8360889778"><ele>0.14</ele><time>2011-10-10T14:03:06Z</time></trkpt><trkpt lat="44.2222152092" lon="14.8361719586"><ele>-0.34</ele><time>2011-10-10T14:03:17Z</time></trkpt><trkpt lat="44.2221172247" lon="14.8364753835"><ele>0.62</ele><time>2011-10-10T14:03:35Z</time></trkpt><trkpt lat="44.2219362594" lon="14.8362774029"><ele>1.58</ele><time>2011-10-10T14:03:50Z</time></trkpt><trkpt lat="44.2220014706" lon="14.8360920791"><ele>1.10</ele><time>2011-10-10T14:04:09Z</time></trkpt><trkpt lat="44.2221055739" lon="14.8360654246"><ele>1.58</ele><time>2011-10-10T14:04:34Z</time></trkpt><trkpt lat="44.2221722100" lon="14.8360413685"><ele>1.58</ele><time>2011-10-10T14:04:58Z</time></trkpt><trkpt lat="44.2221768200" lon="14.8360396922"><ele>1.10</ele><time>2011-10-10T14:05:22Z</time></trkpt><trkpt lat="44.2221727129" lon="14.8360337410"><ele>1.10</ele><time>2011-10-10T14:05:46Z</time></trkpt><trkpt lat="44.2221727129" lon="14.8360337410"><ele>1.10</ele><time>2011-10-10T14:06:10Z</time></trkpt><trkpt lat="44.2221679352" lon="14.8360430449"><ele>1.10</ele><time>2011-10-10T14:06:33Z</time></trkpt><trkpt lat="44.2221679352" lon="14.8360430449"><ele>1.10</ele><time>2011-10-10T14:06:58Z</time></trkpt><trkpt lat="44.2221658397" lon="14.8360456433"><ele>1.10</ele><time>2011-10-10T14:07:20Z</time></trkpt><trkpt lat="44.2221641634" lon="14.8360519297"><ele>1.10</ele><time>2011-10-10T14:07:42Z</time></trkpt><trkpt lat="44.2221641634" lon="14.8360519297"><ele>1.10</ele><time>2011-10-10T14:08:07Z</time></trkpt><trkpt lat="44.2221606430" lon="14.8360534385"><ele>1.58</ele><time>2011-10-10T14:08:33Z</time></trkpt><trkpt lat="44.2221548595" lon="14.8360427935"><ele>1.58</ele><time>2011-10-10T14:09:01Z</time></trkpt><trkpt lat="44.2221548595" lon="14.8360427935"><ele>1.58</ele><time>2011-10-10T14:09:23Z</time></trkpt><trkpt lat="44.2221510876" lon="14.8360507563"><ele>2.06</ele><time>2011-10-10T14:09:48Z</time></trkpt><trkpt lat="44.2221510876" lon="14.8360507563"><ele>2.06</ele><time>2011-10-10T14:10:14Z</time></trkpt><trkpt lat="44.2221459746" lon="14.8360314779"><ele>2.06</ele><time>2011-10-10T14:10:40Z</time></trkpt><trkpt lat="44.2221489083" lon="14.8360572942"><ele>1.10</ele><time>2011-10-10T14:11:09Z</time></trkpt><trkpt lat="44.2221489083" lon="14.8360572942"><ele>1.10</ele><time>2011-10-10T14:11:37Z</time></trkpt><trkpt lat="44.2221411131" lon="14.8360586353"><ele>1.58</ele><time>2011-10-10T14:12:02Z</time></trkpt><trkpt lat="44.2221444659" lon="14.8360775784"><ele>1.58</ele><time>2011-10-10T14:12:24Z</time></trkpt><trkpt lat="44.2221529316" lon="14.8361085076"><ele>1.58</ele><time>2011-10-10T14:12:48Z</time></trkpt><trkpt lat="44.2221500818" lon="14.8361087590"><ele>1.58</ele><time>2011-10-10T14:13:16Z</time></trkpt><trkpt lat="44.2221181467" lon="14.8360298853"><ele>1.58</ele><time>2011-10-10T14:13:45Z</time></trkpt><trkpt lat="44.2221181467" lon="14.8360298853"><ele>1.58</ele><time>2011-10-10T14:14:09Z</time></trkpt><trkpt lat="44.2221201584" lon="14.8360370938"><ele>1.58</ele><time>2011-10-10T14:14:38Z</time></trkpt><trkpt lat="44.2221188173" lon="14.8360437993"><ele>1.58</ele><time>2011-10-10T14:15:05Z</time></trkpt><trkpt lat="44.2221144587" lon="14.8360080924"><ele>0.62</ele><time>2011-10-10T14:15:34Z</time></trkpt><trkpt lat="44.2221144587" lon="14.8360080924"><ele>0.62</ele><time>2011-10-10T14:15:59Z</time></trkpt><trkpt lat="44.2221251875" lon="14.8360666819"><ele>0.62</ele><time>2011-10-10T14:16:23Z</time></trkpt><trkpt lat="44.2221251875" lon="14.8360666819"><ele>0.62</ele><time>2011-10-10T14:16:53Z</time></trkpt><trkpt lat="44.2221143749" lon="14.8360315617"><ele>1.10</ele><time>2011-10-10T14:17:21Z</time></trkpt><trkpt lat="44.2221128661" lon="14.8360220902"><ele>0.62</ele><time>2011-10-10T14:17:44Z</time></trkpt><trkpt lat="44.2221266124" lon="14.8360562045"><ele>1.10</ele><time>2011-10-10T14:18:07Z</time></trkpt><trkpt lat="44.2221266124" lon="14.8360562045"><ele>1.10</ele><time>2011-10-10T14:18:35Z</time></trkpt><trkpt lat="44.2221261933" lon="14.8360587191"><ele>1.10</ele><time>2011-10-10T14:19:01Z</time></trkpt><trkpt lat="44.2221192364" lon="14.8360466491"><ele>1.10</ele><time>2011-10-10T14:19:32Z</time></trkpt><trkpt lat="44.2221219186" lon="14.8360547796"><ele>1.10</ele><time>2011-10-10T14:20:01Z</time></trkpt><trkpt lat="44.2221197393" lon="14.8360593058"><ele>1.10</ele><time>2011-10-10T14:20:23Z</time></trkpt><trkpt lat="44.2221197393" lon="14.8360593058"><ele>1.10</ele><time>2011-10-10T14:20:44Z</time></trkpt><trkpt lat="44.2221090943" lon="14.8360348307"><ele>0.14</ele><time>2011-10-10T14:21:10Z</time></trkpt><trkpt lat="44.2221236788" lon="14.8360748123"><ele>0.14</ele><time>2011-10-10T14:21:33Z</time></trkpt><trkpt lat="44.2221296299" lon="14.8361296300"><ele>0.14</ele><time>2011-10-10T14:21:59Z</time></trkpt><trkpt lat="44.2221044842" lon="14.8360512592"><ele>-0.34</ele><time>2011-10-10T14:22:27Z</time></trkpt><trkpt lat="44.2221109383" lon="14.8360510077"><ele>0.14</ele><time>2011-10-10T14:22:52Z</time></trkpt><trkpt lat="44.2221228406" lon="14.8360921629"><ele>0.14</ele><time>2011-10-10T14:23:17Z</time></trkpt><trkpt lat="44.2221181467" lon="14.8360805959"><ele>0.14</ele><time>2011-10-10T14:23:45Z</time></trkpt><trkpt lat="44.2221179791" lon="14.8360554501"><ele>0.62</ele><time>2011-10-10T14:24:08Z</time></trkpt><trkpt lat="44.2221316416" lon="14.8360850383"><ele>0.62</ele><time>2011-10-10T14:24:38Z</time></trkpt><trkpt lat="44.2221294623" lon="14.8360849544"><ele>0.14</ele><time>2011-10-10T14:24:59Z</time></trkpt><trkpt lat="44.2221159674" lon="14.8360519297"><ele>0.62</ele><time>2011-10-10T14:25:23Z</time></trkpt><trkpt lat="44.2221160512" lon="14.8360573780"><ele>0.62</ele><time>2011-10-10T14:25:43Z</time></trkpt><trkpt lat="44.2221293785" lon="14.8360888101"><ele>0.62</ele><time>2011-10-10T14:26:06Z</time></trkpt><trkpt lat="44.2221293785" lon="14.8360888101"><ele>0.62</ele><time>2011-10-10T14:26:29Z</time></trkpt><trkpt lat="44.2221154645" lon="14.8360460624"><ele>0.14</ele><time>2011-10-10T14:26:53Z</time></trkpt><trkpt lat="44.2221251875" lon="14.8360583838"><ele>0.14</ele><time>2011-10-10T14:27:22Z</time></trkpt><trkpt lat="44.2221251875" lon="14.8360583838"><ele>0.14</ele><time>2011-10-10T14:27:50Z</time></trkpt><trkpt lat="44.2221100163" lon="14.8360267002"><ele>-0.82</ele><time>2011-10-10T14:28:18Z</time></trkpt><trkpt lat="44.2221126147" lon="14.8360178992"><ele>-0.34</ele><time>2011-10-10T14:28:42Z</time></trkpt><trkpt lat="44.2221123632" lon="14.8360282928"><ele>-0.82</ele><time>2011-10-10T14:29:09Z</time></trkpt><trkpt lat="44.2221156321" lon="14.8360452242"><ele>-0.82</ele><time>2011-10-10T14:29:39Z</time></trkpt><trkpt lat="44.2221155483" lon="14.8360476550"><ele>-1.30</ele><time>2011-10-10T14:30:07Z</time></trkpt><trkpt lat="44.2221107706" lon="14.8360316455"><ele>-1.30</ele><time>2011-10-10T14:30:34Z</time></trkpt><trkpt lat="44.2221055739" lon="14.8360484093"><ele>-1.30</ele><time>2011-10-10T14:31:02Z</time></trkpt><trkpt lat="44.2221055739" lon="14.8360484093"><ele>-1.30</ele><time>2011-10-10T14:31:29Z</time></trkpt><trkpt lat="44.2221092619" lon="14.8360619880"><ele>-1.30</ele><time>2011-10-10T14:31:54Z</time></trkpt><trkpt lat="44.2220977787" lon="14.8360526841"><ele>-1.30</ele><time>2011-10-10T14:32:21Z</time></trkpt><trkpt lat="44.2220998742" lon="14.8360528518"><ele>-1.30</ele><time>2011-10-10T14:32:45Z</time></trkpt><trkpt lat="44.2221096810" lon="14.8360830266"><ele>-0.82</ele><time>2011-10-10T14:33:11Z</time></trkpt><trkpt lat="44.2221096810" lon="14.8360830266"><ele>-0.82</ele><time>2011-10-10T14:33:36Z</time></trkpt><trkpt lat="44.2221028078" lon="14.8360550310"><ele>-0.82</ele><time>2011-10-10T14:34:01Z</time></trkpt><trkpt lat="44.2221028078" lon="14.8360550310"><ele>-0.82</ele><time>2011-10-10T14:34:24Z</time></trkpt><trkpt lat="44.2221142072" lon="14.8360837810"><ele>-0.82</ele><time>2011-10-10T14:34:52Z</time></trkpt><trkpt lat="44.2221145425" lon="14.8360856250"><ele>-1.30</ele><time>2011-10-10T14:35:23Z</time></trkpt><trkpt lat="44.2221145425" lon="14.8360856250"><ele>-1.30</ele><time>2011-10-10T14:35:53Z</time></trkpt><trkpt lat="44.2221130338" lon="14.8360808473"><ele>-0.82</ele><time>2011-10-10T14:36:18Z</time></trkpt><trkpt lat="44.2221157160" lon="14.8360863794"><ele>-0.82</ele><time>2011-10-10T14:36:46Z</time></trkpt><trkpt lat="44.2221157160" lon="14.8360863794"><ele>-0.82</ele><time>2011-10-10T14:37:15Z</time></trkpt><trkpt lat="44.2221182305" lon="14.8360857088"><ele>-0.82</ele><time>2011-10-10T14:37:43Z</time></trkpt><trkpt lat="44.2221162189" lon="14.8360825237"><ele>-0.82</ele><time>2011-10-10T14:38:10Z</time></trkpt><trkpt lat="44.2221162189" lon="14.8360825237"><ele>-0.82</ele><time>2011-10-10T14:38:34Z</time></trkpt><trkpt lat="44.2221189011" lon="14.8360880557"><ele>-0.82</ele><time>2011-10-10T14:39:03Z</time></trkpt><trkpt lat="44.2221154645" lon="14.8360739741"><ele>-0.82</ele><time>2011-10-10T14:39:30Z</time></trkpt><trkpt lat="44.2221090943" lon="14.8360519297"><ele>-0.82</ele><time>2011-10-10T14:39:55Z</time></trkpt><trkpt lat="44.2221093457" lon="14.8360601440"><ele>-0.34</ele><time>2011-10-10T14:40:21Z</time></trkpt><trkpt lat="44.2221107706" lon="14.8360831104"><ele>0.14</ele><time>2011-10-10T14:40:49Z</time></trkpt><trkpt lat="44.2221108545" lon="14.8360812664"><ele>0.14</ele><time>2011-10-10T14:41:19Z</time></trkpt><trkpt lat="44.2221076693" lon="14.8360681068"><ele>-0.34</ele><time>2011-10-10T14:41:48Z</time></trkpt><trkpt lat="44.2221065797" lon="14.8360629939"><ele>-0.34</ele><time>2011-10-10T14:42:16Z</time></trkpt><trkpt lat="44.2221081723" lon="14.8360680230"><ele>-0.34</ele><time>2011-10-10T14:42:41Z</time></trkpt><trkpt lat="44.2221099325" lon="14.8360663466"><ele>-0.34</ele><time>2011-10-10T14:43:09Z</time></trkpt><trkpt lat="44.2221080046" lon="14.8360308073"><ele>-0.34</ele><time>2011-10-10T14:43:35Z</time></trkpt><trkpt lat="44.2221101839" lon="14.8360298853"><ele>-0.34</ele><time>2011-10-10T14:44:02Z</time></trkpt><trkpt lat="44.2221101839" lon="14.8360298853"><ele>-0.34</ele><time>2011-10-10T14:44:31Z</time></trkpt><trkpt lat="44.2221108545" lon="14.8360386025"><ele>-0.34</ele><time>2011-10-10T14:45:00Z</time></trkpt><trkpt lat="44.2221086752" lon="14.8360326514"><ele>-0.34</ele><time>2011-10-10T14:45:32Z</time></trkpt><trkpt lat="44.2221086752" lon="14.8360326514"><ele>-0.34</ele><time>2011-10-10T14:46:01Z</time></trkpt><trkpt lat="44.2221104354" lon="14.8360391054"><ele>-0.34</ele><time>2011-10-10T14:46:25Z</time></trkpt><trkpt lat="44.2221162189" lon="14.8360616527"><ele>0.14</ele><time>2011-10-10T14:46:52Z</time></trkpt><trkpt lat="44.2221103515" lon="14.8360379320"><ele>-0.82</ele><time>2011-10-10T14:47:24Z</time></trkpt><trkpt lat="44.2221103515" lon="14.8360379320"><ele>-0.82</ele><time>2011-10-10T14:47:48Z</time></trkpt><trkpt lat="44.2221136205" lon="14.8360479902"><ele>-0.82</ele><time>2011-10-10T14:48:18Z</time></trkpt><trkpt lat="44.2221150454" lon="14.8360661790"><ele>0.14</ele><time>2011-10-10T14:48:46Z</time></trkpt><trkpt lat="44.2221081723" lon="14.8360526841"><ele>-0.82</ele><time>2011-10-10T14:49:21Z</time></trkpt><trkpt lat="44.2221081723" lon="14.8360526841"><ele>-0.82</ele><time>2011-10-10T14:49:49Z</time></trkpt><trkpt lat="44.2221052386" lon="14.8360383511"><ele>0.14</ele><time>2011-10-10T14:50:17Z</time></trkpt><trkpt lat="44.2221088428" lon="14.8360438831"><ele>0.14</ele><time>2011-10-10T14:50:46Z</time></trkpt><trkpt lat="44.2221088428" lon="14.8360438831"><ele>0.14</ele><time>2011-10-10T14:51:16Z</time></trkpt><trkpt lat="44.2221106868" lon="14.8360588029"><ele>-0.34</ele><time>2011-10-10T14:51:44Z</time></trkpt><trkpt lat="44.2221057415" lon="14.8360353336"><ele>-0.34</ele><time>2011-10-10T14:52:14Z</time></trkpt><trkpt lat="44.2221067473" lon="14.8360323999"><ele>-0.34</ele><time>2011-10-10T14:52:44Z</time></trkpt><trkpt lat="44.2221102677" lon="14.8360442184"><ele>-0.82</ele><time>2011-10-10T14:53:15Z</time></trkpt><trkpt lat="44.2221102677" lon="14.8360442184"><ele>-0.82</ele><time>2011-10-10T14:53:40Z</time></trkpt><trkpt lat="44.2221122794" lon="14.8360500857"><ele>-0.82</ele><time>2011-10-10T14:54:07Z</time></trkpt><trkpt lat="44.2221085913" lon="14.8360419553"><ele>-0.34</ele><time>2011-10-10T14:54:36Z</time></trkpt><trkpt lat="44.2221085913" lon="14.8360419553"><ele>-0.34</ele><time>2011-10-10T14:55:09Z</time></trkpt><trkpt lat="44.2221147101" lon="14.8360524327"><ele>-0.34</ele><time>2011-10-10T14:55:40Z</time></trkpt><trkpt lat="44.2221125308" lon="14.8360485770"><ele>-0.82</ele><time>2011-10-10T14:56:12Z</time></trkpt><trkpt lat="44.2221125308" lon="14.8360485770"><ele>-0.82</ele><time>2011-10-10T14:56:40Z</time></trkpt><trkpt lat="44.2221099325" lon="14.8360491637"><ele>-0.82</ele><time>2011-10-10T14:57:12Z</time></trkpt><trkpt lat="44.2221196555" lon="14.8360690288"><ele>-0.82</ele><time>2011-10-10T14:57:41Z</time></trkpt><trkpt lat="44.2221196555" lon="14.8360690288"><ele>-0.82</ele><time>2011-10-10T14:58:08Z</time></trkpt><trkpt lat="44.2221213318" lon="14.8360686097"><ele>-1.30</ele><time>2011-10-10T14:58:36Z</time></trkpt><trkpt lat="44.2221217509" lon="14.8360573780"><ele>-0.82</ele><time>2011-10-10T14:59:01Z</time></trkpt><trkpt lat="44.2221251875" lon="14.8360643350"><ele>-0.82</ele><time>2011-10-10T14:59:26Z</time></trkpt><trkpt lat="44.2221328150" lon="14.8360792547"><ele>-0.34</ele><time>2011-10-10T15:00:00Z</time></trkpt><trkpt lat="44.2221259419" lon="14.8360557016"><ele>-0.34</ele><time>2011-10-10T15:00:34Z</time></trkpt><trkpt lat="44.2221259419" lon="14.8360557016"><ele>-0.34</ele><time>2011-10-10T15:01:02Z</time></trkpt><trkpt lat="44.2221237626" lon="14.8360463139"><ele>-0.34</ele><time>2011-10-10T15:01:29Z</time></trkpt><trkpt lat="44.2221235111" lon="14.8360616527"><ele>-0.34</ele><time>2011-10-10T15:02:02Z</time></trkpt><trkpt lat="44.2221225053" lon="14.8360634129"><ele>-0.34</ele><time>2011-10-10T15:02:31Z</time></trkpt><trkpt lat="44.2221225053" lon="14.8360634129"><ele>-0.34</ele><time>2011-10-10T15:03:06Z</time></trkpt><trkpt lat="44.2221184820" lon="14.8360499181"><ele>-0.34</ele><time>2011-10-10T15:03:37Z</time></trkpt><trkpt lat="44.2221177276" lon="14.8360508401"><ele>0.14</ele><time>2011-10-10T15:04:05Z</time></trkpt><trkpt lat="44.2221160512" lon="14.8360635806"><ele>0.14</ele><time>2011-10-10T15:04:35Z</time></trkpt><trkpt lat="44.2221160512" lon="14.8360635806"><ele>0.14</ele><time>2011-10-10T15:05:00Z</time></trkpt><trkpt lat="44.2221168056" lon="14.8360691965"><ele>0.14</ele><time>2011-10-10T15:05:27Z</time></trkpt><trkpt lat="44.2221178114" lon="14.8360665981"><ele>0.14</ele><time>2011-10-10T15:05:59Z</time></trkpt><trkpt lat="44.2221178114" lon="14.8360665981"><ele>0.14</ele><time>2011-10-10T15:06:27Z</time></trkpt><trkpt lat="44.2221140396" lon="14.8360502534"><ele>0.62</ele><time>2011-10-10T15:06:58Z</time></trkpt><trkpt lat="44.2221130338" lon="14.8360551149"><ele>0.62</ele><time>2011-10-10T15:07:23Z</time></trkpt><trkpt lat="44.2221130338" lon="14.8360551149"><ele>0.62</ele><time>2011-10-10T15:07:50Z</time></trkpt><trkpt lat="44.2221143749" lon="14.8360612337"><ele>0.62</ele><time>2011-10-10T15:08:21Z</time></trkpt><trkpt lat="44.2221111059" lon="14.8360484932"><ele>0.14</ele><time>2011-10-10T15:08:54Z</time></trkpt><trkpt lat="44.2221112736" lon="14.8360431287"><ele>0.62</ele><time>2011-10-10T15:09:23Z</time></trkpt><trkpt lat="44.2221112736" lon="14.8360431287"><ele>0.62</ele><time>2011-10-10T15:09:49Z</time></trkpt><trkpt lat="44.2221132852" lon="14.8360539414"><ele>0.62</ele><time>2011-10-10T15:10:21Z</time></trkpt><trkpt lat="44.2221099325" lon="14.8360636644"><ele>0.62</ele><time>2011-10-10T15:10:53Z</time></trkpt><trkpt lat="44.2221112736" lon="14.8360580485"><ele>0.62</ele><time>2011-10-10T15:11:26Z</time></trkpt><trkpt lat="44.2221070826" lon="14.8360435478"><ele>1.10</ele><time>2011-10-10T15:11:57Z</time></trkpt><trkpt lat="44.2221070826" lon="14.8360435478"><ele>1.10</ele><time>2011-10-10T15:12:25Z</time></trkpt><trkpt lat="44.2221098486" lon="14.8360498343"><ele>1.10</ele><time>2011-10-10T15:12:53Z</time></trkpt><trkpt lat="44.2221086752" lon="14.8360655084"><ele>0.62</ele><time>2011-10-10T15:13:23Z</time></trkpt><trkpt lat="44.2221112736" lon="14.8360676039"><ele>0.62</ele><time>2011-10-10T15:13:58Z</time></trkpt><trkpt lat="44.2221095134" lon="14.8360558692"><ele>0.62</ele><time>2011-10-10T15:14:34Z</time></trkpt><trkpt lat="44.2221095134" lon="14.8360558692"><ele>0.62</ele><time>2011-10-10T15:15:05Z</time></trkpt><trkpt lat="44.2221112736" lon="14.8360581324"><ele>0.62</ele><time>2011-10-10T15:15:39Z</time></trkpt><trkpt lat="44.2221147940" lon="14.8360738903"><ele>0.62</ele><time>2011-10-10T15:16:11Z</time></trkpt><trkpt lat="44.2221152131" lon="14.8360756505"><ele>0.62</ele><time>2011-10-10T15:16:41Z</time></trkpt><trkpt lat="44.2221154645" lon="14.8360734712"><ele>0.14</ele><time>2011-10-10T15:17:12Z</time></trkpt><trkpt lat="44.2221154645" lon="14.8360734712"><ele>0.14</ele><time>2011-10-10T15:17:40Z</time></trkpt><trkpt lat="44.2221182305" lon="14.8360761534"><ele>0.14</ele><time>2011-10-10T15:18:12Z</time></trkpt><trkpt lat="44.2221195716" lon="14.8360671010"><ele>-0.34</ele><time>2011-10-10T15:18:43Z</time></trkpt><trkpt lat="44.2221195716" lon="14.8360671010"><ele>-0.34</ele><time>2011-10-10T15:19:09Z</time></trkpt><trkpt lat="44.2221170571" lon="14.8360604793"><ele>0.14</ele><time>2011-10-10T15:19:38Z</time></trkpt><trkpt lat="44.2221170571" lon="14.8360604793"><ele>0.14</ele><time>2011-10-10T15:20:03Z</time></trkpt><trkpt lat="44.2221200746" lon="14.8360759020"><ele>0.14</ele><time>2011-10-10T15:20:36Z</time></trkpt><trkpt lat="44.2221200746" lon="14.8360721301"><ele>0.14</ele><time>2011-10-10T15:21:07Z</time></trkpt><trkpt lat="44.2221147101" lon="14.8360466491"><ele>0.14</ele><time>2011-10-10T15:21:32Z</time></trkpt><trkpt lat="44.2221146263" lon="14.8360523488"><ele>-0.34</ele><time>2011-10-10T15:22:10Z</time></trkpt><trkpt lat="44.2221159674" lon="14.8360562045"><ele>-0.34</ele><time>2011-10-10T15:22:40Z</time></trkpt><trkpt lat="44.2221168056" lon="14.8360728845"><ele>0.62</ele><time>2011-10-10T15:23:12Z</time></trkpt><trkpt lat="44.2221168056" lon="14.8360728845"><ele>0.62</ele><time>2011-10-10T15:23:38Z</time></trkpt><trkpt lat="44.2221087590" lon="14.8360746447"><ele>0.62</ele><time>2011-10-10T15:24:09Z</time></trkpt><trkpt lat="44.2221096810" lon="14.8360702023"><ele>0.14</ele><time>2011-10-10T15:24:45Z</time></trkpt><trkpt lat="44.2221080884" lon="14.8360589705"><ele>0.62</ele><time>2011-10-10T15:25:15Z</time></trkpt><trkpt lat="44.2221146263" lon="14.8360572103"><ele>0.62</ele><time>2011-10-10T15:25:42Z</time></trkpt><trkpt lat="44.2221146263" lon="14.8360572103"><ele>0.62</ele><time>2011-10-10T15:26:12Z</time></trkpt><trkpt lat="44.2221073341" lon="14.8360381834"><ele>1.10</ele><time>2011-10-10T15:26:35Z</time></trkpt><trkpt lat="44.2221104354" lon="14.8360453919"><ele>1.58</ele><time>2011-10-10T15:27:08Z</time></trkpt><trkpt lat="44.2221086752" lon="14.8360547796"><ele>1.58</ele><time>2011-10-10T15:27:39Z</time></trkpt><trkpt lat="44.2221091781" lon="14.8360521812"><ele>1.58</ele><time>2011-10-10T15:28:10Z</time></trkpt><trkpt lat="44.2221091781" lon="14.8360521812"><ele>1.58</ele><time>2011-10-10T15:28:42Z</time></trkpt><trkpt lat="44.2221091781" lon="14.8360527679"><ele>1.10</ele><time>2011-10-10T15:29:13Z</time></trkpt><trkpt lat="44.2221093457" lon="14.8360684421"><ele>1.58</ele><time>2011-10-10T15:29:40Z</time></trkpt><trkpt lat="44.2221093457" lon="14.8360684421"><ele>1.58</ele><time>2011-10-10T15:30:12Z</time></trkpt><trkpt lat="44.2221037298" lon="14.8360544443"><ele>1.58</ele><time>2011-10-10T15:30:41Z</time></trkpt><trkpt lat="44.2221051548" lon="14.8360541929"><ele>1.10</ele><time>2011-10-10T15:31:13Z</time></trkpt><trkpt lat="44.2221076693" lon="14.8360688612"><ele>1.58</ele><time>2011-10-10T15:31:44Z</time></trkpt><trkpt lat="44.2221076693" lon="14.8360743932"><ele>2.06</ele><time>2011-10-10T15:32:11Z</time></trkpt><trkpt lat="44.2221074179" lon="14.8360622395"><ele>1.58</ele><time>2011-10-10T15:32:40Z</time></trkpt><trkpt lat="44.2221086752" lon="14.8360349983"><ele>1.58</ele><time>2011-10-10T15:32:56Z</time></trkpt><trkpt lat="44.2221054900" lon="14.8360337410"><ele>1.58</ele><time>2011-10-10T15:33:22Z</time></trkpt><trkpt lat="44.2221072502" lon="14.8360402789"><ele>1.58</ele><time>2011-10-10T15:33:54Z</time></trkpt><trkpt lat="44.2221071664" lon="14.8360486608"><ele>0.62</ele><time>2011-10-10T15:34:24Z</time></trkpt><trkpt lat="44.2221071664" lon="14.8360486608"><ele>0.62</ele><time>2011-10-10T15:34:56Z</time></trkpt><trkpt lat="44.2221064121" lon="14.8360351659"><ele>0.62</ele><time>2011-10-10T15:35:24Z</time></trkpt><trkpt lat="44.2221030593" lon="14.8360355850"><ele>1.10</ele><time>2011-10-10T15:35:49Z</time></trkpt><trkpt lat="44.2221030593" lon="14.8360355850"><ele>1.10</ele><time>2011-10-10T15:36:21Z</time></trkpt><trkpt lat="44.2220994551" lon="14.8360512592"><ele>1.10</ele><time>2011-10-10T15:36:48Z</time></trkpt><trkpt lat="44.2220992874" lon="14.8360303044"><ele>1.10</ele><time>2011-10-10T15:37:14Z</time></trkpt><trkpt lat="44.2220992874" lon="14.8360303044"><ele>1.10</ele><time>2011-10-10T15:37:30Z</time></trkpt><trkpt lat="44.2220983654" lon="14.8360126186"><ele>1.10</ele><time>2011-10-10T15:37:48Z</time></trkpt><trkpt lat="44.2221008800" lon="14.8360184021"><ele>0.62</ele><time>2011-10-10T15:38:18Z</time></trkpt><trkpt lat="44.2221023887" lon="14.8360257782"><ele>0.14</ele><time>2011-10-10T15:38:53Z</time></trkpt><trkpt lat="44.2221023887" lon="14.8360257782"><ele>0.14</ele><time>2011-10-10T15:39:25Z</time></trkpt><trkpt lat="44.2221025564" lon="14.8360402789"><ele>-0.34</ele><time>2011-10-10T15:39:57Z</time></trkpt><trkpt lat="44.2221031431" lon="14.8360404465"><ele>-0.34</ele><time>2011-10-10T15:40:35Z</time></trkpt><trkpt lat="44.2220996227" lon="14.8360192403"><ele>-0.34</ele><time>2011-10-10T15:40:57Z</time></trkpt><trkpt lat="44.2220971920" lon="14.8360242695"><ele>-0.34</ele><time>2011-10-10T15:41:29Z</time></trkpt><trkpt lat="44.2220971920" lon="14.8360242695"><ele>-0.34</ele><time>2011-10-10T15:42:00Z</time></trkpt><trkpt lat="44.2220974434" lon="14.8360339925"><ele>0.14</ele><time>2011-10-10T15:42:31Z</time></trkpt><trkpt lat="44.2220979463" lon="14.8360305559"><ele>-0.34</ele><time>2011-10-10T15:43:00Z</time></trkpt><trkpt lat="44.2220949288" lon="14.8360184859"><ele>0.14</ele><time>2011-10-10T15:43:36Z</time></trkpt><trkpt lat="44.2220918275" lon="14.8360103555"><ele>-0.34</ele><time>2011-10-10T15:43:58Z</time></trkpt><trkpt lat="44.2220852058" lon="14.8360074218"><ele>0.14</ele><time>2011-10-10T15:44:19Z</time></trkpt><trkpt lat="44.2220852058" lon="14.8360074218"><ele>0.14</ele><time>2011-10-10T15:44:48Z</time></trkpt><trkpt lat="44.2220852058" lon="14.8360090982"><ele>0.14</ele><time>2011-10-10T15:45:18Z</time></trkpt><trkpt lat="44.2220926657" lon="14.8360175639"><ele>-0.34</ele><time>2011-10-10T15:45:45Z</time></trkpt><trkpt lat="44.2220971081" lon="14.8360283766"><ele>-0.34</ele><time>2011-10-10T15:46:16Z</time></trkpt><trkpt lat="44.2220971081" lon="14.8360283766"><ele>-0.34</ele><time>2011-10-10T15:46:49Z</time></trkpt><trkpt lat="44.2220985331" lon="14.8360286281"><ele>-0.82</ele><time>2011-10-10T15:47:22Z</time></trkpt><trkpt lat="44.2220992874" lon="14.8360277060"><ele>-0.82</ele><time>2011-10-10T15:47:52Z</time></trkpt><trkpt lat="44.2220987007" lon="14.8360303883"><ele>-0.82</ele><time>2011-10-10T15:48:22Z</time></trkpt><trkpt lat="44.2221090943" lon="14.8360439669"><ele>-0.82</ele><time>2011-10-10T15:48:56Z</time></trkpt><trkpt lat="44.2221090943" lon="14.8360439669"><ele>-0.82</ele><time>2011-10-10T15:49:27Z</time></trkpt><trkpt lat="44.2221074179" lon="14.8360462300"><ele>-1.30</ele><time>2011-10-10T15:50:02Z</time></trkpt><trkpt lat="44.2221064959" lon="14.8360454757"><ele>-1.30</ele><time>2011-10-10T15:50:31Z</time></trkpt><trkpt lat="44.2221077532" lon="14.8360455595"><ele>-1.30</ele><time>2011-10-10T15:51:05Z</time></trkpt><trkpt lat="44.2221077532" lon="14.8360470682"><ele>-1.30</ele><time>2011-10-10T15:51:36Z</time></trkpt><trkpt lat="44.2221077532" lon="14.8360470682"><ele>-1.30</ele><time>2011-10-10T15:52:06Z</time></trkpt><trkpt lat="44.2221095134" lon="14.8360579647"><ele>-1.79</ele><time>2011-10-10T15:52:40Z</time></trkpt><trkpt lat="44.2221128661" lon="14.8360638320"><ele>-1.79</ele><time>2011-10-10T15:53:14Z</time></trkpt><trkpt lat="44.2221132014" lon="14.8360654246"><ele>-1.79</ele><time>2011-10-10T15:53:51Z</time></trkpt><trkpt lat="44.2221137043" lon="14.8360660113"><ele>-1.79</ele><time>2011-10-10T15:54:19Z</time></trkpt><trkpt lat="44.2221137043" lon="14.8360660113"><ele>-1.79</ele><time>2011-10-10T15:54:51Z</time></trkpt><trkpt lat="44.2221142072" lon="14.8360666819"><ele>-1.79</ele><time>2011-10-10T15:55:26Z</time></trkpt><trkpt lat="44.2221147940" lon="14.8360704537"><ele>-1.79</ele><time>2011-10-10T15:55:57Z</time></trkpt><trkpt lat="44.2221172247" lon="14.8360749800"><ele>-1.79</ele><time>2011-10-10T15:56:26Z</time></trkpt><trkpt lat="44.2221225891" lon="14.8360814340"><ele>-1.79</ele><time>2011-10-10T15:57:01Z</time></trkpt><trkpt lat="44.2221236788" lon="14.8360780813"><ele>-1.79</ele><time>2011-10-10T15:57:35Z</time></trkpt><trkpt lat="44.2221236788" lon="14.8360780813"><ele>-1.79</ele><time>2011-10-10T15:58:07Z</time></trkpt><trkpt lat="44.2221287917" lon="14.8360303044"><ele>-2.27</ele><time>2011-10-10T15:58:20Z</time></trkpt><trkpt lat="44.2221287917" lon="14.8360303044"><ele>-2.27</ele><time>2011-10-10T15:58:48Z</time></trkpt><trkpt lat="44.2221300490" lon="14.8360282090"><ele>-2.27</ele><time>2011-10-10T15:59:21Z</time></trkpt><trkpt lat="44.2221286241" lon="14.8360337410"><ele>-2.75</ele><time>2011-10-10T15:59:56Z</time></trkpt><trkpt lat="44.2221297137" lon="14.8360324837"><ele>-2.75</ele><time>2011-10-10T16:00:30Z</time></trkpt><trkpt lat="44.2221357487" lon="14.8360443860"><ele>-3.23</ele><time>2011-10-10T16:01:02Z</time></trkpt><trkpt lat="44.2221357487" lon="14.8360443860"><ele>-3.23</ele><time>2011-10-10T16:01:34Z</time></trkpt><trkpt lat="44.2221608106" lon="14.8360773269"><ele>-4.67</ele><time>2011-10-10T16:02:03Z</time></trkpt><trkpt lat="44.2221645825" lon="14.8360816017"><ele>-4.19</ele><time>2011-10-10T16:02:30Z</time></trkpt><trkpt lat="44.2221661750" lon="14.8360854574"><ele>-4.19</ele><time>2011-10-10T16:03:01Z</time></trkpt><trkpt lat="44.2221661750" lon="14.8360854574"><ele>-4.19</ele><time>2011-10-10T16:03:36Z</time></trkpt><trkpt lat="44.2221629061" lon="14.8360807635"><ele>-3.71</ele><time>2011-10-10T16:04:09Z</time></trkpt><trkpt lat="44.2221607268" lon="14.8360740580"><ele>-3.71</ele><time>2011-10-10T16:04:41Z</time></trkpt><trkpt lat="44.2221577931" lon="14.8360755667"><ele>-3.71</ele><time>2011-10-10T16:05:15Z</time></trkpt><trkpt lat="44.2221581284" lon="14.8360719625"><ele>-3.23</ele><time>2011-10-10T16:05:45Z</time></trkpt><trkpt lat="44.2221581284" lon="14.8360719625"><ele>-3.23</ele><time>2011-10-10T16:06:13Z</time></trkpt><trkpt lat="44.2221562844" lon="14.8360737227"><ele>-3.23</ele><time>2011-10-10T16:06:45Z</time></trkpt><trkpt lat="44.2221566197" lon="14.8360730521"><ele>-3.23</ele><time>2011-10-10T16:07:20Z</time></trkpt><trkpt lat="44.2221562844" lon="14.8360700347"><ele>-3.23</ele><time>2011-10-10T16:07:53Z</time></trkpt><trkpt lat="44.2221559491" lon="14.8360724654"><ele>-3.23</ele><time>2011-10-10T16:08:20Z</time></trkpt><trkpt lat="44.2221559491" lon="14.8360724654"><ele>-3.23</ele><time>2011-10-10T16:08:54Z</time></trkpt><trkpt lat="44.2221556976" lon="14.8360717949"><ele>-2.75</ele><time>2011-10-10T16:09:25Z</time></trkpt><trkpt lat="44.2221534345" lon="14.8360676877"><ele>-2.75</ele><time>2011-10-10T16:10:02Z</time></trkpt><trkpt lat="44.2221522611" lon="14.8360644188"><ele>-2.75</ele><time>2011-10-10T16:10:32Z</time></trkpt><trkpt lat="44.2221531831" lon="14.8360582162"><ele>-2.27</ele><time>2011-10-10T16:11:02Z</time></trkpt><trkpt lat="44.2221531831" lon="14.8360582162"><ele>-2.27</ele><time>2011-10-10T16:11:33Z</time></trkpt><trkpt lat="44.2221559491" lon="14.8360498343"><ele>-2.27</ele><time>2011-10-10T16:12:07Z</time></trkpt><trkpt lat="44.2221559491" lon="14.8360487446"><ele>-2.27</ele><time>2011-10-10T16:12:36Z</time></trkpt><trkpt lat="44.2221574578" lon="14.8360414524"><ele>-2.27</ele><time>2011-10-10T16:13:07Z</time></trkpt><trkpt lat="44.2221574578" lon="14.8360414524"><ele>-2.27</ele><time>2011-10-10T16:13:39Z</time></trkpt><trkpt lat="44.2221562844" lon="14.8360427935"><ele>-2.27</ele><time>2011-10-10T16:14:12Z</time></trkpt><trkpt lat="44.2221546080" lon="14.8360471521"><ele>-1.79</ele><time>2011-10-10T16:14:43Z</time></trkpt><trkpt lat="44.2221567035" lon="14.8360469006"><ele>-1.79</ele><time>2011-10-10T16:15:08Z</time></trkpt><trkpt lat="44.2221533507" lon="14.8360515106"><ele>-1.79</ele><time>2011-10-10T16:15:41Z</time></trkpt><trkpt lat="44.2221533507" lon="14.8360515106"><ele>-1.79</ele><time>2011-10-10T16:16:07Z</time></trkpt><trkpt lat="44.2221523449" lon="14.8360471521"><ele>-1.79</ele><time>2011-10-10T16:16:36Z</time></trkpt><trkpt lat="44.2221522611" lon="14.8360458110"><ele>-1.79</ele><time>2011-10-10T16:17:12Z</time></trkpt><trkpt lat="44.2221489921" lon="14.8360488284"><ele>-1.79</ele><time>2011-10-10T16:17:46Z</time></trkpt><trkpt lat="44.2221489921" lon="14.8360488284"><ele>-1.79</ele><time>2011-10-10T16:18:18Z</time></trkpt><trkpt lat="44.2221475672" lon="14.8360474873"><ele>-1.79</ele><time>2011-10-10T16:18:48Z</time></trkpt><trkpt lat="44.2221479863" lon="14.8360474873"><ele>-1.30</ele><time>2011-10-10T16:19:20Z</time></trkpt><trkpt lat="44.2221481539" lon="14.8360453080"><ele>-1.30</ele><time>2011-10-10T16:19:51Z</time></trkpt><trkpt lat="44.2221487407" lon="14.8360452242"><ele>-1.30</ele><time>2011-10-10T16:20:23Z</time></trkpt><trkpt lat="44.2221487407" lon="14.8360452242"><ele>-1.30</ele><time>2011-10-10T16:20:52Z</time></trkpt><trkpt lat="44.2221468966" lon="14.8360438831"><ele>-0.82</ele><time>2011-10-10T16:21:20Z</time></trkpt><trkpt lat="44.2221447174" lon="14.8360459786"><ele>-0.82</ele><time>2011-10-10T16:21:47Z</time></trkpt><trkpt lat="44.2221450526" lon="14.8360438831"><ele>-0.82</ele><time>2011-10-10T16:22:22Z</time></trkpt><trkpt lat="44.2221450526" lon="14.8360438831"><ele>-0.82</ele><time>2011-10-10T16:22:50Z</time></trkpt><trkpt lat="44.2221520096" lon="14.8360453080"><ele>-0.82</ele><time>2011-10-10T16:23:25Z</time></trkpt><trkpt lat="44.2221596371" lon="14.8360489123"><ele>-0.34</ele><time>2011-10-10T16:24:00Z</time></trkpt><trkpt lat="44.2221582960" lon="14.8360506725"><ele>-0.34</ele><time>2011-10-10T16:24:29Z</time></trkpt><trkpt lat="44.2221582960" lon="14.8360506725"><ele>-0.34</ele><time>2011-10-10T16:24:55Z</time></trkpt><trkpt lat="44.2221559491" lon="14.8360516783"><ele>0.14</ele><time>2011-10-10T16:25:28Z</time></trkpt><trkpt lat="44.2221546080" lon="14.8360499181"><ele>0.14</ele><time>2011-10-10T16:25:57Z</time></trkpt><trkpt lat="44.2221525963" lon="14.8360469844"><ele>0.14</ele><time>2011-10-10T16:26:32Z</time></trkpt><trkpt lat="44.2221513391" lon="14.8360359203"><ele>0.14</ele><time>2011-10-10T16:27:04Z</time></trkpt><trkpt lat="44.2221513391" lon="14.8360359203"><ele>0.14</ele><time>2011-10-10T16:27:31Z</time></trkpt><trkpt lat="44.2221489921" lon="14.8360434640"><ele>0.62</ele><time>2011-10-10T16:28:05Z</time></trkpt><trkpt lat="44.2221520934" lon="14.8360513430"><ele>-0.34</ele><time>2011-10-10T16:28:38Z</time></trkpt><trkpt lat="44.2221509200" lon="14.8360534385"><ele>-0.34</ele><time>2011-10-10T16:29:16Z</time></trkpt><trkpt lat="44.2221479863" lon="14.8360489961"><ele>-0.34</ele><time>2011-10-10T16:29:46Z</time></trkpt><trkpt lat="44.2221479863" lon="14.8360489961"><ele>-0.34</ele><time>2011-10-10T16:30:17Z</time></trkpt><trkpt lat="44.2221452203" lon="14.8360483255"><ele>-0.34</ele><time>2011-10-10T16:30:50Z</time></trkpt><trkpt lat="44.2221447174" lon="14.8360485770"><ele>-0.34</ele><time>2011-10-10T16:31:22Z</time></trkpt><trkpt lat="44.2221437115" lon="14.8360484093"><ele>-0.34</ele><time>2011-10-10T16:31:50Z</time></trkpt><trkpt lat="44.2221463099" lon="14.8360501695"><ele>-0.34</ele><time>2011-10-10T16:32:22Z</time></trkpt><trkpt lat="44.2221472319" lon="14.8360523488"><ele>-0.82</ele><time>2011-10-10T16:33:00Z</time></trkpt><trkpt lat="44.2221472319" lon="14.8360523488"><ele>-0.82</ele><time>2011-10-10T16:33:33Z</time></trkpt><trkpt lat="44.2221494112" lon="14.8360562883"><ele>-0.34</ele><time>2011-10-10T16:34:06Z</time></trkpt><trkpt lat="44.2221519258" lon="14.8360608146"><ele>-0.34</ele><time>2011-10-10T16:34:39Z</time></trkpt><trkpt lat="44.2221546918" lon="14.8360624909"><ele>-0.34</ele><time>2011-10-10T16:35:20Z</time></trkpt><trkpt lat="44.2221496627" lon="14.8360565398"><ele>0.62</ele><time>2011-10-10T16:36:01Z</time></trkpt><trkpt lat="44.2221501656" lon="14.8360537738"><ele>0.14</ele><time>2011-10-10T16:36:34Z</time></trkpt><trkpt lat="44.2221483216" lon="14.8360496666"><ele>0.14</ele><time>2011-10-10T16:37:12Z</time></trkpt><trkpt lat="44.2221485730" lon="14.8360495828"><ele>0.14</ele><time>2011-10-10T16:37:50Z</time></trkpt><trkpt lat="44.2221510876" lon="14.8360494990"><ele>0.14</ele><time>2011-10-10T16:38:20Z</time></trkpt><trkpt lat="44.2221510876" lon="14.8360494990"><ele>0.14</ele><time>2011-10-10T16:38:55Z</time></trkpt><trkpt lat="44.2221500818" lon="14.8360492475"><ele>0.62</ele><time>2011-10-10T16:39:33Z</time></trkpt><trkpt lat="44.2221493274" lon="14.8360510077"><ele>1.10</ele><time>2011-10-10T16:40:08Z</time></trkpt><trkpt lat="44.2221493274" lon="14.8360520136"><ele>1.10</ele><time>2011-10-10T16:40:38Z</time></trkpt><trkpt lat="44.2221538536" lon="14.8360577971"><ele>1.10</ele><time>2011-10-10T16:41:08Z</time></trkpt><trkpt lat="44.2221553624" lon="14.8360591382"><ele>1.10</ele><time>2011-10-10T16:41:42Z</time></trkpt><trkpt lat="44.2221553624" lon="14.8360591382"><ele>1.10</ele><time>2011-10-10T16:42:18Z</time></trkpt><trkpt lat="44.2221538536" lon="14.8360640835"><ele>1.10</ele><time>2011-10-10T16:42:48Z</time></trkpt><trkpt lat="44.2221541051" lon="14.8360683583"><ele>1.10</ele><time>2011-10-10T16:43:21Z</time></trkpt><trkpt lat="44.2221541889" lon="14.8360672686"><ele>1.58</ele><time>2011-10-10T16:43:51Z</time></trkpt><trkpt lat="44.2221498303" lon="14.8360619042"><ele>1.10</ele><time>2011-10-10T16:44:23Z</time></trkpt><trkpt lat="44.2221498303" lon="14.8360619042"><ele>1.10</ele><time>2011-10-10T16:44:59Z</time></trkpt><trkpt lat="44.2221479863" lon="14.8360555340"><ele>1.10</ele><time>2011-10-10T16:45:35Z</time></trkpt><trkpt lat="44.2221491598" lon="14.8360535223"><ele>1.10</ele><time>2011-10-10T16:46:06Z</time></trkpt><trkpt lat="44.2221456394" lon="14.8360491637"><ele>1.10</ele><time>2011-10-10T16:46:39Z</time></trkpt><trkpt lat="44.2221437953" lon="14.8360453080"><ele>1.58</ele><time>2011-10-10T16:47:13Z</time></trkpt><trkpt lat="44.2221440468" lon="14.8360364232"><ele>1.10</ele><time>2011-10-10T16:47:52Z</time></trkpt><trkpt lat="44.2221448012" lon="14.8360396922"><ele>0.62</ele><time>2011-10-10T16:48:26Z</time></trkpt><trkpt lat="44.2221457232" lon="14.8360422067"><ele>1.10</ele><time>2011-10-10T16:49:02Z</time></trkpt><trkpt lat="44.2221500818" lon="14.8360509239"><ele>1.10</ele><time>2011-10-10T16:49:41Z</time></trkpt><trkpt lat="44.2221500818" lon="14.8360509239"><ele>1.10</ele><time>2011-10-10T16:50:17Z</time></trkpt><trkpt lat="44.2221515067" lon="14.8360543605"><ele>1.10</ele><time>2011-10-10T16:50:54Z</time></trkpt><trkpt lat="44.2221473157" lon="14.8360546120"><ele>1.10</ele><time>2011-10-10T16:51:28Z</time></trkpt><trkpt lat="44.2221484892" lon="14.8360544443"><ele>1.10</ele><time>2011-10-10T16:52:01Z</time></trkpt><trkpt lat="44.2221468966" lon="14.8360537738"><ele>1.10</ele><time>2011-10-10T16:52:32Z</time></trkpt><trkpt lat="44.2221453041" lon="14.8360469844"><ele>1.10</ele><time>2011-10-10T16:53:13Z</time></trkpt><trkpt lat="44.2221443821" lon="14.8360441346"><ele>1.58</ele><time>2011-10-10T16:53:48Z</time></trkpt><trkpt lat="44.2221427057" lon="14.8360417876"><ele>1.58</ele><time>2011-10-10T16:54:25Z</time></trkpt><trkpt lat="44.2221441306" lon="14.8360401113"><ele>1.10</ele><time>2011-10-10T16:55:01Z</time></trkpt><trkpt lat="44.2221441306" lon="14.8360401113"><ele>1.10</ele><time>2011-10-10T16:55:37Z</time></trkpt><trkpt lat="44.2221450526" lon="14.8360390216"><ele>1.10</ele><time>2011-10-10T16:56:16Z</time></trkpt><trkpt lat="44.2221444659" lon="14.8360359203"><ele>1.10</ele><time>2011-10-10T16:56:49Z</time></trkpt><trkpt lat="44.2221478187" lon="14.8360379320"><ele>0.62</ele><time>2011-10-10T16:57:22Z</time></trkpt><trkpt lat="44.2221477348" lon="14.8360424582"><ele>0.62</ele><time>2011-10-10T16:57:52Z</time></trkpt><trkpt lat="44.2221505847" lon="14.8360474035"><ele>0.62</ele><time>2011-10-10T16:58:26Z</time></trkpt><trkpt lat="44.2221505847" lon="14.8360474035"><ele>0.62</ele><time>2011-10-10T16:58:55Z</time></trkpt><trkpt lat="44.2221504170" lon="14.8360467330"><ele>0.62</ele><time>2011-10-10T16:59:30Z</time></trkpt><trkpt lat="44.2221473157" lon="14.8360385187"><ele>0.62</ele><time>2011-10-10T17:00:06Z</time></trkpt><trkpt lat="44.2221509200" lon="14.8360331543"><ele>0.62</ele><time>2011-10-10T17:00:37Z</time></trkpt><trkpt lat="44.2221497465" lon="14.8360274546"><ele>0.62</ele><time>2011-10-10T17:01:08Z</time></trkpt><trkpt lat="44.2221497465" lon="14.8360274546"><ele>0.62</ele><time>2011-10-10T17:01:39Z</time></trkpt><trkpt lat="44.2221505847" lon="14.8360245209"><ele>1.10</ele><time>2011-10-10T17:02:13Z</time></trkpt><trkpt lat="44.2221479863" lon="14.8360189050"><ele>0.62</ele><time>2011-10-10T17:02:47Z</time></trkpt><trkpt lat="44.2221463937" lon="14.8360151332"><ele>0.62</ele><time>2011-10-10T17:03:27Z</time></trkpt><trkpt lat="44.2221468128" lon="14.8360140435"><ele>0.62</ele><time>2011-10-10T17:04:03Z</time></trkpt><trkpt lat="44.2221470643" lon="14.8360173125"><ele>0.62</ele><time>2011-10-10T17:04:41Z</time></trkpt><trkpt lat="44.2221470643" lon="14.8360208329"><ele>0.62</ele><time>2011-10-10T17:05:22Z</time></trkpt><trkpt lat="44.2221460585" lon="14.8360235989"><ele>0.62</ele><time>2011-10-10T17:05:53Z</time></trkpt><trkpt lat="44.2221367545" lon="14.8360288795"><ele>0.14</ele><time>2011-10-10T17:06:09Z</time></trkpt><trkpt lat="44.2221135367" lon="14.8360558692"><ele>0.62</ele><time>2011-10-10T17:06:22Z</time></trkpt><trkpt lat="44.2221135367" lon="14.8360558692"><ele>0.62</ele><time>2011-10-10T17:06:43Z</time></trkpt><trkpt lat="44.2221134529" lon="14.8360505886"><ele>0.62</ele><time>2011-10-10T17:07:06Z</time></trkpt><trkpt lat="44.2221106030" lon="14.8360383511"><ele>0.62</ele><time>2011-10-10T17:07:35Z</time></trkpt><trkpt lat="44.2221066635" lon="14.8360282928"><ele>0.62</ele><time>2011-10-10T17:07:57Z</time></trkpt><trkpt lat="44.2221003771" lon="14.8360128701"><ele>1.10</ele><time>2011-10-10T17:08:18Z</time></trkpt><trkpt lat="44.2221018020" lon="14.8360149655"><ele>1.58</ele><time>2011-10-10T17:08:38Z</time></trkpt><trkpt lat="44.2221018020" lon="14.8360149655"><ele>1.58</ele><time>2011-10-10T17:09:02Z</time></trkpt><trkpt lat="44.2221045680" lon="14.8360150494"><ele>1.10</ele><time>2011-10-10T17:09:26Z</time></trkpt><trkpt lat="44.2221047357" lon="14.8360263649"><ele>0.62</ele><time>2011-10-10T17:10:00Z</time></trkpt><trkpt lat="44.2221047357" lon="14.8360263649"><ele>0.62</ele><time>2011-10-10T17:10:24Z</time></trkpt><trkpt lat="44.2221027240" lon="14.8360435478"><ele>0.62</ele><time>2011-10-10T17:10:53Z</time></trkpt><trkpt lat="44.2221044004" lon="14.8360513430"><ele>0.62</ele><time>2011-10-10T17:11:31Z</time></trkpt><trkpt lat="44.2221040651" lon="14.8360443022"><ele>0.62</ele><time>2011-10-10T17:11:55Z</time></trkpt><trkpt lat="44.2221040651" lon="14.8360443022"><ele>0.62</ele><time>2011-10-10T17:12:24Z</time></trkpt><trkpt lat="44.2221036460" lon="14.8360387702"><ele>0.62</ele><time>2011-10-10T17:12:55Z</time></trkpt><trkpt lat="44.2221038137" lon="14.8360375129"><ele>0.62</ele><time>2011-10-10T17:13:18Z</time></trkpt><trkpt lat="44.2221077532" lon="14.8360286281"><ele>0.62</ele><time>2011-10-10T17:13:39Z</time></trkpt><trkpt lat="44.2221046519" lon="14.8360297177"><ele>0.62</ele><time>2011-10-10T17:14:01Z</time></trkpt><trkpt lat="44.2221010476" lon="14.8360391892"><ele>0.62</ele><time>2011-10-10T17:14:16Z</time></trkpt><trkpt lat="44.2220959347" lon="14.8360379320"><ele>0.14</ele><time>2011-10-10T17:14:35Z</time></trkpt><trkpt lat="44.2220959347" lon="14.8360379320"><ele>0.14</ele><time>2011-10-10T17:14:54Z</time></trkpt><trkpt lat="44.2220949288" lon="14.8360422067"><ele>0.14</ele><time>2011-10-10T17:15:19Z</time></trkpt><trkpt lat="44.2220959347" lon="14.8360463977"><ele>0.14</ele><time>2011-10-10T17:15:49Z</time></trkpt><trkpt lat="44.2220949288" lon="14.8360410333"><ele>0.14</ele><time>2011-10-10T17:16:18Z</time></trkpt><trkpt lat="44.2221146263" lon="14.8359927535"><ele>-3.71</ele><time>2011-10-10T17:18:31Z</time></trkpt><trkpt lat="44.2221048195" lon="14.8359894007"><ele>-1.79</ele><time>2011-10-10T17:18:32Z</time></trkpt><trkpt lat="44.2221016344" lon="14.8360538576"><ele>0.14</ele><time>2011-10-10T17:18:52Z</time></trkpt><trkpt lat="44.2221024726" lon="14.8360668495"><ele>-0.82</ele><time>2011-10-10T17:19:11Z</time></trkpt><trkpt lat="44.2221037298" lon="14.8360732198"><ele>-0.34</ele><time>2011-10-10T17:19:46Z</time></trkpt><trkpt lat="44.2221062444" lon="14.8360759020"><ele>-1.79</ele><time>2011-10-10T17:20:03Z</time></trkpt><trkpt lat="44.2221003771" lon="14.8360720463"><ele>-1.79</ele><time>2011-10-10T17:20:28Z</time></trkpt><trkpt lat="44.2221017182" lon="14.8360707890"><ele>-1.79</ele><time>2011-10-10T17:20:56Z</time></trkpt><trkpt lat="44.2221017182" lon="14.8360707890"><ele>-1.79</ele><time>2011-10-10T17:21:28Z</time></trkpt><trkpt lat="44.2220971081" lon="14.8360536061"><ele>-1.30</ele><time>2011-10-10T17:21:57Z</time></trkpt><trkpt lat="44.2220971081" lon="14.8360536061"><ele>-1.30</ele><time>2011-10-10T17:22:29Z</time></trkpt><trkpt lat="44.2220956832" lon="14.8360494152"><ele>-0.82</ele><time>2011-10-10T17:22:58Z</time></trkpt><trkpt lat="44.2220969405" lon="14.8360551149"><ele>-0.82</ele><time>2011-10-10T17:23:22Z</time></trkpt><trkpt lat="44.2221005447" lon="14.8360617366"><ele>-0.82</ele><time>2011-10-10T17:23:55Z</time></trkpt><trkpt lat="44.2221127823" lon="14.8360779975"><ele>-1.30</ele><time>2011-10-10T17:24:31Z</time></trkpt><trkpt lat="44.2221127823" lon="14.8360779975"><ele>-1.30</ele><time>2011-10-10T17:25:03Z</time></trkpt><trkpt lat="44.2221132852" lon="14.8360810149"><ele>-1.30</ele><time>2011-10-10T17:25:34Z</time></trkpt><trkpt lat="44.2221108545" lon="14.8360721301"><ele>-1.30</ele><time>2011-10-10T17:26:08Z</time></trkpt><trkpt lat="44.2221132852" lon="14.8360487446"><ele>-1.30</ele><time>2011-10-10T17:26:21Z</time></trkpt><trkpt lat="44.2221154645" lon="14.8360412009"><ele>-1.30</ele><time>2011-10-10T17:26:35Z</time></trkpt><trkpt lat="44.2221154645" lon="14.8360412009"><ele>-1.30</ele><time>2011-10-10T17:27:03Z</time></trkpt><trkpt lat="44.2221155483" lon="14.8360408656"><ele>-1.30</ele><time>2011-10-10T17:27:37Z</time></trkpt><trkpt lat="44.2221157998" lon="14.8360411171"><ele>-1.30</ele><time>2011-10-10T17:28:06Z</time></trkpt><trkpt lat="44.2221164703" lon="14.8360416200"><ele>-1.79</ele><time>2011-10-10T17:28:40Z</time></trkpt><trkpt lat="44.2221159674" lon="14.8360401113"><ele>-1.79</ele><time>2011-10-10T17:29:13Z</time></trkpt><trkpt lat="44.2221159674" lon="14.8360401113"><ele>-1.79</ele><time>2011-10-10T17:29:44Z</time></trkpt><trkpt lat="44.2221152969" lon="14.8360371776"><ele>-1.79</ele><time>2011-10-10T17:30:13Z</time></trkpt><trkpt lat="44.2221151292" lon="14.8360361718"><ele>-2.27</ele><time>2011-10-10T17:30:48Z</time></trkpt><trkpt lat="44.2221157160" lon="14.8360359203"><ele>-2.27</ele><time>2011-10-10T17:31:15Z</time></trkpt><trkpt lat="44.2221193202" lon="14.8360380158"><ele>-2.75</ele><time>2011-10-10T17:31:48Z</time></trkpt><trkpt lat="44.2221193202" lon="14.8360380158"><ele>-2.75</ele><time>2011-10-10T17:32:23Z</time></trkpt><trkpt lat="44.2221229244" lon="14.8360391054"><ele>-2.75</ele><time>2011-10-10T17:32:57Z</time></trkpt><trkpt lat="44.2221262772" lon="14.8360399436"><ele>-3.23</ele><time>2011-10-10T17:33:28Z</time></trkpt><trkpt lat="44.2221259419" lon="14.8360437155"><ele>-3.23</ele><time>2011-10-10T17:34:00Z</time></trkpt><trkpt lat="44.2221262772" lon="14.8360452242"><ele>-3.23</ele><time>2011-10-10T17:34:38Z</time></trkpt><trkpt lat="44.2221275344" lon="14.8360456433"><ele>-3.23</ele><time>2011-10-10T17:35:16Z</time></trkpt><trkpt lat="44.2221275344" lon="14.8360456433"><ele>-3.23</ele><time>2011-10-10T17:35:45Z</time></trkpt><trkpt lat="44.2221294623" lon="14.8360463977"><ele>-3.23</ele><time>2011-10-10T17:36:22Z</time></trkpt><trkpt lat="44.2221279535" lon="14.8360432126"><ele>-3.23</ele><time>2011-10-10T17:36:56Z</time></trkpt><trkpt lat="44.2221288756" lon="14.8360412847"><ele>-3.71</ele><time>2011-10-10T17:37:24Z</time></trkpt><trkpt lat="44.2221289594" lon="14.8360424582"><ele>-3.71</ele><time>2011-10-10T17:37:55Z</time></trkpt><trkpt lat="44.2221289594" lon="14.8360424582"><ele>-3.71</ele><time>2011-10-10T17:38:25Z</time></trkpt><trkpt lat="44.2221310548" lon="14.8360421229"><ele>-3.71</ele><time>2011-10-10T17:38:54Z</time></trkpt><trkpt lat="44.2221309710" lon="14.8360427096"><ele>-4.19</ele><time>2011-10-10T17:39:26Z</time></trkpt><trkpt lat="44.2221308872" lon="14.8360470682"><ele>-3.71</ele><time>2011-10-10T17:40:00Z</time></trkpt><trkpt lat="44.2221305519" lon="14.8360503372"><ele>-3.71</ele><time>2011-10-10T17:40:33Z</time></trkpt><trkpt lat="44.2221305519" lon="14.8360503372"><ele>-3.71</ele><time>2011-10-10T17:41:02Z</time></trkpt><trkpt lat="44.2221306358" lon="14.8360510077"><ele>-4.19</ele><time>2011-10-10T17:41:29Z</time></trkpt><trkpt lat="44.2221314739" lon="14.8360507563"><ele>-4.19</ele><time>2011-10-10T17:42:04Z</time></trkpt><trkpt lat="44.2221322283" lon="14.8360503372"><ele>-4.19</ele><time>2011-10-10T17:42:34Z</time></trkpt><trkpt lat="44.2221322283" lon="14.8360503372"><ele>-4.19</ele><time>2011-10-10T17:43:03Z</time></trkpt><trkpt lat="44.2221331503" lon="14.8360491637"><ele>-4.67</ele><time>2011-10-10T17:43:33Z</time></trkpt><trkpt lat="44.2221353296" lon="14.8360468168"><ele>-5.15</ele><time>2011-10-10T17:44:04Z</time></trkpt><trkpt lat="44.2221353296" lon="14.8360458110"><ele>-5.15</ele><time>2011-10-10T17:44:30Z</time></trkpt><trkpt lat="44.2221353296" lon="14.8360469006"><ele>-5.15</ele><time>2011-10-10T17:45:08Z</time></trkpt><trkpt lat="44.2221353296" lon="14.8360469006"><ele>-5.15</ele><time>2011-10-10T17:45:39Z</time></trkpt><trkpt lat="44.2221344914" lon="14.8360485770"><ele>-5.15</ele><time>2011-10-10T17:46:19Z</time></trkpt><trkpt lat="44.2221353296" lon="14.8360508401"><ele>-5.15</ele><time>2011-10-10T17:46:48Z</time></trkpt><trkpt lat="44.2221341562" lon="14.8360521812"><ele>-5.15</ele><time>2011-10-10T17:47:26Z</time></trkpt><trkpt lat="44.2221325636" lon="14.8360572103"><ele>-4.67</ele><time>2011-10-10T17:48:06Z</time></trkpt><trkpt lat="44.2221310548" lon="14.8360581324"><ele>-5.15</ele><time>2011-10-10T17:48:40Z</time></trkpt><trkpt lat="44.2221326474" lon="14.8360536899"><ele>-5.15</ele><time>2011-10-10T17:49:11Z</time></trkpt><trkpt lat="44.2221316416" lon="14.8360527679"><ele>-5.15</ele><time>2011-10-10T17:49:53Z</time></trkpt><trkpt lat="44.2221324798" lon="14.8360550310"><ele>-5.15</ele><time>2011-10-10T17:50:29Z</time></trkpt><trkpt lat="44.2221330665" lon="14.8360557016"><ele>-5.15</ele><time>2011-10-10T17:51:07Z</time></trkpt><trkpt lat="44.2221330665" lon="14.8360557016"><ele>-5.15</ele><time>2011-10-10T17:51:37Z</time></trkpt><trkpt lat="44.2221330665" lon="14.8360562045"><ele>-5.15</ele><time>2011-10-10T17:52:04Z</time></trkpt><trkpt lat="44.2221337371" lon="14.8360556178"><ele>-5.15</ele><time>2011-10-10T17:52:30Z</time></trkpt><trkpt lat="44.2221337371" lon="14.8360556178"><ele>-5.15</ele><time>2011-10-10T17:53:04Z</time></trkpt><trkpt lat="44.2221334856" lon="14.8360594735"><ele>-5.15</ele><time>2011-10-10T17:53:35Z</time></trkpt><trkpt lat="44.2221298814" lon="14.8360590544"><ele>-5.15</ele><time>2011-10-10T17:54:13Z</time></trkpt><trkpt lat="44.2221315578" lon="14.8360565398"><ele>-5.15</ele><time>2011-10-10T17:54:45Z</time></trkpt><trkpt lat="44.2221360002" lon="14.8360531870"><ele>-5.15</ele><time>2011-10-10T17:55:25Z</time></trkpt><trkpt lat="44.2221369222" lon="14.8360538576"><ele>-5.15</ele><time>2011-10-10T17:55:55Z</time></trkpt><trkpt lat="44.2221375089" lon="14.8360541929"><ele>-5.15</ele><time>2011-10-10T17:56:29Z</time></trkpt><trkpt lat="44.2221785802" lon="14.8360564560"><ele>-3.23</ele><time>2011-10-10T17:56:48Z</time></trkpt><trkpt lat="44.2221365031" lon="14.8360907380"><ele>-3.23</ele><time>2011-10-10T17:57:20Z</time></trkpt><trkpt lat="44.2221365031" lon="14.8360907380"><ele>-3.23</ele><time>2011-10-10T17:57:51Z</time></trkpt><trkpt lat="44.2221378442" lon="14.8360904027"><ele>-3.23</ele><time>2011-10-10T17:58:20Z</time></trkpt><trkpt lat="44.2221390177" lon="14.8360896483"><ele>-3.23</ele><time>2011-10-10T17:58:53Z</time></trkpt><trkpt lat="44.2221389338" lon="14.8360888939"><ele>-2.75</ele><time>2011-10-10T17:59:29Z</time></trkpt><trkpt lat="44.2221411970" lon="14.8360864632"><ele>-2.75</ele><time>2011-10-10T18:00:05Z</time></trkpt><trkpt lat="44.2221417837" lon="14.8360856250"><ele>-2.75</ele><time>2011-10-10T18:00:34Z</time></trkpt><trkpt lat="44.2221417837" lon="14.8360856250"><ele>-2.75</ele><time>2011-10-10T18:01:02Z</time></trkpt><trkpt lat="44.2221436277" lon="14.8360859603"><ele>-2.75</ele><time>2011-10-10T18:01:30Z</time></trkpt><trkpt lat="44.2221505009" lon="14.8360833619"><ele>-2.27</ele><time>2011-10-10T18:02:02Z</time></trkpt><trkpt lat="44.2221520096" lon="14.8360819370"><ele>-2.27</ele><time>2011-10-10T18:02:40Z</time></trkpt><trkpt lat="44.2221520096" lon="14.8360819370"><ele>-2.27</ele><time>2011-10-10T18:03:09Z</time></trkpt><trkpt lat="44.2221524287" lon="14.8360793386"><ele>-2.27</ele><time>2011-10-10T18:03:35Z</time></trkpt><trkpt lat="44.2221533507" lon="14.8360779975"><ele>-2.27</ele><time>2011-10-10T18:04:09Z</time></trkpt><trkpt lat="44.2221603077" lon="14.8360777460"><ele>-1.79</ele><time>2011-10-10T18:04:43Z</time></trkpt><trkpt lat="44.2221622355" lon="14.8360785004"><ele>-1.79</ele><time>2011-10-10T18:05:15Z</time></trkpt><trkpt lat="44.2221622355" lon="14.8360785004"><ele>-1.79</ele><time>2011-10-10T18:05:47Z</time></trkpt><trkpt lat="44.2221628223" lon="14.8360785842"><ele>-1.30</ele><time>2011-10-10T18:06:23Z</time></trkpt><trkpt lat="44.2221629899" lon="14.8360782489"><ele>-1.30</ele><time>2011-10-10T18:06:55Z</time></trkpt><trkpt lat="44.2221630737" lon="14.8360774945"><ele>-1.30</ele><time>2011-10-10T18:07:26Z</time></trkpt><trkpt lat="44.2221628223" lon="14.8360764887"><ele>-1.30</ele><time>2011-10-10T18:07:53Z</time></trkpt><trkpt lat="44.2221628223" lon="14.8360764887"><ele>-1.30</ele><time>2011-10-10T18:08:21Z</time></trkpt><trkpt lat="44.2221629061" lon="14.8360753153"><ele>-1.30</ele><time>2011-10-10T18:08:48Z</time></trkpt><trkpt lat="44.2221628223" lon="14.8360707890"><ele>-1.30</ele><time>2011-10-10T18:09:24Z</time></trkpt><trkpt lat="44.2221615650" lon="14.8360679392"><ele>-0.82</ele><time>2011-10-10T18:09:54Z</time></trkpt><trkpt lat="44.2221615650" lon="14.8360679392"><ele>-0.82</ele><time>2011-10-10T18:10:28Z</time></trkpt><trkpt lat="44.2221603915" lon="14.8360664304"><ele>-0.82</ele><time>2011-10-10T18:11:00Z</time></trkpt><trkpt lat="44.2221578769" lon="14.8360647541"><ele>-0.82</ele><time>2011-10-10T18:11:31Z</time></trkpt><trkpt lat="44.2221561167" lon="14.8360660113"><ele>-0.82</ele><time>2011-10-10T18:12:05Z</time></trkpt><trkpt lat="44.2221568711" lon="14.8360650055"><ele>-0.34</ele><time>2011-10-10T18:12:38Z</time></trkpt><trkpt lat="44.2221562006" lon="14.8360632453"><ele>-0.34</ele><time>2011-10-10T18:13:13Z</time></trkpt><trkpt lat="44.2221562006" lon="14.8360632453"><ele>-0.34</ele><time>2011-10-10T18:13:48Z</time></trkpt><trkpt lat="44.2221559491" lon="14.8360608146"><ele>-0.34</ele><time>2011-10-10T18:14:26Z</time></trkpt><trkpt lat="44.2221551947" lon="14.8360577971"><ele>-0.34</ele><time>2011-10-10T18:14:59Z</time></trkpt><trkpt lat="44.2221552785" lon="14.8360572103"><ele>-0.34</ele><time>2011-10-10T18:15:30Z</time></trkpt><trkpt lat="44.2221541889" lon="14.8360559531"><ele>-0.34</ele><time>2011-10-10T18:16:02Z</time></trkpt><trkpt lat="44.2221526802" lon="14.8360562045"><ele>-0.34</ele><time>2011-10-10T18:16:37Z</time></trkpt><trkpt lat="44.2221526802" lon="14.8360562045"><ele>-0.34</ele><time>2011-10-10T18:17:10Z</time></trkpt><trkpt lat="44.2221529316" lon="14.8360567074"><ele>-0.34</ele><time>2011-10-10T18:17:46Z</time></trkpt><trkpt lat="44.2221503332" lon="14.8360562883"><ele>-0.82</ele><time>2011-10-10T18:18:17Z</time></trkpt><trkpt lat="44.2221498303" lon="14.8360546958"><ele>-0.82</ele><time>2011-10-10T18:18:47Z</time></trkpt><trkpt lat="44.2221496627" lon="14.8360542767"><ele>-0.82</ele><time>2011-10-10T18:19:19Z</time></trkpt><trkpt lat="44.2221502494" lon="14.8360524327"><ele>-0.82</ele><time>2011-10-10T18:19:54Z</time></trkpt><trkpt lat="44.2221502494" lon="14.8360524327"><ele>-0.82</ele><time>2011-10-10T18:20:27Z</time></trkpt><trkpt lat="44.2221491598" lon="14.8360540252"><ele>-0.34</ele><time>2011-10-10T18:20:53Z</time></trkpt><trkpt lat="44.2221518420" lon="14.8360552825"><ele>-0.34</ele><time>2011-10-10T18:21:24Z</time></trkpt><trkpt lat="44.2221515067" lon="14.8360553663"><ele>-0.34</ele><time>2011-10-10T18:21:52Z</time></trkpt><trkpt lat="44.2221515067" lon="14.8360553663"><ele>-0.34</ele><time>2011-10-10T18:22:23Z</time></trkpt><trkpt lat="44.2221475672" lon="14.8360544443"><ele>-0.34</ele><time>2011-10-10T18:22:56Z</time></trkpt><trkpt lat="44.2221441306" lon="14.8360526841"><ele>-0.82</ele><time>2011-10-10T18:23:33Z</time></trkpt><trkpt lat="44.2221434601" lon="14.8360475712"><ele>-0.82</ele><time>2011-10-10T18:24:07Z</time></trkpt><trkpt lat="44.2221424542" lon="14.8360471521"><ele>-0.82</ele><time>2011-10-10T18:24:38Z</time></trkpt><trkpt lat="44.2221424542" lon="14.8360471521"><ele>-0.82</ele><time>2011-10-10T18:25:06Z</time></trkpt><trkpt lat="44.2221422028" lon="14.8360479902"><ele>-0.82</ele><time>2011-10-10T18:25:37Z</time></trkpt><trkpt lat="44.2221408617" lon="14.8360506725"><ele>-1.30</ele><time>2011-10-10T18:26:06Z</time></trkpt><trkpt lat="44.2221425381" lon="14.8360525165"><ele>-1.30</ele><time>2011-10-10T18:26:42Z</time></trkpt><trkpt lat="44.2221422866" lon="14.8360521812"><ele>-1.30</ele><time>2011-10-10T18:27:13Z</time></trkpt><trkpt lat="44.2221422866" lon="14.8360521812"><ele>-1.30</ele><time>2011-10-10T18:27:48Z</time></trkpt><trkpt lat="44.2221418675" lon="14.8360530194"><ele>-1.30</ele><time>2011-10-10T18:28:21Z</time></trkpt><trkpt lat="44.2221410293" lon="14.8360525165"><ele>-1.30</ele><time>2011-10-10T18:28:56Z</time></trkpt><trkpt lat="44.2221383471" lon="14.8360508401"><ele>-1.30</ele><time>2011-10-10T18:29:34Z</time></trkpt><trkpt lat="44.2221389338" lon="14.8360478226"><ele>-1.30</ele><time>2011-10-10T18:30:03Z</time></trkpt><trkpt lat="44.2221399397" lon="14.8360427096"><ele>-1.30</ele><time>2011-10-10T18:30:38Z</time></trkpt><trkpt lat="44.2221399397" lon="14.8360427096"><ele>-1.30</ele><time>2011-10-10T18:31:09Z</time></trkpt><trkpt lat="44.2221402749" lon="14.8360448889"><ele>-1.30</ele><time>2011-10-10T18:31:35Z</time></trkpt><trkpt lat="44.2221399397" lon="14.8360456433"><ele>-1.30</ele><time>2011-10-10T18:32:04Z</time></trkpt><trkpt lat="44.2221381795" lon="14.8360470682"><ele>-1.30</ele><time>2011-10-10T18:32:37Z</time></trkpt><trkpt lat="44.2221376766" lon="14.8360471521"><ele>-1.30</ele><time>2011-10-10T18:33:13Z</time></trkpt><trkpt lat="44.2221376766" lon="14.8360471521"><ele>-1.30</ele><time>2011-10-10T18:33:47Z</time></trkpt><trkpt lat="44.2221364193" lon="14.8360448051"><ele>-1.30</ele><time>2011-10-10T18:34:22Z</time></trkpt><trkpt lat="44.2221366707" lon="14.8360432126"><ele>-1.30</ele><time>2011-10-10T18:34:53Z</time></trkpt><trkpt lat="44.2221372575" lon="14.8360402789"><ele>-1.30</ele><time>2011-10-10T18:35:26Z</time></trkpt><trkpt lat="44.2221362516" lon="14.8360406142"><ele>-1.30</ele><time>2011-10-10T18:35:57Z</time></trkpt><trkpt lat="44.2221362516" lon="14.8360406142"><ele>-1.30</ele><time>2011-10-10T18:36:24Z</time></trkpt><trkpt lat="44.2221361678" lon="14.8360407818"><ele>-1.30</ele><time>2011-10-10T18:36:52Z</time></trkpt><trkpt lat="44.2221351620" lon="14.8360401113"><ele>-1.30</ele><time>2011-10-10T18:37:30Z</time></trkpt><trkpt lat="44.2221347429" lon="14.8360406980"><ele>-1.30</ele><time>2011-10-10T18:38:08Z</time></trkpt><trkpt lat="44.2221332341" lon="14.8360410333"><ele>-1.30</ele><time>2011-10-10T18:38:44Z</time></trkpt><trkpt lat="44.2221334018" lon="14.8360417876"><ele>-1.30</ele><time>2011-10-10T18:39:16Z</time></trkpt><trkpt lat="44.2221334018" lon="14.8360417876"><ele>-1.30</ele><time>2011-10-10T18:39:43Z</time></trkpt><trkpt lat="44.2221346591" lon="14.8360393569"><ele>-1.30</ele><time>2011-10-10T18:40:08Z</time></trkpt><trkpt lat="44.2221323960" lon="14.8360413685"><ele>-1.30</ele><time>2011-10-10T18:40:36Z</time></trkpt><trkpt lat="44.2221318930" lon="14.8360448051"><ele>-1.30</ele><time>2011-10-10T18:41:13Z</time></trkpt><trkpt lat="44.2221318930" lon="14.8360448051"><ele>-1.30</ele><time>2011-10-10T18:41:49Z</time></trkpt><trkpt lat="44.2221277021" lon="14.8360431287"><ele>-1.30</ele><time>2011-10-10T18:42:20Z</time></trkpt><trkpt lat="44.2221272830" lon="14.8360424582"><ele>-1.30</ele><time>2011-10-10T18:42:53Z</time></trkpt><trkpt lat="44.2221284565" lon="14.8360401951"><ele>-0.82</ele><time>2011-10-10T18:43:25Z</time></trkpt><trkpt lat="44.2221294623" lon="14.8360388540"><ele>-0.82</ele><time>2011-10-10T18:43:56Z</time></trkpt><trkpt lat="44.2221294623" lon="14.8360388540"><ele>-0.82</ele><time>2011-10-10T18:44:17Z</time></trkpt><trkpt lat="44.2221335694" lon="14.8360355850"><ele>-0.82</ele><time>2011-10-10T18:44:43Z</time></trkpt><trkpt lat="44.2221335694" lon="14.8360355850"><ele>-0.82</ele><time>2011-10-10T18:45:10Z</time></trkpt><trkpt lat="44.2221335694" lon="14.8360351659"><ele>-0.82</ele><time>2011-10-10T18:45:42Z</time></trkpt><trkpt lat="44.2221328989" lon="14.8360361718"><ele>-0.82</ele><time>2011-10-10T18:46:18Z</time></trkpt><trkpt lat="44.2221316416" lon="14.8360385187"><ele>-1.30</ele><time>2011-10-10T18:46:53Z</time></trkpt><trkpt lat="44.2221299652" lon="14.8360380158"><ele>-0.82</ele><time>2011-10-10T18:47:27Z</time></trkpt><trkpt lat="44.2221287917" lon="14.8360370100"><ele>-0.82</ele><time>2011-10-10T18:47:56Z</time></trkpt><trkpt lat="44.2221287917" lon="14.8360370100"><ele>-0.82</ele><time>2011-10-10T18:48:30Z</time></trkpt><trkpt lat="44.2221334856" lon="14.8360319808"><ele>-0.82</ele><time>2011-10-10T18:48:55Z</time></trkpt><trkpt lat="44.2221348267" lon="14.8360318970"><ele>-0.82</ele><time>2011-10-10T18:49:17Z</time></trkpt><trkpt lat="44.2221348267" lon="14.8360318970"><ele>-0.82</ele><time>2011-10-10T18:49:51Z</time></trkpt><trkpt lat="44.2221344076" lon="14.8360333219"><ele>-0.82</ele><time>2011-10-10T18:50:23Z</time></trkpt><trkpt lat="44.2221337371" lon="14.8360330705"><ele>-0.82</ele><time>2011-10-10T18:50:55Z</time></trkpt><trkpt lat="44.2221328150" lon="14.8360323161"><ele>-0.82</ele><time>2011-10-10T18:51:28Z</time></trkpt><trkpt lat="44.2221334018" lon="14.8360329866"><ele>-0.82</ele><time>2011-10-10T18:51:59Z</time></trkpt><trkpt lat="44.2221334018" lon="14.8360329866"><ele>-0.82</ele><time>2011-10-10T18:52:31Z</time></trkpt><trkpt lat="44.2221349105" lon="14.8360340763"><ele>-0.82</ele><time>2011-10-10T18:52:59Z</time></trkpt><trkpt lat="44.2221337371" lon="14.8360361718"><ele>-0.82</ele><time>2011-10-10T18:53:33Z</time></trkpt><trkpt lat="44.2221327312" lon="14.8360348307"><ele>-0.82</ele><time>2011-10-10T18:54:07Z</time></trkpt><trkpt lat="44.2221336532" lon="14.8360339087"><ele>-0.34</ele><time>2011-10-10T18:54:38Z</time></trkpt><trkpt lat="44.2221336532" lon="14.8360339087"><ele>-0.34</ele><time>2011-10-10T18:55:07Z</time></trkpt><trkpt lat="44.2221358325" lon="14.8360333219"><ele>-0.34</ele><time>2011-10-10T18:55:33Z</time></trkpt><trkpt lat="44.2221391015" lon="14.8360303883"><ele>-0.34</ele><time>2011-10-10T18:56:02Z</time></trkpt><trkpt lat="44.2221388500" lon="14.8360313103"><ele>-0.34</ele><time>2011-10-10T18:56:36Z</time></trkpt><trkpt lat="44.2221388500" lon="14.8360313103"><ele>-0.34</ele><time>2011-10-10T18:57:06Z</time></trkpt><trkpt lat="44.2221382633" lon="14.8360327352"><ele>-0.34</ele><time>2011-10-10T18:57:39Z</time></trkpt><trkpt lat="44.2221350782" lon="14.8360314779"><ele>-0.34</ele><time>2011-10-10T18:58:09Z</time></trkpt><trkpt lat="44.2221356649" lon="14.8360314779"><ele>-0.34</ele><time>2011-10-10T18:58:45Z</time></trkpt><trkpt lat="44.2221365031" lon="14.8360303044"><ele>0.14</ele><time>2011-10-10T18:59:19Z</time></trkpt><trkpt lat="44.2221401911" lon="14.8360317294"><ele>-0.34</ele><time>2011-10-10T18:59:53Z</time></trkpt><trkpt lat="44.2221401911" lon="14.8360317294"><ele>-0.34</ele><time>2011-10-10T19:00:24Z</time></trkpt><trkpt lat="44.2221400235" lon="14.8360319808"><ele>0.14</ele><time>2011-10-10T19:00:58Z</time></trkpt><trkpt lat="44.2221413646" lon="14.8360336572"><ele>0.14</ele><time>2011-10-10T19:01:35Z</time></trkpt><trkpt lat="44.2221429572" lon="14.8360356688"><ele>0.14</ele><time>2011-10-10T19:02:05Z</time></trkpt><trkpt lat="44.2221446335" lon="14.8360395245"><ele>0.14</ele><time>2011-10-10T19:02:35Z</time></trkpt><trkpt lat="44.2221446335" lon="14.8360395245"><ele>0.14</ele><time>2011-10-10T19:03:01Z</time></trkpt><trkpt lat="44.2221436277" lon="14.8360425420"><ele>0.14</ele><time>2011-10-10T19:03:31Z</time></trkpt><trkpt lat="44.2221429572" lon="14.8360448051"><ele>0.62</ele><time>2011-10-10T19:04:00Z</time></trkpt><trkpt lat="44.2221429572" lon="14.8360448051"><ele>0.62</ele><time>2011-10-10T19:04:29Z</time></trkpt><trkpt lat="44.2221426219" lon="14.8360432964"><ele>0.14</ele><time>2011-10-10T19:05:03Z</time></trkpt><trkpt lat="44.2221441306" lon="14.8360427096"><ele>0.14</ele><time>2011-10-10T19:05:37Z</time></trkpt><trkpt lat="44.2221473996" lon="14.8360397760"><ele>0.62</ele><time>2011-10-10T19:06:08Z</time></trkpt><trkpt lat="44.2221500818" lon="14.8360335734"><ele>0.14</ele><time>2011-10-10T19:06:40Z</time></trkpt><trkpt lat="44.2221500818" lon="14.8360335734"><ele>0.14</ele><time>2011-10-10T19:07:07Z</time></trkpt><trkpt lat="44.2221485730" lon="14.8360318132"><ele>0.14</ele><time>2011-10-10T19:07:45Z</time></trkpt><trkpt lat="44.2221483216" lon="14.8360274546"><ele>0.62</ele><time>2011-10-10T19:08:17Z</time></trkpt><trkpt lat="44.2221485730" lon="14.8360215873"><ele>0.62</ele><time>2011-10-10T19:08:48Z</time></trkpt><trkpt lat="44.2221485730" lon="14.8360213358"><ele>0.62</ele><time>2011-10-10T19:09:19Z</time></trkpt><trkpt lat="44.2221485730" lon="14.8360213358"><ele>0.62</ele><time>2011-10-10T19:09:48Z</time></trkpt><trkpt lat="44.2221487407" lon="14.8360216711"><ele>0.62</ele><time>2011-10-10T19:10:19Z</time></trkpt><trkpt lat="44.2221484892" lon="14.8360212520"><ele>0.14</ele><time>2011-10-10T19:10:54Z</time></trkpt><trkpt lat="44.2221481539" lon="14.8360225093"><ele>0.14</ele><time>2011-10-10T19:11:28Z</time></trkpt><trkpt lat="44.2221470643" lon="14.8360244371"><ele>0.62</ele><time>2011-10-10T19:12:05Z</time></trkpt><trkpt lat="44.2221471481" lon="14.8360254429"><ele>0.62</ele><time>2011-10-10T19:12:41Z</time></trkpt><trkpt lat="44.2221469805" lon="14.8360235989"><ele>0.14</ele><time>2011-10-10T19:13:17Z</time></trkpt><trkpt lat="44.2221469805" lon="14.8360235989"><ele>0.14</ele><time>2011-10-10T19:13:49Z</time></trkpt><trkpt lat="44.2221470643" lon="14.8360230960"><ele>0.62</ele><time>2011-10-10T19:14:26Z</time></trkpt><trkpt lat="44.2221475672" lon="14.8360237665"><ele>0.14</ele><time>2011-10-10T19:15:00Z</time></trkpt><trkpt lat="44.2221468966" lon="14.8360243533"><ele>0.62</ele><time>2011-10-10T19:15:28Z</time></trkpt><trkpt lat="44.2221468128" lon="14.8360235151"><ele>0.62</ele><time>2011-10-10T19:15:59Z</time></trkpt><trkpt lat="44.2221468128" lon="14.8360235151"><ele>0.62</ele><time>2011-10-10T19:16:24Z</time></trkpt><trkpt lat="44.2221465614" lon="14.8360232636"><ele>0.14</ele><time>2011-10-10T19:17:00Z</time></trkpt><trkpt lat="44.2221456394" lon="14.8360236827"><ele>0.14</ele><time>2011-10-10T19:17:34Z</time></trkpt><trkpt lat="44.2221451364" lon="14.8360241856"><ele>0.14</ele><time>2011-10-10T19:18:10Z</time></trkpt><trkpt lat="44.2221431248" lon="14.8360231798"><ele>0.14</ele><time>2011-10-10T19:18:45Z</time></trkpt><trkpt lat="44.2221418675" lon="14.8360192403"><ele>0.14</ele><time>2011-10-10T19:19:23Z</time></trkpt><trkpt lat="44.2221422866" lon="14.8360166419"><ele>-0.34</ele><time>2011-10-10T19:19:58Z</time></trkpt><trkpt lat="44.2221422866" lon="14.8360166419"><ele>-0.34</ele><time>2011-10-10T19:20:31Z</time></trkpt><trkpt lat="44.2221427057" lon="14.8360158876"><ele>0.14</ele><time>2011-10-10T19:21:08Z</time></trkpt><trkpt lat="44.2221424542" lon="14.8360145465"><ele>0.14</ele><time>2011-10-10T19:21:37Z</time></trkpt><trkpt lat="44.2221415322" lon="14.8360137921"><ele>0.14</ele><time>2011-10-10T19:22:10Z</time></trkpt><trkpt lat="44.2221395206" lon="14.8360127863"><ele>-0.34</ele><time>2011-10-10T19:22:47Z</time></trkpt><trkpt lat="44.2221391853" lon="14.8360149655"><ele>-0.34</ele><time>2011-10-10T19:23:23Z</time></trkpt><trkpt lat="44.2221380956" lon="14.8360148817"><ele>-0.34</ele><time>2011-10-10T19:24:00Z</time></trkpt><trkpt lat="44.2221358325" lon="14.8360146303"><ele>-0.34</ele><time>2011-10-10T19:24:35Z</time></trkpt><trkpt lat="44.2221337371" lon="14.8360138759"><ele>-0.34</ele><time>2011-10-10T19:25:13Z</time></trkpt><trkpt lat="44.2221337371" lon="14.8360138759"><ele>-0.34</ele><time>2011-10-10T19:25:50Z</time></trkpt><trkpt lat="44.2221315578" lon="14.8360139597"><ele>0.14</ele><time>2011-10-10T19:26:25Z</time></trkpt><trkpt lat="44.2221329827" lon="14.8360119481"><ele>0.14</ele><time>2011-10-10T19:26:58Z</time></trkpt><trkpt lat="44.2221313063" lon="14.8360119481"><ele>0.14</ele><time>2011-10-10T19:27:28Z</time></trkpt><trkpt lat="44.2221315578" lon="14.8360137921"><ele>0.14</ele><time>2011-10-10T19:28:02Z</time></trkpt><trkpt lat="44.2221318930" lon="14.8360144626"><ele>0.14</ele><time>2011-10-10T19:28:36Z</time></trkpt><trkpt lat="44.2221318930" lon="14.8360144626"><ele>0.14</ele><time>2011-10-10T19:29:08Z</time></trkpt><trkpt lat="44.2221328150" lon="14.8360153846"><ele>0.14</ele><time>2011-10-10T19:29:35Z</time></trkpt><trkpt lat="44.2221328150" lon="14.8360168934"><ele>0.14</ele><time>2011-10-10T19:30:16Z</time></trkpt><trkpt lat="44.2221326474" lon="14.8360163905"><ele>0.14</ele><time>2011-10-10T19:30:51Z</time></trkpt><trkpt lat="44.2221318930" lon="14.8360159714"><ele>0.14</ele><time>2011-10-10T19:31:27Z</time></trkpt><trkpt lat="44.2221313901" lon="14.8360153846"><ele>0.14</ele><time>2011-10-10T19:31:56Z</time></trkpt><trkpt lat="44.2221305519" lon="14.8360159714"><ele>0.14</ele><time>2011-10-10T19:32:36Z</time></trkpt><trkpt lat="44.2221305519" lon="14.8360159714"><ele>0.14</ele><time>2011-10-10T19:33:10Z</time></trkpt><trkpt lat="44.2221318092" lon="14.8360148817"><ele>0.14</ele><time>2011-10-10T19:33:40Z</time></trkpt><trkpt lat="44.2221327312" lon="14.8360176478"><ele>0.14</ele><time>2011-10-10T19:34:16Z</time></trkpt><trkpt lat="44.2221334856" lon="14.8360219225"><ele>0.14</ele><time>2011-10-10T19:34:54Z</time></trkpt><trkpt lat="44.2221307196" lon="14.8360225931"><ele>0.14</ele><time>2011-10-10T19:35:27Z</time></trkpt><trkpt lat="44.2221307196" lon="14.8360220063"><ele>0.14</ele><time>2011-10-10T19:36:09Z</time></trkpt><trkpt lat="44.2221321445" lon="14.8360187374"><ele>0.14</ele><time>2011-10-10T19:36:38Z</time></trkpt><trkpt lat="44.2221321445" lon="14.8360187374"><ele>0.14</ele><time>2011-10-10T19:37:10Z</time></trkpt><trkpt lat="44.2221317254" lon="14.8360172287"><ele>0.14</ele><time>2011-10-10T19:37:45Z</time></trkpt><trkpt lat="44.2221325636" lon="14.8360181507"><ele>0.14</ele><time>2011-10-10T19:38:23Z</time></trkpt><trkpt lat="44.2221327312" lon="14.8360173963"><ele>0.14</ele><time>2011-10-10T19:38:59Z</time></trkpt><trkpt lat="44.2221309710" lon="14.8360169772"><ele>0.14</ele><time>2011-10-10T19:39:32Z</time></trkpt><trkpt lat="44.2221291270" lon="14.8360170610"><ele>0.14</ele><time>2011-10-10T19:40:04Z</time></trkpt><trkpt lat="44.2221286241" lon="14.8360148817"><ele>0.14</ele><time>2011-10-10T19:40:39Z</time></trkpt><trkpt lat="44.2221286241" lon="14.8360148817"><ele>0.14</ele><time>2011-10-10T19:41:10Z</time></trkpt><trkpt lat="44.2221301328" lon="14.8360121995"><ele>0.14</ele><time>2011-10-10T19:41:42Z</time></trkpt><trkpt lat="44.2221303005" lon="14.8360113613"><ele>0.14</ele><time>2011-10-10T19:42:13Z</time></trkpt><trkpt lat="44.2221302167" lon="14.8360117804"><ele>0.14</ele><time>2011-10-10T19:42:44Z</time></trkpt><trkpt lat="44.2221308034" lon="14.8360141274"><ele>0.14</ele><time>2011-10-10T19:43:17Z</time></trkpt><trkpt lat="44.2221308034" lon="14.8360141274"><ele>0.14</ele><time>2011-10-10T19:43:46Z</time></trkpt><trkpt lat="44.2221307196" lon="14.8360153008"><ele>0.14</ele><time>2011-10-10T19:44:19Z</time></trkpt><trkpt lat="44.2221332341" lon="14.8360168934"><ele>0.14</ele><time>2011-10-10T19:44:45Z</time></trkpt><trkpt lat="44.2221365031" lon="14.8360206652"><ele>0.14</ele><time>2011-10-10T19:45:16Z</time></trkpt><trkpt lat="44.2221365031" lon="14.8360206652"><ele>0.14</ele><time>2011-10-10T19:45:43Z</time></trkpt><trkpt lat="44.2221356649" lon="14.8360210005"><ele>0.14</ele><time>2011-10-10T19:46:14Z</time></trkpt><trkpt lat="44.2221365031" lon="14.8360214196"><ele>-0.34</ele><time>2011-10-10T19:46:42Z</time></trkpt><trkpt lat="44.2221365031" lon="14.8360214196"><ele>-0.34</ele><time>2011-10-10T19:47:09Z</time></trkpt><trkpt lat="44.2221360002" lon="14.8360224254"><ele>-0.34</ele><time>2011-10-10T19:47:38Z</time></trkpt><trkpt lat="44.2221368384" lon="14.8360197432"><ele>-0.82</ele><time>2011-10-10T19:48:05Z</time></trkpt><trkpt lat="44.2221367545" lon="14.8360199947"><ele>-1.30</ele><time>2011-10-10T19:48:32Z</time></trkpt><trkpt lat="44.2221367545" lon="14.8360199947"><ele>-1.30</ele><time>2011-10-10T19:49:04Z</time></trkpt><trkpt lat="44.2221376766" lon="14.8360140435"><ele>-1.30</ele><time>2011-10-10T19:49:34Z</time></trkpt><trkpt lat="44.2221370060" lon="14.8360132053"><ele>-1.30</ele><time>2011-10-10T19:50:08Z</time></trkpt><trkpt lat="44.2221390177" lon="14.8360073380"><ele>-1.30</ele><time>2011-10-10T19:50:38Z</time></trkpt><trkpt lat="44.2221391853" lon="14.8360042367"><ele>-1.30</ele><time>2011-10-10T19:51:14Z</time></trkpt><trkpt lat="44.2221391853" lon="14.8360042367"><ele>-1.30</ele><time>2011-10-10T19:51:45Z</time></trkpt><trkpt lat="44.2221380956" lon="14.8360020574"><ele>-1.79</ele><time>2011-10-10T19:52:15Z</time></trkpt><trkpt lat="44.2221381795" lon="14.8360020574"><ele>-1.79</ele><time>2011-10-10T19:52:46Z</time></trkpt><trkpt lat="44.2221368384" lon="14.8360033985"><ele>-1.79</ele><time>2011-10-10T19:53:21Z</time></trkpt><trkpt lat="44.2221368384" lon="14.8360048234"><ele>-1.79</ele><time>2011-10-10T19:53:54Z</time></trkpt><trkpt lat="44.2221368384" lon="14.8360048234"><ele>-1.79</ele><time>2011-10-10T19:54:26Z</time></trkpt><trkpt lat="44.2221373413" lon="14.8359976988"><ele>-2.27</ele><time>2011-10-10T19:55:00Z</time></trkpt><trkpt lat="44.2221371736" lon="14.8359951004"><ele>-2.27</ele><time>2011-10-10T19:55:38Z</time></trkpt><trkpt lat="44.2221371736" lon="14.8359951004"><ele>-2.27</ele><time>2011-10-10T19:56:14Z</time></trkpt><trkpt lat="44.2221366707" lon="14.8359937593"><ele>-2.27</ele><time>2011-10-10T19:56:52Z</time></trkpt><trkpt lat="44.2221368384" lon="14.8359936755"><ele>-2.75</ele><time>2011-10-10T19:57:25Z</time></trkpt><trkpt lat="44.2221366707" lon="14.8359948490"><ele>-2.27</ele><time>2011-10-10T19:57:53Z</time></trkpt><trkpt lat="44.2221366707" lon="14.8359948490"><ele>-2.27</ele><time>2011-10-10T19:58:28Z</time></trkpt><trkpt lat="44.2221371736" lon="14.8359962739"><ele>-2.75</ele><time>2011-10-10T19:58:59Z</time></trkpt><trkpt lat="44.2221371736" lon="14.8359971121"><ele>-2.27</ele><time>2011-10-10T19:59:31Z</time></trkpt><trkpt lat="44.2221380956" lon="14.8359984532"><ele>-2.75</ele><time>2011-10-10T20:00:03Z</time></trkpt><trkpt lat="44.2221381795" lon="14.8359996267"><ele>-2.75</ele><time>2011-10-10T20:00:34Z</time></trkpt><trkpt lat="44.2221381795" lon="14.8359996267"><ele>-2.75</ele><time>2011-10-10T20:01:11Z</time></trkpt><trkpt lat="44.2221392691" lon="14.8360008840"><ele>-2.75</ele><time>2011-10-10T20:01:54Z</time></trkpt><trkpt lat="44.2221392691" lon="14.8360008840"><ele>-2.75</ele><time>2011-10-10T20:02:31Z</time></trkpt><trkpt lat="44.2221400235" lon="14.8360008001"><ele>-2.75</ele><time>2011-10-10T20:03:08Z</time></trkpt><trkpt lat="44.2221404426" lon="14.8360009678"><ele>-2.75</ele><time>2011-10-10T20:03:43Z</time></trkpt><trkpt lat="44.2221403588" lon="14.8360001296"><ele>-2.75</ele><time>2011-10-10T20:04:18Z</time></trkpt><trkpt lat="44.2221401911" lon="14.8360009678"><ele>-2.75</ele><time>2011-10-10T20:04:49Z</time></trkpt><trkpt lat="44.2221401911" lon="14.8360021412"><ele>-2.75</ele><time>2011-10-10T20:05:29Z</time></trkpt><trkpt lat="44.2221399397" lon="14.8360039853"><ele>-2.75</ele><time>2011-10-10T20:06:04Z</time></trkpt><trkpt lat="44.2221411131" lon="14.8360052425"><ele>-2.75</ele><time>2011-10-10T20:06:40Z</time></trkpt><trkpt lat="44.2221411131" lon="14.8360052425"><ele>-2.75</ele><time>2011-10-10T20:07:11Z</time></trkpt><trkpt lat="44.2221438792" lon="14.8360080086"><ele>-2.75</ele><time>2011-10-10T20:07:41Z</time></trkpt><trkpt lat="44.2221441306" lon="14.8360090144"><ele>-2.75</ele><time>2011-10-10T20:08:08Z</time></trkpt><trkpt lat="44.2221441306" lon="14.8360101040"><ele>-2.75</ele><time>2011-10-10T20:08:34Z</time></trkpt><trkpt lat="44.2221441306" lon="14.8360101040"><ele>-2.75</ele><time>2011-10-10T20:09:03Z</time></trkpt><trkpt lat="44.2221454717" lon="14.8360118642"><ele>-2.75</ele><time>2011-10-10T20:09:45Z</time></trkpt><trkpt lat="44.2221463937" lon="14.8360141274"><ele>-2.75</ele><time>2011-10-10T20:10:21Z</time></trkpt><trkpt lat="44.2221445497" lon="14.8360481579"><ele>-3.71</ele><time>2011-10-10T20:10:48Z</time></trkpt><trkpt lat="44.2221446335" lon="14.8360489961"><ele>-3.71</ele><time>2011-10-10T20:11:21Z</time></trkpt><trkpt lat="44.2221439630" lon="14.8360529356"><ele>-3.71</ele><time>2011-10-10T20:12:01Z</time></trkpt><trkpt lat="44.2221467290" lon="14.8360577971"><ele>-3.71</ele><time>2011-10-10T20:12:37Z</time></trkpt><trkpt lat="44.2221467290" lon="14.8360577971"><ele>-3.71</ele><time>2011-10-10T20:13:09Z</time></trkpt><trkpt lat="44.2221482377" lon="14.8360582162"><ele>-3.71</ele><time>2011-10-10T20:13:41Z</time></trkpt><trkpt lat="44.2221483216" lon="14.8360600602"><ele>-3.71</ele><time>2011-10-10T20:14:18Z</time></trkpt><trkpt lat="44.2221499979" lon="14.8360608984"><ele>-3.23</ele><time>2011-10-10T20:14:55Z</time></trkpt><trkpt lat="44.2221507523" lon="14.8360608984"><ele>-3.71</ele><time>2011-10-10T20:15:35Z</time></trkpt><trkpt lat="44.2221518420" lon="14.8360603955"><ele>-3.23</ele><time>2011-10-10T20:16:08Z</time></trkpt><trkpt lat="44.2221521772" lon="14.8360605631"><ele>-3.23</ele><time>2011-10-10T20:16:51Z</time></trkpt><trkpt lat="44.2221535183" lon="14.8360606469"><ele>-3.23</ele><time>2011-10-10T20:17:26Z</time></trkpt><trkpt lat="44.2221545242" lon="14.8360579647"><ele>-3.23</ele><time>2011-10-10T20:18:04Z</time></trkpt><trkpt lat="44.2221552785" lon="14.8360573780"><ele>-3.71</ele><time>2011-10-10T20:18:34Z</time></trkpt><trkpt lat="44.2221564520" lon="14.8360567912"><ele>-3.23</ele><time>2011-10-10T20:19:13Z</time></trkpt><trkpt lat="44.2221572064" lon="14.8360547796"><ele>-3.23</ele><time>2011-10-10T20:19:51Z</time></trkpt><trkpt lat="44.2221572064" lon="14.8360547796"><ele>-3.23</ele><time>2011-10-10T20:20:22Z</time></trkpt><trkpt lat="44.2221581284" lon="14.8360545281"><ele>-3.71</ele><time>2011-10-10T20:20:58Z</time></trkpt><trkpt lat="44.2221587989" lon="14.8360539414"><ele>-3.71</ele><time>2011-10-10T20:21:37Z</time></trkpt><trkpt lat="44.2221608944" lon="14.8360531870"><ele>-4.19</ele><time>2011-10-10T20:22:12Z</time></trkpt><trkpt lat="44.2221613135" lon="14.8360535223"><ele>-4.19</ele><time>2011-10-10T20:22:47Z</time></trkpt><trkpt lat="44.2221613973" lon="14.8360559531"><ele>-4.19</ele><time>2011-10-10T20:23:21Z</time></trkpt><trkpt lat="44.2221635766" lon="14.8360550310"><ele>-4.19</ele><time>2011-10-10T20:23:56Z</time></trkpt><trkpt lat="44.2221594695" lon="14.8360544443"><ele>-3.71</ele><time>2011-10-10T20:24:29Z</time></trkpt><trkpt lat="44.2221594695" lon="14.8360544443"><ele>-3.71</ele><time>2011-10-10T20:25:04Z</time></trkpt><trkpt lat="44.2221596371" lon="14.8360542767"><ele>-3.71</ele><time>2011-10-10T20:25:41Z</time></trkpt><trkpt lat="44.2221593019" lon="14.8360564560"><ele>-3.71</ele><time>2011-10-10T20:26:16Z</time></trkpt><trkpt lat="44.2221579608" lon="14.8360553663"><ele>-4.19</ele><time>2011-10-10T20:26:49Z</time></trkpt><trkpt lat="44.2221571226" lon="14.8360546958"><ele>-4.19</ele><time>2011-10-10T20:27:20Z</time></trkpt><trkpt lat="44.2221589666" lon="14.8360547796"><ele>-4.67</ele><time>2011-10-10T20:27:53Z</time></trkpt><trkpt lat="44.2221589666" lon="14.8360547796"><ele>-4.67</ele><time>2011-10-10T20:28:25Z</time></trkpt><trkpt lat="44.2221589666" lon="14.8360536061"><ele>-4.67</ele><time>2011-10-10T20:28:57Z</time></trkpt><trkpt lat="44.2221567035" lon="14.8360492475"><ele>-4.67</ele><time>2011-10-10T20:29:30Z</time></trkpt><trkpt lat="44.2221543565" lon="14.8360424582"><ele>-5.15</ele><time>2011-10-10T20:30:03Z</time></trkpt><trkpt lat="44.2221489921" lon="14.8360350821"><ele>-5.15</ele><time>2011-10-10T20:30:39Z</time></trkpt><trkpt lat="44.2221485730" lon="14.8360334896"><ele>-5.15</ele><time>2011-10-10T20:31:15Z</time></trkpt><trkpt lat="44.2221479025" lon="14.8360313103"><ele>-5.15</ele><time>2011-10-10T20:31:51Z</time></trkpt><trkpt lat="44.2221460585" lon="14.8360334896"><ele>-5.15</ele><time>2011-10-10T20:32:30Z</time></trkpt><trkpt lat="44.2221460585" lon="14.8360334896"><ele>-5.15</ele><time>2011-10-10T20:33:01Z</time></trkpt><trkpt lat="44.2221448850" lon="14.8360349983"><ele>-5.15</ele><time>2011-10-10T20:33:31Z</time></trkpt><trkpt lat="44.2221439630" lon="14.8360348307"><ele>-5.63</ele><time>2011-10-10T20:34:08Z</time></trkpt><trkpt lat="44.2221438792" lon="14.8360362556"><ele>-5.63</ele><time>2011-10-10T20:34:45Z</time></trkpt><trkpt lat="44.2221476510" lon="14.8360370100"><ele>-5.63</ele><time>2011-10-10T20:35:21Z</time></trkpt><trkpt lat="44.2221477348" lon="14.8360345792"><ele>-5.63</ele><time>2011-10-10T20:35:56Z</time></trkpt><trkpt lat="44.2221472319" lon="14.8360335734"><ele>-5.63</ele><time>2011-10-10T20:36:34Z</time></trkpt><trkpt lat="44.2221472319" lon="14.8360335734"><ele>-5.63</ele><time>2011-10-10T20:37:05Z</time></trkpt><trkpt lat="44.2221467290" lon="14.8360327352"><ele>-5.63</ele><time>2011-10-10T20:37:40Z</time></trkpt><trkpt lat="44.2221451364" lon="14.8360297177"><ele>-5.63</ele><time>2011-10-10T20:38:12Z</time></trkpt><trkpt lat="44.2221460585" lon="14.8360284604"><ele>-5.63</ele><time>2011-10-10T20:38:50Z</time></trkpt><trkpt lat="44.2221456394" lon="14.8360271193"><ele>-6.11</ele><time>2011-10-10T20:39:29Z</time></trkpt><trkpt lat="44.2221471481" lon="14.8360260297"><ele>-6.11</ele><time>2011-10-10T20:40:06Z</time></trkpt><trkpt lat="44.2221465614" lon="14.8360256106"><ele>-6.11</ele><time>2011-10-10T20:40:36Z</time></trkpt><trkpt lat="44.2221441306" lon="14.8360313103"><ele>-6.11</ele><time>2011-10-10T20:41:11Z</time></trkpt><trkpt lat="44.2221441306" lon="14.8360313103"><ele>-6.11</ele><time>2011-10-10T20:41:42Z</time></trkpt><trkpt lat="44.2221427895" lon="14.8360330705"><ele>-6.11</ele><time>2011-10-10T20:42:15Z</time></trkpt><trkpt lat="44.2221423704" lon="14.8360314779"><ele>-6.11</ele><time>2011-10-10T20:42:50Z</time></trkpt><trkpt lat="44.2221435439" lon="14.8360312264"><ele>-6.11</ele><time>2011-10-10T20:43:20Z</time></trkpt><trkpt lat="44.2221441306" lon="14.8360303044"><ele>-6.11</ele><time>2011-10-10T20:43:50Z</time></trkpt><trkpt lat="44.2221441306" lon="14.8360303044"><ele>-6.11</ele><time>2011-10-10T20:44:24Z</time></trkpt><trkpt lat="44.2221417837" lon="14.8360308912"><ele>-6.11</ele><time>2011-10-10T20:44:58Z</time></trkpt><trkpt lat="44.2221392691" lon="14.8360260297"><ele>-6.11</ele><time>2011-10-10T20:45:37Z</time></trkpt><trkpt lat="44.2221376766" lon="14.8360267002"><ele>-6.11</ele><time>2011-10-10T20:46:08Z</time></trkpt><trkpt lat="44.2221365869" lon="14.8360237665"><ele>-6.11</ele><time>2011-10-10T20:46:45Z</time></trkpt><trkpt lat="44.2221370060" lon="14.8360235151"><ele>-6.11</ele><time>2011-10-10T20:47:21Z</time></trkpt><trkpt lat="44.2221368384" lon="14.8360236827"><ele>-6.11</ele><time>2011-10-10T20:47:55Z</time></trkpt><trkpt lat="44.2221380118" lon="14.8360249400"><ele>-6.59</ele><time>2011-10-10T20:48:30Z</time></trkpt><trkpt lat="44.2221380118" lon="14.8360249400"><ele>-6.59</ele><time>2011-10-10T20:49:03Z</time></trkpt><trkpt lat="44.2221405264" lon="14.8360267840"><ele>-6.59</ele><time>2011-10-10T20:49:35Z</time></trkpt><trkpt lat="44.2221407779" lon="14.8360272869"><ele>-6.59</ele><time>2011-10-10T20:50:04Z</time></trkpt><trkpt lat="44.2221386824" lon="14.8360278737"><ele>-7.07</ele><time>2011-10-10T20:50:43Z</time></trkpt><trkpt lat="44.2221349943" lon="14.8360256106"><ele>-7.07</ele><time>2011-10-10T20:51:17Z</time></trkpt><trkpt lat="44.2221325636" lon="14.8360250238"><ele>-7.07</ele><time>2011-10-10T20:51:52Z</time></trkpt><trkpt lat="44.2221331503" lon="14.8360240180"><ele>-7.55</ele><time>2011-10-10T20:52:29Z</time></trkpt><trkpt lat="44.2221331503" lon="14.8360240180"><ele>-7.55</ele><time>2011-10-10T20:53:05Z</time></trkpt><trkpt lat="44.2221335694" lon="14.8360298853"><ele>-7.07</ele><time>2011-10-10T20:53:42Z</time></trkpt><trkpt lat="44.2221365031" lon="14.8360289633"><ele>-7.07</ele><time>2011-10-10T20:54:16Z</time></trkpt><trkpt lat="44.2221385147" lon="14.8360254429"><ele>-7.07</ele><time>2011-10-10T20:54:49Z</time></trkpt><trkpt lat="44.2221394368" lon="14.8360246886"><ele>-7.07</ele><time>2011-10-10T20:55:21Z</time></trkpt><trkpt lat="44.2221446335" lon="14.8360314779"><ele>-7.07</ele><time>2011-10-10T20:55:46Z</time></trkpt><trkpt lat="44.2221450526" lon="14.8360334057"><ele>-7.07</ele><time>2011-10-10T20:56:20Z</time></trkpt><trkpt lat="44.2221442144" lon="14.8360366747"><ele>-7.07</ele><time>2011-10-10T20:56:54Z</time></trkpt><trkpt lat="44.2221442144" lon="14.8360366747"><ele>-7.07</ele><time>2011-10-10T20:57:28Z</time></trkpt><trkpt lat="44.2221453879" lon="14.8360380158"><ele>-7.07</ele><time>2011-10-10T20:58:00Z</time></trkpt><trkpt lat="44.2221582960" lon="14.8360503372"><ele>-7.07</ele><time>2011-10-10T20:58:26Z</time></trkpt><trkpt lat="44.2221572902" lon="14.8360532708"><ele>-7.55</ele><time>2011-10-10T20:58:57Z</time></trkpt><trkpt lat="44.2221572902" lon="14.8360532708"><ele>-7.55</ele><time>2011-10-10T20:59:27Z</time></trkpt><trkpt lat="44.2221577093" lon="14.8360556178"><ele>-7.55</ele><time>2011-10-10T21:00:00Z</time></trkpt><trkpt lat="44.2221581284" lon="14.8360577971"><ele>-7.55</ele><time>2011-10-10T21:00:34Z</time></trkpt><trkpt lat="44.2221593019" lon="14.8360593058"><ele>-7.55</ele><time>2011-10-10T21:01:05Z</time></trkpt><trkpt lat="44.2221576255" lon="14.8360614013"><ele>-8.03</ele><time>2011-10-10T21:01:39Z</time></trkpt><trkpt lat="44.2221576255" lon="14.8360614013"><ele>-8.03</ele><time>2011-10-10T21:02:10Z</time></trkpt><trkpt lat="44.2221599724" lon="14.8360619880"><ele>-7.55</ele><time>2011-10-10T21:02:51Z</time></trkpt><trkpt lat="44.2221655883" lon="14.8360637482"><ele>-7.07</ele><time>2011-10-10T21:03:35Z</time></trkpt><trkpt lat="44.2221668456" lon="14.8360635806"><ele>-7.07</ele><time>2011-10-10T21:04:09Z</time></trkpt><trkpt lat="44.2221686058" lon="14.8360610660"><ele>-6.59</ele><time>2011-10-10T21:04:43Z</time></trkpt><trkpt lat="44.2221686058" lon="14.8360602278"><ele>-6.59</ele><time>2011-10-10T21:05:19Z</time></trkpt><trkpt lat="44.2221688572" lon="14.8360587191"><ele>-6.59</ele><time>2011-10-10T21:05:52Z</time></trkpt><trkpt lat="44.2221689411" lon="14.8360572942"><ele>-6.59</ele><time>2011-10-10T21:06:20Z</time></trkpt><trkpt lat="44.2221689411" lon="14.8360572942"><ele>-6.59</ele><time>2011-10-10T21:06:47Z</time></trkpt><trkpt lat="44.2221649177" lon="14.8360575456"><ele>-6.59</ele><time>2011-10-10T21:07:15Z</time></trkpt><trkpt lat="44.2221619003" lon="14.8360518459"><ele>-6.59</ele><time>2011-10-10T21:07:44Z</time></trkpt><trkpt lat="44.2221619003" lon="14.8360518459"><ele>-6.59</ele><time>2011-10-10T21:08:13Z</time></trkpt><trkpt lat="44.2221604753" lon="14.8360562045"><ele>-6.59</ele><time>2011-10-10T21:08:41Z</time></trkpt><trkpt lat="44.2221659236" lon="14.8360566236"><ele>-6.11</ele><time>2011-10-10T21:09:15Z</time></trkpt><trkpt lat="44.2221655883" lon="14.8360552825"><ele>-6.11</ele><time>2011-10-10T21:09:49Z</time></trkpt><trkpt lat="44.2221656721" lon="14.8360556178"><ele>-5.63</ele><time>2011-10-10T21:10:19Z</time></trkpt><trkpt lat="44.2221656721" lon="14.8360556178"><ele>-5.63</ele><time>2011-10-10T21:10:54Z</time></trkpt><trkpt lat="44.2221669294" lon="14.8360510077"><ele>-5.63</ele><time>2011-10-10T21:11:32Z</time></trkpt><trkpt lat="44.2221644148" lon="14.8360470682"><ele>-5.15</ele><time>2011-10-10T21:12:00Z</time></trkpt><trkpt lat="44.2221642472" lon="14.8360445537"><ele>-5.15</ele><time>2011-10-10T21:12:30Z</time></trkpt><trkpt lat="44.2221666779" lon="14.8360394407"><ele>-4.67</ele><time>2011-10-10T21:13:08Z</time></trkpt><trkpt lat="44.2221676838" lon="14.8360355012"><ele>-4.67</ele><time>2011-10-10T21:13:45Z</time></trkpt><trkpt lat="44.2221663427" lon="14.8360329028"><ele>-4.19</ele><time>2011-10-10T21:14:19Z</time></trkpt><trkpt lat="44.2221663427" lon="14.8360329028"><ele>-4.19</ele><time>2011-10-10T21:14:53Z</time></trkpt><trkpt lat="44.2221648339" lon="14.8360325675"><ele>-4.19</ele><time>2011-10-10T21:15:21Z</time></trkpt><trkpt lat="44.2221593857" lon="14.8360324837"><ele>-3.71</ele><time>2011-10-10T21:15:51Z</time></trkpt><trkpt lat="44.2221577931" lon="14.8360311426"><ele>-3.71</ele><time>2011-10-10T21:16:19Z</time></trkpt><trkpt lat="44.2221577931" lon="14.8360311426"><ele>-3.71</ele><time>2011-10-10T21:16:42Z</time></trkpt><trkpt lat="44.2221654207" lon="14.8359956872"><ele>-4.19</ele><time>2011-10-10T21:17:10Z</time></trkpt><trkpt lat="44.2221654207" lon="14.8359956872"><ele>-4.19</ele><time>2011-10-10T21:17:42Z</time></trkpt><trkpt lat="44.2221649177" lon="14.8359956872"><ele>-4.19</ele><time>2011-10-10T21:18:12Z</time></trkpt><trkpt lat="44.2221646663" lon="14.8359940946"><ele>-4.19</ele><time>2011-10-10T21:18:42Z</time></trkpt><trkpt lat="44.2221646663" lon="14.8359940108"><ele>-4.19</ele><time>2011-10-10T21:19:11Z</time></trkpt><trkpt lat="44.2221646663" lon="14.8359940108"><ele>-4.19</ele><time>2011-10-10T21:19:42Z</time></trkpt><trkpt lat="44.2221639957" lon="14.8359942622"><ele>-4.19</ele><time>2011-10-10T21:20:08Z</time></trkpt><trkpt lat="44.2221640795" lon="14.8359926697"><ele>-4.19</ele><time>2011-10-10T21:20:36Z</time></trkpt><trkpt lat="44.2221639957" lon="14.8359920830"><ele>-4.19</ele><time>2011-10-10T21:21:09Z</time></trkpt><trkpt lat="44.2221639957" lon="14.8359920830"><ele>-4.19</ele><time>2011-10-10T21:21:37Z</time></trkpt><trkpt lat="44.2221631575" lon="14.8359917477"><ele>-4.19</ele><time>2011-10-10T21:22:14Z</time></trkpt><trkpt lat="44.2221632414" lon="14.8359915800"><ele>-4.19</ele><time>2011-10-10T21:22:44Z</time></trkpt><trkpt lat="44.2221615650" lon="14.8359921668"><ele>-4.19</ele><time>2011-10-10T21:23:18Z</time></trkpt><trkpt lat="44.2221598886" lon="14.8359899037"><ele>-4.19</ele><time>2011-10-10T21:23:52Z</time></trkpt><trkpt lat="44.2221598886" lon="14.8359899037"><ele>-4.19</ele><time>2011-10-10T21:24:19Z</time></trkpt><trkpt lat="44.2221585475" lon="14.8359883111"><ele>-4.19</ele><time>2011-10-10T21:24:46Z</time></trkpt><trkpt lat="44.2221580446" lon="14.8359923344"><ele>-4.19</ele><time>2011-10-10T21:25:14Z</time></trkpt><trkpt lat="44.2221560329" lon="14.8359935917"><ele>-4.19</ele><time>2011-10-10T21:25:47Z</time></trkpt><trkpt lat="44.2221560329" lon="14.8359935917"><ele>-4.19</ele><time>2011-10-10T21:26:16Z</time></trkpt><trkpt lat="44.2221562844" lon="14.8359940946"><ele>-4.19</ele><time>2011-10-10T21:26:42Z</time></trkpt><trkpt lat="44.2221551109" lon="14.8359944299"><ele>-4.19</ele><time>2011-10-10T21:27:15Z</time></trkpt><trkpt lat="44.2221551109" lon="14.8359944299"><ele>-4.19</ele><time>2011-10-10T21:27:43Z</time></trkpt><trkpt lat="44.2221531831" lon="14.8359890655"><ele>-4.67</ele><time>2011-10-10T21:28:07Z</time></trkpt><trkpt lat="44.2221537698" lon="14.8359899037"><ele>-4.67</ele><time>2011-10-10T21:28:36Z</time></trkpt><trkpt lat="44.2221537698" lon="14.8359899037"><ele>-4.67</ele><time>2011-10-10T21:29:02Z</time></trkpt><trkpt lat="44.2221525963" lon="14.8359918315"><ele>-4.67</ele><time>2011-10-10T21:29:26Z</time></trkpt><trkpt lat="44.2221520096" lon="14.8359933402"><ele>-4.67</ele><time>2011-10-10T21:29:53Z</time></trkpt><trkpt lat="44.2221514229" lon="14.8359944299"><ele>-5.15</ele><time>2011-10-10T21:30:27Z</time></trkpt><trkpt lat="44.2221514229" lon="14.8359944299"><ele>-5.15</ele><time>2011-10-10T21:31:00Z</time></trkpt><trkpt lat="44.2221506685" lon="14.8359947652"><ele>-5.15</ele><time>2011-10-10T21:31:35Z</time></trkpt><trkpt lat="44.2221510038" lon="14.8359924182"><ele>-5.15</ele><time>2011-10-10T21:32:06Z</time></trkpt><trkpt lat="44.2221499979" lon="14.8359852098"><ele>-5.63</ele><time>2011-10-10T21:32:31Z</time></trkpt><trkpt lat="44.2221499979" lon="14.8359852098"><ele>-5.63</ele><time>2011-10-10T21:32:57Z</time></trkpt><trkpt lat="44.2221501656" lon="14.8359830305"><ele>-5.63</ele><time>2011-10-10T21:33:26Z</time></trkpt><trkpt lat="44.2221496627" lon="14.8359831143"><ele>-5.63</ele><time>2011-10-10T21:33:52Z</time></trkpt><trkpt lat="44.2221496627" lon="14.8359831143"><ele>-5.63</ele><time>2011-10-10T21:34:17Z</time></trkpt><trkpt lat="44.2221484892" lon="14.8359909933"><ele>-5.15</ele><time>2011-10-10T21:34:46Z</time></trkpt><trkpt lat="44.2221477348" lon="14.8359937593"><ele>-5.15</ele><time>2011-10-10T21:35:10Z</time></trkpt><trkpt lat="44.2221477348" lon="14.8359937593"><ele>-5.15</ele><time>2011-10-10T21:35:40Z</time></trkpt><trkpt lat="44.2221467290" lon="14.8359957710"><ele>-5.15</ele><time>2011-10-10T21:36:09Z</time></trkpt><trkpt lat="44.2221473157" lon="14.8359941784"><ele>-5.15</ele><time>2011-10-10T21:36:39Z</time></trkpt><trkpt lat="44.2221443821" lon="14.8359894846"><ele>-5.15</ele><time>2011-10-10T21:37:07Z</time></trkpt><trkpt lat="44.2221443821" lon="14.8359894846"><ele>-5.15</ele><time>2011-10-10T21:37:29Z</time></trkpt><trkpt lat="44.2221448850" lon="14.8359868024"><ele>-4.67</ele><time>2011-10-10T21:37:56Z</time></trkpt><trkpt lat="44.2221448850" lon="14.8359868024"><ele>-4.67</ele><time>2011-10-10T21:38:22Z</time></trkpt><trkpt lat="44.2221438792" lon="14.8359922506"><ele>-5.15</ele><time>2011-10-10T21:38:50Z</time></trkpt><trkpt lat="44.2221422028" lon="14.8359943461"><ele>-5.15</ele><time>2011-10-10T21:39:19Z</time></trkpt><trkpt lat="44.2221416999" lon="14.8359949328"><ele>-5.15</ele><time>2011-10-10T21:39:48Z</time></trkpt><trkpt lat="44.2221416999" lon="14.8359949328"><ele>-5.15</ele><time>2011-10-10T21:40:22Z</time></trkpt><trkpt lat="44.2221411970" lon="14.8359962739"><ele>-4.67</ele><time>2011-10-10T21:40:56Z</time></trkpt><trkpt lat="44.2221416160" lon="14.8359959386"><ele>-4.67</ele><time>2011-10-10T21:41:24Z</time></trkpt><trkpt lat="44.2221409455" lon="14.8359950166"><ele>-4.67</ele><time>2011-10-10T21:41:56Z</time></trkpt><trkpt lat="44.2221409455" lon="14.8359950166"><ele>-4.67</ele><time>2011-10-10T21:42:24Z</time></trkpt><trkpt lat="44.2221407779" lon="14.8359938432"><ele>-4.67</ele><time>2011-10-10T21:42:49Z</time></trkpt><trkpt lat="44.2221404426" lon="14.8359959386"><ele>-4.67</ele><time>2011-10-10T21:43:16Z</time></trkpt><trkpt lat="44.2221411131" lon="14.8359956034"><ele>-4.67</ele><time>2011-10-10T21:43:47Z</time></trkpt><trkpt lat="44.2221411131" lon="14.8359956034"><ele>-4.67</ele><time>2011-10-10T21:44:18Z</time></trkpt><trkpt lat="44.2221374251" lon="14.8360001296"><ele>-4.19</ele><time>2011-10-10T21:44:44Z</time></trkpt><trkpt lat="44.2221376766" lon="14.8360013030"><ele>-4.19</ele><time>2011-10-10T21:45:12Z</time></trkpt><trkpt lat="44.2221372575" lon="14.8360007163"><ele>-4.19</ele><time>2011-10-10T21:45:51Z</time></trkpt><trkpt lat="44.2221376766" lon="14.8360006325"><ele>-4.19</ele><time>2011-10-10T21:46:30Z</time></trkpt><trkpt lat="44.2221376766" lon="14.8360006325"><ele>-4.19</ele><time>2011-10-10T21:47:00Z</time></trkpt><trkpt lat="44.2221364193" lon="14.8359995428"><ele>-3.71</ele><time>2011-10-10T21:47:34Z</time></trkpt><trkpt lat="44.2221362516" lon="14.8359993752"><ele>-3.71</ele><time>2011-10-10T21:48:04Z</time></trkpt><trkpt lat="44.2221372575" lon="14.8359990399"><ele>-3.71</ele><time>2011-10-10T21:48:30Z</time></trkpt><trkpt lat="44.2221372575" lon="14.8359990399"><ele>-3.71</ele><time>2011-10-10T21:48:57Z</time></trkpt><trkpt lat="44.2221364193" lon="14.8360041529"><ele>-3.71</ele><time>2011-10-10T21:49:28Z</time></trkpt><trkpt lat="44.2221354973" lon="14.8360047396"><ele>-3.71</ele><time>2011-10-10T21:50:03Z</time></trkpt><trkpt lat="44.2221358325" lon="14.8360033985"><ele>-3.71</ele><time>2011-10-10T21:50:34Z</time></trkpt><trkpt lat="44.2221358325" lon="14.8360033985"><ele>-3.71</ele><time>2011-10-10T21:51:01Z</time></trkpt><trkpt lat="44.2221366707" lon="14.8360022251"><ele>-3.71</ele><time>2011-10-10T21:51:33Z</time></trkpt><trkpt lat="44.2221365869" lon="14.8360047396"><ele>-3.71</ele><time>2011-10-10T21:52:00Z</time></trkpt><trkpt lat="44.2221390177" lon="14.8360060807"><ele>-3.71</ele><time>2011-10-10T21:52:31Z</time></trkpt><trkpt lat="44.2221390177" lon="14.8360060807"><ele>-3.71</ele><time>2011-10-10T21:52:58Z</time></trkpt><trkpt lat="44.2221344076" lon="14.8360274546"><ele>-4.19</ele><time>2011-10-10T21:53:28Z</time></trkpt><trkpt lat="44.2221340723" lon="14.8360292148"><ele>-3.71</ele><time>2011-10-10T21:54:02Z</time></trkpt><trkpt lat="44.2221339047" lon="14.8360295501"><ele>-3.71</ele><time>2011-10-10T21:54:34Z</time></trkpt><trkpt lat="44.2221344914" lon="14.8360277899"><ele>-3.23</ele><time>2011-10-10T21:55:10Z</time></trkpt><trkpt lat="44.2221344914" lon="14.8360277899"><ele>-3.23</ele><time>2011-10-10T21:55:42Z</time></trkpt><trkpt lat="44.2221362516" lon="14.8360146303"><ele>-3.23</ele><time>2011-10-10T21:56:13Z</time></trkpt><trkpt lat="44.2221372575" lon="14.8360111937"><ele>-3.23</ele><time>2011-10-10T21:56:41Z</time></trkpt><trkpt lat="44.2221391853" lon="14.8360114451"><ele>-3.23</ele><time>2011-10-10T21:57:08Z</time></trkpt><trkpt lat="44.2221382633" lon="14.8360172287"><ele>-2.75</ele><time>2011-10-10T21:57:48Z</time></trkpt><trkpt lat="44.2221382633" lon="14.8360172287"><ele>-2.75</ele><time>2011-10-10T21:58:20Z</time></trkpt><trkpt lat="44.2221385986" lon="14.8360190727"><ele>-3.23</ele><time>2011-10-10T21:58:55Z</time></trkpt><trkpt lat="44.2221467290" lon="14.8360224254"><ele>-3.23</ele><time>2011-10-10T21:59:28Z</time></trkpt><trkpt lat="44.2221486568" lon="14.8360225931"><ele>-2.75</ele><time>2011-10-10T22:00:00Z</time></trkpt><trkpt lat="44.2221500818" lon="14.8360196594"><ele>-2.75</ele><time>2011-10-10T22:00:35Z</time></trkpt><trkpt lat="44.2221503332" lon="14.8360137083"><ele>-2.75</ele><time>2011-10-10T22:01:11Z</time></trkpt><trkpt lat="44.2221503332" lon="14.8360137083"><ele>-2.75</ele><time>2011-10-10T22:01:36Z</time></trkpt><trkpt lat="44.2221509200" lon="14.8360110261"><ele>-2.27</ele><time>2011-10-10T22:02:01Z</time></trkpt><trkpt lat="44.2221508361" lon="14.8360116128"><ele>-2.27</ele><time>2011-10-10T22:02:26Z</time></trkpt><trkpt lat="44.2221508361" lon="14.8360116128"><ele>-2.27</ele><time>2011-10-10T22:02:53Z</time></trkpt><trkpt lat="44.2221479025" lon="14.8360157199"><ele>-1.79</ele><time>2011-10-10T22:03:24Z</time></trkpt><trkpt lat="44.2221505009" lon="14.8360184859"><ele>-1.79</ele><time>2011-10-10T22:04:00Z</time></trkpt><trkpt lat="44.2221496627" lon="14.8360177316"><ele>-1.79</ele><time>2011-10-10T22:04:34Z</time></trkpt><trkpt lat="44.2221496627" lon="14.8360177316"><ele>-1.79</ele><time>2011-10-10T22:05:02Z</time></trkpt><trkpt lat="44.2221497465" lon="14.8360163067"><ele>-1.79</ele><time>2011-10-10T22:05:36Z</time></trkpt><trkpt lat="44.2221512552" lon="14.8360145465"><ele>-1.30</ele><time>2011-10-10T22:06:02Z</time></trkpt><trkpt lat="44.2221523449" lon="14.8360116966"><ele>-1.30</ele><time>2011-10-10T22:06:26Z</time></trkpt><trkpt lat="44.2221523449" lon="14.8360116966"><ele>-1.30</ele><time>2011-10-10T22:06:53Z</time></trkpt><trkpt lat="44.2221539374" lon="14.8360052425"><ele>-0.82</ele><time>2011-10-10T22:07:20Z</time></trkpt><trkpt lat="44.2221547756" lon="14.8360033147"><ele>-0.82</ele><time>2011-10-10T22:07:52Z</time></trkpt><trkpt lat="44.2221569549" lon="14.8360002134"><ele>-0.82</ele><time>2011-10-10T22:08:25Z</time></trkpt><trkpt lat="44.2221569549" lon="14.8360002134"><ele>-0.82</ele><time>2011-10-10T22:08:54Z</time></trkpt><trkpt lat="44.2221580446" lon="14.8359934241"><ele>-0.34</ele><time>2011-10-10T22:09:24Z</time></trkpt><trkpt lat="44.2221607268" lon="14.8359821085"><ele>-0.34</ele><time>2011-10-10T22:09:55Z</time></trkpt><trkpt lat="44.2221607268" lon="14.8359821085"><ele>-0.34</ele><time>2011-10-10T22:10:24Z</time></trkpt><trkpt lat="44.2221587151" lon="14.8359843716"><ele>-0.82</ele><time>2011-10-10T22:10:54Z</time></trkpt><trkpt lat="44.2221578769" lon="14.8359883111"><ele>-0.82</ele><time>2011-10-10T22:11:18Z</time></trkpt><trkpt lat="44.2221578769" lon="14.8359883111"><ele>-0.82</ele><time>2011-10-10T22:11:43Z</time></trkpt><trkpt lat="44.2221580446" lon="14.8359921668"><ele>-0.82</ele><time>2011-10-10T22:12:17Z</time></trkpt><trkpt lat="44.2221552785" lon="14.8360026442"><ele>-0.82</ele><time>2011-10-10T22:12:46Z</time></trkpt><trkpt lat="44.2221503332" lon="14.8360011354"><ele>-1.30</ele><time>2011-10-10T22:13:16Z</time></trkpt><trkpt lat="44.2221418675" lon="14.8359977826"><ele>-1.79</ele><time>2011-10-10T22:13:52Z</time></trkpt><trkpt lat="44.2221418675" lon="14.8359977826"><ele>-1.79</ele><time>2011-10-10T22:14:24Z</time></trkpt><trkpt lat="44.2221411131" lon="14.8359963577"><ele>-1.30</ele><time>2011-10-10T22:14:54Z</time></trkpt><trkpt lat="44.2221407779" lon="14.8359986208"><ele>-1.79</ele><time>2011-10-10T22:15:27Z</time></trkpt><trkpt lat="44.2221421190" lon="14.8360008840"><ele>-1.30</ele><time>2011-10-10T22:15:55Z</time></trkpt><trkpt lat="44.2221422866" lon="14.8360073380"><ele>-1.30</ele><time>2011-10-10T22:16:26Z</time></trkpt><trkpt lat="44.2221422866" lon="14.8360073380"><ele>-1.30</ele><time>2011-10-10T22:16:54Z</time></trkpt><trkpt lat="44.2221373413" lon="14.8360061646"><ele>-1.30</ele><time>2011-10-10T22:17:22Z</time></trkpt><trkpt lat="44.2221359164" lon="14.8360049073"><ele>-1.30</ele><time>2011-10-10T22:17:54Z</time></trkpt><trkpt lat="44.2221359164" lon="14.8360049073"><ele>-1.30</ele><time>2011-10-10T22:18:24Z</time></trkpt><trkpt lat="44.2221343238" lon="14.8360050749"><ele>-0.82</ele><time>2011-10-10T22:18:51Z</time></trkpt><trkpt lat="44.2221354973" lon="14.8360005487"><ele>-0.82</ele><time>2011-10-10T22:19:19Z</time></trkpt><trkpt lat="44.2221354973" lon="14.8360005487"><ele>-0.82</ele><time>2011-10-10T22:19:44Z</time></trkpt><trkpt lat="44.2221386824" lon="14.8359961063"><ele>-0.82</ele><time>2011-10-10T22:20:12Z</time></trkpt><trkpt lat="44.2221386824" lon="14.8359962739"><ele>-0.82</ele><time>2011-10-10T22:20:44Z</time></trkpt><trkpt lat="44.2221385147" lon="14.8360007163"><ele>-0.82</ele><time>2011-10-10T22:21:10Z</time></trkpt><trkpt lat="44.2221385147" lon="14.8360007163"><ele>-0.82</ele><time>2011-10-10T22:21:38Z</time></trkpt><trkpt lat="44.2221371736" lon="14.8360034823"><ele>-0.82</ele><time>2011-10-10T22:22:09Z</time></trkpt><trkpt lat="44.2221354973" lon="14.8360056616"><ele>-1.30</ele><time>2011-10-10T22:22:40Z</time></trkpt><trkpt lat="44.2221333180" lon="14.8360041529"><ele>-1.30</ele><time>2011-10-10T22:23:12Z</time></trkpt><trkpt lat="44.2221333180" lon="14.8360041529"><ele>-1.30</ele><time>2011-10-10T22:23:43Z</time></trkpt><trkpt lat="44.2221337371" lon="14.8360028956"><ele>-0.82</ele><time>2011-10-10T22:24:13Z</time></trkpt><trkpt lat="44.2221382633" lon="14.8359937593"><ele>-0.82</ele><time>2011-10-10T22:24:39Z</time></trkpt><trkpt lat="44.2221402749" lon="14.8359935079"><ele>-0.82</ele><time>2011-10-10T22:25:06Z</time></trkpt><trkpt lat="44.2221402749" lon="14.8359935079"><ele>-0.82</ele><time>2011-10-10T22:25:37Z</time></trkpt><trkpt lat="44.2221416999" lon="14.8359910771"><ele>-0.34</ele><time>2011-10-10T22:26:03Z</time></trkpt><trkpt lat="44.2221437115" lon="14.8359977826"><ele>-0.34</ele><time>2011-10-10T22:26:33Z</time></trkpt><trkpt lat="44.2221437115" lon="14.8359977826"><ele>-0.34</ele><time>2011-10-10T22:27:03Z</time></trkpt><trkpt lat="44.2221366707" lon="14.8359936755"><ele>-0.34</ele><time>2011-10-10T22:27:29Z</time></trkpt><trkpt lat="44.2221379280" lon="14.8359926697"><ele>-0.34</ele><time>2011-10-10T22:27:56Z</time></trkpt><trkpt lat="44.2221379280" lon="14.8359926697"><ele>-0.34</ele><time>2011-10-10T22:28:22Z</time></trkpt><trkpt lat="44.2221390177" lon="14.8359859642"><ele>-0.34</ele><time>2011-10-10T22:28:44Z</time></trkpt><trkpt lat="44.2221391015" lon="14.8359854612"><ele>0.14</ele><time>2011-10-10T22:29:08Z</time></trkpt><trkpt lat="44.2221391015" lon="14.8359854612"><ele>0.14</ele><time>2011-10-10T22:29:36Z</time></trkpt><trkpt lat="44.2221385147" lon="14.8359846231"><ele>0.14</ele><time>2011-10-10T22:29:57Z</time></trkpt><trkpt lat="44.2221418675" lon="14.8359889816"><ele>-0.34</ele><time>2011-10-10T22:30:25Z</time></trkpt><trkpt lat="44.2221418675" lon="14.8359889816"><ele>-0.34</ele><time>2011-10-10T22:30:54Z</time></trkpt><trkpt lat="44.2221421190" lon="14.8359919153"><ele>-0.82</ele><time>2011-10-10T22:31:22Z</time></trkpt><trkpt lat="44.2221414484" lon="14.8359916639"><ele>-0.82</ele><time>2011-10-10T22:31:52Z</time></trkpt><trkpt lat="44.2221414484" lon="14.8359916639"><ele>-0.82</ele><time>2011-10-10T22:32:23Z</time></trkpt><trkpt lat="44.2221405264" lon="14.8359930888"><ele>-0.34</ele><time>2011-10-10T22:32:55Z</time></trkpt><trkpt lat="44.2221413646" lon="14.8359938432"><ele>-0.34</ele><time>2011-10-10T22:33:23Z</time></trkpt><trkpt lat="44.2221430410" lon="14.8359873053"><ele>0.14</ele><time>2011-10-10T22:33:47Z</time></trkpt><trkpt lat="44.2221430410" lon="14.8359873053"><ele>0.14</ele><time>2011-10-10T22:34:08Z</time></trkpt><trkpt lat="44.2221438792" lon="14.8359878920"><ele>-0.34</ele><time>2011-10-10T22:34:31Z</time></trkpt><trkpt lat="44.2221438792" lon="14.8359878920"><ele>-0.34</ele><time>2011-10-10T22:34:56Z</time></trkpt><trkpt lat="44.2221424542" lon="14.8359930050"><ele>-0.34</ele><time>2011-10-10T22:35:24Z</time></trkpt><trkpt lat="44.2221441306" lon="14.8359973636"><ele>-0.34</ele><time>2011-10-10T22:35:53Z</time></trkpt><trkpt lat="44.2221396044" lon="14.8360007163"><ele>-0.34</ele><time>2011-10-10T22:36:25Z</time></trkpt><trkpt lat="44.2221396044" lon="14.8360007163"><ele>-0.34</ele><time>2011-10-10T22:36:58Z</time></trkpt><trkpt lat="44.2221385986" lon="14.8359980341"><ele>-0.34</ele><time>2011-10-10T22:37:24Z</time></trkpt><trkpt lat="44.2221388500" lon="14.8359967768"><ele>-0.34</ele><time>2011-10-10T22:37:49Z</time></trkpt><trkpt lat="44.2221388500" lon="14.8359967768"><ele>-0.34</ele><time>2011-10-10T22:38:12Z</time></trkpt><trkpt lat="44.2221387662" lon="14.8359971121"><ele>-0.34</ele><time>2011-10-10T22:38:35Z</time></trkpt><trkpt lat="44.2221387662" lon="14.8359971121"><ele>-0.34</ele><time>2011-10-10T22:39:02Z</time></trkpt><trkpt lat="44.2221399397" lon="14.8360041529"><ele>-0.34</ele><time>2011-10-10T22:39:31Z</time></trkpt><trkpt lat="44.2221421190" lon="14.8360154685"><ele>-0.82</ele><time>2011-10-10T22:40:05Z</time></trkpt><trkpt lat="44.2221379280" lon="14.8360142950"><ele>-0.82</ele><time>2011-10-10T22:40:36Z</time></trkpt><trkpt lat="44.2221379280" lon="14.8360142950"><ele>-0.82</ele><time>2011-10-10T22:41:03Z</time></trkpt><trkpt lat="44.2221382633" lon="14.8360067513"><ele>-0.82</ele><time>2011-10-10T22:41:28Z</time></trkpt><trkpt lat="44.2221401911" lon="14.8360068351"><ele>-0.34</ele><time>2011-10-10T22:41:51Z</time></trkpt><trkpt lat="44.2221401911" lon="14.8360068351"><ele>-0.34</ele><time>2011-10-10T22:42:18Z</time></trkpt><trkpt lat="44.2221416999" lon="14.8360111937"><ele>-0.34</ele><time>2011-10-10T22:42:45Z</time></trkpt><trkpt lat="44.2221391015" lon="14.8360100202"><ele>-0.34</ele><time>2011-10-10T22:43:14Z</time></trkpt><trkpt lat="44.2221391015" lon="14.8360100202"><ele>-0.34</ele><time>2011-10-10T22:43:43Z</time></trkpt><trkpt lat="44.2221360002" lon="14.8360003810"><ele>-0.34</ele><time>2011-10-10T22:44:10Z</time></trkpt><trkpt lat="44.2221355811" lon="14.8359987047"><ele>-0.34</ele><time>2011-10-10T22:44:34Z</time></trkpt><trkpt lat="44.2221355811" lon="14.8359987047"><ele>-0.34</ele><time>2011-10-10T22:45:03Z</time></trkpt><trkpt lat="44.2221369222" lon="14.8359992076"><ele>-0.34</ele><time>2011-10-10T22:45:32Z</time></trkpt><trkpt lat="44.2221362516" lon="14.8360059131"><ele>0.14</ele><time>2011-10-10T22:45:59Z</time></trkpt><trkpt lat="44.2221396882" lon="14.8360179830"><ele>0.14</ele><time>2011-10-10T22:46:29Z</time></trkpt><trkpt lat="44.2221396882" lon="14.8360179830"><ele>0.14</ele><time>2011-10-10T22:46:59Z</time></trkpt><trkpt lat="44.2221387662" lon="14.8360196594"><ele>0.14</ele><time>2011-10-10T22:47:27Z</time></trkpt><trkpt lat="44.2221387662" lon="14.8360150494"><ele>0.14</ele><time>2011-10-10T22:47:56Z</time></trkpt><trkpt lat="44.2221366707" lon="14.8360199109"><ele>0.14</ele><time>2011-10-10T22:48:30Z</time></trkpt><trkpt lat="44.2221366707" lon="14.8360199109"><ele>0.14</ele><time>2011-10-10T22:49:00Z</time></trkpt><trkpt lat="44.2221402749" lon="14.8360252753"><ele>-0.34</ele><time>2011-10-10T22:49:31Z</time></trkpt><trkpt lat="44.2221416160" lon="14.8360285442"><ele>0.14</ele><time>2011-10-10T22:49:57Z</time></trkpt><trkpt lat="44.2221416160" lon="14.8360285442"><ele>0.14</ele><time>2011-10-10T22:50:20Z</time></trkpt><trkpt lat="44.2221391015" lon="14.8360307235"><ele>-0.82</ele><time>2011-10-10T22:50:46Z</time></trkpt><trkpt lat="44.2221407779" lon="14.8360322323"><ele>-0.82</ele><time>2011-10-10T22:51:11Z</time></trkpt><trkpt lat="44.2221407779" lon="14.8360322323"><ele>-0.82</ele><time>2011-10-10T22:51:43Z</time></trkpt><trkpt lat="44.2221407779" lon="14.8360297177"><ele>-0.82</ele><time>2011-10-10T22:52:16Z</time></trkpt><trkpt lat="44.2221421190" lon="14.8360315617"><ele>-0.82</ele><time>2011-10-10T22:52:45Z</time></trkpt><trkpt lat="44.2221416999" lon="14.8360318132"><ele>-0.34</ele><time>2011-10-10T22:53:14Z</time></trkpt><trkpt lat="44.2221448012" lon="14.8360248562"><ele>-0.34</ele><time>2011-10-10T22:53:45Z</time></trkpt><trkpt lat="44.2221448012" lon="14.8360248562"><ele>-0.34</ele><time>2011-10-10T22:54:15Z</time></trkpt><trkpt lat="44.2221473157" lon="14.8360206652"><ele>-0.34</ele><time>2011-10-10T22:54:50Z</time></trkpt><trkpt lat="44.2221505009" lon="14.8360177316"><ele>-0.34</ele><time>2011-10-10T22:55:20Z</time></trkpt><trkpt lat="44.2221523449" lon="14.8360209167"><ele>-0.34</ele><time>2011-10-10T22:55:55Z</time></trkpt><trkpt lat="44.2221580446" lon="14.8360217549"><ele>0.14</ele><time>2011-10-10T22:56:32Z</time></trkpt><trkpt lat="44.2221580446" lon="14.8360217549"><ele>0.14</ele><time>2011-10-10T22:57:02Z</time></trkpt><trkpt lat="44.2221619841" lon="14.8360250238"><ele>-0.34</ele><time>2011-10-10T22:57:30Z</time></trkpt><trkpt lat="44.2221614812" lon="14.8360258620"><ele>-0.34</ele><time>2011-10-10T22:58:03Z</time></trkpt><trkpt lat="44.2221583799" lon="14.8360261135"><ele>-0.34</ele><time>2011-10-10T22:58:33Z</time></trkpt><trkpt lat="44.2221563682" lon="14.8360282090"><ele>-0.34</ele><time>2011-10-10T22:59:07Z</time></trkpt><trkpt lat="44.2221563682" lon="14.8360282090"><ele>-0.34</ele><time>2011-10-10T22:59:39Z</time></trkpt><trkpt lat="44.2221573740" lon="14.8360292148"><ele>-0.34</ele><time>2011-10-10T23:00:08Z</time></trkpt><trkpt lat="44.2221610621" lon="14.8360287119"><ele>-0.34</ele><time>2011-10-10T23:00:43Z</time></trkpt><trkpt lat="44.2221613973" lon="14.8360268679"><ele>-0.34</ele><time>2011-10-10T23:01:15Z</time></trkpt><trkpt lat="44.2221601401" lon="14.8360245209"><ele>-0.34</ele><time>2011-10-10T23:01:46Z</time></trkpt><trkpt lat="44.2221601401" lon="14.8360245209"><ele>-0.34</ele><time>2011-10-10T23:02:19Z</time></trkpt><trkpt lat="44.2221559491" lon="14.8360197432"><ele>-0.82</ele><time>2011-10-10T23:02:50Z</time></trkpt><trkpt lat="44.2221549433" lon="14.8360197432"><ele>-0.34</ele><time>2011-10-10T23:03:20Z</time></trkpt><trkpt lat="44.2221510876" lon="14.8360193241"><ele>-0.34</ele><time>2011-10-10T23:03:48Z</time></trkpt><trkpt lat="44.2221510876" lon="14.8360193241"><ele>-0.34</ele><time>2011-10-10T23:04:22Z</time></trkpt><trkpt lat="44.2221505847" lon="14.8360154685"><ele>-0.34</ele><time>2011-10-10T23:04:53Z</time></trkpt><trkpt lat="44.2221494950" lon="14.8360151332"><ele>-0.34</ele><time>2011-10-10T23:05:23Z</time></trkpt><trkpt lat="44.2221490759" lon="14.8360191565"><ele>-0.34</ele><time>2011-10-10T23:05:51Z</time></trkpt><trkpt lat="44.2221490759" lon="14.8360191565"><ele>-0.34</ele><time>2011-10-10T23:06:23Z</time></trkpt><trkpt lat="44.2221511714" lon="14.8360285442"><ele>0.14</ele><time>2011-10-10T23:06:54Z</time></trkpt><trkpt lat="44.2221504170" lon="14.8360262811"><ele>0.14</ele><time>2011-10-10T23:07:26Z</time></trkpt><trkpt lat="44.2221499141" lon="14.8360230960"><ele>0.14</ele><time>2011-10-10T23:07:58Z</time></trkpt><trkpt lat="44.2221484892" lon="14.8360163067"><ele>0.14</ele><time>2011-10-10T23:08:26Z</time></trkpt><trkpt lat="44.2221484892" lon="14.8360163067"><ele>0.14</ele><time>2011-10-10T23:08:55Z</time></trkpt><trkpt lat="44.2221503332" lon="14.8360121995"><ele>0.14</ele><time>2011-10-10T23:09:27Z</time></trkpt><trkpt lat="44.2221481539" lon="14.8360116966"><ele>0.14</ele><time>2011-10-10T23:09:57Z</time></trkpt><trkpt lat="44.2221453879" lon="14.8360149655"><ele>0.62</ele><time>2011-10-10T23:10:34Z</time></trkpt><trkpt lat="44.2221453879" lon="14.8360149655"><ele>0.62</ele><time>2011-10-10T23:11:04Z</time></trkpt><trkpt lat="44.2221482377" lon="14.8360209167"><ele>0.14</ele><time>2011-10-10T23:11:36Z</time></trkpt><trkpt lat="44.2221499141" lon="14.8360238504"><ele>0.14</ele><time>2011-10-10T23:12:09Z</time></trkpt><trkpt lat="44.2221480701" lon="14.8360224254"><ele>0.14</ele><time>2011-10-10T23:12:41Z</time></trkpt><trkpt lat="44.2221458908" lon="14.8360182345"><ele>0.14</ele><time>2011-10-10T23:13:14Z</time></trkpt><trkpt lat="44.2221458070" lon="14.8360143788"><ele>0.62</ele><time>2011-10-10T23:13:47Z</time></trkpt><trkpt lat="44.2221458070" lon="14.8360143788"><ele>0.62</ele><time>2011-10-10T23:14:21Z</time></trkpt><trkpt lat="44.2221462261" lon="14.8360062484"><ele>0.62</ele><time>2011-10-10T23:14:51Z</time></trkpt><trkpt lat="44.2221419513" lon="14.8359987885"><ele>0.14</ele><time>2011-10-10T23:15:23Z</time></trkpt><trkpt lat="44.2221411131" lon="14.8360010516"><ele>0.14</ele><time>2011-10-10T23:15:55Z</time></trkpt><trkpt lat="44.2221411131" lon="14.8360010516"><ele>0.14</ele><time>2011-10-10T23:16:24Z</time></trkpt><trkpt lat="44.2221450526" lon="14.8360082600"><ele>0.14</ele><time>2011-10-10T23:16:53Z</time></trkpt><trkpt lat="44.2221474834" lon="14.8360136244"><ele>0.62</ele><time>2011-10-10T23:17:21Z</time></trkpt><trkpt lat="44.2221457232" lon="14.8360178154"><ele>0.62</ele><time>2011-10-10T23:17:55Z</time></trkpt><trkpt lat="44.2221443821" lon="14.8360164743"><ele>0.62</ele><time>2011-10-10T23:18:29Z</time></trkpt><trkpt lat="44.2221443821" lon="14.8360164743"><ele>0.62</ele><time>2011-10-10T23:19:00Z</time></trkpt><trkpt lat="44.2221448850" lon="14.8360050749"><ele>0.14</ele><time>2011-10-10T23:19:28Z</time></trkpt><trkpt lat="44.2221451364" lon="14.8360023927"><ele>0.14</ele><time>2011-10-10T23:20:01Z</time></trkpt><trkpt lat="44.2221456394" lon="14.8360011354"><ele>0.14</ele><time>2011-10-10T23:20:32Z</time></trkpt><trkpt lat="44.2221456394" lon="14.8360011354"><ele>0.14</ele><time>2011-10-10T23:21:03Z</time></trkpt><trkpt lat="44.2221473157" lon="14.8360081762"><ele>0.14</ele><time>2011-10-10T23:21:35Z</time></trkpt><trkpt lat="44.2221473996" lon="14.8360132892"><ele>-0.34</ele><time>2011-10-10T23:22:03Z</time></trkpt><trkpt lat="44.2221458070" lon="14.8360141274"><ele>-0.34</ele><time>2011-10-10T23:22:30Z</time></trkpt><trkpt lat="44.2221458070" lon="14.8360141274"><ele>-0.34</ele><time>2011-10-10T23:23:03Z</time></trkpt><trkpt lat="44.2221463099" lon="14.8360159714"><ele>-0.34</ele><time>2011-10-10T23:23:39Z</time></trkpt><trkpt lat="44.2221476510" lon="14.8360175639"><ele>-0.34</ele><time>2011-10-10T23:24:11Z</time></trkpt><trkpt lat="44.2221473157" lon="14.8360174801"><ele>-0.34</ele><time>2011-10-10T23:24:45Z</time></trkpt><trkpt lat="44.2221469805" lon="14.8360050749"><ele>-0.34</ele><time>2011-10-10T23:25:20Z</time></trkpt><trkpt lat="44.2221477348" lon="14.8360016383"><ele>-0.34</ele><time>2011-10-10T23:25:48Z</time></trkpt><trkpt lat="44.2221477348" lon="14.8360016383"><ele>-0.34</ele><time>2011-10-10T23:26:19Z</time></trkpt><trkpt lat="44.2221480701" lon="14.8360023927"><ele>-0.34</ele><time>2011-10-10T23:26:47Z</time></trkpt><trkpt lat="44.2221473996" lon="14.8360090982"><ele>-0.34</ele><time>2011-10-10T23:27:23Z</time></trkpt><trkpt lat="44.2221501656" lon="14.8360143788"><ele>-0.34</ele><time>2011-10-10T23:27:57Z</time></trkpt><trkpt lat="44.2221501656" lon="14.8360143788"><ele>-0.34</ele><time>2011-10-10T23:28:24Z</time></trkpt><trkpt lat="44.2221505847" lon="14.8360184859"><ele>0.14</ele><time>2011-10-10T23:28:52Z</time></trkpt><trkpt lat="44.2221551947" lon="14.8360218387"><ele>-0.34</ele><time>2011-10-10T23:29:27Z</time></trkpt><trkpt lat="44.2221491598" lon="14.8360161390"><ele>-0.34</ele><time>2011-10-10T23:29:59Z</time></trkpt><trkpt lat="44.2221483216" lon="14.8360155523"><ele>-0.34</ele><time>2011-10-10T23:30:30Z</time></trkpt><trkpt lat="44.2221483216" lon="14.8360155523"><ele>-0.34</ele><time>2011-10-10T23:31:02Z</time></trkpt><trkpt lat="44.2221474834" lon="14.8360127863"><ele>-0.34</ele><time>2011-10-10T23:31:33Z</time></trkpt><trkpt lat="44.2221461423" lon="14.8360146303"><ele>-0.34</ele><time>2011-10-10T23:32:09Z</time></trkpt><trkpt lat="44.2221465614" lon="14.8360173963"><ele>-0.34</ele><time>2011-10-10T23:32:42Z</time></trkpt><trkpt lat="44.2221525125" lon="14.8360215034"><ele>-0.34</ele><time>2011-10-10T23:33:09Z</time></trkpt><trkpt lat="44.2221525125" lon="14.8360215034"><ele>-0.34</ele><time>2011-10-10T23:33:41Z</time></trkpt><trkpt lat="44.2221571226" lon="14.8360290471"><ele>-0.34</ele><time>2011-10-10T23:34:10Z</time></trkpt><trkpt lat="44.2221619841" lon="14.8360324837"><ele>-0.34</ele><time>2011-10-10T23:34:37Z</time></trkpt><trkpt lat="44.2221630737" lon="14.8360337410"><ele>-0.34</ele><time>2011-10-10T23:35:09Z</time></trkpt><trkpt lat="44.2221630737" lon="14.8360337410"><ele>-0.34</ele><time>2011-10-10T23:35:42Z</time></trkpt><trkpt lat="44.2221639119" lon="14.8360368423"><ele>-0.82</ele><time>2011-10-10T23:36:15Z</time></trkpt><trkpt lat="44.2221643310" lon="14.8360377643"><ele>-0.82</ele><time>2011-10-10T23:36:48Z</time></trkpt><trkpt lat="44.2221621517" lon="14.8360416200"><ele>-0.82</ele><time>2011-10-10T23:37:25Z</time></trkpt><trkpt lat="44.2221598048" lon="14.8360427096"><ele>-0.82</ele><time>2011-10-10T23:37:57Z</time></trkpt><trkpt lat="44.2221576255" lon="14.8360403627"><ele>-0.82</ele><time>2011-10-10T23:38:29Z</time></trkpt><trkpt lat="44.2221576255" lon="14.8360403627"><ele>-0.82</ele><time>2011-10-10T23:38:59Z</time></trkpt><trkpt lat="44.2221549433" lon="14.8360377643"><ele>-0.82</ele><time>2011-10-10T23:39:32Z</time></trkpt><trkpt lat="44.2221503332" lon="14.8360391054"><ele>-0.34</ele><time>2011-10-10T23:40:06Z</time></trkpt><trkpt lat="44.2221518420" lon="14.8360240180"><ele>-0.34</ele><time>2011-10-10T23:40:39Z</time></trkpt><trkpt lat="44.2221520096" lon="14.8360205814"><ele>-0.34</ele><time>2011-10-10T23:41:11Z</time></trkpt><trkpt lat="44.2221498303" lon="14.8360140435"><ele>-0.34</ele><time>2011-10-10T23:41:45Z</time></trkpt><trkpt lat="44.2221498303" lon="14.8360140435"><ele>-0.34</ele><time>2011-10-10T23:42:21Z</time></trkpt><trkpt lat="44.2221492436" lon="14.8360167257"><ele>0.14</ele><time>2011-10-10T23:42:53Z</time></trkpt><trkpt lat="44.2221480701" lon="14.8360158876"><ele>0.14</ele><time>2011-10-10T23:43:27Z</time></trkpt><trkpt lat="44.2221437953" lon="14.8360121995"><ele>0.14</ele><time>2011-10-10T23:43:55Z</time></trkpt><trkpt lat="44.2221442983" lon="14.8360043205"><ele>0.62</ele><time>2011-10-10T23:44:27Z</time></trkpt><trkpt lat="44.2221442983" lon="14.8360043205"><ele>0.62</ele><time>2011-10-10T23:44:58Z</time></trkpt><trkpt lat="44.2221444659" lon="14.8360022251"><ele>0.62</ele><time>2011-10-10T23:45:27Z</time></trkpt><trkpt lat="44.2221447174" lon="14.8360055778"><ele>0.62</ele><time>2011-10-10T23:46:02Z</time></trkpt><trkpt lat="44.2221479025" lon="14.8360067513"><ele>0.14</ele><time>2011-10-10T23:46:39Z</time></trkpt><trkpt lat="44.2221516743" lon="14.8360132892"><ele>0.62</ele><time>2011-10-10T23:47:10Z</time></trkpt><trkpt lat="44.2221516743" lon="14.8360132892"><ele>0.62</ele><time>2011-10-10T23:47:43Z</time></trkpt><trkpt lat="44.2221519258" lon="14.8360132053"><ele>0.62</ele><time>2011-10-10T23:48:15Z</time></trkpt><trkpt lat="44.2221485730" lon="14.8360126186"><ele>0.62</ele><time>2011-10-10T23:48:49Z</time></trkpt><trkpt lat="44.2221487407" lon="14.8360136244"><ele>0.62</ele><time>2011-10-10T23:49:23Z</time></trkpt><trkpt lat="44.2221469805" lon="14.8360086791"><ele>0.62</ele><time>2011-10-10T23:49:52Z</time></trkpt><trkpt lat="44.2221469805" lon="14.8360086791"><ele>0.62</ele><time>2011-10-10T23:50:23Z</time></trkpt><trkpt lat="44.2221486568" lon="14.8360071704"><ele>0.62</ele><time>2011-10-10T23:50:55Z</time></trkpt><trkpt lat="44.2221512552" lon="14.8360124510"><ele>0.62</ele><time>2011-10-10T23:51:27Z</time></trkpt><trkpt lat="44.2221547756" lon="14.8360207491"><ele>0.62</ele><time>2011-10-10T23:51:57Z</time></trkpt><trkpt lat="44.2221530993" lon="14.8360192403"><ele>0.14</ele><time>2011-10-10T23:52:26Z</time></trkpt><trkpt lat="44.2221530993" lon="14.8360192403"><ele>0.14</ele><time>2011-10-10T23:52:55Z</time></trkpt><trkpt lat="44.2221510876" lon="14.8360117804"><ele>0.14</ele><time>2011-10-10T23:53:26Z</time></trkpt><trkpt lat="44.2221505009" lon="14.8360132053"><ele>0.62</ele><time>2011-10-10T23:53:56Z</time></trkpt><trkpt lat="44.2221523449" lon="14.8360182345"><ele>0.14</ele><time>2011-10-10T23:54:28Z</time></trkpt><trkpt lat="44.2221520934" lon="14.8360252753"><ele>0.14</ele><time>2011-10-10T23:55:05Z</time></trkpt><trkpt lat="44.2221520934" lon="14.8360252753"><ele>0.14</ele><time>2011-10-10T23:55:37Z</time></trkpt><trkpt lat="44.2221524287" lon="14.8360294662"><ele>-0.34</ele><time>2011-10-10T23:56:10Z</time></trkpt><trkpt lat="44.2221502494" lon="14.8360287119"><ele>0.14</ele><time>2011-10-10T23:56:44Z</time></trkpt><trkpt lat="44.2221483216" lon="14.8360365070"><ele>0.14</ele><time>2011-10-10T23:57:13Z</time></trkpt><trkpt lat="44.2221465614" lon="14.8360342439"><ele>0.14</ele><time>2011-10-10T23:57:46Z</time></trkpt><trkpt lat="44.2221465614" lon="14.8360342439"><ele>0.14</ele><time>2011-10-10T23:58:20Z</time></trkpt><trkpt lat="44.2221467290" lon="14.8360273708"><ele>0.14</ele><time>2011-10-10T23:58:52Z</time></trkpt><trkpt lat="44.2221469805" lon="14.8360304721"><ele>0.62</ele><time>2011-10-10T23:59:21Z</time></trkpt><trkpt lat="44.2221457232" lon="14.8360318970"><ele>0.14</ele><time>2011-10-10T23:59:52Z</time></trkpt><trkpt lat="44.2221453879" lon="14.8360334896"><ele>0.14</ele><time>2011-10-11T00:00:25Z</time></trkpt><trkpt lat="44.2221453879" lon="14.8360334896"><ele>0.14</ele><time>2011-10-11T00:00:59Z</time></trkpt><trkpt lat="44.2221430410" lon="14.8360272869"><ele>0.14</ele><time>2011-10-11T00:01:28Z</time></trkpt><trkpt lat="44.2221421190" lon="14.8360265326"><ele>0.14</ele><time>2011-10-11T00:01:57Z</time></trkpt><trkpt lat="44.2221401073" lon="14.8360248562"><ele>0.14</ele><time>2011-10-11T00:02:27Z</time></trkpt><trkpt lat="44.2221401073" lon="14.8360248562"><ele>0.14</ele><time>2011-10-11T00:03:02Z</time></trkpt><trkpt lat="44.2221375089" lon="14.8360188212"><ele>-0.34</ele><time>2011-10-11T00:03:35Z</time></trkpt><trkpt lat="44.2221378442" lon="14.8360153846"><ele>-0.34</ele><time>2011-10-11T00:04:06Z</time></trkpt><trkpt lat="44.2221369222" lon="14.8360179830"><ele>-0.34</ele><time>2011-10-11T00:04:36Z</time></trkpt><trkpt lat="44.2221388500" lon="14.8360303044"><ele>-0.34</ele><time>2011-10-11T00:05:09Z</time></trkpt><trkpt lat="44.2221388500" lon="14.8360303044"><ele>-0.34</ele><time>2011-10-11T00:05:38Z</time></trkpt><trkpt lat="44.2221375927" lon="14.8360246047"><ele>0.62</ele><time>2011-10-11T00:06:17Z</time></trkpt><trkpt lat="44.2221366707" lon="14.8360113613"><ele>0.14</ele><time>2011-10-11T00:06:50Z</time></trkpt><trkpt lat="44.2221365869" lon="14.8360089306"><ele>-0.34</ele><time>2011-10-11T00:07:20Z</time></trkpt><trkpt lat="44.2221381795" lon="14.8360071704"><ele>-0.34</ele><time>2011-10-11T00:07:47Z</time></trkpt><trkpt lat="44.2221381795" lon="14.8360071704"><ele>-0.34</ele><time>2011-10-11T00:08:16Z</time></trkpt><trkpt lat="44.2221375089" lon="14.8360075895"><ele>-0.34</ele><time>2011-10-11T00:08:42Z</time></trkpt><trkpt lat="44.2221434601" lon="14.8360132892"><ele>-0.34</ele><time>2011-10-11T00:09:19Z</time></trkpt><trkpt lat="44.2221507523" lon="14.8360333219"><ele>-0.34</ele><time>2011-10-11T00:09:50Z</time></trkpt><trkpt lat="44.2221507523" lon="14.8360333219"><ele>-0.34</ele><time>2011-10-11T00:10:23Z</time></trkpt><trkpt lat="44.2221525125" lon="14.8360370938"><ele>-0.34</ele><time>2011-10-11T00:10:52Z</time></trkpt><trkpt lat="44.2221520934" lon="14.8360349145"><ele>-0.82</ele><time>2011-10-11T00:11:27Z</time></trkpt><trkpt lat="44.2221513391" lon="14.8360380158"><ele>-0.34</ele><time>2011-10-11T00:12:01Z</time></trkpt><trkpt lat="44.2221499141" lon="14.8360360879"><ele>-0.34</ele><time>2011-10-11T00:12:30Z</time></trkpt><trkpt lat="44.2221499141" lon="14.8360360879"><ele>-0.34</ele><time>2011-10-11T00:13:04Z</time></trkpt><trkpt lat="44.2221492436" lon="14.8360315617"><ele>-0.34</ele><time>2011-10-11T00:13:36Z</time></trkpt><trkpt lat="44.2221505847" lon="14.8360327352"><ele>-0.82</ele><time>2011-10-11T00:14:02Z</time></trkpt><trkpt lat="44.2221514229" lon="14.8360313941"><ele>-0.34</ele><time>2011-10-11T00:14:33Z</time></trkpt><trkpt lat="44.2221533507" lon="14.8360387702"><ele>-0.34</ele><time>2011-10-11T00:15:06Z</time></trkpt><trkpt lat="44.2221533507" lon="14.8360387702"><ele>-0.34</ele><time>2011-10-11T00:15:38Z</time></trkpt><trkpt lat="44.2221527640" lon="14.8360403627"><ele>-0.34</ele><time>2011-10-11T00:16:14Z</time></trkpt><trkpt lat="44.2221490759" lon="14.8360336572"><ele>-0.34</ele><time>2011-10-11T00:16:45Z</time></trkpt><trkpt lat="44.2221443821" lon="14.8360288795"><ele>-0.82</ele><time>2011-10-11T00:17:21Z</time></trkpt><trkpt lat="44.2221458908" lon="14.8360104393"><ele>0.14</ele><time>2011-10-11T00:17:50Z</time></trkpt><trkpt lat="44.2221458908" lon="14.8360104393"><ele>0.14</ele><time>2011-10-11T00:18:17Z</time></trkpt><trkpt lat="44.2221463099" lon="14.8360098526"><ele>0.14</ele><time>2011-10-11T00:18:43Z</time></trkpt><trkpt lat="44.2221479863" lon="14.8360117804"><ele>0.14</ele><time>2011-10-11T00:19:11Z</time></trkpt><trkpt lat="44.2221479863" lon="14.8360117804"><ele>0.14</ele><time>2011-10-11T00:19:44Z</time></trkpt><trkpt lat="44.2221467290" lon="14.8360229284"><ele>0.14</ele><time>2011-10-11T00:20:14Z</time></trkpt><trkpt lat="44.2221477348" lon="14.8360261135"><ele>0.14</ele><time>2011-10-11T00:20:51Z</time></trkpt><trkpt lat="44.2221472319" lon="14.8360245209"><ele>0.14</ele><time>2011-10-11T00:21:25Z</time></trkpt><trkpt lat="44.2221454717" lon="14.8360226769"><ele>0.14</ele><time>2011-10-11T00:21:57Z</time></trkpt><trkpt lat="44.2221416160" lon="14.8360182345"><ele>-0.34</ele><time>2011-10-11T00:22:28Z</time></trkpt><trkpt lat="44.2221416160" lon="14.8360182345"><ele>-0.34</ele><time>2011-10-11T00:22:59Z</time></trkpt><trkpt lat="44.2221411131" lon="14.8360168096"><ele>-0.34</ele><time>2011-10-11T00:23:27Z</time></trkpt><trkpt lat="44.2221411131" lon="14.8360193241"><ele>-0.34</ele><time>2011-10-11T00:24:00Z</time></trkpt><trkpt lat="44.2221449688" lon="14.8360225093"><ele>-0.34</ele><time>2011-10-11T00:24:27Z</time></trkpt><trkpt lat="44.2221449688" lon="14.8360225093"><ele>-0.34</ele><time>2011-10-11T00:24:57Z</time></trkpt><trkpt lat="44.2221432086" lon="14.8360246047"><ele>-0.34</ele><time>2011-10-11T00:25:34Z</time></trkpt><trkpt lat="44.2221419513" lon="14.8360257782"><ele>-0.34</ele><time>2011-10-11T00:26:07Z</time></trkpt><trkpt lat="44.2221397720" lon="14.8360268679"><ele>-0.82</ele><time>2011-10-11T00:26:39Z</time></trkpt><trkpt lat="44.2221387662" lon="14.8360267840"><ele>-0.82</ele><time>2011-10-11T00:27:05Z</time></trkpt><trkpt lat="44.2221387662" lon="14.8360267840"><ele>-0.82</ele><time>2011-10-11T00:27:41Z</time></trkpt><trkpt lat="44.2221360002" lon="14.8360235989"><ele>-0.82</ele><time>2011-10-11T00:28:16Z</time></trkpt><trkpt lat="44.2221343238" lon="14.8360189050"><ele>-0.82</ele><time>2011-10-11T00:28:51Z</time></trkpt><trkpt lat="44.2221349105" lon="14.8360165581"><ele>-0.82</ele><time>2011-10-11T00:29:19Z</time></trkpt><trkpt lat="44.2221349105" lon="14.8360199109"><ele>-1.30</ele><time>2011-10-11T00:29:40Z</time></trkpt><trkpt lat="44.2221348267" lon="14.8360216711"><ele>-1.30</ele><time>2011-10-11T00:30:09Z</time></trkpt><trkpt lat="44.2221348267" lon="14.8360216711"><ele>-1.30</ele><time>2011-10-11T00:30:41Z</time></trkpt><trkpt lat="44.2221330665" lon="14.8360216711"><ele>-0.82</ele><time>2011-10-11T00:31:15Z</time></trkpt><trkpt lat="44.2221345752" lon="14.8360153846"><ele>-1.30</ele><time>2011-10-11T00:31:51Z</time></trkpt><trkpt lat="44.2221374251" lon="14.8360123672"><ele>-0.82</ele><time>2011-10-11T00:32:17Z</time></trkpt><trkpt lat="44.2221376766" lon="14.8360135406"><ele>-0.82</ele><time>2011-10-11T00:32:44Z</time></trkpt><trkpt lat="44.2221376766" lon="14.8360135406"><ele>-0.82</ele><time>2011-10-11T00:33:15Z</time></trkpt><trkpt lat="44.2221401911" lon="14.8360216711"><ele>-0.82</ele><time>2011-10-11T00:33:44Z</time></trkpt><trkpt lat="44.2221385147" lon="14.8360228445"><ele>-0.82</ele><time>2011-10-11T00:34:10Z</time></trkpt><trkpt lat="44.2221385147" lon="14.8360228445"><ele>-0.82</ele><time>2011-10-11T00:34:42Z</time></trkpt><trkpt lat="44.2221344076" lon="14.8360190727"><ele>-0.82</ele><time>2011-10-11T00:35:13Z</time></trkpt><trkpt lat="44.2221323121" lon="14.8360176478"><ele>-0.82</ele><time>2011-10-11T00:35:40Z</time></trkpt><trkpt lat="44.2221311387" lon="14.8360179830"><ele>-0.82</ele><time>2011-10-11T00:36:08Z</time></trkpt><trkpt lat="44.2221311387" lon="14.8360179830"><ele>-0.82</ele><time>2011-10-11T00:36:35Z</time></trkpt><trkpt lat="44.2221318930" lon="14.8360265326"><ele>-0.34</ele><time>2011-10-11T00:37:07Z</time></trkpt><trkpt lat="44.2221325636" lon="14.8360280413"><ele>-0.34</ele><time>2011-10-11T00:37:41Z</time></trkpt><trkpt lat="44.2221329827" lon="14.8360289633"><ele>-0.34</ele><time>2011-10-11T00:38:16Z</time></trkpt><trkpt lat="44.2221301328" lon="14.8360215034"><ele>-0.34</ele><time>2011-10-11T00:38:54Z</time></trkpt><trkpt lat="44.2221308872" lon="14.8360172287"><ele>0.14</ele><time>2011-10-11T00:39:30Z</time></trkpt><trkpt lat="44.2221315578" lon="14.8360039014"><ele>0.14</ele><time>2011-10-11T00:40:05Z</time></trkpt><trkpt lat="44.2221315578" lon="14.8360039014"><ele>0.14</ele><time>2011-10-11T00:40:36Z</time></trkpt><trkpt lat="44.2221322283" lon="14.8359989561"><ele>0.14</ele><time>2011-10-11T00:41:06Z</time></trkpt><trkpt lat="44.2221323960" lon="14.8359990399"><ele>0.14</ele><time>2011-10-11T00:41:38Z</time></trkpt><trkpt lat="44.2221323121" lon="14.8359985370"><ele>-0.34</ele><time>2011-10-11T00:42:05Z</time></trkpt><trkpt lat="44.2221323121" lon="14.8359985370"><ele>-0.34</ele><time>2011-10-11T00:42:32Z</time></trkpt><trkpt lat="44.2221323121" lon="14.8359966092"><ele>-0.34</ele><time>2011-10-11T00:43:06Z</time></trkpt><trkpt lat="44.2221308872" lon="14.8359956034"><ele>0.14</ele><time>2011-10-11T00:43:40Z</time></trkpt><trkpt lat="44.2221298814" lon="14.8359898198"><ele>0.14</ele><time>2011-10-11T00:44:15Z</time></trkpt><trkpt lat="44.2221303843" lon="14.8359831143"><ele>0.62</ele><time>2011-10-11T00:44:51Z</time></trkpt><trkpt lat="44.2221303843" lon="14.8359831143"><ele>0.62</ele><time>2011-10-11T00:45:17Z</time></trkpt><trkpt lat="44.2221385147" lon="14.8359792586"><ele>0.62</ele><time>2011-10-11T00:45:46Z</time></trkpt><trkpt lat="44.2221424542" lon="14.8359759897"><ele>0.62</ele><time>2011-10-11T00:46:11Z</time></trkpt><trkpt lat="44.2221424542" lon="14.8359759897"><ele>0.62</ele><time>2011-10-11T00:46:40Z</time></trkpt><trkpt lat="44.2221422028" lon="14.8359759897"><ele>1.10</ele><time>2011-10-11T00:47:10Z</time></trkpt><trkpt lat="44.2221442144" lon="14.8359805159"><ele>1.10</ele><time>2011-10-11T00:47:43Z</time></trkpt><trkpt lat="44.2221451364" lon="14.8359951843"><ele>0.62</ele><time>2011-10-11T00:48:18Z</time></trkpt><trkpt lat="44.2221453879" lon="14.8359960224"><ele>1.10</ele><time>2011-10-11T00:48:51Z</time></trkpt><trkpt lat="44.2221464776" lon="14.8360022251"><ele>1.10</ele><time>2011-10-11T00:49:27Z</time></trkpt><trkpt lat="44.2221464776" lon="14.8360022251"><ele>1.10</ele><time>2011-10-11T00:50:00Z</time></trkpt><trkpt lat="44.2221457232" lon="14.8360018060"><ele>1.10</ele><time>2011-10-11T00:50:31Z</time></trkpt><trkpt lat="44.2221426219" lon="14.8360011354"><ele>1.10</ele><time>2011-10-11T00:51:06Z</time></trkpt><trkpt lat="44.2221424542" lon="14.8360035662"><ele>1.10</ele><time>2011-10-11T00:51:45Z</time></trkpt><trkpt lat="44.2221445497" lon="14.8360093497"><ele>1.10</ele><time>2011-10-11T00:52:18Z</time></trkpt><trkpt lat="44.2221473157" lon="14.8360120319"><ele>1.10</ele><time>2011-10-11T00:52:49Z</time></trkpt><trkpt lat="44.2221480701" lon="14.8360132053"><ele>1.10</ele><time>2011-10-11T00:53:26Z</time></trkpt><trkpt lat="44.2221484892" lon="14.8360202461"><ele>0.62</ele><time>2011-10-11T00:54:04Z</time></trkpt><trkpt lat="44.2221484892" lon="14.8360202461"><ele>0.62</ele><time>2011-10-11T00:54:37Z</time></trkpt><trkpt lat="44.2221489083" lon="14.8360228445"><ele>1.10</ele><time>2011-10-11T00:55:08Z</time></trkpt><trkpt lat="44.2221481539" lon="14.8360275384"><ele>1.10</ele><time>2011-10-11T00:55:40Z</time></trkpt><trkpt lat="44.2221478187" lon="14.8360282090"><ele>1.58</ele><time>2011-10-11T00:56:08Z</time></trkpt><trkpt lat="44.2221478187" lon="14.8360282090"><ele>1.58</ele><time>2011-10-11T00:56:39Z</time></trkpt><trkpt lat="44.2221460585" lon="14.8360323999"><ele>2.06</ele><time>2011-10-11T00:57:13Z</time></trkpt><trkpt lat="44.2221440468" lon="14.8360323999"><ele>2.06</ele><time>2011-10-11T00:57:50Z</time></trkpt><trkpt lat="44.2221422028" lon="14.8360332381"><ele>2.06</ele><time>2011-10-11T00:58:20Z</time></trkpt><trkpt lat="44.2221496627" lon="14.8360387702"><ele>2.54</ele><time>2011-10-11T00:58:52Z</time></trkpt><trkpt lat="44.2221490759" lon="14.8360407818"><ele>2.54</ele><time>2011-10-11T00:59:24Z</time></trkpt><trkpt lat="44.2221490759" lon="14.8360407818"><ele>2.54</ele><time>2011-10-11T01:00:02Z</time></trkpt><trkpt lat="44.2221481539" lon="14.8360425420"><ele>2.54</ele><time>2011-10-11T01:00:34Z</time></trkpt><trkpt lat="44.2221530154" lon="14.8360467330"><ele>3.02</ele><time>2011-10-11T01:01:09Z</time></trkpt><trkpt lat="44.2221559491" lon="14.8360475712"><ele>2.54</ele><time>2011-10-11T01:01:43Z</time></trkpt><trkpt lat="44.2221571226" lon="14.8360495828"><ele>2.54</ele><time>2011-10-11T01:02:13Z</time></trkpt><trkpt lat="44.2221572064" lon="14.8360492475"><ele>2.54</ele><time>2011-10-11T01:02:45Z</time></trkpt><trkpt lat="44.2221572064" lon="14.8360492475"><ele>2.54</ele><time>2011-10-11T01:03:16Z</time></trkpt><trkpt lat="44.2221570387" lon="14.8360494990"><ele>2.54</ele><time>2011-10-11T01:03:52Z</time></trkpt><trkpt lat="44.2221560329" lon="14.8360474035"><ele>2.54</ele><time>2011-10-11T01:04:27Z</time></trkpt><trkpt lat="44.2221541889" lon="14.8360468168"><ele>2.54</ele><time>2011-10-11T01:04:58Z</time></trkpt><trkpt lat="44.2221504170" lon="14.8360366747"><ele>2.54</ele><time>2011-10-11T01:05:33Z</time></trkpt><trkpt lat="44.2221494950" lon="14.8360313103"><ele>2.06</ele><time>2011-10-11T01:06:07Z</time></trkpt><trkpt lat="44.2221494950" lon="14.8360313103"><ele>2.06</ele><time>2011-10-11T01:06:42Z</time></trkpt><trkpt lat="44.2221465614" lon="14.8360203300"><ele>2.54</ele><time>2011-10-11T01:07:05Z</time></trkpt><trkpt lat="44.2221494950" lon="14.8360202461"><ele>2.06</ele><time>2011-10-11T01:07:34Z</time></trkpt><trkpt lat="44.2221494950" lon="14.8360202461"><ele>2.06</ele><time>2011-10-11T01:08:02Z</time></trkpt><trkpt lat="44.2221486568" lon="14.8360256106"><ele>1.58</ele><time>2011-10-11T01:08:37Z</time></trkpt><trkpt lat="44.2221498303" lon="14.8360263649"><ele>1.58</ele><time>2011-10-11T01:09:07Z</time></trkpt><trkpt lat="44.2221516743" lon="14.8360327352"><ele>1.58</ele><time>2011-10-11T01:09:42Z</time></trkpt><trkpt lat="44.2221499979" lon="14.8360388540"><ele>2.06</ele><time>2011-10-11T01:10:14Z</time></trkpt><trkpt lat="44.2221479863" lon="14.8360387702"><ele>1.58</ele><time>2011-10-11T01:10:46Z</time></trkpt><trkpt lat="44.2221479863" lon="14.8360387702"><ele>1.58</ele><time>2011-10-11T01:11:19Z</time></trkpt><trkpt lat="44.2221490759" lon="14.8360378481"><ele>1.58</ele><time>2011-10-11T01:11:51Z</time></trkpt><trkpt lat="44.2221460585" lon="14.8360396922"><ele>2.06</ele><time>2011-10-11T01:12:21Z</time></trkpt><trkpt lat="44.2221453879" lon="14.8360382672"><ele>2.06</ele><time>2011-10-11T01:12:53Z</time></trkpt><trkpt lat="44.2221458070" lon="14.8360392731"><ele>2.06</ele><time>2011-10-11T01:13:28Z</time></trkpt><trkpt lat="44.2221457232" lon="14.8360387702"><ele>2.06</ele><time>2011-10-11T01:14:04Z</time></trkpt><trkpt lat="44.2221457232" lon="14.8360387702"><ele>2.06</ele><time>2011-10-11T01:14:42Z</time></trkpt><trkpt lat="44.2221456394" lon="14.8360375967"><ele>2.06</ele><time>2011-10-11T01:15:18Z</time></trkpt><trkpt lat="44.2221468966" lon="14.8360360879"><ele>2.06</ele><time>2011-10-11T01:15:52Z</time></trkpt><trkpt lat="44.2221472319" lon="14.8360358365"><ele>2.06</ele><time>2011-10-11T01:16:25Z</time></trkpt><trkpt lat="44.2221478187" lon="14.8360329866"><ele>2.06</ele><time>2011-10-11T01:17:01Z</time></trkpt><trkpt lat="44.2221485730" lon="14.8360345792"><ele>1.58</ele><time>2011-10-11T01:17:38Z</time></trkpt><trkpt lat="44.2221497465" lon="14.8360350821"><ele>1.58</ele><time>2011-10-11T01:18:11Z</time></trkpt><trkpt lat="44.2221495789" lon="14.8360351659"><ele>1.58</ele><time>2011-10-11T01:18:45Z</time></trkpt><trkpt lat="44.2221495789" lon="14.8360351659"><ele>1.58</ele><time>2011-10-11T01:19:22Z</time></trkpt><trkpt lat="44.2221471481" lon="14.8360336572"><ele>1.58</ele><time>2011-10-11T01:19:52Z</time></trkpt><trkpt lat="44.2221477348" lon="14.8360325675"><ele>1.58</ele><time>2011-10-11T01:20:25Z</time></trkpt><trkpt lat="44.2221454717" lon="14.8360312264"><ele>1.58</ele><time>2011-10-11T01:20:56Z</time></trkpt><trkpt lat="44.2221453041" lon="14.8360296339"><ele>1.10</ele><time>2011-10-11T01:21:30Z</time></trkpt><trkpt lat="44.2221458070" lon="14.8360278737"><ele>1.10</ele><time>2011-10-11T01:22:03Z</time></trkpt><trkpt lat="44.2221458070" lon="14.8360278737"><ele>1.10</ele><time>2011-10-11T01:22:30Z</time></trkpt><trkpt lat="44.2221460585" lon="14.8360267840"><ele>1.10</ele><time>2011-10-11T01:23:02Z</time></trkpt><trkpt lat="44.2221472319" lon="14.8360292148"><ele>0.62</ele><time>2011-10-11T01:23:28Z</time></trkpt><trkpt lat="44.2221472319" lon="14.8360292148"><ele>0.62</ele><time>2011-10-11T01:23:59Z</time></trkpt><trkpt lat="44.2221475672" lon="14.8360282928"><ele>0.62</ele><time>2011-10-11T01:24:30Z</time></trkpt><trkpt lat="44.2221450526" lon="14.8360241856"><ele>0.62</ele><time>2011-10-11T01:25:01Z</time></trkpt><trkpt lat="44.2221483216" lon="14.8360153008"><ele>0.62</ele><time>2011-10-11T01:25:33Z</time></trkpt><trkpt lat="44.2221483216" lon="14.8360153008"><ele>0.62</ele><time>2011-10-11T01:26:01Z</time></trkpt><trkpt lat="44.2221507523" lon="14.8360091820"><ele>0.62</ele><time>2011-10-11T01:26:23Z</time></trkpt><trkpt lat="44.2221610621" lon="14.8360000458"><ele>0.62</ele><time>2011-10-11T01:26:49Z</time></trkpt><trkpt lat="44.2221610621" lon="14.8360000458"><ele>0.62</ele><time>2011-10-11T01:27:16Z</time></trkpt><trkpt lat="44.2221588828" lon="14.8360018898"><ele>0.62</ele><time>2011-10-11T01:27:48Z</time></trkpt><trkpt lat="44.2221557815" lon="14.8360030632"><ele>0.62</ele><time>2011-10-11T01:28:19Z</time></trkpt><trkpt lat="44.2221520934" lon="14.8360028956"><ele>0.62</ele><time>2011-10-11T01:28:51Z</time></trkpt><trkpt lat="44.2221520934" lon="14.8360028956"><ele>0.62</ele><time>2011-10-11T01:29:18Z</time></trkpt><trkpt lat="44.2221517581" lon="14.8359987047"><ele>1.10</ele><time>2011-10-11T01:29:53Z</time></trkpt><trkpt lat="44.2221510038" lon="14.8359955195"><ele>1.10</ele><time>2011-10-11T01:30:24Z</time></trkpt><trkpt lat="44.2221489083" lon="14.8359926697"><ele>1.58</ele><time>2011-10-11T01:30:52Z</time></trkpt><trkpt lat="44.2221486568" lon="14.8359924182"><ele>1.10</ele><time>2011-10-11T01:31:23Z</time></trkpt><trkpt lat="44.2221486568" lon="14.8359924182"><ele>1.10</ele><time>2011-10-11T01:31:58Z</time></trkpt><trkpt lat="44.2221455555" lon="14.8359971121"><ele>1.58</ele><time>2011-10-11T01:32:31Z</time></trkpt><trkpt lat="44.2221471481" lon="14.8360016383"><ele>1.58</ele><time>2011-10-11T01:33:03Z</time></trkpt><trkpt lat="44.2221488245" lon="14.8360064998"><ele>1.58</ele><time>2011-10-11T01:33:37Z</time></trkpt><trkpt lat="44.2221513391" lon="14.8360083438"><ele>1.58</ele><time>2011-10-11T01:34:07Z</time></trkpt><trkpt lat="44.2221513391" lon="14.8360083438"><ele>1.58</ele><time>2011-10-11T01:34:42Z</time></trkpt><trkpt lat="44.2221510038" lon="14.8360076733"><ele>1.10</ele><time>2011-10-11T01:35:14Z</time></trkpt><trkpt lat="44.2221532669" lon="14.8360144626"><ele>0.62</ele><time>2011-10-11T01:35:48Z</time></trkpt><trkpt lat="44.2221535183" lon="14.8360188212"><ele>0.62</ele><time>2011-10-11T01:36:18Z</time></trkpt><trkpt lat="44.2221537698" lon="14.8360256106"><ele>0.62</ele><time>2011-10-11T01:36:51Z</time></trkpt><trkpt lat="44.2221537698" lon="14.8360256106"><ele>0.62</ele><time>2011-10-11T01:37:21Z</time></trkpt><trkpt lat="44.2221569549" lon="14.8360315617"><ele>0.62</ele><time>2011-10-11T01:37:52Z</time></trkpt><trkpt lat="44.2221615650" lon="14.8360392731"><ele>0.62</ele><time>2011-10-11T01:38:28Z</time></trkpt><trkpt lat="44.2221636605" lon="14.8360426258"><ele>0.14</ele><time>2011-10-11T01:38:56Z</time></trkpt><trkpt lat="44.2221660912" lon="14.8360457271"><ele>0.62</ele><time>2011-10-11T01:39:25Z</time></trkpt><trkpt lat="44.2221660912" lon="14.8360457271"><ele>0.62</ele><time>2011-10-11T01:39:53Z</time></trkpt><trkpt lat="44.2221640795" lon="14.8360477388"><ele>0.62</ele><time>2011-10-11T01:40:23Z</time></trkpt><trkpt lat="44.2221635766" lon="14.8360474873"><ele>0.62</ele><time>2011-10-11T01:40:55Z</time></trkpt><trkpt lat="44.2221647501" lon="14.8360533547"><ele>0.14</ele><time>2011-10-11T01:41:27Z</time></trkpt><trkpt lat="44.2221647501" lon="14.8360533547"><ele>0.14</ele><time>2011-10-11T01:42:02Z</time></trkpt><trkpt lat="44.2221672647" lon="14.8360584676"><ele>0.62</ele><time>2011-10-11T01:42:35Z</time></trkpt><trkpt lat="44.2221723776" lon="14.8360612337"><ele>0.14</ele><time>2011-10-11T01:43:10Z</time></trkpt><trkpt lat="44.2221721262" lon="14.8360649217"><ele>0.14</ele><time>2011-10-11T01:43:41Z</time></trkpt><trkpt lat="44.2221727129" lon="14.8360662628"><ele>0.14</ele><time>2011-10-11T01:44:16Z</time></trkpt><trkpt lat="44.2221756466" lon="14.8360667657"><ele>0.14</ele><time>2011-10-11T01:44:51Z</time></trkpt><trkpt lat="44.2221717071" lon="14.8360633291"><ele>-0.34</ele><time>2011-10-11T01:45:23Z</time></trkpt><trkpt lat="44.2221717071" lon="14.8360633291"><ele>-0.34</ele><time>2011-10-11T01:45:51Z</time></trkpt><trkpt lat="44.2221679352" lon="14.8360567912"><ele>-0.82</ele><time>2011-10-11T01:46:20Z</time></trkpt><trkpt lat="44.2221659236" lon="14.8360549472"><ele>-0.82</ele><time>2011-10-11T01:46:50Z</time></trkpt><trkpt lat="44.2221659236" lon="14.8360549472"><ele>-0.82</ele><time>2011-10-11T01:47:22Z</time></trkpt><trkpt lat="44.2221648339" lon="14.8360632453"><ele>-1.30</ele><time>2011-10-11T01:47:54Z</time></trkpt><trkpt lat="44.2221674323" lon="14.8360641673"><ele>-1.30</ele><time>2011-10-11T01:48:23Z</time></trkpt><trkpt lat="44.2221705336" lon="14.8360685259"><ele>-1.30</ele><time>2011-10-11T01:48:52Z</time></trkpt><trkpt lat="44.2221743893" lon="14.8360796738"><ele>-1.30</ele><time>2011-10-11T01:49:28Z</time></trkpt><trkpt lat="44.2221743893" lon="14.8360796738"><ele>-1.30</ele><time>2011-10-11T01:50:01Z</time></trkpt><trkpt lat="44.2221781611" lon="14.8360804282"><ele>-1.79</ele><time>2011-10-11T01:50:34Z</time></trkpt><trkpt lat="44.2221788317" lon="14.8360817693"><ele>-1.79</ele><time>2011-10-11T01:51:06Z</time></trkpt><trkpt lat="44.2221847828" lon="14.8360806797"><ele>-2.27</ele><time>2011-10-11T01:51:36Z</time></trkpt><trkpt lat="44.2221823521" lon="14.8360765725"><ele>-2.27</ele><time>2011-10-11T01:52:05Z</time></trkpt><trkpt lat="44.2221823521" lon="14.8360765725"><ele>-2.27</ele><time>2011-10-11T01:52:33Z</time></trkpt><trkpt lat="44.2221810948" lon="14.8360759020"><ele>-2.27</ele><time>2011-10-11T01:53:01Z</time></trkpt><trkpt lat="44.2221797537" lon="14.8360741418"><ele>-2.27</ele><time>2011-10-11T01:53:32Z</time></trkpt><trkpt lat="44.2221787479" lon="14.8360728007"><ele>-2.27</ele><time>2011-10-11T01:54:06Z</time></trkpt><trkpt lat="44.2221787479" lon="14.8360728007"><ele>-2.27</ele><time>2011-10-11T01:54:36Z</time></trkpt><trkpt lat="44.2221739702" lon="14.8360635806"><ele>-1.79</ele><time>2011-10-11T01:55:07Z</time></trkpt><trkpt lat="44.2221720424" lon="14.8360507563"><ele>-2.27</ele><time>2011-10-11T01:55:38Z</time></trkpt><trkpt lat="44.2221717071" lon="14.8360438831"><ele>-2.27</ele><time>2011-10-11T01:56:07Z</time></trkpt><trkpt lat="44.2221717071" lon="14.8360438831"><ele>-2.27</ele><time>2011-10-11T01:56:34Z</time></trkpt><trkpt lat="44.2221704498" lon="14.8360422067"><ele>-2.27</ele><time>2011-10-11T01:56:58Z</time></trkpt><trkpt lat="44.2221706174" lon="14.8360426258"><ele>-2.27</ele><time>2011-10-11T01:57:23Z</time></trkpt><trkpt lat="44.2221706174" lon="14.8360426258"><ele>-2.27</ele><time>2011-10-11T01:57:49Z</time></trkpt><trkpt lat="44.2221680190" lon="14.8360381834"><ele>-2.27</ele><time>2011-10-11T01:58:17Z</time></trkpt><trkpt lat="44.2221619003" lon="14.8360343277"><ele>-2.27</ele><time>2011-10-11T01:58:44Z</time></trkpt><trkpt lat="44.2221619003" lon="14.8360343277"><ele>-2.27</ele><time>2011-10-11T01:59:15Z</time></trkpt><trkpt lat="44.2221608106" lon="14.8360256944"><ele>-1.79</ele><time>2011-10-11T01:59:44Z</time></trkpt><trkpt lat="44.2221611459" lon="14.8360218387"><ele>-2.27</ele><time>2011-10-11T02:00:09Z</time></trkpt><trkpt lat="44.2221611459" lon="14.8360218387"><ele>-2.27</ele><time>2011-10-11T02:00:36Z</time></trkpt><trkpt lat="44.2221624870" lon="14.8360213358"><ele>-2.27</ele><time>2011-10-11T02:01:06Z</time></trkpt><trkpt lat="44.2221591342" lon="14.8360318970"><ele>-2.27</ele><time>2011-10-11T02:01:31Z</time></trkpt><trkpt lat="44.2221609782" lon="14.8360396083"><ele>-2.27</ele><time>2011-10-11T02:02:03Z</time></trkpt><trkpt lat="44.2221609782" lon="14.8360396083"><ele>-2.27</ele><time>2011-10-11T02:02:33Z</time></trkpt><trkpt lat="44.2221591342" lon="14.8360399436"><ele>-2.27</ele><time>2011-10-11T02:03:05Z</time></trkpt><trkpt lat="44.2221560329" lon="14.8360344954"><ele>-2.27</ele><time>2011-10-11T02:03:37Z</time></trkpt><trkpt lat="44.2221589666" lon="14.8360369261"><ele>-1.79</ele><time>2011-10-11T02:04:05Z</time></trkpt><trkpt lat="44.2221589666" lon="14.8360369261"><ele>-1.79</ele><time>2011-10-11T02:04:35Z</time></trkpt><trkpt lat="44.2221571226" lon="14.8360380996"><ele>-1.79</ele><time>2011-10-11T02:05:06Z</time></trkpt><trkpt lat="44.2221570387" lon="14.8360374290"><ele>-1.79</ele><time>2011-10-11T02:05:37Z</time></trkpt><trkpt lat="44.2221568711" lon="14.8360329866"><ele>-2.27</ele><time>2011-10-11T02:06:04Z</time></trkpt><trkpt lat="44.2221568711" lon="14.8360329866"><ele>-2.27</ele><time>2011-10-11T02:06:34Z</time></trkpt><trkpt lat="44.2221551109" lon="14.8360344954"><ele>-2.75</ele><time>2011-10-11T02:07:08Z</time></trkpt><trkpt lat="44.2221553624" lon="14.8360370100"><ele>-2.75</ele><time>2011-10-11T02:07:40Z</time></trkpt><trkpt lat="44.2221550271" lon="14.8360422906"><ele>-2.75</ele><time>2011-10-11T02:08:13Z</time></trkpt><trkpt lat="44.2221553624" lon="14.8360447213"><ele>-2.75</ele><time>2011-10-11T02:08:44Z</time></trkpt><trkpt lat="44.2221553624" lon="14.8360447213"><ele>-2.75</ele><time>2011-10-11T02:09:20Z</time></trkpt><trkpt lat="44.2221577931" lon="14.8360502534"><ele>-3.23</ele><time>2011-10-11T02:09:50Z</time></trkpt><trkpt lat="44.2221581284" lon="14.8360562883"><ele>-3.71</ele><time>2011-10-11T02:10:19Z</time></trkpt><trkpt lat="44.2221623193" lon="14.8360623233"><ele>-3.23</ele><time>2011-10-11T02:10:47Z</time></trkpt><trkpt lat="44.2221623193" lon="14.8360623233"><ele>-3.23</ele><time>2011-10-11T02:11:22Z</time></trkpt><trkpt lat="44.2221664265" lon="14.8360680230"><ele>-3.71</ele><time>2011-10-11T02:11:51Z</time></trkpt><trkpt lat="44.2221717071" lon="14.8360756505"><ele>-3.23</ele><time>2011-10-11T02:12:22Z</time></trkpt><trkpt lat="44.2221820168" lon="14.8360763211"><ele>-2.75</ele><time>2011-10-11T02:12:52Z</time></trkpt><trkpt lat="44.2221820168" lon="14.8360763211"><ele>-2.75</ele><time>2011-10-11T02:13:22Z</time></trkpt><trkpt lat="44.2221853696" lon="14.8360770755"><ele>-2.75</ele><time>2011-10-11T02:13:55Z</time></trkpt><trkpt lat="44.2221855372" lon="14.8360785004"><ele>-2.75</ele><time>2011-10-11T02:14:30Z</time></trkpt><trkpt lat="44.2221866269" lon="14.8360831942"><ele>-2.75</ele><time>2011-10-11T02:15:02Z</time></trkpt><trkpt lat="44.2221876327" lon="14.8360854574"><ele>-2.75</ele><time>2011-10-11T02:15:32Z</time></trkpt><trkpt lat="44.2221876327" lon="14.8360854574"><ele>-2.75</ele><time>2011-10-11T02:16:02Z</time></trkpt><trkpt lat="44.2221900634" lon="14.8360898998"><ele>-2.75</ele><time>2011-10-11T02:16:28Z</time></trkpt><trkpt lat="44.2221966013" lon="14.8361018021"><ele>-2.75</ele><time>2011-10-11T02:16:54Z</time></trkpt><trkpt lat="44.2221966013" lon="14.8361018021"><ele>-2.75</ele><time>2011-10-11T02:17:20Z</time></trkpt><trkpt lat="44.2221985292" lon="14.8361032270"><ele>-2.75</ele><time>2011-10-11T02:17:43Z</time></trkpt><trkpt lat="44.2221996188" lon="14.8361048196"><ele>-2.75</ele><time>2011-10-11T02:18:09Z</time></trkpt><trkpt lat="44.2221996188" lon="14.8361048196"><ele>-2.75</ele><time>2011-10-11T02:18:35Z</time></trkpt><trkpt lat="44.2221994512" lon="14.8361054901"><ele>-2.75</ele><time>2011-10-11T02:19:08Z</time></trkpt><trkpt lat="44.2221981939" lon="14.8361051548"><ele>-3.23</ele><time>2011-10-11T02:19:37Z</time></trkpt><trkpt lat="44.2221994512" lon="14.8361063283"><ele>-3.23</ele><time>2011-10-11T02:20:04Z</time></trkpt><trkpt lat="44.2221994512" lon="14.8361063283"><ele>-3.23</ele><time>2011-10-11T02:20:29Z</time></trkpt><trkpt lat="44.2221973557" lon="14.8361043166"><ele>-3.23</ele><time>2011-10-11T02:20:53Z</time></trkpt><trkpt lat="44.2221973557" lon="14.8361043166"><ele>-3.23</ele><time>2011-10-11T02:21:20Z</time></trkpt><trkpt lat="44.2221959308" lon="14.8361042328"><ele>-3.23</ele><time>2011-10-11T02:21:43Z</time></trkpt><trkpt lat="44.2221962661" lon="14.8361065798"><ele>-3.71</ele><time>2011-10-11T02:22:09Z</time></trkpt><trkpt lat="44.2221962661" lon="14.8361065798"><ele>-3.71</ele><time>2011-10-11T02:22:34Z</time></trkpt><trkpt lat="44.2221935000" lon="14.8361016344"><ele>-3.23</ele><time>2011-10-11T02:23:03Z</time></trkpt><trkpt lat="44.2221922427" lon="14.8361023050"><ele>-3.71</ele><time>2011-10-11T02:23:35Z</time></trkpt><trkpt lat="44.2221922427" lon="14.8361023050"><ele>-3.71</ele><time>2011-10-11T02:24:02Z</time></trkpt><trkpt lat="44.2221919075" lon="14.8361023888"><ele>-3.71</ele><time>2011-10-11T02:24:22Z</time></trkpt><trkpt lat="44.2221919075" lon="14.8361034784"><ele>-3.71</ele><time>2011-10-11T02:24:52Z</time></trkpt><trkpt lat="44.2221919075" lon="14.8361034784"><ele>-3.71</ele><time>2011-10-11T02:25:19Z</time></trkpt><trkpt lat="44.2221893091" lon="14.8361027241"><ele>-3.71</ele><time>2011-10-11T02:25:47Z</time></trkpt><trkpt lat="44.2221823521" lon="14.8361004610"><ele>-3.71</ele><time>2011-10-11T02:26:18Z</time></trkpt><trkpt lat="44.2221769039" lon="14.8361002095"><ele>-4.19</ele><time>2011-10-11T02:26:50Z</time></trkpt><trkpt lat="44.2221769039" lon="14.8361002095"><ele>-4.19</ele><time>2011-10-11T02:27:18Z</time></trkpt><trkpt lat="44.2221755628" lon="14.8360984493"><ele>-4.19</ele><time>2011-10-11T02:27:46Z</time></trkpt><trkpt lat="44.2221717909" lon="14.8360955995"><ele>-4.19</ele><time>2011-10-11T02:28:14Z</time></trkpt><trkpt lat="44.2221686896" lon="14.8360900674"><ele>-4.19</ele><time>2011-10-11T02:28:48Z</time></trkpt><trkpt lat="44.2221686896" lon="14.8360900674"><ele>-4.19</ele><time>2011-10-11T02:29:21Z</time></trkpt><trkpt lat="44.2221632414" lon="14.8360864632"><ele>-4.19</ele><time>2011-10-11T02:29:56Z</time></trkpt><trkpt lat="44.2221626546" lon="14.8360844515"><ele>-4.19</ele><time>2011-10-11T02:30:26Z</time></trkpt><trkpt lat="44.2221641634" lon="14.8360840324"><ele>-4.19</ele><time>2011-10-11T02:30:57Z</time></trkpt><trkpt lat="44.2221655883" lon="14.8360867985"><ele>-3.71</ele><time>2011-10-11T02:31:31Z</time></trkpt><trkpt lat="44.2221655883" lon="14.8360867985"><ele>-3.71</ele><time>2011-10-11T02:32:00Z</time></trkpt><trkpt lat="44.2221660912" lon="14.8360877205"><ele>-3.71</ele><time>2011-10-11T02:32:26Z</time></trkpt><trkpt lat="44.2221660074" lon="14.8360904027"><ele>-3.71</ele><time>2011-10-11T02:32:53Z</time></trkpt><trkpt lat="44.2221660074" lon="14.8360904027"><ele>-3.71</ele><time>2011-10-11T02:33:22Z</time></trkpt><trkpt lat="44.2221642472" lon="14.8360866308"><ele>-4.19</ele><time>2011-10-11T02:33:52Z</time></trkpt><trkpt lat="44.2221624032" lon="14.8360805959"><ele>-4.19</ele><time>2011-10-11T02:34:20Z</time></trkpt><trkpt lat="44.2221612297" lon="14.8360796738"><ele>-4.19</ele><time>2011-10-11T02:34:54Z</time></trkpt><trkpt lat="44.2221648339" lon="14.8360824399"><ele>-4.67</ele><time>2011-10-11T02:35:26Z</time></trkpt><trkpt lat="44.2221648339" lon="14.8360824399"><ele>-4.67</ele><time>2011-10-11T02:35:59Z</time></trkpt><trkpt lat="44.2221621517" lon="14.8360832781"><ele>-4.67</ele><time>2011-10-11T02:36:31Z</time></trkpt><trkpt lat="44.2221634928" lon="14.8360838648"><ele>-4.67</ele><time>2011-10-11T02:37:01Z</time></trkpt><trkpt lat="44.2221649177" lon="14.8360834457"><ele>-5.15</ele><time>2011-10-11T02:37:37Z</time></trkpt><trkpt lat="44.2221664265" lon="14.8360868823"><ele>-5.15</ele><time>2011-10-11T02:38:12Z</time></trkpt><trkpt lat="44.2221695278" lon="14.8360889778"><ele>-5.15</ele><time>2011-10-11T02:38:45Z</time></trkpt><trkpt lat="44.2221695278" lon="14.8360889778"><ele>-5.15</ele><time>2011-10-11T02:39:18Z</time></trkpt><trkpt lat="44.2221703660" lon="14.8360879719"><ele>-4.67</ele><time>2011-10-11T02:39:48Z</time></trkpt><trkpt lat="44.2221752275" lon="14.8360909894"><ele>-4.67</ele><time>2011-10-11T02:40:22Z</time></trkpt><trkpt lat="44.2221758142" lon="14.8360900674"><ele>-4.67</ele><time>2011-10-11T02:40:54Z</time></trkpt><trkpt lat="44.2221755628" lon="14.8360899836"><ele>-4.67</ele><time>2011-10-11T02:41:24Z</time></trkpt><trkpt lat="44.2221755628" lon="14.8360899836"><ele>-4.67</ele><time>2011-10-11T02:42:02Z</time></trkpt><trkpt lat="44.2221770715" lon="14.8360892292"><ele>-4.19</ele><time>2011-10-11T02:42:33Z</time></trkpt><trkpt lat="44.2221770715" lon="14.8360904865"><ele>-4.19</ele><time>2011-10-11T02:43:11Z</time></trkpt><trkpt lat="44.2221781611" lon="14.8360938393"><ele>-4.19</ele><time>2011-10-11T02:43:47Z</time></trkpt><trkpt lat="44.2221789155" lon="14.8360977788"><ele>-4.19</ele><time>2011-10-11T02:44:24Z</time></trkpt><trkpt lat="44.2221806757" lon="14.8360984493"><ele>-4.19</ele><time>2011-10-11T02:44:59Z</time></trkpt><trkpt lat="44.2221819330" lon="14.8360935040"><ele>-3.71</ele><time>2011-10-11T02:45:27Z</time></trkpt><trkpt lat="44.2221819330" lon="14.8360935040"><ele>-3.71</ele><time>2011-10-11T02:45:54Z</time></trkpt><trkpt lat="44.2221830226" lon="14.8360926658"><ele>-3.71</ele><time>2011-10-11T02:46:28Z</time></trkpt><trkpt lat="44.2221828550" lon="14.8360920791"><ele>-3.71</ele><time>2011-10-11T02:47:02Z</time></trkpt><trkpt lat="44.2221796699" lon="14.8360893968"><ele>-3.23</ele><time>2011-10-11T02:47:33Z</time></trkpt><trkpt lat="44.2221774068" lon="14.8360885587"><ele>-3.23</ele><time>2011-10-11T02:48:06Z</time></trkpt><trkpt lat="44.2221774068" lon="14.8360885587"><ele>-3.23</ele><time>2011-10-11T02:48:38Z</time></trkpt><trkpt lat="44.2221781611" lon="14.8360894807"><ele>-3.23</ele><time>2011-10-11T02:49:10Z</time></trkpt><trkpt lat="44.2221778259" lon="14.8360879719"><ele>-3.71</ele><time>2011-10-11T02:49:41Z</time></trkpt><trkpt lat="44.2221802566" lon="14.8360912409"><ele>-3.71</ele><time>2011-10-11T02:50:10Z</time></trkpt><trkpt lat="44.2221802566" lon="14.8360912409"><ele>-3.71</ele><time>2011-10-11T02:50:42Z</time></trkpt><trkpt lat="44.2221784126" lon="14.8360933363"><ele>-3.23</ele><time>2011-10-11T02:51:22Z</time></trkpt><trkpt lat="44.2221794184" lon="14.8360929172"><ele>-3.23</ele><time>2011-10-11T02:51:55Z</time></trkpt><trkpt lat="44.2221790832" lon="14.8360930849"><ele>-3.23</ele><time>2011-10-11T02:52:34Z</time></trkpt><trkpt lat="44.2221771553" lon="14.8360895645"><ele>-3.23</ele><time>2011-10-11T02:53:06Z</time></trkpt><trkpt lat="44.2221765686" lon="14.8360878881"><ele>-3.23</ele><time>2011-10-11T02:53:39Z</time></trkpt><trkpt lat="44.2221760657" lon="14.8360867146"><ele>-3.71</ele><time>2011-10-11T02:54:15Z</time></trkpt><trkpt lat="44.2221769877" lon="14.8360851221"><ele>-3.23</ele><time>2011-10-11T02:54:46Z</time></trkpt><trkpt lat="44.2221769877" lon="14.8360851221"><ele>-3.23</ele><time>2011-10-11T02:55:20Z</time></trkpt><trkpt lat="44.2221777420" lon="14.8360846192"><ele>-3.23</ele><time>2011-10-11T02:55:56Z</time></trkpt><trkpt lat="44.2221767362" lon="14.8360816017"><ele>-3.23</ele><time>2011-10-11T02:56:29Z</time></trkpt><trkpt lat="44.2221761495" lon="14.8360812664"><ele>-3.23</ele><time>2011-10-11T02:57:03Z</time></trkpt><trkpt lat="44.2221766524" lon="14.8360807635"><ele>-3.71</ele><time>2011-10-11T02:57:33Z</time></trkpt><trkpt lat="44.2221758980" lon="14.8360783327"><ele>-3.71</ele><time>2011-10-11T02:58:09Z</time></trkpt><trkpt lat="44.2221758980" lon="14.8360783327"><ele>-3.71</ele><time>2011-10-11T02:58:37Z</time></trkpt><trkpt lat="44.2221766524" lon="14.8360788357"><ele>-3.71</ele><time>2011-10-11T02:59:07Z</time></trkpt><trkpt lat="44.2221766524" lon="14.8360790871"><ele>-3.71</ele><time>2011-10-11T02:59:40Z</time></trkpt><trkpt lat="44.2221773230" lon="14.8360776622"><ele>-3.71</ele><time>2011-10-11T03:00:08Z</time></trkpt><trkpt lat="44.2221773230" lon="14.8360776622"><ele>-3.71</ele><time>2011-10-11T03:00:38Z</time></trkpt><trkpt lat="44.2221779935" lon="14.8360769078"><ele>-3.71</ele><time>2011-10-11T03:01:14Z</time></trkpt><trkpt lat="44.2221770715" lon="14.8360763211"><ele>-3.71</ele><time>2011-10-11T03:01:47Z</time></trkpt><trkpt lat="44.2221775744" lon="14.8360745609"><ele>-3.71</ele><time>2011-10-11T03:02:17Z</time></trkpt><trkpt lat="44.2221760657" lon="14.8360717110"><ele>-3.71</ele><time>2011-10-11T03:02:54Z</time></trkpt><trkpt lat="44.2221745569" lon="14.8360697832"><ele>-4.19</ele><time>2011-10-11T03:03:29Z</time></trkpt><trkpt lat="44.2221768200" lon="14.8360726330"><ele>-4.19</ele><time>2011-10-11T03:04:07Z</time></trkpt><trkpt lat="44.2221768200" lon="14.8360726330"><ele>-4.19</ele><time>2011-10-11T03:04:42Z</time></trkpt><trkpt lat="44.2221829388" lon="14.8360795900"><ele>-4.19</ele><time>2011-10-11T03:05:20Z</time></trkpt><trkpt lat="44.2221836094" lon="14.8360809311"><ele>-4.67</ele><time>2011-10-11T03:05:53Z</time></trkpt><trkpt lat="44.2221837770" lon="14.8360817693"><ele>-4.67</ele><time>2011-10-11T03:06:30Z</time></trkpt><trkpt lat="44.2221899796" lon="14.8360798415"><ele>-4.67</ele><time>2011-10-11T03:07:02Z</time></trkpt><trkpt lat="44.2221891414" lon="14.8360835295"><ele>-4.67</ele><time>2011-10-11T03:07:36Z</time></trkpt><trkpt lat="44.2221923266" lon="14.8360897321"><ele>-4.67</ele><time>2011-10-11T03:08:10Z</time></trkpt><trkpt lat="44.2221906502" lon="14.8360914923"><ele>-4.67</ele><time>2011-10-11T03:08:44Z</time></trkpt><trkpt lat="44.2221906502" lon="14.8360914923"><ele>-4.67</ele><time>2011-10-11T03:09:15Z</time></trkpt><trkpt lat="44.2221882194" lon="14.8360935878"><ele>-4.67</ele><time>2011-10-11T03:09:51Z</time></trkpt><trkpt lat="44.2221873812" lon="14.8360942584"><ele>-4.67</ele><time>2011-10-11T03:10:24Z</time></trkpt><trkpt lat="44.2221872136" lon="14.8360918276"><ele>-4.67</ele><time>2011-10-11T03:11:06Z</time></trkpt><trkpt lat="44.2221826874" lon="14.8360877205"><ele>-4.67</ele><time>2011-10-11T03:11:38Z</time></trkpt><trkpt lat="44.2221810110" lon="14.8360850383"><ele>-4.67</ele><time>2011-10-11T03:12:11Z</time></trkpt><trkpt lat="44.2221755628" lon="14.8360785842"><ele>-4.67</ele><time>2011-10-11T03:12:44Z</time></trkpt><trkpt lat="44.2221722100" lon="14.8360742256"><ele>-4.67</ele><time>2011-10-11T03:13:23Z</time></trkpt><trkpt lat="44.2221722100" lon="14.8360742256"><ele>-4.67</ele><time>2011-10-11T03:13:58Z</time></trkpt><trkpt lat="44.2221694440" lon="14.8360688612"><ele>-4.67</ele><time>2011-10-11T03:14:33Z</time></trkpt><trkpt lat="44.2221603915" lon="14.8360546120"><ele>-4.67</ele><time>2011-10-11T03:15:08Z</time></trkpt><trkpt lat="44.2221584637" lon="14.8360477388"><ele>-4.67</ele><time>2011-10-11T03:15:49Z</time></trkpt><trkpt lat="44.2221581284" lon="14.8360453080"><ele>-5.15</ele><time>2011-10-11T03:16:23Z</time></trkpt><trkpt lat="44.2221587151" lon="14.8360444698"><ele>-5.15</ele><time>2011-10-11T03:16:58Z</time></trkpt><trkpt lat="44.2221592180" lon="14.8360452242"><ele>-5.15</ele><time>2011-10-11T03:17:30Z</time></trkpt><trkpt lat="44.2221596371" lon="14.8360448889"><ele>-5.15</ele><time>2011-10-11T03:18:06Z</time></trkpt><trkpt lat="44.2221596371" lon="14.8360448889"><ele>-5.15</ele><time>2011-10-11T03:18:42Z</time></trkpt><trkpt lat="44.2221596371" lon="14.8360435478"><ele>-5.15</ele><time>2011-10-11T03:19:15Z</time></trkpt><trkpt lat="44.2221605591" lon="14.8360419553"><ele>-5.15</ele><time>2011-10-11T03:19:47Z</time></trkpt><trkpt lat="44.2221608944" lon="14.8360378481"><ele>-5.15</ele><time>2011-10-11T03:20:18Z</time></trkpt><trkpt lat="44.2221585475" lon="14.8360326514"><ele>-5.15</ele><time>2011-10-11T03:20:52Z</time></trkpt><trkpt lat="44.2221577931" lon="14.8360294662"><ele>-5.63</ele><time>2011-10-11T03:21:33Z</time></trkpt><trkpt lat="44.2221555300" lon="14.8360252753"><ele>-5.63</ele><time>2011-10-11T03:22:13Z</time></trkpt><trkpt lat="44.2221529316" lon="14.8360272869"><ele>-5.63</ele><time>2011-10-11T03:22:44Z</time></trkpt><trkpt lat="44.2221529316" lon="14.8360272869"><ele>-5.63</ele><time>2011-10-11T03:23:20Z</time></trkpt><trkpt lat="44.2221521772" lon="14.8360284604"><ele>-6.11</ele><time>2011-10-11T03:23:55Z</time></trkpt><trkpt lat="44.2221525963" lon="14.8360272869"><ele>-6.11</ele><time>2011-10-11T03:24:34Z</time></trkpt><trkpt lat="44.2221517581" lon="14.8360239342"><ele>-6.11</ele><time>2011-10-11T03:25:08Z</time></trkpt><trkpt lat="44.2221530154" lon="14.8360212520"><ele>-6.11</ele><time>2011-10-11T03:25:44Z</time></trkpt><trkpt lat="44.2221542727" lon="14.8360204138"><ele>-6.11</ele><time>2011-10-11T03:26:19Z</time></trkpt><trkpt lat="44.2221558653" lon="14.8360192403"><ele>-6.11</ele><time>2011-10-11T03:26:50Z</time></trkpt><trkpt lat="44.2221558653" lon="14.8360218387"><ele>-5.63</ele><time>2011-10-11T03:27:24Z</time></trkpt><trkpt lat="44.2221558653" lon="14.8360218387"><ele>-5.63</ele><time>2011-10-11T03:27:54Z</time></trkpt><trkpt lat="44.2221573740" lon="14.8360236827"><ele>-5.63</ele><time>2011-10-11T03:28:32Z</time></trkpt><trkpt lat="44.2221644986" lon="14.8360271193"><ele>-5.63</ele><time>2011-10-11T03:29:07Z</time></trkpt><trkpt lat="44.2221687734" lon="14.8360298015"><ele>-5.63</ele><time>2011-10-11T03:29:43Z</time></trkpt><trkpt lat="44.2221639119" lon="14.8360287957"><ele>-5.63</ele><time>2011-10-11T03:30:24Z</time></trkpt><trkpt lat="44.2221616488" lon="14.8360308073"><ele>-5.63</ele><time>2011-10-11T03:30:58Z</time></trkpt><trkpt lat="44.2221569549" lon="14.8360438831"><ele>-5.15</ele><time>2011-10-11T03:31:34Z</time></trkpt><trkpt lat="44.2221549433" lon="14.8360465653"><ele>-4.67</ele><time>2011-10-11T03:32:08Z</time></trkpt><trkpt lat="44.2221548595" lon="14.8360469006"><ele>-4.67</ele><time>2011-10-11T03:32:45Z</time></trkpt><trkpt lat="44.2221548595" lon="14.8360469006"><ele>-4.67</ele><time>2011-10-11T03:33:19Z</time></trkpt><trkpt lat="44.2221548595" lon="14.8360455595"><ele>-4.67</ele><time>2011-10-11T03:33:51Z</time></trkpt><trkpt lat="44.2221565358" lon="14.8360450566"><ele>-4.67</ele><time>2011-10-11T03:34:25Z</time></trkpt><trkpt lat="44.2221574578" lon="14.8360454757"><ele>-4.19</ele><time>2011-10-11T03:34:58Z</time></trkpt><trkpt lat="44.2221569549" lon="14.8360448051"><ele>-4.19</ele><time>2011-10-11T03:35:30Z</time></trkpt><trkpt lat="44.2221577931" lon="14.8360494990"><ele>-4.67</ele><time>2011-10-11T03:36:03Z</time></trkpt><trkpt lat="44.2221577931" lon="14.8360494990"><ele>-4.67</ele><time>2011-10-11T03:36:35Z</time></trkpt><trkpt lat="44.2221550271" lon="14.8360479902"><ele>-4.67</ele><time>2011-10-11T03:37:07Z</time></trkpt><trkpt lat="44.2221552785" lon="14.8360481579"><ele>-4.67</ele><time>2011-10-11T03:37:39Z</time></trkpt><trkpt lat="44.2221540213" lon="14.8360511754"><ele>-4.67</ele><time>2011-10-11T03:38:15Z</time></trkpt><trkpt lat="44.2221553624" lon="14.8360495828"><ele>-4.67</ele><time>2011-10-11T03:38:51Z</time></trkpt><trkpt lat="44.2221553624" lon="14.8360495828"><ele>-4.67</ele><time>2011-10-11T03:39:19Z</time></trkpt><trkpt lat="44.2221544404" lon="14.8360496666"><ele>-4.19</ele><time>2011-10-11T03:39:57Z</time></trkpt><trkpt lat="44.2221542727" lon="14.8360517621"><ele>-4.19</ele><time>2011-10-11T03:40:34Z</time></trkpt><trkpt lat="44.2221543565" lon="14.8360496666"><ele>-4.67</ele><time>2011-10-11T03:41:07Z</time></trkpt><trkpt lat="44.2221538536" lon="14.8360488284"><ele>-4.67</ele><time>2011-10-11T03:41:38Z</time></trkpt><trkpt lat="44.2221525963" lon="14.8360468168"><ele>-5.15</ele><time>2011-10-11T03:42:13Z</time></trkpt><trkpt lat="44.2221526802" lon="14.8360520974"><ele>-4.67</ele><time>2011-10-11T03:42:47Z</time></trkpt><trkpt lat="44.2221526802" lon="14.8360520974"><ele>-4.67</ele><time>2011-10-11T03:43:22Z</time></trkpt><trkpt lat="44.2221525125" lon="14.8360562883"><ele>-4.19</ele><time>2011-10-11T03:43:57Z</time></trkpt><trkpt lat="44.2221547756" lon="14.8360700347"><ele>-4.67</ele><time>2011-10-11T03:44:30Z</time></trkpt><trkpt lat="44.2221616488" lon="14.8360729683"><ele>-4.19</ele><time>2011-10-11T03:45:11Z</time></trkpt><trkpt lat="44.2221642472" lon="14.8360747285"><ele>-4.67</ele><time>2011-10-11T03:45:45Z</time></trkpt><trkpt lat="44.2221643310" lon="14.8360742256"><ele>-4.19</ele><time>2011-10-11T03:46:21Z</time></trkpt><trkpt lat="44.2221654207" lon="14.8360742256"><ele>-4.19</ele><time>2011-10-11T03:46:56Z</time></trkpt><trkpt lat="44.2221634928" lon="14.8360722978"><ele>-3.71</ele><time>2011-10-11T03:47:26Z</time></trkpt><trkpt lat="44.2221634928" lon="14.8360722978"><ele>-3.71</ele><time>2011-10-11T03:47:57Z</time></trkpt><trkpt lat="44.2221632414" lon="14.8360701185"><ele>-3.71</ele><time>2011-10-11T03:48:33Z</time></trkpt><trkpt lat="44.2221635766" lon="14.8360691126"><ele>-3.71</ele><time>2011-10-11T03:49:08Z</time></trkpt><trkpt lat="44.2221639957" lon="14.8360688612"><ele>-3.71</ele><time>2011-10-11T03:49:42Z</time></trkpt><trkpt lat="44.2221665941" lon="14.8360642511"><ele>-3.71</ele><time>2011-10-11T03:50:19Z</time></trkpt><trkpt lat="44.2221661750" lon="14.8360622395"><ele>-3.71</ele><time>2011-10-11T03:50:54Z</time></trkpt><trkpt lat="44.2221665941" lon="14.8360623233"><ele>-3.71</ele><time>2011-10-11T03:51:31Z</time></trkpt><trkpt lat="44.2221676838" lon="14.8360613175"><ele>-3.71</ele><time>2011-10-11T03:52:05Z</time></trkpt><trkpt lat="44.2221675161" lon="14.8360599764"><ele>-3.71</ele><time>2011-10-11T03:52:44Z</time></trkpt><trkpt lat="44.2221675161" lon="14.8360599764"><ele>-3.71</ele><time>2011-10-11T03:53:15Z</time></trkpt><trkpt lat="44.2221675161" lon="14.8360626586"><ele>-3.71</ele><time>2011-10-11T03:53:48Z</time></trkpt><trkpt lat="44.2221676838" lon="14.8360628262"><ele>-3.71</ele><time>2011-10-11T03:54:23Z</time></trkpt><trkpt lat="44.2221671809" lon="14.8360635806"><ele>-3.23</ele><time>2011-10-11T03:54:55Z</time></trkpt><trkpt lat="44.2221666779" lon="14.8360588029"><ele>-3.23</ele><time>2011-10-11T03:55:28Z</time></trkpt><trkpt lat="44.2221666779" lon="14.8360588029"><ele>-3.23</ele><time>2011-10-11T03:56:00Z</time></trkpt><trkpt lat="44.2221660912" lon="14.8360577971"><ele>-3.23</ele><time>2011-10-11T03:56:32Z</time></trkpt><trkpt lat="44.2221670970" lon="14.8360595573"><ele>-2.75</ele><time>2011-10-11T03:57:13Z</time></trkpt><trkpt lat="44.2221668456" lon="14.8360569589"><ele>-2.75</ele><time>2011-10-11T03:57:52Z</time></trkpt><trkpt lat="44.2221715394" lon="14.8360600602"><ele>-2.75</ele><time>2011-10-11T03:58:25Z</time></trkpt><trkpt lat="44.2221695278" lon="14.8360599764"><ele>-2.75</ele><time>2011-10-11T03:58:55Z</time></trkpt><trkpt lat="44.2221704498" lon="14.8360613175"><ele>-2.27</ele><time>2011-10-11T03:59:29Z</time></trkpt><trkpt lat="44.2221704498" lon="14.8360613175"><ele>-2.27</ele><time>2011-10-11T04:00:02Z</time></trkpt><trkpt lat="44.2221686896" lon="14.8360605631"><ele>-2.27</ele><time>2011-10-11T04:00:41Z</time></trkpt><trkpt lat="44.2221646663" lon="14.8360571265"><ele>-2.75</ele><time>2011-10-11T04:01:18Z</time></trkpt><trkpt lat="44.2221630737" lon="14.8360550310"><ele>-2.75</ele><time>2011-10-11T04:01:55Z</time></trkpt><trkpt lat="44.2221584637" lon="14.8360526003"><ele>-2.75</ele><time>2011-10-11T04:02:33Z</time></trkpt><trkpt lat="44.2221581284" lon="14.8360503372"><ele>-2.75</ele><time>2011-10-11T04:03:11Z</time></trkpt><trkpt lat="44.2221590504" lon="14.8360442184"><ele>-2.75</ele><time>2011-10-11T04:03:48Z</time></trkpt><trkpt lat="44.2221594695" lon="14.8360416200"><ele>-2.75</ele><time>2011-10-11T04:04:24Z</time></trkpt><trkpt lat="44.2221592180" lon="14.8360440508"><ele>-2.75</ele><time>2011-10-11T04:05:00Z</time></trkpt><trkpt lat="44.2221602239" lon="14.8360431287"><ele>-2.75</ele><time>2011-10-11T04:05:30Z</time></trkpt><trkpt lat="44.2221597210" lon="14.8360417038"><ele>-2.75</ele><time>2011-10-11T04:06:04Z</time></trkpt><trkpt lat="44.2221597210" lon="14.8360417038"><ele>-2.75</ele><time>2011-10-11T04:06:41Z</time></trkpt><trkpt lat="44.2221617326" lon="14.8360423744"><ele>-2.75</ele><time>2011-10-11T04:07:15Z</time></trkpt><trkpt lat="44.2221607268" lon="14.8360397760"><ele>-3.23</ele><time>2011-10-11T04:07:53Z</time></trkpt><trkpt lat="44.2221604753" lon="14.8360417876"><ele>-2.75</ele><time>2011-10-11T04:08:23Z</time></trkpt><trkpt lat="44.2221585475" lon="14.8360422067"><ele>-2.75</ele><time>2011-10-11T04:08:56Z</time></trkpt><trkpt lat="44.2221584637" lon="14.8360430449"><ele>-2.75</ele><time>2011-10-11T04:09:32Z</time></trkpt><trkpt lat="44.2221578769" lon="14.8360454757"><ele>-2.75</ele><time>2011-10-11T04:10:09Z</time></trkpt><trkpt lat="44.2221578769" lon="14.8360454757"><ele>-2.75</ele><time>2011-10-11T04:10:42Z</time></trkpt><trkpt lat="44.2221577931" lon="14.8360494990"><ele>-2.27</ele><time>2011-10-11T04:11:16Z</time></trkpt><trkpt lat="44.2221607268" lon="14.8360530194"><ele>-2.27</ele><time>2011-10-11T04:11:46Z</time></trkpt><trkpt lat="44.2221614812" lon="14.8360556178"><ele>-2.27</ele><time>2011-10-11T04:12:19Z</time></trkpt><trkpt lat="44.2221613973" lon="14.8360574618"><ele>-2.27</ele><time>2011-10-11T04:12:52Z</time></trkpt><trkpt lat="44.2221613973" lon="14.8360574618"><ele>-2.27</ele><time>2011-10-11T04:13:22Z</time></trkpt><trkpt lat="44.2221628223" lon="14.8360594735"><ele>-2.27</ele><time>2011-10-11T04:13:54Z</time></trkpt><trkpt lat="44.2221658397" lon="14.8360635806"><ele>-1.79</ele><time>2011-10-11T04:14:28Z</time></trkpt><trkpt lat="44.2221678514" lon="14.8360650055"><ele>-1.79</ele><time>2011-10-11T04:14:58Z</time></trkpt><trkpt lat="44.2221678514" lon="14.8360638320"><ele>-1.79</ele><time>2011-10-11T04:15:32Z</time></trkpt><trkpt lat="44.2221696954" lon="14.8360651731"><ele>-1.79</ele><time>2011-10-11T04:16:05Z</time></trkpt><trkpt lat="44.2221696954" lon="14.8360651731"><ele>-1.79</ele><time>2011-10-11T04:16:36Z</time></trkpt><trkpt lat="44.2221712880" lon="14.8360670172"><ele>-1.79</ele><time>2011-10-11T04:17:10Z</time></trkpt><trkpt lat="44.2221710365" lon="14.8360690288"><ele>-1.79</ele><time>2011-10-11T04:17:48Z</time></trkpt><trkpt lat="44.2221712042" lon="14.8360707890"><ele>-1.79</ele><time>2011-10-11T04:18:21Z</time></trkpt><trkpt lat="44.2221727967" lon="14.8360733036"><ele>-1.79</ele><time>2011-10-11T04:18:57Z</time></trkpt><trkpt lat="44.2221745569" lon="14.8360750638"><ele>-1.79</ele><time>2011-10-11T04:19:38Z</time></trkpt><trkpt lat="44.2221752275" lon="14.8360759020"><ele>-1.79</ele><time>2011-10-11T04:20:10Z</time></trkpt><trkpt lat="44.2221743055" lon="14.8360759858"><ele>-1.79</ele><time>2011-10-11T04:20:44Z</time></trkpt><trkpt lat="44.2221743055" lon="14.8360759858"><ele>-1.79</ele><time>2011-10-11T04:21:22Z</time></trkpt><trkpt lat="44.2221732158" lon="14.8360785842"><ele>-1.79</ele><time>2011-10-11T04:21:55Z</time></trkpt><trkpt lat="44.2221730482" lon="14.8360788357"><ele>-1.30</ele><time>2011-10-11T04:22:26Z</time></trkpt><trkpt lat="44.2221664265" lon="14.8360785004"><ele>-1.30</ele><time>2011-10-11T04:22:57Z</time></trkpt><trkpt lat="44.2221664265" lon="14.8360810149"><ele>-1.30</ele><time>2011-10-11T04:23:29Z</time></trkpt><trkpt lat="44.2221664265" lon="14.8360797577"><ele>-1.30</ele><time>2011-10-11T04:24:05Z</time></trkpt><trkpt lat="44.2221664265" lon="14.8360797577"><ele>-1.30</ele><time>2011-10-11T04:24:37Z</time></trkpt><trkpt lat="44.2221665941" lon="14.8360786680"><ele>-1.30</ele><time>2011-10-11T04:25:13Z</time></trkpt><trkpt lat="44.2221647501" lon="14.8360782489"><ele>-1.30</ele><time>2011-10-11T04:25:43Z</time></trkpt><trkpt lat="44.2221642472" lon="14.8360782489"><ele>-0.82</ele><time>2011-10-11T04:26:12Z</time></trkpt><trkpt lat="44.2221610621" lon="14.8360756505"><ele>-0.82</ele><time>2011-10-11T04:26:49Z</time></trkpt><trkpt lat="44.2221603915" lon="14.8360733874"><ele>-0.82</ele><time>2011-10-11T04:27:27Z</time></trkpt><trkpt lat="44.2221603915" lon="14.8360733874"><ele>-0.82</ele><time>2011-10-11T04:28:02Z</time></trkpt><trkpt lat="44.2221601401" lon="14.8360720463"><ele>-0.82</ele><time>2011-10-11T04:28:31Z</time></trkpt><trkpt lat="44.2221614812" lon="14.8360660113"><ele>-0.82</ele><time>2011-10-11T04:29:06Z</time></trkpt><trkpt lat="44.2221569549" lon="14.8360671848"><ele>-0.34</ele><time>2011-10-11T04:29:40Z</time></trkpt><trkpt lat="44.2221564520" lon="14.8360657599"><ele>-0.34</ele><time>2011-10-11T04:30:12Z</time></trkpt><trkpt lat="44.2221556976" lon="14.8360642511"><ele>-0.34</ele><time>2011-10-11T04:30:47Z</time></trkpt><trkpt lat="44.2221541889" lon="14.8360556178"><ele>-0.82</ele><time>2011-10-11T04:31:25Z</time></trkpt><trkpt lat="44.2221541889" lon="14.8360556178"><ele>-0.82</ele><time>2011-10-11T04:32:02Z</time></trkpt><trkpt lat="44.2221538536" lon="14.8360565398"><ele>-0.82</ele><time>2011-10-11T04:32:38Z</time></trkpt><trkpt lat="44.2221528478" lon="14.8360581324"><ele>-0.82</ele><time>2011-10-11T04:33:14Z</time></trkpt><trkpt lat="44.2221562006" lon="14.8360629939"><ele>-0.82</ele><time>2011-10-11T04:33:47Z</time></trkpt><trkpt lat="44.2221592180" lon="14.8360665981"><ele>-1.30</ele><time>2011-10-11T04:34:18Z</time></trkpt><trkpt lat="44.2221573740" lon="14.8360695317"><ele>-0.82</ele><time>2011-10-11T04:34:50Z</time></trkpt><trkpt lat="44.2221573740" lon="14.8360695317"><ele>-0.82</ele><time>2011-10-11T04:35:20Z</time></trkpt><trkpt lat="44.2221647501" lon="14.8360679392"><ele>-1.30</ele><time>2011-10-11T04:35:39Z</time></trkpt><trkpt lat="44.2221647501" lon="14.8360679392"><ele>-1.30</ele><time>2011-10-11T04:35:58Z</time></trkpt><trkpt lat="44.2221641634" lon="14.8360643350"><ele>-1.30</ele><time>2011-10-11T04:36:21Z</time></trkpt><trkpt lat="44.2221664265" lon="14.8360546958"><ele>-1.30</ele><time>2011-10-11T04:36:56Z</time></trkpt><trkpt lat="44.2221664265" lon="14.8360546958"><ele>-1.30</ele><time>2011-10-11T04:37:24Z</time></trkpt><trkpt lat="44.2221653368" lon="14.8360517621"><ele>-1.30</ele><time>2011-10-11T04:37:59Z</time></trkpt><trkpt lat="44.2221631575" lon="14.8360503372"><ele>-1.79</ele><time>2011-10-11T04:38:29Z</time></trkpt><trkpt lat="44.2221613973" lon="14.8360464815"><ele>-1.30</ele><time>2011-10-11T04:38:58Z</time></trkpt><trkpt lat="44.2221613973" lon="14.8360464815"><ele>-1.30</ele><time>2011-10-11T04:39:28Z</time></trkpt><trkpt lat="44.2221628223" lon="14.8360448051"><ele>-1.30</ele><time>2011-10-11T04:40:00Z</time></trkpt><trkpt lat="44.2221596371" lon="14.8360396083"><ele>-1.30</ele><time>2011-10-11T04:40:29Z</time></trkpt><trkpt lat="44.2221592180" lon="14.8360337410"><ele>-1.30</ele><time>2011-10-11T04:41:08Z</time></trkpt><trkpt lat="44.2221596371" lon="14.8360312264"><ele>-1.30</ele><time>2011-10-11T04:41:39Z</time></trkpt><trkpt lat="44.2221596371" lon="14.8360312264"><ele>-1.30</ele><time>2011-10-11T04:42:10Z</time></trkpt><trkpt lat="44.2221617326" lon="14.8360225931"><ele>-1.79</ele><time>2011-10-11T04:42:39Z</time></trkpt><trkpt lat="44.2221612297" lon="14.8360230122"><ele>-1.30</ele><time>2011-10-11T04:43:08Z</time></trkpt><trkpt lat="44.2221592180" lon="14.8360265326"><ele>-1.30</ele><time>2011-10-11T04:43:34Z</time></trkpt><trkpt lat="44.2221592180" lon="14.8360265326"><ele>-1.30</ele><time>2011-10-11T04:43:52Z</time></trkpt><trkpt lat="44.2221566197" lon="14.8360257782"><ele>-1.30</ele><time>2011-10-11T04:44:17Z</time></trkpt><trkpt lat="44.2221566197" lon="14.8360257782"><ele>-1.30</ele><time>2011-10-11T04:44:49Z</time></trkpt><trkpt lat="44.2221550271" lon="14.8360238504"><ele>-1.30</ele><time>2011-10-11T04:45:19Z</time></trkpt><trkpt lat="44.2221525125" lon="14.8360275384"><ele>-0.82</ele><time>2011-10-11T04:45:48Z</time></trkpt><trkpt lat="44.2221551109" lon="14.8360271193"><ele>-1.30</ele><time>2011-10-11T04:46:18Z</time></trkpt><trkpt lat="44.2221578769" lon="14.8360340763"><ele>-0.82</ele><time>2011-10-11T04:46:53Z</time></trkpt><trkpt lat="44.2221578769" lon="14.8360340763"><ele>-0.82</ele><time>2011-10-11T04:47:23Z</time></trkpt><trkpt lat="44.2221695278" lon="14.8360441346"><ele>-0.34</ele><time>2011-10-11T04:47:55Z</time></trkpt><trkpt lat="44.2221735511" lon="14.8360503372"><ele>-0.34</ele><time>2011-10-11T04:48:25Z</time></trkpt><trkpt lat="44.2221747246" lon="14.8360514268"><ele>-0.34</ele><time>2011-10-11T04:48:55Z</time></trkpt><trkpt lat="44.2221747246" lon="14.8360514268"><ele>-0.34</ele><time>2011-10-11T04:49:21Z</time></trkpt><trkpt lat="44.2221740540" lon="14.8360606469"><ele>-0.34</ele><time>2011-10-11T04:49:48Z</time></trkpt><trkpt lat="44.2221731320" lon="14.8360607307"><ele>-0.34</ele><time>2011-10-11T04:50:18Z</time></trkpt><trkpt lat="44.2221706174" lon="14.8360594735"><ele>-0.34</ele><time>2011-10-11T04:50:57Z</time></trkpt><trkpt lat="44.2221706174" lon="14.8360594735"><ele>-0.34</ele><time>2011-10-11T04:51:27Z</time></trkpt><trkpt lat="44.2221681867" lon="14.8360574618"><ele>-0.34</ele><time>2011-10-11T04:51:57Z</time></trkpt><trkpt lat="44.2221648339" lon="14.8360516783"><ele>-0.34</ele><time>2011-10-11T04:52:36Z</time></trkpt><trkpt lat="44.2221645825" lon="14.8360333219"><ele>0.62</ele><time>2011-10-11T04:53:06Z</time></trkpt><trkpt lat="44.2221645825" lon="14.8360333219"><ele>0.62</ele><time>2011-10-11T04:53:35Z</time></trkpt><trkpt lat="44.2221604753" lon="14.8360394407"><ele>0.62</ele><time>2011-10-11T04:54:03Z</time></trkpt><trkpt lat="44.2221601401" lon="14.8360418715"><ele>0.62</ele><time>2011-10-11T04:54:32Z</time></trkpt><trkpt lat="44.2221598886" lon="14.8360453919"><ele>0.62</ele><time>2011-10-11T04:55:02Z</time></trkpt><trkpt lat="44.2221598886" lon="14.8360453919"><ele>0.62</ele><time>2011-10-11T04:55:32Z</time></trkpt><trkpt lat="44.2221613973" lon="14.8360469844"><ele>0.62</ele><time>2011-10-11T04:56:10Z</time></trkpt><trkpt lat="44.2221600562" lon="14.8360531870"><ele>0.62</ele><time>2011-10-11T04:56:44Z</time></trkpt><trkpt lat="44.2221636605" lon="14.8360573780"><ele>1.10</ele><time>2011-10-11T04:57:15Z</time></trkpt><trkpt lat="44.2221634090" lon="14.8360622395"><ele>0.62</ele><time>2011-10-11T04:57:38Z</time></trkpt><trkpt lat="44.2221632414" lon="14.8360624071"><ele>0.62</ele><time>2011-10-11T04:58:05Z</time></trkpt><trkpt lat="44.2221632414" lon="14.8360624071"><ele>0.62</ele><time>2011-10-11T04:58:33Z</time></trkpt><trkpt lat="44.2221625708" lon="14.8360652570"><ele>0.14</ele><time>2011-10-11T04:59:06Z</time></trkpt><trkpt lat="44.2221624032" lon="14.8360647541"><ele>0.14</ele><time>2011-10-11T04:59:32Z</time></trkpt><trkpt lat="44.2221696116" lon="14.8360624909"><ele>-0.34</ele><time>2011-10-11T05:00:01Z</time></trkpt><trkpt lat="44.2221696116" lon="14.8360624909"><ele>-0.34</ele><time>2011-10-11T05:00:32Z</time></trkpt><trkpt lat="44.2221687734" lon="14.8360655084"><ele>-0.34</ele><time>2011-10-11T05:01:05Z</time></trkpt><trkpt lat="44.2221705336" lon="14.8360689450"><ele>-0.34</ele><time>2011-10-11T05:01:35Z</time></trkpt><trkpt lat="44.2221712042" lon="14.8360696156"><ele>-0.34</ele><time>2011-10-11T05:02:09Z</time></trkpt><trkpt lat="44.2221692763" lon="14.8360662628"><ele>0.14</ele><time>2011-10-11T05:02:43Z</time></trkpt><trkpt lat="44.2221692763" lon="14.8360662628"><ele>0.14</ele><time>2011-10-11T05:03:19Z</time></trkpt><trkpt lat="44.2221677676" lon="14.8360625748"><ele>0.14</ele><time>2011-10-11T05:03:49Z</time></trkpt><trkpt lat="44.2221663427" lon="14.8360600602"><ele>0.62</ele><time>2011-10-11T05:04:23Z</time></trkpt><trkpt lat="44.2221621517" lon="14.8360552825"><ele>1.58</ele><time>2011-10-11T05:04:51Z</time></trkpt><trkpt lat="44.2221648339" lon="14.8360371776"><ele>0.62</ele><time>2011-10-11T05:05:21Z</time></trkpt><trkpt lat="44.2221648339" lon="14.8360371776"><ele>0.62</ele><time>2011-10-11T05:05:55Z</time></trkpt><trkpt lat="44.2221639119" lon="14.8360327352"><ele>0.62</ele><time>2011-10-11T05:06:25Z</time></trkpt><trkpt lat="44.2221650016" lon="14.8360284604"><ele>0.14</ele><time>2011-10-11T05:06:57Z</time></trkpt><trkpt lat="44.2221635766" lon="14.8360265326"><ele>-0.34</ele><time>2011-10-11T05:07:27Z</time></trkpt><trkpt lat="44.2221635766" lon="14.8360265326"><ele>-0.34</ele><time>2011-10-11T05:07:55Z</time></trkpt><trkpt lat="44.2221626546" lon="14.8360250238"><ele>-0.34</ele><time>2011-10-11T05:08:25Z</time></trkpt><trkpt lat="44.2221603915" lon="14.8360173963"><ele>-0.34</ele><time>2011-10-11T05:08:58Z</time></trkpt><trkpt lat="44.2221577931" lon="14.8360163067"><ele>-0.34</ele><time>2011-10-11T05:09:28Z</time></trkpt><trkpt lat="44.2221577931" lon="14.8360163067"><ele>-0.34</ele><time>2011-10-11T05:09:59Z</time></trkpt><trkpt lat="44.2221581284" lon="14.8360154685"><ele>-0.34</ele><time>2011-10-11T05:10:29Z</time></trkpt><trkpt lat="44.2221576255" lon="14.8360110261"><ele>-0.34</ele><time>2011-10-11T05:11:08Z</time></trkpt><trkpt lat="44.2221536022" lon="14.8360096850"><ele>-0.82</ele><time>2011-10-11T05:11:44Z</time></trkpt><trkpt lat="44.2221561167" lon="14.8360058293"><ele>-0.34</ele><time>2011-10-11T05:12:23Z</time></trkpt><trkpt lat="44.2221541889" lon="14.8360002134"><ele>-0.82</ele><time>2011-10-11T05:12:59Z</time></trkpt><trkpt lat="44.2221505847" lon="14.8359854612"><ele>-1.30</ele><time>2011-10-11T05:13:39Z</time></trkpt><trkpt lat="44.2221511714" lon="14.8359920830"><ele>-1.30</ele><time>2011-10-11T05:14:12Z</time></trkpt><trkpt lat="44.2221482377" lon="14.8359950166"><ele>-1.79</ele><time>2011-10-11T05:14:46Z</time></trkpt><trkpt lat="44.2221482377" lon="14.8359950166"><ele>-1.79</ele><time>2011-10-11T05:15:17Z</time></trkpt><trkpt lat="44.2221447174" lon="14.8359927535"><ele>-1.79</ele><time>2011-10-11T05:15:46Z</time></trkpt><trkpt lat="44.2221454717" lon="14.8359935079"><ele>-1.79</ele><time>2011-10-11T05:16:12Z</time></trkpt><trkpt lat="44.2221455555" lon="14.8359912448"><ele>-1.79</ele><time>2011-10-11T05:16:45Z</time></trkpt><trkpt lat="44.2221459746" lon="14.8359899037"><ele>-1.30</ele><time>2011-10-11T05:17:20Z</time></trkpt><trkpt lat="44.2221459746" lon="14.8359899037"><ele>-1.30</ele><time>2011-10-11T05:17:50Z</time></trkpt><trkpt lat="44.2221437953" lon="14.8359898198"><ele>-1.79</ele><time>2011-10-11T05:18:25Z</time></trkpt><trkpt lat="44.2221450526" lon="14.8359908257"><ele>-1.30</ele><time>2011-10-11T05:18:55Z</time></trkpt><trkpt lat="44.2221437115" lon="14.8359947652"><ele>-1.79</ele><time>2011-10-11T05:19:24Z</time></trkpt><trkpt lat="44.2221437115" lon="14.8359947652"><ele>-1.79</ele><time>2011-10-11T05:19:54Z</time></trkpt><trkpt lat="44.2221442983" lon="14.8359968606"><ele>-1.79</ele><time>2011-10-11T05:20:22Z</time></trkpt><trkpt lat="44.2221446335" lon="14.8360000458"><ele>-1.79</ele><time>2011-10-11T05:20:55Z</time></trkpt><trkpt lat="44.2221440468" lon="14.8360054940"><ele>-1.30</ele><time>2011-10-11T05:21:23Z</time></trkpt><trkpt lat="44.2221440468" lon="14.8360054940"><ele>-1.30</ele><time>2011-10-11T05:21:54Z</time></trkpt><trkpt lat="44.2221459746" lon="14.8360101879"><ele>-1.30</ele><time>2011-10-11T05:22:25Z</time></trkpt><trkpt lat="44.2221464776" lon="14.8360142950"><ele>-1.30</ele><time>2011-10-11T05:22:58Z</time></trkpt><trkpt lat="44.2221551947" lon="14.8360066675"><ele>-0.82</ele><time>2011-10-11T05:23:26Z</time></trkpt><trkpt lat="44.2221551947" lon="14.8360066675"><ele>-0.82</ele><time>2011-10-11T05:23:59Z</time></trkpt><trkpt lat="44.2221568711" lon="14.8360066675"><ele>-0.82</ele><time>2011-10-11T05:24:30Z</time></trkpt><trkpt lat="44.2221576255" lon="14.8360054940"><ele>-0.82</ele><time>2011-10-11T05:25:02Z</time></trkpt><trkpt lat="44.2221582122" lon="14.8360030632"><ele>-0.34</ele><time>2011-10-11T05:25:37Z</time></trkpt><trkpt lat="44.2221577931" lon="14.8359974474"><ele>-0.34</ele><time>2011-10-11T05:26:14Z</time></trkpt><trkpt lat="44.2221583799" lon="14.8359961901"><ele>-0.34</ele><time>2011-10-11T05:26:45Z</time></trkpt><trkpt lat="44.2221605591" lon="14.8359904904"><ele>-0.34</ele><time>2011-10-11T05:27:22Z</time></trkpt><trkpt lat="44.2221605591" lon="14.8359904904"><ele>-0.34</ele><time>2011-10-11T05:27:59Z</time></trkpt><trkpt lat="44.2221598048" lon="14.8359831981"><ele>-0.34</ele><time>2011-10-11T05:28:35Z</time></trkpt><trkpt lat="44.2221575417" lon="14.8359828629"><ele>-0.34</ele><time>2011-10-11T05:29:09Z</time></trkpt><trkpt lat="44.2221562844" lon="14.8359784205"><ele>-0.34</ele><time>2011-10-11T05:29:40Z</time></trkpt><trkpt lat="44.2221558653" lon="14.8359773308"><ele>-0.34</ele><time>2011-10-11T05:30:04Z</time></trkpt><trkpt lat="44.2221558653" lon="14.8359773308"><ele>-0.34</ele><time>2011-10-11T05:30:30Z</time></trkpt><trkpt lat="44.2221570387" lon="14.8359768279"><ele>-0.82</ele><time>2011-10-11T05:31:04Z</time></trkpt><trkpt lat="44.2221597210" lon="14.8359759059"><ele>-0.82</ele><time>2011-10-11T05:31:34Z</time></trkpt><trkpt lat="44.2221632414" lon="14.8359771632"><ele>-1.30</ele><time>2011-10-11T05:32:06Z</time></trkpt><trkpt lat="44.2221657559" lon="14.8359789234"><ele>-1.79</ele><time>2011-10-11T05:32:40Z</time></trkpt><trkpt lat="44.2221657559" lon="14.8359789234"><ele>-1.79</ele><time>2011-10-11T05:33:08Z</time></trkpt><trkpt lat="44.2221691087" lon="14.8359829467"><ele>-1.79</ele><time>2011-10-11T05:33:39Z</time></trkpt><trkpt lat="44.2221693601" lon="14.8359816894"><ele>-1.30</ele><time>2011-10-11T05:34:13Z</time></trkpt><trkpt lat="44.2221732996" lon="14.8359813541"><ele>-1.79</ele><time>2011-10-11T05:34:45Z</time></trkpt><trkpt lat="44.2221724615" lon="14.8359808512"><ele>-1.79</ele><time>2011-10-11T05:35:24Z</time></trkpt><trkpt lat="44.2221724615" lon="14.8359808512"><ele>-1.79</ele><time>2011-10-11T05:35:57Z</time></trkpt><trkpt lat="44.2221710365" lon="14.8359808512"><ele>-1.79</ele><time>2011-10-11T05:36:29Z</time></trkpt><trkpt lat="44.2221701983" lon="14.8359822761"><ele>-1.79</ele><time>2011-10-11T05:37:03Z</time></trkpt><trkpt lat="44.2221696116" lon="14.8359843716"><ele>-1.79</ele><time>2011-10-11T05:37:32Z</time></trkpt><trkpt lat="44.2221691925" lon="14.8359808512"><ele>-1.79</ele><time>2011-10-11T05:38:05Z</time></trkpt><trkpt lat="44.2221691925" lon="14.8359808512"><ele>-1.79</ele><time>2011-10-11T05:38:37Z</time></trkpt><trkpt lat="44.2221678514" lon="14.8359804321"><ele>-1.79</ele><time>2011-10-11T05:39:05Z</time></trkpt><trkpt lat="44.2221666779" lon="14.8359789234"><ele>-1.79</ele><time>2011-10-11T05:39:31Z</time></trkpt><trkpt lat="44.2221664265" lon="14.8359789234"><ele>-2.27</ele><time>2011-10-11T05:40:04Z</time></trkpt><trkpt lat="44.2221664265" lon="14.8359789234"><ele>-2.27</ele><time>2011-10-11T05:40:31Z</time></trkpt><trkpt lat="44.2221659236" lon="14.8359774984"><ele>-2.27</ele><time>2011-10-11T05:41:03Z</time></trkpt><trkpt lat="44.2221663427" lon="14.8359776661"><ele>-2.27</ele><time>2011-10-11T05:41:30Z</time></trkpt><trkpt lat="44.2221663427" lon="14.8359776661"><ele>-2.27</ele><time>2011-10-11T05:41:57Z</time></trkpt><trkpt lat="44.2221755628" lon="14.8359777499"><ele>-2.27</ele><time>2011-10-11T05:42:21Z</time></trkpt><trkpt lat="44.2221755628" lon="14.8359777499"><ele>-2.27</ele><time>2011-10-11T05:42:46Z</time></trkpt><trkpt lat="44.2221774906" lon="14.8359780014"><ele>-2.27</ele><time>2011-10-11T05:43:19Z</time></trkpt><trkpt lat="44.2221764848" lon="14.8359734751"><ele>-2.75</ele><time>2011-10-11T05:43:49Z</time></trkpt><trkpt lat="44.2221770715" lon="14.8359755706"><ele>-2.75</ele><time>2011-10-11T05:44:24Z</time></trkpt><trkpt lat="44.2221770715" lon="14.8359755706"><ele>-2.75</ele><time>2011-10-11T05:44:52Z</time></trkpt><trkpt lat="44.2221796699" lon="14.8359777499"><ele>-2.75</ele><time>2011-10-11T05:45:22Z</time></trkpt><trkpt lat="44.2221805081" lon="14.8359797616"><ele>-2.75</ele><time>2011-10-11T05:45:51Z</time></trkpt><trkpt lat="44.2221805081" lon="14.8359797616"><ele>-2.75</ele><time>2011-10-11T05:46:20Z</time></trkpt><trkpt lat="44.2221818492" lon="14.8359838687"><ele>-2.75</ele><time>2011-10-11T05:46:53Z</time></trkpt><trkpt lat="44.2221883032" lon="14.8359910771"><ele>-2.27</ele><time>2011-10-11T05:47:30Z</time></trkpt><trkpt lat="44.2221894767" lon="14.8359926697"><ele>-2.75</ele><time>2011-10-11T05:47:58Z</time></trkpt><trkpt lat="44.2221916560" lon="14.8359954357"><ele>-2.75</ele><time>2011-10-11T05:48:22Z</time></trkpt><trkpt lat="44.2221916560" lon="14.8359954357"><ele>-2.75</ele><time>2011-10-11T05:48:52Z</time></trkpt><trkpt lat="44.2221919913" lon="14.8359954357"><ele>-2.75</ele><time>2011-10-11T05:49:29Z</time></trkpt><trkpt lat="44.2221918236" lon="14.8359961063"><ele>-2.75</ele><time>2011-10-11T05:50:00Z</time></trkpt><trkpt lat="44.2221925780" lon="14.8359945975"><ele>-2.75</ele><time>2011-10-11T05:50:30Z</time></trkpt><trkpt lat="44.2221925780" lon="14.8359945975"><ele>-2.75</ele><time>2011-10-11T05:51:00Z</time></trkpt><trkpt lat="44.2221915722" lon="14.8359940946"><ele>-2.75</ele><time>2011-10-11T05:51:34Z</time></trkpt><trkpt lat="44.2221934162" lon="14.8359990399"><ele>-2.75</ele><time>2011-10-11T05:52:05Z</time></trkpt><trkpt lat="44.2221929133" lon="14.8360012192"><ele>-2.75</ele><time>2011-10-11T05:52:37Z</time></trkpt><trkpt lat="44.2221898120" lon="14.8360073380"><ele>-2.27</ele><time>2011-10-11T05:53:05Z</time></trkpt><trkpt lat="44.2221898120" lon="14.8360073380"><ele>-2.27</ele><time>2011-10-11T05:53:34Z</time></trkpt><trkpt lat="44.2221877165" lon="14.8360076733"><ele>-2.75</ele><time>2011-10-11T05:54:05Z</time></trkpt><trkpt lat="44.2221852858" lon="14.8360041529"><ele>-2.75</ele><time>2011-10-11T05:54:32Z</time></trkpt><trkpt lat="44.2221835256" lon="14.8360033147"><ele>-2.27</ele><time>2011-10-11T05:55:01Z</time></trkpt><trkpt lat="44.2221835256" lon="14.8360033147"><ele>-2.27</ele><time>2011-10-11T05:55:33Z</time></trkpt><trkpt lat="44.2221823521" lon="14.8359992914"><ele>-2.27</ele><time>2011-10-11T05:56:04Z</time></trkpt><trkpt lat="44.2221807595" lon="14.8359940108"><ele>-2.27</ele><time>2011-10-11T05:56:35Z</time></trkpt><trkpt lat="44.2221799213" lon="14.8359963577"><ele>-2.75</ele><time>2011-10-11T05:57:11Z</time></trkpt><trkpt lat="44.2221795022" lon="14.8360009678"><ele>-2.75</ele><time>2011-10-11T05:57:41Z</time></trkpt><trkpt lat="44.2221795022" lon="14.8360009678"><ele>-2.75</ele><time>2011-10-11T05:58:14Z</time></trkpt><trkpt lat="44.2221807595" lon="14.8360045720"><ele>-2.75</ele><time>2011-10-11T05:58:46Z</time></trkpt><trkpt lat="44.2221762333" lon="14.8359978665"><ele>-2.75</ele><time>2011-10-11T05:59:15Z</time></trkpt><trkpt lat="44.2221724615" lon="14.8359954357"><ele>-2.75</ele><time>2011-10-11T05:59:47Z</time></trkpt><trkpt lat="44.2221724615" lon="14.8359954357"><ele>-2.75</ele><time>2011-10-11T06:00:20Z</time></trkpt><trkpt lat="44.2221722100" lon="14.8359947652"><ele>-2.75</ele><time>2011-10-11T06:00:55Z</time></trkpt><trkpt lat="44.2221712880" lon="14.8359981179"><ele>-2.75</ele><time>2011-10-11T06:01:26Z</time></trkpt><trkpt lat="44.2221709527" lon="14.8359977826"><ele>-2.75</ele><time>2011-10-11T06:01:57Z</time></trkpt><trkpt lat="44.2221720424" lon="14.8360033147"><ele>-2.75</ele><time>2011-10-11T06:02:28Z</time></trkpt><trkpt lat="44.2221720424" lon="14.8360033147"><ele>-2.75</ele><time>2011-10-11T06:02:57Z</time></trkpt><trkpt lat="44.2221743893" lon="14.8360110261"><ele>-2.75</ele><time>2011-10-11T06:03:27Z</time></trkpt><trkpt lat="44.2221728805" lon="14.8360152170"><ele>-2.75</ele><time>2011-10-11T06:03:58Z</time></trkpt><trkpt lat="44.2221712042" lon="14.8360166419"><ele>-2.75</ele><time>2011-10-11T06:04:31Z</time></trkpt><trkpt lat="44.2221702822" lon="14.8360122833"><ele>-2.75</ele><time>2011-10-11T06:05:02Z</time></trkpt><trkpt lat="44.2221702822" lon="14.8360122833"><ele>-2.75</ele><time>2011-10-11T06:05:34Z</time></trkpt><trkpt lat="44.2221690249" lon="14.8360132053"><ele>-2.75</ele><time>2011-10-11T06:06:05Z</time></trkpt><trkpt lat="44.2221668456" lon="14.8360089306"><ele>-1.79</ele><time>2011-10-11T06:06:39Z</time></trkpt><trkpt lat="44.2221717071" lon="14.8360123672"><ele>-1.79</ele><time>2011-10-11T06:07:05Z</time></trkpt><trkpt lat="44.2221758142" lon="14.8360114451"><ele>-1.30</ele><time>2011-10-11T06:07:30Z</time></trkpt><trkpt lat="44.2221773230" lon="14.8360229284"><ele>-1.79</ele><time>2011-10-11T06:07:42Z</time></trkpt><trkpt lat="44.2221773230" lon="14.8360229284"><ele>-1.79</ele><time>2011-10-11T06:08:11Z</time></trkpt><trkpt lat="44.2221759818" lon="14.8360219225"><ele>-1.30</ele><time>2011-10-11T06:08:47Z</time></trkpt><trkpt lat="44.2221787479" lon="14.8360261973"><ele>-1.30</ele><time>2011-10-11T06:09:18Z</time></trkpt><trkpt lat="44.2221795861" lon="14.8360288795"><ele>-1.30</ele><time>2011-10-11T06:09:56Z</time></trkpt><trkpt lat="44.2221869621" lon="14.8360404465"><ele>-1.30</ele><time>2011-10-11T06:10:28Z</time></trkpt><trkpt lat="44.2221912369" lon="14.8360496666"><ele>-1.79</ele><time>2011-10-11T06:11:00Z</time></trkpt><trkpt lat="44.2221945059" lon="14.8360526841"><ele>-1.79</ele><time>2011-10-11T06:11:32Z</time></trkpt><trkpt lat="44.2221945059" lon="14.8360526841"><ele>-1.79</ele><time>2011-10-11T06:12:11Z</time></trkpt><trkpt lat="44.2221978586" lon="14.8360586353"><ele>-1.79</ele><time>2011-10-11T06:12:44Z</time></trkpt><trkpt lat="44.2221999541" lon="14.8360625748"><ele>-1.79</ele><time>2011-10-11T06:13:20Z</time></trkpt><trkpt lat="44.2222094256" lon="14.8360707052"><ele>-1.79</ele><time>2011-10-11T06:13:55Z</time></trkpt><trkpt lat="44.2222109344" lon="14.8360733874"><ele>-2.27</ele><time>2011-10-11T06:14:33Z</time></trkpt><trkpt lat="44.2222123593" lon="14.8360756505"><ele>-2.27</ele><time>2011-10-11T06:15:08Z</time></trkpt><trkpt lat="44.2222151253" lon="14.8360753991"><ele>-1.79</ele><time>2011-10-11T06:15:45Z</time></trkpt><trkpt lat="44.2222155444" lon="14.8360764887"><ele>-1.79</ele><time>2011-10-11T06:16:18Z</time></trkpt><trkpt lat="44.2222142033" lon="14.8360766564"><ele>-1.79</ele><time>2011-10-11T06:16:56Z</time></trkpt><trkpt lat="44.2222073302" lon="14.8360770755"><ele>-1.30</ele><time>2011-10-11T06:17:32Z</time></trkpt><trkpt lat="44.2222073302" lon="14.8360770755"><ele>-1.30</ele><time>2011-10-11T06:18:07Z</time></trkpt><trkpt lat="44.2222074978" lon="14.8360857926"><ele>-0.82</ele><time>2011-10-11T06:18:46Z</time></trkpt><trkpt lat="44.2222050671" lon="14.8360916600"><ele>-0.82</ele><time>2011-10-11T06:19:24Z</time></trkpt><trkpt lat="44.2221953440" lon="14.8360800091"><ele>0.14</ele><time>2011-10-11T06:20:00Z</time></trkpt><trkpt lat="44.2221940868" lon="14.8360724654"><ele>0.14</ele><time>2011-10-11T06:20:35Z</time></trkpt><trkpt lat="44.2221908178" lon="14.8360597249"><ele>0.62</ele><time>2011-10-11T06:21:05Z</time></trkpt><trkpt lat="44.2221879680" lon="14.8360519297"><ele>0.14</ele><time>2011-10-11T06:21:41Z</time></trkpt><trkpt lat="44.2221799213" lon="14.8360387702"><ele>1.10</ele><time>2011-10-11T06:22:16Z</time></trkpt><trkpt lat="44.2221789155" lon="14.8360351659"><ele>1.10</ele><time>2011-10-11T06:22:52Z</time></trkpt><trkpt lat="44.2221789155" lon="14.8360351659"><ele>1.10</ele><time>2011-10-11T06:23:26Z</time></trkpt><trkpt lat="44.2221784126" lon="14.8360301368"><ele>1.10</ele><time>2011-10-11T06:23:57Z</time></trkpt><trkpt lat="44.2221760657" lon="14.8360290471"><ele>1.10</ele><time>2011-10-11T06:24:28Z</time></trkpt><trkpt lat="44.2221747246" lon="14.8360251077"><ele>1.10</ele><time>2011-10-11T06:24:59Z</time></trkpt><trkpt lat="44.2221747246" lon="14.8360251077"><ele>1.10</ele><time>2011-10-11T06:25:28Z</time></trkpt><trkpt lat="44.2221717071" lon="14.8360183183"><ele>1.10</ele><time>2011-10-11T06:26:04Z</time></trkpt><trkpt lat="44.2221699469" lon="14.8360137083"><ele>1.10</ele><time>2011-10-11T06:26:31Z</time></trkpt><trkpt lat="44.2221694440" lon="14.8360124510"><ele>1.10</ele><time>2011-10-11T06:26:56Z</time></trkpt><trkpt lat="44.2221694440" lon="14.8360124510"><ele>1.10</ele><time>2011-10-11T06:27:24Z</time></trkpt><trkpt lat="44.2221682705" lon="14.8360127024"><ele>1.10</ele><time>2011-10-11T06:27:55Z</time></trkpt><trkpt lat="44.2221652530" lon="14.8360175639"><ele>1.58</ele><time>2011-10-11T06:28:28Z</time></trkpt><trkpt lat="44.2221649177" lon="14.8360230960"><ele>1.58</ele><time>2011-10-11T06:28:59Z</time></trkpt><trkpt lat="44.2221649177" lon="14.8360230960"><ele>1.58</ele><time>2011-10-11T06:29:28Z</time></trkpt><trkpt lat="44.2221639119" lon="14.8360224254"><ele>1.58</ele><time>2011-10-11T06:30:00Z</time></trkpt><trkpt lat="44.2221633252" lon="14.8360147979"><ele>1.58</ele><time>2011-10-11T06:30:29Z</time></trkpt><trkpt lat="44.2221622355" lon="14.8360076733"><ele>1.58</ele><time>2011-10-11T06:31:04Z</time></trkpt><trkpt lat="44.2221610621" lon="14.8360043205"><ele>1.58</ele><time>2011-10-11T06:31:36Z</time></trkpt><trkpt lat="44.2221590504" lon="14.8360002134"><ele>1.58</ele><time>2011-10-11T06:32:12Z</time></trkpt><trkpt lat="44.2221590504" lon="14.8360002134"><ele>1.58</ele><time>2011-10-11T06:32:43Z</time></trkpt><trkpt lat="44.2221562006" lon="14.8360010516"><ele>1.58</ele><time>2011-10-11T06:33:12Z</time></trkpt><trkpt lat="44.2221563682" lon="14.8360083438"><ele>1.58</ele><time>2011-10-11T06:33:44Z</time></trkpt><trkpt lat="44.2221573740" lon="14.8360161390"><ele>1.58</ele><time>2011-10-11T06:34:19Z</time></trkpt><trkpt lat="44.2221562006" lon="14.8360185698"><ele>1.58</ele><time>2011-10-11T06:34:52Z</time></trkpt><trkpt lat="44.2221562006" lon="14.8360185698"><ele>1.58</ele><time>2011-10-11T06:35:28Z</time></trkpt><trkpt lat="44.2221547756" lon="14.8360130377"><ele>1.58</ele><time>2011-10-11T06:35:59Z</time></trkpt><trkpt lat="44.2221532669" lon="14.8360132053"><ele>1.58</ele><time>2011-10-11T06:36:25Z</time></trkpt><trkpt lat="44.2221532669" lon="14.8360118642"><ele>1.58</ele><time>2011-10-11T06:36:56Z</time></trkpt><trkpt lat="44.2221532669" lon="14.8360118642"><ele>1.58</ele><time>2011-10-11T06:37:23Z</time></trkpt><trkpt lat="44.2221529316" lon="14.8360098526"><ele>2.06</ele><time>2011-10-11T06:37:51Z</time></trkpt><trkpt lat="44.2221518420" lon="14.8360137083"><ele>2.06</ele><time>2011-10-11T06:38:24Z</time></trkpt><trkpt lat="44.2221513391" lon="14.8360158876"><ele>1.58</ele><time>2011-10-11T06:38:55Z</time></trkpt><trkpt lat="44.2221513391" lon="14.8360158876"><ele>1.58</ele><time>2011-10-11T06:39:27Z</time></trkpt><trkpt lat="44.2221509200" lon="14.8360188212"><ele>2.06</ele><time>2011-10-11T06:39:57Z</time></trkpt><trkpt lat="44.2221493274" lon="14.8360177316"><ele>2.06</ele><time>2011-10-11T06:40:35Z</time></trkpt><trkpt lat="44.2221448012" lon="14.8360139597"><ele>2.54</ele><time>2011-10-11T06:41:05Z</time></trkpt><trkpt lat="44.2221448012" lon="14.8360139597"><ele>2.54</ele><time>2011-10-11T06:41:31Z</time></trkpt><trkpt lat="44.2221445497" lon="14.8360091820"><ele>2.54</ele><time>2011-10-11T06:42:03Z</time></trkpt><trkpt lat="44.2221432086" lon="14.8360078409"><ele>2.54</ele><time>2011-10-11T06:42:28Z</time></trkpt><trkpt lat="44.2221428733" lon="14.8360143788"><ele>2.54</ele><time>2011-10-11T06:42:55Z</time></trkpt><trkpt lat="44.2221428733" lon="14.8360143788"><ele>2.54</ele><time>2011-10-11T06:43:22Z</time></trkpt><trkpt lat="44.2221428733" lon="14.8360186536"><ele>2.54</ele><time>2011-10-11T06:43:52Z</time></trkpt><trkpt lat="44.2221433762" lon="14.8360227607"><ele>2.54</ele><time>2011-10-11T06:44:24Z</time></trkpt><trkpt lat="44.2221444659" lon="14.8360223416"><ele>2.54</ele><time>2011-10-11T06:44:57Z</time></trkpt><trkpt lat="44.2221444659" lon="14.8360223416"><ele>2.54</ele><time>2011-10-11T06:45:29Z</time></trkpt><trkpt lat="44.2221437115" lon="14.8360219225"><ele>2.54</ele><time>2011-10-11T06:45:58Z</time></trkpt><trkpt lat="44.2221444659" lon="14.8360207491"><ele>2.54</ele><time>2011-10-11T06:46:26Z</time></trkpt><trkpt lat="44.2221448012" lon="14.8360198271"><ele>2.54</ele><time>2011-10-11T06:46:54Z</time></trkpt><trkpt lat="44.2221448012" lon="14.8360198271"><ele>2.54</ele><time>2011-10-11T06:47:25Z</time></trkpt><trkpt lat="44.2221463099" lon="14.8360188212"><ele>2.54</ele><time>2011-10-11T06:47:50Z</time></trkpt><trkpt lat="44.2221473996" lon="14.8360175639"><ele>2.54</ele><time>2011-10-11T06:48:16Z</time></trkpt><trkpt lat="44.2221473996" lon="14.8360175639"><ele>2.54</ele><time>2011-10-11T06:48:46Z</time></trkpt><trkpt lat="44.2221462261" lon="14.8360137921"><ele>2.54</ele><time>2011-10-11T06:49:13Z</time></trkpt><trkpt lat="44.2221470643" lon="14.8360092659"><ele>2.54</ele><time>2011-10-11T06:49:36Z</time></trkpt><trkpt lat="44.2221470643" lon="14.8360092659"><ele>2.54</ele><time>2011-10-11T06:50:00Z</time></trkpt><trkpt lat="44.2220079247" lon="14.8360054940"><ele>2.06</ele><time>2011-10-11T06:50:28Z</time></trkpt><trkpt lat="44.2219401151" lon="14.8360023927"><ele>2.54</ele><time>2011-10-11T06:50:54Z</time></trkpt><trkpt lat="44.2219749838" lon="14.8361128662"><ele>2.06</ele><time>2011-10-11T06:51:06Z</time></trkpt><trkpt lat="44.2218633369" lon="14.8364033829"><ele>1.58</ele><time>2011-10-11T06:51:27Z</time></trkpt><trkpt lat="44.2214123905" lon="14.8365697637"><ele>1.10</ele><time>2011-10-11T06:51:57Z</time></trkpt><trkpt lat="44.2209554929" lon="14.8367602844"><ele>1.58</ele><time>2011-10-11T06:52:24Z</time></trkpt><trkpt lat="44.2204443645" lon="14.8368762061"><ele>1.10</ele><time>2011-10-11T06:52:53Z</time></trkpt><trkpt lat="44.2199049052" lon="14.8369783815"><ele>0.14</ele><time>2011-10-11T06:53:23Z</time></trkpt><trkpt lat="44.2193406355" lon="14.8371960595"><ele>-0.34</ele><time>2011-10-11T06:53:55Z</time></trkpt><trkpt lat="44.2187776230" lon="14.8374512885"><ele>-1.79</ele><time>2011-10-11T06:54:26Z</time></trkpt><trkpt lat="44.2182584479" lon="14.8377086967"><ele>-0.34</ele><time>2011-10-11T06:54:54Z</time></trkpt><trkpt lat="44.2176054139" lon="14.8380623292"><ele>-0.34</ele><time>2011-10-11T06:55:27Z</time></trkpt><trkpt lat="44.2169237975" lon="14.8384635709"><ele>1.10</ele><time>2011-10-11T06:55:58Z</time></trkpt><trkpt lat="44.2162991781" lon="14.8388426006"><ele>2.06</ele><time>2011-10-11T06:56:27Z</time></trkpt><trkpt lat="44.2156187352" lon="14.8391650524"><ele>1.58</ele><time>2011-10-11T06:56:58Z</time></trkpt><trkpt lat="44.2149698082" lon="14.8394824751"><ele>1.58</ele><time>2011-10-11T06:57:27Z</time></trkpt><trkpt lat="44.2142893653" lon="14.8398183379"><ele>1.10</ele><time>2011-10-11T06:57:57Z</time></trkpt><trkpt lat="44.2135787476" lon="14.8401260376"><ele>0.14</ele><time>2011-10-11T06:58:29Z</time></trkpt><trkpt lat="44.2128957063" lon="14.8404298816"><ele>0.14</ele><time>2011-10-11T06:58:59Z</time></trkpt><trkpt lat="44.2122542392" lon="14.8407521658"><ele>2.54</ele><time>2011-10-11T06:59:28Z</time></trkpt><trkpt lat="44.2116587888" lon="14.8410288524"><ele>2.54</ele><time>2011-10-11T06:59:54Z</time></trkpt><trkpt lat="44.2110022344" lon="14.8413093109"><ele>2.06</ele><time>2011-10-11T07:00:23Z</time></trkpt><trkpt lat="44.2104143277" lon="14.8416191060"><ele>1.58</ele><time>2011-10-11T07:00:49Z</time></trkpt><trkpt lat="44.2099379841" lon="14.8418016639"><ele>0.62</ele><time>2011-10-11T07:01:10Z</time></trkpt><trkpt lat="44.2094232515" lon="14.8420297354"><ele>-1.79</ele><time>2011-10-11T07:01:33Z</time></trkpt><trkpt lat="44.2089755740" lon="14.8422158137"><ele>-1.79</ele><time>2011-10-11T07:01:53Z</time></trkpt><trkpt lat="44.2086808663" lon="14.8423337471"><ele>0.62</ele><time>2011-10-11T07:02:07Z</time></trkpt><trkpt lat="44.2079989985" lon="14.8426354956"><ele>3.02</ele><time>2011-10-11T07:02:37Z</time></trkpt><trkpt lat="44.2073297035" lon="14.8429853562"><ele>3.02</ele><time>2011-10-11T07:03:07Z</time></trkpt><trkpt lat="44.2067703791" lon="14.8432664014"><ele>3.98</ele><time>2011-10-11T07:03:32Z</time></trkpt><trkpt lat="44.2061059456" lon="14.8436364625"><ele>2.06</ele><time>2011-10-11T07:04:02Z</time></trkpt><trkpt lat="44.2053811625" lon="14.8440062720"><ele>3.02</ele><time>2011-10-11T07:04:34Z</time></trkpt><trkpt lat="44.2048814334" lon="14.8442479223"><ele>2.06</ele><time>2011-10-11T07:04:56Z</time></trkpt><trkpt lat="44.2042610887" lon="14.8445255309"><ele>2.54</ele><time>2011-10-11T07:05:23Z</time></trkpt><trkpt lat="44.2035506386" lon="14.8446649220"><ele>3.98</ele><time>2011-10-11T07:05:53Z</time></trkpt><trkpt lat="44.2028831877" lon="14.8447154649"><ele>4.46</ele><time>2011-10-11T07:06:21Z</time></trkpt><trkpt lat="44.2021692172" lon="14.8446800932"><ele>3.50</ele><time>2011-10-11T07:06:51Z</time></trkpt><trkpt lat="44.2015119921" lon="14.8446140438"><ele>3.50</ele><time>2011-10-11T07:07:19Z</time></trkpt><trkpt lat="44.2008738779" lon="14.8444982897"><ele>3.98</ele><time>2011-10-11T07:07:46Z</time></trkpt><trkpt lat="44.2002397031" lon="14.8443187494"><ele>3.02</ele><time>2011-10-11T07:08:13Z</time></trkpt><trkpt lat="44.1997160017" lon="14.8441231996"><ele>3.98</ele><time>2011-10-11T07:08:36Z</time></trkpt><trkpt lat="44.1991954017" lon="14.8439408932"><ele>3.02</ele><time>2011-10-11T07:08:59Z</time></trkpt><trkpt lat="44.1987214051" lon="14.8436091375"><ele>3.02</ele><time>2011-10-11T07:09:22Z</time></trkpt><trkpt lat="44.1983704548" lon="14.8431684170"><ele>3.50</ele><time>2011-10-11T07:09:43Z</time></trkpt><trkpt lat="44.1979996394" lon="14.8427841906"><ele>3.02</ele><time>2011-10-11T07:10:04Z</time></trkpt><trkpt lat="44.1976844799" lon="14.8424108606"><ele>2.54</ele><time>2011-10-11T07:10:23Z</time></trkpt><trkpt lat="44.1973669734" lon="14.8419237044"><ele>2.54</ele><time>2011-10-11T07:10:45Z</time></trkpt><trkpt lat="44.1971186176" lon="14.8415118176"><ele>3.02</ele><time>2011-10-11T07:11:03Z</time></trkpt><trkpt lat="44.1968843434" lon="14.8410730250"><ele>1.58</ele><time>2011-10-11T07:11:22Z</time></trkpt><trkpt lat="44.1967429407" lon="14.8405328114"><ele>2.06</ele><time>2011-10-11T07:11:42Z</time></trkpt><trkpt lat="44.1966253426" lon="14.8399895802"><ele>2.54</ele><time>2011-10-11T07:12:02Z</time></trkpt><trkpt lat="44.1964344867" lon="14.8394920304"><ele>3.02</ele><time>2011-10-11T07:12:22Z</time></trkpt><trkpt lat="44.1962720454" lon="14.8391034454"><ele>3.50</ele><time>2011-10-11T07:12:38Z</time></trkpt><trkpt lat="44.1960965283" lon="14.8385980166"><ele>3.02</ele><time>2011-10-11T07:12:58Z</time></trkpt><trkpt lat="44.1960501764" lon="14.8381391913"><ele>3.50</ele><time>2011-10-11T07:13:15Z</time></trkpt><trkpt lat="44.1961040720" lon="14.8376125563"><ele>3.50</ele><time>2011-10-11T07:13:35Z</time></trkpt><trkpt lat="44.1961050779" lon="14.8371368833"><ele>4.94</ele><time>2011-10-11T07:13:53Z</time></trkpt><trkpt lat="44.1960683651" lon="14.8366626352"><ele>4.94</ele><time>2011-10-11T07:14:11Z</time></trkpt><trkpt lat="44.1960459854" lon="14.8361738026"><ele>2.54</ele><time>2011-10-11T07:14:29Z</time></trkpt><trkpt lat="44.1960374359" lon="14.8357101995"><ele>3.02</ele><time>2011-10-11T07:14:46Z</time></trkpt><trkpt lat="44.1960312333" lon="14.8352170084"><ele>3.02</ele><time>2011-10-11T07:15:04Z</time></trkpt><trkpt lat="44.1959816124" lon="14.8347692471"><ele>3.98</ele><time>2011-10-11T07:15:21Z</time></trkpt><trkpt lat="44.1958985478" lon="14.8343066499"><ele>3.98</ele><time>2011-10-11T07:15:38Z</time></trkpt><trkpt lat="44.1959073488" lon="14.8338790890"><ele>2.54</ele><time>2011-10-11T07:15:55Z</time></trkpt><trkpt lat="44.1959608253" lon="14.8334483430"><ele>2.54</ele><time>2011-10-11T07:16:13Z</time></trkpt><trkpt lat="44.1960261203" lon="14.8331154976"><ele>2.06</ele><time>2011-10-11T07:16:28Z</time></trkpt><trkpt lat="44.1960447282" lon="14.8326940555"><ele>2.06</ele><time>2011-10-11T07:16:47Z</time></trkpt><trkpt lat="44.1960173193" lon="14.8322734516"><ele>3.02</ele><time>2011-10-11T07:17:04Z</time></trkpt><trkpt lat="44.1960264556" lon="14.8319807556"><ele>3.02</ele><time>2011-10-11T07:17:17Z</time></trkpt><trkpt lat="44.1960932594" lon="14.8315778375"><ele>2.54</ele><time>2011-10-11T07:17:35Z</time></trkpt><trkpt lat="44.1961583868" lon="14.8311927728"><ele>1.58</ele><time>2011-10-11T07:17:52Z</time></trkpt><trkpt lat="44.1962425411" lon="14.8307636194"><ele>1.58</ele><time>2011-10-11T07:18:11Z</time></trkpt><trkpt lat="44.1963238455" lon="14.8303858470"><ele>1.58</ele><time>2011-10-11T07:18:29Z</time></trkpt><trkpt lat="44.1964306310" lon="14.8299479764"><ele>1.58</ele><time>2011-10-11T07:18:48Z</time></trkpt><trkpt lat="44.1966249235" lon="14.8293572199"><ele>1.10</ele><time>2011-10-11T07:19:10Z</time></trkpt><trkpt lat="44.1968643945" lon="14.8289359454"><ele>2.06</ele><time>2011-10-11T07:19:27Z</time></trkpt><trkpt lat="44.1971589345" lon="14.8286523018"><ele>1.58</ele><time>2011-10-11T07:19:43Z</time></trkpt><trkpt lat="44.1975114774" lon="14.8283659760"><ele>2.06</ele><time>2011-10-11T07:20:00Z</time></trkpt><trkpt lat="44.1978215240" lon="14.8281253316"><ele>3.50</ele><time>2011-10-11T07:20:15Z</time></trkpt><trkpt lat="44.1981589794" lon="14.8278586194"><ele>1.10</ele><time>2011-10-11T07:20:31Z</time></trkpt><trkpt lat="44.1984582972" lon="14.8275980260"><ele>0.62</ele><time>2011-10-11T07:20:46Z</time></trkpt><trkpt lat="44.1987512447" lon="14.8273405340"><ele>-0.34</ele><time>2011-10-11T07:21:01Z</time></trkpt><trkpt lat="44.1990223154" lon="14.8270811979"><ele>1.10</ele><time>2011-10-11T07:21:15Z</time></trkpt><trkpt lat="44.1993098147" lon="14.8267985601"><ele>0.14</ele><time>2011-10-11T07:21:30Z</time></trkpt><trkpt lat="44.1995401494" lon="14.8265704047"><ele>-0.34</ele><time>2011-10-11T07:21:42Z</time></trkpt><trkpt lat="44.1998267267" lon="14.8262834921"><ele>-0.34</ele><time>2011-10-11T07:21:57Z</time></trkpt><trkpt lat="44.2001328338" lon="14.8259788938"><ele>0.14</ele><time>2011-10-11T07:22:13Z</time></trkpt><trkpt lat="44.2004071735" lon="14.8256696016"><ele>-0.34</ele><time>2011-10-11T07:22:28Z</time></trkpt><trkpt lat="44.2006772384" lon="14.8253548611"><ele>-0.34</ele><time>2011-10-11T07:22:43Z</time></trkpt><trkpt lat="44.2009428609" lon="14.8250812758"><ele>0.14</ele><time>2011-10-11T07:22:57Z</time></trkpt><trkpt lat="44.2013012711" lon="14.8247840535"><ele>-0.34</ele><time>2011-10-11T07:23:15Z</time></trkpt><trkpt lat="44.2015613616" lon="14.8245683871"><ele>-0.34</ele><time>2011-10-11T07:23:28Z</time></trkpt><trkpt lat="44.2018109746" lon="14.8243719153"><ele>-0.82</ele><time>2011-10-11T07:23:40Z</time></trkpt><trkpt lat="44.2020552233" lon="14.8241684865"><ele>-0.82</ele><time>2011-10-11T07:23:52Z</time></trkpt><trkpt lat="44.2023106199" lon="14.8239638843"><ele>-0.34</ele><time>2011-10-11T07:24:04Z</time></trkpt><trkpt lat="44.2025738116" lon="14.8237446975"><ele>0.14</ele><time>2011-10-11T07:24:17Z</time></trkpt><trkpt lat="44.2027833592" lon="14.8235798255"><ele>0.62</ele><time>2011-10-11T07:24:27Z</time></trkpt><trkpt lat="44.2030317150" lon="14.8233814258"><ele>0.14</ele><time>2011-10-11T07:24:39Z</time></trkpt><trkpt lat="44.2032890394" lon="14.8231845349"><ele>-0.82</ele><time>2011-10-11T07:24:51Z</time></trkpt><trkpt lat="44.2036254890" lon="14.8228981253"><ele>-1.30</ele><time>2011-10-11T07:25:07Z</time></trkpt><trkpt lat="44.2039343622" lon="14.8226390406"><ele>-0.34</ele><time>2011-10-11T07:25:22Z</time></trkpt><trkpt lat="44.2042284831" lon="14.8224057723"><ele>0.62</ele><time>2011-10-11T07:25:36Z</time></trkpt><trkpt lat="44.2045407090" lon="14.8221526388"><ele>1.10</ele><time>2011-10-11T07:25:51Z</time></trkpt><trkpt lat="44.2048517615" lon="14.8219041992"><ele>2.06</ele><time>2011-10-11T07:26:06Z</time></trkpt><trkpt lat="44.2051490676" lon="14.8216793127"><ele>2.54</ele><time>2011-10-11T07:26:20Z</time></trkpt><trkpt lat="44.2054743692" lon="14.8214328848"><ele>2.06</ele><time>2011-10-11T07:26:35Z</time></trkpt><trkpt lat="44.2058373056" lon="14.8211486544"><ele>3.50</ele><time>2011-10-11T07:26:52Z</time></trkpt><trkpt lat="44.2061220389" lon="14.8209288809"><ele>3.98</ele><time>2011-10-11T07:27:05Z</time></trkpt><trkpt lat="44.2064127233" lon="14.8206853867"><ele>4.94</ele><time>2011-10-11T07:27:19Z</time></trkpt><trkpt lat="44.2066858895" lon="14.8204559740"><ele>4.46</ele><time>2011-10-11T07:27:32Z</time></trkpt><trkpt lat="44.2070471495" lon="14.8201586679"><ele>4.46</ele><time>2011-10-11T07:27:49Z</time></trkpt><trkpt lat="44.2073481437" lon="14.8198947217"><ele>3.98</ele><time>2011-10-11T07:28:04Z</time></trkpt><trkpt lat="44.2076730262" lon="14.8195991758"><ele>3.98</ele><time>2011-10-11T07:28:20Z</time></trkpt><trkpt lat="44.2079741880" lon="14.8193586152"><ele>4.94</ele><time>2011-10-11T07:28:34Z</time></trkpt><trkpt lat="44.2082642019" lon="14.8191035539"><ele>5.42</ele><time>2011-10-11T07:28:48Z</time></trkpt><trkpt lat="44.2085465044" lon="14.8188493308"><ele>5.91</ele><time>2011-10-11T07:29:02Z</time></trkpt><trkpt lat="44.2088367697" lon="14.8185855523"><ele>5.42</ele><time>2011-10-11T07:29:16Z</time></trkpt><trkpt lat="44.2092103511" lon="14.8182629328"><ele>4.46</ele><time>2011-10-11T07:29:34Z</time></trkpt><trkpt lat="44.2095502373" lon="14.8179603461"><ele>4.94</ele><time>2011-10-11T07:29:50Z</time></trkpt><trkpt lat="44.2097961623" lon="14.8177518044"><ele>4.46</ele><time>2011-10-11T07:30:02Z</time></trkpt><trkpt lat="44.2100910377" lon="14.8174995091"><ele>4.46</ele><time>2011-10-11T07:30:16Z</time></trkpt><trkpt lat="44.2104294151" lon="14.8172281031"><ele>4.94</ele><time>2011-10-11T07:30:32Z</time></trkpt><trkpt lat="44.2107227817" lon="14.8170024622"><ele>3.98</ele><time>2011-10-11T07:30:46Z</time></trkpt><trkpt lat="44.2110437248" lon="14.8167458922"><ele>3.98</ele><time>2011-10-11T07:31:01Z</time></trkpt><trkpt lat="44.2113797553" lon="14.8164694570"><ele>3.98</ele><time>2011-10-11T07:31:17Z</time></trkpt><trkpt lat="44.2116770614" lon="14.8162220232"><ele>3.50</ele><time>2011-10-11T07:31:31Z</time></trkpt><trkpt lat="44.2119250819" lon="14.8160020821"><ele>3.02</ele><time>2011-10-11T07:31:43Z</time></trkpt><trkpt lat="44.2122373078" lon="14.8157341965"><ele>3.02</ele><time>2011-10-11T07:31:58Z</time></trkpt><trkpt lat="44.2125694826" lon="14.8154673167"><ele>1.58</ele><time>2011-10-11T07:32:14Z</time></trkpt><trkpt lat="44.2129050102" lon="14.8151810747"><ele>1.10</ele><time>2011-10-11T07:32:30Z</time></trkpt><trkpt lat="44.2131552938" lon="14.8149675038"><ele>0.62</ele><time>2011-10-11T07:32:42Z</time></trkpt><trkpt lat="44.2135404423" lon="14.8146548588"><ele>0.14</ele><time>2011-10-11T07:33:00Z</time></trkpt><trkpt lat="44.2139322124" lon="14.8143117875"><ele>1.58</ele><time>2011-10-11T07:33:19Z</time></trkpt><trkpt lat="44.2142184544" lon="14.8140573129"><ele>1.58</ele><time>2011-10-11T07:33:33Z</time></trkpt><trkpt lat="44.2145532276" lon="14.8137662932"><ele>1.10</ele><time>2011-10-11T07:33:49Z</time></trkpt><trkpt lat="44.2148615979" lon="14.8134956416"><ele>2.06</ele><time>2011-10-11T07:34:04Z</time></trkpt><trkpt lat="44.2152057588" lon="14.8132189550"><ele>1.58</ele><time>2011-10-11T07:34:20Z</time></trkpt><trkpt lat="44.2155169789" lon="14.8129612114"><ele>2.54</ele><time>2011-10-11T07:34:35Z</time></trkpt><trkpt lat="44.2157863732" lon="14.8127440363"><ele>2.06</ele><time>2011-10-11T07:34:48Z</time></trkpt><trkpt lat="44.2160993535" lon="14.8124880530"><ele>2.06</ele><time>2011-10-11T07:35:03Z</time></trkpt><trkpt lat="44.2164742760" lon="14.8121671937"><ele>1.58</ele><time>2011-10-11T07:35:21Z</time></trkpt><trkpt lat="44.2168099713" lon="14.8118817899"><ele>1.58</ele><time>2011-10-11T07:35:37Z</time></trkpt><trkpt lat="44.2170836404" lon="14.8116500303"><ele>1.10</ele><time>2011-10-11T07:35:50Z</time></trkpt><trkpt lat="44.2173814494" lon="14.8113637045"><ele>1.58</ele><time>2011-10-11T07:36:05Z</time></trkpt><trkpt lat="44.2177363392" lon="14.8110471200"><ele>2.54</ele><time>2011-10-11T07:36:22Z</time></trkpt><trkpt lat="44.2181550991" lon="14.8106723651"><ele>3.50</ele><time>2011-10-11T07:36:42Z</time></trkpt><trkpt lat="44.2184490524" lon="14.8104421142"><ele>2.54</ele><time>2011-10-11T07:36:56Z</time></trkpt><trkpt lat="44.2187894415" lon="14.8101604823"><ele>3.50</ele><time>2011-10-11T07:37:12Z</time></trkpt><trkpt lat="44.2191041820" lon="14.8098807782"><ele>3.98</ele><time>2011-10-11T07:37:27Z</time></trkpt><trkpt lat="44.2195209302" lon="14.8094963841"><ele>3.98</ele><time>2011-10-11T07:37:47Z</time></trkpt><trkpt lat="44.2198707908" lon="14.8091740999"><ele>3.50</ele><time>2011-10-11T07:38:04Z</time></trkpt><trkpt lat="44.2202865332" lon="14.8088096548"><ele>2.54</ele><time>2011-10-11T07:38:24Z</time></trkpt><trkpt lat="44.2206870206" lon="14.8084625602"><ele>3.02</ele><time>2011-10-11T07:38:43Z</time></trkpt><trkpt lat="44.2210637033" lon="14.8081245180"><ele>3.98</ele><time>2011-10-11T07:39:01Z</time></trkpt><trkpt lat="44.2214457504" lon="14.8077834584"><ele>3.98</ele><time>2011-10-11T07:39:19Z</time></trkpt><trkpt lat="44.2218792625" lon="14.8073998187"><ele>4.46</ele><time>2011-10-11T07:39:40Z</time></trkpt><trkpt lat="44.2223634012" lon="14.8069957271"><ele>3.98</ele><time>2011-10-11T07:40:03Z</time></trkpt><trkpt lat="44.2228148505" lon="14.8066223133"><ele>3.98</ele><time>2011-10-11T07:40:24Z</time></trkpt><trkpt lat="44.2232478596" lon="14.8062883783"><ele>3.98</ele><time>2011-10-11T07:40:44Z</time></trkpt><trkpt lat="44.2236909270" lon="14.8059142940"><ele>3.98</ele><time>2011-10-11T07:41:05Z</time></trkpt><trkpt lat="44.2241247743" lon="14.8055403773"><ele>3.50</ele><time>2011-10-11T07:41:26Z</time></trkpt><trkpt lat="44.2246159539" lon="14.8050980642"><ele>4.46</ele><time>2011-10-11T07:41:50Z</time></trkpt><trkpt lat="44.2251104023" lon="14.8047020193"><ele>3.98</ele><time>2011-10-11T07:42:13Z</time></trkpt><trkpt lat="44.2254906893" lon="14.8043985944"><ele>3.98</ele><time>2011-10-11T07:42:30Z</time></trkpt><trkpt lat="44.2257555574" lon="14.8041664157"><ele>4.46</ele><time>2011-10-11T07:42:43Z</time></trkpt><trkpt lat="44.2261655163" lon="14.8038145434"><ele>4.94</ele><time>2011-10-11T07:43:02Z</time></trkpt><trkpt lat="44.2265731283" lon="14.8034454882"><ele>4.46</ele><time>2011-10-11T07:43:22Z</time></trkpt><trkpt lat="44.2269958276" lon="14.8030730803"><ele>3.98</ele><time>2011-10-11T07:43:42Z</time></trkpt><trkpt lat="44.2273957282" lon="14.8027533945"><ele>3.98</ele><time>2011-10-11T07:44:01Z</time></trkpt><trkpt lat="44.2278190143" lon="14.8023437709"><ele>4.46</ele><time>2011-10-11T07:44:22Z</time></trkpt><trkpt lat="44.2280868161" lon="14.8019262683"><ele>4.46</ele><time>2011-10-11T07:44:38Z</time></trkpt><trkpt lat="44.2284382693" lon="14.8013452347"><ele>4.46</ele><time>2011-10-11T07:45:00Z</time></trkpt><trkpt lat="44.2287504114" lon="14.8008517921"><ele>4.94</ele><time>2011-10-11T07:45:19Z</time></trkpt><trkpt lat="44.2291111685" lon="14.8002505582"><ele>3.98</ele><time>2011-10-11T07:45:42Z</time></trkpt><trkpt lat="44.2294127494" lon="14.7997484822"><ele>4.46</ele><time>2011-10-11T07:46:01Z</time></trkpt><trkpt lat="44.2297000811" lon="14.7992178239"><ele>5.42</ele><time>2011-10-11T07:46:20Z</time></trkpt><trkpt lat="44.2300154921" lon="14.7986786161"><ele>3.98</ele><time>2011-10-11T07:46:40Z</time></trkpt><trkpt lat="44.2303981259" lon="14.7980727721"><ele>3.98</ele><time>2011-10-11T07:47:03Z</time></trkpt><trkpt lat="44.2307170574" lon="14.7975732107"><ele>3.50</ele><time>2011-10-11T07:47:22Z</time></trkpt><trkpt lat="44.2309714481" lon="14.7971400339"><ele>2.06</ele><time>2011-10-11T07:47:38Z</time></trkpt><trkpt lat="44.2312731966" lon="14.7966242116"><ele>2.54</ele><time>2011-10-11T07:47:57Z</time></trkpt><trkpt lat="44.2315214686" lon="14.7961263265"><ele>4.46</ele><time>2011-10-11T07:48:14Z</time></trkpt><trkpt lat="44.2318176012" lon="14.7956280224"><ele>3.98</ele><time>2011-10-11T07:48:32Z</time></trkpt><trkpt lat="44.2321220320" lon="14.7950386070"><ele>4.94</ele><time>2011-10-11T07:48:53Z</time></trkpt><trkpt lat="44.2324428074" lon="14.7944435757"><ele>5.91</ele><time>2011-10-11T07:49:14Z</time></trkpt><trkpt lat="44.2327909078" lon="14.7938404977"><ele>5.42</ele><time>2011-10-11T07:49:36Z</time></trkpt><trkpt lat="44.2331546824" lon="14.7932452150"><ele>2.06</ele><time>2011-10-11T07:49:58Z</time></trkpt><trkpt lat="44.2334720213" lon="14.7926318273"><ele>3.50</ele><time>2011-10-11T07:50:20Z</time></trkpt><trkpt lat="44.2338046152" lon="14.7920427471"><ele>3.50</ele><time>2011-10-11T07:50:42Z</time></trkpt><trkpt lat="44.2341395561" lon="14.7915445268"><ele>3.50</ele><time>2011-10-11T07:51:02Z</time></trkpt><trkpt lat="44.2344313301" lon="14.7910958435"><ele>4.94</ele><time>2011-10-11T07:51:20Z</time></trkpt><trkpt lat="44.2347882316" lon="14.7905231081"><ele>4.94</ele><time>2011-10-11T07:51:42Z</time></trkpt><trkpt lat="44.2350982781" lon="14.7900823876"><ele>4.46</ele><time>2011-10-11T07:52:00Z</time></trkpt><trkpt lat="44.2354043014" lon="14.7896078043"><ele>4.46</ele><time>2011-10-11T07:52:19Z</time></trkpt><trkpt lat="44.2357694171" lon="14.7890107613"><ele>3.98</ele><time>2011-10-11T07:52:42Z</time></trkpt><trkpt lat="44.2361299228" lon="14.7884218488"><ele>3.98</ele><time>2011-10-11T07:53:05Z</time></trkpt><trkpt lat="44.2364035081" lon="14.7879436612"><ele>4.46</ele><time>2011-10-11T07:53:23Z</time></trkpt><trkpt lat="44.2366099544" lon="14.7873939760"><ele>4.94</ele><time>2011-10-11T07:53:41Z</time></trkpt><trkpt lat="44.2368669435" lon="14.7867195681"><ele>6.39</ele><time>2011-10-11T07:54:03Z</time></trkpt><trkpt lat="44.2371692788" lon="14.7859714832"><ele>4.46</ele><time>2011-10-11T07:54:28Z</time></trkpt><trkpt lat="44.2374044750" lon="14.7853343748"><ele>3.02</ele><time>2011-10-11T07:54:49Z</time></trkpt><trkpt lat="44.2376535013" lon="14.7846646607"><ele>2.54</ele><time>2011-10-11T07:55:11Z</time></trkpt><trkpt lat="44.2378905416" lon="14.7840276361"><ele>3.50</ele><time>2011-10-11T07:55:32Z</time></trkpt><trkpt lat="44.2381617799" lon="14.7833470255"><ele>4.94</ele><time>2011-10-11T07:55:55Z</time></trkpt><trkpt lat="44.2384156678" lon="14.7826955002"><ele>4.94</ele><time>2011-10-11T07:56:17Z</time></trkpt><trkpt lat="44.2386992276" lon="14.7819501814"><ele>4.46</ele><time>2011-10-11T07:56:42Z</time></trkpt><trkpt lat="44.2389440630" lon="14.7812882625"><ele>3.50</ele><time>2011-10-11T07:57:04Z</time></trkpt><trkpt lat="44.2392225098" lon="14.7805167083"><ele>3.50</ele><time>2011-10-11T07:57:29Z</time></trkpt><trkpt lat="44.2395056505" lon="14.7797661088"><ele>3.98</ele><time>2011-10-11T07:57:54Z</time></trkpt><trkpt lat="44.2397300340" lon="14.7791695688"><ele>4.46</ele><time>2011-10-11T07:58:14Z</time></trkpt><trkpt lat="44.2399926390" lon="14.7784006968"><ele>3.50</ele><time>2011-10-11T07:58:39Z</time></trkpt><trkpt lat="44.2402478680" lon="14.7776701301"><ele>3.02</ele><time>2011-10-11T07:59:03Z</time></trkpt><trkpt lat="44.2405146640" lon="14.7769479454"><ele>4.46</ele><time>2011-10-11T07:59:27Z</time></trkpt><trkpt lat="44.2407773528" lon="14.7762698494"><ele>5.42</ele><time>2011-10-11T07:59:50Z</time></trkpt><trkpt lat="44.2410228588" lon="14.7756786738"><ele>5.91</ele><time>2011-10-11T08:00:10Z</time></trkpt><trkpt lat="44.2413309775" lon="14.7748667188"><ele>5.91</ele><time>2011-10-11T08:00:37Z</time></trkpt><trkpt lat="44.2415922415" lon="14.7741695959"><ele>6.39</ele><time>2011-10-11T08:01:00Z</time></trkpt><trkpt lat="44.2418982647" lon="14.7734682821"><ele>5.42</ele><time>2011-10-11T08:01:24Z</time></trkpt><trkpt lat="44.2421533260" lon="14.7727714106"><ele>6.87</ele><time>2011-10-11T08:01:46Z</time></trkpt><trkpt lat="44.2424133327" lon="14.7720493097"><ele>7.35</ele><time>2011-10-11T08:02:09Z</time></trkpt><trkpt lat="44.2426414043" lon="14.7714375984"><ele>6.39</ele><time>2011-10-11T08:02:29Z</time></trkpt><trkpt lat="44.2429273948" lon="14.7707268968"><ele>4.94</ele><time>2011-10-11T08:02:52Z</time></trkpt><trkpt lat="44.2431657761" lon="14.7700183745"><ele>4.46</ele><time>2011-10-11T08:03:14Z</time></trkpt><trkpt lat="44.2433777545" lon="14.7693459783"><ele>3.98</ele><time>2011-10-11T08:03:35Z</time></trkpt><trkpt lat="44.2435768247" lon="14.7687078640"><ele>4.46</ele><time>2011-10-11T08:03:55Z</time></trkpt><trkpt lat="44.2438343167" lon="14.7679840028"><ele>4.46</ele><time>2011-10-11T08:04:19Z</time></trkpt><trkpt lat="44.2441618815" lon="14.7673276998"><ele>3.02</ele><time>2011-10-11T08:04:42Z</time></trkpt><trkpt lat="44.2444544099" lon="14.7667298187"><ele>3.50</ele><time>2011-10-11T08:05:03Z</time></trkpt><trkpt lat="44.2447603494" lon="14.7661146708"><ele>3.98</ele><time>2011-10-11T08:05:25Z</time></trkpt><trkpt lat="44.2450892553" lon="14.7654747963"><ele>2.54</ele><time>2011-10-11T08:05:48Z</time></trkpt><trkpt lat="44.2453588173" lon="14.7649448924"><ele>3.02</ele><time>2011-10-11T08:06:07Z</time></trkpt><trkpt lat="44.2457195744" lon="14.7644698899"><ele>3.98</ele><time>2011-10-11T08:06:27Z</time></trkpt><trkpt lat="44.2460464686" lon="14.7640124895"><ele>3.98</ele><time>2011-10-11T08:06:46Z</time></trkpt><trkpt lat="44.2464538291" lon="14.7634303663"><ele>3.98</ele><time>2011-10-11T08:07:10Z</time></trkpt><trkpt lat="44.2468140833" lon="14.7629137058"><ele>3.98</ele><time>2011-10-11T08:07:31Z</time></trkpt><trkpt lat="44.2471947055" lon="14.7623998113"><ele>3.98</ele><time>2011-10-11T08:07:53Z</time></trkpt><trkpt lat="44.2476366833" lon="14.7618444264"><ele>4.46</ele><time>2011-10-11T08:08:17Z</time></trkpt><trkpt lat="44.2480157968" lon="14.7613408417"><ele>3.50</ele><time>2011-10-11T08:08:38Z</time></trkpt><trkpt lat="44.2484269291" lon="14.7608126979"><ele>3.50</ele><time>2011-10-11T08:09:01Z</time></trkpt><trkpt lat="44.2488576751" lon="14.7602957860"><ele>3.50</ele><time>2011-10-11T08:09:24Z</time></trkpt><trkpt lat="44.2492144089" lon="14.7598747630"><ele>3.98</ele><time>2011-10-11T08:09:43Z</time></trkpt><trkpt lat="44.2495830450" lon="14.7593284305"><ele>3.02</ele><time>2011-10-11T08:10:05Z</time></trkpt><trkpt lat="44.2499541957" lon="14.7586116102"><ele>3.98</ele><time>2011-10-11T08:10:31Z</time></trkpt><trkpt lat="44.2502768151" lon="14.7579858173"><ele>3.98</ele><time>2011-10-11T08:10:54Z</time></trkpt><trkpt lat="44.2505874485" lon="14.7574018501"><ele>4.46</ele><time>2011-10-11T08:11:16Z</time></trkpt><trkpt lat="44.2508979980" lon="14.7567965928"><ele>4.46</ele><time>2011-10-11T08:11:38Z</time></trkpt><trkpt lat="44.2511021812" lon="14.7563883942"><ele>3.50</ele><time>2011-10-11T08:11:53Z</time></trkpt><trkpt lat="44.2513811309" lon="14.7558131441"><ele>3.50</ele><time>2011-10-11T08:12:14Z</time></trkpt><trkpt lat="44.2516712286" lon="14.7552181967"><ele>3.50</ele><time>2011-10-11T08:12:36Z</time></trkpt><trkpt lat="44.2520070076" lon="14.7545789927"><ele>3.50</ele><time>2011-10-11T08:13:00Z</time></trkpt><trkpt lat="44.2523043137" lon="14.7540017311"><ele>3.02</ele><time>2011-10-11T08:13:22Z</time></trkpt><trkpt lat="44.2526262626" lon="14.7534574941"><ele>3.98</ele><time>2011-10-11T08:13:44Z</time></trkpt><trkpt lat="44.2529482115" lon="14.7529902868"><ele>5.42</ele><time>2011-10-11T08:14:04Z</time></trkpt><trkpt lat="44.2533442564" lon="14.7524982691"><ele>4.46</ele><time>2011-10-11T08:14:27Z</time></trkpt><trkpt lat="44.2536905967" lon="14.7520755697"><ele>4.46</ele><time>2011-10-11T08:14:47Z</time></trkpt><trkpt lat="44.2540853005" lon="14.7516531218"><ele>4.46</ele><time>2011-10-11T08:15:08Z</time></trkpt><trkpt lat="44.2544738017" lon="14.7512337752"><ele>3.02</ele><time>2011-10-11T08:15:29Z</time></trkpt><trkpt lat="44.2548384145" lon="14.7508204635"><ele>3.50</ele><time>2011-10-11T08:15:49Z</time></trkpt><trkpt lat="44.2552521452" lon="14.7503866162"><ele>4.46</ele><time>2011-10-11T08:16:11Z</time></trkpt><trkpt lat="44.2555586714" lon="14.7500769887"><ele>5.91</ele><time>2011-10-11T08:16:27Z</time></trkpt><trkpt lat="44.2560024932" lon="14.7495868150"><ele>5.91</ele><time>2011-10-11T08:16:51Z</time></trkpt><trkpt lat="44.2563780025" lon="14.7491914406"><ele>4.94</ele><time>2011-10-11T08:17:11Z</time></trkpt><trkpt lat="44.2567958403" lon="14.7487588506"><ele>4.46</ele><time>2011-10-11T08:17:33Z</time></trkpt><trkpt lat="44.2571115028" lon="14.7484372370"><ele>3.98</ele><time>2011-10-11T08:17:50Z</time></trkpt><trkpt lat="44.2575403210" lon="14.7479875479"><ele>5.91</ele><time>2011-10-11T08:18:13Z</time></trkpt><trkpt lat="44.2578788660" lon="14.7476319037"><ele>5.91</ele><time>2011-10-11T08:18:31Z</time></trkpt><trkpt lat="44.2583082709" lon="14.7472078633"><ele>7.83</ele><time>2011-10-11T08:18:53Z</time></trkpt><trkpt lat="44.2586862110" lon="14.7468510456"><ele>6.39</ele><time>2011-10-11T08:19:13Z</time></trkpt><trkpt lat="44.2591272667" lon="14.7464325372"><ele>4.94</ele><time>2011-10-11T08:19:36Z</time></trkpt><trkpt lat="44.2595794704" lon="14.7459866200"><ele>5.42</ele><time>2011-10-11T08:19:59Z</time></trkpt><trkpt lat="44.2599837296" lon="14.7455955204"><ele>6.87</ele><time>2011-10-11T08:20:20Z</time></trkpt><trkpt lat="44.2605096940" lon="14.7450546362"><ele>7.35</ele><time>2011-10-11T08:20:47Z</time></trkpt><trkpt lat="44.2609333992" lon="14.7445782088"><ele>7.35</ele><time>2011-10-11T08:21:10Z</time></trkpt><trkpt lat="44.2613366526" lon="14.7441292740"><ele>7.83</ele><time>2011-10-11T08:21:32Z</time></trkpt><trkpt lat="44.2617828213" lon="14.7436577082"><ele>9.75</ele><time>2011-10-11T08:21:56Z</time></trkpt><trkpt lat="44.2621911038" lon="14.7432076000"><ele>8.79</ele><time>2011-10-11T08:22:19Z</time></trkpt><trkpt lat="44.2626511026" lon="14.7426983994"><ele>8.79</ele><time>2011-10-11T08:22:45Z</time></trkpt><trkpt lat="44.2630129494" lon="14.7423418332"><ele>7.83</ele><time>2011-10-11T08:23:05Z</time></trkpt><trkpt lat="44.2634704337" lon="14.7419293597"><ele>5.91</ele><time>2011-10-11T08:23:30Z</time></trkpt><trkpt lat="44.2638585158" lon="14.7415341530"><ele>5.42</ele><time>2011-10-11T08:23:52Z</time></trkpt><trkpt lat="44.2643290758" lon="14.7410963662"><ele>4.94</ele><time>2011-10-11T08:24:18Z</time></trkpt><trkpt lat="44.2647397891" lon="14.7407227848"><ele>4.46</ele><time>2011-10-11T08:24:41Z</time></trkpt><trkpt lat="44.2650841177" lon="14.7403895203"><ele>3.98</ele><time>2011-10-11T08:25:00Z</time></trkpt><trkpt lat="44.2655203119" lon="14.7399550863"><ele>3.50</ele><time>2011-10-11T08:25:25Z</time></trkpt><trkpt lat="44.2659915425" lon="14.7394854482"><ele>3.98</ele><time>2011-10-11T08:25:52Z</time></trkpt><trkpt lat="44.2663450073" lon="14.7391562909"><ele>3.98</ele><time>2011-10-11T08:26:12Z</time></trkpt><trkpt lat="44.2668186687" lon="14.7386547178"><ele>5.42</ele><time>2011-10-11T08:26:39Z</time></trkpt><trkpt lat="44.2672543600" lon="14.7381723393"><ele>5.42</ele><time>2011-10-11T08:27:04Z</time></trkpt><trkpt lat="44.2675839365" lon="14.7377915494"><ele>5.91</ele><time>2011-10-11T08:27:24Z</time></trkpt><trkpt lat="44.2679656483" lon="14.7375198081"><ele>4.94</ele><time>2011-10-11T08:27:44Z</time></trkpt><trkpt lat="44.2682901956" lon="14.7372913174"><ele>3.98</ele><time>2011-10-11T08:28:01Z</time></trkpt><trkpt lat="44.2686771043" lon="14.7369720507"><ele>3.50</ele><time>2011-10-11T08:28:22Z</time></trkpt><trkpt lat="44.2690237798" lon="14.7367089428"><ele>3.50</ele><time>2011-10-11T08:28:41Z</time></trkpt><trkpt lat="44.2694131192" lon="14.7364283167"><ele>3.98</ele><time>2011-10-11T08:29:02Z</time></trkpt><trkpt lat="44.2698057275" lon="14.7361181024"><ele>3.50</ele><time>2011-10-11T08:29:24Z</time></trkpt><trkpt lat="44.2701721005" lon="14.7359381430"><ele>3.98</ele><time>2011-10-11T08:29:44Z</time></trkpt><trkpt lat="44.2705173511" lon="14.7357477900"><ele>4.46</ele><time>2011-10-11T08:30:03Z</time></trkpt><trkpt lat="44.2710136436" lon="14.7354847658"><ele>3.02</ele><time>2011-10-11T08:30:30Z</time></trkpt><trkpt lat="44.2714677751" lon="14.7352887131"><ele>3.02</ele><time>2011-10-11T08:30:54Z</time></trkpt><trkpt lat="44.2718276940" lon="14.7351342347"><ele>3.02</ele><time>2011-10-11T08:31:14Z</time></trkpt><trkpt lat="44.2722834181" lon="14.7349360026"><ele>3.50</ele><time>2011-10-11T08:31:40Z</time></trkpt><trkpt lat="44.2726415768" lon="14.7347609047"><ele>2.54</ele><time>2011-10-11T08:32:00Z</time></trkpt><trkpt lat="44.2730414774" lon="14.7345616668"><ele>1.58</ele><time>2011-10-11T08:32:22Z</time></trkpt><trkpt lat="44.2734683678" lon="14.7343507782"><ele>2.54</ele><time>2011-10-11T08:32:46Z</time></trkpt><trkpt lat="44.2737871315" lon="14.7340634465"><ele>2.06</ele><time>2011-10-11T08:33:06Z</time></trkpt><trkpt lat="44.2741581984" lon="14.7338250652"><ele>1.58</ele><time>2011-10-11T08:33:28Z</time></trkpt><trkpt lat="44.2745482922" lon="14.7335364763"><ele>3.02</ele><time>2011-10-11T08:33:51Z</time></trkpt><trkpt lat="44.2748973146" lon="14.7332109232"><ele>2.54</ele><time>2011-10-11T08:34:13Z</time></trkpt><trkpt lat="44.2753258813" lon="14.7328043170"><ele>3.02</ele><time>2011-10-11T08:34:40Z</time></trkpt><trkpt lat="44.2756968644" lon="14.7324784286"><ele>3.50</ele><time>2011-10-11T08:35:03Z</time></trkpt><trkpt lat="44.2760558613" lon="14.7321719024"><ele>4.46</ele><time>2011-10-11T08:35:25Z</time></trkpt><trkpt lat="44.2764963303" lon="14.7318558209"><ele>3.02</ele><time>2011-10-11T08:35:50Z</time></trkpt><trkpt lat="44.2769660521" lon="14.7314892802"><ele>2.54</ele><time>2011-10-11T08:36:17Z</time></trkpt><trkpt lat="44.2773611750" lon="14.7311444487"><ele>2.54</ele><time>2011-10-11T08:36:40Z</time></trkpt><trkpt lat="44.2778262030" lon="14.7307162173"><ele>2.06</ele><time>2011-10-11T08:37:07Z</time></trkpt><trkpt lat="44.2781787459" lon="14.7303920891"><ele>2.54</ele><time>2011-10-11T08:37:27Z</time></trkpt><trkpt lat="44.2785599548" lon="14.7300050966"><ele>3.02</ele><time>2011-10-11T08:37:49Z</time></trkpt><trkpt lat="44.2789493781" lon="14.7296148352"><ele>3.02</ele><time>2011-10-11T08:38:11Z</time></trkpt><trkpt lat="44.2794316728" lon="14.7291638888"><ele>4.46</ele><time>2011-10-11T08:38:37Z</time></trkpt><trkpt lat="44.2798127141" lon="14.7287711967"><ele>4.94</ele><time>2011-10-11T08:38:58Z</time></trkpt><trkpt lat="44.2802539375" lon="14.7283914965"><ele>3.50</ele><time>2011-10-11T08:39:21Z</time></trkpt><trkpt lat="44.2807137687" lon="14.7279878240"><ele>3.98</ele><time>2011-10-11T08:39:45Z</time></trkpt><trkpt lat="44.2811905313" lon="14.7275496181"><ele>4.94</ele><time>2011-10-11T08:40:10Z</time></trkpt><trkpt lat="44.2816541344" lon="14.7271371447"><ele>3.98</ele><time>2011-10-11T08:40:34Z</time></trkpt><trkpt lat="44.2820985429" lon="14.7267771419"><ele>3.50</ele><time>2011-10-11T08:40:56Z</time></trkpt><trkpt lat="44.2825980205" lon="14.7263451386"><ele>3.02</ele><time>2011-10-11T08:41:21Z</time></trkpt><trkpt lat="44.2831112444" lon="14.7258566413"><ele>0.62</ele><time>2011-10-11T08:41:47Z</time></trkpt><trkpt lat="44.2835368775" lon="14.7254129034"><ele>0.14</ele><time>2011-10-11T08:42:10Z</time></trkpt><trkpt lat="44.2839444056" lon="14.7249932215"><ele>0.62</ele><time>2011-10-11T08:42:32Z</time></trkpt><trkpt lat="44.2843745649" lon="14.7245642357"><ele>0.62</ele><time>2011-10-11T08:42:55Z</time></trkpt><trkpt lat="44.2848255951" lon="14.7241204977"><ele>0.14</ele><time>2011-10-11T08:43:19Z</time></trkpt><trkpt lat="44.2853140924" lon="14.7236496862"><ele>1.10</ele><time>2011-10-11T08:43:44Z</time></trkpt><trkpt lat="44.2858267296" lon="14.7231597640"><ele>2.06</ele><time>2011-10-11T08:44:10Z</time></trkpt><trkpt lat="44.2862844653" lon="14.7227153555"><ele>2.54</ele><time>2011-10-11T08:44:33Z</time></trkpt><trkpt lat="44.2868239246" lon="14.7221855354"><ele>2.06</ele><time>2011-10-11T08:45:00Z</time></trkpt><trkpt lat="44.2873319518" lon="14.7216563020"><ele>1.58</ele><time>2011-10-11T08:45:25Z</time></trkpt><trkpt lat="44.2878637835" lon="14.7211160045"><ele>3.02</ele><time>2011-10-11T08:45:51Z</time></trkpt><trkpt lat="44.2883646023" lon="14.7206563409"><ele>3.98</ele><time>2011-10-11T08:46:15Z</time></trkpt><trkpt lat="44.2888997030" lon="14.7201348189"><ele>3.98</ele><time>2011-10-11T08:46:41Z</time></trkpt><trkpt lat="44.2893858533" lon="14.7196686175"><ele>4.46</ele><time>2011-10-11T08:47:05Z</time></trkpt><trkpt lat="44.2898951378" lon="14.7191962134"><ele>3.98</ele><time>2011-10-11T08:47:30Z</time></trkpt><trkpt lat="44.2904250417" lon="14.7186637111"><ele>4.46</ele><time>2011-10-11T08:47:57Z</time></trkpt><trkpt lat="44.2910097633" lon="14.7181437816"><ele>2.54</ele><time>2011-10-11T08:48:25Z</time></trkpt><trkpt lat="44.2915170360" lon="14.7176916618"><ele>3.02</ele><time>2011-10-11T08:48:49Z</time></trkpt><trkpt lat="44.2920502089" lon="14.7172098700"><ele>2.06</ele><time>2011-10-11T08:49:14Z</time></trkpt><trkpt lat="44.2925056815" lon="14.7168218717"><ele>2.06</ele><time>2011-10-11T08:49:35Z</time></trkpt><trkpt lat="44.2930723820" lon="14.7163480427"><ele>2.54</ele><time>2011-10-11T08:50:01Z</time></trkpt><trkpt lat="44.2936312035" lon="14.7158527561"><ele>2.06</ele><time>2011-10-11T08:50:27Z</time></trkpt><trkpt lat="44.2941834871" lon="14.7153887339"><ele>2.06</ele><time>2011-10-11T08:50:52Z</time></trkpt><trkpt lat="44.2946588248" lon="14.7150183376"><ele>1.58</ele><time>2011-10-11T08:51:14Z</time></trkpt><trkpt lat="44.2952160537" lon="14.7145730071"><ele>-0.82</ele><time>2011-10-11T08:51:40Z</time></trkpt><trkpt lat="44.2956512421" lon="14.7141325381"><ele>-0.82</ele><time>2011-10-11T08:52:02Z</time></trkpt><trkpt lat="44.2961337883" lon="14.7136779875"><ele>-1.30</ele><time>2011-10-11T08:52:27Z</time></trkpt><trkpt lat="44.2964807991" lon="14.7133122012"><ele>-0.34</ele><time>2011-10-11T08:52:52Z</time></trkpt><trkpt lat="44.2967568152" lon="14.7129376978"><ele>-0.34</ele><time>2011-10-11T08:53:17Z</time></trkpt><trkpt lat="44.2969251238" lon="14.7127833031"><ele>-0.34</ele><time>2011-10-11T08:53:39Z</time></trkpt><trkpt lat="44.2970609944" lon="14.7126498632"><ele>0.62</ele><time>2011-10-11T08:54:04Z</time></trkpt><trkpt lat="44.2970521934" lon="14.7124052793"><ele>0.62</ele><time>2011-10-11T08:54:29Z</time></trkpt><trkpt lat="44.2970442306" lon="14.7122389823"><ele>0.62</ele><time>2011-10-11T08:54:44Z</time></trkpt><trkpt lat="44.2970457394" lon="14.7121825721"><ele>1.58</ele><time>2011-10-11T08:54:48Z</time></trkpt><trkpt lat="44.2970860563" lon="14.7118141036"><ele>1.10</ele><time>2011-10-11T08:55:13Z</time></trkpt><trkpt lat="44.2971570510" lon="14.7114738822"><ele>0.14</ele><time>2011-10-11T08:55:36Z</time></trkpt><trkpt lat="44.2971770000" lon="14.7111577168"><ele>1.10</ele><time>2011-10-11T08:55:56Z</time></trkpt><trkpt lat="44.2972096894" lon="14.7106728237"><ele>2.54</ele><time>2011-10-11T08:56:21Z</time></trkpt><trkpt lat="44.2972236872" lon="14.7102554049"><ele>1.10</ele><time>2011-10-11T08:56:42Z</time></trkpt><trkpt lat="44.2972476594" lon="14.7097961605"><ele>0.62</ele><time>2011-10-11T08:57:04Z</time></trkpt><trkpt lat="44.2972475756" lon="14.7092142887"><ele>-0.34</ele><time>2011-10-11T08:57:28Z</time></trkpt><trkpt lat="44.2972976994" lon="14.7087557986"><ele>0.14</ele><time>2011-10-11T08:57:47Z</time></trkpt><trkpt lat="44.2973986175" lon="14.7082425747"><ele>-0.82</ele><time>2011-10-11T08:58:11Z</time></trkpt><trkpt lat="44.2974686902" lon="14.7077574302"><ele>-1.30</ele><time>2011-10-11T08:58:33Z</time></trkpt><trkpt lat="44.2974271160" lon="14.7072437871"><ele>-0.82</ele><time>2011-10-11T08:58:51Z</time></trkpt><trkpt lat="44.2972674407" lon="14.7066070139"><ele>-0.34</ele><time>2011-10-11T08:59:13Z</time></trkpt><trkpt lat="44.2970771715" lon="14.7061308380"><ele>0.62</ele><time>2011-10-11T08:59:33Z</time></trkpt><trkpt lat="44.2969281413" lon="14.7056982480"><ele>1.58</ele><time>2011-10-11T08:59:53Z</time></trkpt><trkpt lat="44.2968035862" lon="14.7052905522"><ele>1.10</ele><time>2011-10-11T09:00:14Z</time></trkpt><trkpt lat="44.2967439070" lon="14.7049952578"><ele>1.58</ele><time>2011-10-11T09:00:30Z</time></trkpt><trkpt lat="44.2966354452" lon="14.7046489175"><ele>2.06</ele><time>2011-10-11T09:00:49Z</time></trkpt><trkpt lat="44.2965111416" lon="14.7042713966"><ele>1.58</ele><time>2011-10-11T09:01:10Z</time></trkpt><trkpt lat="44.2963749357" lon="14.7038889304"><ele>0.62</ele><time>2011-10-11T09:01:32Z</time></trkpt><trkpt lat="44.2962274142" lon="14.7035679873"><ele>0.62</ele><time>2011-10-11T09:01:52Z</time></trkpt><trkpt lat="44.2960565072" lon="14.7032343876"><ele>0.14</ele><time>2011-10-11T09:02:13Z</time></trkpt><trkpt lat="44.2959318683" lon="14.7029204853"><ele>-0.34</ele><time>2011-10-11T09:02:32Z</time></trkpt><trkpt lat="44.2958346382" lon="14.7025713790"><ele>0.14</ele><time>2011-10-11T09:02:53Z</time></trkpt><trkpt lat="44.2957478855" lon="14.7022304870"><ele>0.62</ele><time>2011-10-11T09:03:13Z</time></trkpt><trkpt lat="44.2956684250" lon="14.7018385492"><ele>0.62</ele><time>2011-10-11T09:03:35Z</time></trkpt><trkpt lat="44.2956386693" lon="14.7013584338"><ele>1.10</ele><time>2011-10-11T09:03:57Z</time></trkpt><trkpt lat="44.2956150323" lon="14.7008157894"><ele>0.62</ele><time>2011-10-11T09:04:17Z</time></trkpt><trkpt lat="44.2955239210" lon="14.7001599055"><ele>-0.34</ele><time>2011-10-11T09:04:40Z</time></trkpt><trkpt lat="44.2953934986" lon="14.6995227970"><ele>-1.30</ele><time>2011-10-11T09:05:04Z</time></trkpt><trkpt lat="44.2951998767" lon="14.6989167854"><ele>-0.82</ele><time>2011-10-11T09:05:31Z</time></trkpt><trkpt lat="44.2950288020" lon="14.6984425373"><ele>-0.82</ele><time>2011-10-11T09:05:55Z</time></trkpt><trkpt lat="44.2949241120" lon="14.6980039123"><ele>-0.82</ele><time>2011-10-11T09:06:16Z</time></trkpt><trkpt lat="44.2949172389" lon="14.6974440012"><ele>-0.34</ele><time>2011-10-11T09:06:39Z</time></trkpt><trkpt lat="44.2949617468" lon="14.6967123449"><ele>1.10</ele><time>2011-10-11T09:07:06Z</time></trkpt><trkpt lat="44.2949837074" lon="14.6960217599"><ele>0.62</ele><time>2011-10-11T09:07:29Z</time></trkpt><trkpt lat="44.2950035725" lon="14.6953132376"><ele>0.14</ele><time>2011-10-11T09:07:51Z</time></trkpt><trkpt lat="44.2949613277" lon="14.6945358161"><ele>0.62</ele><time>2011-10-11T09:08:15Z</time></trkpt><trkpt lat="44.2948684562" lon="14.6937220171"><ele>0.62</ele><time>2011-10-11T09:08:39Z</time></trkpt><trkpt lat="44.2947279755" lon="14.6931292489"><ele>1.10</ele><time>2011-10-11T09:08:57Z</time></trkpt><trkpt lat="44.2944792844" lon="14.6923942398"><ele>0.14</ele><time>2011-10-11T09:09:21Z</time></trkpt><trkpt lat="44.2943405639" lon="14.6916972008"><ele>0.62</ele><time>2011-10-11T09:09:43Z</time></trkpt><trkpt lat="44.2942075431" lon="14.6910773590"><ele>0.62</ele><time>2011-10-11T09:10:03Z</time></trkpt><trkpt lat="44.2940606084" lon="14.6904538292"><ele>0.62</ele><time>2011-10-11T09:10:23Z</time></trkpt><trkpt lat="44.2939011846" lon="14.6897466481"><ele>0.62</ele><time>2011-10-11T09:10:44Z</time></trkpt><trkpt lat="44.2938159406" lon="14.6891056839"><ele>-0.82</ele><time>2011-10-11T09:11:02Z</time></trkpt><trkpt lat="44.2937809043" lon="14.6885598544"><ele>-0.34</ele><time>2011-10-11T09:11:17Z</time></trkpt><trkpt lat="44.2937761266" lon="14.6877616458"><ele>-0.34</ele><time>2011-10-11T09:11:39Z</time></trkpt><trkpt lat="44.2936793994" lon="14.6870024130"><ele>0.62</ele><time>2011-10-11T09:12:00Z</time></trkpt><trkpt lat="44.2925512791" lon="14.6826594137"><ele>1.10</ele><time>2011-10-11T09:14:07Z</time></trkpt><trkpt lat="44.2924301606" lon="14.6827764250"><ele>-2.75</ele><time>2011-10-11T09:14:08Z</time></trkpt><trkpt lat="44.2923611775" lon="14.6824519616"><ele>0.62</ele><time>2011-10-11T09:14:18Z</time></trkpt><trkpt lat="44.2922285758" lon="14.6819658112"><ele>1.58</ele><time>2011-10-11T09:14:31Z</time></trkpt><trkpt lat="44.2920914479" lon="14.6812062431"><ele>0.62</ele><time>2011-10-11T09:14:51Z</time></trkpt><trkpt lat="44.2920095567" lon="14.6806905884"><ele>2.06</ele><time>2011-10-11T09:15:05Z</time></trkpt><trkpt lat="44.2919073813" lon="14.6800877620"><ele>2.06</ele><time>2011-10-11T09:15:21Z</time></trkpt><trkpt lat="44.2917664815" lon="14.6793709416"><ele>2.54</ele><time>2011-10-11T09:15:40Z</time></trkpt><trkpt lat="44.2916376516" lon="14.6787608229"><ele>2.54</ele><time>2011-10-11T09:15:57Z</time></trkpt><trkpt lat="44.2915151920" lon="14.6782514546"><ele>2.06</ele><time>2011-10-11T09:16:12Z</time></trkpt><trkpt lat="44.2913803272" lon="14.6776636317"><ele>1.10</ele><time>2011-10-11T09:16:29Z</time></trkpt><trkpt lat="44.2912418582" lon="14.6771110129"><ele>0.62</ele><time>2011-10-11T09:16:45Z</time></trkpt><trkpt lat="44.2911421135" lon="14.6766251978"><ele>0.62</ele><time>2011-10-11T09:16:59Z</time></trkpt><trkpt lat="44.2910997011" lon="14.6760248858"><ele>-0.34</ele><time>2011-10-11T09:17:16Z</time></trkpt><trkpt lat="44.2910147086" lon="14.6753143519"><ele>0.62</ele><time>2011-10-11T09:17:36Z</time></trkpt><trkpt lat="44.2908463161" lon="14.6746277064"><ele>0.14</ele><time>2011-10-11T09:17:55Z</time></trkpt><trkpt lat="44.2907046620" lon="14.6740425657"><ele>1.10</ele><time>2011-10-11T09:18:12Z</time></trkpt><trkpt lat="44.2906073481" lon="14.6734864265"><ele>1.58</ele><time>2011-10-11T09:18:29Z</time></trkpt><trkpt lat="44.2905111238" lon="14.6728065703"><ele>-0.34</ele><time>2011-10-11T09:18:50Z</time></trkpt><trkpt lat="44.2904011533" lon="14.6722120419"><ele>-0.34</ele><time>2011-10-11T09:19:09Z</time></trkpt><trkpt lat="44.2903511133" lon="14.6716591716"><ele>-0.34</ele><time>2011-10-11T09:19:27Z</time></trkpt><trkpt lat="44.2902841419" lon="14.6710643917"><ele>0.14</ele><time>2011-10-11T09:19:46Z</time></trkpt><trkpt lat="44.2902384605" lon="14.6705794148"><ele>-0.34</ele><time>2011-10-11T09:20:02Z</time></trkpt><trkpt lat="44.2901784461" lon="14.6699383669"><ele>0.14</ele><time>2011-10-11T09:20:23Z</time></trkpt><trkpt lat="44.2900952976" lon="14.6693229675"><ele>0.14</ele><time>2011-10-11T09:20:42Z</time></trkpt><trkpt lat="44.2901049368" lon="14.6687985118"><ele>0.62</ele><time>2011-10-11T09:20:59Z</time></trkpt><trkpt lat="44.2901225388" lon="14.6683075000"><ele>0.62</ele><time>2011-10-11T09:21:14Z</time></trkpt><trkpt lat="44.2901481874" lon="14.6676767617"><ele>0.62</ele><time>2011-10-11T09:21:33Z</time></trkpt><trkpt lat="44.2901732493" lon="14.6669825725"><ele>0.62</ele><time>2011-10-11T09:21:55Z</time></trkpt><trkpt lat="44.2902102135" lon="14.6664442029"><ele>0.14</ele><time>2011-10-11T09:22:14Z</time></trkpt><trkpt lat="44.2903050967" lon="14.6658681147"><ele>0.14</ele><time>2011-10-11T09:22:35Z</time></trkpt><trkpt lat="44.2904266343" lon="14.6654090378"><ele>-0.34</ele><time>2011-10-11T09:22:52Z</time></trkpt><trkpt lat="44.2905950267" lon="14.6649103984"><ele>0.14</ele><time>2011-10-11T09:23:12Z</time></trkpt><trkpt lat="44.2908121180" lon="14.6643663291"><ele>0.14</ele><time>2011-10-11T09:23:34Z</time></trkpt><trkpt lat="44.2910050694" lon="14.6639974415"><ele>0.62</ele><time>2011-10-11T09:23:51Z</time></trkpt><trkpt lat="44.2911891360" lon="14.6637241915"><ele>0.14</ele><time>2011-10-11T09:24:06Z</time></trkpt><trkpt lat="44.2913495656" lon="14.6634782664"><ele>0.62</ele><time>2011-10-11T09:24:21Z</time></trkpt><trkpt lat="44.2914969195" lon="14.6631956287"><ele>-0.34</ele><time>2011-10-11T09:24:40Z</time></trkpt><trkpt lat="44.2915905453" lon="14.6628893539"><ele>-0.82</ele><time>2011-10-11T09:24:58Z</time></trkpt><trkpt lat="44.2916390765" lon="14.6625160240"><ele>-0.82</ele><time>2011-10-11T09:25:18Z</time></trkpt><trkpt lat="44.2916614562" lon="14.6622201428"><ele>-1.30</ele><time>2011-10-11T09:25:32Z</time></trkpt><trkpt lat="44.2917290982" lon="14.6618333180"><ele>-1.30</ele><time>2011-10-11T09:25:51Z</time></trkpt><trkpt lat="44.2918415833" lon="14.6614811104"><ele>-1.30</ele><time>2011-10-11T09:26:08Z</time></trkpt><trkpt lat="44.2919979058" lon="14.6610651165"><ele>-0.82</ele><time>2011-10-11T09:26:28Z</time></trkpt><trkpt lat="44.2921196949" lon="14.6607296728"><ele>0.14</ele><time>2011-10-11T09:26:43Z</time></trkpt><trkpt lat="44.2922833096" lon="14.6602879465"><ele>0.14</ele><time>2011-10-11T09:27:01Z</time></trkpt><trkpt lat="44.2924386263" lon="14.6599263512"><ele>0.14</ele><time>2011-10-11T09:27:17Z</time></trkpt><trkpt lat="44.2925408855" lon="14.6596079227"><ele>1.10</ele><time>2011-10-11T09:27:35Z</time></trkpt><trkpt lat="44.2925993912" lon="14.6591791883"><ele>0.62</ele><time>2011-10-11T09:27:57Z</time></trkpt><trkpt lat="44.2925908417" lon="14.6587791201"><ele>0.62</ele><time>2011-10-11T09:28:19Z</time></trkpt><trkpt lat="44.2925175838" lon="14.6584785450"><ele>1.10</ele><time>2011-10-11T09:28:39Z</time></trkpt><trkpt lat="44.2923086230" lon="14.6581414249"><ele>1.10</ele><time>2011-10-11T09:29:03Z</time></trkpt><trkpt lat="44.2920267396" lon="14.6578415204"><ele>1.58</ele><time>2011-10-11T09:29:25Z</time></trkpt><trkpt lat="44.2917394079" lon="14.6575363353"><ele>1.10</ele><time>2011-10-11T09:29:46Z</time></trkpt><trkpt lat="44.2914275173" lon="14.6571969520"><ele>0.62</ele><time>2011-10-11T09:30:07Z</time></trkpt><trkpt lat="44.2911025509" lon="14.6569401305"><ele>0.62</ele><time>2011-10-11T09:30:25Z</time></trkpt><trkpt lat="44.2907358427" lon="14.6566897631"><ele>1.10</ele><time>2011-10-11T09:30:45Z</time></trkpt><trkpt lat="44.2904204316" lon="14.6564682294"><ele>0.14</ele><time>2011-10-11T09:31:04Z</time></trkpt><trkpt lat="44.2900939565" lon="14.6561782993"><ele>1.10</ele><time>2011-10-11T09:31:26Z</time></trkpt><trkpt lat="44.2897710856" lon="14.6558481362"><ele>2.54</ele><time>2011-10-11T09:31:50Z</time></trkpt><trkpt lat="44.2894772999" lon="14.6555223316"><ele>2.06</ele><time>2011-10-11T09:32:12Z</time></trkpt><trkpt lat="44.2892220709" lon="14.6551629994"><ele>1.10</ele><time>2011-10-11T09:32:32Z</time></trkpt><trkpt lat="44.2889113538" lon="14.6547016595"><ele>1.10</ele><time>2011-10-11T09:32:55Z</time></trkpt><trkpt lat="44.2886459827" lon="14.6543191094"><ele>0.14</ele><time>2011-10-11T09:33:15Z</time></trkpt><trkpt lat="44.2883380316" lon="14.6537599526"><ele>-0.34</ele><time>2011-10-11T09:33:40Z</time></trkpt><trkpt lat="44.2881441582" lon="14.6532501653"><ele>0.14</ele><time>2011-10-11T09:33:59Z</time></trkpt><trkpt lat="44.2879379634" lon="14.6527245361"><ele>1.10</ele><time>2011-10-11T09:34:18Z</time></trkpt><trkpt lat="44.2877343670" lon="14.6522374637"><ele>1.10</ele><time>2011-10-11T09:34:36Z</time></trkpt><trkpt lat="44.2874482088" lon="14.6516343858"><ele>1.10</ele><time>2011-10-11T09:34:57Z</time></trkpt><trkpt lat="44.2872096598" lon="14.6509608999"><ele>-0.34</ele><time>2011-10-11T09:35:18Z</time></trkpt><trkpt lat="44.2870664969" lon="14.6504940279"><ele>1.58</ele><time>2011-10-11T09:35:32Z</time></trkpt><trkpt lat="44.2869061511" lon="14.6499431692"><ele>2.06</ele><time>2011-10-11T09:35:49Z</time></trkpt><trkpt lat="44.2867417820" lon="14.6493529156"><ele>2.54</ele><time>2011-10-11T09:36:06Z</time></trkpt><trkpt lat="44.2865238525" lon="14.6487227641"><ele>2.06</ele><time>2011-10-11T09:36:25Z</time></trkpt><trkpt lat="44.2863568850" lon="14.6480412316"><ele>2.54</ele><time>2011-10-11T09:36:45Z</time></trkpt><trkpt lat="44.2862338386" lon="14.6476207953"><ele>2.54</ele><time>2011-10-11T09:36:58Z</time></trkpt><trkpt lat="44.2861346807" lon="14.6470533404"><ele>2.54</ele><time>2011-10-11T09:37:16Z</time></trkpt><trkpt lat="44.2860509455" lon="14.6465513483"><ele>0.14</ele><time>2011-10-11T09:37:33Z</time></trkpt><trkpt lat="44.2859691381" lon="14.6459987294"><ele>0.62</ele><time>2011-10-11T09:37:52Z</time></trkpt><trkpt lat="44.2858979758" lon="14.6455641277"><ele>-0.34</ele><time>2011-10-11T09:38:09Z</time></trkpt><trkpt lat="44.2858698964" lon="14.6451423503"><ele>0.62</ele><time>2011-10-11T09:38:29Z</time></trkpt><trkpt lat="44.2857881729" lon="14.6447801683"><ele>0.14</ele><time>2011-10-11T09:38:46Z</time></trkpt><trkpt lat="44.2857198603" lon="14.6443722211"><ele>0.62</ele><time>2011-10-11T09:39:00Z</time></trkpt><trkpt lat="44.2856321856" lon="14.6438556444"><ele>1.58</ele><time>2011-10-11T09:39:17Z</time></trkpt><trkpt lat="44.2855036072" lon="14.6433225553"><ele>1.10</ele><time>2011-10-11T09:39:36Z</time></trkpt><trkpt lat="44.2853690777" lon="14.6428415179"><ele>1.10</ele><time>2011-10-11T09:39:53Z</time></trkpt><trkpt lat="44.2852047086" lon="14.6423607320"><ele>1.58</ele><time>2011-10-11T09:40:10Z</time></trkpt><trkpt lat="44.2850334663" lon="14.6417978872"><ele>1.58</ele><time>2011-10-11T09:40:29Z</time></trkpt><trkpt lat="44.2848525010" lon="14.6412334498"><ele>1.58</ele><time>2011-10-11T09:40:47Z</time></trkpt><trkpt lat="44.2846561130" lon="14.6407442819"><ele>1.58</ele><time>2011-10-11T09:41:02Z</time></trkpt><trkpt lat="44.2843370140" lon="14.6403095126"><ele>0.62</ele><time>2011-10-11T09:41:18Z</time></trkpt><trkpt lat="44.2840188369" lon="14.6399595682"><ele>0.14</ele><time>2011-10-11T09:41:35Z</time></trkpt><trkpt lat="44.2838035896" lon="14.6394645330"><ele>1.10</ele><time>2011-10-11T09:41:54Z</time></trkpt><trkpt lat="44.2836514581" lon="14.6390230581"><ele>1.58</ele><time>2011-10-11T09:42:10Z</time></trkpt><trkpt lat="44.2834771983" lon="14.6385216527"><ele>2.06</ele><time>2011-10-11T09:42:26Z</time></trkpt><trkpt lat="44.2833463568" lon="14.6380292997"><ele>2.06</ele><time>2011-10-11T09:42:41Z</time></trkpt><trkpt lat="44.2832380626" lon="14.6374176722"><ele>2.06</ele><time>2011-10-11T09:42:59Z</time></trkpt><trkpt lat="44.2831281759" lon="14.6368461102"><ele>3.50</ele><time>2011-10-11T09:43:15Z</time></trkpt><trkpt lat="44.2829858512" lon="14.6362097561"><ele>1.58</ele><time>2011-10-11T09:43:33Z</time></trkpt><trkpt lat="44.2828316242" lon="14.6355760843"><ele>2.06</ele><time>2011-10-11T09:43:51Z</time></trkpt><trkpt lat="44.2826695181" lon="14.6348027699"><ele>1.10</ele><time>2011-10-11T09:44:13Z</time></trkpt><trkpt lat="44.2825164646" lon="14.6342456248"><ele>2.06</ele><time>2011-10-11T09:44:30Z</time></trkpt><trkpt lat="44.2823474854" lon="14.6336083487"><ele>2.06</ele><time>2011-10-11T09:44:48Z</time></trkpt><trkpt lat="44.2821743991" lon="14.6330323443"><ele>1.10</ele><time>2011-10-11T09:45:04Z</time></trkpt><trkpt lat="44.2820359301" lon="14.6324896161"><ele>2.06</ele><time>2011-10-11T09:45:19Z</time></trkpt><trkpt lat="44.2818913423" lon="14.6320476383"><ele>3.02</ele><time>2011-10-11T09:45:32Z</time></trkpt><trkpt lat="44.2817055155" lon="14.6314971149"><ele>3.02</ele><time>2011-10-11T09:45:48Z</time></trkpt><trkpt lat="44.2814902682" lon="14.6308560669"><ele>1.58</ele><time>2011-10-11T09:46:07Z</time></trkpt><trkpt lat="44.2812612746" lon="14.6302776318"><ele>1.10</ele><time>2011-10-11T09:46:23Z</time></trkpt><trkpt lat="44.2809660640" lon="14.6298441198"><ele>1.10</ele><time>2011-10-11T09:46:38Z</time></trkpt><trkpt lat="44.2806051392" lon="14.6295287926"><ele>1.58</ele><time>2011-10-11T09:46:55Z</time></trkpt><trkpt lat="44.2805790715" lon="14.6292934287"><ele>1.58</ele><time>2011-10-11T09:47:06Z</time></trkpt><trkpt lat="44.2807887867" lon="14.6293562930"><ele>0.62</ele><time>2011-10-11T09:47:21Z</time></trkpt><trkpt lat="44.2809865158" lon="14.6293307282"><ele>1.58</ele><time>2011-10-11T09:47:36Z</time></trkpt><trkpt lat="44.2809964065" lon="14.6293267887"><ele>1.58</ele><time>2011-10-11T09:47:37Z</time></trkpt><trkpt lat="44.2810365558" lon="14.6293222625"><ele>2.06</ele><time>2011-10-11T09:47:41Z</time></trkpt><trkpt lat="44.2810845841" lon="14.6293540299"><ele>1.58</ele><time>2011-10-11T09:47:45Z</time></trkpt><trkpt lat="44.2813662998" lon="14.6296173893"><ele>1.10</ele><time>2011-10-11T09:48:03Z</time></trkpt><trkpt lat="44.2816400528" lon="14.6298998594"><ele>0.62</ele><time>2011-10-11T09:48:17Z</time></trkpt><trkpt lat="44.2818933539" lon="14.6302418411"><ele>1.10</ele><time>2011-10-11T09:48:30Z</time></trkpt><trkpt lat="44.2822840344" lon="14.6306704916"><ele>1.58</ele><time>2011-10-11T09:48:47Z</time></trkpt><trkpt lat="44.2826639023" lon="14.6310341824"><ele>1.10</ele><time>2011-10-11T09:49:03Z</time></trkpt><trkpt lat="44.2829028703" lon="14.6314538643"><ele>1.58</ele><time>2011-10-11T09:49:18Z</time></trkpt><trkpt lat="44.2830773816" lon="14.6318149567"><ele>3.02</ele><time>2011-10-11T09:49:30Z</time></trkpt><trkpt lat="44.2833598517" lon="14.6322768833"><ele>2.54</ele><time>2011-10-11T09:49:46Z</time></trkpt><trkpt lat="44.2836527992" lon="14.6327247284"><ele>3.02</ele><time>2011-10-11T09:50:02Z</time></trkpt><trkpt lat="44.2839550506" lon="14.6331100445"><ele>2.54</ele><time>2011-10-11T09:50:18Z</time></trkpt><trkpt lat="44.2843012232" lon="14.6334196720"><ele>2.06</ele><time>2011-10-11T09:50:35Z</time></trkpt><trkpt lat="44.2846634053" lon="14.6338108554"><ele>2.54</ele><time>2011-10-11T09:50:52Z</time></trkpt><trkpt lat="44.2850254197" lon="14.6342247538"><ele>3.50</ele><time>2011-10-11T09:51:09Z</time></trkpt><trkpt lat="44.2853430938" lon="14.6345723514"><ele>3.50</ele><time>2011-10-11T09:51:23Z</time></trkpt><trkpt lat="44.2857766896" lon="14.6349284984"><ele>2.54</ele><time>2011-10-11T09:51:42Z</time></trkpt><trkpt lat="44.2862165719" lon="14.6352327615"><ele>1.58</ele><time>2011-10-11T09:52:00Z</time></trkpt><trkpt lat="44.2865797598" lon="14.6354454104"><ele>1.58</ele><time>2011-10-11T09:52:14Z</time></trkpt><trkpt lat="44.2869696021" lon="14.6357243601"><ele>1.10</ele><time>2011-10-11T09:52:30Z</time></trkpt><trkpt lat="44.2873436864" lon="14.6359936707"><ele>1.58</ele><time>2011-10-11T09:52:46Z</time></trkpt><trkpt lat="44.2877371330" lon="14.6362322196"><ele>1.58</ele><time>2011-10-11T09:53:01Z</time></trkpt><trkpt lat="44.2881709803" lon="14.6364388335"><ele>0.62</ele><time>2011-10-11T09:53:17Z</time></trkpt><trkpt lat="44.2885712162" lon="14.6365925577"><ele>0.62</ele><time>2011-10-11T09:53:31Z</time></trkpt><trkpt lat="44.2890003696" lon="14.6368068829"><ele>-0.34</ele><time>2011-10-11T09:53:47Z</time></trkpt><trkpt lat="44.2893599533" lon="14.6369949728"><ele>0.62</ele><time>2011-10-11T09:54:01Z</time></trkpt><trkpt lat="44.2897772044" lon="14.6372285765"><ele>1.10</ele><time>2011-10-11T09:54:18Z</time></trkpt><trkpt lat="44.2900908552" lon="14.6373859886"><ele>0.14</ele><time>2011-10-11T09:54:30Z</time></trkpt><trkpt lat="44.2905682884" lon="14.6375035867"><ele>-0.34</ele><time>2011-10-11T09:54:47Z</time></trkpt><trkpt lat="44.2909906525" lon="14.6376022417"><ele>-0.82</ele><time>2011-10-11T09:55:03Z</time></trkpt><trkpt lat="44.2914117593" lon="14.6376731526"><ele>-2.27</ele><time>2011-10-11T09:55:19Z</time></trkpt><trkpt lat="44.2918208800" lon="14.6377213486"><ele>-1.30</ele><time>2011-10-11T09:55:36Z</time></trkpt><trkpt lat="44.2921046913" lon="14.6377390344"><ele>-0.34</ele><time>2011-10-11T09:55:51Z</time></trkpt><trkpt lat="44.2924890015" lon="14.6379070077"><ele>0.62</ele><time>2011-10-11T09:56:10Z</time></trkpt><trkpt lat="44.2929059174" lon="14.6380561218"><ele>0.62</ele><time>2011-10-11T09:56:27Z</time></trkpt><trkpt lat="44.2932583764" lon="14.6382212453"><ele>0.14</ele><time>2011-10-11T09:56:41Z</time></trkpt><trkpt lat="44.2936566845" lon="14.6384387556"><ele>-0.34</ele><time>2011-10-11T09:56:56Z</time></trkpt><trkpt lat="44.2940651346" lon="14.6385962516"><ele>0.14</ele><time>2011-10-11T09:57:11Z</time></trkpt><trkpt lat="44.2944741715" lon="14.6387117542"><ele>0.62</ele><time>2011-10-11T09:57:26Z</time></trkpt><trkpt lat="44.2949653510" lon="14.6388192102"><ele>0.14</ele><time>2011-10-11T09:57:44Z</time></trkpt><trkpt lat="44.2953912355" lon="14.6389700007"><ele>0.62</ele><time>2011-10-11T09:58:00Z</time></trkpt><trkpt lat="44.2957930639" lon="14.6390923765"><ele>1.10</ele><time>2011-10-11T09:58:15Z</time></trkpt><trkpt lat="44.2962668929" lon="14.6392349526"><ele>0.62</ele><time>2011-10-11T09:58:34Z</time></trkpt><trkpt lat="44.2966592498" lon="14.6392901894"><ele>-1.79</ele><time>2011-10-11T09:58:49Z</time></trkpt><trkpt lat="44.2969785165" lon="14.6392937936"><ele>-1.30</ele><time>2011-10-11T09:59:02Z</time></trkpt><trkpt lat="44.2973636650" lon="14.6393502876"><ele>-1.30</ele><time>2011-10-11T09:59:19Z</time></trkpt><trkpt lat="44.2977064010" lon="14.6393861622"><ele>-2.27</ele><time>2011-10-11T09:59:33Z</time></trkpt><trkpt lat="44.2981550004" lon="14.6394564025"><ele>-1.30</ele><time>2011-10-11T09:59:51Z</time></trkpt><trkpt lat="44.2986392230" lon="14.6394233778"><ele>-0.34</ele><time>2011-10-11T10:00:10Z</time></trkpt><trkpt lat="44.2990281433" lon="14.6393826418"><ele>-1.30</ele><time>2011-10-11T10:00:27Z</time></trkpt><trkpt lat="44.2994339112" lon="14.6394683886"><ele>-0.82</ele><time>2011-10-11T10:00:45Z</time></trkpt><trkpt lat="44.2998662498" lon="14.6395056043"><ele>-0.82</ele><time>2011-10-11T10:01:02Z</time></trkpt><trkpt lat="44.3002438545" lon="14.6395481005"><ele>-1.30</ele><time>2011-10-11T10:01:16Z</time></trkpt><trkpt lat="44.3006948009" lon="14.6395836398"><ele>-0.82</ele><time>2011-10-11T10:01:32Z</time></trkpt><trkpt lat="44.3011747487" lon="14.6396017447"><ele>-0.34</ele><time>2011-10-11T10:01:48Z</time></trkpt><trkpt lat="44.3016686104" lon="14.6396566462"><ele>-0.82</ele><time>2011-10-11T10:02:06Z</time></trkpt><trkpt lat="44.3021184672" lon="14.6397318318"><ele>-1.30</ele><time>2011-10-11T10:02:22Z</time></trkpt><trkpt lat="44.3025501352" lon="14.6398332529"><ele>-1.79</ele><time>2011-10-11T10:02:37Z</time></trkpt><trkpt lat="44.3029623572" lon="14.6398920100"><ele>-2.27</ele><time>2011-10-11T10:02:52Z</time></trkpt><trkpt lat="44.3033939414" lon="14.6398579795"><ele>-2.27</ele><time>2011-10-11T10:03:10Z</time></trkpt><trkpt lat="44.3038069177" lon="14.6397820394"><ele>-1.30</ele><time>2011-10-11T10:03:31Z</time></trkpt><trkpt lat="44.3041037209" lon="14.6396967955"><ele>-0.82</ele><time>2011-10-11T10:03:48Z</time></trkpt><trkpt lat="44.3045624625" lon="14.6395672951"><ele>-1.30</ele><time>2011-10-11T10:04:10Z</time></trkpt><trkpt lat="44.3049902748" lon="14.6394501161"><ele>-1.30</ele><time>2011-10-11T10:04:29Z</time></trkpt><trkpt lat="44.3054407183" lon="14.6393258963"><ele>-1.30</ele><time>2011-10-11T10:04:49Z</time></trkpt><trkpt lat="44.3058241904" lon="14.6391630359"><ele>-1.30</ele><time>2011-10-11T10:05:08Z</time></trkpt><trkpt lat="44.3061405234" lon="14.6390753612"><ele>-1.79</ele><time>2011-10-11T10:05:27Z</time></trkpt><trkpt lat="44.3065392505" lon="14.6389536560"><ele>-0.82</ele><time>2011-10-11T10:05:47Z</time></trkpt><trkpt lat="44.3068577629" lon="14.6388539951"><ele>-0.34</ele><time>2011-10-11T10:06:02Z</time></trkpt><trkpt lat="44.3072564900" lon="14.6386856865"><ele>-1.79</ele><time>2011-10-11T10:06:22Z</time></trkpt><trkpt lat="44.3076556362" lon="14.6386030409"><ele>-2.27</ele><time>2011-10-11T10:06:42Z</time></trkpt><trkpt lat="44.3080612365" lon="14.6385186352"><ele>-1.79</ele><time>2011-10-11T10:07:00Z</time></trkpt><trkpt lat="44.3083943333" lon="14.6384062339"><ele>-2.27</ele><time>2011-10-11T10:07:16Z</time></trkpt><trkpt lat="44.3086803239" lon="14.6383536793"><ele>-2.75</ele><time>2011-10-11T10:07:29Z</time></trkpt><trkpt lat="44.3091378920" lon="14.6382245980"><ele>-0.34</ele><time>2011-10-11T10:07:49Z</time></trkpt><trkpt lat="44.3094784487" lon="14.6381199919"><ele>-0.34</ele><time>2011-10-11T10:08:04Z</time></trkpt><trkpt lat="44.3097429816" lon="14.6380298026"><ele>-1.30</ele><time>2011-10-11T10:08:19Z</time></trkpt><trkpt lat="44.3100708816" lon="14.6379233524"><ele>-1.30</ele><time>2011-10-11T10:08:36Z</time></trkpt><trkpt lat="44.3104014639" lon="14.6377531160"><ele>-1.30</ele><time>2011-10-11T10:08:56Z</time></trkpt><trkpt lat="44.3106644880" lon="14.6375945304"><ele>-1.30</ele><time>2011-10-11T10:09:17Z</time></trkpt><trkpt lat="44.3107793201" lon="14.6374742500"><ele>0.62</ele><time>2011-10-11T10:09:36Z</time></trkpt><trkpt lat="44.3108039629" lon="14.6374519542"><ele>0.62</ele><time>2011-10-11T10:09:58Z</time></trkpt><trkpt lat="44.3109124247" lon="14.6373871621"><ele>1.10</ele><time>2011-10-11T10:10:18Z</time></trkpt><trkpt lat="44.3109255843" lon="14.6373653691"><ele>1.10</ele><time>2011-10-11T10:10:20Z</time></trkpt><trkpt lat="44.3110235687" lon="14.6370957233"><ele>0.14</ele><time>2011-10-11T10:10:41Z</time></trkpt><trkpt lat="44.3111757003" lon="14.6367467847"><ele>-0.34</ele><time>2011-10-11T10:11:00Z</time></trkpt><trkpt lat="44.3113745190" lon="14.6362186410"><ele>-0.34</ele><time>2011-10-11T10:11:22Z</time></trkpt><trkpt lat="44.3116074521" lon="14.6357638389"><ele>-0.82</ele><time>2011-10-11T10:11:42Z</time></trkpt><trkpt lat="44.3118200172" lon="14.6352783591"><ele>-0.82</ele><time>2011-10-11T10:12:03Z</time></trkpt><trkpt lat="44.3119775131" lon="14.6348897740"><ele>-0.82</ele><time>2011-10-11T10:12:19Z</time></trkpt><trkpt lat="44.3121570535" lon="14.6343716048"><ele>-1.79</ele><time>2011-10-11T10:12:40Z</time></trkpt><trkpt lat="44.3123113643" lon="14.6338603925"><ele>-0.82</ele><time>2011-10-11T10:13:00Z</time></trkpt><trkpt lat="44.3125051539" lon="14.6333432291"><ele>-2.27</ele><time>2011-10-11T10:13:14Z</time></trkpt><trkpt lat="44.3128214031" lon="14.6327224653"><ele>-2.75</ele><time>2011-10-11T10:13:32Z</time></trkpt><trkpt lat="44.3130978383" lon="14.6322297771"><ele>-3.23</ele><time>2011-10-11T10:13:50Z</time></trkpt><trkpt lat="44.3133497983" lon="14.6317317244"><ele>-4.19</ele><time>2011-10-11T10:14:09Z</time></trkpt><trkpt lat="44.3136300053" lon="14.6312257927"><ele>-3.23</ele><time>2011-10-11T10:14:29Z</time></trkpt><trkpt lat="44.3138848990" lon="14.6307290811"><ele>-3.71</ele><time>2011-10-11T10:14:48Z</time></trkpt><trkpt lat="44.3141551316" lon="14.6303185355"><ele>-3.71</ele><time>2011-10-11T10:15:05Z</time></trkpt><trkpt lat="44.3143994641" lon="14.6299664117"><ele>-3.71</ele><time>2011-10-11T10:15:20Z</time></trkpt><trkpt lat="44.3147755601" lon="14.6294090990"><ele>-2.75</ele><time>2011-10-11T10:15:43Z</time></trkpt><trkpt lat="44.3150860257" lon="14.6289431490"><ele>-4.19</ele><time>2011-10-11T10:16:02Z</time></trkpt><trkpt lat="44.3154062983" lon="14.6284812223"><ele>-4.67</ele><time>2011-10-11T10:16:21Z</time></trkpt><trkpt lat="44.3157663010" lon="14.6279437747"><ele>-5.63</ele><time>2011-10-11T10:16:43Z</time></trkpt><trkpt lat="44.3160372041" lon="14.6274368372"><ele>-5.63</ele><time>2011-10-11T10:17:02Z</time></trkpt><trkpt lat="44.3163040839" lon="14.6269263793"><ele>-5.15</ele><time>2011-10-11T10:17:21Z</time></trkpt><trkpt lat="44.3165755738" lon="14.6264275722"><ele>-4.19</ele><time>2011-10-11T10:17:40Z</time></trkpt><trkpt lat="44.3169173878" lon="14.6258206386"><ele>-4.19</ele><time>2011-10-11T10:18:03Z</time></trkpt><trkpt lat="44.3171934877" lon="14.6253159642"><ele>-4.67</ele><time>2011-10-11T10:18:22Z</time></trkpt><trkpt lat="44.3174584396" lon="14.6248042490"><ele>-4.67</ele><time>2011-10-11T10:18:41Z</time></trkpt><trkpt lat="44.3177259061" lon="14.6241995785"><ele>-6.59</ele><time>2011-10-11T10:19:02Z</time></trkpt><trkpt lat="44.3179666344" lon="14.6236070618"><ele>-6.11</ele><time>2011-10-11T10:19:22Z</time></trkpt><trkpt lat="44.3182065245" lon="14.6230373438"><ele>-6.11</ele><time>2011-10-11T10:19:42Z</time></trkpt><trkpt lat="44.3184666988" lon="14.6225958690"><ele>-5.15</ele><time>2011-10-11T10:19:59Z</time></trkpt><trkpt lat="44.3187137973" lon="14.6222025063"><ele>-5.15</ele><time>2011-10-11T10:20:14Z</time></trkpt><trkpt lat="44.3189563695" lon="14.6218068805"><ele>-6.11</ele><time>2011-10-11T10:20:29Z</time></trkpt><trkpt lat="44.3192182202" lon="14.6212721989"><ele>-5.15</ele><time>2011-10-11T10:20:48Z</time></trkpt><trkpt lat="44.3196065538" lon="14.6206647623"><ele>-6.11</ele><time>2011-10-11T10:21:11Z</time></trkpt><trkpt lat="44.3199897744" lon="14.6201535501"><ele>-4.67</ele><time>2011-10-11T10:21:32Z</time></trkpt><trkpt lat="44.3202980608" lon="14.6197251510"><ele>-3.71</ele><time>2011-10-11T10:21:49Z</time></trkpt><trkpt lat="44.3206553813" lon="14.6192454547"><ele>-1.79</ele><time>2011-10-11T10:22:09Z</time></trkpt><trkpt lat="44.3209838681" lon="14.6187743079"><ele>-3.23</ele><time>2011-10-11T10:22:27Z</time></trkpt><trkpt lat="44.3212676793" lon="14.6183579788"><ele>-2.75</ele><time>2011-10-11T10:22:43Z</time></trkpt><trkpt lat="44.3215710204" lon="14.6179098822"><ele>-3.23</ele><time>2011-10-11T10:23:00Z</time></trkpt><trkpt lat="44.3219400756" lon="14.6173918806"><ele>-3.71</ele><time>2011-10-11T10:23:20Z</time></trkpt><trkpt lat="44.3222922832" lon="14.6168712806"><ele>-3.23</ele><time>2011-10-11T10:23:40Z</time></trkpt><trkpt lat="44.3225892540" lon="14.6163702942"><ele>-4.19</ele><time>2011-10-11T10:23:58Z</time></trkpt><trkpt lat="44.3229571357" lon="14.6158021688"><ele>-4.19</ele><time>2011-10-11T10:24:19Z</time></trkpt><trkpt lat="44.3233096786" lon="14.6153409965"><ele>-2.75</ele><time>2011-10-11T10:24:38Z</time></trkpt><trkpt lat="44.3236417696" lon="14.6148412675"><ele>-3.23</ele><time>2011-10-11T10:24:57Z</time></trkpt><trkpt lat="44.3240173627" lon="14.6142937616"><ele>-1.79</ele><time>2011-10-11T10:25:18Z</time></trkpt><trkpt lat="44.3242986593" lon="14.6139857266"><ele>-1.79</ele><time>2011-10-11T10:25:33Z</time></trkpt><trkpt lat="44.3245279882" lon="14.6137931943"><ele>-1.79</ele><time>2011-10-11T10:25:50Z</time></trkpt><trkpt lat="44.3245789502" lon="14.6137439925"><ele>-1.79</ele><time>2011-10-11T10:25:55Z</time></trkpt><trkpt lat="44.3247305788" lon="14.6135595907"><ele>-2.27</ele><time>2011-10-11T10:26:14Z</time></trkpt><trkpt lat="44.3248587381" lon="14.6134278271"><ele>-1.30</ele><time>2011-10-11T10:26:32Z</time></trkpt><trkpt lat="44.3249909207" lon="14.6133110672"><ele>-2.27</ele><time>2011-10-11T10:26:51Z</time></trkpt><trkpt lat="44.3252491672" lon="14.6129218955"><ele>-1.79</ele><time>2011-10-11T10:27:09Z</time></trkpt><trkpt lat="44.3255898077" lon="14.6123784129"><ele>-2.75</ele><time>2011-10-11T10:27:29Z</time></trkpt><trkpt lat="44.3258753791" lon="14.6118172444"><ele>-4.67</ele><time>2011-10-11T10:27:48Z</time></trkpt><trkpt lat="44.3261352181" lon="14.6112566628"><ele>-3.23</ele><time>2011-10-11T10:28:07Z</time></trkpt><trkpt lat="44.3265196960" lon="14.6106532495"><ele>-2.75</ele><time>2011-10-11T10:28:30Z</time></trkpt><trkpt lat="44.3268693890" lon="14.6100960206"><ele>-3.71</ele><time>2011-10-11T10:28:51Z</time></trkpt><trkpt lat="44.3272153940" lon="14.6095280629"><ele>-2.27</ele><time>2011-10-11T10:29:12Z</time></trkpt><trkpt lat="44.3275526818" lon="14.6089176089"><ele>-1.30</ele><time>2011-10-11T10:29:34Z</time></trkpt><trkpt lat="44.3278688472" lon="14.6083675884"><ele>-1.79</ele><time>2011-10-11T10:29:54Z</time></trkpt><trkpt lat="44.3281636387" lon="14.6078325715"><ele>-3.23</ele><time>2011-10-11T10:30:13Z</time></trkpt><trkpt lat="44.3284631241" lon="14.6072996501"><ele>-4.19</ele><time>2011-10-11T10:30:32Z</time></trkpt><trkpt lat="44.3287940416" lon="14.6067784633"><ele>-4.19</ele><time>2011-10-11T10:30:52Z</time></trkpt><trkpt lat="44.3290739134" lon="14.6063324623"><ele>-4.67</ele><time>2011-10-11T10:31:09Z</time></trkpt><trkpt lat="44.3293606583" lon="14.6058231778"><ele>-4.67</ele><time>2011-10-11T10:31:28Z</time></trkpt><trkpt lat="44.3296749797" lon="14.6052525379"><ele>-4.67</ele><time>2011-10-11T10:31:49Z</time></trkpt><trkpt lat="44.3300003652" lon="14.6046492085"><ele>-4.67</ele><time>2011-10-11T10:32:11Z</time></trkpt><trkpt lat="44.3302874453" lon="14.6040701028"><ele>-4.19</ele><time>2011-10-11T10:32:34Z</time></trkpt><trkpt lat="44.3305705022" lon="14.6035588905"><ele>-4.19</ele><time>2011-10-11T10:32:59Z</time></trkpt><trkpt lat="44.3308288325" lon="14.6031026635"><ele>-5.15</ele><time>2011-10-11T10:33:23Z</time></trkpt><trkpt lat="44.3310968857" lon="14.6026726719"><ele>-4.19</ele><time>2011-10-11T10:33:46Z</time></trkpt><trkpt lat="44.3313739914" lon="14.6022331249"><ele>-4.67</ele><time>2011-10-11T10:34:10Z</time></trkpt><trkpt lat="44.3316906597" lon="14.6017285343"><ele>-4.67</ele><time>2011-10-11T10:34:36Z</time></trkpt><trkpt lat="44.3320156261" lon="14.6012510173"><ele>-4.67</ele><time>2011-10-11T10:35:02Z</time></trkpt><trkpt lat="44.3323362339" lon="14.6008146554"><ele>-3.23</ele><time>2011-10-11T10:35:27Z</time></trkpt><trkpt lat="44.3326428439" lon="14.6004347876"><ele>-2.75</ele><time>2011-10-11T10:35:53Z</time></trkpt><trkpt lat="44.3328367174" lon="14.6001979150"><ele>-4.19</ele><time>2011-10-11T10:36:14Z</time></trkpt><trkpt lat="44.3330456782" lon="14.5998930652"><ele>-3.23</ele><time>2011-10-11T10:36:41Z</time></trkpt><trkpt lat="44.3332097121" lon="14.5996086672"><ele>-2.27</ele><time>2011-10-11T10:37:08Z</time></trkpt><trkpt lat="44.3333601672" lon="14.5993554499"><ele>-2.27</ele><time>2011-10-11T10:37:31Z</time></trkpt><trkpt lat="44.3334960379" lon="14.5990859717"><ele>-1.79</ele><time>2011-10-11T10:37:54Z</time></trkpt><trkpt lat="44.3336438946" lon="14.5988069382"><ele>-5.63</ele><time>2011-10-11T10:38:19Z</time></trkpt><trkpt lat="44.3337648455" lon="14.5985298324"><ele>-4.19</ele><time>2011-10-11T10:38:43Z</time></trkpt><trkpt lat="44.3338466529" lon="14.5983015932"><ele>-6.11</ele><time>2011-10-11T10:39:09Z</time></trkpt><trkpt lat="44.3338774983" lon="14.5982121583"><ele>-7.55</ele><time>2011-10-11T10:39:24Z</time></trkpt><trkpt lat="44.3338774983" lon="14.5982121583"><ele>-7.55</ele><time>2011-10-11T10:39:48Z</time></trkpt><trkpt lat="44.3338763248" lon="14.5982095599"><ele>-7.07</ele><time>2011-10-11T10:40:10Z</time></trkpt><trkpt lat="44.3338763248" lon="14.5982095599"><ele>-7.07</ele><time>2011-10-11T10:40:31Z</time></trkpt><trkpt lat="44.3338757381" lon="14.5982110687"><ele>-7.07</ele><time>2011-10-11T10:40:56Z</time></trkpt><trkpt lat="44.3338757381" lon="14.5982110687"><ele>-7.07</ele><time>2011-10-11T10:41:19Z</time></trkpt><trkpt lat="44.3338768277" lon="14.5982155949"><ele>-7.07</ele><time>2011-10-11T10:41:40Z</time></trkpt><trkpt lat="44.3338764086" lon="14.5982184447"><ele>-7.07</ele><time>2011-10-11T10:42:04Z</time></trkpt><trkpt lat="44.3338740617" lon="14.5982139185"><ele>-7.07</ele><time>2011-10-11T10:42:27Z</time></trkpt><trkpt lat="44.3338740617" lon="14.5982139185"><ele>-7.07</ele><time>2011-10-11T10:42:51Z</time></trkpt><trkpt lat="44.3338738102" lon="14.5982198697"><ele>-7.07</ele><time>2011-10-11T10:43:13Z</time></trkpt><trkpt lat="44.3338790070" lon="14.5982243121"><ele>-7.07</ele><time>2011-10-11T10:43:37Z</time></trkpt><trkpt lat="44.3338770792" lon="14.5982196182"><ele>-7.55</ele><time>2011-10-11T10:44:01Z</time></trkpt><trkpt lat="44.3338770792" lon="14.5982196182"><ele>-7.55</ele><time>2011-10-11T10:44:27Z</time></trkpt><trkpt lat="44.3338733073" lon="14.5982175227"><ele>-7.07</ele><time>2011-10-11T10:44:52Z</time></trkpt><trkpt lat="44.3338800129" lon="14.5982295927"><ele>-7.55</ele><time>2011-10-11T10:45:20Z</time></trkpt><trkpt lat="44.3338800129" lon="14.5982295927"><ele>-7.55</ele><time>2011-10-11T10:45:42Z</time></trkpt><trkpt lat="44.3338738102" lon="14.5982265752"><ele>-7.55</ele><time>2011-10-11T10:46:08Z</time></trkpt><trkpt lat="44.3338767439" lon="14.5982266590"><ele>-7.55</ele><time>2011-10-11T10:46:31Z</time></trkpt><trkpt lat="44.3338819407" lon="14.5982396509"><ele>-7.07</ele><time>2011-10-11T10:46:50Z</time></trkpt><trkpt lat="44.3338819407" lon="14.5982396509"><ele>-7.07</ele><time>2011-10-11T10:47:22Z</time></trkpt><trkpt lat="44.3338821083" lon="14.5982403215"><ele>-6.11</ele><time>2011-10-11T10:47:48Z</time></trkpt><trkpt lat="44.3338735588" lon="14.5982345380"><ele>-6.11</ele><time>2011-10-11T10:48:14Z</time></trkpt><trkpt lat="44.3338785041" lon="14.5982381422"><ele>-4.67</ele><time>2011-10-11T10:48:36Z</time></trkpt><trkpt lat="44.3338827789" lon="14.5982477814"><ele>-4.19</ele><time>2011-10-11T10:49:00Z</time></trkpt><trkpt lat="44.3338844553" lon="14.5982450992"><ele>-4.19</ele><time>2011-10-11T10:49:26Z</time></trkpt><trkpt lat="44.3338764925" lon="14.5982330292"><ele>-4.19</ele><time>2011-10-11T10:49:53Z</time></trkpt><trkpt lat="44.3338748999" lon="14.5982341189"><ele>-4.19</ele><time>2011-10-11T10:50:18Z</time></trkpt><trkpt lat="44.3338762410" lon="14.5982379746"><ele>-4.67</ele><time>2011-10-11T10:50:41Z</time></trkpt><trkpt lat="44.3338736426" lon="14.5982367173"><ele>-4.19</ele><time>2011-10-11T10:51:06Z</time></trkpt><trkpt lat="44.3338681106" lon="14.5982257370"><ele>-4.19</ele><time>2011-10-11T10:51:30Z</time></trkpt><trkpt lat="44.3338681106" lon="14.5982257370"><ele>-4.19</ele><time>2011-10-11T10:51:52Z</time></trkpt><trkpt lat="44.3338722177" lon="14.5982375555"><ele>-3.71</ele><time>2011-10-11T10:52:15Z</time></trkpt><trkpt lat="44.3338722177" lon="14.5982375555"><ele>-3.71</ele><time>2011-10-11T10:52:44Z</time></trkpt><trkpt lat="44.3338728044" lon="14.5982399862"><ele>-3.71</ele><time>2011-10-11T10:53:11Z</time></trkpt><trkpt lat="44.3338646740" lon="14.5982329454"><ele>-3.71</ele><time>2011-10-11T10:53:35Z</time></trkpt><trkpt lat="44.3338855449" lon="14.5982481167"><ele>-4.67</ele><time>2011-10-11T10:54:00Z</time></trkpt><trkpt lat="44.3338855449" lon="14.5982481167"><ele>-4.67</ele><time>2011-10-11T10:54:27Z</time></trkpt><trkpt lat="44.3338866346" lon="14.5982492063"><ele>-4.67</ele><time>2011-10-11T10:54:54Z</time></trkpt><trkpt lat="44.3338829465" lon="14.5982430037"><ele>-4.19</ele><time>2011-10-11T10:55:20Z</time></trkpt><trkpt lat="44.3338961061" lon="14.5982575882"><ele>-4.19</ele><time>2011-10-11T10:55:43Z</time></trkpt><trkpt lat="44.3338961061" lon="14.5982575882"><ele>-4.19</ele><time>2011-10-11T10:56:05Z</time></trkpt><trkpt lat="44.3338982854" lon="14.5982564986"><ele>-4.19</ele><time>2011-10-11T10:56:29Z</time></trkpt><trkpt lat="44.3338982854" lon="14.5982564986"><ele>-4.19</ele><time>2011-10-11T10:56:54Z</time></trkpt><trkpt lat="44.3338900711" lon="14.5982526429"><ele>-3.71</ele><time>2011-10-11T10:57:19Z</time></trkpt><trkpt lat="44.3338895682" lon="14.5982621145"><ele>-3.23</ele><time>2011-10-11T10:57:48Z</time></trkpt><trkpt lat="44.3338895682" lon="14.5982621145"><ele>-3.23</ele><time>2011-10-11T10:58:10Z</time></trkpt><trkpt lat="44.3338908255" lon="14.5982628688"><ele>-3.23</ele><time>2011-10-11T10:58:34Z</time></trkpt><trkpt lat="44.3338908255" lon="14.5982628688"><ele>-3.23</ele><time>2011-10-11T10:58:58Z</time></trkpt><trkpt lat="44.3338861316" lon="14.5982658025"><ele>-1.79</ele><time>2011-10-11T10:59:23Z</time></trkpt><trkpt lat="44.3338903226" lon="14.5982842427"><ele>-1.30</ele><time>2011-10-11T10:59:48Z</time></trkpt><trkpt lat="44.3338903226" lon="14.5982842427"><ele>-1.30</ele><time>2011-10-11T11:00:11Z</time></trkpt><trkpt lat="44.3338886462" lon="14.5982808899"><ele>-0.34</ele><time>2011-10-11T11:00:36Z</time></trkpt><trkpt lat="44.3338854611" lon="14.5982819796"><ele>-0.34</ele><time>2011-10-11T11:01:02Z</time></trkpt><trkpt lat="44.3338854611" lon="14.5982819796"><ele>-0.34</ele><time>2011-10-11T11:01:31Z</time></trkpt><trkpt lat="44.3338888139" lon="14.5982778724"><ele>-0.34</ele><time>2011-10-11T11:01:52Z</time></trkpt><trkpt lat="44.3338888139" lon="14.5982778724"><ele>-0.34</ele><time>2011-10-11T11:02:12Z</time></trkpt><trkpt lat="44.3338851258" lon="14.5982732624"><ele>-0.34</ele><time>2011-10-11T11:02:39Z</time></trkpt><trkpt lat="44.3338816054" lon="14.5982802194"><ele>0.14</ele><time>2011-10-11T11:03:05Z</time></trkpt><trkpt lat="44.3338816054" lon="14.5982802194"><ele>0.14</ele><time>2011-10-11T11:03:29Z</time></trkpt><trkpt lat="44.3338787556" lon="14.5982746873"><ele>0.62</ele><time>2011-10-11T11:03:56Z</time></trkpt><trkpt lat="44.3338658474" lon="14.5982637908"><ele>0.62</ele><time>2011-10-11T11:04:23Z</time></trkpt><trkpt lat="44.3338658474" lon="14.5982637908"><ele>0.62</ele><time>2011-10-11T11:04:49Z</time></trkpt><trkpt lat="44.3338656798" lon="14.5982700773"><ele>0.62</ele><time>2011-10-11T11:05:17Z</time></trkpt><trkpt lat="44.3338656798" lon="14.5982700773"><ele>0.62</ele><time>2011-10-11T11:05:37Z</time></trkpt><trkpt lat="44.3338641711" lon="14.5982652158"><ele>1.10</ele><time>2011-10-11T11:06:01Z</time></trkpt><trkpt lat="44.3338633329" lon="14.5982638747"><ele>1.10</ele><time>2011-10-11T11:06:30Z</time></trkpt><trkpt lat="44.3338633329" lon="14.5982638747"><ele>1.10</ele><time>2011-10-11T11:06:57Z</time></trkpt><trkpt lat="44.3338661827" lon="14.5982653834"><ele>1.10</ele><time>2011-10-11T11:07:24Z</time></trkpt><trkpt lat="44.3338640034" lon="14.5982610248"><ele>1.58</ele><time>2011-10-11T11:07:50Z</time></trkpt><trkpt lat="44.3338645063" lon="14.5982653834"><ele>1.58</ele><time>2011-10-11T11:08:20Z</time></trkpt><trkpt lat="44.3338645063" lon="14.5982653834"><ele>1.58</ele><time>2011-10-11T11:08:47Z</time></trkpt><trkpt lat="44.3338654283" lon="14.5982635394"><ele>1.58</ele><time>2011-10-11T11:09:14Z</time></trkpt><trkpt lat="44.3338654283" lon="14.5982635394"><ele>1.58</ele><time>2011-10-11T11:09:36Z</time></trkpt><trkpt lat="44.3338635005" lon="14.5982611924"><ele>1.58</ele><time>2011-10-11T11:10:03Z</time></trkpt><trkpt lat="44.3338643387" lon="14.5982706640"><ele>1.58</ele><time>2011-10-11T11:10:32Z</time></trkpt><trkpt lat="44.3338651769" lon="14.5982682332"><ele>1.58</ele><time>2011-10-11T11:10:59Z</time></trkpt><trkpt lat="44.3338651769" lon="14.5982682332"><ele>1.58</ele><time>2011-10-11T11:11:26Z</time></trkpt><trkpt lat="44.3338640872" lon="14.5982594322"><ele>2.06</ele><time>2011-10-11T11:11:55Z</time></trkpt><trkpt lat="44.3338649254" lon="14.5982640423"><ele>1.58</ele><time>2011-10-11T11:12:27Z</time></trkpt><trkpt lat="44.3338649254" lon="14.5982640423"><ele>1.58</ele><time>2011-10-11T11:12:54Z</time></trkpt><trkpt lat="44.3338609859" lon="14.5982565824"><ele>1.58</ele><time>2011-10-11T11:13:27Z</time></trkpt><trkpt lat="44.3338587228" lon="14.5982474461"><ele>2.06</ele><time>2011-10-11T11:13:59Z</time></trkpt><trkpt lat="44.3338622432" lon="14.5982508827"><ele>2.06</ele><time>2011-10-11T11:14:33Z</time></trkpt><trkpt lat="44.3338646740" lon="14.5982516371"><ele>2.06</ele><time>2011-10-11T11:15:02Z</time></trkpt><trkpt lat="44.3338554539" lon="14.5982507989"><ele>2.06</ele><time>2011-10-11T11:15:31Z</time></trkpt><trkpt lat="44.3338554539" lon="14.5982507989"><ele>2.06</ele><time>2011-10-11T11:16:00Z</time></trkpt><trkpt lat="44.3338587228" lon="14.5982520562"><ele>2.06</ele><time>2011-10-11T11:16:28Z</time></trkpt><trkpt lat="44.3338661827" lon="14.5982619468"><ele>2.06</ele><time>2011-10-11T11:16:58Z</time></trkpt><trkpt lat="44.3338644225" lon="14.5982612763"><ele>2.06</ele><time>2011-10-11T11:17:31Z</time></trkpt><trkpt lat="44.3338644225" lon="14.5982612763"><ele>2.06</ele><time>2011-10-11T11:18:00Z</time></trkpt><trkpt lat="44.3338655960" lon="14.5982629526"><ele>2.06</ele><time>2011-10-11T11:18:35Z</time></trkpt><trkpt lat="44.3338722177" lon="14.5982693229"><ele>2.06</ele><time>2011-10-11T11:19:03Z</time></trkpt><trkpt lat="44.3338719662" lon="14.5982672274"><ele>2.06</ele><time>2011-10-11T11:19:31Z</time></trkpt><trkpt lat="44.3338719662" lon="14.5982672274"><ele>2.06</ele><time>2011-10-11T11:19:59Z</time></trkpt><trkpt lat="44.3338691164" lon="14.5982678980"><ele>2.06</ele><time>2011-10-11T11:20:27Z</time></trkpt><trkpt lat="44.3338744808" lon="14.5982689038"><ele>2.06</ele><time>2011-10-11T11:20:59Z</time></trkpt><trkpt lat="44.3338744808" lon="14.5982689038"><ele>2.06</ele><time>2011-10-11T11:21:22Z</time></trkpt><trkpt lat="44.3338781688" lon="14.5982675627"><ele>2.06</ele><time>2011-10-11T11:21:48Z</time></trkpt><trkpt lat="44.3338700384" lon="14.5982629526"><ele>2.54</ele><time>2011-10-11T11:22:17Z</time></trkpt><trkpt lat="44.3338700384" lon="14.5982629526"><ele>2.54</ele><time>2011-10-11T11:22:44Z</time></trkpt><trkpt lat="44.3338727206" lon="14.5982632041"><ele>2.54</ele><time>2011-10-11T11:23:11Z</time></trkpt><trkpt lat="44.3338758219" lon="14.5982621145"><ele>2.54</ele><time>2011-10-11T11:23:37Z</time></trkpt><trkpt lat="44.3338719662" lon="14.5982594322"><ele>2.54</ele><time>2011-10-11T11:24:08Z</time></trkpt><trkpt lat="44.3338719662" lon="14.5982594322"><ele>2.54</ele><time>2011-10-11T11:24:42Z</time></trkpt><trkpt lat="44.3338754866" lon="14.5982599352"><ele>2.54</ele><time>2011-10-11T11:25:12Z</time></trkpt><trkpt lat="44.3338793423" lon="14.5982699934"><ele>2.54</ele><time>2011-10-11T11:25:39Z</time></trkpt><trkpt lat="44.3338784203" lon="14.5982650481"><ele>2.54</ele><time>2011-10-11T11:26:10Z</time></trkpt><trkpt lat="44.3338784203" lon="14.5982650481"><ele>2.54</ele><time>2011-10-11T11:26:40Z</time></trkpt><trkpt lat="44.3338771630" lon="14.5982655510"><ele>2.54</ele><time>2011-10-11T11:27:07Z</time></trkpt><trkpt lat="44.3338814378" lon="14.5982736815"><ele>2.54</ele><time>2011-10-11T11:27:34Z</time></trkpt><trkpt lat="44.3338814378" lon="14.5982736815"><ele>2.54</ele><time>2011-10-11T11:27:57Z</time></trkpt><trkpt lat="44.3338772468" lon="14.5982656348"><ele>2.54</ele><time>2011-10-11T11:28:28Z</time></trkpt><trkpt lat="44.3338754028" lon="14.5982609410"><ele>2.54</ele><time>2011-10-11T11:28:54Z</time></trkpt><trkpt lat="44.3338754028" lon="14.5982609410"><ele>2.54</ele><time>2011-10-11T11:29:24Z</time></trkpt><trkpt lat="44.3338769116" lon="14.5982647128"><ele>2.54</ele><time>2011-10-11T11:29:52Z</time></trkpt><trkpt lat="44.3338724691" lon="14.5982572529"><ele>2.54</ele><time>2011-10-11T11:30:20Z</time></trkpt><trkpt lat="44.3338724691" lon="14.5982572529"><ele>2.54</ele><time>2011-10-11T11:30:44Z</time></trkpt><trkpt lat="44.3338718824" lon="14.5982568339"><ele>2.06</ele><time>2011-10-11T11:31:16Z</time></trkpt><trkpt lat="44.3338785879" lon="14.5982621145"><ele>2.06</ele><time>2011-10-11T11:31:42Z</time></trkpt><trkpt lat="44.3338820245" lon="14.5982558280"><ele>1.58</ele><time>2011-10-11T11:32:08Z</time></trkpt><trkpt lat="44.3338770792" lon="14.5982509665"><ele>1.58</ele><time>2011-10-11T11:32:39Z</time></trkpt><trkpt lat="44.3338770792" lon="14.5982509665"><ele>1.58</ele><time>2011-10-11T11:33:03Z</time></trkpt><trkpt lat="44.3338790070" lon="14.5982537325"><ele>1.58</ele><time>2011-10-11T11:33:35Z</time></trkpt><trkpt lat="44.3338756543" lon="14.5982498769"><ele>1.58</ele><time>2011-10-11T11:34:03Z</time></trkpt><trkpt lat="44.3338738941" lon="14.5982472785"><ele>1.10</ele><time>2011-10-11T11:34:35Z</time></trkpt><trkpt lat="44.3338731397" lon="14.5982445125"><ele>1.10</ele><time>2011-10-11T11:35:00Z</time></trkpt><trkpt lat="44.3338798452" lon="14.5982492901"><ele>0.62</ele><time>2011-10-11T11:35:30Z</time></trkpt><trkpt lat="44.3338862993" lon="14.5982528105"><ele>0.62</ele><time>2011-10-11T11:35:56Z</time></trkpt><trkpt lat="44.3338764925" lon="14.5982498769"><ele>1.10</ele><time>2011-10-11T11:36:23Z</time></trkpt><trkpt lat="44.3338764925" lon="14.5982498769"><ele>1.10</ele><time>2011-10-11T11:36:49Z</time></trkpt><trkpt lat="44.3338829465" lon="14.5982655510"><ele>1.10</ele><time>2011-10-11T11:37:15Z</time></trkpt><trkpt lat="44.3338743132" lon="14.5982549060"><ele>-0.34</ele><time>2011-10-11T11:37:44Z</time></trkpt><trkpt lat="44.3338655960" lon="14.5982522238"><ele>-0.34</ele><time>2011-10-11T11:38:13Z</time></trkpt><trkpt lat="44.3338659313" lon="14.5982569177"><ele>-0.34</ele><time>2011-10-11T11:38:44Z</time></trkpt><trkpt lat="44.3338659313" lon="14.5982569177"><ele>-0.34</ele><time>2011-10-11T11:39:13Z</time></trkpt><trkpt lat="44.3338618241" lon="14.5982377231"><ele>-1.30</ele><time>2011-10-11T11:39:44Z</time></trkpt><trkpt lat="44.3338528555" lon="14.5982362144"><ele>-1.30</ele><time>2011-10-11T11:40:14Z</time></trkpt><trkpt lat="44.3338512629" lon="14.5982408244"><ele>-1.79</ele><time>2011-10-11T11:40:43Z</time></trkpt><trkpt lat="44.3338599801" lon="14.5982464403"><ele>-1.79</ele><time>2011-10-11T11:41:17Z</time></trkpt><trkpt lat="44.3338542804" lon="14.5982436743"><ele>-1.30</ele><time>2011-10-11T11:41:50Z</time></trkpt><trkpt lat="44.3338536937" lon="14.5982464403"><ele>-1.30</ele><time>2011-10-11T11:42:18Z</time></trkpt><trkpt lat="44.3338536937" lon="14.5982464403"><ele>-1.30</ele><time>2011-10-11T11:42:45Z</time></trkpt><trkpt lat="44.3338608183" lon="14.5982516371"><ele>-1.30</ele><time>2011-10-11T11:43:12Z</time></trkpt><trkpt lat="44.3338503409" lon="14.5982252341"><ele>-1.30</ele><time>2011-10-11T11:43:39Z</time></trkpt><trkpt lat="44.3338503409" lon="14.5982252341"><ele>-1.30</ele><time>2011-10-11T11:44:09Z</time></trkpt><trkpt lat="44.3338549510" lon="14.5982437581"><ele>-1.30</ele><time>2011-10-11T11:44:42Z</time></trkpt><trkpt lat="44.3338604830" lon="14.5982493740"><ele>-1.30</ele><time>2011-10-11T11:45:07Z</time></trkpt><trkpt lat="44.3338577170" lon="14.5982450154"><ele>-1.30</ele><time>2011-10-11T11:45:40Z</time></trkpt><trkpt lat="44.3338502571" lon="14.5982456859"><ele>-0.82</ele><time>2011-10-11T11:46:10Z</time></trkpt><trkpt lat="44.3338540290" lon="14.5982514694"><ele>-0.82</ele><time>2011-10-11T11:46:42Z</time></trkpt><trkpt lat="44.3338664342" lon="14.5982467756"><ele>0.14</ele><time>2011-10-11T11:47:10Z</time></trkpt><trkpt lat="44.3338635843" lon="14.5982419979"><ele>0.62</ele><time>2011-10-11T11:47:38Z</time></trkpt><trkpt lat="44.3338587228" lon="14.5982463565"><ele>0.62</ele><time>2011-10-11T11:48:08Z</time></trkpt><trkpt lat="44.3338666018" lon="14.5982575882"><ele>1.10</ele><time>2011-10-11T11:48:44Z</time></trkpt><trkpt lat="44.3338666018" lon="14.5982575882"><ele>1.10</ele><time>2011-10-11T11:49:14Z</time></trkpt><trkpt lat="44.3338635005" lon="14.5982518885"><ele>1.10</ele><time>2011-10-11T11:49:47Z</time></trkpt><trkpt lat="44.3338619918" lon="14.5982481167"><ele>1.58</ele><time>2011-10-11T11:50:21Z</time></trkpt><trkpt lat="44.3338708766" lon="14.5982544869"><ele>1.58</ele><time>2011-10-11T11:50:51Z</time></trkpt><trkpt lat="44.3338584714" lon="14.5982319396"><ele>0.62</ele><time>2011-10-11T11:51:18Z</time></trkpt><trkpt lat="44.3338503409" lon="14.5982321072"><ele>0.62</ele><time>2011-10-11T11:51:49Z</time></trkpt><trkpt lat="44.3338774145" lon="14.5982643776"><ele>0.14</ele><time>2011-10-11T11:52:23Z</time></trkpt><trkpt lat="44.3338748999" lon="14.5982579235"><ele>0.14</ele><time>2011-10-11T11:52:55Z</time></trkpt><trkpt lat="44.3338588905" lon="14.5982401539"><ele>0.14</ele><time>2011-10-11T11:53:28Z</time></trkpt><trkpt lat="44.3338591419" lon="14.5982426684"><ele>0.14</ele><time>2011-10-11T11:53:54Z</time></trkpt><trkpt lat="44.3338687811" lon="14.5982579235"><ele>0.14</ele><time>2011-10-11T11:54:22Z</time></trkpt><trkpt lat="44.3338701222" lon="14.5982601028"><ele>0.14</ele><time>2011-10-11T11:54:47Z</time></trkpt><trkpt lat="44.3338739779" lon="14.5982412435"><ele>-0.34</ele><time>2011-10-11T11:55:10Z</time></trkpt><trkpt lat="44.3338515144" lon="14.5982281677"><ele>0.62</ele><time>2011-10-11T11:55:34Z</time></trkpt><trkpt lat="44.3338463176" lon="14.5982279163"><ele>0.14</ele><time>2011-10-11T11:56:01Z</time></trkpt><trkpt lat="44.3338468205" lon="14.5982341189"><ele>0.14</ele><time>2011-10-11T11:56:28Z</time></trkpt><trkpt lat="44.3338468205" lon="14.5982341189"><ele>0.14</ele><time>2011-10-11T11:56:57Z</time></trkpt><trkpt lat="44.3338536937" lon="14.5982460212"><ele>-0.34</ele><time>2011-10-11T11:57:22Z</time></trkpt><trkpt lat="44.3338546157" lon="14.5982471947"><ele>0.14</ele><time>2011-10-11T11:57:50Z</time></trkpt><trkpt lat="44.3338549510" lon="14.5982464403"><ele>0.62</ele><time>2011-10-11T11:58:17Z</time></trkpt><trkpt lat="44.3338549510" lon="14.5982464403"><ele>0.62</ele><time>2011-10-11T11:58:45Z</time></trkpt><trkpt lat="44.3338614888" lon="14.5982497931"><ele>0.62</ele><time>2011-10-11T11:59:12Z</time></trkpt><trkpt lat="44.3338653445" lon="14.5982500445"><ele>0.62</ele><time>2011-10-11T11:59:40Z</time></trkpt><trkpt lat="44.3338598125" lon="14.5982511342"><ele>0.62</ele><time>2011-10-11T12:00:07Z</time></trkpt><trkpt lat="44.3338598125" lon="14.5982511342"><ele>0.62</ele><time>2011-10-11T12:00:38Z</time></trkpt><trkpt lat="44.3338675238" lon="14.5982623659"><ele>1.10</ele><time>2011-10-11T12:01:14Z</time></trkpt><trkpt lat="44.3338793423" lon="14.5982601028"><ele>0.62</ele><time>2011-10-11T12:01:38Z</time></trkpt><trkpt lat="44.3338612374" lon="14.5982522238"><ele>0.14</ele><time>2011-10-11T12:02:08Z</time></trkpt><trkpt lat="44.3338612374" lon="14.5982522238"><ele>0.14</ele><time>2011-10-11T12:02:35Z</time></trkpt><trkpt lat="44.3338585552" lon="14.5982515533"><ele>0.14</ele><time>2011-10-11T12:03:06Z</time></trkpt><trkpt lat="44.3338625785" lon="14.5982580911"><ele>0.14</ele><time>2011-10-11T12:03:36Z</time></trkpt><trkpt lat="44.3338655960" lon="14.5982551575"><ele>0.14</ele><time>2011-10-11T12:04:06Z</time></trkpt><trkpt lat="44.3338655960" lon="14.5982551575"><ele>0.14</ele><time>2011-10-11T12:04:38Z</time></trkpt><trkpt lat="44.3338589743" lon="14.5982497931"><ele>0.14</ele><time>2011-10-11T12:05:09Z</time></trkpt><trkpt lat="44.3338654283" lon="14.5982589293"><ele>0.14</ele><time>2011-10-11T12:05:41Z</time></trkpt><trkpt lat="44.3338681106" lon="14.5982590131"><ele>0.14</ele><time>2011-10-11T12:06:05Z</time></trkpt><trkpt lat="44.3338625785" lon="14.5982608572"><ele>0.62</ele><time>2011-10-11T12:06:32Z</time></trkpt><trkpt lat="44.3338625785" lon="14.5982608572"><ele>0.62</ele><time>2011-10-11T12:07:03Z</time></trkpt><trkpt lat="44.3338675238" lon="14.5982673112"><ele>0.14</ele><time>2011-10-11T12:07:39Z</time></trkpt><trkpt lat="44.3338785041" lon="14.5982713345"><ele>0.14</ele><time>2011-10-11T12:08:10Z</time></trkpt><trkpt lat="44.3338741455" lon="14.5982622821"><ele>0.62</ele><time>2011-10-11T12:08:41Z</time></trkpt><trkpt lat="44.3338741455" lon="14.5982622821"><ele>0.62</ele><time>2011-10-11T12:09:11Z</time></trkpt><trkpt lat="44.3338728044" lon="14.5982654672"><ele>0.62</ele><time>2011-10-11T12:09:42Z</time></trkpt><trkpt lat="44.3338728882" lon="14.5982706640"><ele>0.14</ele><time>2011-10-11T12:10:04Z</time></trkpt><trkpt lat="44.3338728882" lon="14.5982706640"><ele>0.14</ele><time>2011-10-11T12:10:27Z</time></trkpt><trkpt lat="44.3338469043" lon="14.5982954744"><ele>-0.34</ele><time>2011-10-11T12:10:37Z</time></trkpt><trkpt lat="44.3336989637" lon="14.5986620989"><ele>-1.79</ele><time>2011-10-11T12:10:54Z</time></trkpt><trkpt lat="44.3333303276" lon="14.5988155715"><ele>-2.75</ele><time>2011-10-11T12:11:11Z</time></trkpt><trkpt lat="44.3332894240" lon="14.5985082071"><ele>-2.75</ele><time>2011-10-11T12:11:23Z</time></trkpt><trkpt lat="44.3336768355" lon="14.5977679174"><ele>-0.34</ele><time>2011-10-11T12:11:49Z</time></trkpt><trkpt lat="44.3341449648" lon="14.5968730655"><ele>0.62</ele><time>2011-10-11T12:12:15Z</time></trkpt><trkpt lat="44.3344879523" lon="14.5960480347"><ele>1.58</ele><time>2011-10-11T12:12:38Z</time></trkpt><trkpt lat="44.3348129187" lon="14.5951417834"><ele>2.06</ele><time>2011-10-11T12:13:02Z</time></trkpt><trkpt lat="44.3352551479" lon="14.5943388809"><ele>2.54</ele><time>2011-10-11T12:13:26Z</time></trkpt><trkpt lat="44.3355823774" lon="14.5936874393"><ele>2.54</ele><time>2011-10-11T12:13:45Z</time></trkpt><trkpt lat="44.3359427154" lon="14.5929769892"><ele>1.58</ele><time>2011-10-11T12:14:06Z</time></trkpt><trkpt lat="44.3364488985" lon="14.5921834745"><ele>-0.82</ele><time>2011-10-11T12:14:31Z</time></trkpt><trkpt lat="44.3369501363" lon="14.5914428495"><ele>-0.82</ele><time>2011-10-11T12:14:55Z</time></trkpt><trkpt lat="44.3372888491" lon="14.5908141229"><ele>-0.82</ele><time>2011-10-11T12:15:15Z</time></trkpt><trkpt lat="44.3376697227" lon="14.5901297405"><ele>-0.82</ele><time>2011-10-11T12:15:38Z</time></trkpt><trkpt lat="44.3381946813" lon="14.5897191949"><ele>-0.34</ele><time>2011-10-11T12:16:00Z</time></trkpt><trkpt lat="44.3386535905" lon="14.5894178655"><ele>0.14</ele><time>2011-10-11T12:16:19Z</time></trkpt><trkpt lat="44.3391464464" lon="14.5890838467"><ele>-0.34</ele><time>2011-10-11T12:16:39Z</time></trkpt><trkpt lat="44.3394845724" lon="14.5886607282"><ele>-0.34</ele><time>2011-10-11T12:16:56Z</time></trkpt><trkpt lat="44.3399492651" lon="14.5879655331"><ele>0.62</ele><time>2011-10-11T12:17:21Z</time></trkpt><trkpt lat="44.3404458929" lon="14.5872855932"><ele>0.14</ele><time>2011-10-11T12:17:47Z</time></trkpt><trkpt lat="44.3409672473" lon="14.5866484847"><ele>0.62</ele><time>2011-10-11T12:18:12Z</time></trkpt><trkpt lat="44.3413285911" lon="14.5862118714"><ele>-0.34</ele><time>2011-10-11T12:18:30Z</time></trkpt><trkpt lat="44.3417300005" lon="14.5857807063"><ele>1.58</ele><time>2011-10-11T12:18:49Z</time></trkpt><trkpt lat="44.3420699704" lon="14.5853662211"><ele>0.62</ele><time>2011-10-11T12:19:06Z</time></trkpt><trkpt lat="44.3424233515" lon="14.5848483872"><ele>-0.34</ele><time>2011-10-11T12:19:25Z</time></trkpt><trkpt lat="44.3427419476" lon="14.5844071638"><ele>1.10</ele><time>2011-10-11T12:19:42Z</time></trkpt><trkpt lat="44.3430245854" lon="14.5840052515"><ele>2.06</ele><time>2011-10-11T12:19:58Z</time></trkpt><trkpt lat="44.3433674891" lon="14.5835149940"><ele>0.14</ele><time>2011-10-11T12:20:17Z</time></trkpt><trkpt lat="44.3436652981" lon="14.5831451006"><ele>0.14</ele><time>2011-10-11T12:20:33Z</time></trkpt><trkpt lat="44.3439951260" lon="14.5827357285"><ele>0.62</ele><time>2011-10-11T12:20:51Z</time></trkpt><trkpt lat="44.3443576433" lon="14.5822725445"><ele>0.14</ele><time>2011-10-11T12:21:11Z</time></trkpt><trkpt lat="44.3447522633" lon="14.5818148926"><ele>0.62</ele><time>2011-10-11T12:21:31Z</time></trkpt><trkpt lat="44.3451027945" lon="14.5814284030"><ele>1.58</ele><time>2011-10-11T12:21:49Z</time></trkpt><trkpt lat="44.3454008549" lon="14.5810627006"><ele>1.10</ele><time>2011-10-11T12:22:05Z</time></trkpt><trkpt lat="44.3457228038" lon="14.5806309488"><ele>-0.82</ele><time>2011-10-11T12:22:23Z</time></trkpt><trkpt lat="44.3460094649" lon="14.5802516676"><ele>-1.30</ele><time>2011-10-11T12:22:39Z</time></trkpt><trkpt lat="44.3463542126" lon="14.5797672775"><ele>-0.82</ele><time>2011-10-11T12:22:59Z</time></trkpt><trkpt lat="44.3467246089" lon="14.5792980585"><ele>-0.34</ele><time>2011-10-11T12:23:19Z</time></trkpt><trkpt lat="44.3470709492" lon="14.5788841601"><ele>1.58</ele><time>2011-10-11T12:23:36Z</time></trkpt><trkpt lat="44.3474525772" lon="14.5784158632"><ele>1.58</ele><time>2011-10-11T12:23:54Z</time></trkpt><trkpt lat="44.3477979116" lon="14.5779394358"><ele>2.06</ele><time>2011-10-11T12:24:11Z</time></trkpt><trkpt lat="44.3481436651" lon="14.5774666965"><ele>2.06</ele><time>2011-10-11T12:24:28Z</time></trkpt><trkpt lat="44.3484444078" lon="14.5770350285"><ele>1.58</ele><time>2011-10-11T12:24:43Z</time></trkpt><trkpt lat="44.3487614952" lon="14.5765870996"><ele>1.10</ele><time>2011-10-11T12:24:59Z</time></trkpt><trkpt lat="44.3491089251" lon="14.5760619733"><ele>1.58</ele><time>2011-10-11T12:25:18Z</time></trkpt><trkpt lat="44.3493508268" lon="14.5755910780"><ele>0.14</ele><time>2011-10-11T12:25:33Z</time></trkpt><trkpt lat="44.3495120946" lon="14.5751498546"><ele>-0.34</ele><time>2011-10-11T12:25:46Z</time></trkpt><trkpt lat="44.3497140985" lon="14.5747152530"><ele>0.14</ele><time>2011-10-11T12:26:01Z</time></trkpt><trkpt lat="44.3500533141" lon="14.5743859280"><ele>1.10</ele><time>2011-10-11T12:26:17Z</time></trkpt><trkpt lat="44.3504967168" lon="14.5740402583"><ele>1.58</ele><time>2011-10-11T12:26:36Z</time></trkpt><trkpt lat="44.3507335894" lon="14.5734650921"><ele>0.62</ele><time>2011-10-11T12:26:53Z</time></trkpt><trkpt lat="44.3508674484" lon="14.5727415662"><ele>-0.34</ele><time>2011-10-11T12:27:09Z</time></trkpt><trkpt lat="44.3508639280" lon="14.5719612110"><ele>0.62</ele><time>2011-10-11T12:27:26Z</time></trkpt><trkpt lat="44.3510741461" lon="14.5714401081"><ele>0.62</ele><time>2011-10-11T12:27:40Z</time></trkpt><trkpt lat="44.3514846079" lon="14.5710532833"><ele>1.10</ele><time>2011-10-11T12:27:57Z</time></trkpt><trkpt lat="44.3516530842" lon="14.5707624312"><ele>1.58</ele><time>2011-10-11T12:28:13Z</time></trkpt><trkpt lat="44.3516757153" lon="14.5705113094"><ele>0.62</ele><time>2011-10-11T12:28:31Z</time></trkpt><trkpt lat="44.3516576942" lon="14.5703357924"><ele>0.14</ele><time>2011-10-11T12:28:50Z</time></trkpt><trkpt lat="44.3516092468" lon="14.5702667255"><ele>-0.34</ele><time>2011-10-11T12:29:03Z</time></trkpt><trkpt lat="44.3515963387" lon="14.5702544879"><ele>0.14</ele><time>2011-10-11T12:29:05Z</time></trkpt><trkpt lat="44.3514041416" lon="14.5700496342"><ele>2.06</ele><time>2011-10-11T12:29:23Z</time></trkpt><trkpt lat="44.3512555305" lon="14.5698004402"><ele>1.10</ele><time>2011-10-11T12:29:39Z</time></trkpt><trkpt lat="44.3510825280" lon="14.5695209038"><ele>0.62</ele><time>2011-10-11T12:29:57Z</time></trkpt><trkpt lat="44.3509202544" lon="14.5693023875"><ele>0.62</ele><time>2011-10-11T12:30:12Z</time></trkpt><trkpt lat="44.3507262133" lon="14.5690523554"><ele>1.58</ele><time>2011-10-11T12:30:28Z</time></trkpt><trkpt lat="44.3505366147" lon="14.5687825419"><ele>2.06</ele><time>2011-10-11T12:30:44Z</time></trkpt><trkpt lat="44.3503709044" lon="14.5685577393"><ele>2.06</ele><time>2011-10-11T12:30:57Z</time></trkpt><trkpt lat="44.3501537293" lon="14.5681927074"><ele>1.10</ele><time>2011-10-11T12:31:12Z</time></trkpt><trkpt lat="44.3499922939" lon="14.5678238198"><ele>3.02</ele><time>2011-10-11T12:31:26Z</time></trkpt><trkpt lat="44.3497866858" lon="14.5673658326"><ele>2.54</ele><time>2011-10-11T12:31:45Z</time></trkpt><trkpt lat="44.3496304471" lon="14.5670615695"><ele>2.54</ele><time>2011-10-11T12:31:59Z</time></trkpt><trkpt lat="44.3494550139" lon="14.5667283889"><ele>3.50</ele><time>2011-10-11T12:32:14Z</time></trkpt><trkpt lat="44.3493239209" lon="14.5663950406"><ele>4.46</ele><time>2011-10-11T12:32:30Z</time></trkpt><trkpt lat="44.3491025548" lon="14.5661256462"><ele>4.94</ele><time>2011-10-11T12:32:47Z</time></trkpt><trkpt lat="44.3488045782" lon="14.5658227243"><ele>6.87</ele><time>2011-10-11T12:33:02Z</time></trkpt><trkpt lat="44.3485277239" lon="14.5655162819"><ele>6.87</ele><time>2011-10-11T12:33:15Z</time></trkpt><trkpt lat="44.3482071999" lon="14.5651438739"><ele>6.87</ele><time>2011-10-11T12:33:30Z</time></trkpt><trkpt lat="44.3478373904" lon="14.5646870602"><ele>6.87</ele><time>2011-10-11T12:33:46Z</time></trkpt><trkpt lat="44.3475723546" lon="14.5643423963"><ele>5.91</ele><time>2011-10-11T12:33:58Z</time></trkpt><trkpt lat="44.3472881243" lon="14.5639216248"><ele>5.42</ele><time>2011-10-11T12:34:12Z</time></trkpt><trkpt lat="44.3469643313" lon="14.5636073034"><ele>5.42</ele><time>2011-10-11T12:34:25Z</time></trkpt><trkpt lat="44.3466736469" lon="14.5632170420"><ele>6.39</ele><time>2011-10-11T12:34:38Z</time></trkpt><trkpt lat="44.3463459983" lon="14.5627586357"><ele>6.87</ele><time>2011-10-11T12:34:53Z</time></trkpt><trkpt lat="44.3460238818" lon="14.5624231920"><ele>6.87</ele><time>2011-10-11T12:35:06Z</time></trkpt><trkpt lat="44.3457270786" lon="14.5620591659"><ele>7.35</ele><time>2011-10-11T12:35:19Z</time></trkpt><trkpt lat="44.3454833329" lon="14.5615735184"><ele>6.87</ele><time>2011-10-11T12:35:35Z</time></trkpt><trkpt lat="44.3452861905" lon="14.5611731987"><ele>7.35</ele><time>2011-10-11T12:35:49Z</time></trkpt><trkpt lat="44.3451380823" lon="14.5606458094"><ele>6.87</ele><time>2011-10-11T12:36:06Z</time></trkpt><trkpt lat="44.3450257648" lon="14.5602701325"><ele>6.39</ele><time>2011-10-11T12:36:19Z</time></trkpt><trkpt lat="44.3449114356" lon="14.5598803740"><ele>5.42</ele><time>2011-10-11T12:36:33Z</time></trkpt><trkpt lat="44.3447724637" lon="14.5594573393"><ele>5.42</ele><time>2011-10-11T12:36:48Z</time></trkpt><trkpt lat="44.3446598109" lon="14.5590164512"><ele>5.42</ele><time>2011-10-11T12:37:03Z</time></trkpt><trkpt lat="44.3445373513" lon="14.5586255193"><ele>5.91</ele><time>2011-10-11T12:37:17Z</time></trkpt><trkpt lat="44.3443859741" lon="14.5582106151"><ele>4.94</ele><time>2011-10-11T12:37:32Z</time></trkpt><trkpt lat="44.3444137182" lon="14.5579749160"><ele>3.50</ele><time>2011-10-11T12:37:44Z</time></trkpt><trkpt lat="44.3444356788" lon="14.5579603314"><ele>4.46</ele><time>2011-10-11T12:37:47Z</time></trkpt><trkpt lat="44.3445210066" lon="14.5580039173"><ele>4.46</ele><time>2011-10-11T12:37:54Z</time></trkpt><trkpt lat="44.3447056599" lon="14.5579769276"><ele>4.46</ele><time>2011-10-11T12:38:07Z</time></trkpt><trkpt lat="44.3449259363" lon="14.5578873251"><ele>4.46</ele><time>2011-10-11T12:38:23Z</time></trkpt><trkpt lat="44.3452358991" lon="14.5578636881"><ele>3.50</ele><time>2011-10-11T12:38:40Z</time></trkpt><trkpt lat="44.3456218019" lon="14.5578061044"><ele>3.50</ele><time>2011-10-11T12:38:57Z</time></trkpt><trkpt lat="44.3459421583" lon="14.5578000695"><ele>3.02</ele><time>2011-10-11T12:39:10Z</time></trkpt><trkpt lat="44.3463776819" lon="14.5577938668"><ele>2.54</ele><time>2011-10-11T12:39:26Z</time></trkpt><trkpt lat="44.3468448892" lon="14.5577941183"><ele>2.54</ele><time>2011-10-11T12:39:43Z</time></trkpt><trkpt lat="44.3472785689" lon="14.5577877481"><ele>2.06</ele><time>2011-10-11T12:39:59Z</time></trkpt><trkpt lat="44.3477153499" lon="14.5578136481"><ele>2.54</ele><time>2011-10-11T12:40:15Z</time></trkpt><trkpt lat="44.3481671344" lon="14.5579394605"><ele>1.58</ele><time>2011-10-11T12:40:32Z</time></trkpt><trkpt lat="44.3485169113" lon="14.5579912607"><ele>1.10</ele><time>2011-10-11T12:40:45Z</time></trkpt><trkpt lat="44.3489265349" lon="14.5580544602"><ele>1.10</ele><time>2011-10-11T12:41:00Z</time></trkpt><trkpt lat="44.3493183050" lon="14.5581179112"><ele>1.10</ele><time>2011-10-11T12:41:14Z</time></trkpt><trkpt lat="44.3498119991" lon="14.5581608266"><ele>1.10</ele><time>2011-10-11T12:41:32Z</time></trkpt><trkpt lat="44.3502171803" lon="14.5581647661"><ele>1.58</ele><time>2011-10-11T12:41:47Z</time></trkpt><trkpt lat="44.3505693041" lon="14.5581350103"><ele>2.06</ele><time>2011-10-11T12:42:02Z</time></trkpt><trkpt lat="44.3508718070" lon="14.5580965374"><ele>2.06</ele><time>2011-10-11T12:42:16Z</time></trkpt><trkpt lat="44.3513468094" lon="14.5581147261"><ele>1.58</ele><time>2011-10-11T12:42:36Z</time></trkpt><trkpt lat="44.3517415132" lon="14.5581587311"><ele>2.06</ele><time>2011-10-11T12:42:52Z</time></trkpt><trkpt lat="44.3521761149" lon="14.5582119562"><ele>1.58</ele><time>2011-10-11T12:43:10Z</time></trkpt><trkpt lat="44.3525258079" lon="14.5582257863"><ele>3.02</ele><time>2011-10-11T12:43:24Z</time></trkpt><trkpt lat="44.3529552128" lon="14.5582581405"><ele>2.06</ele><time>2011-10-11T12:43:41Z</time></trkpt><trkpt lat="44.3532866333" lon="14.5583507605"><ele>2.54</ele><time>2011-10-11T12:43:54Z</time></trkpt><trkpt lat="44.3536719494" lon="14.5584490802"><ele>2.54</ele><time>2011-10-11T12:44:08Z</time></trkpt><trkpt lat="44.3541740254" lon="14.5584648382"><ele>3.02</ele><time>2011-10-11T12:44:26Z</time></trkpt><trkpt lat="44.3545735907" lon="14.5584540255"><ele>2.54</ele><time>2011-10-11T12:44:41Z</time></trkpt><trkpt lat="44.3549986370" lon="14.5584745612"><ele>3.50</ele><time>2011-10-11T12:44:57Z</time></trkpt><trkpt lat="44.3553847075" lon="14.5584964380"><ele>2.54</ele><time>2011-10-11T12:45:11Z</time></trkpt><trkpt lat="44.3557991926" lon="14.5586056542"><ele>1.10</ele><time>2011-10-11T12:45:26Z</time></trkpt><trkpt lat="44.3561773002" lon="14.5586743858"><ele>0.62</ele><time>2011-10-11T12:45:39Z</time></trkpt><trkpt lat="44.3565325253" lon="14.5586685184"><ele>0.14</ele><time>2011-10-11T12:45:52Z</time></trkpt><trkpt lat="44.3569268100" lon="14.5585995354"><ele>0.62</ele><time>2011-10-11T12:46:07Z</time></trkpt><trkpt lat="44.3573041633" lon="14.5585881360"><ele>-0.34</ele><time>2011-10-11T12:46:21Z</time></trkpt><trkpt lat="44.3577364180" lon="14.5586447138"><ele>0.62</ele><time>2011-10-11T12:46:37Z</time></trkpt><trkpt lat="44.3581384141" lon="14.5586542692"><ele>0.14</ele><time>2011-10-11T12:46:52Z</time></trkpt><trkpt lat="44.3585165218" lon="14.5586556103"><ele>0.14</ele><time>2011-10-11T12:47:06Z</time></trkpt><trkpt lat="44.3588901032" lon="14.5586499944"><ele>1.10</ele><time>2011-10-11T12:47:20Z</time></trkpt><trkpt lat="44.3592898361" lon="14.5586770680"><ele>0.62</ele><time>2011-10-11T12:47:35Z</time></trkpt><trkpt lat="44.3596170656" lon="14.5587359928"><ele>1.10</ele><time>2011-10-11T12:47:47Z</time></trkpt><trkpt lat="44.3598960992" lon="14.5587126911"><ele>1.58</ele><time>2011-10-11T12:47:58Z</time></trkpt><trkpt lat="44.3602408469" lon="14.5586918201"><ele>0.14</ele><time>2011-10-11T12:48:12Z</time></trkpt><trkpt lat="44.3606159370" lon="14.5586348232"><ele>0.14</ele><time>2011-10-11T12:48:27Z</time></trkpt><trkpt lat="44.3610138260" lon="14.5585318096"><ele>1.10</ele><time>2011-10-11T12:48:44Z</time></trkpt><trkpt lat="44.3614644371" lon="14.5584606472"><ele>0.62</ele><time>2011-10-11T12:49:03Z</time></trkpt><trkpt lat="44.3618367612" lon="14.5584820211"><ele>1.58</ele><time>2011-10-11T12:49:19Z</time></trkpt><trkpt lat="44.3622290343" lon="14.5585013833"><ele>-0.34</ele><time>2011-10-11T12:49:34Z</time></trkpt><trkpt lat="44.3624672480" lon="14.5584979467"><ele>0.62</ele><time>2011-10-11T12:49:44Z</time></trkpt><trkpt lat="44.3628389016" lon="14.5585771557"><ele>-0.34</ele><time>2011-10-11T12:49:59Z</time></trkpt><trkpt lat="44.3631459307" lon="14.5586429536"><ele>0.14</ele><time>2011-10-11T12:50:11Z</time></trkpt><trkpt lat="44.3634555582" lon="14.5587074943"><ele>-0.34</ele><time>2011-10-11T12:50:23Z</time></trkpt><trkpt lat="44.3639326561" lon="14.5587909780"><ele>-0.34</ele><time>2011-10-11T12:50:41Z</time></trkpt><trkpt lat="44.3643327244" lon="14.5587551873"><ele>-1.30</ele><time>2011-10-11T12:50:57Z</time></trkpt><trkpt lat="44.3647265900" lon="14.5587936603"><ele>-1.30</ele><time>2011-10-11T12:51:13Z</time></trkpt><trkpt lat="44.3651949707" lon="14.5588974282"><ele>-1.79</ele><time>2011-10-11T12:51:31Z</time></trkpt><trkpt lat="44.3654474337" lon="14.5589671656"><ele>-1.79</ele><time>2011-10-11T12:51:41Z</time></trkpt><trkpt lat="44.3658889923" lon="14.5590947382"><ele>-1.30</ele><time>2011-10-11T12:51:58Z</time></trkpt><trkpt lat="44.3662679382" lon="14.5592150185"><ele>-2.75</ele><time>2011-10-11T12:52:13Z</time></trkpt><trkpt lat="44.3667322956" lon="14.5593767893"><ele>-2.75</ele><time>2011-10-11T12:52:31Z</time></trkpt><trkpt lat="44.3670515623" lon="14.5593868475"><ele>-1.30</ele><time>2011-10-11T12:52:44Z</time></trkpt><trkpt lat="44.3673330266" lon="14.5593376458"><ele>-0.34</ele><time>2011-10-11T12:52:56Z</time></trkpt><trkpt lat="44.3677458353" lon="14.5592458639"><ele>0.14</ele><time>2011-10-11T12:53:13Z</time></trkpt><trkpt lat="44.3681457359" lon="14.5592187066"><ele>0.62</ele><time>2011-10-11T12:53:29Z</time></trkpt><trkpt lat="44.3685323931" lon="14.5591410901"><ele>1.10</ele><time>2011-10-11T12:53:45Z</time></trkpt><trkpt lat="44.3688285258" lon="14.5591232367"><ele>1.58</ele><time>2011-10-11T12:53:57Z</time></trkpt><trkpt lat="44.3692394905" lon="14.5590555947"><ele>1.10</ele><time>2011-10-11T12:54:13Z</time></trkpt><trkpt lat="44.3694910314" lon="14.5590317901"><ele>-0.34</ele><time>2011-10-11T12:54:23Z</time></trkpt><trkpt lat="44.3699237052" lon="14.5590415969"><ele>-0.82</ele><time>2011-10-11T12:54:40Z</time></trkpt><trkpt lat="44.3703624140" lon="14.5590128470"><ele>-0.82</ele><time>2011-10-11T12:54:57Z</time></trkpt><trkpt lat="44.3706736341" lon="14.5589454565"><ele>-1.30</ele><time>2011-10-11T12:55:10Z</time></trkpt><trkpt lat="44.3710459583" lon="14.5588857774"><ele>-1.30</ele><time>2011-10-11T12:55:25Z</time></trkpt><trkpt lat="44.3714071345" lon="14.5587828476"><ele>-0.82</ele><time>2011-10-11T12:55:39Z</time></trkpt><trkpt lat="44.3717447575" lon="14.5586961787"><ele>-0.34</ele><time>2011-10-11T12:55:52Z</time></trkpt><trkpt lat="44.3721077777" lon="14.5585181471"><ele>1.10</ele><time>2011-10-11T12:56:07Z</time></trkpt><trkpt lat="44.3724487536" lon="14.5584992040"><ele>1.10</ele><time>2011-10-11T12:56:20Z</time></trkpt><trkpt lat="44.3728250172" lon="14.5585183986"><ele>2.06</ele><time>2011-10-11T12:56:34Z</time></trkpt><trkpt lat="44.3732306175" lon="14.5586029720"><ele>0.62</ele><time>2011-10-11T12:56:49Z</time></trkpt><trkpt lat="44.3736372236" lon="14.5586517546"><ele>-0.82</ele><time>2011-10-11T12:57:04Z</time></trkpt><trkpt lat="44.3740200251" lon="14.5585157163"><ele>0.62</ele><time>2011-10-11T12:57:19Z</time></trkpt><trkpt lat="44.3743848894" lon="14.5584469009"><ele>1.10</ele><time>2011-10-11T12:57:34Z</time></trkpt><trkpt lat="44.3746909127" lon="14.5584295504"><ele>0.14</ele><time>2011-10-11T12:57:46Z</time></trkpt><trkpt lat="44.3751535937" lon="14.5583785884"><ele>-0.34</ele><time>2011-10-11T12:58:04Z</time></trkpt><trkpt lat="44.3755126745" lon="14.5583093539"><ele>-0.34</ele><time>2011-10-11T12:58:18Z</time></trkpt><trkpt lat="44.3758195359" lon="14.5582633372"><ele>-0.34</ele><time>2011-10-11T12:58:30Z</time></trkpt><trkpt lat="44.3762194365" lon="14.5581329148"><ele>0.62</ele><time>2011-10-11T12:58:46Z</time></trkpt><trkpt lat="44.3765392900" lon="14.5580621716"><ele>0.62</ele><time>2011-10-11T12:58:59Z</time></trkpt><trkpt lat="44.3767654337" lon="14.5580129698"><ele>1.58</ele><time>2011-10-11T12:59:09Z</time></trkpt><trkpt lat="44.3770264462" lon="14.5578846429"><ele>3.02</ele><time>2011-10-11T12:59:22Z</time></trkpt><trkpt lat="44.3773558550" lon="14.5577657036"><ele>1.58</ele><time>2011-10-11T12:59:39Z</time></trkpt><trkpt lat="44.3777016923" lon="14.5577217825"><ele>2.06</ele><time>2011-10-11T12:59:54Z</time></trkpt><trkpt lat="44.3780502956" lon="14.5576264802"><ele>1.58</ele><time>2011-10-11T13:00:09Z</time></trkpt><trkpt lat="44.3783577438" lon="14.5575877558"><ele>0.14</ele><time>2011-10-11T13:00:22Z</time></trkpt><trkpt lat="44.3787833769" lon="14.5575646218"><ele>0.62</ele><time>2011-10-11T13:00:39Z</time></trkpt><trkpt lat="44.3791969400" lon="14.5575652085"><ele>0.62</ele><time>2011-10-11T13:00:55Z</time></trkpt><trkpt lat="44.3795919791" lon="14.5574689843"><ele>1.10</ele><time>2011-10-11T13:01:11Z</time></trkpt><trkpt lat="44.3799938913" lon="14.5573838241"><ele>0.62</ele><time>2011-10-11T13:01:27Z</time></trkpt><trkpt lat="44.3803267367" lon="14.5574063715"><ele>-0.82</ele><time>2011-10-11T13:01:40Z</time></trkpt><trkpt lat="44.3807235360" lon="14.5574321039"><ele>-0.34</ele><time>2011-10-11T13:01:55Z</time></trkpt><trkpt lat="44.3811092712" lon="14.5574653801"><ele>-0.82</ele><time>2011-10-11T13:02:10Z</time></trkpt><trkpt lat="44.3814837746" lon="14.5575444214"><ele>0.14</ele><time>2011-10-11T13:02:24Z</time></trkpt><trkpt lat="44.3818828370" lon="14.5576656237"><ele>-0.34</ele><time>2011-10-11T13:02:39Z</time></trkpt><trkpt lat="44.3822249025" lon="14.5577470120"><ele>-0.34</ele><time>2011-10-11T13:02:52Z</time></trkpt><trkpt lat="44.3825847376" lon="14.5578322560"><ele>0.14</ele><time>2011-10-11T13:03:06Z</time></trkpt><trkpt lat="44.3829665333" lon="14.5577960461"><ele>1.58</ele><time>2011-10-11T13:03:21Z</time></trkpt><trkpt lat="44.3832931761" lon="14.5577518735"><ele>2.54</ele><time>2011-10-11T13:03:34Z</time></trkpt><trkpt lat="44.3837831821" lon="14.5578138158"><ele>3.02</ele><time>2011-10-11T13:03:53Z</time></trkpt><trkpt lat="44.3842026126" lon="14.5578533784"><ele>2.54</ele><time>2011-10-11T13:04:09Z</time></trkpt><trkpt lat="44.3846364599" lon="14.5578817092"><ele>1.10</ele><time>2011-10-11T13:04:25Z</time></trkpt><trkpt lat="44.3850159086" lon="14.5579005685"><ele>1.58</ele><time>2011-10-11T13:04:39Z</time></trkpt><trkpt lat="44.3853930943" lon="14.5579850581"><ele>2.54</ele><time>2011-10-11T13:04:53Z</time></trkpt><trkpt lat="44.3857859541" lon="14.5579879917"><ele>2.06</ele><time>2011-10-11T13:05:08Z</time></trkpt><trkpt lat="44.3862091564" lon="14.5580246206"><ele>2.06</ele><time>2011-10-11T13:05:24Z</time></trkpt><trkpt lat="44.3866728432" lon="14.5579817053"><ele>3.02</ele><time>2011-10-11T13:05:41Z</time></trkpt><trkpt lat="44.3871521205" lon="14.5579807833"><ele>2.06</ele><time>2011-10-11T13:05:58Z</time></trkpt><trkpt lat="44.3876321521" lon="14.5579611696"><ele>3.02</ele><time>2011-10-11T13:06:15Z</time></trkpt><trkpt lat="44.3880006205" lon="14.5578572340"><ele>3.50</ele><time>2011-10-11T13:06:29Z</time></trkpt><trkpt lat="44.3884516507" lon="14.5578254666"><ele>3.02</ele><time>2011-10-11T13:06:46Z</time></trkpt><trkpt lat="44.3887808081" lon="14.5578890853"><ele>2.54</ele><time>2011-10-11T13:06:58Z</time></trkpt><trkpt lat="44.3891771883" lon="14.5579001494"><ele>3.02</ele><time>2011-10-11T13:07:12Z</time></trkpt><trkpt lat="44.3895913381" lon="14.5578829665"><ele>2.54</ele><time>2011-10-11T13:07:27Z</time></trkpt><trkpt lat="44.3900295440" lon="14.5578176714"><ele>1.58</ele><time>2011-10-11T13:07:43Z</time></trkpt><trkpt lat="44.3903277721" lon="14.5578115527"><ele>0.62</ele><time>2011-10-11T13:07:54Z</time></trkpt><trkpt lat="44.3907538243" lon="14.5577051025"><ele>-0.34</ele><time>2011-10-11T13:08:10Z</time></trkpt><trkpt lat="44.3912297487" lon="14.5575063676"><ele>1.10</ele><time>2011-10-11T13:08:29Z</time></trkpt><trkpt lat="44.3916091975" lon="14.5574221294"><ele>1.58</ele><time>2011-10-11T13:08:44Z</time></trkpt><trkpt lat="44.3919748161" lon="14.5573709998"><ele>2.54</ele><time>2011-10-11T13:08:58Z</time></trkpt><trkpt lat="44.3924218230" lon="14.5572870970"><ele>2.06</ele><time>2011-10-11T13:09:15Z</time></trkpt><trkpt lat="44.3928390741" lon="14.5571648050"><ele>0.62</ele><time>2011-10-11T13:09:31Z</time></trkpt><trkpt lat="44.3932595104" lon="14.5570036210"><ele>1.10</ele><time>2011-10-11T13:09:48Z</time></trkpt><trkpt lat="44.3936118018" lon="14.5567660779"><ele>0.62</ele><time>2011-10-11T13:10:05Z</time></trkpt><trkpt lat="44.3940314837" lon="14.5566017088"><ele>0.62</ele><time>2011-10-11T13:10:23Z</time></trkpt><trkpt lat="44.3943701964" lon="14.5565114357"><ele>2.06</ele><time>2011-10-11T13:10:36Z</time></trkpt><trkpt lat="44.3946928158" lon="14.5564489067"><ele>2.54</ele><time>2011-10-11T13:10:48Z</time></trkpt><trkpt lat="44.3950251583" lon="14.5564020518"><ele>2.54</ele><time>2011-10-11T13:11:00Z</time></trkpt><trkpt lat="44.3954725005" lon="14.5563997887"><ele>1.58</ele><time>2011-10-11T13:11:16Z</time></trkpt><trkpt lat="44.3958566431" lon="14.5563839469"><ele>1.58</ele><time>2011-10-11T13:11:30Z</time></trkpt><trkpt lat="44.3962762412" lon="14.5564612281"><ele>1.10</ele><time>2011-10-11T13:11:45Z</time></trkpt><trkpt lat="44.3965936638" lon="14.5565147884"><ele>1.58</ele><time>2011-10-11T13:11:56Z</time></trkpt><trkpt lat="44.3969029561" lon="14.5564726274"><ele>2.06</ele><time>2011-10-11T13:12:07Z</time></trkpt><trkpt lat="44.3970152736" lon="14.5564973541"><ele>2.06</ele><time>2011-10-11T13:12:11Z</time></trkpt><trkpt lat="44.3974792957" lon="14.5565983560"><ele>1.58</ele><time>2011-10-11T13:12:27Z</time></trkpt><trkpt lat="44.3979138974" lon="14.5566740446"><ele>1.58</ele><time>2011-10-11T13:12:42Z</time></trkpt><trkpt lat="44.3983453140" lon="14.5566245914"><ele>0.14</ele><time>2011-10-11T13:12:57Z</time></trkpt><trkpt lat="44.3987239245" lon="14.5565954223"><ele>-0.34</ele><time>2011-10-11T13:13:11Z</time></trkpt><trkpt lat="44.3991187122" lon="14.5567183848"><ele>-0.34</ele><time>2011-10-11T13:13:25Z</time></trkpt><trkpt lat="44.3995298445" lon="14.5567631442"><ele>-0.82</ele><time>2011-10-11T13:13:39Z</time></trkpt><trkpt lat="44.3998196069" lon="14.5567504037"><ele>-1.30</ele><time>2011-10-11T13:13:49Z</time></trkpt><trkpt lat="44.4002610818" lon="14.5566495694"><ele>-0.82</ele><time>2011-10-11T13:14:05Z</time></trkpt><trkpt lat="44.4006235152" lon="14.5565950871"><ele>0.14</ele><time>2011-10-11T13:14:19Z</time></trkpt><trkpt lat="44.4009486493" lon="14.5566860307"><ele>-0.34</ele><time>2011-10-11T13:14:31Z</time></trkpt><trkpt lat="44.4013938121" lon="14.5568380784"><ele>0.14</ele><time>2011-10-11T13:14:47Z</time></trkpt><trkpt lat="44.4017070439" lon="14.5569296926"><ele>-0.34</ele><time>2011-10-11T13:14:58Z</time></trkpt><trkpt lat="44.4021135662" lon="14.5569716860"><ele>0.62</ele><time>2011-10-11T13:15:13Z</time></trkpt><trkpt lat="44.4025151432" lon="14.5570102427"><ele>0.14</ele><time>2011-10-11T13:15:28Z</time></trkpt><trkpt lat="44.4028928317" lon="14.5570633840"><ele>1.10</ele><time>2011-10-11T13:15:42Z</time></trkpt><trkpt lat="44.4034008589" lon="14.5571841672"><ele>1.10</ele><time>2011-10-11T13:16:01Z</time></trkpt><trkpt lat="44.4037956465" lon="14.5572311059"><ele>1.58</ele><time>2011-10-11T13:16:16Z</time></trkpt><trkpt lat="44.4041957986" lon="14.5573466085"><ele>1.10</ele><time>2011-10-11T13:16:31Z</time></trkpt><trkpt lat="44.4045713078" lon="14.5574185252"><ele>1.10</ele><time>2011-10-11T13:16:45Z</time></trkpt><trkpt lat="44.4050007127" lon="14.5574354567"><ele>1.10</ele><time>2011-10-11T13:17:01Z</time></trkpt><trkpt lat="44.4053716119" lon="14.5574295893"><ele>2.06</ele><time>2011-10-11T13:17:15Z</time></trkpt><trkpt lat="44.4057714287" lon="14.5573977381"><ele>2.06</ele><time>2011-10-11T13:17:30Z</time></trkpt><trkpt lat="44.4061122369" lon="14.5573820639"><ele>2.06</ele><time>2011-10-11T13:17:43Z</time></trkpt><trkpt lat="44.4065610040" lon="14.5575403143"><ele>2.06</ele><time>2011-10-11T13:18:00Z</time></trkpt><trkpt lat="44.4068959448" lon="14.5576426573"><ele>1.58</ele><time>2011-10-11T13:18:13Z</time></trkpt><trkpt lat="44.4072941691" lon="14.5575864986"><ele>2.54</ele><time>2011-10-11T13:18:29Z</time></trkpt><trkpt lat="44.4076583628" lon="14.5575554017"><ele>1.58</ele><time>2011-10-11T13:18:45Z</time></trkpt><trkpt lat="44.4080710039" lon="14.5576186851"><ele>1.58</ele><time>2011-10-11T13:19:01Z</time></trkpt><trkpt lat="44.4084839802" lon="14.5576895121"><ele>2.06</ele><time>2011-10-11T13:19:16Z</time></trkpt><trkpt lat="44.4088767562" lon="14.5577577408"><ele>1.58</ele><time>2011-10-11T13:19:30Z</time></trkpt><trkpt lat="44.4093530159" lon="14.5579057653"><ele>1.10</ele><time>2011-10-11T13:19:47Z</time></trkpt><trkpt lat="44.4097642321" lon="14.5579752512"><ele>1.10</ele><time>2011-10-11T13:20:02Z</time></trkpt><trkpt lat="44.4101908710" lon="14.5579885785"><ele>2.06</ele><time>2011-10-11T13:20:18Z</time></trkpt><trkpt lat="44.4105851557" lon="14.5580049232"><ele>1.58</ele><time>2011-10-11T13:20:33Z</time></trkpt><trkpt lat="44.4109041709" lon="14.5580089465"><ele>0.62</ele><time>2011-10-11T13:20:46Z</time></trkpt><trkpt lat="44.4113430474" lon="14.5581364352"><ele>0.62</ele><time>2011-10-11T13:21:04Z</time></trkpt><trkpt lat="44.4116845261" lon="14.5582141355"><ele>1.10</ele><time>2011-10-11T13:21:17Z</time></trkpt><trkpt lat="44.4120206404" lon="14.5582699589"><ele>0.62</ele><time>2011-10-11T13:21:30Z</time></trkpt><trkpt lat="44.4124716707" lon="14.5582892373"><ele>0.14</ele><time>2011-10-11T13:21:47Z</time></trkpt><trkpt lat="44.4128167536" lon="14.5583162270"><ele>-0.34</ele><time>2011-10-11T13:22:01Z</time></trkpt><trkpt lat="44.4132194202" lon="14.5583126228"><ele>-0.34</ele><time>2011-10-11T13:22:17Z</time></trkpt><trkpt lat="44.4135341607" lon="14.5583277103"><ele>-0.34</ele><time>2011-10-11T13:22:30Z</time></trkpt><trkpt lat="44.4139572792" lon="14.5583651774"><ele>0.14</ele><time>2011-10-11T13:22:48Z</time></trkpt><trkpt lat="44.4143262506" lon="14.5584164746"><ele>0.14</ele><time>2011-10-11T13:23:03Z</time></trkpt><trkpt lat="44.4148067851" lon="14.5584385190"><ele>0.14</ele><time>2011-10-11T13:23:22Z</time></trkpt><trkpt lat="44.4152032491" lon="14.5584870502"><ele>0.62</ele><time>2011-10-11T13:23:37Z</time></trkpt><trkpt lat="44.4155393634" lon="14.5585379284"><ele>0.62</ele><time>2011-10-11T13:23:49Z</time></trkpt><trkpt lat="44.4158758968" lon="14.5585993677"><ele>1.10</ele><time>2011-10-11T13:24:01Z</time></trkpt><trkpt lat="44.4163599517" lon="14.5585819334"><ele>1.10</ele><time>2011-10-11T13:24:18Z</time></trkpt><trkpt lat="44.4167285878" lon="14.5585333183"><ele>0.14</ele><time>2011-10-11T13:24:32Z</time></trkpt><trkpt lat="44.4171672966" lon="14.5584375970"><ele>0.14</ele><time>2011-10-11T13:24:49Z</time></trkpt><trkpt lat="44.4174724817" lon="14.5583675243"><ele>0.14</ele><time>2011-10-11T13:25:01Z</time></trkpt><trkpt lat="44.4179322291" lon="14.5583175682"><ele>-0.34</ele><time>2011-10-11T13:25:19Z</time></trkpt><trkpt lat="44.4182926510" lon="14.5583538618"><ele>0.14</ele><time>2011-10-11T13:25:33Z</time></trkpt><trkpt lat="44.4187394064" lon="14.5583859645"><ele>-0.34</ele><time>2011-10-11T13:25:50Z</time></trkpt><trkpt lat="44.4191192742" lon="14.5584054943"><ele>0.14</ele><time>2011-10-11T13:26:04Z</time></trkpt><trkpt lat="44.4195521157" lon="14.5584260300"><ele>0.14</ele><time>2011-10-11T13:26:20Z</time></trkpt><trkpt lat="44.4199935906" lon="14.5584255271"><ele>0.62</ele><time>2011-10-11T13:26:36Z</time></trkpt><trkpt lat="44.4204070698" lon="14.5584092662"><ele>0.62</ele><time>2011-10-11T13:26:51Z</time></trkpt><trkpt lat="44.4209250715" lon="14.5583648421"><ele>0.62</ele><time>2011-10-11T13:27:10Z</time></trkpt><trkpt lat="44.4213647861" lon="14.5582733117"><ele>0.62</ele><time>2011-10-11T13:27:26Z</time></trkpt><trkpt lat="44.4216956198" lon="14.5582096092"><ele>0.62</ele><time>2011-10-11T13:27:38Z</time></trkpt><trkpt lat="44.4222032279" lon="14.5581543725"><ele>1.10</ele><time>2011-10-11T13:27:56Z</time></trkpt><trkpt lat="44.4225889631" lon="14.5580583997"><ele>1.58</ele><time>2011-10-11T13:28:10Z</time></trkpt><trkpt lat="44.4231023546" lon="14.5579473395"><ele>1.10</ele><time>2011-10-11T13:28:28Z</time></trkpt><trkpt lat="44.4235652871" lon="14.5579097047"><ele>1.10</ele><time>2011-10-11T13:28:44Z</time></trkpt><trkpt lat="44.4239357673" lon="14.5578864031"><ele>0.62</ele><time>2011-10-11T13:28:57Z</time></trkpt><trkpt lat="44.4244082551" lon="14.5578827150"><ele>0.14</ele><time>2011-10-11T13:29:14Z</time></trkpt><trkpt lat="44.4249115884" lon="14.5578128938"><ele>0.62</ele><time>2011-10-11T13:29:32Z</time></trkpt><trkpt lat="44.4253756106" lon="14.5577921066"><ele>0.62</ele><time>2011-10-11T13:29:49Z</time></trkpt><trkpt lat="44.4258391298" lon="14.5577952079"><ele>1.10</ele><time>2011-10-11T13:30:06Z</time></trkpt><trkpt lat="44.4263693690" lon="14.5578068588"><ele>0.62</ele><time>2011-10-11T13:30:26Z</time></trkpt><trkpt lat="44.4267856143" lon="14.5578190126"><ele>0.62</ele><time>2011-10-11T13:30:42Z</time></trkpt><trkpt lat="44.4272658974" lon="14.5578412246"><ele>0.14</ele><time>2011-10-11T13:31:00Z</time></trkpt><trkpt lat="44.4277858268" lon="14.5578216948"><ele>0.14</ele><time>2011-10-11T13:31:19Z</time></trkpt><trkpt lat="44.4282360189" lon="14.5578028355"><ele>0.14</ele><time>2011-10-11T13:31:36Z</time></trkpt><trkpt lat="44.4286095165" lon="14.5578089543"><ele>0.14</ele><time>2011-10-11T13:31:50Z</time></trkpt><trkpt lat="44.4290517457" lon="14.5578014106"><ele>-0.34</ele><time>2011-10-11T13:32:06Z</time></trkpt><trkpt lat="44.4294328708" lon="14.5577861555"><ele>0.14</ele><time>2011-10-11T13:32:20Z</time></trkpt><trkpt lat="44.4298712444" lon="14.5577828865"><ele>0.14</ele><time>2011-10-11T13:32:36Z</time></trkpt><trkpt lat="44.4303095341" lon="14.5577249676"><ele>0.62</ele><time>2011-10-11T13:32:52Z</time></trkpt><trkpt lat="44.4307223428" lon="14.5576977264"><ele>0.62</ele><time>2011-10-11T13:33:07Z</time></trkpt><trkpt lat="44.4312117621" lon="14.5576496981"><ele>0.62</ele><time>2011-10-11T13:33:25Z</time></trkpt><trkpt lat="44.4316196255" lon="14.5576127339"><ele>0.62</ele><time>2011-10-11T13:33:40Z</time></trkpt><trkpt lat="44.4320015889" lon="14.5575466007"><ele>0.14</ele><time>2011-10-11T13:33:54Z</time></trkpt><trkpt lat="44.4324246235" lon="14.5574607700"><ele>-0.34</ele><time>2011-10-11T13:34:09Z</time></trkpt><trkpt lat="44.4328208361" lon="14.5573616121"><ele>-0.82</ele><time>2011-10-11T13:34:23Z</time></trkpt><trkpt lat="44.4333228283" lon="14.5572907850"><ele>0.14</ele><time>2011-10-11T13:34:41Z</time></trkpt><trkpt lat="44.4336824119" lon="14.5572533179"><ele>0.14</ele><time>2011-10-11T13:34:54Z</time></trkpt><trkpt lat="44.4339900278" lon="14.5572221372"><ele>0.14</ele><time>2011-10-11T13:35:05Z</time></trkpt><trkpt lat="44.4343595020" lon="14.5571543276"><ele>-0.34</ele><time>2011-10-11T13:35:18Z</time></trkpt><trkpt lat="44.4347821176" lon="14.5570554212"><ele>-0.82</ele><time>2011-10-11T13:35:33Z</time></trkpt><trkpt lat="44.4351795875" lon="14.5569477975"><ele>-0.34</ele><time>2011-10-11T13:35:47Z</time></trkpt><trkpt lat="44.4356339704" lon="14.5568242483"><ele>0.14</ele><time>2011-10-11T13:36:03Z</time></trkpt><trkpt lat="44.4360917062" lon="14.5567134395"><ele>-0.34</ele><time>2011-10-11T13:36:19Z</time></trkpt><trkpt lat="44.4365533814" lon="14.5566243399"><ele>0.62</ele><time>2011-10-11T13:36:35Z</time></trkpt><trkpt lat="44.4370446447" lon="14.5564521756"><ele>0.14</ele><time>2011-10-11T13:36:53Z</time></trkpt><trkpt lat="44.4372228440" lon="14.5561746508"><ele>0.62</ele><time>2011-10-11T13:37:06Z</time></trkpt><trkpt lat="44.4371572975" lon="14.5559951104"><ele>0.62</ele><time>2011-10-11T13:37:16Z</time></trkpt><trkpt lat="44.4370438065" lon="14.5556116384"><ele>0.62</ele><time>2011-10-11T13:37:30Z</time></trkpt><trkpt lat="44.4369692914" lon="14.5551559143"><ele>0.62</ele><time>2011-10-11T13:37:47Z</time></trkpt><trkpt lat="44.4368060958" lon="14.5547065604"><ele>0.62</ele><time>2011-10-11T13:38:04Z</time></trkpt><trkpt lat="44.4366294052" lon="14.5542161353"><ele>1.10</ele><time>2011-10-11T13:38:19Z</time></trkpt><trkpt lat="44.4364155829" lon="14.5536982175"><ele>1.58</ele><time>2011-10-11T13:38:35Z</time></trkpt><trkpt lat="44.4361792132" lon="14.5531525556"><ele>1.10</ele><time>2011-10-11T13:38:52Z</time></trkpt><trkpt lat="44.4359772932" lon="14.5525529981"><ele>0.62</ele><time>2011-10-11T13:39:09Z</time></trkpt><trkpt lat="44.4357534964" lon="14.5518719684"><ele>1.58</ele><time>2011-10-11T13:39:28Z</time></trkpt><trkpt lat="44.4355374109" lon="14.5512902644"><ele>0.14</ele><time>2011-10-11T13:39:45Z</time></trkpt><trkpt lat="44.4353312999" lon="14.5507499669"><ele>0.62</ele><time>2011-10-11T13:40:01Z</time></trkpt><trkpt lat="44.4350941759" lon="14.5502286125"><ele>0.62</ele><time>2011-10-11T13:40:18Z</time></trkpt><trkpt lat="44.4348824490" lon="14.5497795101"><ele>1.10</ele><time>2011-10-11T13:40:33Z</time></trkpt><trkpt lat="44.4346498512" lon="14.5492303278"><ele>1.10</ele><time>2011-10-11T13:40:51Z</time></trkpt><trkpt lat="44.4344510324" lon="14.5488491189"><ele>1.10</ele><time>2011-10-11T13:41:05Z</time></trkpt><trkpt lat="44.4342194404" lon="14.5484318677"><ele>0.62</ele><time>2011-10-11T13:41:21Z</time></trkpt><trkpt lat="44.4339544885" lon="14.5479003713"><ele>1.10</ele><time>2011-10-11T13:41:40Z</time></trkpt><trkpt lat="44.4336996786" lon="14.5474335831"><ele>0.62</ele><time>2011-10-11T13:41:57Z</time></trkpt><trkpt lat="44.4334433600" lon="14.5469170902"><ele>0.62</ele><time>2011-10-11T13:42:15Z</time></trkpt><trkpt lat="44.4331748039" lon="14.5463894494"><ele>0.62</ele><time>2011-10-11T13:42:34Z</time></trkpt><trkpt lat="44.4329729676" lon="14.5460081566"><ele>0.62</ele><time>2011-10-11T13:42:48Z</time></trkpt><trkpt lat="44.4327254500" lon="14.5455008838"><ele>0.62</ele><time>2011-10-11T13:43:06Z</time></trkpt><trkpt lat="44.4324901700" lon="14.5450309943"><ele>0.62</ele><time>2011-10-11T13:43:23Z</time></trkpt><trkpt lat="44.4322517887" lon="14.5444854163"><ele>1.58</ele><time>2011-10-11T13:43:42Z</time></trkpt><trkpt lat="44.4320963044" lon="14.5440949872"><ele>1.58</ele><time>2011-10-11T13:43:55Z</time></trkpt><trkpt lat="44.4318952225" lon="14.5435444638"><ele>0.62</ele><time>2011-10-11T13:44:13Z</time></trkpt><trkpt lat="44.4317326136" lon="14.5430572238"><ele>1.10</ele><time>2011-10-11T13:44:29Z</time></trkpt><trkpt lat="44.4315441046" lon="14.5424932893"><ele>1.10</ele><time>2011-10-11T13:44:48Z</time></trkpt><trkpt lat="44.4313491415" lon="14.5420005172"><ele>1.58</ele><time>2011-10-11T13:45:06Z</time></trkpt><trkpt lat="44.4310485665" lon="14.5414519217"><ele>1.10</ele><time>2011-10-11T13:45:28Z</time></trkpt><trkpt lat="44.4308030605" lon="14.5410339162"><ele>0.62</ele><time>2011-10-11T13:45:45Z</time></trkpt><trkpt lat="44.4305746537" lon="14.5407032501"><ele>1.10</ele><time>2011-10-11T13:46:00Z</time></trkpt><trkpt lat="44.4302911777" lon="14.5403089654"><ele>1.10</ele><time>2011-10-11T13:46:17Z</time></trkpt><trkpt lat="44.4300905149" lon="14.5400704164"><ele>0.62</ele><time>2011-10-11T13:46:29Z</time></trkpt><trkpt lat="44.4297832344" lon="14.5395945758"><ele>1.58</ele><time>2011-10-11T13:46:48Z</time></trkpt><trkpt lat="44.4294904545" lon="14.5391632430"><ele>2.06</ele><time>2011-10-11T13:47:06Z</time></trkpt><trkpt lat="44.4291915558" lon="14.5386393741"><ele>1.58</ele><time>2011-10-11T13:47:26Z</time></trkpt><trkpt lat="44.4289301243" lon="14.5381688140"><ele>0.62</ele><time>2011-10-11T13:47:45Z</time></trkpt><trkpt lat="44.4287243485" lon="14.5378651377"><ele>0.62</ele><time>2011-10-11T13:48:00Z</time></trkpt><trkpt lat="44.4284934271" lon="14.5375184622"><ele>1.58</ele><time>2011-10-11T13:48:16Z</time></trkpt><trkpt lat="44.4282336719" lon="14.5370842796"><ele>1.58</ele><time>2011-10-11T13:48:34Z</time></trkpt><trkpt lat="44.4279966317" lon="14.5366300642"><ele>2.06</ele><time>2011-10-11T13:48:52Z</time></trkpt><trkpt lat="44.4278212823" lon="14.5362838078"><ele>2.06</ele><time>2011-10-11T13:49:07Z</time></trkpt><trkpt lat="44.4276297558" lon="14.5358856674"><ele>1.58</ele><time>2011-10-11T13:49:24Z</time></trkpt><trkpt lat="44.4274445996" lon="14.5355232339"><ele>2.54</ele><time>2011-10-11T13:49:40Z</time></trkpt><trkpt lat="44.4272270054" lon="14.5351637341"><ele>3.98</ele><time>2011-10-11T13:49:57Z</time></trkpt><trkpt lat="44.4270001911" lon="14.5347619057"><ele>3.50</ele><time>2011-10-11T13:50:14Z</time></trkpt><trkpt lat="44.4267652463" lon="14.5343614183"><ele>3.98</ele><time>2011-10-11T13:50:31Z</time></trkpt><trkpt lat="44.4264744781" lon="14.5339724142"><ele>2.54</ele><time>2011-10-11T13:50:50Z</time></trkpt><trkpt lat="44.4262584765" lon="14.5336659718"><ele>2.54</ele><time>2011-10-11T13:51:03Z</time></trkpt><trkpt lat="44.4259419758" lon="14.5332581084"><ele>2.54</ele><time>2011-10-11T13:51:21Z</time></trkpt><trkpt lat="44.4256691448" lon="14.5328939147"><ele>2.06</ele><time>2011-10-11T13:51:36Z</time></trkpt><trkpt lat="44.4254092220" lon="14.5325339958"><ele>1.10</ele><time>2011-10-11T13:51:51Z</time></trkpt><trkpt lat="44.4252537377" lon="14.5321610011"><ele>0.14</ele><time>2011-10-11T13:52:07Z</time></trkpt><trkpt lat="44.4252732676" lon="14.5321362745"><ele>0.62</ele><time>2011-10-11T13:52:09Z</time></trkpt><trkpt lat="44.4252977427" lon="14.5321266353"><ele>0.62</ele><time>2011-10-11T13:52:11Z</time></trkpt><trkpt lat="44.4255722500" lon="14.5322138071"><ele>0.62</ele><time>2011-10-11T13:52:29Z</time></trkpt><trkpt lat="44.4258714840" lon="14.5323059242"><ele>0.62</ele><time>2011-10-11T13:52:44Z</time></trkpt><trkpt lat="44.4262085203" lon="14.5323738176"><ele>1.10</ele><time>2011-10-11T13:53:00Z</time></trkpt><trkpt lat="44.4265389349" lon="14.5324323233"><ele>0.62</ele><time>2011-10-11T13:53:16Z</time></trkpt><trkpt lat="44.4268526696" lon="14.5324909128"><ele>1.10</ele><time>2011-10-11T13:53:31Z</time></trkpt><trkpt lat="44.4272001833" lon="14.5325642545"><ele>1.58</ele><time>2011-10-11T13:53:46Z</time></trkpt><trkpt lat="44.4276132435" lon="14.5326204970"><ele>0.62</ele><time>2011-10-11T13:54:04Z</time></trkpt><trkpt lat="44.4279973861" lon="14.5327308867"><ele>-0.34</ele><time>2011-10-11T13:54:22Z</time></trkpt><trkpt lat="44.4283689559" lon="14.5328187291"><ele>-0.82</ele><time>2011-10-11T13:54:39Z</time></trkpt><trkpt lat="44.4287341554" lon="14.5328119397"><ele>-1.79</ele><time>2011-10-11T13:54:56Z</time></trkpt><trkpt lat="44.4290411007" lon="14.5328608900"><ele>-1.79</ele><time>2011-10-11T13:55:10Z</time></trkpt><trkpt lat="44.4292908814" lon="14.5329069905"><ele>-1.79</ele><time>2011-10-11T13:55:21Z</time></trkpt><trkpt lat="44.4295797218" lon="14.5329941623"><ele>-2.27</ele><time>2011-10-11T13:55:34Z</time></trkpt><trkpt lat="44.4299065322" lon="14.5331718586"><ele>-1.79</ele><time>2011-10-11T13:55:50Z</time></trkpt><trkpt lat="44.4301357772" lon="14.5333772153"><ele>-1.30</ele><time>2011-10-11T13:56:04Z</time></trkpt><trkpt lat="44.4303821214" lon="14.5335798897"><ele>-0.82</ele><time>2011-10-11T13:56:21Z</time></trkpt><trkpt lat="44.4305500109" lon="14.5336351264"><ele>0.14</ele><time>2011-10-11T13:56:32Z</time></trkpt><trkpt lat="44.4309043977" lon="14.5336503815"><ele>0.14</ele><time>2011-10-11T13:56:52Z</time></trkpt><trkpt lat="44.4312322978" lon="14.5336311869"><ele>-0.82</ele><time>2011-10-11T13:57:09Z</time></trkpt><trkpt lat="44.4315920491" lon="14.5336369704"><ele>-1.79</ele><time>2011-10-11T13:57:28Z</time></trkpt><trkpt lat="44.4319241401" lon="14.5336383954"><ele>-1.30</ele><time>2011-10-11T13:57:44Z</time></trkpt><trkpt lat="44.4322534651" lon="14.5336804725"><ele>-1.79</ele><time>2011-10-11T13:57:59Z</time></trkpt><trkpt lat="44.4325304870" lon="14.5337554067"><ele>-2.27</ele><time>2011-10-11T13:58:12Z</time></trkpt><trkpt lat="44.4328399468" lon="14.5339087956"><ele>-2.27</ele><time>2011-10-11T13:58:27Z</time></trkpt><trkpt lat="44.4331655838" lon="14.5341226179"><ele>-0.82</ele><time>2011-10-11T13:58:44Z</time></trkpt><trkpt lat="44.4334229082" lon="14.5343261305"><ele>-0.82</ele><time>2011-10-11T13:59:00Z</time></trkpt><trkpt lat="44.4336461183" lon="14.5344776753"><ele>-1.30</ele><time>2011-10-11T13:59:15Z</time></trkpt><trkpt lat="44.4339557458" lon="14.5345654339"><ele>-2.27</ele><time>2011-10-11T13:59:33Z</time></trkpt><trkpt lat="44.4342550635" lon="14.5345976204"><ele>-1.79</ele><time>2011-10-11T13:59:48Z</time></trkpt><trkpt lat="44.4346205145" lon="14.5346639212"><ele>-1.30</ele><time>2011-10-11T14:00:05Z</time></trkpt><trkpt lat="44.4350869674" lon="14.5346790925"><ele>-1.30</ele><time>2011-10-11T14:00:24Z</time></trkpt><trkpt lat="44.4355291966" lon="14.5347415376"><ele>-0.82</ele><time>2011-10-11T14:00:41Z</time></trkpt><trkpt lat="44.4359307736" lon="14.5348209143"><ele>-0.34</ele><time>2011-10-11T14:00:57Z</time></trkpt><trkpt lat="44.4362503756" lon="14.5349082537"><ele>0.14</ele><time>2011-10-11T14:01:10Z</time></trkpt><trkpt lat="44.4366551377" lon="14.5349447150"><ele>0.62</ele><time>2011-10-11T14:01:25Z</time></trkpt><trkpt lat="44.4371232670" lon="14.5349121932"><ele>0.62</ele><time>2011-10-11T14:01:42Z</time></trkpt><trkpt lat="44.4375494868" lon="14.5348748937"><ele>0.14</ele><time>2011-10-11T14:01:57Z</time></trkpt><trkpt lat="44.4379709288" lon="14.5348927472"><ele>0.62</ele><time>2011-10-11T14:02:12Z</time></trkpt><trkpt lat="44.4383499585" lon="14.5349344052"><ele>0.14</ele><time>2011-10-11T14:02:25Z</time></trkpt><trkpt lat="44.4388723187" lon="14.5349917375"><ele>0.14</ele><time>2011-10-11T14:02:43Z</time></trkpt><trkpt lat="44.4393351674" lon="14.5350872912"><ele>0.14</ele><time>2011-10-11T14:02:59Z</time></trkpt><trkpt lat="44.4398027100" lon="14.5351562742"><ele>-0.82</ele><time>2011-10-11T14:03:15Z</time></trkpt><trkpt lat="44.4402457774" lon="14.5352634788"><ele>-0.34</ele><time>2011-10-11T14:03:30Z</time></trkpt><trkpt lat="44.4405626971" lon="14.5354237407"><ele>0.14</ele><time>2011-10-11T14:03:42Z</time></trkpt><trkpt lat="44.4409419782" lon="14.5354726072"><ele>0.14</ele><time>2011-10-11T14:03:57Z</time></trkpt><trkpt lat="44.4411326665" lon="14.5351877064"><ele>-0.82</ele><time>2011-10-11T14:04:14Z</time></trkpt><trkpt lat="44.4413040765" lon="14.5351382531"><ele>-1.30</ele><time>2011-10-11T14:04:28Z</time></trkpt><trkpt lat="44.4414937589" lon="14.5351024624"><ele>-1.79</ele><time>2011-10-11T14:04:42Z</time></trkpt><trkpt lat="44.4416465610" lon="14.5348427910"><ele>-3.23</ele><time>2011-10-11T14:05:02Z</time></trkpt><trkpt lat="44.4418114331" lon="14.5344255399"><ele>-2.27</ele><time>2011-10-11T14:05:20Z</time></trkpt><trkpt lat="44.4422056340" lon="14.5341304131"><ele>-3.23</ele><time>2011-10-11T14:05:38Z</time></trkpt><trkpt lat="44.4426163472" lon="14.5339056943"><ele>-2.27</ele><time>2011-10-11T14:05:53Z</time></trkpt><trkpt lat="44.4430555589" lon="14.5336077176"><ele>-2.75</ele><time>2011-10-11T14:06:09Z</time></trkpt><trkpt lat="44.4434587285" lon="14.5331761334"><ele>-3.23</ele><time>2011-10-11T14:06:26Z</time></trkpt><trkpt lat="44.4438307174" lon="14.5327119436"><ele>-3.71</ele><time>2011-10-11T14:06:43Z</time></trkpt><trkpt lat="44.4442738686" lon="14.5320869051"><ele>-3.71</ele><time>2011-10-11T14:07:05Z</time></trkpt><trkpt lat="44.4446930476" lon="14.5314202923"><ele>-2.27</ele><time>2011-10-11T14:07:25Z</time></trkpt><trkpt lat="44.4450265635" lon="14.5308966748"><ele>-3.23</ele><time>2011-10-11T14:07:41Z</time></trkpt><trkpt lat="44.4453998096" lon="14.5303224307"><ele>-2.75</ele><time>2011-10-11T14:07:59Z</time></trkpt><trkpt lat="44.4457335770" lon="14.5298351068"><ele>-2.75</ele><time>2011-10-11T14:08:15Z</time></trkpt><trkpt lat="44.4460100960" lon="14.5294099767"><ele>-2.75</ele><time>2011-10-11T14:08:29Z</time></trkpt><trkpt lat="44.4463991839" lon="14.5287912246"><ele>-2.27</ele><time>2011-10-11T14:08:49Z</time></trkpt><trkpt lat="44.4467367232" lon="14.5282345824"><ele>-2.27</ele><time>2011-10-11T14:09:07Z</time></trkpt><trkpt lat="44.4471526332" lon="14.5275595039"><ele>-1.79</ele><time>2011-10-11T14:09:28Z</time></trkpt><trkpt lat="44.4475750811" lon="14.5268762950"><ele>-1.30</ele><time>2011-10-11T14:09:49Z</time></trkpt><trkpt lat="44.4480109401" lon="14.5262126997"><ele>-0.82</ele><time>2011-10-11T14:10:10Z</time></trkpt><trkpt lat="44.4484152831" lon="14.5256029163"><ele>-1.30</ele><time>2011-10-11T14:10:29Z</time></trkpt><trkpt lat="44.4488383178" lon="14.5250094775"><ele>-0.82</ele><time>2011-10-11T14:10:48Z</time></trkpt><trkpt lat="44.4492770266" lon="14.5243288670"><ele>-1.30</ele><time>2011-10-11T14:11:09Z</time></trkpt><trkpt lat="44.4497180823" lon="14.5237132162"><ele>-0.82</ele><time>2011-10-11T14:11:29Z</time></trkpt><trkpt lat="44.4502645824" lon="14.5229373872"><ele>-1.30</ele><time>2011-10-11T14:11:54Z</time></trkpt><trkpt lat="44.4506285246" lon="14.5224061422"><ele>-1.79</ele><time>2011-10-11T14:12:11Z</time></trkpt><trkpt lat="44.4509609509" lon="14.5219520107"><ele>-2.27</ele><time>2011-10-11T14:12:26Z</time></trkpt><trkpt lat="44.4514105562" lon="14.5213407185"><ele>-1.79</ele><time>2011-10-11T14:12:46Z</time></trkpt><trkpt lat="44.4518328365" lon="14.5207586791"><ele>-0.82</ele><time>2011-10-11T14:13:05Z</time></trkpt><trkpt lat="44.4522690307" lon="14.5201418549"><ele>-0.34</ele><time>2011-10-11T14:13:25Z</time></trkpt><trkpt lat="44.4526492339" lon="14.5195709635"><ele>0.14</ele><time>2011-10-11T14:13:43Z</time></trkpt><trkpt lat="44.4530604500" lon="14.5189949591"><ele>-1.30</ele><time>2011-10-11T14:14:02Z</time></trkpt><trkpt lat="44.4534954708" lon="14.5183789730"><ele>-1.30</ele><time>2011-10-11T14:14:22Z</time></trkpt><trkpt lat="44.4539188407" lon="14.5177893061"><ele>-1.30</ele><time>2011-10-11T14:14:41Z</time></trkpt><trkpt lat="44.4543737266" lon="14.5171038341"><ele>-0.34</ele><time>2011-10-11T14:15:02Z</time></trkpt><trkpt lat="44.4547978509" lon="14.5165328588"><ele>-0.82</ele><time>2011-10-11T14:15:21Z</time></trkpt><trkpt lat="44.4551518187" lon="14.5160425175"><ele>-0.82</ele><time>2011-10-11T14:15:37Z</time></trkpt><trkpt lat="44.4555361290" lon="14.5155252703"><ele>-0.34</ele><time>2011-10-11T14:15:54Z</time></trkpt><trkpt lat="44.4559865724" lon="14.5149124693"><ele>-0.82</ele><time>2011-10-11T14:16:14Z</time></trkpt><trkpt lat="44.4564862177" lon="14.5142292604"><ele>-0.34</ele><time>2011-10-11T14:16:36Z</time></trkpt><trkpt lat="44.4569697697" lon="14.5135512482"><ele>-0.82</ele><time>2011-10-11T14:16:58Z</time></trkpt><trkpt lat="44.4574187044" lon="14.5129529480"><ele>-0.82</ele><time>2011-10-11T14:17:18Z</time></trkpt><trkpt lat="44.4578664657" lon="14.5123415720"><ele>-1.30</ele><time>2011-10-11T14:17:38Z</time></trkpt><trkpt lat="44.4583165739" lon="14.5117270108"><ele>-1.30</ele><time>2011-10-11T14:17:58Z</time></trkpt><trkpt lat="44.4587733876" lon="14.5111284591"><ele>-1.30</ele><time>2011-10-11T14:18:18Z</time></trkpt><trkpt lat="44.4591149502" lon="14.5106708072"><ele>-1.79</ele><time>2011-10-11T14:18:33Z</time></trkpt><trkpt lat="44.4595829956" lon="14.5100874268"><ele>-2.27</ele><time>2011-10-11T14:18:53Z</time></trkpt><trkpt lat="44.4599808846" lon="14.5096156932"><ele>-1.30</ele><time>2011-10-11T14:19:09Z</time></trkpt><trkpt lat="44.4606156461" lon="14.5088458993"><ele>2.06</ele><time>2011-10-11T14:19:35Z</time></trkpt><trkpt lat="44.4610748906" lon="14.5083110500"><ele>1.10</ele><time>2011-10-11T14:19:54Z</time></trkpt><trkpt lat="44.4614127651" lon="14.5078882668"><ele>-0.34</ele><time>2011-10-11T14:20:08Z</time></trkpt><trkpt lat="44.4617565908" lon="14.5074198861"><ele>-0.34</ele><time>2011-10-11T14:20:23Z</time></trkpt><trkpt lat="44.4622176792" lon="14.5068733022"><ele>-1.30</ele><time>2011-10-11T14:20:42Z</time></trkpt><trkpt lat="44.4626537897" lon="14.5063446555"><ele>-0.34</ele><time>2011-10-11T14:21:00Z</time></trkpt><trkpt lat="44.4630823564" lon="14.5058044419"><ele>-0.34</ele><time>2011-10-11T14:21:18Z</time></trkpt><trkpt lat="44.4636185467" lon="14.5051610470"><ele>0.14</ele><time>2011-10-11T14:21:40Z</time></trkpt><trkpt lat="44.4641932100" lon="14.5045049954"><ele>1.10</ele><time>2011-10-11T14:22:03Z</time></trkpt><trkpt lat="44.4647346810" lon="14.5038652886"><ele>1.58</ele><time>2011-10-11T14:22:25Z</time></trkpt><trkpt lat="44.4652201608" lon="14.5032741129"><ele>1.58</ele><time>2011-10-11T14:22:45Z</time></trkpt><trkpt lat="44.4656898826" lon="14.5026939176"><ele>0.62</ele><time>2011-10-11T14:23:04Z</time></trkpt><trkpt lat="44.4661821518" lon="14.5020885766"><ele>0.14</ele><time>2011-10-11T14:23:24Z</time></trkpt><trkpt lat="44.4666484371" lon="14.5015233848"><ele>0.62</ele><time>2011-10-11T14:23:43Z</time></trkpt><trkpt lat="44.4671230204" lon="14.5009628870"><ele>0.62</ele><time>2011-10-11T14:24:02Z</time></trkpt><trkpt lat="44.4676491525" lon="14.5003233477"><ele>1.10</ele><time>2011-10-11T14:24:23Z</time></trkpt><trkpt lat="44.4681226462" lon="14.4997362792"><ele>0.14</ele><time>2011-10-11T14:24:42Z</time></trkpt><trkpt lat="44.4685808849" lon="14.4991872646"><ele>-0.34</ele><time>2011-10-11T14:25:00Z</time></trkpt><trkpt lat="44.4690412190" lon="14.4986049738"><ele>-1.30</ele><time>2011-10-11T14:25:19Z</time></trkpt><trkpt lat="44.4694249425" lon="14.4981512614"><ele>-0.82</ele><time>2011-10-11T14:25:34Z</time></trkpt><trkpt lat="44.4698442053" lon="14.4976212736"><ele>-0.34</ele><time>2011-10-11T14:25:51Z</time></trkpt><trkpt lat="44.4704089779" lon="14.4968968257"><ele>-1.30</ele><time>2011-10-11T14:26:14Z</time></trkpt><trkpt lat="44.4709113054" lon="14.4962666743"><ele>-1.79</ele><time>2011-10-11T14:26:34Z</time></trkpt><trkpt lat="44.4713747408" lon="14.4956619199"><ele>-2.27</ele><time>2011-10-11T14:26:53Z</time></trkpt><trkpt lat="44.4718080852" lon="14.4950935431"><ele>-1.79</ele><time>2011-10-11T14:27:11Z</time></trkpt><trkpt lat="44.4723479636" lon="14.4944985118"><ele>-1.79</ele><time>2011-10-11T14:27:32Z</time></trkpt><trkpt lat="44.4728781190" lon="14.4939426240"><ele>-2.27</ele><time>2011-10-11T14:27:52Z</time></trkpt><trkpt lat="44.4734192546" lon="14.4933920167"><ele>-0.82</ele><time>2011-10-11T14:28:12Z</time></trkpt><trkpt lat="44.4739202410" lon="14.4928604364"><ele>0.14</ele><time>2011-10-11T14:28:31Z</time></trkpt><trkpt lat="44.4743328821" lon="14.4924243260"><ele>-0.82</ele><time>2011-10-11T14:28:47Z</time></trkpt><trkpt lat="44.4748285040" lon="14.4919038098"><ele>-0.82</ele><time>2011-10-11T14:29:06Z</time></trkpt><trkpt lat="44.4752892572" lon="14.4914051704"><ele>-1.79</ele><time>2011-10-11T14:29:24Z</time></trkpt><trkpt lat="44.4757808559" lon="14.4908747636"><ele>-1.30</ele><time>2011-10-11T14:29:43Z</time></trkpt><trkpt lat="44.4763251767" lon="14.4902988430"><ele>-0.82</ele><time>2011-10-11T14:30:04Z</time></trkpt><trkpt lat="44.4767880253" lon="14.4898088370"><ele>-1.30</ele><time>2011-10-11T14:30:22Z</time></trkpt><trkpt lat="44.4772378821" lon="14.4893592317"><ele>-1.79</ele><time>2011-10-11T14:30:39Z</time></trkpt><trkpt lat="44.4777498487" lon="14.4888020027"><ele>-1.30</ele><time>2011-10-11T14:30:59Z</time></trkpt><trkpt lat="44.4781780802" lon="14.4883373939"><ele>-1.79</ele><time>2011-10-11T14:31:16Z</time></trkpt><trkpt lat="44.4786093291" lon="14.4878674205"><ele>-2.27</ele><time>2011-10-11T14:31:33Z</time></trkpt><trkpt lat="44.4791781250" lon="14.4872770831"><ele>-2.75</ele><time>2011-10-11T14:31:55Z</time></trkpt><trkpt lat="44.4797301572" lon="14.4866693113"><ele>-2.75</ele><time>2011-10-11T14:32:17Z</time></trkpt><trkpt lat="44.4802927505" lon="14.4860565942"><ele>-2.75</ele><time>2011-10-11T14:32:39Z</time></trkpt><trkpt lat="44.4808165357" lon="14.4855190627"><ele>-2.27</ele><time>2011-10-11T14:32:59Z</time></trkpt><trkpt lat="44.4812264945" lon="14.4850801025"><ele>-1.79</ele><time>2011-10-11T14:33:15Z</time></trkpt><trkpt lat="44.4817008264" lon="14.4845527969"><ele>-2.27</ele><time>2011-10-11T14:33:34Z</time></trkpt><trkpt lat="44.4821369369" lon="14.4840933010"><ele>-2.27</ele><time>2011-10-11T14:33:51Z</time></trkpt><trkpt lat="44.4825660903" lon="14.4836167060"><ele>-2.75</ele><time>2011-10-11T14:34:08Z</time></trkpt><trkpt lat="44.4830731954" lon="14.4830634166"><ele>-3.23</ele><time>2011-10-11T14:34:28Z</time></trkpt><trkpt lat="44.4835397322" lon="14.4825733267"><ele>-3.23</ele><time>2011-10-11T14:34:46Z</time></trkpt><trkpt lat="44.4839948695" lon="14.4820690714"><ele>-3.23</ele><time>2011-10-11T14:35:04Z</time></trkpt><trkpt lat="44.4844797626" lon="14.4815360662"><ele>-3.23</ele><time>2011-10-11T14:35:23Z</time></trkpt><trkpt lat="44.4849437010" lon="14.4810505025"><ele>-3.71</ele><time>2011-10-11T14:35:41Z</time></trkpt><trkpt lat="44.4853814878" lon="14.4805944432"><ele>-3.23</ele><time>2011-10-11T14:35:58Z</time></trkpt><trkpt lat="44.4858419895" lon="14.4800930377"><ele>-3.23</ele><time>2011-10-11T14:36:16Z</time></trkpt><trkpt lat="44.4863472506" lon="14.4795304444"><ele>-3.23</ele><time>2011-10-11T14:36:36Z</time></trkpt><trkpt lat="44.4869094249" lon="14.4789221697"><ele>-3.71</ele><time>2011-10-11T14:36:58Z</time></trkpt><trkpt lat="44.4874629658" lon="14.4783618394"><ele>-4.19</ele><time>2011-10-11T14:37:19Z</time></trkpt><trkpt lat="44.4879492838" lon="14.4778362103"><ele>-4.19</ele><time>2011-10-11T14:37:38Z</time></trkpt><trkpt lat="44.4884962868" lon="14.4772677496"><ele>-4.19</ele><time>2011-10-11T14:37:59Z</time></trkpt><trkpt lat="44.4890472293" lon="14.4766949303"><ele>-3.23</ele><time>2011-10-11T14:38:20Z</time></trkpt><trkpt lat="44.4895814080" lon="14.4761145674"><ele>-4.19</ele><time>2011-10-11T14:38:41Z</time></trkpt><trkpt lat="44.4900871720" lon="14.4756218791"><ele>-4.19</ele><time>2011-10-11T14:39:00Z</time></trkpt><trkpt lat="44.4905291498" lon="14.4751713518"><ele>-3.71</ele><time>2011-10-11T14:39:17Z</time></trkpt><trkpt lat="44.4910109416" lon="14.4746530149"><ele>-4.19</ele><time>2011-10-11T14:39:36Z</time></trkpt><trkpt lat="44.4915284403" lon="14.4741032459"><ele>-4.19</ele><time>2011-10-11T14:39:56Z</time></trkpt><trkpt lat="44.4920071308" lon="14.4736397266"><ele>-4.19</ele><time>2011-10-11T14:40:14Z</time></trkpt><trkpt lat="44.4925191812" lon="14.4730960764"><ele>-4.19</ele><time>2011-10-11T14:40:34Z</time></trkpt><trkpt lat="44.4930392783" lon="14.4725739677"><ele>-5.15</ele><time>2011-10-11T14:40:54Z</time></trkpt><trkpt lat="44.4934980199" lon="14.4720800221"><ele>-5.63</ele><time>2011-10-11T14:41:12Z</time></trkpt><trkpt lat="44.4940519799" lon="14.4715279061"><ele>-4.67</ele><time>2011-10-11T14:41:33Z</time></trkpt><trkpt lat="44.4945160020" lon="14.4710368104"><ele>-5.63</ele><time>2011-10-11T14:41:51Z</time></trkpt><trkpt lat="44.4949113764" lon="14.4706216548"><ele>-4.19</ele><time>2011-10-11T14:42:06Z</time></trkpt><trkpt lat="44.4954684377" lon="14.4700578880"><ele>-3.23</ele><time>2011-10-11T14:42:27Z</time></trkpt><trkpt lat="44.4959319569" lon="14.4695691392"><ele>-4.19</ele><time>2011-10-11T14:42:45Z</time></trkpt><trkpt lat="44.4965113141" lon="14.4689948112"><ele>-4.67</ele><time>2011-10-11T14:43:07Z</time></trkpt><trkpt lat="44.4970376138" lon="14.4684449583"><ele>-4.19</ele><time>2011-10-11T14:43:27Z</time></trkpt><trkpt lat="44.4974796753" lon="14.4679907430"><ele>-5.15</ele><time>2011-10-11T14:43:44Z</time></trkpt><trkpt lat="44.4980468787" lon="14.4673735835"><ele>-4.67</ele><time>2011-10-11T14:44:06Z</time></trkpt><trkpt lat="44.4985548221" lon="14.4668699987"><ele>-4.19</ele><time>2011-10-11T14:44:25Z</time></trkpt><trkpt lat="44.4991134759" lon="14.4663179666"><ele>-4.19</ele><time>2011-10-11T14:44:46Z</time></trkpt><trkpt lat="44.4995181542" lon="14.4658693671"><ele>-2.75</ele><time>2011-10-11T14:45:02Z</time></trkpt><trkpt lat="44.4999903906" lon="14.4653871562"><ele>-3.23</ele><time>2011-10-11T14:45:20Z</time></trkpt><trkpt lat="44.5004726853" lon="14.4649133272"><ele>-2.75</ele><time>2011-10-11T14:45:38Z</time></trkpt><trkpt lat="44.5008910261" lon="14.4644738641"><ele>-3.23</ele><time>2011-10-11T14:45:54Z</time></trkpt><trkpt lat="44.5013128035" lon="14.4640504941"><ele>-3.71</ele><time>2011-10-11T14:46:10Z</time></trkpt><trkpt lat="44.5018667635" lon="14.4634759985"><ele>-2.75</ele><time>2011-10-11T14:46:31Z</time></trkpt><trkpt lat="44.5023424365" lon="14.4629999902"><ele>-2.27</ele><time>2011-10-11T14:46:49Z</time></trkpt><trkpt lat="44.5028269105" lon="14.4625301845"><ele>-2.75</ele><time>2011-10-11T14:47:07Z</time></trkpt><trkpt lat="44.5033257175" lon="14.4619991910"><ele>-2.75</ele><time>2011-10-11T14:47:26Z</time></trkpt><trkpt lat="44.5038284641" lon="14.4614919182"><ele>-2.27</ele><time>2011-10-11T14:47:45Z</time></trkpt><trkpt lat="44.5043529198" lon="14.4609452505"><ele>-2.75</ele><time>2011-10-11T14:48:05Z</time></trkpt><trkpt lat="44.5049286727" lon="14.4603912905"><ele>-1.30</ele><time>2011-10-11T14:48:26Z</time></trkpt><trkpt lat="44.5378328394" lon="14.4297229126"><ele>-3.23</ele><time>2011-10-11T15:08:04Z</time></trkpt><trkpt lat="44.5378563926" lon="14.4296913967"><ele>-4.19</ele><time>2011-10-11T15:08:06Z</time></trkpt><trkpt lat="44.5383959357" lon="14.4292658474"><ele>-3.23</ele><time>2011-10-11T15:08:25Z</time></trkpt><trkpt lat="44.5389509015" lon="14.4288015738"><ele>-4.19</ele><time>2011-10-11T15:08:44Z</time></trkpt><trkpt lat="44.5396156702" lon="14.4282248989"><ele>-3.23</ele><time>2011-10-11T15:09:07Z</time></trkpt><trkpt lat="44.5402888209" lon="14.4276487269"><ele>-3.23</ele><time>2011-10-11T15:09:30Z</time></trkpt><trkpt lat="44.5408706926" lon="14.4271638338"><ele>-4.67</ele><time>2011-10-11T15:09:50Z</time></trkpt><trkpt lat="44.5414638799" lon="14.4265166670"><ele>-3.71</ele><time>2011-10-11T15:10:12Z</time></trkpt><trkpt lat="44.5420265570" lon="14.4258966576"><ele>-3.71</ele><time>2011-10-11T15:10:33Z</time></trkpt><trkpt lat="44.5424777549" lon="14.4253961742"><ele>-4.19</ele><time>2011-10-11T15:10:50Z</time></trkpt><trkpt lat="44.5429409388" lon="14.4248900749"><ele>-4.19</ele><time>2011-10-11T15:11:07Z</time></trkpt><trkpt lat="44.5434954856" lon="14.4243084546"><ele>-3.71</ele><time>2011-10-11T15:11:27Z</time></trkpt><trkpt lat="44.5440206118" lon="14.4237919617"><ele>-4.19</ele><time>2011-10-11T15:11:46Z</time></trkpt><trkpt lat="44.5445908327" lon="14.4232483115"><ele>-4.19</ele><time>2011-10-11T15:12:06Z</time></trkpt><trkpt lat="44.5452422742" lon="14.4226131309"><ele>-4.67</ele><time>2011-10-11T15:12:29Z</time></trkpt><trkpt lat="44.5457335375" lon="14.4221790321"><ele>-4.67</ele><time>2011-10-11T15:12:46Z</time></trkpt><trkpt lat="44.5462962985" lon="14.4216439314"><ele>-5.15</ele><time>2011-10-11T15:13:06Z</time></trkpt><trkpt lat="44.5468922518" lon="14.4210807513"><ele>-4.19</ele><time>2011-10-11T15:13:27Z</time></trkpt><trkpt lat="44.5473929029" lon="14.4206885621"><ele>-3.71</ele><time>2011-10-11T15:13:44Z</time></trkpt><trkpt lat="44.5480036084" lon="14.4203569740"><ele>-3.71</ele><time>2011-10-11T15:14:03Z</time></trkpt><trkpt lat="44.5487280563" lon="14.4200326782"><ele>-3.23</ele><time>2011-10-11T15:14:25Z</time></trkpt><trkpt lat="44.5493726246" lon="14.4198590890"><ele>-2.75</ele><time>2011-10-11T15:14:44Z</time></trkpt><trkpt lat="44.5500597730" lon="14.4198764395"><ele>-3.23</ele><time>2011-10-11T15:15:04Z</time></trkpt><trkpt lat="44.5506651141" lon="14.4201049302"><ele>-3.23</ele><time>2011-10-11T15:15:22Z</time></trkpt><trkpt lat="44.5513011329" lon="14.4205856323"><ele>-3.71</ele><time>2011-10-11T15:15:43Z</time></trkpt><trkpt lat="44.5518718567" lon="14.4211157039"><ele>-2.75</ele><time>2011-10-11T15:16:03Z</time></trkpt><trkpt lat="44.5525347814" lon="14.4218279142"><ele>-2.27</ele><time>2011-10-11T15:16:27Z</time></trkpt><trkpt lat="44.5531366859" lon="14.4225740712"><ele>-1.79</ele><time>2011-10-11T15:16:50Z</time></trkpt><trkpt lat="44.5537425298" lon="14.4233816676"><ele>-2.27</ele><time>2011-10-11T15:17:14Z</time></trkpt><trkpt lat="44.5543171093" lon="14.4241048582"><ele>-1.30</ele><time>2011-10-11T15:17:36Z</time></trkpt><trkpt lat="44.5549094584" lon="14.4248373527"><ele>-1.30</ele><time>2011-10-11T15:17:59Z</time></trkpt><trkpt lat="44.5554914139" lon="14.4255997706"><ele>-1.79</ele><time>2011-10-11T15:18:22Z</time></trkpt><trkpt lat="44.5561702643" lon="14.4264361169"><ele>-1.79</ele><time>2011-10-11T15:18:48Z</time></trkpt><trkpt lat="44.5568328537" lon="14.4273617305"><ele>-0.82</ele><time>2011-10-11T15:19:15Z</time></trkpt><trkpt lat="44.5576181542" lon="14.4284726679"><ele>-1.30</ele><time>2011-10-11T15:19:47Z</time></trkpt><trkpt lat="44.5580481458" lon="14.4292928372"><ele>-1.79</ele><time>2011-10-11T15:20:08Z</time></trkpt><trkpt lat="44.5583115052" lon="14.4303441793"><ele>-2.27</ele><time>2011-10-11T15:20:31Z</time></trkpt><trkpt lat="44.5581280254" lon="14.4312128797"><ele>-1.79</ele><time>2011-10-11T15:20:50Z</time></trkpt><trkpt lat="44.5577588025" lon="14.4319134392"><ele>-3.23</ele><time>2011-10-11T15:21:12Z</time></trkpt><trkpt lat="44.5572922658" lon="14.4325998332"><ele>-5.15</ele><time>2011-10-11T15:21:36Z</time></trkpt><trkpt lat="44.5567151718" lon="14.4334617443"><ele>-6.59</ele><time>2011-10-11T15:22:06Z</time></trkpt><trkpt lat="44.5561197214" lon="14.4343190454"><ele>-5.63</ele><time>2011-10-11T15:22:36Z</time></trkpt><trkpt lat="44.5555523504" lon="14.4352046773"><ele>-5.15</ele><time>2011-10-11T15:23:06Z</time></trkpt><trkpt lat="44.5550079457" lon="14.4359929953"><ele>-5.15</ele><time>2011-10-11T15:23:34Z</time></trkpt><trkpt lat="44.5544114895" lon="14.4368606899"><ele>-6.11</ele><time>2011-10-11T15:24:05Z</time></trkpt><trkpt lat="44.5538451243" lon="14.4376845472"><ele>-6.11</ele><time>2011-10-11T15:24:34Z</time></trkpt><trkpt lat="44.5533280447" lon="14.4383856934"><ele>-6.59</ele><time>2011-10-11T15:25:00Z</time></trkpt><trkpt lat="44.5528386254" lon="14.4390051998"><ele>-6.11</ele><time>2011-10-11T15:25:24Z</time></trkpt><trkpt lat="44.5522655547" lon="14.4397687074"><ele>-5.63</ele><time>2011-10-11T15:25:54Z</time></trkpt><trkpt lat="44.5518596191" lon="14.4403380901"><ele>-5.63</ele><time>2011-10-11T15:26:16Z</time></trkpt><trkpt lat="44.5514121931" lon="14.4409186207"><ele>-4.67</ele><time>2011-10-11T15:26:39Z</time></trkpt><trkpt lat="44.5508396253" lon="14.4416438229"><ele>-3.71</ele><time>2011-10-11T15:27:08Z</time></trkpt><trkpt lat="44.5503124874" lon="14.4424168020"><ele>-3.71</ele><time>2011-10-11T15:27:37Z</time></trkpt><trkpt lat="44.5498420112" lon="14.4431242347"><ele>-2.75</ele><time>2011-10-11T15:28:03Z</time></trkpt><trkpt lat="44.5493539330" lon="14.4437912665"><ele>-4.19</ele><time>2011-10-11T15:28:29Z</time></trkpt><trkpt lat="44.5488296449" lon="14.4445059076"><ele>-4.67</ele><time>2011-10-11T15:28:57Z</time></trkpt><trkpt lat="44.5484087057" lon="14.4450558443"><ele>-4.19</ele><time>2011-10-11T15:29:19Z</time></trkpt><trkpt lat="44.5479057916" lon="14.4457938708"><ele>-5.15</ele><time>2011-10-11T15:29:47Z</time></trkpt><trkpt lat="44.5473328885" lon="14.4466376770"><ele>-4.19</ele><time>2011-10-11T15:30:19Z</time></trkpt><trkpt lat="44.5468194969" lon="14.4473464508"><ele>-6.59</ele><time>2011-10-11T15:30:47Z</time></trkpt><trkpt lat="44.5462588314" lon="14.4480970502"><ele>-7.55</ele><time>2011-10-11T15:31:17Z</time></trkpt><trkpt lat="44.5456523169" lon="14.4489727076"><ele>-6.59</ele><time>2011-10-11T15:31:50Z</time></trkpt><trkpt lat="44.5450924896" lon="14.4499204494"><ele>-6.11</ele><time>2011-10-11T15:32:23Z</time></trkpt><trkpt lat="44.5446870569" lon="14.4506749883"><ele>-4.19</ele><time>2011-10-11T15:32:49Z</time></trkpt><trkpt lat="44.5442567300" lon="14.4514522422"><ele>-3.71</ele><time>2011-10-11T15:33:17Z</time></trkpt><trkpt lat="44.5437259879" lon="14.4523854833"><ele>-3.23</ele><time>2011-10-11T15:33:51Z</time></trkpt><trkpt lat="44.5432349760" lon="14.4532342348"><ele>-3.23</ele><time>2011-10-11T15:34:22Z</time></trkpt><trkpt lat="44.5428045653" lon="14.4540694077"><ele>-2.75</ele><time>2011-10-11T15:34:52Z</time></trkpt><trkpt lat="44.5423583966" lon="14.4549569674"><ele>-2.75</ele><time>2011-10-11T15:35:23Z</time></trkpt><trkpt lat="44.5419275668" lon="14.4556970894"><ele>-3.23</ele><time>2011-10-11T15:35:51Z</time></trkpt><trkpt lat="44.5414399914" lon="14.4563758560"><ele>-4.19</ele><time>2011-10-11T15:36:19Z</time></trkpt><trkpt lat="44.5409001131" lon="14.4570971187"><ele>-4.19</ele><time>2011-10-11T15:36:49Z</time></trkpt><trkpt lat="44.5403194148" lon="14.4578932319"><ele>-3.23</ele><time>2011-10-11T15:37:23Z</time></trkpt><trkpt lat="44.5398887526" lon="14.4585085474"><ele>-4.19</ele><time>2011-10-11T15:37:49Z</time></trkpt><trkpt lat="44.5394822303" lon="14.4590102881"><ele>-3.71</ele><time>2011-10-11T15:38:11Z</time></trkpt><trkpt lat="44.5389659051" lon="14.4596085045"><ele>-2.75</ele><time>2011-10-11T15:38:39Z</time></trkpt><trkpt lat="44.5383851230" lon="14.4601379894"><ele>-0.82</ele><time>2011-10-11T15:39:07Z</time></trkpt><trkpt lat="44.5378472563" lon="14.4605562463"><ele>-3.23</ele><time>2011-10-11T15:39:33Z</time></trkpt><trkpt lat="44.5372513868" lon="14.4610703085"><ele>-2.75</ele><time>2011-10-11T15:40:02Z</time></trkpt><trkpt lat="44.5367630571" lon="14.4617350772"><ele>-2.27</ele><time>2011-10-11T15:40:30Z</time></trkpt><trkpt lat="44.5363331493" lon="14.4624232315"><ele>-2.75</ele><time>2011-10-11T15:40:57Z</time></trkpt><trkpt lat="44.5359215979" lon="14.4631724060"><ele>-1.79</ele><time>2011-10-11T15:41:25Z</time></trkpt><trkpt lat="44.5355073642" lon="14.4638601411"><ele>-3.23</ele><time>2011-10-11T15:41:55Z</time></trkpt><trkpt lat="44.5352112316" lon="14.4643764663"><ele>-3.71</ele><time>2011-10-11T15:42:19Z</time></trkpt><trkpt lat="44.5349706709" lon="14.4647907838"><ele>-3.23</ele><time>2011-10-11T15:42:39Z</time></trkpt><trkpt lat="44.5347094070" lon="14.4652259722"><ele>-3.23</ele><time>2011-10-11T15:43:01Z</time></trkpt><trkpt lat="44.5344082452" lon="14.4655451551"><ele>-1.79</ele><time>2011-10-11T15:43:25Z</time></trkpt><trkpt lat="44.5340261143" lon="14.4655838795"><ele>-2.27</ele><time>2011-10-11T15:43:48Z</time></trkpt><trkpt lat="44.5337184146" lon="14.4656349253"><ele>-1.30</ele><time>2011-10-11T15:44:12Z</time></trkpt><trkpt lat="44.5336773433" lon="14.4657186605"><ele>-0.82</ele><time>2011-10-11T15:44:32Z</time></trkpt><trkpt lat="44.5337125473" lon="14.4655743241"><ele>-1.30</ele><time>2011-10-11T15:45:00Z</time></trkpt><trkpt lat="44.5337614976" lon="14.4653629325"><ele>-0.34</ele><time>2011-10-11T15:45:23Z</time></trkpt><trkpt lat="44.5338108670" lon="14.4651147444"><ele>0.62</ele><time>2011-10-11T15:45:52Z</time></trkpt><trkpt lat="44.5338125434" lon="14.4650979806"><ele>0.14</ele><time>2011-10-11T15:46:16Z</time></trkpt><trkpt lat="44.5338118728" lon="14.4650984835"><ele>0.14</ele><time>2011-10-11T15:46:45Z</time></trkpt><trkpt lat="44.5338098612" lon="14.4650971424"><ele>0.14</ele><time>2011-10-11T15:47:17Z</time></trkpt><trkpt lat="44.5338098612" lon="14.4650971424"><ele>0.14</ele><time>2011-10-11T15:47:44Z</time></trkpt><trkpt lat="44.5338060893" lon="14.4650978129"><ele>0.62</ele><time>2011-10-11T15:48:20Z</time></trkpt><trkpt lat="44.5338016469" lon="14.4650963042"><ele>0.14</ele><time>2011-10-11T15:48:55Z</time></trkpt><trkpt lat="44.5338004734" lon="14.4650936220"><ele>0.14</ele><time>2011-10-11T15:49:25Z</time></trkpt><trkpt lat="44.5337990485" lon="14.4650913589"><ele>0.14</ele><time>2011-10-11T15:49:57Z</time></trkpt><trkpt lat="44.5337990485" lon="14.4650913589"><ele>0.14</ele><time>2011-10-11T15:50:23Z</time></trkpt><trkpt lat="44.5337907504" lon="14.4651051052"><ele>-0.34</ele><time>2011-10-11T15:50:53Z</time></trkpt><trkpt lat="44.5337940194" lon="14.4651204441"><ele>-1.30</ele><time>2011-10-11T15:51:07Z</time></trkpt><trkpt lat="44.5337940194" lon="14.4651204441"><ele>-1.30</ele><time>2011-10-11T15:51:34Z</time></trkpt><trkpt lat="44.5337912533" lon="14.4651180133"><ele>-1.30</ele><time>2011-10-11T15:52:02Z</time></trkpt><trkpt lat="44.5337915886" lon="14.4651185162"><ele>-1.79</ele><time>2011-10-11T15:52:26Z</time></trkpt><trkpt lat="44.5337915886" lon="14.4651185162"><ele>-1.79</ele><time>2011-10-11T15:52:51Z</time></trkpt><trkpt lat="44.5337920077" lon="14.4651196059"><ele>-1.79</ele><time>2011-10-11T15:53:20Z</time></trkpt><trkpt lat="44.5337920077" lon="14.4651185162"><ele>-1.30</ele><time>2011-10-11T15:53:51Z</time></trkpt><trkpt lat="44.5337919239" lon="14.4651206955"><ele>-1.30</ele><time>2011-10-11T15:54:23Z</time></trkpt><trkpt lat="44.5337919239" lon="14.4651206955"><ele>-1.30</ele><time>2011-10-11T15:54:54Z</time></trkpt><trkpt lat="44.5337912533" lon="14.4651215337"><ele>-1.30</ele><time>2011-10-11T15:55:26Z</time></trkpt><trkpt lat="44.5337900799" lon="14.4651211146"><ele>-0.82</ele><time>2011-10-11T15:55:55Z</time></trkpt><trkpt lat="44.5337891579" lon="14.4651228748"><ele>-0.82</ele><time>2011-10-11T15:56:24Z</time></trkpt><trkpt lat="44.5337891579" lon="14.4651228748"><ele>-0.82</ele><time>2011-10-11T15:56:54Z</time></trkpt><trkpt lat="44.5337917563" lon="14.4651144929"><ele>-0.34</ele><time>2011-10-11T15:57:32Z</time></trkpt><trkpt lat="44.5337936841" lon="14.4651124813"><ele>-0.34</ele><time>2011-10-11T15:57:48Z</time></trkpt><trkpt lat="44.4339921232" lon="14.5245465450"><ele>3.02</ele><time>2011-10-12T10:24:04Z</time></trkpt><trkpt lat="44.4339892734" lon="14.5245861914"><ele>3.02</ele><time>2011-10-12T10:24:05Z</time></trkpt><trkpt lat="44.4339150935" lon="14.5256967098"><ele>3.02</ele><time>2011-10-12T10:24:34Z</time></trkpt><trkpt lat="44.4338572584" lon="14.5266548451"><ele>2.54</ele><time>2011-10-12T10:24:59Z</time></trkpt><trkpt lat="44.4337892812" lon="14.5276657026"><ele>2.54</ele><time>2011-10-12T10:25:25Z</time></trkpt><trkpt lat="44.4337091502" lon="14.5285175554"><ele>3.02</ele><time>2011-10-12T10:25:47Z</time></trkpt><trkpt lat="44.4336194638" lon="14.5294447616"><ele>3.50</ele><time>2011-10-12T10:26:11Z</time></trkpt><trkpt lat="44.4335257541" lon="14.5304950140"><ele>3.02</ele><time>2011-10-12T10:26:38Z</time></trkpt><trkpt lat="44.4334442820" lon="14.5313864294"><ele>2.54</ele><time>2011-10-12T10:27:01Z</time></trkpt><trkpt lat="44.4333713595" lon="14.5324288029"><ele>1.10</ele><time>2011-10-12T10:27:28Z</time></trkpt><trkpt lat="44.4333041366" lon="14.5333182067"><ele>0.62</ele><time>2011-10-12T10:27:51Z</time></trkpt><trkpt lat="44.4332093373" lon="14.5342767611"><ele>-1.79</ele><time>2011-10-12T10:28:16Z</time></trkpt><trkpt lat="44.4331168011" lon="14.5354559273"><ele>-0.82</ele><time>2011-10-12T10:28:46Z</time></trkpt><trkpt lat="44.4330429565" lon="14.5364352688"><ele>-0.34</ele><time>2011-10-12T10:29:11Z</time></trkpt><trkpt lat="44.4329705369" lon="14.5373326354"><ele>0.14</ele><time>2011-10-12T10:29:34Z</time></trkpt><trkpt lat="44.4328997936" lon="14.5382054430"><ele>0.62</ele><time>2011-10-12T10:29:56Z</time></trkpt><trkpt lat="44.4328230992" lon="14.5391142927"><ele>1.10</ele><time>2011-10-12T10:30:19Z</time></trkpt><trkpt lat="44.4327500090" lon="14.5400828216"><ele>0.14</ele><time>2011-10-12T10:30:44Z</time></trkpt><trkpt lat="44.4327496737" lon="14.5410475787"><ele>-1.79</ele><time>2011-10-12T10:31:09Z</time></trkpt><trkpt lat="44.4327435549" lon="14.5421043690"><ele>-0.82</ele><time>2011-10-12T10:31:36Z</time></trkpt><trkpt lat="44.4327447284" lon="14.5430427231"><ele>-0.34</ele><time>2011-10-12T10:32:00Z</time></trkpt><trkpt lat="44.4328020606" lon="14.5439338032"><ele>0.62</ele><time>2011-10-12T10:32:23Z</time></trkpt><trkpt lat="44.4328953512" lon="14.5448776893"><ele>-0.34</ele><time>2011-10-12T10:32:48Z</time></trkpt><trkpt lat="44.4330842793" lon="14.5458349865"><ele>-0.34</ele><time>2011-10-12T10:33:14Z</time></trkpt><trkpt lat="44.4333384186" lon="14.5468310919"><ele>-0.82</ele><time>2011-10-12T10:33:42Z</time></trkpt><trkpt lat="44.4336194638" lon="14.5478536002"><ele>-0.34</ele><time>2011-10-12T10:34:11Z</time></trkpt><trkpt lat="44.4337900355" lon="14.5485746115"><ele>0.14</ele><time>2011-10-12T10:34:31Z</time></trkpt><trkpt lat="44.4340556581" lon="14.5495731477"><ele>1.10</ele><time>2011-10-12T10:34:59Z</time></trkpt><trkpt lat="44.4343075342" lon="14.5504938159"><ele>1.58</ele><time>2011-10-12T10:35:25Z</time></trkpt><trkpt lat="44.4345885795" lon="14.5514395460"><ele>0.14</ele><time>2011-10-12T10:35:52Z</time></trkpt><trkpt lat="44.4348129630" lon="14.5522158779"><ele>0.62</ele><time>2011-10-12T10:36:14Z</time></trkpt><trkpt lat="44.4350695331" lon="14.5530091412"><ele>1.10</ele><time>2011-10-12T10:36:37Z</time></trkpt><trkpt lat="44.4353664201" lon="14.5538827032"><ele>1.10</ele><time>2011-10-12T10:37:03Z</time></trkpt><trkpt lat="44.4356112555" lon="14.5546354819"><ele>1.58</ele><time>2011-10-12T10:37:25Z</time></trkpt><trkpt lat="44.4358504750" lon="14.5554203633"><ele>1.58</ele><time>2011-10-12T10:37:48Z</time></trkpt><trkpt lat="44.4361265749" lon="14.5562591404"><ele>0.62</ele><time>2011-10-12T10:38:13Z</time></trkpt><trkpt lat="44.4363576639" lon="14.5569653995"><ele>0.62</ele><time>2011-10-12T10:38:34Z</time></trkpt><trkpt lat="44.4366190117" lon="14.5577193517"><ele>-0.34</ele><time>2011-10-12T10:38:57Z</time></trkpt><trkpt lat="44.4368967880" lon="14.5584109426"><ele>-0.34</ele><time>2011-10-12T10:39:20Z</time></trkpt><trkpt lat="44.4371671043" lon="14.5590084046"><ele>0.14</ele><time>2011-10-12T10:39:41Z</time></trkpt><trkpt lat="44.4376237504" lon="14.5593469497"><ele>0.14</ele><time>2011-10-12T10:40:02Z</time></trkpt><trkpt lat="44.4382177759" lon="14.5597361214"><ele>-0.34</ele><time>2011-10-12T10:40:29Z</time></trkpt><trkpt lat="44.4388066046" lon="14.5602718927"><ele>-0.34</ele><time>2011-10-12T10:40:58Z</time></trkpt><trkpt lat="44.4393981155" lon="14.5608291216"><ele>-0.34</ele><time>2011-10-12T10:41:27Z</time></trkpt><trkpt lat="44.4399524108" lon="14.5610311255"><ele>1.10</ele><time>2011-10-12T10:41:50Z</time></trkpt><trkpt lat="44.4406222925" lon="14.5610412676"><ele>0.62</ele><time>2011-10-12T10:42:16Z</time></trkpt><trkpt lat="44.4413051661" lon="14.5610904694"><ele>1.10</ele><time>2011-10-12T10:42:43Z</time></trkpt><trkpt lat="44.4419648219" lon="14.5611449517"><ele>1.10</ele><time>2011-10-12T10:43:09Z</time></trkpt><trkpt lat="44.4425838254" lon="14.5611146931"><ele>1.58</ele><time>2011-10-12T10:43:33Z</time></trkpt><trkpt lat="44.4432067685" lon="14.5609982684"><ele>0.62</ele><time>2011-10-12T10:43:59Z</time></trkpt><trkpt lat="44.4437971897" lon="14.5608330611"><ele>1.10</ele><time>2011-10-12T10:44:25Z</time></trkpt><trkpt lat="44.4443252496" lon="14.5606465638"><ele>0.14</ele><time>2011-10-12T10:44:49Z</time></trkpt><trkpt lat="44.4447792135" lon="14.5604123734"><ele>-0.82</ele><time>2011-10-12T10:45:11Z</time></trkpt><trkpt lat="44.4452119712" lon="14.5601479243"><ele>-1.30</ele><time>2011-10-12T10:45:34Z</time></trkpt><trkpt lat="44.4455222692" lon="14.5598608442"><ele>-0.82</ele><time>2011-10-12T10:45:56Z</time></trkpt><trkpt lat="44.4456212595" lon="14.5595164318"><ele>-0.34</ele><time>2011-10-12T10:46:20Z</time></trkpt><trkpt lat="44.4456324074" lon="14.5591923874"><ele>0.14</ele><time>2011-10-12T10:46:45Z</time></trkpt><trkpt lat="44.4456407055" lon="14.5590022020"><ele>1.10</ele><time>2011-10-12T10:47:09Z</time></trkpt><trkpt lat="44.4456459023" lon="14.5589620527"><ele>0.62</ele><time>2011-10-12T10:47:30Z</time></trkpt><trkpt lat="44.4456498418" lon="14.5589649864"><ele>0.62</ele><time>2011-10-12T10:47:56Z</time></trkpt><trkpt lat="44.4456738140" lon="14.5591295231"><ele>0.62</ele><time>2011-10-12T10:48:25Z</time></trkpt><trkpt lat="44.4456776697" lon="14.5591855142"><ele>0.62</ele><time>2011-10-12T10:48:50Z</time></trkpt><trkpt lat="44.4456808548" lon="14.5591836702"><ele>0.62</ele><time>2011-10-12T10:49:14Z</time></trkpt><trkpt lat="44.4456925895" lon="14.5592412539"><ele>2.06</ele><time>2011-10-12T10:49:41Z</time></trkpt><trkpt lat="44.4456925895" lon="14.5592412539"><ele>2.06</ele><time>2011-10-12T10:50:03Z</time></trkpt><trkpt lat="44.4456909131" lon="14.5592358056"><ele>2.06</ele><time>2011-10-12T10:50:28Z</time></trkpt><trkpt lat="44.4456909131" lon="14.5592358056"><ele>2.06</ele><time>2011-10-12T10:50:53Z</time></trkpt><trkpt lat="44.4456828665" lon="14.5592296030"><ele>1.58</ele><time>2011-10-12T10:51:16Z</time></trkpt><trkpt lat="44.4456752390" lon="14.5592197124"><ele>1.58</ele><time>2011-10-12T10:51:43Z</time></trkpt><trkpt lat="44.4456752390" lon="14.5592197124"><ele>1.58</ele><time>2011-10-12T10:52:14Z</time></trkpt><trkpt lat="44.4456650130" lon="14.5592171978"><ele>2.06</ele><time>2011-10-12T10:52:42Z</time></trkpt><trkpt lat="44.4456595648" lon="14.5592205506"><ele>2.54</ele><time>2011-10-12T10:53:08Z</time></trkpt><trkpt lat="44.4456644263" lon="14.5592151862"><ele>3.50</ele><time>2011-10-12T10:53:39Z</time></trkpt><trkpt lat="44.4456644263" lon="14.5592151862"><ele>3.50</ele><time>2011-10-12T10:54:08Z</time></trkpt><trkpt lat="44.4456667732" lon="14.5592085645"><ele>3.02</ele><time>2011-10-12T10:54:34Z</time></trkpt><trkpt lat="44.4456667732" lon="14.5592085645"><ele>3.02</ele><time>2011-10-12T10:54:57Z</time></trkpt><trkpt lat="44.4456681143" lon="14.5591966622"><ele>3.02</ele><time>2011-10-12T10:55:28Z</time></trkpt><trkpt lat="44.4456667732" lon="14.5591954887"><ele>3.02</ele><time>2011-10-12T10:55:52Z</time></trkpt><trkpt lat="44.4456707127" lon="14.5591934770"><ele>3.02</ele><time>2011-10-12T10:56:27Z</time></trkpt><trkpt lat="44.4456707127" lon="14.5591934770"><ele>3.02</ele><time>2011-10-12T10:56:57Z</time></trkpt><trkpt lat="44.4456762448" lon="14.5591892861"><ele>3.02</ele><time>2011-10-12T10:57:25Z</time></trkpt><trkpt lat="44.4456841238" lon="14.5591778029"><ele>3.02</ele><time>2011-10-12T10:57:48Z</time></trkpt><trkpt lat="44.4456841238" lon="14.5591778029"><ele>3.02</ele><time>2011-10-12T10:58:11Z</time></trkpt><trkpt lat="44.4456857163" lon="14.5591721870"><ele>3.50</ele><time>2011-10-12T10:58:35Z</time></trkpt><trkpt lat="44.4456801005" lon="14.5591770485"><ele>3.02</ele><time>2011-10-12T10:59:01Z</time></trkpt><trkpt lat="44.4456801005" lon="14.5591770485"><ele>3.02</ele><time>2011-10-12T10:59:25Z</time></trkpt><trkpt lat="44.4456774183" lon="14.5591810718"><ele>3.50</ele><time>2011-10-12T10:59:49Z</time></trkpt><trkpt lat="44.4456774183" lon="14.5591810718"><ele>3.50</ele><time>2011-10-12T11:00:16Z</time></trkpt><trkpt lat="44.4456776697" lon="14.5591809880"><ele>3.50</ele><time>2011-10-12T11:00:43Z</time></trkpt><trkpt lat="44.4456781726" lon="14.5591813233"><ele>3.50</ele><time>2011-10-12T11:01:09Z</time></trkpt><trkpt lat="44.4456781726" lon="14.5591813233"><ele>3.50</ele><time>2011-10-12T11:01:36Z</time></trkpt><trkpt lat="44.4456759933" lon="14.5591777191"><ele>3.50</ele><time>2011-10-12T11:02:02Z</time></trkpt><trkpt lat="44.4456759095" lon="14.5591787249"><ele>3.50</ele><time>2011-10-12T11:02:31Z</time></trkpt><trkpt lat="44.4456759095" lon="14.5591787249"><ele>3.50</ele><time>2011-10-12T11:02:57Z</time></trkpt><trkpt lat="44.4456753228" lon="14.5591798984"><ele>3.02</ele><time>2011-10-12T11:03:22Z</time></trkpt><trkpt lat="44.4456725568" lon="14.5591793116"><ele>3.50</ele><time>2011-10-12T11:03:50Z</time></trkpt><trkpt lat="44.4456756581" lon="14.5591796469"><ele>3.50</ele><time>2011-10-12T11:04:20Z</time></trkpt><trkpt lat="44.4456756581" lon="14.5591796469"><ele>3.50</ele><time>2011-10-12T11:04:47Z</time></trkpt><trkpt lat="44.4456800167" lon="14.5591767132"><ele>3.50</ele><time>2011-10-12T11:05:09Z</time></trkpt><trkpt lat="44.4456819445" lon="14.5591713488"><ele>3.50</ele><time>2011-10-12T11:05:28Z</time></trkpt><trkpt lat="44.4456819445" lon="14.5591713488"><ele>3.50</ele><time>2011-10-12T11:05:53Z</time></trkpt><trkpt lat="44.4456860516" lon="14.5591682475"><ele>3.50</ele><time>2011-10-12T11:06:17Z</time></trkpt><trkpt lat="44.4456842914" lon="14.5591690019"><ele>3.50</ele><time>2011-10-12T11:06:39Z</time></trkpt><trkpt lat="44.4456842914" lon="14.5591690019"><ele>3.50</ele><time>2011-10-12T11:07:01Z</time></trkpt><trkpt lat="44.4456812739" lon="14.5591687504"><ele>3.02</ele><time>2011-10-12T11:07:24Z</time></trkpt><trkpt lat="44.4456812739" lon="14.5591687504"><ele>3.02</ele><time>2011-10-12T11:07:50Z</time></trkpt><trkpt lat="44.4456793461" lon="14.5591716003"><ele>3.98</ele><time>2011-10-12T11:08:17Z</time></trkpt><trkpt lat="44.4456641749" lon="14.5591736119"><ele>3.98</ele><time>2011-10-12T11:08:46Z</time></trkpt><trkpt lat="44.4456641749" lon="14.5591736119"><ele>3.98</ele><time>2011-10-12T11:09:13Z</time></trkpt><trkpt lat="44.4456578046" lon="14.5591771323"><ele>4.46</ele><time>2011-10-12T11:09:43Z</time></trkpt><trkpt lat="44.4456557091" lon="14.5591739472"><ele>4.46</ele><time>2011-10-12T11:10:09Z</time></trkpt><trkpt lat="44.4456562959" lon="14.5591741148"><ele>4.46</ele><time>2011-10-12T11:10:41Z</time></trkpt><trkpt lat="44.4456562959" lon="14.5591741148"><ele>4.46</ele><time>2011-10-12T11:11:12Z</time></trkpt><trkpt lat="44.4456556253" lon="14.5591735281"><ele>4.46</ele><time>2011-10-12T11:11:45Z</time></trkpt><trkpt lat="44.4456570502" lon="14.5591744501"><ele>3.98</ele><time>2011-10-12T11:12:16Z</time></trkpt><trkpt lat="44.4456537813" lon="14.5591705944"><ele>4.46</ele><time>2011-10-12T11:12:47Z</time></trkpt><trkpt lat="44.4456537813" lon="14.5591705944"><ele>4.46</ele><time>2011-10-12T11:13:12Z</time></trkpt><trkpt lat="44.4456536137" lon="14.5591797307"><ele>4.46</ele><time>2011-10-12T11:13:38Z</time></trkpt><trkpt lat="44.4456615765" lon="14.5591763780"><ele>4.94</ele><time>2011-10-12T11:14:11Z</time></trkpt><trkpt lat="44.4456697069" lon="14.5591728576"><ele>4.46</ele><time>2011-10-12T11:14:36Z</time></trkpt><trkpt lat="44.4456697069" lon="14.5591728576"><ele>4.46</ele><time>2011-10-12T11:15:04Z</time></trkpt><trkpt lat="44.4456840400" lon="14.5591601171"><ele>4.94</ele><time>2011-10-12T11:15:37Z</time></trkpt><trkpt lat="44.4456842914" lon="14.5591585245"><ele>4.94</ele><time>2011-10-12T11:16:04Z</time></trkpt><trkpt lat="44.4456842914" lon="14.5591585245"><ele>4.94</ele><time>2011-10-12T11:16:32Z</time></trkpt><trkpt lat="44.4456850458" lon="14.5591640566"><ele>4.94</ele><time>2011-10-12T11:16:56Z</time></trkpt><trkpt lat="44.4456916675" lon="14.5591580216"><ele>4.46</ele><time>2011-10-12T11:17:26Z</time></trkpt><trkpt lat="44.4457078446" lon="14.5591318700"><ele>5.42</ele><time>2011-10-12T11:17:58Z</time></trkpt><trkpt lat="44.4457078446" lon="14.5591318700"><ele>5.42</ele><time>2011-10-12T11:18:29Z</time></trkpt><trkpt lat="44.4457159750" lon="14.5591244940"><ele>5.42</ele><time>2011-10-12T11:18:59Z</time></trkpt><trkpt lat="44.4457132928" lon="14.5591322891"><ele>5.42</ele><time>2011-10-12T11:19:26Z</time></trkpt><trkpt lat="44.4457114488" lon="14.5591395814"><ele>5.91</ele><time>2011-10-12T11:19:56Z</time></trkpt><trkpt lat="44.4457114488" lon="14.5591395814"><ele>5.91</ele><time>2011-10-12T11:20:24Z</time></trkpt><trkpt lat="44.4457145501" lon="14.5591406710"><ele>5.91</ele><time>2011-10-12T11:20:51Z</time></trkpt><trkpt lat="44.4457104430" lon="14.5591443591"><ele>4.94</ele><time>2011-10-12T11:21:22Z</time></trkpt><trkpt lat="44.4457104430" lon="14.5591443591"><ele>4.94</ele><time>2011-10-12T11:21:49Z</time></trkpt><trkpt lat="44.4457094371" lon="14.5591607038"><ele>4.46</ele><time>2011-10-12T11:22:20Z</time></trkpt><trkpt lat="44.4457053300" lon="14.5591648109"><ele>4.46</ele><time>2011-10-12T11:22:49Z</time></trkpt><trkpt lat="44.4457103591" lon="14.5591612067"><ele>3.50</ele><time>2011-10-12T11:23:22Z</time></trkpt><trkpt lat="44.4457103591" lon="14.5591612067"><ele>3.50</ele><time>2011-10-12T11:23:51Z</time></trkpt><trkpt lat="44.4457234349" lon="14.5591519028"><ele>3.50</ele><time>2011-10-12T11:24:22Z</time></trkpt><trkpt lat="44.4457130414" lon="14.5591483824"><ele>3.02</ele><time>2011-10-12T11:24:51Z</time></trkpt><trkpt lat="44.4457060844" lon="14.5591608714"><ele>2.54</ele><time>2011-10-12T11:25:20Z</time></trkpt><trkpt lat="44.4457060844" lon="14.5591608714"><ele>2.54</ele><time>2011-10-12T11:25:48Z</time></trkpt><trkpt lat="44.4456999656" lon="14.5591723546"><ele>3.02</ele><time>2011-10-12T11:26:17Z</time></trkpt><trkpt lat="44.4456999656" lon="14.5591723546"><ele>3.02</ele><time>2011-10-12T11:26:43Z</time></trkpt><trkpt lat="44.4457036536" lon="14.5591593627"><ele>3.02</ele><time>2011-10-12T11:27:14Z</time></trkpt><trkpt lat="44.4457008038" lon="14.5591622964"><ele>3.02</ele><time>2011-10-12T11:27:43Z</time></trkpt><trkpt lat="44.4456971157" lon="14.5591706783"><ele>3.50</ele><time>2011-10-12T11:28:09Z</time></trkpt><trkpt lat="44.4456971157" lon="14.5591706783"><ele>3.50</ele><time>2011-10-12T11:28:40Z</time></trkpt><trkpt lat="44.4457003009" lon="14.5591662358"><ele>3.02</ele><time>2011-10-12T11:29:05Z</time></trkpt><trkpt lat="44.4457053300" lon="14.5591605362"><ele>3.02</ele><time>2011-10-12T11:29:38Z</time></trkpt><trkpt lat="44.4456997979" lon="14.5591599494"><ele>3.02</ele><time>2011-10-12T11:30:05Z</time></trkpt><trkpt lat="44.4456997979" lon="14.5591599494"><ele>3.02</ele><time>2011-10-12T11:30:34Z</time></trkpt><trkpt lat="44.4456936792" lon="14.5591703430"><ele>3.02</ele><time>2011-10-12T11:31:04Z</time></trkpt><trkpt lat="44.4456965290" lon="14.5591705944"><ele>3.02</ele><time>2011-10-12T11:31:29Z</time></trkpt><trkpt lat="44.4456944335" lon="14.5591630507"><ele>3.02</ele><time>2011-10-12T11:32:04Z</time></trkpt><trkpt lat="44.4456985407" lon="14.5591674093"><ele>2.54</ele><time>2011-10-12T11:32:39Z</time></trkpt><trkpt lat="44.4456985407" lon="14.5591674093"><ele>2.54</ele><time>2011-10-12T11:33:08Z</time></trkpt><trkpt lat="44.4456858002" lon="14.5591649786"><ele>2.06</ele><time>2011-10-12T11:33:39Z</time></trkpt><trkpt lat="44.4456774183" lon="14.5591616258"><ele>2.06</ele><time>2011-10-12T11:34:10Z</time></trkpt><trkpt lat="44.4456775021" lon="14.5591698401"><ele>2.54</ele><time>2011-10-12T11:34:40Z</time></trkpt><trkpt lat="44.4456844591" lon="14.5591613743"><ele>3.02</ele><time>2011-10-12T11:35:13Z</time></trkpt><trkpt lat="44.4456844591" lon="14.5591613743"><ele>3.02</ele><time>2011-10-12T11:35:46Z</time></trkpt><trkpt lat="44.4456811063" lon="14.5591650624"><ele>3.02</ele><time>2011-10-12T11:36:14Z</time></trkpt><trkpt lat="44.4456708804" lon="14.5591653138"><ele>3.50</ele><time>2011-10-12T11:36:46Z</time></trkpt><trkpt lat="44.4456690364" lon="14.5591736957"><ele>3.50</ele><time>2011-10-12T11:37:17Z</time></trkpt><trkpt lat="44.4456690364" lon="14.5591736957"><ele>3.50</ele><time>2011-10-12T11:37:44Z</time></trkpt><trkpt lat="44.4456806872" lon="14.5591724385"><ele>2.54</ele><time>2011-10-12T11:38:13Z</time></trkpt><trkpt lat="44.4456774183" lon="14.5591616258"><ele>2.54</ele><time>2011-10-12T11:38:48Z</time></trkpt><trkpt lat="44.4456669409" lon="14.5591731928"><ele>3.02</ele><time>2011-10-12T11:39:21Z</time></trkpt><trkpt lat="44.4456670247" lon="14.5591791440"><ele>3.02</ele><time>2011-10-12T11:39:53Z</time></trkpt><trkpt lat="44.4456670247" lon="14.5591791440"><ele>3.02</ele><time>2011-10-12T11:40:22Z</time></trkpt><trkpt lat="44.4456745684" lon="14.5591703430"><ele>2.06</ele><time>2011-10-12T11:40:51Z</time></trkpt><trkpt lat="44.4456728920" lon="14.5591704268"><ele>2.06</ele><time>2011-10-12T11:41:18Z</time></trkpt><trkpt lat="44.4456697069" lon="14.5591731928"><ele>2.06</ele><time>2011-10-12T11:41:43Z</time></trkpt><trkpt lat="44.4456604868" lon="14.5591830835"><ele>2.06</ele><time>2011-10-12T11:42:13Z</time></trkpt><trkpt lat="44.4456623308" lon="14.5591839217"><ele>2.06</ele><time>2011-10-12T11:42:43Z</time></trkpt><trkpt lat="44.4456623308" lon="14.5591839217"><ele>2.06</ele><time>2011-10-12T11:43:15Z</time></trkpt><trkpt lat="44.4456775021" lon="14.5591613743"><ele>2.54</ele><time>2011-10-12T11:43:45Z</time></trkpt><trkpt lat="44.4456844591" lon="14.5591557585"><ele>2.06</ele><time>2011-10-12T11:44:12Z</time></trkpt><trkpt lat="44.4456844591" lon="14.5591557585"><ele>2.06</ele><time>2011-10-12T11:44:39Z</time></trkpt><trkpt lat="44.4456783403" lon="14.5591529086"><ele>2.54</ele><time>2011-10-12T11:45:08Z</time></trkpt><trkpt lat="44.4456702936" lon="14.5591576025"><ele>3.02</ele><time>2011-10-12T11:45:35Z</time></trkpt><trkpt lat="44.4456702936" lon="14.5591576025"><ele>3.02</ele><time>2011-10-12T11:46:02Z</time></trkpt><trkpt lat="44.4456579722" lon="14.5591728576"><ele>3.02</ele><time>2011-10-12T11:46:33Z</time></trkpt><trkpt lat="44.4456447288" lon="14.5591751207"><ele>3.50</ele><time>2011-10-12T11:47:02Z</time></trkpt><trkpt lat="44.4456122071" lon="14.5591797307"><ele>3.02</ele><time>2011-10-12T11:47:27Z</time></trkpt><trkpt lat="44.4456122071" lon="14.5591797307"><ele>3.02</ele><time>2011-10-12T11:47:59Z</time></trkpt><trkpt lat="44.4456076808" lon="14.5591844246"><ele>3.02</ele><time>2011-10-12T11:48:29Z</time></trkpt><trkpt lat="44.4456152245" lon="14.5591912977"><ele>2.54</ele><time>2011-10-12T11:49:03Z</time></trkpt><trkpt lat="44.4456234388" lon="14.5591862686"><ele>2.06</ele><time>2011-10-12T11:49:34Z</time></trkpt><trkpt lat="44.4456063397" lon="14.5591839217"><ele>2.54</ele><time>2011-10-12T11:50:11Z</time></trkpt><trkpt lat="44.4455968682" lon="14.5591874421"><ele>2.54</ele><time>2011-10-12T11:50:38Z</time></trkpt><trkpt lat="44.4455974549" lon="14.5590702631"><ele>0.62</ele><time>2011-10-12T11:51:06Z</time></trkpt><trkpt lat="44.4455915038" lon="14.5589555148"><ele>1.10</ele><time>2011-10-12T11:51:31Z</time></trkpt><trkpt lat="44.4455455709" lon="14.5589360688"><ele>1.10</ele><time>2011-10-12T11:51:58Z</time></trkpt><trkpt lat="44.4454397913" lon="14.5589067321"><ele>0.62</ele><time>2011-10-12T11:52:27Z</time></trkpt><trkpt lat="44.4454185013" lon="14.5589038823"><ele>0.62</ele><time>2011-10-12T11:52:29Z</time></trkpt><trkpt lat="44.4451977219" lon="14.5591690019"><ele>-0.82</ele><time>2011-10-12T11:52:49Z</time></trkpt><trkpt lat="44.4449030142" lon="14.5597687270"><ele>-0.34</ele><time>2011-10-12T11:53:13Z</time></trkpt><trkpt lat="44.4444954023" lon="14.5604709629"><ele>0.62</ele><time>2011-10-12T11:53:39Z</time></trkpt><trkpt lat="44.4440149516" lon="14.5609365776"><ele>1.58</ele><time>2011-10-12T11:54:02Z</time></trkpt><trkpt lat="44.4434710499" lon="14.5614690799"><ele>1.58</ele><time>2011-10-12T11:54:28Z</time></trkpt><trkpt lat="44.4429727457" lon="14.5620016661"><ele>0.14</ele><time>2011-10-12T11:54:53Z</time></trkpt><trkpt lat="44.4424815662" lon="14.5625547878"><ele>-1.79</ele><time>2011-10-12T11:55:18Z</time></trkpt><trkpt lat="44.4419306237" lon="14.5631198958"><ele>0.14</ele><time>2011-10-12T11:55:44Z</time></trkpt><trkpt lat="44.4414091017" lon="14.5636778791"><ele>0.62</ele><time>2011-10-12T11:56:10Z</time></trkpt><trkpt lat="44.4409268070" lon="14.5641927794"><ele>0.14</ele><time>2011-10-12T11:56:34Z</time></trkpt><trkpt lat="44.4404125772" lon="14.5647051651"><ele>1.10</ele><time>2011-10-12T11:56:59Z</time></trkpt><trkpt lat="44.4398985989" lon="14.5651741326"><ele>1.58</ele><time>2011-10-12T11:57:23Z</time></trkpt><trkpt lat="44.4394063298" lon="14.5656769630"><ele>0.14</ele><time>2011-10-12T11:57:47Z</time></trkpt><trkpt lat="44.4390923437" lon="14.5657760371"><ele>0.14</ele><time>2011-10-12T11:58:01Z</time></trkpt><trkpt lat="44.4388179202" lon="14.5653918106"><ele>1.10</ele><time>2011-10-12T11:58:18Z</time></trkpt><trkpt lat="44.4387980551" lon="14.5649971906"><ele>0.62</ele><time>2011-10-12T11:58:37Z</time></trkpt><trkpt lat="44.4386148266" lon="14.5648544468"><ele>0.14</ele><time>2011-10-12T11:58:56Z</time></trkpt><trkpt lat="44.4385974761" lon="14.5648703724"><ele>0.62</ele><time>2011-10-12T11:58:58Z</time></trkpt><trkpt lat="44.4384859968" lon="14.5651962608"><ele>0.14</ele><time>2011-10-12T11:59:23Z</time></trkpt><trkpt lat="44.4383849110" lon="14.5655434392"><ele>0.14</ele><time>2011-10-12T11:59:46Z</time></trkpt><trkpt lat="44.4380607828" lon="14.5658699144"><ele>-0.82</ele><time>2011-10-12T12:00:12Z</time></trkpt><trkpt lat="44.4377097487" lon="14.5662297495"><ele>0.14</ele><time>2011-10-12T12:00:37Z</time></trkpt><trkpt lat="44.4373948406" lon="14.5666050911"><ele>-0.34</ele><time>2011-10-12T12:01:00Z</time></trkpt><trkpt lat="44.4370177388" lon="14.5670829434"><ele>-0.82</ele><time>2011-10-12T12:01:27Z</time></trkpt><trkpt lat="44.4367237017" lon="14.5675105881"><ele>0.62</ele><time>2011-10-12T12:01:51Z</time></trkpt><trkpt lat="44.4363890961" lon="14.5679784659"><ele>0.62</ele><time>2011-10-12T12:02:20Z</time></trkpt><trkpt lat="44.4360891078" lon="14.5683649555"><ele>-0.34</ele><time>2011-10-12T12:02:46Z</time></trkpt><trkpt lat="44.4358374830" lon="14.5687107928"><ele>0.14</ele><time>2011-10-12T12:03:07Z</time></trkpt><trkpt lat="44.4355116785" lon="14.5691234339"><ele>-0.34</ele><time>2011-10-12T12:03:34Z</time></trkpt><trkpt lat="44.4351403601" lon="14.5695336442"><ele>-1.30</ele><time>2011-10-12T12:04:01Z</time></trkpt><trkpt lat="44.4347871467" lon="14.5699588582"><ele>-1.30</ele><time>2011-10-12T12:04:27Z</time></trkpt><trkpt lat="44.4344993960" lon="14.5703404024"><ele>-0.82</ele><time>2011-10-12T12:04:52Z</time></trkpt><trkpt lat="44.4342253078" lon="14.5706657041"><ele>0.14</ele><time>2011-10-12T12:05:16Z</time></trkpt><trkpt lat="44.4339409936" lon="14.5709779300"><ele>-0.34</ele><time>2011-10-12T12:05:40Z</time></trkpt><trkpt lat="44.4336557575" lon="14.5712934248"><ele>-0.82</ele><time>2011-10-12T12:06:05Z</time></trkpt><trkpt lat="44.4333623070" lon="14.5716452971"><ele>-0.82</ele><time>2011-10-12T12:06:32Z</time></trkpt><trkpt lat="44.4330749754" lon="14.5719866082"><ele>-1.79</ele><time>2011-10-12T12:06:59Z</time></trkpt><trkpt lat="44.4327950198" lon="14.5722702518"><ele>-0.82</ele><time>2011-10-12T12:07:22Z</time></trkpt><trkpt lat="44.4325287268" lon="14.5725497045"><ele>-0.82</ele><time>2011-10-12T12:07:43Z</time></trkpt><trkpt lat="44.4321770221" lon="14.5729343500"><ele>0.14</ele><time>2011-10-12T12:08:08Z</time></trkpt><trkpt lat="44.4318111520" lon="14.5733241923"><ele>0.62</ele><time>2011-10-12T12:08:33Z</time></trkpt><trkpt lat="44.4314500596" lon="14.5737691037"><ele>0.62</ele><time>2011-10-12T12:09:00Z</time></trkpt><trkpt lat="44.4310897216" lon="14.5742054656"><ele>0.62</ele><time>2011-10-12T12:09:28Z</time></trkpt><trkpt lat="44.4307401124" lon="14.5746226329"><ele>2.06</ele><time>2011-10-12T12:09:54Z</time></trkpt><trkpt lat="44.4303768408" lon="14.5750366151"><ele>2.54</ele><time>2011-10-12T12:10:20Z</time></trkpt><trkpt lat="44.4300351944" lon="14.5754613262"><ele>2.06</ele><time>2011-10-12T12:10:47Z</time></trkpt><trkpt lat="44.4297549035" lon="14.5757895615"><ele>2.54</ele><time>2011-10-12T12:11:09Z</time></trkpt><trkpt lat="44.4294465333" lon="14.5761519112"><ele>2.54</ele><time>2011-10-12T12:11:33Z</time></trkpt><trkpt lat="44.4291624706" lon="14.5765048731"><ele>1.58</ele><time>2011-10-12T12:11:56Z</time></trkpt><trkpt lat="44.4288474787" lon="14.5768887643"><ele>2.54</ele><time>2011-10-12T12:12:23Z</time></trkpt><trkpt lat="44.4285428803" lon="14.5772408042"><ele>3.50</ele><time>2011-10-12T12:12:49Z</time></trkpt><trkpt lat="44.4282197580" lon="14.5776247792"><ele>3.50</ele><time>2011-10-12T12:13:17Z</time></trkpt><trkpt lat="44.4279024191" lon="14.5780263562"><ele>2.06</ele><time>2011-10-12T12:13:45Z</time></trkpt><trkpt lat="44.4276727550" lon="14.5783359837"><ele>1.10</ele><time>2011-10-12T12:14:07Z</time></trkpt><trkpt lat="44.4273762871" lon="14.5786988363"><ele>2.06</ele><time>2011-10-12T12:14:33Z</time></trkpt><trkpt lat="44.4270633068" lon="14.5790507924"><ele>3.02</ele><time>2011-10-12T12:14:59Z</time></trkpt><trkpt lat="44.4267497398" lon="14.5794350188"><ele>2.54</ele><time>2011-10-12T12:15:27Z</time></trkpt><trkpt lat="44.4264556188" lon="14.5798148867"><ele>1.10</ele><time>2011-10-12T12:15:55Z</time></trkpt><trkpt lat="44.4261405431" lon="14.5801798347"><ele>2.06</ele><time>2011-10-12T12:16:21Z</time></trkpt><trkpt lat="44.4258605037" lon="14.5805047173"><ele>1.58</ele><time>2011-10-12T12:16:44Z</time></trkpt><trkpt lat="44.4255445898" lon="14.5808842499"><ele>3.02</ele><time>2011-10-12T12:17:10Z</time></trkpt><trkpt lat="44.4252679031" lon="14.5811910275"><ele>3.50</ele><time>2011-10-12T12:17:31Z</time></trkpt><trkpt lat="44.4249602035" lon="14.5815441571"><ele>3.50</ele><time>2011-10-12T12:17:54Z</time></trkpt><trkpt lat="44.4246409368" lon="14.5819164813"><ele>4.94</ele><time>2011-10-12T12:18:18Z</time></trkpt><trkpt lat="44.4243220892" lon="14.5822955109"><ele>3.50</ele><time>2011-10-12T12:18:43Z</time></trkpt><trkpt lat="44.4240612444" lon="14.5825914759"><ele>3.50</ele><time>2011-10-12T12:19:03Z</time></trkpt><trkpt lat="44.4238729030" lon="14.5827945694"><ele>3.50</ele><time>2011-10-12T12:19:18Z</time></trkpt><trkpt lat="44.4236526266" lon="14.5830508042"><ele>3.50</ele><time>2011-10-12T12:19:37Z</time></trkpt><trkpt lat="44.4233097229" lon="14.5834502857"><ele>6.39</ele><time>2011-10-12T12:20:05Z</time></trkpt><trkpt lat="44.4229841698" lon="14.5838009845"><ele>5.91</ele><time>2011-10-12T12:20:29Z</time></trkpt><trkpt lat="44.4226576947" lon="14.5841661841"><ele>5.91</ele><time>2011-10-12T12:20:54Z</time></trkpt><trkpt lat="44.4223381765" lon="14.5845214091"><ele>6.39</ele><time>2011-10-12T12:21:20Z</time></trkpt><trkpt lat="44.4220748171" lon="14.5847978443"><ele>7.35</ele><time>2011-10-12T12:21:41Z</time></trkpt><trkpt lat="44.4217910059" lon="14.5850958209"><ele>8.31</ele><time>2011-10-12T12:22:05Z</time></trkpt><trkpt lat="44.4215689693" lon="14.5853476971"><ele>8.79</ele><time>2011-10-12T12:22:25Z</time></trkpt><trkpt lat="44.4212890137" lon="14.5856448356"><ele>7.83</ele><time>2011-10-12T12:22:50Z</time></trkpt><trkpt lat="44.4210004248" lon="14.5859681256"><ele>8.31</ele><time>2011-10-12T12:23:17Z</time></trkpt><trkpt lat="44.4207382388" lon="14.5862319041"><ele>8.79</ele><time>2011-10-12T12:23:41Z</time></trkpt><trkpt lat="44.4204654079" lon="14.5864835288"><ele>7.83</ele><time>2011-10-12T12:24:06Z</time></trkpt><trkpt lat="44.4201886375" lon="14.5867549349"><ele>7.83</ele><time>2011-10-12T12:24:33Z</time></trkpt><trkpt lat="44.4198992942" lon="14.5870384946"><ele>6.87</ele><time>2011-10-12T12:25:03Z</time></trkpt><trkpt lat="44.4196993019" lon="14.5872693323"><ele>7.35</ele><time>2011-10-12T12:25:26Z</time></trkpt><trkpt lat="44.4194500241" lon="14.5875099767"><ele>7.35</ele><time>2011-10-12T12:25:54Z</time></trkpt><trkpt lat="44.4191703200" lon="14.5877702348"><ele>7.83</ele><time>2011-10-12T12:26:27Z</time></trkpt><trkpt lat="44.4189544860" lon="14.5879641082"><ele>7.35</ele><time>2011-10-12T12:26:52Z</time></trkpt><trkpt lat="44.4187440164" lon="14.5881607477"><ele>7.35</ele><time>2011-10-12T12:27:17Z</time></trkpt><trkpt lat="44.4185356423" lon="14.5883582253"><ele>7.35</ele><time>2011-10-12T12:27:44Z</time></trkpt><trkpt lat="44.4183141086" lon="14.5885596424"><ele>6.87</ele><time>2011-10-12T12:28:12Z</time></trkpt><trkpt lat="44.4181166310" lon="14.5887455530"><ele>6.87</ele><time>2011-10-12T12:28:40Z</time></trkpt><trkpt lat="44.4178998750" lon="14.5889286138"><ele>5.91</ele><time>2011-10-12T12:29:09Z</time></trkpt><trkpt lat="44.4176932611" lon="14.5891048014"><ele>5.42</ele><time>2011-10-12T12:29:37Z</time></trkpt><trkpt lat="44.4174972083" lon="14.5892798156"><ele>5.42</ele><time>2011-10-12T12:30:05Z</time></trkpt><trkpt lat="44.4173037540" lon="14.5894419216"><ele>4.46</ele><time>2011-10-12T12:30:32Z</time></trkpt><trkpt lat="44.4171258062" lon="14.5896009263"><ele>4.94</ele><time>2011-10-12T12:30:58Z</time></trkpt><trkpt lat="44.4169447571" lon="14.5897569973"><ele>4.46</ele><time>2011-10-12T12:31:25Z</time></trkpt><trkpt lat="44.4167968165" lon="14.5899016690"><ele>4.46</ele><time>2011-10-12T12:31:49Z</time></trkpt><trkpt lat="44.4166667294" lon="14.5900279842"><ele>5.91</ele><time>2011-10-12T12:32:10Z</time></trkpt><trkpt lat="44.4165232312" lon="14.5901832171"><ele>7.35</ele><time>2011-10-12T12:32:34Z</time></trkpt><trkpt lat="44.4163696747" lon="14.5903605781"><ele>10.23</ele><time>2011-10-12T12:33:03Z</time></trkpt><trkpt lat="44.4162313733" lon="14.5905265398"><ele>9.75</ele><time>2011-10-12T12:33:29Z</time></trkpt><trkpt lat="44.4160794094" lon="14.5907090139"><ele>8.79</ele><time>2011-10-12T12:34:00Z</time></trkpt><trkpt lat="44.4159147888" lon="14.5908974390"><ele>10.23</ele><time>2011-10-12T12:34:32Z</time></trkpt><trkpt lat="44.4157654233" lon="14.5910665859"><ele>11.67</ele><time>2011-10-12T12:35:00Z</time></trkpt><trkpt lat="44.4156155549" lon="14.5912174601"><ele>8.31</ele><time>2011-10-12T12:35:27Z</time></trkpt><trkpt lat="44.4154812768" lon="14.5913612936"><ele>5.91</ele><time>2011-10-12T12:35:52Z</time></trkpt><trkpt lat="44.4153358508" lon="14.5915114973"><ele>7.83</ele><time>2011-10-12T12:36:20Z</time></trkpt><trkpt lat="44.4152002316" lon="14.5916904509"><ele>4.94</ele><time>2011-10-12T12:36:48Z</time></trkpt><trkpt lat="44.4151003193" lon="14.5919252280"><ele>3.98</ele><time>2011-10-12T12:37:18Z</time></trkpt><trkpt lat="44.4150164165" lon="14.5921417326"><ele>3.98</ele><time>2011-10-12T12:37:45Z</time></trkpt><trkpt lat="44.4149584137" lon="14.5923738275"><ele>4.46</ele><time>2011-10-12T12:38:13Z</time></trkpt><trkpt lat="44.4148803782" lon="14.5926103648"><ele>3.50</ele><time>2011-10-12T12:38:41Z</time></trkpt><trkpt lat="44.4148298353" lon="14.5928386878"><ele>4.46</ele><time>2011-10-12T12:39:08Z</time></trkpt><trkpt lat="44.4147588406" lon="14.5930810925"><ele>6.87</ele><time>2011-10-12T12:39:35Z</time></trkpt><trkpt lat="44.4146851636" lon="14.5933623053"><ele>6.39</ele><time>2011-10-12T12:40:04Z</time></trkpt><trkpt lat="44.4146098103" lon="14.5936860982"><ele>3.98</ele><time>2011-10-12T12:40:34Z</time></trkpt><trkpt lat="44.4145285897" lon="14.5939735975"><ele>3.02</ele><time>2011-10-12T12:41:01Z</time></trkpt><trkpt lat="44.4144767895" lon="14.5942400582"><ele>3.50</ele><time>2011-10-12T12:41:25Z</time></trkpt><trkpt lat="44.4144080579" lon="14.5945176668"><ele>2.06</ele><time>2011-10-12T12:41:48Z</time></trkpt><trkpt lat="44.4143244065" lon="14.5948192477"><ele>0.62</ele><time>2011-10-12T12:42:14Z</time></trkpt><trkpt lat="44.4142599497" lon="14.5951515064"><ele>0.62</ele><time>2011-10-12T12:42:41Z</time></trkpt><trkpt lat="44.4142221473" lon="14.5953629818"><ele>1.58</ele><time>2011-10-12T12:42:58Z</time></trkpt><trkpt lat="44.4141765498" lon="14.5957096573"><ele>0.62</ele><time>2011-10-12T12:43:23Z</time></trkpt><trkpt lat="44.4141068123" lon="14.5960844960"><ele>0.62</ele><time>2011-10-12T12:43:49Z</time></trkpt><trkpt lat="44.4139872864" lon="14.5964614302"><ele>0.14</ele><time>2011-10-12T12:44:17Z</time></trkpt><trkpt lat="44.4138985220" lon="14.5967959519"><ele>0.14</ele><time>2011-10-12T12:44:41Z</time></trkpt><trkpt lat="44.4138121884" lon="14.5971049927"><ele>0.62</ele><time>2011-10-12T12:45:04Z</time></trkpt><trkpt lat="44.4137245975" lon="14.5974576194"><ele>1.58</ele><time>2011-10-12T12:45:31Z</time></trkpt><trkpt lat="44.4136111066" lon="14.5977830049"><ele>1.10</ele><time>2011-10-12T12:45:59Z</time></trkpt><trkpt lat="44.4135277905" lon="14.5981357992"><ele>1.10</ele><time>2011-10-12T12:46:27Z</time></trkpt><trkpt lat="44.4134316500" lon="14.5984836482"><ele>1.10</ele><time>2011-10-12T12:46:56Z</time></trkpt><trkpt lat="44.4133362640" lon="14.5987382904"><ele>0.62</ele><time>2011-10-12T12:47:19Z</time></trkpt><trkpt lat="44.4132495113" lon="14.5990029071"><ele>1.10</ele><time>2011-10-12T12:47:45Z</time></trkpt><trkpt lat="44.4131323323" lon="14.5992608182"><ele>1.58</ele><time>2011-10-12T12:48:10Z</time></trkpt><trkpt lat="44.4130379520" lon="14.5995633211"><ele>1.10</ele><time>2011-10-12T12:48:39Z</time></trkpt><trkpt lat="44.4129290711" lon="14.5998551790"><ele>-0.34</ele><time>2011-10-12T12:49:06Z</time></trkpt><trkpt lat="44.4128405582" lon="14.6001603641"><ele>0.14</ele><time>2011-10-12T12:49:32Z</time></trkpt><trkpt lat="44.4127618521" lon="14.6005101409"><ele>0.14</ele><time>2011-10-12T12:50:00Z</time></trkpt><trkpt lat="44.4126572460" lon="14.6007873304"><ele>0.62</ele><time>2011-10-12T12:50:24Z</time></trkpt><trkpt lat="44.4125803839" lon="14.6010443196"><ele>1.58</ele><time>2011-10-12T12:50:46Z</time></trkpt><trkpt lat="44.4125237223" lon="14.6013672743"><ele>0.14</ele><time>2011-10-12T12:51:12Z</time></trkpt><trkpt lat="44.4124389812" lon="14.6017243434"><ele>1.58</ele><time>2011-10-12T12:51:42Z</time></trkpt><trkpt lat="44.4123383146" lon="14.6020894591"><ele>0.62</ele><time>2011-10-12T12:52:13Z</time></trkpt><trkpt lat="44.4122515619" lon="14.6023617871"><ele>-0.34</ele><time>2011-10-12T12:52:37Z</time></trkpt><trkpt lat="44.4121625461" lon="14.6027139947"><ele>0.62</ele><time>2011-10-12T12:53:04Z</time></trkpt><trkpt lat="44.4120352250" lon="14.6031060163"><ele>0.62</ele><time>2011-10-12T12:53:32Z</time></trkpt><trkpt lat="44.4118847698" lon="14.6035332419"><ele>1.10</ele><time>2011-10-12T12:54:03Z</time></trkpt><trkpt lat="44.4117445406" lon="14.6039561927"><ele>1.10</ele><time>2011-10-12T12:54:33Z</time></trkpt><trkpt lat="44.4116474781" lon="14.6042778902"><ele>0.14</ele><time>2011-10-12T12:54:57Z</time></trkpt><trkpt lat="44.4115691073" lon="14.6046145912"><ele>0.14</ele><time>2011-10-12T12:55:21Z</time></trkpt><trkpt lat="44.4114759844" lon="14.6049764380"><ele>0.62</ele><time>2011-10-12T12:55:49Z</time></trkpt><trkpt lat="44.4114053249" lon="14.6053737402"><ele>-0.34</ele><time>2011-10-12T12:56:18Z</time></trkpt><trkpt lat="44.4113619905" lon="14.6057296358"><ele>0.62</ele><time>2011-10-12T12:56:43Z</time></trkpt><trkpt lat="44.4113277085" lon="14.6061684284"><ele>1.58</ele><time>2011-10-12T12:57:12Z</time></trkpt><trkpt lat="44.4112968631" lon="14.6065893676"><ele>1.58</ele><time>2011-10-12T12:57:39Z</time></trkpt><trkpt lat="44.4112738129" lon="14.6070152521"><ele>1.58</ele><time>2011-10-12T12:58:06Z</time></trkpt><trkpt lat="44.4111863058" lon="14.6073450800"><ele>2.06</ele><time>2011-10-12T12:58:28Z</time></trkpt><trkpt lat="44.4109503552" lon="14.6076598205"><ele>2.54</ele><time>2011-10-12T12:58:50Z</time></trkpt><trkpt lat="44.4105871674" lon="14.6079893131"><ele>2.54</ele><time>2011-10-12T12:59:16Z</time></trkpt><trkpt lat="44.4102053717" lon="14.6082592104"><ele>1.58</ele><time>2011-10-12T12:59:40Z</time></trkpt><trkpt lat="44.4098197203" lon="14.6085011121"><ele>1.10</ele><time>2011-10-12T13:00:02Z</time></trkpt><trkpt lat="44.4094561134" lon="14.6087832469"><ele>1.10</ele><time>2011-10-12T13:00:25Z</time></trkpt><trkpt lat="44.4091842044" lon="14.6091056988"><ele>1.10</ele><time>2011-10-12T13:00:47Z</time></trkpt><trkpt lat="44.4088772591" lon="14.6094564814"><ele>1.10</ele><time>2011-10-12T13:01:11Z</time></trkpt><trkpt lat="44.4086144865" lon="14.6097622532"><ele>0.14</ele><time>2011-10-12T13:01:33Z</time></trkpt><trkpt lat="44.4083471876" lon="14.6100686118"><ele>0.62</ele><time>2011-10-12T13:01:56Z</time></trkpt><trkpt lat="44.4081135001" lon="14.6103627328"><ele>0.14</ele><time>2011-10-12T13:02:18Z</time></trkpt><trkpt lat="44.4078726042" lon="14.6106568538"><ele>0.14</ele><time>2011-10-12T13:02:41Z</time></trkpt><trkpt lat="44.4076153636" lon="14.6109666489"><ele>0.14</ele><time>2011-10-12T13:03:05Z</time></trkpt><trkpt lat="44.4073434547" lon="14.6113322675"><ele>1.10</ele><time>2011-10-12T13:03:32Z</time></trkpt><trkpt lat="44.4070781674" lon="14.6116677951"><ele>1.58</ele><time>2011-10-12T13:03:59Z</time></trkpt><trkpt lat="44.4068076834" lon="14.6120081004"><ele>2.06</ele><time>2011-10-12T13:04:26Z</time></trkpt><trkpt lat="44.4065210223" lon="14.6123790834"><ele>1.58</ele><time>2011-10-12T13:04:56Z</time></trkpt><trkpt lat="44.4062485266" lon="14.6127138566"><ele>1.10</ele><time>2011-10-12T13:05:23Z</time></trkpt><trkpt lat="44.4059724268" lon="14.6131078061"><ele>1.58</ele><time>2011-10-12T13:05:53Z</time></trkpt><trkpt lat="44.4056692533" lon="14.6135393903"><ele>1.10</ele><time>2011-10-12T13:06:26Z</time></trkpt><trkpt lat="44.4053986017" lon="14.6139312442"><ele>0.62</ele><time>2011-10-12T13:06:57Z</time></trkpt><trkpt lat="44.4051293749" lon="14.6143360063"><ele>1.58</ele><time>2011-10-12T13:07:29Z</time></trkpt><trkpt lat="44.4048606511" lon="14.6147294529"><ele>1.10</ele><time>2011-10-12T13:07:59Z</time></trkpt><trkpt lat="44.4046046678" lon="14.6151289344"><ele>1.58</ele><time>2011-10-12T13:08:29Z</time></trkpt><trkpt lat="44.4043506123" lon="14.6154902782"><ele>2.06</ele><time>2011-10-12T13:08:58Z</time></trkpt><trkpt lat="44.4040909410" lon="14.6158571541"><ele>1.10</ele><time>2011-10-12T13:09:28Z</time></trkpt><trkpt lat="44.4038157631" lon="14.6162561327"><ele>0.62</ele><time>2011-10-12T13:10:00Z</time></trkpt><trkpt lat="44.4035798125" lon="14.6165971924"><ele>0.62</ele><time>2011-10-12T13:10:28Z</time></trkpt><trkpt lat="44.4033818319" lon="14.6168903913"><ele>0.14</ele><time>2011-10-12T13:10:54Z</time></trkpt><trkpt lat="44.4031875394" lon="14.6171916369"><ele>0.14</ele><time>2011-10-12T13:11:22Z</time></trkpt><trkpt lat="44.4029810093" lon="14.6174804773"><ele>0.14</ele><time>2011-10-12T13:11:51Z</time></trkpt><trkpt lat="44.4027629960" lon="14.6177660488"><ele>0.62</ele><time>2011-10-12T13:12:19Z</time></trkpt><trkpt lat="44.4025269616" lon="14.6180777717"><ele>1.10</ele><time>2011-10-12T13:12:50Z</time></trkpt><trkpt lat="44.4023252930" lon="14.6183413826"><ele>2.06</ele><time>2011-10-12T13:13:17Z</time></trkpt><trkpt lat="44.4021445792" lon="14.6185819432"><ele>2.54</ele><time>2011-10-12T13:13:43Z</time></trkpt><trkpt lat="44.4019664638" lon="14.6188357472"><ele>2.54</ele><time>2011-10-12T13:14:10Z</time></trkpt><trkpt lat="44.4017390627" lon="14.6191264316"><ele>2.06</ele><time>2011-10-12T13:14:43Z</time></trkpt><trkpt lat="44.4015336223" lon="14.6193580236"><ele>1.58</ele><time>2011-10-12T13:15:12Z</time></trkpt><trkpt lat="44.4013082329" lon="14.6196565870"><ele>1.58</ele><time>2011-10-12T13:15:48Z</time></trkpt><trkpt lat="44.4011006132" lon="14.6199239697"><ele>1.10</ele><time>2011-10-12T13:16:20Z</time></trkpt><trkpt lat="44.4009178877" lon="14.6201831382"><ele>1.10</ele><time>2011-10-12T13:16:48Z</time></trkpt><trkpt lat="44.4007128663" lon="14.6204694640"><ele>1.58</ele><time>2011-10-12T13:17:18Z</time></trkpt><trkpt lat="44.4005024806" lon="14.6207699552"><ele>1.58</ele><time>2011-10-12T13:17:49Z</time></trkpt><trkpt lat="44.4002817012" lon="14.6210562810"><ele>2.06</ele><time>2011-10-12T13:18:19Z</time></trkpt><trkpt lat="44.4000608381" lon="14.6213493124"><ele>1.58</ele><time>2011-10-12T13:18:48Z</time></trkpt><trkpt lat="44.3998249713" lon="14.6216570120"><ele>2.06</ele><time>2011-10-12T13:19:17Z</time></trkpt><trkpt lat="44.3996238895" lon="14.6219410747"><ele>1.10</ele><time>2011-10-12T13:19:45Z</time></trkpt><trkpt lat="44.3994157668" lon="14.6222393028"><ele>1.10</ele><time>2011-10-12T13:20:13Z</time></trkpt><trkpt lat="44.3992222287" lon="14.6225156542"><ele>2.06</ele><time>2011-10-12T13:20:39Z</time></trkpt><trkpt lat="44.3990089931" lon="14.6228436381"><ele>2.06</ele><time>2011-10-12T13:21:09Z</time></trkpt><trkpt lat="44.3988291174" lon="14.6231214143"><ele>2.06</ele><time>2011-10-12T13:21:34Z</time></trkpt><trkpt lat="44.3985287938" lon="14.6235242486"><ele>1.58</ele><time>2011-10-12T13:22:11Z</time></trkpt><trkpt lat="44.3982714694" lon="14.6238642186"><ele>1.10</ele><time>2011-10-12T13:22:44Z</time></trkpt><trkpt lat="44.3980571441" lon="14.6241623629"><ele>0.62</ele><time>2011-10-12T13:23:12Z</time></trkpt><trkpt lat="44.3978540506" lon="14.6244601719"><ele>0.62</ele><time>2011-10-12T13:23:39Z</time></trkpt><trkpt lat="44.3976254761" lon="14.6247858927"><ele>0.62</ele><time>2011-10-12T13:24:09Z</time></trkpt><trkpt lat="44.3974455167" lon="14.6250393614"><ele>0.14</ele><time>2011-10-12T13:24:33Z</time></trkpt><trkpt lat="44.3972652219" lon="14.6252912376"><ele>0.14</ele><time>2011-10-12T13:24:58Z</time></trkpt><trkpt lat="44.3970897887" lon="14.6255469695"><ele>0.14</ele><time>2011-10-12T13:25:21Z</time></trkpt><trkpt lat="44.3968660757" lon="14.6258483827"><ele>0.14</ele><time>2011-10-12T13:25:49Z</time></trkpt><trkpt lat="44.3966473080" lon="14.6261622012"><ele>0.62</ele><time>2011-10-12T13:26:19Z</time></trkpt><trkpt lat="44.3964697793" lon="14.6264481079"><ele>0.62</ele><time>2011-10-12T13:26:46Z</time></trkpt><trkpt lat="44.3963070028" lon="14.6267097071"><ele>0.62</ele><time>2011-10-12T13:27:11Z</time></trkpt><trkpt lat="44.3961074296" lon="14.6270008106"><ele>0.14</ele><time>2011-10-12T13:27:39Z</time></trkpt><trkpt lat="44.3958901707" lon="14.6273022238"><ele>-0.82</ele><time>2011-10-12T13:28:09Z</time></trkpt><trkpt lat="44.3956827186" lon="14.6276167966"><ele>-0.82</ele><time>2011-10-12T13:28:40Z</time></trkpt><trkpt lat="44.3955121469" lon="14.6279051341"><ele>-0.34</ele><time>2011-10-12T13:29:08Z</time></trkpt><trkpt lat="44.3953698222" lon="14.6281432640"><ele>0.62</ele><time>2011-10-12T13:29:31Z</time></trkpt><trkpt lat="44.3951630406" lon="14.6284733433"><ele>0.62</ele><time>2011-10-12T13:30:02Z</time></trkpt><trkpt lat="44.3949411716" lon="14.6288608387"><ele>1.10</ele><time>2011-10-12T13:30:36Z</time></trkpt><trkpt lat="44.3947452027" lon="14.6292076819"><ele>1.10</ele><time>2011-10-12T13:31:06Z</time></trkpt><trkpt lat="44.3944938295" lon="14.6296192333"><ele>1.10</ele><time>2011-10-12T13:31:42Z</time></trkpt><trkpt lat="44.3942714576" lon="14.6299382485"><ele>1.10</ele><time>2011-10-12T13:32:10Z</time></trkpt><trkpt lat="44.3940222636" lon="14.6302927192"><ele>0.14</ele><time>2011-10-12T13:32:40Z</time></trkpt><trkpt lat="44.3937975448" lon="14.6306459326"><ele>1.10</ele><time>2011-10-12T13:33:08Z</time></trkpt><trkpt lat="44.3935782742" lon="14.6309998166"><ele>1.10</ele><time>2011-10-12T13:33:37Z</time></trkpt><trkpt lat="44.3933789525" lon="14.6313385293"><ele>2.54</ele><time>2011-10-12T13:34:05Z</time></trkpt><trkpt lat="44.3931952212" lon="14.6316489112"><ele>2.54</ele><time>2011-10-12T13:34:32Z</time></trkpt><trkpt lat="44.3930137530" lon="14.6319428645"><ele>1.58</ele><time>2011-10-12T13:34:58Z</time></trkpt><trkpt lat="44.3928331230" lon="14.6322605386"><ele>1.58</ele><time>2011-10-12T13:35:27Z</time></trkpt><trkpt lat="44.3926857691" lon="14.6325319447"><ele>1.58</ele><time>2011-10-12T13:35:52Z</time></trkpt><trkpt lat="44.3925083242" lon="14.6328455955"><ele>1.10</ele><time>2011-10-12T13:36:23Z</time></trkpt><trkpt lat="44.3923404347" lon="14.6331644431"><ele>1.58</ele><time>2011-10-12T13:36:54Z</time></trkpt><trkpt lat="44.3922059890" lon="14.6334280539"><ele>1.58</ele><time>2011-10-12T13:37:19Z</time></trkpt><trkpt lat="44.3920531869" lon="14.6337147988"><ele>2.54</ele><time>2011-10-12T13:37:48Z</time></trkpt><trkpt lat="44.3918784242" lon="14.6340261027"><ele>1.10</ele><time>2011-10-12T13:38:20Z</time></trkpt><trkpt lat="44.3917123787" lon="14.6343359817"><ele>1.58</ele><time>2011-10-12T13:38:50Z</time></trkpt><trkpt lat="44.3915230315" lon="14.6346387360"><ele>2.54</ele><time>2011-10-12T13:39:20Z</time></trkpt><trkpt lat="44.3913046829" lon="14.6349801309"><ele>3.02</ele><time>2011-10-12T13:39:52Z</time></trkpt><trkpt lat="44.3910471071" lon="14.6353728231"><ele>2.06</ele><time>2011-10-12T13:40:25Z</time></trkpt><trkpt lat="44.3908405770" lon="14.6357258689"><ele>2.06</ele><time>2011-10-12T13:40:53Z</time></trkpt><trkpt lat="44.3905721046" lon="14.6361518372"><ele>3.02</ele><time>2011-10-12T13:41:23Z</time></trkpt><trkpt lat="44.3902995251" lon="14.6365306992"><ele>2.54</ele><time>2011-10-12T13:41:49Z</time></trkpt><trkpt lat="44.3899984471" lon="14.6369933803"><ele>2.06</ele><time>2011-10-12T13:42:17Z</time></trkpt><trkpt lat="44.3896260392" lon="14.6375812031"><ele>1.58</ele><time>2011-10-12T13:42:41Z</time></trkpt><trkpt lat="44.3892733287" lon="14.6381512564"><ele>2.06</ele><time>2011-10-12T13:43:02Z</time></trkpt><trkpt lat="44.3888204545" lon="14.6389511414"><ele>2.06</ele><time>2011-10-12T13:43:30Z</time></trkpt><trkpt lat="44.3884128425" lon="14.6396562271"><ele>2.06</ele><time>2011-10-12T13:43:55Z</time></trkpt><trkpt lat="44.3880470563" lon="14.6403180622"><ele>2.54</ele><time>2011-10-12T13:44:18Z</time></trkpt><trkpt lat="44.3876559567" lon="14.6410017740"><ele>2.06</ele><time>2011-10-12T13:44:42Z</time></trkpt><trkpt lat="44.3872273900" lon="14.6417319216"><ele>2.06</ele><time>2011-10-12T13:45:08Z</time></trkpt><trkpt lat="44.3867190275" lon="14.6425735485"><ele>2.54</ele><time>2011-10-12T13:45:38Z</time></trkpt><trkpt lat="44.3862142693" lon="14.6433638781"><ele>3.02</ele><time>2011-10-12T13:46:07Z</time></trkpt><trkpt lat="44.3857289571" lon="14.6441335883"><ele>2.54</ele><time>2011-10-12T13:46:35Z</time></trkpt><trkpt lat="44.3852574751" lon="14.6449164581"><ele>3.02</ele><time>2011-10-12T13:47:03Z</time></trkpt><trkpt lat="44.3848549761" lon="14.6455857530"><ele>3.98</ele><time>2011-10-12T13:47:27Z</time></trkpt><trkpt lat="44.3844523095" lon="14.6462089475"><ele>3.50</ele><time>2011-10-12T13:47:50Z</time></trkpt><trkpt lat="44.3839594536" lon="14.6469715331"><ele>3.02</ele><time>2011-10-12T13:48:18Z</time></trkpt><trkpt lat="44.3835167214" lon="14.6476997528"><ele>4.94</ele><time>2011-10-12T13:48:44Z</time></trkpt><trkpt lat="44.3831198383" lon="14.6483879909"><ele>3.98</ele><time>2011-10-12T13:49:08Z</time></trkpt><trkpt lat="44.3827354442" lon="14.6489915717"><ele>3.02</ele><time>2011-10-12T13:49:30Z</time></trkpt><trkpt lat="44.3823362142" lon="14.6496116649"><ele>2.54</ele><time>2011-10-12T13:49:53Z</time></trkpt><trkpt lat="44.3819650635" lon="14.6502069477"><ele>2.06</ele><time>2011-10-12T13:50:15Z</time></trkpt><trkpt lat="44.3815515004" lon="14.6508706268"><ele>3.02</ele><time>2011-10-12T13:50:39Z</time></trkpt><trkpt lat="44.3811010569" lon="14.6515897103"><ele>3.50</ele><time>2011-10-12T13:51:05Z</time></trkpt><trkpt lat="44.3805992324" lon="14.6523571573"><ele>3.98</ele><time>2011-10-12T13:51:33Z</time></trkpt><trkpt lat="44.3801428378" lon="14.6530643385"><ele>4.46</ele><time>2011-10-12T13:51:59Z</time></trkpt><trkpt lat="44.3796229921" lon="14.6538407542"><ele>5.91</ele><time>2011-10-12T13:52:28Z</time></trkpt><trkpt lat="44.3790971953" lon="14.6546561457"><ele>6.87</ele><time>2011-10-12T13:52:58Z</time></trkpt><trkpt lat="44.3785906769" lon="14.6554440446"><ele>6.87</ele><time>2011-10-12T13:53:27Z</time></trkpt><trkpt lat="44.3781882618" lon="14.6560750343"><ele>4.46</ele><time>2011-10-12T13:53:50Z</time></trkpt><trkpt lat="44.3777576834" lon="14.6567208599"><ele>3.50</ele><time>2011-10-12T13:54:14Z</time></trkpt><trkpt lat="44.3772592116" lon="14.6574202459"><ele>2.54</ele><time>2011-10-12T13:54:41Z</time></trkpt><trkpt lat="44.3767079338" lon="14.6582399961"><ele>2.06</ele><time>2011-10-12T13:55:12Z</time></trkpt><trkpt lat="44.3761540577" lon="14.6591070201"><ele>2.06</ele><time>2011-10-12T13:55:44Z</time></trkpt><trkpt lat="44.3756647222" lon="14.6598452143"><ele>2.06</ele><time>2011-10-12T13:56:12Z</time></trkpt><trkpt lat="44.3752019573" lon="14.6605759487"><ele>2.06</ele><time>2011-10-12T13:56:39Z</time></trkpt><trkpt lat="44.3747391086" lon="14.6612558048"><ele>2.54</ele><time>2011-10-12T13:57:05Z</time></trkpt><trkpt lat="44.3742418103" lon="14.6620320529"><ele>3.02</ele><time>2011-10-12T13:57:34Z</time></trkpt><trkpt lat="44.3737603538" lon="14.6628190298"><ele>3.02</ele><time>2011-10-12T13:58:03Z</time></trkpt><trkpt lat="44.3732250854" lon="14.6636340860"><ele>3.98</ele><time>2011-10-12T13:58:34Z</time></trkpt><trkpt lat="44.3726360891" lon="14.6644776408"><ele>3.98</ele><time>2011-10-12T13:59:07Z</time></trkpt><trkpt lat="44.3721886631" lon="14.6651524678"><ele>4.46</ele><time>2011-10-12T13:59:33Z</time></trkpt><trkpt lat="44.3716729246" lon="14.6659645066"><ele>4.46</ele><time>2011-10-12T14:00:04Z</time></trkpt><trkpt lat="44.3710970879" lon="14.6668524854"><ele>4.46</ele><time>2011-10-12T14:00:38Z</time></trkpt><trkpt lat="44.3705528509" lon="14.6676428989"><ele>3.50</ele><time>2011-10-12T14:01:09Z</time></trkpt><trkpt lat="44.3700192589" lon="14.6684105974"><ele>3.02</ele><time>2011-10-12T14:01:39Z</time></trkpt><trkpt lat="44.3695440888" lon="14.6691082232"><ele>3.98</ele><time>2011-10-12T14:02:06Z</time></trkpt><trkpt lat="44.3690465391" lon="14.6698889136"><ele>4.46</ele><time>2011-10-12T14:02:36Z</time></trkpt><trkpt lat="44.3684463948" lon="14.6708506532"><ele>4.46</ele><time>2011-10-12T14:03:12Z</time></trkpt><trkpt lat="44.3680216838" lon="14.6714972332"><ele>4.94</ele><time>2011-10-12T14:03:37Z</time></trkpt><trkpt lat="44.3675491959" lon="14.6721868962"><ele>5.91</ele><time>2011-10-12T14:04:04Z</time></trkpt><trkpt lat="44.3670779653" lon="14.6729320474"><ele>5.91</ele><time>2011-10-12T14:04:33Z</time></trkpt><trkpt lat="44.3665744644" lon="14.6737494506"><ele>5.91</ele><time>2011-10-12T14:05:04Z</time></trkpt><trkpt lat="44.3660315685" lon="14.6745998785"><ele>7.83</ele><time>2011-10-12T14:05:37Z</time></trkpt><trkpt lat="44.3655128125" lon="14.6753598657"><ele>6.87</ele><time>2011-10-12T14:06:07Z</time></trkpt><trkpt lat="44.3650221359" lon="14.6761079505"><ele>6.39</ele><time>2011-10-12T14:06:36Z</time></trkpt><trkpt lat="44.3645691779" lon="14.6768410318"><ele>6.87</ele><time>2011-10-12T14:07:04Z</time></trkpt><trkpt lat="44.3639995437" lon="14.6777562518"><ele>7.35</ele><time>2011-10-12T14:07:39Z</time></trkpt><trkpt lat="44.3635224458" lon="14.6784690488"><ele>6.87</ele><time>2011-10-12T14:08:07Z</time></trkpt><trkpt lat="44.3630839046" lon="14.6791447140"><ele>6.87</ele><time>2011-10-12T14:08:33Z</time></trkpt><trkpt lat="44.3626869377" lon="14.6798116621"><ele>7.35</ele><time>2011-10-12T14:08:58Z</time></trkpt><trkpt lat="44.3622111809" lon="14.6805073600"><ele>5.42</ele><time>2011-10-12T14:09:26Z</time></trkpt><trkpt lat="44.3617689516" lon="14.6812253539"><ele>7.35</ele><time>2011-10-12T14:09:53Z</time></trkpt><trkpt lat="44.3614448234" lon="14.6817465406"><ele>8.79</ele><time>2011-10-12T14:10:13Z</time></trkpt><trkpt lat="44.3610070366" lon="14.6824695636"><ele>7.35</ele><time>2011-10-12T14:10:40Z</time></trkpt><trkpt lat="44.3604788929" lon="14.6832702868"><ele>6.87</ele><time>2011-10-12T14:11:11Z</time></trkpt><trkpt lat="44.3600094225" lon="14.6840430982"><ele>6.39</ele><time>2011-10-12T14:11:40Z</time></trkpt><trkpt lat="44.3595287204" lon="14.6848377865"><ele>5.91</ele><time>2011-10-12T14:12:10Z</time></trkpt><trkpt lat="44.3590350263" lon="14.6856338158"><ele>4.46</ele><time>2011-10-12T14:12:40Z</time></trkpt><trkpt lat="44.3585543241" lon="14.6863601077"><ele>4.94</ele><time>2011-10-12T14:13:08Z</time></trkpt><trkpt lat="44.3580689281" lon="14.6871154848"><ele>3.50</ele><time>2011-10-12T14:13:37Z</time></trkpt><trkpt lat="44.3576269504" lon="14.6878196485"><ele>3.02</ele><time>2011-10-12T14:14:04Z</time></trkpt><trkpt lat="44.3571608327" lon="14.6885762829"><ele>2.54</ele><time>2011-10-12T14:14:32Z</time></trkpt><trkpt lat="44.3566488661" lon="14.6893785987"><ele>3.02</ele><time>2011-10-12T14:15:02Z</time></trkpt><trkpt lat="44.3561399169" lon="14.6901203971"><ele>4.46</ele><time>2011-10-12T14:15:31Z</time></trkpt><trkpt lat="44.3555577938" lon="14.6909458470"><ele>4.46</ele><time>2011-10-12T14:16:04Z</time></trkpt><trkpt lat="44.3550003972" lon="14.6918033995"><ele>3.98</ele><time>2011-10-12T14:16:37Z</time></trkpt><trkpt lat="44.3545177672" lon="14.6925722715"><ele>3.02</ele><time>2011-10-12T14:17:06Z</time></trkpt><trkpt lat="44.3539909646" lon="14.6934164967"><ele>3.50</ele><time>2011-10-12T14:17:37Z</time></trkpt><trkpt lat="44.3534194864" lon="14.6942976862"><ele>3.98</ele><time>2011-10-12T14:18:10Z</time></trkpt><trkpt lat="44.3529267143" lon="14.6950256545"><ele>4.46</ele><time>2011-10-12T14:18:38Z</time></trkpt><trkpt lat="44.3523999956" lon="14.6957997233"><ele>3.98</ele><time>2011-10-12T14:19:08Z</time></trkpt><trkpt lat="44.3519247416" lon="14.6964989416"><ele>3.50</ele><time>2011-10-12T14:19:35Z</time></trkpt><trkpt lat="44.3514502421" lon="14.6972076315"><ele>2.06</ele><time>2011-10-12T14:20:02Z</time></trkpt><trkpt lat="44.3509354256" lon="14.6980339196"><ele>1.58</ele><time>2011-10-12T14:20:32Z</time></trkpt><trkpt lat="44.3504330143" lon="14.6988500655"><ele>2.54</ele><time>2011-10-12T14:21:02Z</time></trkpt><trkpt lat="44.3498491310" lon="14.6997721586"><ele>3.98</ele><time>2011-10-12T14:21:36Z</time></trkpt><trkpt lat="44.3492394313" lon="14.7006725427"><ele>3.98</ele><time>2011-10-12T14:22:10Z</time></trkpt><trkpt lat="44.3487268779" lon="14.7014243156"><ele>3.50</ele><time>2011-10-12T14:22:39Z</time></trkpt><trkpt lat="44.3482265621" lon="14.7021531221"><ele>3.98</ele><time>2011-10-12T14:23:07Z</time></trkpt><trkpt lat="44.3477446027" lon="14.7028567828"><ele>3.98</ele><time>2011-10-12T14:23:34Z</time></trkpt><trkpt lat="44.3472179677" lon="14.7036021017"><ele>4.94</ele><time>2011-10-12T14:24:03Z</time></trkpt><trkpt lat="44.3467373494" lon="14.7043350153"><ele>3.98</ele><time>2011-10-12T14:24:30Z</time></trkpt><trkpt lat="44.3462064397" lon="14.7051210701"><ele>1.10</ele><time>2011-10-12T14:24:59Z</time></trkpt><trkpt lat="44.3457301799" lon="14.7058190312"><ele>-0.82</ele><time>2011-10-12T14:25:25Z</time></trkpt><trkpt lat="44.3451085780" lon="14.7067403700"><ele>-3.23</ele><time>2011-10-12T14:25:59Z</time></trkpt><trkpt lat="44.3446370121" lon="14.7075073980"><ele>-1.79</ele><time>2011-10-12T14:26:27Z</time></trkpt><trkpt lat="44.3441219442" lon="14.7083201073"><ele>-1.79</ele><time>2011-10-12T14:26:56Z</time></trkpt><trkpt lat="44.3437252287" lon="14.7089546174"><ele>-2.27</ele><time>2011-10-12T14:27:19Z</time></trkpt><trkpt lat="44.3432306126" lon="14.7097204719"><ele>-2.75</ele><time>2011-10-12T14:27:47Z</time></trkpt><trkpt lat="44.3427394331" lon="14.7103911918"><ele>-3.71</ele><time>2011-10-12T14:28:13Z</time></trkpt><trkpt lat="44.3422428891" lon="14.7111261170"><ele>-2.27</ele><time>2011-10-12T14:28:40Z</time></trkpt><trkpt lat="44.3417064473" lon="14.7119470406"><ele>-0.82</ele><time>2011-10-12T14:29:10Z</time></trkpt><trkpt lat="44.3412952311" lon="14.7125755157"><ele>-2.27</ele><time>2011-10-12T14:29:33Z</time></trkpt><trkpt lat="44.3410763796" lon="14.7129490133"><ele>-1.30</ele><time>2011-10-12T14:29:46Z</time></trkpt><trkpt lat="44.3405976892" lon="14.7136798315"><ele>-1.79</ele><time>2011-10-12T14:30:13Z</time></trkpt><trkpt lat="44.3401583098" lon="14.7143135872"><ele>-1.30</ele><time>2011-10-12T14:30:37Z</time></trkpt><trkpt lat="44.3397506140" lon="14.7148747556"><ele>-2.75</ele><time>2011-10-12T14:30:59Z</time></trkpt><trkpt lat="44.3393683154" lon="14.7153955232"><ele>-2.75</ele><time>2011-10-12T14:31:19Z</time></trkpt><trkpt lat="44.3388783932" lon="14.7160970885"><ele>-1.30</ele><time>2011-10-12T14:31:45Z</time></trkpt><trkpt lat="44.3383598886" lon="14.7168488614"><ele>-1.30</ele><time>2011-10-12T14:32:13Z</time></trkpt><trkpt lat="44.3377500214" lon="14.7177282069"><ele>-1.30</ele><time>2011-10-12T14:32:46Z</time></trkpt><trkpt lat="44.3371686526" lon="14.7185792215"><ele>-0.82</ele><time>2011-10-12T14:33:18Z</time></trkpt><trkpt lat="44.3365804106" lon="14.7193664499"><ele>-0.82</ele><time>2011-10-12T14:33:49Z</time></trkpt><trkpt lat="44.3360934220" lon="14.7198539414"><ele>-0.82</ele><time>2011-10-12T14:34:11Z</time></trkpt><trkpt lat="44.3354874104" lon="14.7204440273"><ele>-0.82</ele><time>2011-10-12T14:34:39Z</time></trkpt><trkpt lat="44.3348990008" lon="14.7210729215"><ele>-0.82</ele><time>2011-10-12T14:35:07Z</time></trkpt><trkpt lat="44.3343282770" lon="14.7216728143"><ele>-0.34</ele><time>2011-10-12T14:35:34Z</time></trkpt><trkpt lat="44.3337695394" lon="14.7222569492"><ele>-0.34</ele><time>2011-10-12T14:35:59Z</time></trkpt><trkpt lat="44.3330915272" lon="14.7228662297"><ele>-1.30</ele><time>2011-10-12T14:36:28Z</time></trkpt><trkpt lat="44.3323900457" lon="14.7235208564"><ele>-0.82</ele><time>2011-10-12T14:36:59Z</time></trkpt><trkpt lat="44.3318266980" lon="14.7240918316"><ele>-1.30</ele><time>2011-10-12T14:37:24Z</time></trkpt><trkpt lat="44.3312538788" lon="14.7247485537"><ele>-0.34</ele><time>2011-10-12T14:37:52Z</time></trkpt><trkpt lat="44.3307933770" lon="14.7252456844"><ele>-1.30</ele><time>2011-10-12T14:38:13Z</time></trkpt><trkpt lat="44.3300316297" lon="14.7260382771"><ele>-1.79</ele><time>2011-10-12T14:38:47Z</time></trkpt><trkpt lat="44.3294752389" lon="14.7266980167"><ele>-1.30</ele><time>2011-10-12T14:39:14Z</time></trkpt><trkpt lat="44.3288821355" lon="14.7274272423"><ele>-1.30</ele><time>2011-10-12T14:39:43Z</time></trkpt><trkpt lat="44.3282366451" lon="14.7282593977"><ele>-0.34</ele><time>2011-10-12T14:40:15Z</time></trkpt><trkpt lat="44.3276981916" lon="14.7289900482"><ele>-1.30</ele><time>2011-10-12T14:40:43Z</time></trkpt><trkpt lat="44.3271437287" lon="14.7296968102"><ele>-1.79</ele><time>2011-10-12T14:41:11Z</time></trkpt><trkpt lat="44.3265799619" lon="14.7304666881"><ele>-1.30</ele><time>2011-10-12T14:41:41Z</time></trkpt><trkpt lat="44.3260650616" lon="14.7312161140"><ele>-0.82</ele><time>2011-10-12T14:42:09Z</time></trkpt><trkpt lat="44.3255660869" lon="14.7319580801"><ele>-0.34</ele><time>2011-10-12T14:42:37Z</time></trkpt><trkpt lat="44.3249222729" lon="14.7328908183"><ele>-1.79</ele><time>2011-10-12T14:43:13Z</time></trkpt><trkpt lat="44.3243797123" lon="14.7336001787"><ele>-1.30</ele><time>2011-10-12T14:43:41Z</time></trkpt><trkpt lat="44.3238239083" lon="14.7344189230"><ele>-1.30</ele><time>2011-10-12T14:44:12Z</time></trkpt><trkpt lat="44.3233358301" lon="14.7351597995"><ele>-1.30</ele><time>2011-10-12T14:44:40Z</time></trkpt><trkpt lat="44.3228535354" lon="14.7358631250"><ele>0.62</ele><time>2011-10-12T14:45:08Z</time></trkpt><trkpt lat="44.3222344480" lon="14.7367060091"><ele>0.62</ele><time>2011-10-12T14:45:42Z</time></trkpt><trkpt lat="44.3216768838" lon="14.7374616377"><ele>0.14</ele><time>2011-10-12T14:46:13Z</time></trkpt><trkpt lat="44.3210849538" lon="14.7382455133"><ele>0.14</ele><time>2011-10-12T14:46:45Z</time></trkpt><trkpt lat="44.3205402978" lon="14.7389899101"><ele>0.14</ele><time>2011-10-12T14:47:15Z</time></trkpt><trkpt lat="44.3198712543" lon="14.7398900427"><ele>-0.34</ele><time>2011-10-12T14:47:51Z</time></trkpt><trkpt lat="44.3193239160" lon="14.7406429052"><ele>0.14</ele><time>2011-10-12T14:48:21Z</time></trkpt><trkpt lat="44.3187391106" lon="14.7414391022"><ele>0.14</ele><time>2011-10-12T14:48:53Z</time></trkpt><trkpt lat="44.3182618450" lon="14.7421553358"><ele>-0.82</ele><time>2011-10-12T14:49:20Z</time></trkpt><trkpt lat="44.3177337013" lon="14.7429423127"><ele>-1.30</ele><time>2011-10-12T14:49:50Z</time></trkpt><trkpt lat="44.3171888776" lon="14.7436903976"><ele>0.14</ele><time>2011-10-12T14:50:20Z</time></trkpt><trkpt lat="44.3166272063" lon="14.7444877680"><ele>1.10</ele><time>2011-10-12T14:50:51Z</time></trkpt><trkpt lat="44.3159795366" lon="14.7453985456"><ele>2.06</ele><time>2011-10-12T14:51:27Z</time></trkpt><trkpt lat="44.3154058792" lon="14.7462130990"><ele>2.06</ele><time>2011-10-12T14:51:59Z</time></trkpt><trkpt lat="44.3148933258" lon="14.7470042668"><ele>0.62</ele><time>2011-10-12T14:52:29Z</time></trkpt><trkpt lat="44.3143970333" lon="14.7477647569"><ele>1.10</ele><time>2011-10-12T14:52:58Z</time></trkpt><trkpt lat="44.3138177600" lon="14.7486718465"><ele>0.62</ele><time>2011-10-12T14:53:32Z</time></trkpt><trkpt lat="44.3131687492" lon="14.7496464103"><ele>0.14</ele><time>2011-10-12T14:54:09Z</time></trkpt><trkpt lat="44.3126606382" lon="14.7504117619"><ele>0.14</ele><time>2011-10-12T14:54:38Z</time></trkpt><trkpt lat="44.3121337518" lon="14.7511861660"><ele>0.14</ele><time>2011-10-12T14:55:08Z</time></trkpt><trkpt lat="44.3115062825" lon="14.7520857956"><ele>-0.34</ele><time>2011-10-12T14:55:43Z</time></trkpt><trkpt lat="44.3109511491" lon="14.7528866027"><ele>-1.30</ele><time>2011-10-12T14:56:14Z</time></trkpt><trkpt lat="44.3103330676" lon="14.7537636012"><ele>-0.34</ele><time>2011-10-12T14:56:48Z</time></trkpt><trkpt lat="44.3098003976" lon="14.7545800824"><ele>1.58</ele><time>2011-10-12T14:57:18Z</time></trkpt><trkpt lat="44.3091854174" lon="14.7554372996"><ele>1.58</ele><time>2011-10-12T14:57:52Z</time></trkpt><trkpt lat="44.3085938226" lon="14.7562788427"><ele>0.14</ele><time>2011-10-12T14:58:25Z</time></trkpt><trkpt lat="44.3080220092" lon="14.7570405900"><ele>-0.34</ele><time>2011-10-12T14:58:56Z</time></trkpt><trkpt lat="44.3073911034" lon="14.7578620166"><ele>-1.30</ele><time>2011-10-12T14:59:29Z</time></trkpt><trkpt lat="44.3067170307" lon="14.7587826010"><ele>-0.82</ele><time>2011-10-12T15:00:05Z</time></trkpt><trkpt lat="44.3061551917" lon="14.7596115712"><ele>1.10</ele><time>2011-10-12T15:00:36Z</time></trkpt><trkpt lat="44.3056129664" lon="14.7604364343"><ele>0.62</ele><time>2011-10-12T15:01:07Z</time></trkpt><trkpt lat="44.3051328510" lon="14.7611260135"><ele>0.14</ele><time>2011-10-12T15:01:34Z</time></trkpt><trkpt lat="44.3045553379" lon="14.7619062010"><ele>0.62</ele><time>2011-10-12T15:02:05Z</time></trkpt><trkpt lat="44.3040856998" lon="14.7625450697"><ele>0.14</ele><time>2011-10-12T15:02:30Z</time></trkpt><trkpt lat="44.3035339192" lon="14.7633668315"><ele>1.10</ele><time>2011-10-12T15:03:01Z</time></trkpt><trkpt lat="44.3029497005" lon="14.7642490268"><ele>1.10</ele><time>2011-10-12T15:03:34Z</time></trkpt><trkpt lat="44.3023484666" lon="14.7650958505"><ele>0.62</ele><time>2011-10-12T15:04:07Z</time></trkpt><trkpt lat="44.3017409462" lon="14.7659250721"><ele>1.58</ele><time>2011-10-12T15:04:39Z</time></trkpt><trkpt lat="44.3011207692" lon="14.7667698003"><ele>1.10</ele><time>2011-10-12T15:05:12Z</time></trkpt><trkpt lat="44.3005292583" lon="14.7675378341"><ele>0.14</ele><time>2011-10-12T15:05:43Z</time></trkpt><trkpt lat="44.2999513261" lon="14.7683778685"><ele>0.62</ele><time>2011-10-12T15:06:15Z</time></trkpt><trkpt lat="44.2993115354" lon="14.7693231795"><ele>0.14</ele><time>2011-10-12T15:06:51Z</time></trkpt><trkpt lat="44.2987052724" lon="14.7702198755"><ele>-0.34</ele><time>2011-10-12T15:07:25Z</time></trkpt><trkpt lat="44.2980637215" lon="14.7711303178"><ele>0.62</ele><time>2011-10-12T15:08:00Z</time></trkpt><trkpt lat="44.2973696161" lon="14.7720817477"><ele>1.10</ele><time>2011-10-12T15:08:38Z</time></trkpt><trkpt lat="44.2967125587" lon="14.7730014101"><ele>1.10</ele><time>2011-10-12T15:09:14Z</time></trkpt><trkpt lat="44.2961289268" lon="14.7738504969"><ele>0.62</ele><time>2011-10-12T15:09:47Z</time></trkpt><trkpt lat="44.2954240087" lon="14.7748605162"><ele>0.62</ele><time>2011-10-12T15:10:26Z</time></trkpt><trkpt lat="44.2948720604" lon="14.7756032366"><ele>0.14</ele><time>2011-10-12T15:10:56Z</time></trkpt><trkpt lat="44.2942514643" lon="14.7763962485"><ele>-0.34</ele><time>2011-10-12T15:11:29Z</time></trkpt><trkpt lat="44.2937126756" lon="14.7771473508"><ele>-1.30</ele><time>2011-10-12T15:11:59Z</time></trkpt><trkpt lat="44.2931266129" lon="14.7779130377"><ele>-0.82</ele><time>2011-10-12T15:12:30Z</time></trkpt><trkpt lat="44.2924363632" lon="14.7787839174"><ele>-0.82</ele><time>2011-10-12T15:13:06Z</time></trkpt><trkpt lat="44.2917997576" lon="14.7795580700"><ele>-0.34</ele><time>2011-10-12T15:13:39Z</time></trkpt><trkpt lat="44.2912499886" lon="14.7802061588"><ele>-1.30</ele><time>2011-10-12T15:14:07Z</time></trkpt><trkpt lat="44.2905587330" lon="14.7810718417"><ele>-0.82</ele><time>2011-10-12T15:14:43Z</time></trkpt><trkpt lat="44.2899332754" lon="14.7818757500"><ele>-1.30</ele><time>2011-10-12T15:15:16Z</time></trkpt><trkpt lat="44.2893552594" lon="14.7826856934"><ele>-0.82</ele><time>2011-10-12T15:15:48Z</time></trkpt><trkpt lat="44.2888228409" lon="14.7834185231"><ele>-0.82</ele><time>2011-10-12T15:16:17Z</time></trkpt><trkpt lat="44.2882102076" lon="14.7842358425"><ele>0.14</ele><time>2011-10-12T15:16:50Z</time></trkpt><trkpt lat="44.2874822393" lon="14.7852238175"><ele>0.14</ele><time>2011-10-12T15:17:30Z</time></trkpt><trkpt lat="44.2867593840" lon="14.7862091940"><ele>-0.34</ele><time>2011-10-12T15:18:10Z</time></trkpt><trkpt lat="44.2860498559" lon="14.7871292755"><ele>-0.82</ele><time>2011-10-12T15:18:48Z</time></trkpt><trkpt lat="44.2855388951" lon="14.7877553198"><ele>-1.79</ele><time>2011-10-12T15:19:15Z</time></trkpt><trkpt lat="44.2849764694" lon="14.7884396184"><ele>-1.79</ele><time>2011-10-12T15:19:44Z</time></trkpt><trkpt lat="44.2844554503" lon="14.7890848573"><ele>-1.79</ele><time>2011-10-12T15:20:11Z</time></trkpt><trkpt lat="44.2838916834" lon="14.7897896916"><ele>-0.82</ele><time>2011-10-12T15:20:40Z</time></trkpt><trkpt lat="44.2833775375" lon="14.7904284764"><ele>-0.82</ele><time>2011-10-12T15:21:07Z</time></trkpt><trkpt lat="44.2828897946" lon="14.7910941672"><ele>-0.82</ele><time>2011-10-12T15:21:34Z</time></trkpt><trkpt lat="44.2824538518" lon="14.7916845884"><ele>-1.79</ele><time>2011-10-12T15:21:58Z</time></trkpt><trkpt lat="44.2820021510" lon="14.7923098784"><ele>-1.79</ele><time>2011-10-12T15:22:23Z</time></trkpt><trkpt lat="44.2814270686" lon="14.7930868808"><ele>-1.30</ele><time>2011-10-12T15:22:54Z</time></trkpt><trkpt lat="44.2807998508" lon="14.7938737739"><ele>0.14</ele><time>2011-10-12T15:23:27Z</time></trkpt><trkpt lat="44.2802195717" lon="14.7946054302"><ele>0.14</ele><time>2011-10-12T15:23:57Z</time></trkpt><trkpt lat="44.2796902545" lon="14.7953508329"><ele>1.10</ele><time>2011-10-12T15:24:26Z</time></trkpt><trkpt lat="44.2792075407" lon="14.7959218081"><ele>0.14</ele><time>2011-10-12T15:24:51Z</time></trkpt><trkpt lat="44.2786483001" lon="14.7964849044"><ele>0.62</ele><time>2011-10-12T15:25:18Z</time></trkpt><trkpt lat="44.2780490778" lon="14.7970254533"><ele>0.62</ele><time>2011-10-12T15:25:46Z</time></trkpt><trkpt lat="44.2773089558" lon="14.7974976059"><ele>0.62</ele><time>2011-10-12T15:26:18Z</time></trkpt><trkpt lat="44.2766249925" lon="14.7979121748"><ele>0.62</ele><time>2011-10-12T15:26:47Z</time></trkpt><trkpt lat="44.2759610619" lon="14.7983358800"><ele>0.62</ele><time>2011-10-12T15:27:15Z</time></trkpt><trkpt lat="44.2751793656" lon="14.7988608386"><ele>0.62</ele><time>2011-10-12T15:27:49Z</time></trkpt><trkpt lat="44.2744671553" lon="14.7993280459"><ele>0.14</ele><time>2011-10-12T15:28:20Z</time></trkpt><trkpt lat="44.2738349922" lon="14.7997345682"><ele>-0.34</ele><time>2011-10-12T15:28:48Z</time></trkpt><trkpt lat="44.2729917727" lon="14.8001813237"><ele>-1.30</ele><time>2011-10-12T15:29:24Z</time></trkpt><trkpt lat="44.2721876968" lon="14.8006235529"><ele>-0.82</ele><time>2011-10-12T15:29:59Z</time></trkpt><trkpt lat="44.2714898195" lon="14.8008424044"><ele>-0.82</ele><time>2011-10-12T15:30:28Z</time></trkpt><trkpt lat="44.2707408965" lon="14.8010309134"><ele>0.62</ele><time>2011-10-12T15:30:59Z</time></trkpt><trkpt lat="44.2701979168" lon="14.8010920174"><ele>1.58</ele><time>2011-10-12T15:31:21Z</time></trkpt><trkpt lat="44.2695265263" lon="14.8010936100"><ele>2.54</ele><time>2011-10-12T15:31:49Z</time></trkpt><trkpt lat="44.2688812874" lon="14.8008387163"><ele>3.98</ele><time>2011-10-12T15:32:17Z</time></trkpt><trkpt lat="44.2683290038" lon="14.8004256561"><ele>3.98</ele><time>2011-10-12T15:32:44Z</time></trkpt><trkpt lat="44.2678041290" lon="14.7999472171"><ele>1.10</ele><time>2011-10-12T15:33:13Z</time></trkpt><trkpt lat="44.2673357483" lon="14.7994644195"><ele>1.10</ele><time>2011-10-12T15:33:46Z</time></trkpt><trkpt lat="44.2668649368" lon="14.7990717273"><ele>2.06</ele><time>2011-10-12T15:34:09Z</time></trkpt><trkpt lat="44.2665510345" lon="14.7984862514"><ele>3.02</ele><time>2011-10-12T15:34:30Z</time></trkpt><trkpt lat="44.2662656307" lon="14.7976804152"><ele>3.50</ele><time>2011-10-12T15:34:56Z</time></trkpt><trkpt lat="44.2661698256" lon="14.7969112080"><ele>3.02</ele><time>2011-10-12T15:35:19Z</time></trkpt><trkpt lat="44.2661836557" lon="14.7961991653"><ele>2.54</ele><time>2011-10-12T15:35:40Z</time></trkpt><trkpt lat="44.2661179416" lon="14.7953596339"><ele>4.46</ele><time>2011-10-12T15:36:04Z</time></trkpt><trkpt lat="44.2660267465" lon="14.7949787602"><ele>3.02</ele><time>2011-10-12T15:36:21Z</time></trkpt><trkpt lat="44.2657486349" lon="14.7951497510"><ele>1.10</ele><time>2011-10-12T15:36:37Z</time></trkpt><trkpt lat="44.2653019633" lon="14.7955989372"><ele>0.62</ele><time>2011-10-12T15:37:01Z</time></trkpt><trkpt lat="44.2648755759" lon="14.7958004382"><ele>1.10</ele><time>2011-10-12T15:37:21Z</time></trkpt><trkpt lat="44.2642360367" lon="14.7958418448"><ele>0.62</ele><time>2011-10-12T15:37:48Z</time></trkpt><trkpt lat="44.2636037059" lon="14.7960052919"><ele>0.14</ele><time>2011-10-12T15:38:15Z</time></trkpt><trkpt lat="44.2629992031" lon="14.7962919530"><ele>-0.82</ele><time>2011-10-12T15:38:41Z</time></trkpt><trkpt lat="44.2623595800" lon="14.7966974694"><ele>-0.34</ele><time>2011-10-12T15:39:12Z</time></trkpt><trkpt lat="44.2619120702" lon="14.7970386967"><ele>0.14</ele><time>2011-10-12T15:39:37Z</time></trkpt><trkpt lat="44.2616874352" lon="14.7974055726"><ele>1.10</ele><time>2011-10-12T15:39:59Z</time></trkpt><trkpt lat="44.2619176861" lon="14.7976510786"><ele>0.14</ele><time>2011-10-12T15:40:14Z</time></trkpt><trkpt lat="44.2621627729" lon="14.7973419540"><ele>0.62</ele><time>2011-10-12T15:40:29Z</time></trkpt><trkpt lat="44.2623672076" lon="14.7964750975"><ele>0.62</ele><time>2011-10-12T15:40:55Z</time></trkpt><trkpt lat="44.2626120429" lon="14.7954568639"><ele>0.62</ele><time>2011-10-12T15:41:25Z</time></trkpt><trkpt lat="44.2628719658" lon="14.7944250517"><ele>1.10</ele><time>2011-10-12T15:41:55Z</time></trkpt><trkpt lat="44.2630957626" lon="14.7935173754"><ele>0.14</ele><time>2011-10-12T15:42:22Z</time></trkpt><trkpt lat="44.2632367462" lon="14.7926165722"><ele>-1.79</ele><time>2011-10-12T15:42:48Z</time></trkpt><trkpt lat="44.2632118519" lon="14.7916161921"><ele>-0.34</ele><time>2011-10-12T15:43:16Z</time></trkpt><trkpt lat="44.2631653324" lon="14.7909208294"><ele>-0.34</ele><time>2011-10-12T15:43:37Z</time></trkpt><trkpt lat="44.2631135322" lon="14.7902814578"><ele>1.10</ele><time>2011-10-12T15:43:59Z</time></trkpt><trkpt lat="44.2629935034" lon="14.7896409966"><ele>3.98</ele><time>2011-10-12T15:44:25Z</time></trkpt><trkpt lat="44.2628013901" lon="14.7891649045"><ele>3.98</ele><time>2011-10-12T15:44:48Z</time></trkpt><trkpt lat="44.2624452431" lon="14.7885795962"><ele>4.46</ele><time>2011-10-12T15:45:19Z</time></trkpt><trkpt lat="44.2621784471" lon="14.7880304977"><ele>3.02</ele><time>2011-10-12T15:45:43Z</time></trkpt><trkpt lat="44.2620026786" lon="14.7871866915"><ele>3.02</ele><time>2011-10-12T15:46:10Z</time></trkpt><trkpt lat="44.2618650477" lon="14.7861243691"><ele>0.62</ele><time>2011-10-12T15:46:41Z</time></trkpt><trkpt lat="44.2618350405" lon="14.7852401622"><ele>2.06</ele><time>2011-10-12T15:47:05Z</time></trkpt><trkpt lat="44.2618982401" lon="14.7843952663"><ele>2.06</ele><time>2011-10-12T15:47:28Z</time></trkpt><trkpt lat="44.2621119786" lon="14.7833756078"><ele>1.58</ele><time>2011-10-12T15:47:56Z</time></trkpt><trkpt lat="44.2623310816" lon="14.7823957633"><ele>1.58</ele><time>2011-10-12T15:48:23Z</time></trkpt><trkpt lat="44.2625890765" lon="14.7813436668"><ele>1.58</ele><time>2011-10-12T15:48:52Z</time></trkpt><trkpt lat="44.2628322355" lon="14.7803529259"><ele>0.62</ele><time>2011-10-12T15:49:19Z</time></trkpt><trkpt lat="44.2631575372" lon="14.7792690620"><ele>0.62</ele><time>2011-10-12T15:49:50Z</time></trkpt><trkpt lat="44.2635900434" lon="14.7780899797"><ele>1.10</ele><time>2011-10-12T15:50:25Z</time></trkpt><trkpt lat="44.2639700789" lon="14.7770348657"><ele>0.62</ele><time>2011-10-12T15:50:56Z</time></trkpt><trkpt lat="44.2642828077" lon="14.7761528380"><ele>1.58</ele><time>2011-10-12T15:51:22Z</time></trkpt><trkpt lat="44.2646346800" lon="14.7752112150"><ele>2.54</ele><time>2011-10-12T15:51:50Z</time></trkpt><trkpt lat="44.2649208382" lon="14.7744736075"><ele>2.06</ele><time>2011-10-12T15:52:12Z</time></trkpt><trkpt lat="44.2650427110" lon="14.7739690170"><ele>1.58</ele><time>2011-10-12T15:52:27Z</time></trkpt><trkpt lat="44.2653810885" lon="14.7733124625"><ele>0.62</ele><time>2011-10-12T15:52:49Z</time></trkpt><trkpt lat="44.2658951506" lon="14.7724090610"><ele>-0.82</ele><time>2011-10-12T15:53:19Z</time></trkpt><trkpt lat="44.2664311733" lon="14.7714156378"><ele>-0.34</ele><time>2011-10-12T15:53:51Z</time></trkpt><trkpt lat="44.2669690400" lon="14.7705136612"><ele>-0.34</ele><time>2011-10-12T15:54:22Z</time></trkpt><trkpt lat="44.2675017100" lon="14.7696790751"><ele>-0.82</ele><time>2011-10-12T15:54:55Z</time></trkpt><trkpt lat="44.2681507207" lon="14.7688154038"><ele>-1.79</ele><time>2011-10-12T15:55:32Z</time></trkpt><trkpt lat="44.2687386274" lon="14.7680334561"><ele>-2.27</ele><time>2011-10-12T15:56:06Z</time></trkpt><trkpt lat="44.2692565452" lon="14.7673085891"><ele>-2.27</ele><time>2011-10-12T15:56:37Z</time></trkpt><trkpt lat="44.2694173101" lon="14.7668336704"><ele>-0.82</ele><time>2011-10-12T15:56:54Z</time></trkpt><trkpt lat="44.2690956965" lon="14.7668016516"><ele>0.14</ele><time>2011-10-12T15:57:06Z</time></trkpt><trkpt lat="44.2683035228" lon="14.7670655977"><ele>2.06</ele><time>2011-10-12T15:57:31Z</time></trkpt><trkpt lat="44.2674448807" lon="14.7674665879"><ele>2.06</ele><time>2011-10-12T15:57:59Z</time></trkpt><trkpt lat="44.2665916029" lon="14.7679776326"><ele>2.54</ele><time>2011-10-12T15:58:28Z</time></trkpt><trkpt lat="44.2657630518" lon="14.7684743442"><ele>2.54</ele><time>2011-10-12T15:58:56Z</time></trkpt><trkpt lat="44.2649288848" lon="14.7689271346"><ele>1.58</ele><time>2011-10-12T15:59:24Z</time></trkpt><trkpt lat="44.2641605996" lon="14.7693849541"><ele>1.58</ele><time>2011-10-12T15:59:50Z</time></trkpt><trkpt lat="44.2635093257" lon="14.7698808275"><ele>3.02</ele><time>2011-10-12T16:00:14Z</time></trkpt><trkpt lat="44.2627290543" lon="14.7706990689"><ele>3.02</ele><time>2011-10-12T16:00:45Z</time></trkpt><trkpt lat="44.2620104738" lon="14.7714668512"><ele>2.54</ele><time>2011-10-12T16:01:14Z</time></trkpt><trkpt lat="44.2613004427" lon="14.7722368129"><ele>2.06</ele><time>2011-10-12T16:01:43Z</time></trkpt><trkpt lat="44.2606223468" lon="14.7729775216"><ele>2.54</ele><time>2011-10-12T16:02:11Z</time></trkpt><trkpt lat="44.2600520421" lon="14.7735098563"><ele>3.02</ele><time>2011-10-12T16:02:33Z</time></trkpt><trkpt lat="44.2592803203" lon="14.7741819173"><ele>3.02</ele><time>2011-10-12T16:03:02Z</time></trkpt><trkpt lat="44.2585857119" lon="14.7747966461"><ele>3.02</ele><time>2011-10-12T16:03:28Z</time></trkpt><trkpt lat="44.2579382937" lon="14.7753775120"><ele>3.02</ele><time>2011-10-12T16:03:53Z</time></trkpt><trkpt lat="44.2572434340" lon="14.7760146204"><ele>2.54</ele><time>2011-10-12T16:04:20Z</time></trkpt><trkpt lat="44.2565910704" lon="14.7765923850"><ele>2.54</ele><time>2011-10-12T16:04:45Z</time></trkpt><trkpt lat="44.2558065243" lon="14.7772486880"><ele>2.06</ele><time>2011-10-12T16:05:14Z</time></trkpt><trkpt lat="44.2550555896" lon="14.7778946813"><ele>2.06</ele><time>2011-10-12T16:05:42Z</time></trkpt><trkpt lat="44.2542698700" lon="14.7785387468"><ele>2.54</ele><time>2011-10-12T16:06:11Z</time></trkpt><trkpt lat="44.2535450868" lon="14.7791395616"><ele>3.50</ele><time>2011-10-12T16:06:38Z</time></trkpt><trkpt lat="44.2527665757" lon="14.7797659412"><ele>4.46</ele><time>2011-10-12T16:07:07Z</time></trkpt><trkpt lat="44.2520656809" lon="14.7803882975"><ele>3.98</ele><time>2011-10-12T16:07:34Z</time></trkpt><trkpt lat="44.2512955517" lon="14.7810470313"><ele>3.50</ele><time>2011-10-12T16:08:03Z</time></trkpt><trkpt lat="44.2505580280" lon="14.7816354409"><ele>3.50</ele><time>2011-10-12T16:08:30Z</time></trkpt><trkpt lat="44.2498986237" lon="14.7821754031"><ele>2.54</ele><time>2011-10-12T16:08:54Z</time></trkpt><trkpt lat="44.2492621858" lon="14.7827509046"><ele>3.50</ele><time>2011-10-12T16:09:18Z</time></trkpt><trkpt lat="44.2486612033" lon="14.7833248973"><ele>3.98</ele><time>2011-10-12T16:09:41Z</time></trkpt><trkpt lat="44.2479800060" lon="14.7839650232"><ele>4.94</ele><time>2011-10-12T16:10:07Z</time></trkpt><trkpt lat="44.2473442387" lon="14.7845698614"><ele>4.46</ele><time>2011-10-12T16:10:31Z</time></trkpt><trkpt lat="44.2466109898" lon="14.7852947284"><ele>3.98</ele><time>2011-10-12T16:10:59Z</time></trkpt><trkpt lat="44.2459867895" lon="14.7859224491"><ele>3.98</ele><time>2011-10-12T16:11:23Z</time></trkpt><trkpt lat="44.2453621700" lon="14.7865612339"><ele>3.50</ele><time>2011-10-12T16:11:47Z</time></trkpt><trkpt lat="44.2445490416" lon="14.7872923035"><ele>3.50</ele><time>2011-10-12T16:12:17Z</time></trkpt><trkpt lat="44.2438918166" lon="14.7878963035"><ele>2.54</ele><time>2011-10-12T16:12:41Z</time></trkpt><trkpt lat="44.2432069313" lon="14.7885418776"><ele>3.02</ele><time>2011-10-12T16:13:06Z</time></trkpt><trkpt lat="44.2424541526" lon="14.7892733663"><ele>2.54</ele><time>2011-10-12T16:13:34Z</time></trkpt><trkpt lat="44.2418049742" lon="14.7898864187"><ele>3.02</ele><time>2011-10-12T16:13:58Z</time></trkpt><trkpt lat="44.2410262953" lon="14.7905760817"><ele>4.46</ele><time>2011-10-12T16:14:26Z</time></trkpt><trkpt lat="44.2403248139" lon="14.7912648227"><ele>3.50</ele><time>2011-10-12T16:14:52Z</time></trkpt><trkpt lat="44.2395870388" lon="14.7919389792"><ele>4.46</ele><time>2011-10-12T16:15:19Z</time></trkpt><trkpt lat="44.2388700508" lon="14.7925816197"><ele>3.98</ele><time>2011-10-12T16:15:45Z</time></trkpt><trkpt lat="44.2380607780" lon="14.7933570296"><ele>4.94</ele><time>2011-10-12T16:16:15Z</time></trkpt><trkpt lat="44.2373644095" lon="14.7940316889"><ele>4.94</ele><time>2011-10-12T16:16:41Z</time></trkpt><trkpt lat="44.2365683801" lon="14.7947197594"><ele>4.46</ele><time>2011-10-12T16:17:09Z</time></trkpt><trkpt lat="44.2358299345" lon="14.7953090072"><ele>3.98</ele><time>2011-10-12T16:17:35Z</time></trkpt><trkpt lat="44.2350296304" lon="14.7960104886"><ele>1.58</ele><time>2011-10-12T16:18:04Z</time></trkpt><trkpt lat="44.2342800368" lon="14.7967021633"><ele>1.10</ele><time>2011-10-12T16:18:32Z</time></trkpt><trkpt lat="44.2334956583" lon="14.7974047344"><ele>3.02</ele><time>2011-10-12T16:19:01Z</time></trkpt><trkpt lat="44.2327729706" lon="14.7980901226"><ele>3.02</ele><time>2011-10-12T16:19:28Z</time></trkpt><trkpt lat="44.2320251372" lon="14.7987812106"><ele>3.02</ele><time>2011-10-12T16:19:56Z</time></trkpt><trkpt lat="44.2313381564" lon="14.7993878089"><ele>3.02</ele><time>2011-10-12T16:20:21Z</time></trkpt><trkpt lat="44.2305641714" lon="14.8000172060"><ele>3.98</ele><time>2011-10-12T16:20:49Z</time></trkpt><trkpt lat="44.2297880910" lon="14.8006871715"><ele>3.02</ele><time>2011-10-12T16:21:18Z</time></trkpt><trkpt lat="44.2289975099" lon="14.8014489189"><ele>2.06</ele><time>2011-10-12T16:21:48Z</time></trkpt><trkpt lat="44.2282748222" lon="14.8020688444"><ele>2.54</ele><time>2011-10-12T16:22:14Z</time></trkpt><trkpt lat="44.2275237199" lon="14.8027759418"><ele>2.54</ele><time>2011-10-12T16:22:42Z</time></trkpt><trkpt lat="44.2267035507" lon="14.8034936842"><ele>2.54</ele><time>2011-10-12T16:23:12Z</time></trkpt><trkpt lat="44.2259340920" lon="14.8041421920"><ele>2.06</ele><time>2011-10-12T16:23:40Z</time></trkpt><trkpt lat="44.2251739372" lon="14.8047698289"><ele>3.02</ele><time>2011-10-12T16:24:07Z</time></trkpt><trkpt lat="44.2243142892" lon="14.8055192549"><ele>3.50</ele><time>2011-10-12T16:24:38Z</time></trkpt><trkpt lat="44.2234656215" lon="14.8061967641"><ele>3.98</ele><time>2011-10-12T16:25:08Z</time></trkpt><trkpt lat="44.2226718552" lon="14.8068336211"><ele>4.94</ele><time>2011-10-12T16:25:36Z</time></trkpt><trkpt lat="44.2218853813" lon="14.8074596655"><ele>5.42</ele><time>2011-10-12T16:26:04Z</time></trkpt><trkpt lat="44.2212380469" lon="14.8080183193"><ele>4.46</ele><time>2011-10-12T16:26:28Z</time></trkpt><trkpt lat="44.2205928080" lon="14.8085942399"><ele>3.02</ele><time>2011-10-12T16:26:53Z</time></trkpt><trkpt lat="44.2199358344" lon="14.8091203719"><ele>4.46</ele><time>2011-10-12T16:27:18Z</time></trkpt><trkpt lat="44.2192237917" lon="14.8096751701"><ele>5.91</ele><time>2011-10-12T16:27:45Z</time></trkpt><trkpt lat="44.2185032833" lon="14.8102669325"><ele>6.87</ele><time>2011-10-12T16:28:13Z</time></trkpt><trkpt lat="44.2178911529" lon="14.8107788153"><ele>6.87</ele><time>2011-10-12T16:28:37Z</time></trkpt><trkpt lat="44.2172486801" lon="14.8113313504"><ele>8.31</ele><time>2011-10-12T16:29:02Z</time></trkpt><trkpt lat="44.2165676504" lon="14.8119044211"><ele>7.35</ele><time>2011-10-12T16:29:26Z</time></trkpt><trkpt lat="44.2159392592" lon="14.8124344088"><ele>8.79</ele><time>2011-10-12T16:29:48Z</time></trkpt><trkpt lat="44.2153213453" lon="14.8129830044"><ele>8.79</ele><time>2011-10-12T16:30:10Z</time></trkpt><trkpt lat="44.2146379687" lon="14.8135937098"><ele>7.83</ele><time>2011-10-12T16:30:35Z</time></trkpt><trkpt lat="44.2140609585" lon="14.8141345102"><ele>7.83</ele><time>2011-10-12T16:30:57Z</time></trkpt><trkpt lat="44.2134976108" lon="14.8146430403"><ele>9.75</ele><time>2011-10-12T16:31:19Z</time></trkpt><trkpt lat="44.2128843907" lon="14.8151705135"><ele>6.87</ele><time>2011-10-12T16:31:43Z</time></trkpt><trkpt lat="44.2122980766" lon="14.8156694882"><ele>6.87</ele><time>2011-10-12T16:32:06Z</time></trkpt><trkpt lat="44.2116880417" lon="14.8161884956"><ele>7.83</ele><time>2011-10-12T16:32:30Z</time></trkpt><trkpt lat="44.2110067606" lon="14.8167706188"><ele>6.39</ele><time>2011-10-12T16:32:57Z</time></trkpt><trkpt lat="44.2104470171" lon="14.8172338866"><ele>4.94</ele><time>2011-10-12T16:33:19Z</time></trkpt><trkpt lat="44.2097967491" lon="14.8177457694"><ele>1.58</ele><time>2011-10-12T16:33:43Z</time></trkpt><trkpt lat="44.2091105226" lon="14.8182571493"><ele>1.10</ele><time>2011-10-12T16:34:06Z</time></trkpt><trkpt lat="44.2084421497" lon="14.8187645897"><ele>0.14</ele><time>2011-10-12T16:34:29Z</time></trkpt><trkpt lat="44.2077036202" lon="14.8193909694"><ele>-0.82</ele><time>2011-10-12T16:34:55Z</time></trkpt><trkpt lat="44.2068918329" lon="14.8200539779"><ele>-0.34</ele><time>2011-10-12T16:35:23Z</time></trkpt><trkpt lat="44.2061438318" lon="14.8206323292"><ele>-1.79</ele><time>2011-10-12T16:35:49Z</time></trkpt><trkpt lat="44.2054830026" lon="14.8211596347"><ele>-0.82</ele><time>2011-10-12T16:36:12Z</time></trkpt><trkpt lat="44.2048151325" lon="14.8216956574"><ele>-2.27</ele><time>2011-10-12T16:36:36Z</time></trkpt><trkpt lat="44.2040419020" lon="14.8223329335"><ele>-3.71</ele><time>2011-10-12T16:37:03Z</time></trkpt><trkpt lat="44.2033828329" lon="14.8228719737"><ele>-1.79</ele><time>2011-10-12T16:37:26Z</time></trkpt><trkpt lat="44.2027199082" lon="14.8234351538"><ele>-2.75</ele><time>2011-10-12T16:37:50Z</time></trkpt><trkpt lat="44.2020683829" lon="14.8239855934"><ele>-2.27</ele><time>2011-10-12T16:38:14Z</time></trkpt><trkpt lat="44.2014062125" lon="14.8246642761"><ele>-0.82</ele><time>2011-10-12T16:38:40Z</time></trkpt><trkpt lat="44.2008063197" lon="14.8254582100"><ele>1.58</ele><time>2011-10-12T16:39:07Z</time></trkpt><trkpt lat="44.2002241965" lon="14.8262612801"><ele>1.58</ele><time>2011-10-12T16:39:33Z</time></trkpt><trkpt lat="44.1996625252" lon="14.8270573094"><ele>1.10</ele><time>2011-10-12T16:39:58Z</time></trkpt><trkpt lat="44.1991661489" lon="14.8277627304"><ele>2.54</ele><time>2011-10-12T16:40:20Z</time></trkpt><trkpt lat="44.1986322217" lon="14.8285050318"><ele>1.58</ele><time>2011-10-12T16:40:44Z</time></trkpt><trkpt lat="44.1981918365" lon="14.8294523545"><ele>-0.82</ele><time>2011-10-12T16:41:10Z</time></trkpt><trkpt lat="44.1978573985" lon="14.8304013535"><ele>0.62</ele><time>2011-10-12T16:41:33Z</time></trkpt><trkpt lat="44.1974566597" lon="14.8314824514"><ele>0.14</ele><time>2011-10-12T16:41:59Z</time></trkpt><trkpt lat="44.1971046198" lon="14.8325897846"><ele>1.10</ele><time>2011-10-12T16:42:25Z</time></trkpt><trkpt lat="44.1968440264" lon="14.8338712100"><ele>0.62</ele><time>2011-10-12T16:42:54Z</time></trkpt><trkpt lat="44.1966234986" lon="14.8351826426"><ele>0.14</ele><time>2011-10-12T16:43:23Z</time></trkpt><trkpt lat="44.1965345666" lon="14.8364463821"><ele>-0.34</ele><time>2011-10-12T16:43:50Z</time></trkpt><trkpt lat="44.1965856962" lon="14.8376628477"><ele>-1.79</ele><time>2011-10-12T16:44:16Z</time></trkpt><trkpt lat="44.1967815813" lon="14.8389215581"><ele>-2.27</ele><time>2011-10-12T16:44:44Z</time></trkpt><trkpt lat="44.1969842557" lon="14.8399239499"><ele>-1.79</ele><time>2011-10-12T16:45:07Z</time></trkpt><trkpt lat="44.1973502096" lon="14.8411469534"><ele>0.14</ele><time>2011-10-12T16:45:36Z</time></trkpt><trkpt lat="44.1977857333" lon="14.8421179969"><ele>0.14</ele><time>2011-10-12T16:46:01Z</time></trkpt><trkpt lat="44.1983011365" lon="14.8428227473"><ele>2.06</ele><time>2011-10-12T16:46:23Z</time></trkpt><trkpt lat="44.1990493890" lon="14.8435553256"><ele>1.58</ele><time>2011-10-12T16:46:51Z</time></trkpt><trkpt lat="44.1998430714" lon="14.8441357724"><ele>1.58</ele><time>2011-10-12T16:47:19Z</time></trkpt><trkpt lat="44.2007685173" lon="14.8446101882"><ele>1.10</ele><time>2011-10-12T16:47:49Z</time></trkpt><trkpt lat="44.2015007604" lon="14.8447799217"><ele>2.54</ele><time>2011-10-12T16:48:12Z</time></trkpt><trkpt lat="44.2024803534" lon="14.8446340766"><ele>3.02</ele><time>2011-10-12T16:48:43Z</time></trkpt><trkpt lat="44.2035797238" lon="14.8443426378"><ele>2.54</ele><time>2011-10-12T16:49:19Z</time></trkpt><trkpt lat="44.2046977859" lon="14.8440870736"><ele>2.06</ele><time>2011-10-12T16:49:55Z</time></trkpt><trkpt lat="44.2055599485" lon="14.8438921105"><ele>1.10</ele><time>2011-10-12T16:50:22Z</time></trkpt><trkpt lat="44.2065568082" lon="14.8436787073"><ele>0.62</ele><time>2011-10-12T16:50:51Z</time></trkpt><trkpt lat="44.2075235769" lon="14.8434557486"><ele>1.58</ele><time>2011-10-12T16:51:21Z</time></trkpt><trkpt lat="44.2084027547" lon="14.8431909643"><ele>2.54</ele><time>2011-10-12T16:51:49Z</time></trkpt><trkpt lat="44.2093959264" lon="14.8428804986"><ele>2.06</ele><time>2011-10-12T16:52:21Z</time></trkpt><trkpt lat="44.2103682272" lon="14.8425080068"><ele>0.14</ele><time>2011-10-12T16:52:52Z</time></trkpt><trkpt lat="44.2114376742" lon="14.8421300668"><ele>1.58</ele><time>2011-10-12T16:53:26Z</time></trkpt><trkpt lat="44.2126309220" lon="14.8417313397"><ele>1.58</ele><time>2011-10-12T16:54:04Z</time></trkpt><trkpt lat="44.2136898916" lon="14.8412789684"><ele>2.54</ele><time>2011-10-12T16:54:38Z</time></trkpt><trkpt lat="44.2147636972" lon="14.8407576978"><ele>2.06</ele><time>2011-10-12T16:55:14Z</time></trkpt><trkpt lat="44.2157952581" lon="14.8401789274"><ele>1.10</ele><time>2011-10-12T16:55:50Z</time></trkpt><trkpt lat="44.2166834883" lon="14.8395947088"><ele>0.14</ele><time>2011-10-12T16:56:22Z</time></trkpt><trkpt lat="44.2176738102" lon="14.8388870247"><ele>-0.82</ele><time>2011-10-12T16:56:59Z</time></trkpt><trkpt lat="44.2184974160" lon="14.8383390158"><ele>0.14</ele><time>2011-10-12T16:57:30Z</time></trkpt><trkpt lat="44.2192502785" lon="14.8379257880"><ele>-0.82</ele><time>2011-10-12T16:58:01Z</time></trkpt><trkpt lat="44.2199128680" lon="14.8379324097"><ele>1.10</ele><time>2011-10-12T16:58:32Z</time></trkpt><trkpt lat="44.2204257566" lon="14.8378539551"><ele>0.62</ele><time>2011-10-12T16:58:57Z</time></trkpt><trkpt lat="44.2208929639" lon="14.8372938763"><ele>1.10</ele><time>2011-10-12T16:59:28Z</time></trkpt><trkpt lat="44.2212944571" lon="14.8366062250"><ele>2.06</ele><time>2011-10-12T17:00:03Z</time></trkpt><trkpt lat="44.2215589061" lon="14.8360302206"><ele>1.58</ele><time>2011-10-12T17:00:32Z</time></trkpt><trkpt lat="44.2217880674" lon="14.8358059209"><ele>0.14</ele><time>2011-10-12T17:00:58Z</time></trkpt><trkpt lat="44.2218832858" lon="14.8357474990"><ele>-0.82</ele><time>2011-10-12T17:01:31Z</time></trkpt><trkpt lat="44.2218852974" lon="14.8357454035"><ele>-0.82</ele><time>2011-10-12T17:02:09Z</time></trkpt><trkpt lat="44.2218898237" lon="14.8357326631"><ele>-0.82</ele><time>2011-10-12T17:02:43Z</time></trkpt><trkpt lat="44.2218898237" lon="14.8357326631"><ele>-0.82</ele><time>2011-10-12T17:03:06Z</time></trkpt><trkpt lat="44.2218900751" lon="14.8357248679"><ele>-0.34</ele><time>2011-10-12T17:03:38Z</time></trkpt><trkpt lat="44.2218942661" lon="14.8357223533"><ele>-0.34</ele><time>2011-10-12T17:04:05Z</time></trkpt><trkpt lat="44.2218923382" lon="14.8357080203"><ele>-0.34</ele><time>2011-10-12T17:04:38Z</time></trkpt><trkpt lat="44.2218923382" lon="14.8357080203"><ele>-0.34</ele><time>2011-10-12T17:05:12Z</time></trkpt><trkpt lat="44.2218927573" lon="14.8357023206"><ele>-0.34</ele><time>2011-10-12T17:05:47Z</time></trkpt><trkpt lat="44.2219002172" lon="14.8357000574"><ele>-0.34</ele><time>2011-10-12T17:06:18Z</time></trkpt><trkpt lat="44.2219046596" lon="14.8357035778"><ele>-0.34</ele><time>2011-10-12T17:06:47Z</time></trkpt><trkpt lat="44.2219046596" lon="14.8357035778"><ele>-0.34</ele><time>2011-10-12T17:07:15Z</time></trkpt><trkpt lat="44.2219047435" lon="14.8357093614"><ele>0.14</ele><time>2011-10-12T17:07:39Z</time></trkpt><trkpt lat="44.2219044082" lon="14.8357094452"><ele>0.14</ele><time>2011-10-12T17:07:46Z</time></trkpt><trkpt lat="44.2220987007" lon="14.8355715629"><ele>-5.15</ele><time>2011-10-12T21:49:48Z</time></trkpt><trkpt lat="44.2220708728" lon="14.8356216867"><ele>-0.34</ele><time>2011-10-12T21:50:06Z</time></trkpt><trkpt lat="44.2220558692" lon="14.8355709761"><ele>2.54</ele><time>2011-10-12T21:50:41Z</time></trkpt><trkpt lat="44.2220323998" lon="14.8355962895"><ele>4.94</ele><time>2011-10-12T21:50:58Z</time></trkpt><trkpt lat="44.2220297176" lon="14.8355893325"><ele>5.42</ele><time>2011-10-12T21:50:59Z</time></trkpt><trkpt lat="44.2220437154" lon="14.8355821241"><ele>2.54</ele><time>2011-10-12T21:51:10Z</time></trkpt><trkpt lat="44.2220323160" lon="14.8355955351"><ele>0.62</ele><time>2011-10-12T21:51:36Z</time></trkpt><trkpt lat="44.2220338248" lon="14.8355967086"><ele>3.02</ele><time>2011-10-12T21:51:58Z</time></trkpt><trkpt lat="44.2220329866" lon="14.8355901707"><ele>3.02</ele><time>2011-10-12T21:52:24Z</time></trkpt><trkpt lat="44.2220325675" lon="14.8355885781"><ele>3.50</ele><time>2011-10-12T21:52:45Z</time></trkpt><trkpt lat="44.2220325675" lon="14.8355885781"><ele>3.50</ele><time>2011-10-12T21:53:13Z</time></trkpt><trkpt lat="44.2220366746" lon="14.8355795257"><ele>3.02</ele><time>2011-10-12T21:53:31Z</time></trkpt><trkpt lat="44.2220391054" lon="14.8355790228"><ele>3.02</ele><time>2011-10-12T21:54:06Z</time></trkpt><trkpt lat="44.2220395245" lon="14.8355804477"><ele>3.02</ele><time>2011-10-12T21:54:37Z</time></trkpt><trkpt lat="44.2220395245" lon="14.8355804477"><ele>3.02</ele><time>2011-10-12T21:55:12Z</time></trkpt><trkpt lat="44.2220422067" lon="14.8355793580"><ele>3.50</ele><time>2011-10-12T21:55:43Z</time></trkpt><trkpt lat="44.2220428772" lon="14.8355796095"><ele>3.50</ele><time>2011-10-12T21:56:16Z</time></trkpt><trkpt lat="44.2220437154" lon="14.8355762567"><ele>3.50</ele><time>2011-10-12T21:56:47Z</time></trkpt><trkpt lat="44.2220442183" lon="14.8355732393"><ele>3.50</ele><time>2011-10-12T21:57:17Z</time></trkpt><trkpt lat="44.2220442183" lon="14.8355732393"><ele>3.50</ele><time>2011-10-12T21:57:47Z</time></trkpt><trkpt lat="44.2220440507" lon="14.8355713114"><ele>3.50</ele><time>2011-10-12T21:58:15Z</time></trkpt><trkpt lat="44.2220436316" lon="14.8355703894"><ele>3.98</ele><time>2011-10-12T21:58:43Z</time></trkpt><trkpt lat="44.2220436316" lon="14.8355703894"><ele>3.98</ele><time>2011-10-12T21:59:09Z</time></trkpt><trkpt lat="44.2220409494" lon="14.8355685454"><ele>3.98</ele><time>2011-10-12T21:59:38Z</time></trkpt><trkpt lat="44.2220391054" lon="14.8355651926"><ele>4.46</ele><time>2011-10-12T22:00:02Z</time></trkpt><trkpt lat="44.2220391054" lon="14.8355651926"><ele>4.46</ele><time>2011-10-12T22:00:28Z</time></trkpt><trkpt lat="44.2220426258" lon="14.8355629295"><ele>4.46</ele><time>2011-10-12T22:00:59Z</time></trkpt><trkpt lat="44.2220413685" lon="14.8355620075"><ele>4.46</ele><time>2011-10-12T22:01:30Z</time></trkpt><trkpt lat="44.2220391892" lon="14.8355623428"><ele>4.46</ele><time>2011-10-12T22:02:04Z</time></trkpt><trkpt lat="44.2220349982" lon="14.8355596606"><ele>4.46</ele><time>2011-10-12T22:02:37Z</time></trkpt><trkpt lat="44.2220349982" lon="14.8355596606"><ele>4.46</ele><time>2011-10-12T22:03:08Z</time></trkpt><trkpt lat="44.2220329866" lon="14.8355587386"><ele>4.46</ele><time>2011-10-12T22:03:39Z</time></trkpt><trkpt lat="44.2220323998" lon="14.8355553020"><ele>4.94</ele><time>2011-10-12T22:04:07Z</time></trkpt><trkpt lat="44.2220323998" lon="14.8355553020"><ele>4.94</ele><time>2011-10-12T22:04:34Z</time></trkpt><trkpt lat="44.2220325675" lon="14.8355548829"><ele>4.94</ele><time>2011-10-12T22:05:04Z</time></trkpt><trkpt lat="44.2220345791" lon="14.8355538771"><ele>4.94</ele><time>2011-10-12T22:05:36Z</time></trkpt><trkpt lat="44.2220304720" lon="14.8355518654"><ele>4.46</ele><time>2011-10-12T22:06:06Z</time></trkpt><trkpt lat="44.2220273707" lon="14.8355533741"><ele>4.46</ele><time>2011-10-12T22:06:38Z</time></trkpt><trkpt lat="44.2220273707" lon="14.8355533741"><ele>4.46</ele><time>2011-10-12T22:07:10Z</time></trkpt><trkpt lat="44.2220259458" lon="14.8355520330"><ele>4.46</ele><time>2011-10-12T22:07:37Z</time></trkpt><trkpt lat="44.2220247723" lon="14.8355508596"><ele>4.46</ele><time>2011-10-12T22:08:05Z</time></trkpt><trkpt lat="44.2220247723" lon="14.8355508596"><ele>4.46</ele><time>2011-10-12T22:08:34Z</time></trkpt><trkpt lat="44.2220226768" lon="14.8355504405"><ele>4.46</ele><time>2011-10-12T22:09:04Z</time></trkpt><trkpt lat="44.2220216710" lon="14.8355513625"><ele>4.46</ele><time>2011-10-12T22:09:31Z</time></trkpt><trkpt lat="44.2220199108" lon="14.8355527874"><ele>4.46</ele><time>2011-10-12T22:09:59Z</time></trkpt><trkpt lat="44.2220199108" lon="14.8355527874"><ele>4.46</ele><time>2011-10-12T22:10:25Z</time></trkpt><trkpt lat="44.2220194917" lon="14.8355496861"><ele>3.98</ele><time>2011-10-12T22:10:53Z</time></trkpt><trkpt lat="44.2220172286" lon="14.8355459981"><ele>3.98</ele><time>2011-10-12T22:11:19Z</time></trkpt><trkpt lat="44.2220172286" lon="14.8355459981"><ele>3.98</ele><time>2011-10-12T22:11:45Z</time></trkpt><trkpt lat="44.2220163066" lon="14.8355470877"><ele>3.50</ele><time>2011-10-12T22:12:12Z</time></trkpt><trkpt lat="44.2220155522" lon="14.8355506081"><ele>3.50</ele><time>2011-10-12T22:12:41Z</time></trkpt><trkpt lat="44.2220155522" lon="14.8355506081"><ele>3.50</ele><time>2011-10-12T22:13:05Z</time></trkpt><trkpt lat="44.2220142949" lon="14.8355500214"><ele>3.50</ele><time>2011-10-12T22:13:28Z</time></trkpt><trkpt lat="44.2220142949" lon="14.8355500214"><ele>3.50</ele><time>2011-10-12T22:13:52Z</time></trkpt><trkpt lat="44.2220147979" lon="14.8355498537"><ele>3.50</ele><time>2011-10-12T22:14:20Z</time></trkpt><trkpt lat="44.2220151331" lon="14.8355485126"><ele>3.50</ele><time>2011-10-12T22:14:49Z</time></trkpt><trkpt lat="44.2220153008" lon="14.8355522845"><ele>3.50</ele><time>2011-10-12T22:15:15Z</time></trkpt><trkpt lat="44.2220153008" lon="14.8355522845"><ele>3.50</ele><time>2011-10-12T22:15:45Z</time></trkpt><trkpt lat="44.2220134567" lon="14.8355542123"><ele>3.50</ele><time>2011-10-12T22:16:11Z</time></trkpt><trkpt lat="44.2220142111" lon="14.8355542962"><ele>3.50</ele><time>2011-10-12T22:16:35Z</time></trkpt><trkpt lat="44.2220142111" lon="14.8355542962"><ele>3.50</ele><time>2011-10-12T22:17:01Z</time></trkpt><trkpt lat="44.2220163066" lon="14.8355570622"><ele>3.50</ele><time>2011-10-12T22:17:24Z</time></trkpt><trkpt lat="44.2220163066" lon="14.8355570622"><ele>3.50</ele><time>2011-10-12T22:17:45Z</time></trkpt><trkpt lat="44.2220173962" lon="14.8355570622"><ele>3.50</ele><time>2011-10-12T22:18:03Z</time></trkpt><trkpt lat="44.2220173962" lon="14.8355570622"><ele>3.50</ele><time>2011-10-12T22:18:26Z</time></trkpt><trkpt lat="44.2220173124" lon="14.8355547152"><ele>3.50</ele><time>2011-10-12T22:18:52Z</time></trkpt><trkpt lat="44.2220160551" lon="14.8355485126"><ele>3.50</ele><time>2011-10-12T22:19:16Z</time></trkpt><trkpt lat="44.2220160551" lon="14.8355485126"><ele>3.50</ele><time>2011-10-12T22:19:39Z</time></trkpt><trkpt lat="44.2220137082" lon="14.8355471715"><ele>3.02</ele><time>2011-10-12T22:20:06Z</time></trkpt><trkpt lat="44.2220137082" lon="14.8355471715"><ele>3.02</ele><time>2011-10-12T22:20:32Z</time></trkpt><trkpt lat="44.2220133729" lon="14.8355501890"><ele>3.50</ele><time>2011-10-12T22:21:02Z</time></trkpt><trkpt lat="44.2220139597" lon="14.8355506919"><ele>3.50</ele><time>2011-10-12T22:21:31Z</time></trkpt><trkpt lat="44.2220109422" lon="14.8355529550"><ele>3.98</ele><time>2011-10-12T22:22:02Z</time></trkpt><trkpt lat="44.2220109422" lon="14.8355529550"><ele>3.98</ele><time>2011-10-12T22:22:29Z</time></trkpt><trkpt lat="44.2220106907" lon="14.8355497699"><ele>3.98</ele><time>2011-10-12T22:22:57Z</time></trkpt><trkpt lat="44.2220120318" lon="14.8355506081"><ele>3.98</ele><time>2011-10-12T22:23:20Z</time></trkpt><trkpt lat="44.2220120318" lon="14.8355506081"><ele>3.98</ele><time>2011-10-12T22:23:43Z</time></trkpt><trkpt lat="44.2220128700" lon="14.8355520330"><ele>3.98</ele><time>2011-10-12T22:24:07Z</time></trkpt><trkpt lat="44.2220128700" lon="14.8355520330"><ele>3.98</ele><time>2011-10-12T22:24:29Z</time></trkpt><trkpt lat="44.2220149655" lon="14.8355503567"><ele>3.98</ele><time>2011-10-12T22:24:57Z</time></trkpt><trkpt lat="44.2220160551" lon="14.8355499376"><ele>3.98</ele><time>2011-10-12T22:25:26Z</time></trkpt><trkpt lat="44.2220143788" lon="14.8355476744"><ele>3.98</ele><time>2011-10-12T22:25:56Z</time></trkpt><trkpt lat="44.2220143788" lon="14.8355476744"><ele>3.98</ele><time>2011-10-12T22:26:25Z</time></trkpt><trkpt lat="44.2220141273" lon="14.8355487641"><ele>3.98</ele><time>2011-10-12T22:26:52Z</time></trkpt><trkpt lat="44.2220174801" lon="14.8355506919"><ele>3.98</ele><time>2011-10-12T22:27:17Z</time></trkpt><trkpt lat="44.2220174801" lon="14.8355506919"><ele>3.98</ele><time>2011-10-12T22:27:36Z</time></trkpt><trkpt lat="44.2220207490" lon="14.8355500214"><ele>3.98</ele><time>2011-10-12T22:28:03Z</time></trkpt><trkpt lat="44.2220207490" lon="14.8355500214"><ele>3.98</ele><time>2011-10-12T22:28:31Z</time></trkpt><trkpt lat="44.2220189050" lon="14.8355522007"><ele>3.98</ele><time>2011-10-12T22:29:01Z</time></trkpt><trkpt lat="44.2220192403" lon="14.8355482612"><ele>3.50</ele><time>2011-10-12T22:29:26Z</time></trkpt><trkpt lat="44.2220204137" lon="14.8355496861"><ele>3.50</ele><time>2011-10-12T22:29:55Z</time></trkpt><trkpt lat="44.2220204137" lon="14.8355496861"><ele>3.50</ele><time>2011-10-12T22:30:19Z</time></trkpt><trkpt lat="44.2220248561" lon="14.8355516139"><ele>3.98</ele><time>2011-10-12T22:30:41Z</time></trkpt><trkpt lat="44.2220248561" lon="14.8355516139"><ele>3.98</ele><time>2011-10-12T22:31:04Z</time></trkpt><trkpt lat="44.2220312264" lon="14.8355509434"><ele>3.50</ele><time>2011-10-12T22:31:29Z</time></trkpt><trkpt lat="44.2220375966" lon="14.8355568107"><ele>3.02</ele><time>2011-10-12T22:31:58Z</time></trkpt><trkpt lat="44.2220375966" lon="14.8355568107"><ele>3.02</ele><time>2011-10-12T22:32:20Z</time></trkpt><trkpt lat="44.2220406141" lon="14.8355584871"><ele>2.54</ele><time>2011-10-12T22:32:48Z</time></trkpt><trkpt lat="44.2220406141" lon="14.8355584871"><ele>2.54</ele><time>2011-10-12T22:33:11Z</time></trkpt><trkpt lat="44.2220406979" lon="14.8355554696"><ele>3.02</ele><time>2011-10-12T22:33:41Z</time></trkpt><trkpt lat="44.2220428772" lon="14.8355573136"><ele>3.02</ele><time>2011-10-12T22:34:13Z</time></trkpt><trkpt lat="44.2220407818" lon="14.8355585709"><ele>3.02</ele><time>2011-10-12T22:34:43Z</time></trkpt><trkpt lat="44.2220407818" lon="14.8355585709"><ele>3.02</ele><time>2011-10-12T22:35:10Z</time></trkpt><trkpt lat="44.2220463138" lon="14.8355604988"><ele>3.02</ele><time>2011-10-12T22:35:37Z</time></trkpt><trkpt lat="44.2220551148" lon="14.8355699703"><ele>3.02</ele><time>2011-10-12T22:36:07Z</time></trkpt><trkpt lat="44.2220587190" lon="14.8355714791"><ele>3.02</ele><time>2011-10-12T22:36:36Z</time></trkpt><trkpt lat="44.2220587190" lon="14.8355714791"><ele>3.02</ele><time>2011-10-12T22:37:02Z</time></trkpt><trkpt lat="44.2220588867" lon="14.8355686292"><ele>3.50</ele><time>2011-10-12T22:37:25Z</time></trkpt><trkpt lat="44.2220588867" lon="14.8355686292"><ele>3.50</ele><time>2011-10-12T22:37:52Z</time></trkpt><trkpt lat="44.2220589705" lon="14.8355674557"><ele>3.50</ele><time>2011-10-12T22:38:22Z</time></trkpt><trkpt lat="44.2220572941" lon="14.8355669528"><ele>3.98</ele><time>2011-10-12T22:38:51Z</time></trkpt><trkpt lat="44.2220621556" lon="14.8355696350"><ele>3.98</ele><time>2011-10-12T22:39:17Z</time></trkpt><trkpt lat="44.2220621556" lon="14.8355696350"><ele>3.98</ele><time>2011-10-12T22:39:38Z</time></trkpt><trkpt lat="44.2220645025" lon="14.8355737422"><ele>3.50</ele><time>2011-10-12T22:40:05Z</time></trkpt><trkpt lat="44.2220648378" lon="14.8355687130"><ele>3.98</ele><time>2011-10-12T22:40:36Z</time></trkpt><trkpt lat="44.2220648378" lon="14.8355687130"><ele>3.98</ele><time>2011-10-12T22:41:01Z</time></trkpt><trkpt lat="44.2220641673" lon="14.8355661985"><ele>4.46</ele><time>2011-10-12T22:41:26Z</time></trkpt><trkpt lat="44.2220641673" lon="14.8355661985"><ele>4.46</ele><time>2011-10-12T22:41:49Z</time></trkpt><trkpt lat="44.2220584676" lon="14.8355678748"><ele>4.94</ele><time>2011-10-12T22:42:16Z</time></trkpt><trkpt lat="44.2220580485" lon="14.8355672043"><ele>4.46</ele><time>2011-10-12T22:42:41Z</time></trkpt><trkpt lat="44.2220580485" lon="14.8355672043"><ele>4.46</ele><time>2011-10-12T22:43:05Z</time></trkpt><trkpt lat="44.2220598087" lon="14.8355669528"><ele>4.46</ele><time>2011-10-12T22:43:26Z</time></trkpt><trkpt lat="44.2220598087" lon="14.8355669528"><ele>4.46</ele><time>2011-10-12T22:43:47Z</time></trkpt><trkpt lat="44.2220622394" lon="14.8355708085"><ele>3.98</ele><time>2011-10-12T22:44:12Z</time></trkpt><trkpt lat="44.2220626585" lon="14.8355661985"><ele>3.98</ele><time>2011-10-12T22:44:38Z</time></trkpt><trkpt lat="44.2220626585" lon="14.8355661985"><ele>3.98</ele><time>2011-10-12T22:45:05Z</time></trkpt><trkpt lat="44.2220588028" lon="14.8355653603"><ele>3.98</ele><time>2011-10-12T22:45:28Z</time></trkpt><trkpt lat="44.2220588028" lon="14.8355653603"><ele>3.98</ele><time>2011-10-12T22:45:51Z</time></trkpt><trkpt lat="44.2220546957" lon="14.8355636001"><ele>3.98</ele><time>2011-10-12T22:46:19Z</time></trkpt><trkpt lat="44.2220500857" lon="14.8355645221"><ele>3.98</ele><time>2011-10-12T22:46:50Z</time></trkpt><trkpt lat="44.2220536899" lon="14.8355646059"><ele>3.98</ele><time>2011-10-12T22:47:19Z</time></trkpt><trkpt lat="44.2220536899" lon="14.8355646059"><ele>3.98</ele><time>2011-10-12T22:47:49Z</time></trkpt><trkpt lat="44.2220584676" lon="14.8355700541"><ele>3.50</ele><time>2011-10-12T22:48:15Z</time></trkpt><trkpt lat="44.2220563721" lon="14.8355655279"><ele>3.50</ele><time>2011-10-12T22:48:44Z</time></trkpt><trkpt lat="44.2220521811" lon="14.8355617560"><ele>3.50</ele><time>2011-10-12T22:49:15Z</time></trkpt><trkpt lat="44.2220521811" lon="14.8355617560"><ele>3.50</ele><time>2011-10-12T22:49:43Z</time></trkpt><trkpt lat="44.2220484093" lon="14.8355582356"><ele>3.50</ele><time>2011-10-12T22:50:14Z</time></trkpt><trkpt lat="44.2220450565" lon="14.8355536256"><ele>3.50</ele><time>2011-10-12T22:50:43Z</time></trkpt><trkpt lat="44.2220450565" lon="14.8355536256"><ele>3.50</ele><time>2011-10-12T22:51:08Z</time></trkpt><trkpt lat="44.2220443860" lon="14.8355522007"><ele>3.98</ele><time>2011-10-12T22:51:34Z</time></trkpt><trkpt lat="44.2220457271" lon="14.8355514463"><ele>3.98</ele><time>2011-10-12T22:51:58Z</time></trkpt><trkpt lat="44.2220457271" lon="14.8355514463"><ele>3.98</ele><time>2011-10-12T22:52:28Z</time></trkpt><trkpt lat="44.2220472358" lon="14.8355508596"><ele>3.98</ele><time>2011-10-12T22:52:53Z</time></trkpt><trkpt lat="44.2220465653" lon="14.8355463333"><ele>3.98</ele><time>2011-10-12T22:53:17Z</time></trkpt><trkpt lat="44.2220465653" lon="14.8355463333"><ele>3.98</ele><time>2011-10-12T22:53:45Z</time></trkpt><trkpt lat="44.2220420390" lon="14.8355441540"><ele>3.98</ele><time>2011-10-12T22:54:15Z</time></trkpt><trkpt lat="44.2220415361" lon="14.8355455790"><ele>3.98</ele><time>2011-10-12T22:54:43Z</time></trkpt><trkpt lat="44.2220415361" lon="14.8355455790"><ele>3.98</ele><time>2011-10-12T22:55:12Z</time></trkpt><trkpt lat="44.2220401112" lon="14.8355483450"><ele>3.50</ele><time>2011-10-12T22:55:43Z</time></trkpt><trkpt lat="44.2220386025" lon="14.8355470039"><ele>3.50</ele><time>2011-10-12T22:56:11Z</time></trkpt><trkpt lat="44.2220368423" lon="14.8355485965"><ele>3.02</ele><time>2011-10-12T22:56:42Z</time></trkpt><trkpt lat="44.2220386863" lon="14.8355485965"><ele>3.02</ele><time>2011-10-12T22:57:17Z</time></trkpt><trkpt lat="44.2220386863" lon="14.8355485965"><ele>3.02</ele><time>2011-10-12T22:57:41Z</time></trkpt><trkpt lat="44.2220357526" lon="14.8355440702"><ele>2.54</ele><time>2011-10-12T22:58:14Z</time></trkpt><trkpt lat="44.2220355012" lon="14.8355478421"><ele>2.06</ele><time>2011-10-12T22:58:45Z</time></trkpt><trkpt lat="44.2220355012" lon="14.8355478421"><ele>2.06</ele><time>2011-10-12T22:59:13Z</time></trkpt><trkpt lat="44.2220402788" lon="14.8355515301"><ele>2.06</ele><time>2011-10-12T22:59:44Z</time></trkpt><trkpt lat="44.2220420390" lon="14.8355528712"><ele>1.58</ele><time>2011-10-12T23:00:13Z</time></trkpt><trkpt lat="44.2220426258" lon="14.8355529550"><ele>1.58</ele><time>2011-10-12T23:00:40Z</time></trkpt><trkpt lat="44.2220426258" lon="14.8355529550"><ele>1.58</ele><time>2011-10-12T23:01:05Z</time></trkpt><trkpt lat="44.2220370937" lon="14.8355496023"><ele>1.10</ele><time>2011-10-12T23:01:36Z</time></trkpt><trkpt lat="44.2220360041" lon="14.8355492670"><ele>1.10</ele><time>2011-10-12T23:02:06Z</time></trkpt><trkpt lat="44.2220360041" lon="14.8355492670"><ele>1.10</ele><time>2011-10-12T23:02:29Z</time></trkpt><trkpt lat="44.2220377643" lon="14.8355512787"><ele>1.10</ele><time>2011-10-12T23:02:53Z</time></trkpt><trkpt lat="44.2220398597" lon="14.8355558049"><ele>0.62</ele><time>2011-10-12T23:03:21Z</time></trkpt><trkpt lat="44.2220398597" lon="14.8355558049"><ele>0.62</ele><time>2011-10-12T23:03:52Z</time></trkpt><trkpt lat="44.2220433801" lon="14.8355620913"><ele>0.62</ele><time>2011-10-12T23:04:18Z</time></trkpt><trkpt lat="44.2220489122" lon="14.8355642706"><ele>0.62</ele><time>2011-10-12T23:04:46Z</time></trkpt><trkpt lat="44.2220510077" lon="14.8355637677"><ele>1.10</ele><time>2011-10-12T23:05:15Z</time></trkpt><trkpt lat="44.2220510077" lon="14.8355637677"><ele>1.10</ele><time>2011-10-12T23:05:43Z</time></trkpt><trkpt lat="44.2220509239" lon="14.8355596606"><ele>1.10</ele><time>2011-10-12T23:06:08Z</time></trkpt><trkpt lat="44.2220509239" lon="14.8355596606"><ele>1.10</ele><time>2011-10-12T23:06:32Z</time></trkpt><trkpt lat="44.2220513429" lon="14.8355579004"><ele>0.62</ele><time>2011-10-12T23:06:59Z</time></trkpt><trkpt lat="44.2220546957" lon="14.8355593253"><ele>0.62</ele><time>2011-10-12T23:07:31Z</time></trkpt><trkpt lat="44.2220612336" lon="14.8355637677"><ele>0.62</ele><time>2011-10-12T23:08:04Z</time></trkpt><trkpt lat="44.2220612336" lon="14.8355637677"><ele>0.62</ele><time>2011-10-12T23:08:31Z</time></trkpt><trkpt lat="44.2220630776" lon="14.8355672881"><ele>0.14</ele><time>2011-10-12T23:08:57Z</time></trkpt><trkpt lat="44.2220636643" lon="14.8355678748"><ele>0.62</ele><time>2011-10-12T23:09:21Z</time></trkpt><trkpt lat="44.2220636643" lon="14.8355678748"><ele>0.62</ele><time>2011-10-12T23:09:50Z</time></trkpt><trkpt lat="44.2220590543" lon="14.8355654441"><ele>0.62</ele><time>2011-10-12T23:10:15Z</time></trkpt><trkpt lat="44.2220570426" lon="14.8355636839"><ele>0.62</ele><time>2011-10-12T23:10:40Z</time></trkpt><trkpt lat="44.2220570426" lon="14.8355636839"><ele>0.62</ele><time>2011-10-12T23:11:09Z</time></trkpt><trkpt lat="44.2220547795" lon="14.8355589900"><ele>0.62</ele><time>2011-10-12T23:11:34Z</time></trkpt><trkpt lat="44.2220547795" lon="14.8355601635"><ele>0.14</ele><time>2011-10-12T23:12:00Z</time></trkpt><trkpt lat="44.2220547795" lon="14.8355601635"><ele>0.14</ele><time>2011-10-12T23:12:29Z</time></trkpt><trkpt lat="44.2220583837" lon="14.8355630971"><ele>0.14</ele><time>2011-10-12T23:12:55Z</time></trkpt><trkpt lat="44.2220594734" lon="14.8355643544"><ele>-0.34</ele><time>2011-10-12T23:13:24Z</time></trkpt><trkpt lat="44.2220594734" lon="14.8355643544"><ele>-0.34</ele><time>2011-10-12T23:13:49Z</time></trkpt><trkpt lat="44.2220554501" lon="14.8355598282"><ele>-0.34</ele><time>2011-10-12T23:14:13Z</time></trkpt><trkpt lat="44.2220498342" lon="14.8355538771"><ele>-0.34</ele><time>2011-10-12T23:14:39Z</time></trkpt><trkpt lat="44.2220498342" lon="14.8355538771"><ele>-0.34</ele><time>2011-10-12T23:15:02Z</time></trkpt><trkpt lat="44.2220455594" lon="14.8355529550"><ele>-0.34</ele><time>2011-10-12T23:15:28Z</time></trkpt><trkpt lat="44.2220442183" lon="14.8355522007"><ele>-0.34</ele><time>2011-10-12T23:15:59Z</time></trkpt><trkpt lat="44.2220442183" lon="14.8355522007"><ele>-0.34</ele><time>2011-10-12T23:16:27Z</time></trkpt><trkpt lat="44.2220483255" lon="14.8355505243"><ele>-0.82</ele><time>2011-10-12T23:16:55Z</time></trkpt><trkpt lat="44.2220521811" lon="14.8355561402"><ele>-0.82</ele><time>2011-10-12T23:17:24Z</time></trkpt><trkpt lat="44.2220521811" lon="14.8355561402"><ele>-0.82</ele><time>2011-10-12T23:17:51Z</time></trkpt><trkpt lat="44.2220525164" lon="14.8355593253"><ele>-0.82</ele><time>2011-10-12T23:18:21Z</time></trkpt><trkpt lat="44.2220510915" lon="14.8355574813"><ele>-0.82</ele><time>2011-10-12T23:18:44Z</time></trkpt><trkpt lat="44.2220510915" lon="14.8355574813"><ele>-0.82</ele><time>2011-10-12T23:19:11Z</time></trkpt><trkpt lat="44.2220484093" lon="14.8355537094"><ele>-1.30</ele><time>2011-10-12T23:19:35Z</time></trkpt><trkpt lat="44.2220464814" lon="14.8355563916"><ele>-1.30</ele><time>2011-10-12T23:19:59Z</time></trkpt><trkpt lat="44.2220464814" lon="14.8355563916"><ele>-1.30</ele><time>2011-10-12T23:20:28Z</time></trkpt><trkpt lat="44.2220429610" lon="14.8355527036"><ele>-1.30</ele><time>2011-10-12T23:20:56Z</time></trkpt><trkpt lat="44.2220427096" lon="14.8355524521"><ele>-0.82</ele><time>2011-10-12T23:21:25Z</time></trkpt><trkpt lat="44.2220427096" lon="14.8355524521"><ele>-0.82</ele><time>2011-10-12T23:21:52Z</time></trkpt><trkpt lat="44.2220413685" lon="14.8355549667"><ele>-1.30</ele><time>2011-10-12T23:22:25Z</time></trkpt><trkpt lat="44.2220427096" lon="14.8355580680"><ele>-0.82</ele><time>2011-10-12T23:22:54Z</time></trkpt><trkpt lat="44.2220462300" lon="14.8355577327"><ele>-0.82</ele><time>2011-10-12T23:23:24Z</time></trkpt><trkpt lat="44.2220462300" lon="14.8355577327"><ele>-0.82</ele><time>2011-10-12T23:23:52Z</time></trkpt><trkpt lat="44.2220462300" lon="14.8355551343"><ele>-0.82</ele><time>2011-10-12T23:24:18Z</time></trkpt><trkpt lat="44.2220402788" lon="14.8355505243"><ele>-0.34</ele><time>2011-10-12T23:24:47Z</time></trkpt><trkpt lat="44.2220402788" lon="14.8355505243"><ele>-0.34</ele><time>2011-10-12T23:25:14Z</time></trkpt><trkpt lat="44.2220410332" lon="14.8355478421"><ele>-0.34</ele><time>2011-10-12T23:25:37Z</time></trkpt><trkpt lat="44.2220392730" lon="14.8355404660"><ele>0.14</ele><time>2011-10-12T23:26:01Z</time></trkpt><trkpt lat="44.2220392730" lon="14.8355404660"><ele>0.14</ele><time>2011-10-12T23:26:28Z</time></trkpt><trkpt lat="44.2220391892" lon="14.8355414718"><ele>0.14</ele><time>2011-10-12T23:26:54Z</time></trkpt><trkpt lat="44.2220413685" lon="14.8355436511"><ele>-0.34</ele><time>2011-10-12T23:27:18Z</time></trkpt><trkpt lat="44.2220413685" lon="14.8355436511"><ele>-0.34</ele><time>2011-10-12T23:27:40Z</time></trkpt><trkpt lat="44.2220441345" lon="14.8355460819"><ele>-0.34</ele><time>2011-10-12T23:28:04Z</time></trkpt><trkpt lat="44.2220441345" lon="14.8355460819"><ele>-0.34</ele><time>2011-10-12T23:28:31Z</time></trkpt><trkpt lat="44.2220454756" lon="14.8355482612"><ele>-0.82</ele><time>2011-10-12T23:28:58Z</time></trkpt><trkpt lat="44.2220456433" lon="14.8355474230"><ele>-0.82</ele><time>2011-10-12T23:29:24Z</time></trkpt><trkpt lat="44.2220456433" lon="14.8355474230"><ele>-0.82</ele><time>2011-10-12T23:29:48Z</time></trkpt><trkpt lat="44.2220431287" lon="14.8355426453"><ele>-0.82</ele><time>2011-10-12T23:30:12Z</time></trkpt><trkpt lat="44.2220401950" lon="14.8355435673"><ele>-0.82</ele><time>2011-10-12T23:30:39Z</time></trkpt><trkpt lat="44.2220401950" lon="14.8355435673"><ele>-0.82</ele><time>2011-10-12T23:31:00Z</time></trkpt><trkpt lat="44.2220309749" lon="14.8355335090"><ele>-0.82</ele><time>2011-10-12T23:31:22Z</time></trkpt><trkpt lat="44.2220309749" lon="14.8355335090"><ele>-0.82</ele><time>2011-10-12T23:31:48Z</time></trkpt><trkpt lat="44.2220269516" lon="14.8355349340"><ele>-0.34</ele><time>2011-10-12T23:32:14Z</time></trkpt><trkpt lat="44.2220262811" lon="14.8355344310"><ele>-0.34</ele><time>2011-10-12T23:32:40Z</time></trkpt><trkpt lat="44.2220262811" lon="14.8355344310"><ele>-0.34</ele><time>2011-10-12T23:33:02Z</time></trkpt><trkpt lat="44.2220193241" lon="14.8355311621"><ele>0.14</ele><time>2011-10-12T23:33:28Z</time></trkpt><trkpt lat="44.2220193241" lon="14.8355311621"><ele>0.14</ele><time>2011-10-12T23:33:52Z</time></trkpt><trkpt lat="44.2220163066" lon="14.8355319165"><ele>0.14</ele><time>2011-10-12T23:34:19Z</time></trkpt><trkpt lat="44.2220103554" lon="14.8355294019"><ele>0.14</ele><time>2011-10-12T23:34:45Z</time></trkpt><trkpt lat="44.2220103554" lon="14.8355294019"><ele>0.14</ele><time>2011-10-12T23:35:09Z</time></trkpt><trkpt lat="44.2220056616" lon="14.8355315812"><ele>0.62</ele><time>2011-10-12T23:35:34Z</time></trkpt><trkpt lat="44.2220056616" lon="14.8355325032"><ele>0.14</ele><time>2011-10-12T23:36:03Z</time></trkpt><trkpt lat="44.2220078409" lon="14.8355414718"><ele>0.14</ele><time>2011-10-12T23:36:35Z</time></trkpt><trkpt lat="44.2220078409" lon="14.8355414718"><ele>0.14</ele><time>2011-10-12T23:37:04Z</time></trkpt><trkpt lat="44.2220099363" lon="14.8355424777"><ele>0.14</ele><time>2011-10-12T23:37:35Z</time></trkpt><trkpt lat="44.2220086791" lon="14.8355426453"><ele>-0.34</ele><time>2011-10-12T23:38:01Z</time></trkpt><trkpt lat="44.2220086791" lon="14.8355426453"><ele>-0.34</ele><time>2011-10-12T23:38:25Z</time></trkpt><trkpt lat="44.2220096011" lon="14.8355414718"><ele>-0.34</ele><time>2011-10-12T23:38:47Z</time></trkpt><trkpt lat="44.2220096011" lon="14.8355414718"><ele>-0.34</ele><time>2011-10-12T23:39:12Z</time></trkpt><trkpt lat="44.2220093496" lon="14.8355454952"><ele>-0.34</ele><time>2011-10-12T23:39:35Z</time></trkpt><trkpt lat="44.2220093496" lon="14.8355454952"><ele>-0.34</ele><time>2011-10-12T23:39:54Z</time></trkpt><trkpt lat="44.2220094334" lon="14.8355434835"><ele>-0.34</ele><time>2011-10-12T23:40:18Z</time></trkpt><trkpt lat="44.2220159713" lon="14.8355443217"><ele>-0.34</ele><time>2011-10-12T23:40:46Z</time></trkpt><trkpt lat="44.2220159713" lon="14.8355443217"><ele>-0.34</ele><time>2011-10-12T23:41:14Z</time></trkpt><trkpt lat="44.2220194079" lon="14.8355464172"><ele>-0.82</ele><time>2011-10-12T23:41:33Z</time></trkpt><trkpt lat="44.2220204975" lon="14.8355452437"><ele>-0.82</ele><time>2011-10-12T23:41:56Z</time></trkpt><trkpt lat="44.2220204975" lon="14.8355452437"><ele>-0.82</ele><time>2011-10-12T23:42:22Z</time></trkpt><trkpt lat="44.2220215034" lon="14.8355447408"><ele>-0.82</ele><time>2011-10-12T23:42:48Z</time></trkpt><trkpt lat="44.2220192403" lon="14.8355437350"><ele>-0.82</ele><time>2011-10-12T23:43:15Z</time></trkpt><trkpt lat="44.2220192403" lon="14.8355437350"><ele>-0.82</ele><time>2011-10-12T23:43:39Z</time></trkpt><trkpt lat="44.2220182344" lon="14.8355418071"><ele>-1.30</ele><time>2011-10-12T23:44:06Z</time></trkpt><trkpt lat="44.2220182344" lon="14.8355418071"><ele>-1.30</ele><time>2011-10-12T23:44:29Z</time></trkpt><trkpt lat="44.2220150493" lon="14.8355396278"><ele>-0.82</ele><time>2011-10-12T23:44:57Z</time></trkpt><trkpt lat="44.2220168933" lon="14.8355402984"><ele>-1.30</ele><time>2011-10-12T23:45:22Z</time></trkpt><trkpt lat="44.2220168933" lon="14.8355402984"><ele>-1.30</ele><time>2011-10-12T23:45:45Z</time></trkpt><trkpt lat="44.2220171448" lon="14.8355392925"><ele>-1.30</ele><time>2011-10-12T23:46:06Z</time></trkpt><trkpt lat="44.2220171448" lon="14.8355392925"><ele>-1.30</ele><time>2011-10-12T23:46:28Z</time></trkpt><trkpt lat="44.2220177315" lon="14.8355403822"><ele>-1.79</ele><time>2011-10-12T23:46:49Z</time></trkpt><trkpt lat="44.2220177315" lon="14.8355403822"><ele>-1.79</ele><time>2011-10-12T23:47:08Z</time></trkpt><trkpt lat="44.2220175639" lon="14.8355412204"><ele>-1.79</ele><time>2011-10-12T23:47:28Z</time></trkpt><trkpt lat="44.2220175639" lon="14.8355412204"><ele>-1.79</ele><time>2011-10-12T23:47:50Z</time></trkpt><trkpt lat="44.2220174801" lon="14.8355413042"><ele>-1.79</ele><time>2011-10-12T23:48:14Z</time></trkpt><trkpt lat="44.2220177315" lon="14.8355402984"><ele>-1.79</ele><time>2011-10-12T23:48:46Z</time></trkpt><trkpt lat="44.2220197432" lon="14.8355432320"><ele>-1.79</ele><time>2011-10-12T23:49:24Z</time></trkpt><trkpt lat="44.2220197432" lon="14.8355432320"><ele>-1.79</ele><time>2011-10-12T23:49:52Z</time></trkpt><trkpt lat="44.2220199108" lon="14.8355444893"><ele>-2.27</ele><time>2011-10-12T23:50:15Z</time></trkpt><trkpt lat="44.2220170610" lon="14.8355456628"><ele>-1.79</ele><time>2011-10-12T23:50:42Z</time></trkpt><trkpt lat="44.2220170610" lon="14.8355456628"><ele>-1.79</ele><time>2011-10-12T23:51:10Z</time></trkpt><trkpt lat="44.2220173124" lon="14.8355454952"><ele>-2.27</ele><time>2011-10-12T23:51:34Z</time></trkpt><trkpt lat="44.2220178992" lon="14.8355459981"><ele>-2.27</ele><time>2011-10-12T23:51:52Z</time></trkpt><trkpt lat="44.2220178992" lon="14.8355459981"><ele>-2.27</ele><time>2011-10-12T23:52:12Z</time></trkpt><trkpt lat="44.2220174801" lon="14.8355450761"><ele>-1.79</ele><time>2011-10-12T23:52:46Z</time></trkpt><trkpt lat="44.2220179830" lon="14.8355442379"><ele>-1.79</ele><time>2011-10-12T23:53:13Z</time></trkpt><trkpt lat="44.2220179830" lon="14.8355442379"><ele>-1.79</ele><time>2011-10-12T23:53:46Z</time></trkpt><trkpt lat="44.2220230121" lon="14.8355447408"><ele>-2.27</ele><time>2011-10-12T23:54:16Z</time></trkpt><trkpt lat="44.2220241856" lon="14.8355462495"><ele>-1.79</ele><time>2011-10-12T23:54:42Z</time></trkpt><trkpt lat="44.2220266163" lon="14.8355450761"><ele>-1.30</ele><time>2011-10-12T23:55:10Z</time></trkpt><trkpt lat="44.2220266163" lon="14.8355450761"><ele>-1.30</ele><time>2011-10-12T23:55:41Z</time></trkpt><trkpt lat="44.2220199108" lon="14.8355511110"><ele>-1.30</ele><time>2011-10-12T23:56:13Z</time></trkpt><trkpt lat="44.2220155522" lon="14.8355478421"><ele>-1.30</ele><time>2011-10-12T23:56:43Z</time></trkpt><trkpt lat="44.2220131215" lon="14.8355465010"><ele>-0.82</ele><time>2011-10-12T23:57:09Z</time></trkpt><trkpt lat="44.2220131215" lon="14.8355465010"><ele>-0.82</ele><time>2011-10-12T23:57:41Z</time></trkpt><trkpt lat="44.2220132891" lon="14.8355447408"><ele>-0.82</ele><time>2011-10-12T23:58:15Z</time></trkpt><trkpt lat="44.2220127024" lon="14.8355442379"><ele>-0.82</ele><time>2011-10-12T23:58:46Z</time></trkpt><trkpt lat="44.2220101878" lon="14.8355460819"><ele>-0.82</ele><time>2011-10-12T23:59:20Z</time></trkpt><trkpt lat="44.2220097687" lon="14.8355453275"><ele>-0.34</ele><time>2011-10-12T23:59:51Z</time></trkpt><trkpt lat="44.2220097687" lon="14.8355453275"><ele>-0.34</ele><time>2011-10-13T00:00:24Z</time></trkpt><trkpt lat="44.2220083438" lon="14.8355485126"><ele>-0.34</ele><time>2011-10-13T00:00:56Z</time></trkpt><trkpt lat="44.2220061645" lon="14.8355463333"><ele>-0.34</ele><time>2011-10-13T00:01:33Z</time></trkpt><trkpt lat="44.2219973635" lon="14.8355449922"><ele>-0.34</ele><time>2011-10-13T00:02:04Z</time></trkpt><trkpt lat="44.2219918314" lon="14.8355504405"><ele>-0.34</ele><time>2011-10-13T00:02:39Z</time></trkpt><trkpt lat="44.2219871376" lon="14.8355511110"><ele>-0.34</ele><time>2011-10-13T00:03:12Z</time></trkpt><trkpt lat="44.2219852097" lon="14.8355534580"><ele>-0.34</ele><time>2011-10-13T00:03:49Z</time></trkpt><trkpt lat="44.2219852097" lon="14.8355534580"><ele>-0.34</ele><time>2011-10-13T00:04:22Z</time></trkpt><trkpt lat="44.2219868861" lon="14.8355551343"><ele>-0.34</ele><time>2011-10-13T00:04:47Z</time></trkpt><trkpt lat="44.2219891492" lon="14.8355569784"><ele>-0.34</ele><time>2011-10-13T00:05:18Z</time></trkpt><trkpt lat="44.2219934240" lon="14.8355576489"><ele>-0.34</ele><time>2011-10-13T00:05:52Z</time></trkpt><trkpt lat="44.2219934240" lon="14.8355576489"><ele>-0.34</ele><time>2011-10-13T00:06:22Z</time></trkpt><trkpt lat="44.2219961062" lon="14.8355549667"><ele>-0.34</ele><time>2011-10-13T00:06:58Z</time></trkpt><trkpt lat="44.2219999619" lon="14.8355578166"><ele>-0.34</ele><time>2011-10-13T00:07:30Z</time></trkpt><trkpt lat="44.2220013868" lon="14.8355594091"><ele>-0.34</ele><time>2011-10-13T00:08:01Z</time></trkpt><trkpt lat="44.2220000457" lon="14.8355592415"><ele>-0.34</ele><time>2011-10-13T00:08:30Z</time></trkpt><trkpt lat="44.2220000457" lon="14.8355592415"><ele>-0.34</ele><time>2011-10-13T00:08:54Z</time></trkpt><trkpt lat="44.2219977826" lon="14.8355558049"><ele>-0.34</ele><time>2011-10-13T00:09:21Z</time></trkpt><trkpt lat="44.2219956871" lon="14.8355542962"><ele>-0.34</ele><time>2011-10-13T00:09:47Z</time></trkpt><trkpt lat="44.2219956871" lon="14.8355542962"><ele>-0.34</ele><time>2011-10-13T00:10:16Z</time></trkpt><trkpt lat="44.2219950166" lon="14.8355540447"><ele>-0.34</ele><time>2011-10-13T00:10:47Z</time></trkpt><trkpt lat="44.2219930887" lon="14.8355501890"><ele>-0.34</ele><time>2011-10-13T00:11:19Z</time></trkpt><trkpt lat="44.2219897360" lon="14.8355460819"><ele>-0.34</ele><time>2011-10-13T00:11:51Z</time></trkpt><trkpt lat="44.2219897360" lon="14.8355460819"><ele>-0.34</ele><time>2011-10-13T00:12:21Z</time></trkpt><trkpt lat="44.2219873052" lon="14.8355485965"><ele>-0.82</ele><time>2011-10-13T00:12:51Z</time></trkpt><trkpt lat="44.2219877243" lon="14.8355461657"><ele>-0.82</ele><time>2011-10-13T00:13:22Z</time></trkpt><trkpt lat="44.2219857965" lon="14.8355502728"><ele>-0.82</ele><time>2011-10-13T00:13:54Z</time></trkpt><trkpt lat="44.2219857965" lon="14.8355502728"><ele>-0.82</ele><time>2011-10-13T00:14:22Z</time></trkpt><trkpt lat="44.2219868861" lon="14.8355501890"><ele>-0.82</ele><time>2011-10-13T00:14:48Z</time></trkpt><trkpt lat="44.2219909094" lon="14.8355506919"><ele>-0.34</ele><time>2011-10-13T00:15:15Z</time></trkpt><trkpt lat="44.2219909094" lon="14.8355506919"><ele>-0.34</ele><time>2011-10-13T00:15:42Z</time></trkpt><trkpt lat="44.2219952680" lon="14.8355496023"><ele>-0.82</ele><time>2011-10-13T00:16:05Z</time></trkpt><trkpt lat="44.2219956871" lon="14.8355492670"><ele>-0.34</ele><time>2011-10-13T00:16:39Z</time></trkpt><trkpt lat="44.2219969444" lon="14.8355520330"><ele>-0.34</ele><time>2011-10-13T00:17:16Z</time></trkpt><trkpt lat="44.2219972797" lon="14.8355517816"><ele>-0.34</ele><time>2011-10-13T00:17:52Z</time></trkpt><trkpt lat="44.2219972797" lon="14.8355517816"><ele>-0.34</ele><time>2011-10-13T00:18:26Z</time></trkpt><trkpt lat="44.2219975311" lon="14.8355524521"><ele>0.14</ele><time>2011-10-13T00:18:58Z</time></trkpt><trkpt lat="44.2219989561" lon="14.8355527036"><ele>-0.34</ele><time>2011-10-13T00:19:27Z</time></trkpt><trkpt lat="44.2220076732" lon="14.8355561402"><ele>-0.82</ele><time>2011-10-13T00:19:53Z</time></trkpt><trkpt lat="44.2220076732" lon="14.8355561402"><ele>-0.82</ele><time>2011-10-13T00:20:21Z</time></trkpt><trkpt lat="44.2220087629" lon="14.8355570622"><ele>-0.34</ele><time>2011-10-13T00:20:47Z</time></trkpt><trkpt lat="44.2220095173" lon="14.8355589062"><ele>-0.82</ele><time>2011-10-13T00:21:14Z</time></trkpt><trkpt lat="44.2220095173" lon="14.8355589062"><ele>-0.82</ele><time>2011-10-13T00:21:40Z</time></trkpt><trkpt lat="44.2220092658" lon="14.8355572298"><ele>-0.82</ele><time>2011-10-13T00:22:07Z</time></trkpt><trkpt lat="44.2220118642" lon="14.8355553858"><ele>-0.82</ele><time>2011-10-13T00:22:34Z</time></trkpt><trkpt lat="44.2220138758" lon="14.8355522845"><ele>-0.82</ele><time>2011-10-13T00:23:08Z</time></trkpt><trkpt lat="44.2220138758" lon="14.8355522845"><ele>-0.82</ele><time>2011-10-13T00:23:38Z</time></trkpt><trkpt lat="44.2220137082" lon="14.8355491832"><ele>-0.82</ele><time>2011-10-13T00:24:09Z</time></trkpt><trkpt lat="44.2220187373" lon="14.8355544638"><ele>-0.82</ele><time>2011-10-13T00:24:38Z</time></trkpt><trkpt lat="44.2220187373" lon="14.8355544638"><ele>-0.82</ele><time>2011-10-13T00:25:06Z</time></trkpt><trkpt lat="44.2220286280" lon="14.8355617560"><ele>-1.30</ele><time>2011-10-13T00:25:35Z</time></trkpt><trkpt lat="44.2220334057" lon="14.8355697189"><ele>-0.82</ele><time>2011-10-13T00:26:05Z</time></trkpt><trkpt lat="44.2220317293" lon="14.8355641868"><ele>-0.82</ele><time>2011-10-13T00:26:39Z</time></trkpt><trkpt lat="44.2220309749" lon="14.8355620913"><ele>-0.82</ele><time>2011-10-13T00:27:15Z</time></trkpt><trkpt lat="44.2220309749" lon="14.8355620913"><ele>-0.82</ele><time>2011-10-13T00:27:46Z</time></trkpt><trkpt lat="44.2220303882" lon="14.8355599120"><ele>-0.34</ele><time>2011-10-13T00:28:17Z</time></trkpt><trkpt lat="44.2220289633" lon="14.8355593253"><ele>-0.82</ele><time>2011-10-13T00:28:45Z</time></trkpt><trkpt lat="44.2220345791" lon="14.8355631810"><ele>-0.82</ele><time>2011-10-13T00:29:14Z</time></trkpt><trkpt lat="44.2220345791" lon="14.8355631810"><ele>-0.82</ele><time>2011-10-13T00:29:39Z</time></trkpt><trkpt lat="44.2220372614" lon="14.8355676234"><ele>-0.34</ele><time>2011-10-13T00:30:09Z</time></trkpt><trkpt lat="44.2220420390" lon="14.8355649412"><ele>-0.34</ele><time>2011-10-13T00:30:39Z</time></trkpt><trkpt lat="44.2220420390" lon="14.8355649412"><ele>-0.34</ele><time>2011-10-13T00:31:03Z</time></trkpt><trkpt lat="44.2220444698" lon="14.8355579004"><ele>-0.34</ele><time>2011-10-13T00:31:29Z</time></trkpt><trkpt lat="44.2220394406" lon="14.8355537932"><ele>-0.34</ele><time>2011-10-13T00:31:57Z</time></trkpt><trkpt lat="44.2220394406" lon="14.8355537932"><ele>-0.34</ele><time>2011-10-13T00:32:22Z</time></trkpt><trkpt lat="44.2220396921" lon="14.8355539609"><ele>-0.34</ele><time>2011-10-13T00:32:43Z</time></trkpt><trkpt lat="44.2220396921" lon="14.8355539609"><ele>-0.34</ele><time>2011-10-13T00:33:05Z</time></trkpt><trkpt lat="44.2220420390" lon="14.8355567269"><ele>0.14</ele><time>2011-10-13T00:33:26Z</time></trkpt><trkpt lat="44.2220502533" lon="14.8355611693"><ele>0.14</ele><time>2011-10-13T00:33:49Z</time></trkpt><trkpt lat="44.2220502533" lon="14.8355611693"><ele>0.14</ele><time>2011-10-13T00:34:16Z</time></trkpt><trkpt lat="44.2220502533" lon="14.8355582356"><ele>0.62</ele><time>2011-10-13T00:34:49Z</time></trkpt><trkpt lat="44.2220502533" lon="14.8355582356"><ele>0.62</ele><time>2011-10-13T00:35:19Z</time></trkpt><trkpt lat="44.2220472358" lon="14.8355521169"><ele>0.14</ele><time>2011-10-13T00:35:50Z</time></trkpt><trkpt lat="44.2220464814" lon="14.8355517816"><ele>0.14</ele><time>2011-10-13T00:36:19Z</time></trkpt><trkpt lat="44.2220464814" lon="14.8355517816"><ele>0.14</ele><time>2011-10-13T00:36:43Z</time></trkpt><trkpt lat="44.2220502533" lon="14.8355506081"><ele>0.14</ele><time>2011-10-13T00:37:09Z</time></trkpt><trkpt lat="44.2220590543" lon="14.8355568945"><ele>0.62</ele><time>2011-10-13T00:37:38Z</time></trkpt><trkpt lat="44.2220656760" lon="14.8355596606"><ele>0.14</ele><time>2011-10-13T00:38:12Z</time></trkpt><trkpt lat="44.2220656760" lon="14.8355596606"><ele>0.14</ele><time>2011-10-13T00:38:44Z</time></trkpt><trkpt lat="44.2220649216" lon="14.8355558887"><ele>0.62</ele><time>2011-10-13T00:39:07Z</time></trkpt><trkpt lat="44.2220616527" lon="14.8355547991"><ele>0.14</ele><time>2011-10-13T00:39:36Z</time></trkpt><trkpt lat="44.2220616527" lon="14.8355547991"><ele>0.14</ele><time>2011-10-13T00:40:01Z</time></trkpt><trkpt lat="44.2220616527" lon="14.8355552182"><ele>0.62</ele><time>2011-10-13T00:40:20Z</time></trkpt><trkpt lat="44.2220637482" lon="14.8355581518"><ele>0.62</ele><time>2011-10-13T00:40:47Z</time></trkpt><trkpt lat="44.2220637482" lon="14.8355581518"><ele>0.62</ele><time>2011-10-13T00:41:14Z</time></trkpt><trkpt lat="44.2220662627" lon="14.8355626781"><ele>0.62</ele><time>2011-10-13T00:41:39Z</time></trkpt><trkpt lat="44.2220662627" lon="14.8355626781"><ele>0.62</ele><time>2011-10-13T00:42:04Z</time></trkpt><trkpt lat="44.2220697831" lon="14.8355621751"><ele>0.62</ele><time>2011-10-13T00:42:29Z</time></trkpt><trkpt lat="44.2220701184" lon="14.8355609179"><ele>0.62</ele><time>2011-10-13T00:42:58Z</time></trkpt><trkpt lat="44.2220701184" lon="14.8355609179"><ele>0.62</ele><time>2011-10-13T00:43:22Z</time></trkpt><trkpt lat="44.2220683582" lon="14.8355548829"><ele>0.62</ele><time>2011-10-13T00:43:46Z</time></trkpt><trkpt lat="44.2220659275" lon="14.8355547152"><ele>1.10</ele><time>2011-10-13T00:44:14Z</time></trkpt><trkpt lat="44.2220659275" lon="14.8355547152"><ele>1.10</ele><time>2011-10-13T00:44:35Z</time></trkpt><trkpt lat="44.2220655084" lon="14.8355527036"><ele>1.10</ele><time>2011-10-13T00:44:56Z</time></trkpt><trkpt lat="44.2220655084" lon="14.8355527036"><ele>1.10</ele><time>2011-10-13T00:45:19Z</time></trkpt><trkpt lat="44.2220645864" lon="14.8355524521"><ele>1.10</ele><time>2011-10-13T00:45:37Z</time></trkpt><trkpt lat="44.2220645864" lon="14.8355524521"><ele>1.10</ele><time>2011-10-13T00:46:02Z</time></trkpt><trkpt lat="44.2220644187" lon="14.8355523683"><ele>1.10</ele><time>2011-10-13T00:46:24Z</time></trkpt><trkpt lat="44.2220631614" lon="14.8355489317"><ele>1.10</ele><time>2011-10-13T00:46:52Z</time></trkpt><trkpt lat="44.2220631614" lon="14.8355489317"><ele>1.10</ele><time>2011-10-13T00:47:21Z</time></trkpt><trkpt lat="44.2220585514" lon="14.8355487641"><ele>1.10</ele><time>2011-10-13T00:47:45Z</time></trkpt><trkpt lat="44.2220529355" lon="14.8355512787"><ele>1.10</ele><time>2011-10-13T00:48:10Z</time></trkpt><trkpt lat="44.2220529355" lon="14.8355512787"><ele>1.10</ele><time>2011-10-13T00:48:32Z</time></trkpt><trkpt lat="44.2220513429" lon="14.8355515301"><ele>0.62</ele><time>2011-10-13T00:48:54Z</time></trkpt><trkpt lat="44.2220513429" lon="14.8355515301"><ele>0.62</ele><time>2011-10-13T00:49:22Z</time></trkpt><trkpt lat="44.2220505048" lon="14.8355548829"><ele>0.62</ele><time>2011-10-13T00:49:45Z</time></trkpt><trkpt lat="44.2220519297" lon="14.8355569784"><ele>0.62</ele><time>2011-10-13T00:50:08Z</time></trkpt><trkpt lat="44.2220519297" lon="14.8355569784"><ele>0.62</ele><time>2011-10-13T00:50:33Z</time></trkpt><trkpt lat="44.2220548633" lon="14.8355501890"><ele>0.62</ele><time>2011-10-13T00:50:57Z</time></trkpt><trkpt lat="44.2220548633" lon="14.8355501890"><ele>0.62</ele><time>2011-10-13T00:51:22Z</time></trkpt><trkpt lat="44.2220554501" lon="14.8355436511"><ele>0.62</ele><time>2011-10-13T00:51:49Z</time></trkpt><trkpt lat="44.2220545281" lon="14.8355444055"><ele>1.10</ele><time>2011-10-13T00:52:12Z</time></trkpt><trkpt lat="44.2220545281" lon="14.8355444055"><ele>1.10</ele><time>2011-10-13T00:52:37Z</time></trkpt><trkpt lat="44.2220518459" lon="14.8355459981"><ele>1.10</ele><time>2011-10-13T00:53:02Z</time></trkpt><trkpt lat="44.2220518459" lon="14.8355459981"><ele>1.10</ele><time>2011-10-13T00:53:25Z</time></trkpt><trkpt lat="44.2220497504" lon="14.8355452437"><ele>1.10</ele><time>2011-10-13T00:53:45Z</time></trkpt><trkpt lat="44.2220497504" lon="14.8355452437"><ele>1.10</ele><time>2011-10-13T00:54:05Z</time></trkpt><trkpt lat="44.2220515944" lon="14.8355454113"><ele>1.10</ele><time>2011-10-13T00:54:23Z</time></trkpt><trkpt lat="44.2220519297" lon="14.8355459142"><ele>1.10</ele><time>2011-10-13T00:54:41Z</time></trkpt><trkpt lat="44.2220519297" lon="14.8355459142"><ele>1.10</ele><time>2011-10-13T00:55:03Z</time></trkpt><trkpt lat="44.2220541928" lon="14.8355459142"><ele>0.62</ele><time>2011-10-13T00:55:25Z</time></trkpt><trkpt lat="44.2220541928" lon="14.8355459142"><ele>0.62</ele><time>2011-10-13T00:55:50Z</time></trkpt><trkpt lat="44.2220519297" lon="14.8355475906"><ele>0.62</ele><time>2011-10-13T00:56:18Z</time></trkpt><trkpt lat="44.2220428772" lon="14.8355496023"><ele>0.62</ele><time>2011-10-13T00:56:43Z</time></trkpt><trkpt lat="44.2220428772" lon="14.8355496023"><ele>0.62</ele><time>2011-10-13T00:57:02Z</time></trkpt><trkpt lat="44.2220368423" lon="14.8355543800"><ele>1.10</ele><time>2011-10-13T00:57:24Z</time></trkpt><trkpt lat="44.2220368423" lon="14.8355543800"><ele>1.10</ele><time>2011-10-13T00:57:42Z</time></trkpt><trkpt lat="44.2220348306" lon="14.8355524521"><ele>1.10</ele><time>2011-10-13T00:58:05Z</time></trkpt><trkpt lat="44.2220348306" lon="14.8355524521"><ele>1.10</ele><time>2011-10-13T00:58:23Z</time></trkpt><trkpt lat="44.2220350821" lon="14.8355528712"><ele>0.62</ele><time>2011-10-13T00:58:43Z</time></trkpt><trkpt lat="44.2220350821" lon="14.8355528712"><ele>0.62</ele><time>2011-10-13T00:59:04Z</time></trkpt><trkpt lat="44.2220358364" lon="14.8355532065"><ele>0.62</ele><time>2011-10-13T00:59:27Z</time></trkpt><trkpt lat="44.2220358364" lon="14.8355532065"><ele>0.62</ele><time>2011-10-13T00:59:50Z</time></trkpt><trkpt lat="44.2220386025" lon="14.8355485965"><ele>1.10</ele><time>2011-10-13T01:00:13Z</time></trkpt><trkpt lat="44.2220362555" lon="14.8355437350"><ele>1.10</ele><time>2011-10-13T01:00:33Z</time></trkpt><trkpt lat="44.2220341600" lon="14.8355370294"><ele>1.10</ele><time>2011-10-13T01:00:55Z</time></trkpt><trkpt lat="44.2220341600" lon="14.8355370294"><ele>1.10</ele><time>2011-10-13T01:01:18Z</time></trkpt><trkpt lat="44.2220253590" lon="14.8355406336"><ele>2.06</ele><time>2011-10-13T01:01:37Z</time></trkpt><trkpt lat="44.2220253590" lon="14.8355406336"><ele>2.06</ele><time>2011-10-13T01:01:58Z</time></trkpt><trkpt lat="44.2220234312" lon="14.8355446570"><ele>2.06</ele><time>2011-10-13T01:02:18Z</time></trkpt><trkpt lat="44.2220234312" lon="14.8355446570"><ele>2.06</ele><time>2011-10-13T01:02:41Z</time></trkpt><trkpt lat="44.2220259458" lon="14.8355490156"><ele>1.58</ele><time>2011-10-13T01:02:59Z</time></trkpt><trkpt lat="44.2220259458" lon="14.8355490156"><ele>1.58</ele><time>2011-10-13T01:03:20Z</time></trkpt><trkpt lat="44.2220396083" lon="14.8355476744"><ele>1.58</ele><time>2011-10-13T01:03:37Z</time></trkpt><trkpt lat="44.2220396083" lon="14.8355476744"><ele>1.58</ele><time>2011-10-13T01:03:57Z</time></trkpt><trkpt lat="44.2220377643" lon="14.8355383705"><ele>1.10</ele><time>2011-10-13T01:04:20Z</time></trkpt><trkpt lat="44.2220377643" lon="14.8355383705"><ele>1.10</ele><time>2011-10-13T01:04:48Z</time></trkpt><trkpt lat="44.2220349982" lon="14.8355278932"><ele>0.62</ele><time>2011-10-13T01:05:10Z</time></trkpt><trkpt lat="44.2220323998" lon="14.8355310783"><ele>1.58</ele><time>2011-10-13T01:05:34Z</time></trkpt><trkpt lat="44.2220323998" lon="14.8355310783"><ele>1.58</ele><time>2011-10-13T01:05:55Z</time></trkpt><trkpt lat="44.2220352497" lon="14.8355434835"><ele>0.62</ele><time>2011-10-13T01:06:18Z</time></trkpt><trkpt lat="44.2220352497" lon="14.8355434835"><ele>0.62</ele><time>2011-10-13T01:06:40Z</time></trkpt><trkpt lat="44.2220537737" lon="14.8355594091"><ele>0.14</ele><time>2011-10-13T01:06:57Z</time></trkpt><trkpt lat="44.2220537737" lon="14.8355594091"><ele>0.14</ele><time>2011-10-13T01:07:21Z</time></trkpt><trkpt lat="44.2220603954" lon="14.8355570622"><ele>0.14</ele><time>2011-10-13T01:07:46Z</time></trkpt><trkpt lat="44.2220603954" lon="14.8355570622"><ele>0.14</ele><time>2011-10-13T01:08:09Z</time></trkpt><trkpt lat="44.2220651731" lon="14.8355482612"><ele>-0.34</ele><time>2011-10-13T01:08:38Z</time></trkpt><trkpt lat="44.2220632453" lon="14.8355469201"><ele>-0.34</ele><time>2011-10-13T01:09:04Z</time></trkpt><trkpt lat="44.2220632453" lon="14.8355469201"><ele>-0.34</ele><time>2011-10-13T01:09:27Z</time></trkpt><trkpt lat="44.2220579647" lon="14.8355466686"><ele>0.14</ele><time>2011-10-13T01:09:49Z</time></trkpt><trkpt lat="44.2220544443" lon="14.8355485126"><ele>0.14</ele><time>2011-10-13T01:10:13Z</time></trkpt><trkpt lat="44.2220496666" lon="14.8355416395"><ele>0.14</ele><time>2011-10-13T01:10:31Z</time></trkpt><trkpt lat="44.2220496666" lon="14.8355416395"><ele>0.14</ele><time>2011-10-13T01:10:45Z</time></trkpt><trkpt lat="44.2220496666" lon="14.8355416395"><ele>0.14</ele><time>2011-10-13T01:11:06Z</time></trkpt><trkpt lat="44.2220499180" lon="14.8355442379"><ele>0.14</ele><time>2011-10-13T01:11:28Z</time></trkpt><trkpt lat="44.2220546957" lon="14.8355420586"><ele>0.62</ele><time>2011-10-13T01:11:52Z</time></trkpt><trkpt lat="44.2220546957" lon="14.8355420586"><ele>0.62</ele><time>2011-10-13T01:12:19Z</time></trkpt><trkpt lat="44.2220546119" lon="14.8355360236"><ele>0.62</ele><time>2011-10-13T01:12:46Z</time></trkpt><trkpt lat="44.2220546119" lon="14.8355360236"><ele>0.62</ele><time>2011-10-13T01:13:08Z</time></trkpt><trkpt lat="44.2220523488" lon="14.8355364427"><ele>0.62</ele><time>2011-10-13T01:13:35Z</time></trkpt><trkpt lat="44.2220488284" lon="14.8355295695"><ele>1.10</ele><time>2011-10-13T01:13:57Z</time></trkpt><trkpt lat="44.2220488284" lon="14.8355295695"><ele>1.10</ele><time>2011-10-13T01:14:20Z</time></trkpt><trkpt lat="44.2220529355" lon="14.8355330899"><ele>1.10</ele><time>2011-10-13T01:14:43Z</time></trkpt><trkpt lat="44.2220571265" lon="14.8355356045"><ele>0.62</ele><time>2011-10-13T01:15:04Z</time></trkpt><trkpt lat="44.2220571265" lon="14.8355356045"><ele>0.62</ele><time>2011-10-13T01:15:27Z</time></trkpt><trkpt lat="44.2220609821" lon="14.8355402984"><ele>0.62</ele><time>2011-10-13T01:15:49Z</time></trkpt><trkpt lat="44.2220626585" lon="14.8355344310"><ele>0.62</ele><time>2011-10-13T01:16:20Z</time></trkpt><trkpt lat="44.2220626585" lon="14.8355344310"><ele>0.62</ele><time>2011-10-13T01:16:49Z</time></trkpt><trkpt lat="44.2220572941" lon="14.8355296534"><ele>0.14</ele><time>2011-10-13T01:17:15Z</time></trkpt><trkpt lat="44.2220566235" lon="14.8355292343"><ele>0.14</ele><time>2011-10-13T01:17:42Z</time></trkpt><trkpt lat="44.2220566235" lon="14.8355292343"><ele>0.14</ele><time>2011-10-13T01:18:04Z</time></trkpt><trkpt lat="44.2220611498" lon="14.8355330061"><ele>-0.34</ele><time>2011-10-13T01:18:29Z</time></trkpt><trkpt lat="44.2220611498" lon="14.8355330061"><ele>-0.34</ele><time>2011-10-13T01:18:52Z</time></trkpt><trkpt lat="44.2220650055" lon="14.8355366942"><ele>-0.34</ele><time>2011-10-13T01:19:16Z</time></trkpt><trkpt lat="44.2220663466" lon="14.8355439026"><ele>0.14</ele><time>2011-10-13T01:19:43Z</time></trkpt><trkpt lat="44.2220663466" lon="14.8355439026"><ele>0.14</ele><time>2011-10-13T01:20:12Z</time></trkpt><trkpt lat="44.2220627423" lon="14.8355384544"><ele>-0.34</ele><time>2011-10-13T01:20:40Z</time></trkpt><trkpt lat="44.2220587190" lon="14.8355353530"><ele>-0.34</ele><time>2011-10-13T01:21:06Z</time></trkpt><trkpt lat="44.2220587190" lon="14.8355353530"><ele>-0.34</ele><time>2011-10-13T01:21:26Z</time></trkpt><trkpt lat="44.2220577970" lon="14.8355371971"><ele>-0.34</ele><time>2011-10-13T01:21:54Z</time></trkpt><trkpt lat="44.2220618203" lon="14.8355420586"><ele>-0.34</ele><time>2011-10-13T01:22:20Z</time></trkpt><trkpt lat="44.2220618203" lon="14.8355420586"><ele>-0.34</ele><time>2011-10-13T01:22:46Z</time></trkpt><trkpt lat="44.2220642511" lon="14.8355472554"><ele>-0.34</ele><time>2011-10-13T01:23:09Z</time></trkpt><trkpt lat="44.2220692802" lon="14.8355470039"><ele>0.14</ele><time>2011-10-13T01:23:39Z</time></trkpt><trkpt lat="44.2220692802" lon="14.8355470039"><ele>0.14</ele><time>2011-10-13T01:24:06Z</time></trkpt><trkpt lat="44.2220671847" lon="14.8355415557"><ele>0.14</ele><time>2011-10-13T01:24:33Z</time></trkpt><trkpt lat="44.2220671847" lon="14.8355415557"><ele>0.14</ele><time>2011-10-13T01:24:57Z</time></trkpt><trkpt lat="44.2220633291" lon="14.8355377000"><ele>0.14</ele><time>2011-10-13T01:25:21Z</time></trkpt><trkpt lat="44.2220617365" lon="14.8355382867"><ele>0.14</ele><time>2011-10-13T01:25:41Z</time></trkpt><trkpt lat="44.2220617365" lon="14.8355382867"><ele>0.14</ele><time>2011-10-13T01:26:06Z</time></trkpt><trkpt lat="44.2220669333" lon="14.8355368618"><ele>0.14</ele><time>2011-10-13T01:26:22Z</time></trkpt><trkpt lat="44.2220669333" lon="14.8355368618"><ele>0.14</ele><time>2011-10-13T01:26:47Z</time></trkpt><trkpt lat="44.2220672686" lon="14.8355378676"><ele>0.14</ele><time>2011-10-13T01:27:10Z</time></trkpt><trkpt lat="44.2220690288" lon="14.8355374485"><ele>0.14</ele><time>2011-10-13T01:27:40Z</time></trkpt><trkpt lat="44.2220690288" lon="14.8355374485"><ele>0.14</ele><time>2011-10-13T01:28:06Z</time></trkpt><trkpt lat="44.2220650893" lon="14.8355352692"><ele>0.14</ele><time>2011-10-13T01:28:30Z</time></trkpt><trkpt lat="44.2220650893" lon="14.8355352692"><ele>0.14</ele><time>2011-10-13T01:28:55Z</time></trkpt><trkpt lat="44.2220591381" lon="14.8355321679"><ele>0.62</ele><time>2011-10-13T01:29:16Z</time></trkpt><trkpt lat="44.2220581323" lon="14.8355310783"><ele>0.62</ele><time>2011-10-13T01:29:41Z</time></trkpt><trkpt lat="44.2220581323" lon="14.8355310783"><ele>0.62</ele><time>2011-10-13T01:30:01Z</time></trkpt><trkpt lat="44.2220626585" lon="14.8355306592"><ele>0.62</ele><time>2011-10-13T01:30:22Z</time></trkpt><trkpt lat="44.2220626585" lon="14.8355306592"><ele>0.62</ele><time>2011-10-13T01:30:40Z</time></trkpt><trkpt lat="44.2220659275" lon="14.8355340958"><ele>0.14</ele><time>2011-10-13T01:31:02Z</time></trkpt><trkpt lat="44.2220659275" lon="14.8355340958"><ele>0.14</ele><time>2011-10-13T01:31:23Z</time></trkpt><trkpt lat="44.2220647540" lon="14.8355343472"><ele>0.14</ele><time>2011-10-13T01:31:47Z</time></trkpt><trkpt lat="44.2220647540" lon="14.8355343472"><ele>0.14</ele><time>2011-10-13T01:32:08Z</time></trkpt><trkpt lat="44.2220609821" lon="14.8355361074"><ele>0.14</ele><time>2011-10-13T01:32:33Z</time></trkpt><trkpt lat="44.2220609821" lon="14.8355361074"><ele>0.14</ele><time>2011-10-13T01:32:53Z</time></trkpt><trkpt lat="44.2220586352" lon="14.8355346825"><ele>0.62</ele><time>2011-10-13T01:33:16Z</time></trkpt><trkpt lat="44.2220563721" lon="14.8355331738"><ele>0.14</ele><time>2011-10-13T01:33:40Z</time></trkpt><trkpt lat="44.2220563721" lon="14.8355331738"><ele>0.14</ele><time>2011-10-13T01:34:01Z</time></trkpt><trkpt lat="44.2220580485" lon="14.8355331738"><ele>-0.34</ele><time>2011-10-13T01:34:23Z</time></trkpt><trkpt lat="44.2220580485" lon="14.8355331738"><ele>-0.34</ele><time>2011-10-13T01:34:41Z</time></trkpt><trkpt lat="44.2220577970" lon="14.8355357721"><ele>-0.82</ele><time>2011-10-13T01:35:02Z</time></trkpt><trkpt lat="44.2220577970" lon="14.8355357721"><ele>-0.82</ele><time>2011-10-13T01:35:24Z</time></trkpt><trkpt lat="44.2220563721" lon="14.8355366942"><ele>-1.30</ele><time>2011-10-13T01:35:47Z</time></trkpt><trkpt lat="44.2220563721" lon="14.8355366942"><ele>-1.30</ele><time>2011-10-13T01:36:13Z</time></trkpt><trkpt lat="44.2220520135" lon="14.8355352692"><ele>-1.30</ele><time>2011-10-13T01:36:35Z</time></trkpt><trkpt lat="44.2220485769" lon="14.8355321679"><ele>-1.30</ele><time>2011-10-13T01:36:55Z</time></trkpt><trkpt lat="44.2220441345" lon="14.8355349340"><ele>-1.30</ele><time>2011-10-13T01:37:14Z</time></trkpt><trkpt lat="44.2220441345" lon="14.8355349340"><ele>-1.30</ele><time>2011-10-13T01:37:40Z</time></trkpt><trkpt lat="44.2220456433" lon="14.8355358560"><ele>-1.30</ele><time>2011-10-13T01:38:02Z</time></trkpt><trkpt lat="44.2220456433" lon="14.8355358560"><ele>-1.30</ele><time>2011-10-13T01:38:22Z</time></trkpt><trkpt lat="44.2220541090" lon="14.8355357721"><ele>-1.30</ele><time>2011-10-13T01:38:41Z</time></trkpt><trkpt lat="44.2220637482" lon="14.8355411366"><ele>-1.30</ele><time>2011-10-13T01:39:05Z</time></trkpt><trkpt lat="44.2220637482" lon="14.8355411366"><ele>-1.30</ele><time>2011-10-13T01:39:30Z</time></trkpt><trkpt lat="44.2220684420" lon="14.8355416395"><ele>-0.82</ele><time>2011-10-13T01:40:00Z</time></trkpt><trkpt lat="44.2220686097" lon="14.8355397116"><ele>-0.34</ele><time>2011-10-13T01:40:31Z</time></trkpt><trkpt lat="44.2220686097" lon="14.8355397116"><ele>-0.34</ele><time>2011-10-13T01:41:00Z</time></trkpt><trkpt lat="44.2220647540" lon="14.8355346825"><ele>0.14</ele><time>2011-10-13T01:41:24Z</time></trkpt><trkpt lat="44.2220644187" lon="14.8355328385"><ele>-0.34</ele><time>2011-10-13T01:41:46Z</time></trkpt><trkpt lat="44.2220644187" lon="14.8355328385"><ele>-0.34</ele><time>2011-10-13T01:42:09Z</time></trkpt><trkpt lat="44.2220649216" lon="14.8355314974"><ele>-0.34</ele><time>2011-10-13T01:42:29Z</time></trkpt><trkpt lat="44.2220649216" lon="14.8355314974"><ele>-0.34</ele><time>2011-10-13T01:42:49Z</time></trkpt><trkpt lat="44.2220696155" lon="14.8355356045"><ele>-0.82</ele><time>2011-10-13T01:43:06Z</time></trkpt><trkpt lat="44.2220696155" lon="14.8355356045"><ele>-0.82</ele><time>2011-10-13T01:43:28Z</time></trkpt><trkpt lat="44.2220681068" lon="14.8355441540"><ele>-0.82</ele><time>2011-10-13T01:43:54Z</time></trkpt><trkpt lat="44.2220682744" lon="14.8355442379"><ele>-1.30</ele><time>2011-10-13T01:44:20Z</time></trkpt><trkpt lat="44.2220682744" lon="14.8355442379"><ele>-1.30</ele><time>2011-10-13T01:44:43Z</time></trkpt><trkpt lat="44.2220647540" lon="14.8355459142"><ele>-1.30</ele><time>2011-10-13T01:45:07Z</time></trkpt><trkpt lat="44.2220647540" lon="14.8355459142"><ele>-1.30</ele><time>2011-10-13T01:45:27Z</time></trkpt><trkpt lat="44.2220631614" lon="14.8355413042"><ele>-0.82</ele><time>2011-10-13T01:45:48Z</time></trkpt><trkpt lat="44.2220631614" lon="14.8355413042"><ele>-0.82</ele><time>2011-10-13T01:46:08Z</time></trkpt><trkpt lat="44.2220611498" lon="14.8355400469"><ele>-0.82</ele><time>2011-10-13T01:46:29Z</time></trkpt><trkpt lat="44.2220611498" lon="14.8355400469"><ele>-0.82</ele><time>2011-10-13T01:46:49Z</time></trkpt><trkpt lat="44.2220645025" lon="14.8355408851"><ele>-0.82</ele><time>2011-10-13T01:47:09Z</time></trkpt><trkpt lat="44.2220645025" lon="14.8355408851"><ele>-0.82</ele><time>2011-10-13T01:47:27Z</time></trkpt><trkpt lat="44.2220686935" lon="14.8355413880"><ele>-0.82</ele><time>2011-10-13T01:47:52Z</time></trkpt><trkpt lat="44.2220712919" lon="14.8355448246"><ele>-0.34</ele><time>2011-10-13T01:48:15Z</time></trkpt><trkpt lat="44.2220712919" lon="14.8355448246"><ele>-0.34</ele><time>2011-10-13T01:48:45Z</time></trkpt><trkpt lat="44.2220645864" lon="14.8355365265"><ele>0.14</ele><time>2011-10-13T01:49:11Z</time></trkpt><trkpt lat="44.2220601439" lon="14.8355343472"><ele>0.14</ele><time>2011-10-13T01:49:34Z</time></trkpt><trkpt lat="44.2220601439" lon="14.8355343472"><ele>0.14</ele><time>2011-10-13T01:49:56Z</time></trkpt><trkpt lat="44.2220594734" lon="14.8355349340"><ele>0.62</ele><time>2011-10-13T01:50:22Z</time></trkpt><trkpt lat="44.2220594734" lon="14.8355349340"><ele>0.62</ele><time>2011-10-13T01:50:43Z</time></trkpt><trkpt lat="44.2220658436" lon="14.8355366942"><ele>1.10</ele><time>2011-10-13T01:51:04Z</time></trkpt><trkpt lat="44.2220658436" lon="14.8355366942"><ele>1.10</ele><time>2011-10-13T01:51:23Z</time></trkpt><trkpt lat="44.2220703699" lon="14.8355367780"><ele>1.10</ele><time>2011-10-13T01:51:50Z</time></trkpt><trkpt lat="44.2220680229" lon="14.8355336767"><ele>1.10</ele><time>2011-10-13T01:52:17Z</time></trkpt><trkpt lat="44.2220680229" lon="14.8355336767"><ele>1.10</ele><time>2011-10-13T01:52:45Z</time></trkpt><trkpt lat="44.2220671847" lon="14.8355310783"><ele>1.10</ele><time>2011-10-13T01:53:09Z</time></trkpt><trkpt lat="44.2220671847" lon="14.8355310783"><ele>1.10</ele><time>2011-10-13T01:53:32Z</time></trkpt><trkpt lat="44.2220662627" lon="14.8355307430"><ele>1.58</ele><time>2011-10-13T01:53:53Z</time></trkpt><trkpt lat="44.2220702022" lon="14.8355339281"><ele>1.10</ele><time>2011-10-13T01:54:12Z</time></trkpt><trkpt lat="44.2220702022" lon="14.8355339281"><ele>1.10</ele><time>2011-10-13T01:54:32Z</time></trkpt><trkpt lat="44.2220728844" lon="14.8355358560"><ele>1.10</ele><time>2011-10-13T01:54:54Z</time></trkpt><trkpt lat="44.2220718786" lon="14.8355358560"><ele>1.10</ele><time>2011-10-13T01:55:18Z</time></trkpt><trkpt lat="44.2220718786" lon="14.8355358560"><ele>1.10</ele><time>2011-10-13T01:55:45Z</time></trkpt><trkpt lat="44.2220661789" lon="14.8355341796"><ele>1.10</ele><time>2011-10-13T01:56:07Z</time></trkpt><trkpt lat="44.2220610660" lon="14.8355283961"><ele>1.10</ele><time>2011-10-13T01:56:29Z</time></trkpt><trkpt lat="44.2220610660" lon="14.8355283961"><ele>1.10</ele><time>2011-10-13T01:56:51Z</time></trkpt><trkpt lat="44.2220625747" lon="14.8355270550"><ele>1.10</ele><time>2011-10-13T01:57:14Z</time></trkpt><trkpt lat="44.2220767401" lon="14.8355497699"><ele>0.62</ele><time>2011-10-13T01:57:32Z</time></trkpt><trkpt lat="44.2220956832" lon="14.8355751671"><ele>1.10</ele><time>2011-10-13T01:57:40Z</time></trkpt><trkpt lat="44.2220956832" lon="14.8355751671"><ele>1.10</ele><time>2011-10-13T01:58:01Z</time></trkpt><trkpt lat="44.2220945098" lon="14.8355765920"><ele>1.10</ele><time>2011-10-13T01:58:26Z</time></trkpt><trkpt lat="44.2220902350" lon="14.8355775978"><ele>1.10</ele><time>2011-10-13T01:58:47Z</time></trkpt><trkpt lat="44.2220902350" lon="14.8355775978"><ele>1.10</ele><time>2011-10-13T01:59:07Z</time></trkpt><trkpt lat="44.2220877204" lon="14.8355749156"><ele>1.10</ele><time>2011-10-13T01:59:30Z</time></trkpt><trkpt lat="44.2220877204" lon="14.8355749156"><ele>1.10</ele><time>2011-10-13T01:59:57Z</time></trkpt><trkpt lat="44.2220842000" lon="14.8355695512"><ele>1.10</ele><time>2011-10-13T02:00:21Z</time></trkpt><trkpt lat="44.2220844515" lon="14.8355655279"><ele>0.62</ele><time>2011-10-13T02:00:47Z</time></trkpt><trkpt lat="44.2220844515" lon="14.8355655279"><ele>0.62</ele><time>2011-10-13T02:01:14Z</time></trkpt><trkpt lat="44.2220864631" lon="14.8355718143"><ele>0.62</ele><time>2011-10-13T02:01:40Z</time></trkpt><trkpt lat="44.2220864631" lon="14.8355718143"><ele>0.62</ele><time>2011-10-13T02:02:05Z</time></trkpt><trkpt lat="44.2220878042" lon="14.8355732393"><ele>0.62</ele><time>2011-10-13T02:02:27Z</time></trkpt><trkpt lat="44.2220863793" lon="14.8355712276"><ele>0.14</ele><time>2011-10-13T02:02:53Z</time></trkpt><trkpt lat="44.2220863793" lon="14.8355712276"><ele>0.14</ele><time>2011-10-13T02:03:21Z</time></trkpt><trkpt lat="44.2220773268" lon="14.8355620913"><ele>0.62</ele><time>2011-10-13T02:03:45Z</time></trkpt><trkpt lat="44.2220773268" lon="14.8355620913"><ele>0.62</ele><time>2011-10-13T02:04:11Z</time></trkpt><trkpt lat="44.2220766563" lon="14.8355596606"><ele>-0.34</ele><time>2011-10-13T02:04:32Z</time></trkpt><trkpt lat="44.2220824398" lon="14.8355641030"><ele>-0.34</ele><time>2011-10-13T02:04:58Z</time></trkpt><trkpt lat="44.2220824398" lon="14.8355641030"><ele>-0.34</ele><time>2011-10-13T02:05:26Z</time></trkpt><trkpt lat="44.2220843676" lon="14.8355662823"><ele>-0.82</ele><time>2011-10-13T02:05:53Z</time></trkpt><trkpt lat="44.2220826913" lon="14.8355636839"><ele>-0.82</ele><time>2011-10-13T02:06:23Z</time></trkpt><trkpt lat="44.2220826913" lon="14.8355636839"><ele>-0.82</ele><time>2011-10-13T02:06:54Z</time></trkpt><trkpt lat="44.2220794223" lon="14.8355601635"><ele>-0.82</ele><time>2011-10-13T02:07:24Z</time></trkpt><trkpt lat="44.2220792547" lon="14.8355574813"><ele>-0.82</ele><time>2011-10-13T02:07:57Z</time></trkpt><trkpt lat="44.2220810149" lon="14.8355598282"><ele>-0.82</ele><time>2011-10-13T02:08:24Z</time></trkpt><trkpt lat="44.2220810149" lon="14.8355598282"><ele>-0.82</ele><time>2011-10-13T02:08:49Z</time></trkpt><trkpt lat="44.2220810149" lon="14.8355591577"><ele>-0.82</ele><time>2011-10-13T02:09:17Z</time></trkpt><trkpt lat="44.2220777459" lon="14.8355578166"><ele>-1.30</ele><time>2011-10-13T02:09:42Z</time></trkpt><trkpt lat="44.2220777459" lon="14.8355578166"><ele>-1.30</ele><time>2011-10-13T02:10:08Z</time></trkpt><trkpt lat="44.2220757343" lon="14.8355572298"><ele>-1.30</ele><time>2011-10-13T02:10:36Z</time></trkpt><trkpt lat="44.2220735550" lon="14.8355514463"><ele>-1.30</ele><time>2011-10-13T02:11:06Z</time></trkpt><trkpt lat="44.2220735550" lon="14.8355514463"><ele>-1.30</ele><time>2011-10-13T02:11:31Z</time></trkpt><trkpt lat="44.2220790870" lon="14.8355587386"><ele>-1.30</ele><time>2011-10-13T02:12:00Z</time></trkpt><trkpt lat="44.2220792547" lon="14.8355611693"><ele>-1.79</ele><time>2011-10-13T02:12:24Z</time></trkpt><trkpt lat="44.2220792547" lon="14.8355611693"><ele>-1.79</ele><time>2011-10-13T02:12:49Z</time></trkpt><trkpt lat="44.2220755666" lon="14.8355589062"><ele>-1.79</ele><time>2011-10-13T02:13:15Z</time></trkpt><trkpt lat="44.2220731359" lon="14.8355563078"><ele>-2.27</ele><time>2011-10-13T02:13:44Z</time></trkpt><trkpt lat="44.2220731359" lon="14.8355563078"><ele>-2.27</ele><time>2011-10-13T02:14:11Z</time></trkpt><trkpt lat="44.2220768239" lon="14.8355578166"><ele>-2.27</ele><time>2011-10-13T02:14:36Z</time></trkpt><trkpt lat="44.2220751476" lon="14.8355603311"><ele>-2.27</ele><time>2011-10-13T02:15:06Z</time></trkpt><trkpt lat="44.2220751476" lon="14.8355603311"><ele>-2.27</ele><time>2011-10-13T02:15:31Z</time></trkpt><trkpt lat="44.2220724653" lon="14.8355554696"><ele>-2.27</ele><time>2011-10-13T02:15:58Z</time></trkpt><trkpt lat="44.2220663466" lon="14.8355594929"><ele>-2.75</ele><time>2011-10-13T02:16:31Z</time></trkpt><trkpt lat="44.2220643349" lon="14.8355524521"><ele>-2.75</ele><time>2011-10-13T02:16:59Z</time></trkpt><trkpt lat="44.2220643349" lon="14.8355524521"><ele>-2.75</ele><time>2011-10-13T02:17:27Z</time></trkpt><trkpt lat="44.2220661789" lon="14.8355545476"><ele>-3.23</ele><time>2011-10-13T02:17:53Z</time></trkpt><trkpt lat="44.2220712081" lon="14.8355602473"><ele>-3.23</ele><time>2011-10-13T02:18:19Z</time></trkpt><trkpt lat="44.2220712081" lon="14.8355602473"><ele>-3.23</ele><time>2011-10-13T02:18:47Z</time></trkpt><trkpt lat="44.2220694479" lon="14.8355580680"><ele>-3.23</ele><time>2011-10-13T02:19:16Z</time></trkpt><trkpt lat="44.2220645025" lon="14.8355516139"><ele>-3.23</ele><time>2011-10-13T02:19:41Z</time></trkpt><trkpt lat="44.2220645025" lon="14.8355516139"><ele>-3.23</ele><time>2011-10-13T02:20:10Z</time></trkpt><trkpt lat="44.2220634129" lon="14.8355483450"><ele>-3.23</ele><time>2011-10-13T02:20:39Z</time></trkpt><trkpt lat="44.2220658436" lon="14.8355496861"><ele>-3.23</ele><time>2011-10-13T02:21:09Z</time></trkpt><trkpt lat="44.2220658436" lon="14.8355496861"><ele>-3.23</ele><time>2011-10-13T02:21:34Z</time></trkpt><trkpt lat="44.2220707890" lon="14.8355548829"><ele>-3.23</ele><time>2011-10-13T02:21:58Z</time></trkpt><trkpt lat="44.2220697831" lon="14.8355552182"><ele>-3.23</ele><time>2011-10-13T02:22:26Z</time></trkpt><trkpt lat="44.2220697831" lon="14.8355552182"><ele>-3.23</ele><time>2011-10-13T02:22:51Z</time></trkpt><trkpt lat="44.2220604792" lon="14.8355561402"><ele>-3.23</ele><time>2011-10-13T02:23:21Z</time></trkpt><trkpt lat="44.2220614851" lon="14.8355545476"><ele>-3.23</ele><time>2011-10-13T02:23:42Z</time></trkpt><trkpt lat="44.2220614851" lon="14.8355545476"><ele>-3.23</ele><time>2011-10-13T02:24:07Z</time></trkpt><trkpt lat="44.2220633291" lon="14.8355545476"><ele>-3.23</ele><time>2011-10-13T02:24:30Z</time></trkpt><trkpt lat="44.2220633291" lon="14.8355545476"><ele>-3.23</ele><time>2011-10-13T02:24:55Z</time></trkpt><trkpt lat="44.2220639158" lon="14.8355550505"><ele>-3.23</ele><time>2011-10-13T02:25:23Z</time></trkpt><trkpt lat="44.2220620718" lon="14.8355550505"><ele>-3.23</ele><time>2011-10-13T02:25:52Z</time></trkpt><trkpt lat="44.2220620718" lon="14.8355550505"><ele>-3.23</ele><time>2011-10-13T02:26:17Z</time></trkpt><trkpt lat="44.2220591381" lon="14.8355490994"><ele>-3.71</ele><time>2011-10-13T02:26:39Z</time></trkpt><trkpt lat="44.2220591381" lon="14.8355490994"><ele>-3.71</ele><time>2011-10-13T02:26:58Z</time></trkpt><trkpt lat="44.2220644187" lon="14.8355490994"><ele>-3.23</ele><time>2011-10-13T02:27:21Z</time></trkpt><trkpt lat="44.2220677715" lon="14.8355529550"><ele>-3.23</ele><time>2011-10-13T02:27:48Z</time></trkpt><trkpt lat="44.2220677715" lon="14.8355529550"><ele>-3.23</ele><time>2011-10-13T02:28:15Z</time></trkpt><trkpt lat="44.2220693640" lon="14.8355522845"><ele>-3.23</ele><time>2011-10-13T02:28:32Z</time></trkpt><trkpt lat="44.2220693640" lon="14.8355522845"><ele>-3.23</ele><time>2011-10-13T02:28:51Z</time></trkpt><trkpt lat="44.2220676877" lon="14.8355524521"><ele>-3.23</ele><time>2011-10-13T02:29:14Z</time></trkpt><trkpt lat="44.2220676877" lon="14.8355524521"><ele>-3.23</ele><time>2011-10-13T02:29:42Z</time></trkpt><trkpt lat="44.2220657598" lon="14.8355516978"><ele>-2.75</ele><time>2011-10-13T02:30:07Z</time></trkpt><trkpt lat="44.2220697831" lon="14.8355556373"><ele>-2.75</ele><time>2011-10-13T02:30:32Z</time></trkpt><trkpt lat="44.2220697831" lon="14.8355556373"><ele>-2.75</ele><time>2011-10-13T02:31:02Z</time></trkpt><trkpt lat="44.2220698670" lon="14.8355542123"><ele>-2.27</ele><time>2011-10-13T02:31:28Z</time></trkpt><trkpt lat="44.2220648378" lon="14.8355484288"><ele>-2.27</ele><time>2011-10-13T02:31:49Z</time></trkpt><trkpt lat="44.2220648378" lon="14.8355484288"><ele>-2.27</ele><time>2011-10-13T02:32:15Z</time></trkpt><trkpt lat="44.2220600601" lon="14.8355468363"><ele>-2.27</ele><time>2011-10-13T02:32:50Z</time></trkpt><trkpt lat="44.2220628262" lon="14.8355459981"><ele>-2.27</ele><time>2011-10-13T02:33:12Z</time></trkpt><trkpt lat="44.2220628262" lon="14.8355459981"><ele>-2.27</ele><time>2011-10-13T02:33:37Z</time></trkpt><trkpt lat="44.2220713757" lon="14.8355584033"><ele>-1.79</ele><time>2011-10-13T02:34:04Z</time></trkpt><trkpt lat="44.2220646702" lon="14.8355739098"><ele>-0.82</ele><time>2011-10-13T02:34:20Z</time></trkpt><trkpt lat="44.2220633291" lon="14.8355473392"><ele>-1.30</ele><time>2011-10-13T02:34:38Z</time></trkpt><trkpt lat="44.2220640834" lon="14.8355451599"><ele>-1.79</ele><time>2011-10-13T02:34:59Z</time></trkpt><trkpt lat="44.2220512591" lon="14.8355421424"><ele>-1.30</ele><time>2011-10-13T02:35:16Z</time></trkpt><trkpt lat="44.2220515944" lon="14.8355411366"><ele>-1.30</ele><time>2011-10-13T02:35:42Z</time></trkpt><trkpt lat="44.2220515944" lon="14.8355411366"><ele>-1.30</ele><time>2011-10-13T02:36:11Z</time></trkpt><trkpt lat="44.2220567912" lon="14.8355485126"><ele>-1.30</ele><time>2011-10-13T02:36:39Z</time></trkpt><trkpt lat="44.2220574617" lon="14.8355513625"><ele>-1.30</ele><time>2011-10-13T02:37:05Z</time></trkpt><trkpt lat="44.2220574617" lon="14.8355513625"><ele>-1.30</ele><time>2011-10-13T02:37:31Z</time></trkpt><trkpt lat="44.2220568750" lon="14.8355516139"><ele>-1.30</ele><time>2011-10-13T02:37:56Z</time></trkpt><trkpt lat="44.2220568750" lon="14.8355516139"><ele>-1.30</ele><time>2011-10-13T02:38:17Z</time></trkpt><trkpt lat="44.2220560368" lon="14.8355523683"><ele>-0.82</ele><time>2011-10-13T02:38:43Z</time></trkpt><trkpt lat="44.2220567074" lon="14.8355506081"><ele>-0.82</ele><time>2011-10-13T02:39:08Z</time></trkpt><trkpt lat="44.2220567074" lon="14.8355506081"><ele>-0.82</ele><time>2011-10-13T02:39:34Z</time></trkpt><trkpt lat="44.2220590543" lon="14.8355615046"><ele>-0.82</ele><time>2011-10-13T02:39:59Z</time></trkpt><trkpt lat="44.2220608983" lon="14.8355635162"><ele>-0.34</ele><time>2011-10-13T02:40:22Z</time></trkpt><trkpt lat="44.2220608983" lon="14.8355635162"><ele>-0.34</ele><time>2011-10-13T02:40:48Z</time></trkpt><trkpt lat="44.2220608145" lon="14.8355615046"><ele>-0.34</ele><time>2011-10-13T02:41:13Z</time></trkpt><trkpt lat="44.2220608145" lon="14.8355615046"><ele>-0.34</ele><time>2011-10-13T02:41:31Z</time></trkpt><trkpt lat="44.2220612336" lon="14.8355623428"><ele>-0.34</ele><time>2011-10-13T02:41:51Z</time></trkpt><trkpt lat="44.2220612336" lon="14.8355623428"><ele>-0.34</ele><time>2011-10-13T02:42:18Z</time></trkpt><trkpt lat="44.2220622394" lon="14.8355584871"><ele>-0.34</ele><time>2011-10-13T02:42:39Z</time></trkpt><trkpt lat="44.2220625747" lon="14.8355626781"><ele>-0.34</ele><time>2011-10-13T02:43:07Z</time></trkpt><trkpt lat="44.2220625747" lon="14.8355626781"><ele>-0.34</ele><time>2011-10-13T02:43:30Z</time></trkpt><trkpt lat="44.2220641673" lon="14.8355625104"><ele>-0.34</ele><time>2011-10-13T02:43:53Z</time></trkpt><trkpt lat="44.2220641673" lon="14.8355625104"><ele>-0.34</ele><time>2011-10-13T02:44:13Z</time></trkpt><trkpt lat="44.2220645025" lon="14.8355620075"><ele>-0.34</ele><time>2011-10-13T02:44:36Z</time></trkpt><trkpt lat="44.2220645025" lon="14.8355620075"><ele>-0.34</ele><time>2011-10-13T02:44:56Z</time></trkpt><trkpt lat="44.2220618203" lon="14.8355610017"><ele>-0.34</ele><time>2011-10-13T02:45:20Z</time></trkpt><trkpt lat="44.2220599763" lon="14.8355560564"><ele>-0.34</ele><time>2011-10-13T02:45:46Z</time></trkpt><trkpt lat="44.2220651731" lon="14.8355511948"><ele>-0.34</ele><time>2011-10-13T02:46:03Z</time></trkpt><trkpt lat="44.2220651731" lon="14.8355511948"><ele>-0.34</ele><time>2011-10-13T02:46:29Z</time></trkpt><trkpt lat="44.2220663466" lon="14.8355546314"><ele>0.14</ele><time>2011-10-13T02:46:46Z</time></trkpt><trkpt lat="44.2220663466" lon="14.8355546314"><ele>0.14</ele><time>2011-10-13T02:47:08Z</time></trkpt><trkpt lat="44.2220671009" lon="14.8355557211"><ele>0.14</ele><time>2011-10-13T02:47:33Z</time></trkpt><trkpt lat="44.2220642511" lon="14.8355522007"><ele>-0.34</ele><time>2011-10-13T02:47:55Z</time></trkpt><trkpt lat="44.2220642511" lon="14.8355522007"><ele>-0.34</ele><time>2011-10-13T02:48:17Z</time></trkpt><trkpt lat="44.2220634129" lon="14.8355522845"><ele>-0.34</ele><time>2011-10-13T02:48:40Z</time></trkpt><trkpt lat="44.2220634129" lon="14.8355522845"><ele>-0.34</ele><time>2011-10-13T02:49:01Z</time></trkpt><trkpt lat="44.2220669333" lon="14.8355540447"><ele>-0.34</ele><time>2011-10-13T02:49:24Z</time></trkpt><trkpt lat="44.2220669333" lon="14.8355540447"><ele>-0.34</ele><time>2011-10-13T02:49:42Z</time></trkpt><trkpt lat="44.2220680229" lon="14.8355585709"><ele>-0.34</ele><time>2011-10-13T02:50:04Z</time></trkpt><trkpt lat="44.2220671009" lon="14.8355608340"><ele>-0.34</ele><time>2011-10-13T02:50:31Z</time></trkpt><trkpt lat="44.2220671009" lon="14.8355608340"><ele>-0.34</ele><time>2011-10-13T02:50:55Z</time></trkpt><trkpt lat="44.2220668495" lon="14.8355596606"><ele>-0.82</ele><time>2011-10-13T02:51:16Z</time></trkpt><trkpt lat="44.2220668495" lon="14.8355596606"><ele>-0.82</ele><time>2011-10-13T02:51:37Z</time></trkpt><trkpt lat="44.2220716272" lon="14.8355523683"><ele>-0.82</ele><time>2011-10-13T02:51:56Z</time></trkpt><trkpt lat="44.2220771592" lon="14.8355483450"><ele>-0.82</ele><time>2011-10-13T02:52:17Z</time></trkpt><trkpt lat="44.2220796738" lon="14.8355480097"><ele>-0.34</ele><time>2011-10-13T02:52:35Z</time></trkpt><trkpt lat="44.2220796738" lon="14.8355480097"><ele>-0.34</ele><time>2011-10-13T02:52:58Z</time></trkpt><trkpt lat="44.2220829427" lon="14.8355502728"><ele>-0.82</ele><time>2011-10-13T02:53:22Z</time></trkpt><trkpt lat="44.2220804282" lon="14.8355558049"><ele>-0.82</ele><time>2011-10-13T02:53:52Z</time></trkpt><trkpt lat="44.2220804282" lon="14.8355558049"><ele>-0.82</ele><time>2011-10-13T02:54:14Z</time></trkpt><trkpt lat="44.2220807634" lon="14.8355563078"><ele>-1.30</ele><time>2011-10-13T02:54:38Z</time></trkpt><trkpt lat="44.2220801767" lon="14.8355568945"><ele>-0.82</ele><time>2011-10-13T02:55:00Z</time></trkpt><trkpt lat="44.2220815178" lon="14.8355582356"><ele>-0.34</ele><time>2011-10-13T02:55:17Z</time></trkpt><trkpt lat="44.2220815178" lon="14.8355582356"><ele>-0.34</ele><time>2011-10-13T02:55:36Z</time></trkpt><trkpt lat="44.2220837809" lon="14.8355680425"><ele>-1.30</ele><time>2011-10-13T02:56:03Z</time></trkpt><trkpt lat="44.2220842000" lon="14.8355719820"><ele>-1.30</ele><time>2011-10-13T02:56:35Z</time></trkpt><trkpt lat="44.2220831942" lon="14.8355705570"><ele>-1.30</ele><time>2011-10-13T02:57:07Z</time></trkpt><trkpt lat="44.2220831942" lon="14.8355705570"><ele>-1.30</ele><time>2011-10-13T02:57:32Z</time></trkpt><trkpt lat="44.2220787518" lon="14.8355641868"><ele>-1.30</ele><time>2011-10-13T02:57:57Z</time></trkpt><trkpt lat="44.2220799252" lon="14.8355639353"><ele>-1.30</ele><time>2011-10-13T02:58:20Z</time></trkpt><trkpt lat="44.2220799252" lon="14.8355639353"><ele>-1.30</ele><time>2011-10-13T02:58:39Z</time></trkpt><trkpt lat="44.2220827751" lon="14.8355730716"><ele>-1.30</ele><time>2011-10-13T02:59:01Z</time></trkpt><trkpt lat="44.2220827751" lon="14.8355730716"><ele>-1.30</ele><time>2011-10-13T02:59:22Z</time></trkpt><trkpt lat="44.2220837809" lon="14.8355723172"><ele>-1.30</ele><time>2011-10-13T02:59:50Z</time></trkpt><trkpt lat="44.2220810149" lon="14.8355682101"><ele>-1.79</ele><time>2011-10-13T03:00:17Z</time></trkpt><trkpt lat="44.2220810149" lon="14.8355682101"><ele>-1.79</ele><time>2011-10-13T03:00:39Z</time></trkpt><trkpt lat="44.2220743094" lon="14.8355691321"><ele>-1.79</ele><time>2011-10-13T03:01:01Z</time></trkpt><trkpt lat="44.2220743094" lon="14.8355691321"><ele>-1.79</ele><time>2011-10-13T03:01:22Z</time></trkpt><trkpt lat="44.2220775783" lon="14.8355667852"><ele>-1.79</ele><time>2011-10-13T03:01:40Z</time></trkpt><trkpt lat="44.2220775783" lon="14.8355667852"><ele>-1.79</ele><time>2011-10-13T03:02:01Z</time></trkpt><trkpt lat="44.2220806796" lon="14.8355676234"><ele>-1.79</ele><time>2011-10-13T03:02:24Z</time></trkpt><trkpt lat="44.2220806796" lon="14.8355676234"><ele>-1.79</ele><time>2011-10-13T03:02:47Z</time></trkpt><trkpt lat="44.2220790870" lon="14.8355678748"><ele>-1.79</ele><time>2011-10-13T03:03:11Z</time></trkpt><trkpt lat="44.2220750637" lon="14.8355626781"><ele>-1.30</ele><time>2011-10-13T03:03:32Z</time></trkpt><trkpt lat="44.2220750637" lon="14.8355626781"><ele>-1.30</ele><time>2011-10-13T03:03:57Z</time></trkpt><trkpt lat="44.2220735550" lon="14.8355642706"><ele>-1.30</ele><time>2011-10-13T03:04:17Z</time></trkpt><trkpt lat="44.2220735550" lon="14.8355642706"><ele>-1.30</ele><time>2011-10-13T03:04:43Z</time></trkpt><trkpt lat="44.2220745608" lon="14.8355622590"><ele>-1.30</ele><time>2011-10-13T03:05:07Z</time></trkpt><trkpt lat="44.2220745608" lon="14.8355622590"><ele>-1.30</ele><time>2011-10-13T03:05:29Z</time></trkpt><trkpt lat="44.2220805120" lon="14.8355670366"><ele>-1.30</ele><time>2011-10-13T03:05:51Z</time></trkpt><trkpt lat="44.2220800091" lon="14.8355649412"><ele>-0.82</ele><time>2011-10-13T03:06:13Z</time></trkpt><trkpt lat="44.2220800091" lon="14.8355649412"><ele>-0.82</ele><time>2011-10-13T03:06:35Z</time></trkpt><trkpt lat="44.2220773268" lon="14.8355629295"><ele>-0.82</ele><time>2011-10-13T03:06:58Z</time></trkpt><trkpt lat="44.2220773268" lon="14.8355629295"><ele>-0.82</ele><time>2011-10-13T03:07:20Z</time></trkpt><trkpt lat="44.2220774945" lon="14.8355606664"><ele>-0.82</ele><time>2011-10-13T03:07:46Z</time></trkpt><trkpt lat="44.2220774945" lon="14.8355606664"><ele>-0.82</ele><time>2011-10-13T03:08:09Z</time></trkpt><trkpt lat="44.2220805958" lon="14.8355599120"><ele>-0.82</ele><time>2011-10-13T03:08:35Z</time></trkpt><trkpt lat="44.2220811825" lon="14.8355596606"><ele>-0.82</ele><time>2011-10-13T03:09:01Z</time></trkpt><trkpt lat="44.2220811825" lon="14.8355596606"><ele>-0.82</ele><time>2011-10-13T03:09:19Z</time></trkpt><trkpt lat="44.2220782489" lon="14.8355557211"><ele>-0.82</ele><time>2011-10-13T03:09:43Z</time></trkpt><trkpt lat="44.2220782489" lon="14.8355557211"><ele>-0.82</ele><time>2011-10-13T03:10:09Z</time></trkpt><trkpt lat="44.2220753990" lon="14.8355568945"><ele>-0.82</ele><time>2011-10-13T03:10:31Z</time></trkpt><trkpt lat="44.2220749799" lon="14.8355552182"><ele>-0.82</ele><time>2011-10-13T03:10:53Z</time></trkpt><trkpt lat="44.2220749799" lon="14.8355552182"><ele>-0.82</ele><time>2011-10-13T03:11:16Z</time></trkpt><trkpt lat="44.2220769916" lon="14.8355584033"><ele>-0.82</ele><time>2011-10-13T03:11:35Z</time></trkpt><trkpt lat="44.2220769916" lon="14.8355584033"><ele>-0.82</ele><time>2011-10-13T03:11:57Z</time></trkpt><trkpt lat="44.2220768239" lon="14.8355580680"><ele>-0.82</ele><time>2011-10-13T03:12:18Z</time></trkpt><trkpt lat="44.2220738903" lon="14.8355563916"><ele>-0.82</ele><time>2011-10-13T03:12:40Z</time></trkpt><trkpt lat="44.2220738903" lon="14.8355563916"><ele>-0.82</ele><time>2011-10-13T03:13:02Z</time></trkpt><trkpt lat="44.2220709566" lon="14.8355527874"><ele>-0.82</ele><time>2011-10-13T03:13:24Z</time></trkpt><trkpt lat="44.2220688611" lon="14.8355537094"><ele>-0.82</ele><time>2011-10-13T03:13:49Z</time></trkpt><trkpt lat="44.2220688611" lon="14.8355537094"><ele>-0.82</ele><time>2011-10-13T03:14:05Z</time></trkpt><trkpt lat="44.2220757343" lon="14.8355467524"><ele>-0.34</ele><time>2011-10-13T03:14:27Z</time></trkpt><trkpt lat="44.2220757343" lon="14.8355467524"><ele>-0.34</ele><time>2011-10-13T03:14:48Z</time></trkpt><trkpt lat="44.2220765725" lon="14.8355486803"><ele>0.14</ele><time>2011-10-13T03:15:12Z</time></trkpt><trkpt lat="44.2220765725" lon="14.8355486803"><ele>0.14</ele><time>2011-10-13T03:15:32Z</time></trkpt><trkpt lat="44.2220742255" lon="14.8355462495"><ele>0.14</ele><time>2011-10-13T03:15:58Z</time></trkpt><trkpt lat="44.2220730521" lon="14.8355440702"><ele>-0.34</ele><time>2011-10-13T03:16:25Z</time></trkpt><trkpt lat="44.2220741417" lon="14.8355455790"><ele>0.14</ele><time>2011-10-13T03:16:48Z</time></trkpt><trkpt lat="44.2220741417" lon="14.8355455790"><ele>0.14</ele><time>2011-10-13T03:17:13Z</time></trkpt><trkpt lat="44.2220735550" lon="14.8355532065"><ele>-0.34</ele><time>2011-10-13T03:17:37Z</time></trkpt><trkpt lat="44.2220744770" lon="14.8355558049"><ele>-0.34</ele><time>2011-10-13T03:18:02Z</time></trkpt><trkpt lat="44.2220720463" lon="14.8355571460"><ele>0.14</ele><time>2011-10-13T03:18:24Z</time></trkpt><trkpt lat="44.2220636643" lon="14.8355585709"><ele>-0.34</ele><time>2011-10-13T03:18:41Z</time></trkpt><trkpt lat="44.2220636643" lon="14.8355585709"><ele>-0.34</ele><time>2011-10-13T03:19:06Z</time></trkpt><trkpt lat="44.2220585514" lon="14.8355522007"><ele>-0.34</ele><time>2011-10-13T03:19:34Z</time></trkpt><trkpt lat="44.2220617365" lon="14.8355480097"><ele>-0.34</ele><time>2011-10-13T03:19:57Z</time></trkpt><trkpt lat="44.2220686097" lon="14.8355496861"><ele>-0.34</ele><time>2011-10-13T03:20:14Z</time></trkpt><trkpt lat="44.2220783327" lon="14.8355485126"><ele>-0.34</ele><time>2011-10-13T03:20:32Z</time></trkpt><trkpt lat="44.2220783327" lon="14.8355485126"><ele>-0.34</ele><time>2011-10-13T03:20:47Z</time></trkpt><trkpt lat="44.2220783327" lon="14.8355485126"><ele>-0.34</ele><time>2011-10-13T03:21:08Z</time></trkpt><trkpt lat="44.2220779136" lon="14.8355488479"><ele>-0.34</ele><time>2011-10-13T03:21:27Z</time></trkpt><trkpt lat="44.2220686097" lon="14.8355507758"><ele>0.14</ele><time>2011-10-13T03:21:47Z</time></trkpt><trkpt lat="44.2220635805" lon="14.8355511948"><ele>0.14</ele><time>2011-10-13T03:22:08Z</time></trkpt><trkpt lat="44.2220624909" lon="14.8355511110"><ele>0.14</ele><time>2011-10-13T03:22:33Z</time></trkpt><trkpt lat="44.2220624909" lon="14.8355511110"><ele>0.14</ele><time>2011-10-13T03:22:53Z</time></trkpt><trkpt lat="44.2220620718" lon="14.8355522845"><ele>0.14</ele><time>2011-10-13T03:23:14Z</time></trkpt><trkpt lat="44.2220620718" lon="14.8355522845"><ele>0.14</ele><time>2011-10-13T03:23:29Z</time></trkpt><trkpt lat="44.2220633291" lon="14.8355560564"><ele>0.62</ele><time>2011-10-13T03:23:51Z</time></trkpt><trkpt lat="44.2220633291" lon="14.8355560564"><ele>0.62</ele><time>2011-10-13T03:24:17Z</time></trkpt><trkpt lat="44.2220634967" lon="14.8355570622"><ele>0.62</ele><time>2011-10-13T03:24:40Z</time></trkpt><trkpt lat="44.2220629938" lon="14.8355568945"><ele>0.14</ele><time>2011-10-13T03:25:09Z</time></trkpt><trkpt lat="44.2220629938" lon="14.8355568945"><ele>0.14</ele><time>2011-10-13T03:25:33Z</time></trkpt><trkpt lat="44.2220653407" lon="14.8355504405"><ele>0.14</ele><time>2011-10-13T03:25:56Z</time></trkpt><trkpt lat="44.2220699508" lon="14.8355480097"><ele>-0.34</ele><time>2011-10-13T03:26:16Z</time></trkpt><trkpt lat="44.2220729683" lon="14.8355480935"><ele>-0.34</ele><time>2011-10-13T03:26:36Z</time></trkpt><trkpt lat="44.2220743094" lon="14.8355509434"><ele>-0.34</ele><time>2011-10-13T03:26:59Z</time></trkpt><trkpt lat="44.2220743094" lon="14.8355509434"><ele>-0.34</ele><time>2011-10-13T03:27:18Z</time></trkpt><trkpt lat="44.2220765725" lon="14.8355536256"><ele>-0.34</ele><time>2011-10-13T03:27:40Z</time></trkpt><trkpt lat="44.2220765725" lon="14.8355536256"><ele>-0.34</ele><time>2011-10-13T03:28:00Z</time></trkpt><trkpt lat="44.2220748123" lon="14.8355527036"><ele>-0.34</ele><time>2011-10-13T03:28:25Z</time></trkpt><trkpt lat="44.2220748123" lon="14.8355527036"><ele>-0.34</ele><time>2011-10-13T03:28:48Z</time></trkpt><trkpt lat="44.2220713757" lon="14.8355511110"><ele>-0.34</ele><time>2011-10-13T03:29:09Z</time></trkpt><trkpt lat="44.2220717948" lon="14.8355564754"><ele>-0.82</ele><time>2011-10-13T03:29:32Z</time></trkpt><trkpt lat="44.2220725492" lon="14.8355516978"><ele>-0.82</ele><time>2011-10-13T03:29:56Z</time></trkpt><trkpt lat="44.2220764048" lon="14.8355527036"><ele>-0.34</ele><time>2011-10-13T03:30:17Z</time></trkpt><trkpt lat="44.2220764048" lon="14.8355527036"><ele>-0.34</ele><time>2011-10-13T03:30:36Z</time></trkpt><trkpt lat="44.2220777459" lon="14.8355531227"><ele>-0.34</ele><time>2011-10-13T03:30:57Z</time></trkpt><trkpt lat="44.2220777459" lon="14.8355531227"><ele>-0.34</ele><time>2011-10-13T03:31:14Z</time></trkpt><trkpt lat="44.2220737226" lon="14.8355508596"><ele>-0.34</ele><time>2011-10-13T03:31:35Z</time></trkpt><trkpt lat="44.2220737226" lon="14.8355508596"><ele>-0.34</ele><time>2011-10-13T03:32:02Z</time></trkpt><trkpt lat="44.2220709566" lon="14.8355506081"><ele>-0.34</ele><time>2011-10-13T03:32:28Z</time></trkpt><trkpt lat="44.2220720463" lon="14.8355480935"><ele>-0.34</ele><time>2011-10-13T03:32:53Z</time></trkpt><trkpt lat="44.2220720463" lon="14.8355480935"><ele>-0.34</ele><time>2011-10-13T03:33:21Z</time></trkpt><trkpt lat="44.2220753152" lon="14.8355509434"><ele>-0.34</ele><time>2011-10-13T03:33:41Z</time></trkpt><trkpt lat="44.2220753152" lon="14.8355509434"><ele>-0.34</ele><time>2011-10-13T03:34:06Z</time></trkpt><trkpt lat="44.2220749799" lon="14.8355522845"><ele>-0.34</ele><time>2011-10-13T03:34:27Z</time></trkpt><trkpt lat="44.2220728844" lon="14.8355518654"><ele>-0.82</ele><time>2011-10-13T03:34:53Z</time></trkpt><trkpt lat="44.2220728844" lon="14.8355518654"><ele>-0.82</ele><time>2011-10-13T03:35:15Z</time></trkpt><trkpt lat="44.2220716272" lon="14.8355501890"><ele>-0.82</ele><time>2011-10-13T03:35:38Z</time></trkpt><trkpt lat="44.2220716272" lon="14.8355501890"><ele>-0.82</ele><time>2011-10-13T03:36:00Z</time></trkpt><trkpt lat="44.2220751476" lon="14.8355458304"><ele>-0.82</ele><time>2011-10-13T03:36:25Z</time></trkpt><trkpt lat="44.2220751476" lon="14.8355458304"><ele>-0.82</ele><time>2011-10-13T03:36:46Z</time></trkpt><trkpt lat="44.2220764048" lon="14.8355476744"><ele>-1.30</ele><time>2011-10-13T03:37:09Z</time></trkpt><trkpt lat="44.2220764048" lon="14.8355476744"><ele>-1.30</ele><time>2011-10-13T03:37:34Z</time></trkpt><trkpt lat="44.2220756505" lon="14.8355485965"><ele>-1.30</ele><time>2011-10-13T03:37:56Z</time></trkpt><trkpt lat="44.2220744770" lon="14.8355507758"><ele>-0.82</ele><time>2011-10-13T03:38:23Z</time></trkpt><trkpt lat="44.2220744770" lon="14.8355507758"><ele>-0.82</ele><time>2011-10-13T03:38:49Z</time></trkpt><trkpt lat="44.2220724653" lon="14.8355467524"><ele>-0.82</ele><time>2011-10-13T03:39:10Z</time></trkpt><trkpt lat="44.2220701184" lon="14.8355445731"><ele>-0.82</ele><time>2011-10-13T03:39:26Z</time></trkpt><trkpt lat="44.2220701184" lon="14.8355445731"><ele>-0.82</ele><time>2011-10-13T03:39:49Z</time></trkpt><trkpt lat="44.2220720463" lon="14.8355455790"><ele>-0.82</ele><time>2011-10-13T03:40:11Z</time></trkpt><trkpt lat="44.2220720463" lon="14.8355455790"><ele>-0.82</ele><time>2011-10-13T03:40:35Z</time></trkpt><trkpt lat="44.2220699508" lon="14.8355415557"><ele>0.14</ele><time>2011-10-13T03:40:54Z</time></trkpt><trkpt lat="44.2220699508" lon="14.8355415557"><ele>0.14</ele><time>2011-10-13T03:41:15Z</time></trkpt><trkpt lat="44.2220643349" lon="14.8355407175"><ele>0.14</ele><time>2011-10-13T03:41:38Z</time></trkpt><trkpt lat="44.2220626585" lon="14.8355442379"><ele>-0.34</ele><time>2011-10-13T03:42:05Z</time></trkpt><trkpt lat="44.2220626585" lon="14.8355442379"><ele>-0.34</ele><time>2011-10-13T03:42:22Z</time></trkpt><trkpt lat="44.2220618203" lon="14.8355376162"><ele>-0.34</ele><time>2011-10-13T03:42:38Z</time></trkpt><trkpt lat="44.2220618203" lon="14.8355376162"><ele>-0.34</ele><time>2011-10-13T03:43:02Z</time></trkpt><trkpt lat="44.2220631614" lon="14.8355338443"><ele>-0.34</ele><time>2011-10-13T03:43:22Z</time></trkpt><trkpt lat="44.2220631614" lon="14.8355338443"><ele>-0.34</ele><time>2011-10-13T03:43:45Z</time></trkpt><trkpt lat="44.2220647540" lon="14.8355304915"><ele>-0.34</ele><time>2011-10-13T03:44:09Z</time></trkpt><trkpt lat="44.2220618203" lon="14.8355304077"><ele>0.14</ele><time>2011-10-13T03:44:33Z</time></trkpt><trkpt lat="44.2220618203" lon="14.8355304077"><ele>0.14</ele><time>2011-10-13T03:45:03Z</time></trkpt><trkpt lat="44.2220606469" lon="14.8355320003"><ele>0.14</ele><time>2011-10-13T03:45:25Z</time></trkpt><trkpt lat="44.2220577970" lon="14.8355305754"><ele>0.14</ele><time>2011-10-13T03:45:48Z</time></trkpt><trkpt lat="44.2220577970" lon="14.8355305754"><ele>0.14</ele><time>2011-10-13T03:46:08Z</time></trkpt><trkpt lat="44.2220577132" lon="14.8355305754"><ele>0.14</ele><time>2011-10-13T03:46:27Z</time></trkpt><trkpt lat="44.2220577132" lon="14.8355305754"><ele>0.14</ele><time>2011-10-13T03:46:48Z</time></trkpt><trkpt lat="44.2220577132" lon="14.8355305754"><ele>0.14</ele><time>2011-10-13T03:47:05Z</time></trkpt><trkpt lat="44.2220569588" lon="14.8355306592"><ele>0.62</ele><time>2011-10-13T03:47:23Z</time></trkpt><trkpt lat="44.2220561206" lon="14.8355319165"><ele>0.62</ele><time>2011-10-13T03:47:46Z</time></trkpt><trkpt lat="44.2220561206" lon="14.8355319165"><ele>0.62</ele><time>2011-10-13T03:48:06Z</time></trkpt><trkpt lat="44.2220535222" lon="14.8355356883"><ele>0.14</ele><time>2011-10-13T03:48:27Z</time></trkpt><trkpt lat="44.2220535222" lon="14.8355356883"><ele>0.14</ele><time>2011-10-13T03:48:49Z</time></trkpt><trkpt lat="44.2220449727" lon="14.8355334252"><ele>0.14</ele><time>2011-10-13T03:49:12Z</time></trkpt><trkpt lat="44.2220449727" lon="14.8355334252"><ele>0.14</ele><time>2011-10-13T03:49:35Z</time></trkpt><trkpt lat="44.2220439669" lon="14.8355319165"><ele>-0.34</ele><time>2011-10-13T03:49:59Z</time></trkpt><trkpt lat="44.2220439669" lon="14.8355319165"><ele>-0.34</ele><time>2011-10-13T03:50:21Z</time></trkpt><trkpt lat="44.2220372614" lon="14.8355341796"><ele>-0.34</ele><time>2011-10-13T03:50:42Z</time></trkpt><trkpt lat="44.2220372614" lon="14.8355341796"><ele>-0.34</ele><time>2011-10-13T03:51:00Z</time></trkpt><trkpt lat="44.2220329028" lon="14.8355341796"><ele>-0.34</ele><time>2011-10-13T03:51:25Z</time></trkpt><trkpt lat="44.2220329028" lon="14.8355341796"><ele>-0.34</ele><time>2011-10-13T03:51:45Z</time></trkpt><trkpt lat="44.2220310587" lon="14.8355330061"><ele>-0.34</ele><time>2011-10-13T03:52:10Z</time></trkpt><trkpt lat="44.2220302206" lon="14.8355309106"><ele>-0.34</ele><time>2011-10-13T03:52:34Z</time></trkpt><trkpt lat="44.2220302206" lon="14.8355309106"><ele>-0.34</ele><time>2011-10-13T03:52:57Z</time></trkpt><trkpt lat="44.2220289633" lon="14.8355338443"><ele>-0.34</ele><time>2011-10-13T03:53:19Z</time></trkpt><trkpt lat="44.2220289633" lon="14.8355338443"><ele>-0.34</ele><time>2011-10-13T03:53:41Z</time></trkpt><trkpt lat="44.2220277898" lon="14.8355284799"><ele>-0.34</ele><time>2011-10-13T03:54:01Z</time></trkpt><trkpt lat="44.2220277898" lon="14.8355284799"><ele>-0.34</ele><time>2011-10-13T03:54:18Z</time></trkpt><trkpt lat="44.2220282927" lon="14.8355271388"><ele>-0.34</ele><time>2011-10-13T03:54:39Z</time></trkpt><trkpt lat="44.2220282927" lon="14.8355271388"><ele>-0.34</ele><time>2011-10-13T03:54:59Z</time></trkpt><trkpt lat="44.2220297176" lon="14.8355219420"><ele>0.14</ele><time>2011-10-13T03:55:24Z</time></trkpt><trkpt lat="44.2220298853" lon="14.8355246242"><ele>0.14</ele><time>2011-10-13T03:55:48Z</time></trkpt><trkpt lat="44.2220298853" lon="14.8355246242"><ele>0.14</ele><time>2011-10-13T03:56:15Z</time></trkpt><trkpt lat="44.2220292147" lon="14.8355297372"><ele>0.14</ele><time>2011-10-13T03:56:41Z</time></trkpt><trkpt lat="44.2220292147" lon="14.8355297372"><ele>0.14</ele><time>2011-10-13T03:57:02Z</time></trkpt><trkpt lat="44.2220293824" lon="14.8355303239"><ele>-0.34</ele><time>2011-10-13T03:57:21Z</time></trkpt><trkpt lat="44.2220250238" lon="14.8355343472"><ele>-0.34</ele><time>2011-10-13T03:57:40Z</time></trkpt><trkpt lat="44.2220250238" lon="14.8355343472"><ele>-0.34</ele><time>2011-10-13T03:58:03Z</time></trkpt><trkpt lat="44.2220288794" lon="14.8355373647"><ele>-0.34</ele><time>2011-10-13T03:58:20Z</time></trkpt><trkpt lat="44.2220288794" lon="14.8355373647"><ele>-0.34</ele><time>2011-10-13T03:58:38Z</time></trkpt><trkpt lat="44.2220314778" lon="14.8355441540"><ele>0.14</ele><time>2011-10-13T03:59:05Z</time></trkpt><trkpt lat="44.2220313940" lon="14.8355457466"><ele>0.14</ele><time>2011-10-13T03:59:29Z</time></trkpt><trkpt lat="44.2220385186" lon="14.8355493508"><ele>0.62</ele><time>2011-10-13T03:59:51Z</time></trkpt><trkpt lat="44.2220385186" lon="14.8355493508"><ele>0.62</ele><time>2011-10-13T04:00:13Z</time></trkpt><trkpt lat="44.2220376804" lon="14.8355488479"><ele>0.62</ele><time>2011-10-13T04:00:37Z</time></trkpt><trkpt lat="44.2220376804" lon="14.8355488479"><ele>0.62</ele><time>2011-10-13T04:01:02Z</time></trkpt><trkpt lat="44.2220317293" lon="14.8355418909"><ele>0.62</ele><time>2011-10-13T04:01:29Z</time></trkpt><trkpt lat="44.2220314778" lon="14.8355391249"><ele>0.62</ele><time>2011-10-13T04:01:51Z</time></trkpt><trkpt lat="44.2220314778" lon="14.8355391249"><ele>0.62</ele><time>2011-10-13T04:02:09Z</time></trkpt><trkpt lat="44.2220355850" lon="14.8355432320"><ele>0.62</ele><time>2011-10-13T04:02:29Z</time></trkpt><trkpt lat="44.2220355850" lon="14.8355432320"><ele>0.62</ele><time>2011-10-13T04:02:50Z</time></trkpt><trkpt lat="44.2220396921" lon="14.8355446570"><ele>0.62</ele><time>2011-10-13T04:03:13Z</time></trkpt><trkpt lat="44.2220396921" lon="14.8355446570"><ele>0.62</ele><time>2011-10-13T04:03:33Z</time></trkpt><trkpt lat="44.2220367584" lon="14.8355440702"><ele>0.62</ele><time>2011-10-13T04:03:57Z</time></trkpt><trkpt lat="44.2220367584" lon="14.8355440702"><ele>0.62</ele><time>2011-10-13T04:04:18Z</time></trkpt><trkpt lat="44.2220384348" lon="14.8355433159"><ele>0.62</ele><time>2011-10-13T04:04:38Z</time></trkpt><trkpt lat="44.2220384348" lon="14.8355433159"><ele>0.62</ele><time>2011-10-13T04:04:58Z</time></trkpt><trkpt lat="44.2220400274" lon="14.8355438188"><ele>0.62</ele><time>2011-10-13T04:05:16Z</time></trkpt><trkpt lat="44.2220400274" lon="14.8355438188"><ele>0.62</ele><time>2011-10-13T04:05:37Z</time></trkpt><trkpt lat="44.2220495827" lon="14.8355450761"><ele>0.62</ele><time>2011-10-13T04:05:52Z</time></trkpt><trkpt lat="44.2220495827" lon="14.8355450761"><ele>0.62</ele><time>2011-10-13T04:06:18Z</time></trkpt><trkpt lat="44.2220511753" lon="14.8355428968"><ele>0.62</ele><time>2011-10-13T04:06:50Z</time></trkpt><trkpt lat="44.2220500018" lon="14.8355395440"><ele>0.62</ele><time>2011-10-13T04:07:13Z</time></trkpt><trkpt lat="44.2220500018" lon="14.8355395440"><ele>0.62</ele><time>2011-10-13T04:07:40Z</time></trkpt><trkpt lat="44.2220476549" lon="14.8355410527"><ele>0.62</ele><time>2011-10-13T04:08:07Z</time></trkpt><trkpt lat="44.2220488284" lon="14.8355393764"><ele>1.10</ele><time>2011-10-13T04:08:28Z</time></trkpt><trkpt lat="44.2220488284" lon="14.8355393764"><ele>1.10</ele><time>2011-10-13T04:08:52Z</time></trkpt><trkpt lat="44.2220469844" lon="14.8355402146"><ele>0.62</ele><time>2011-10-13T04:09:18Z</time></trkpt><trkpt lat="44.2220493313" lon="14.8355405498"><ele>1.10</ele><time>2011-10-13T04:09:45Z</time></trkpt><trkpt lat="44.2220493313" lon="14.8355405498"><ele>1.10</ele><time>2011-10-13T04:10:17Z</time></trkpt><trkpt lat="44.2220473196" lon="14.8355400469"><ele>1.10</ele><time>2011-10-13T04:10:41Z</time></trkpt><trkpt lat="44.2220444698" lon="14.8355381191"><ele>1.10</ele><time>2011-10-13T04:11:03Z</time></trkpt><trkpt lat="44.2220448051" lon="14.8355374485"><ele>1.10</ele><time>2011-10-13T04:11:20Z</time></trkpt><trkpt lat="44.2220448051" lon="14.8355374485"><ele>1.10</ele><time>2011-10-13T04:11:44Z</time></trkpt><trkpt lat="44.2220494989" lon="14.8355330899"><ele>0.62</ele><time>2011-10-13T04:12:06Z</time></trkpt><trkpt lat="44.2220453080" lon="14.8355377838"><ele>0.62</ele><time>2011-10-13T04:12:33Z</time></trkpt><trkpt lat="44.2220453080" lon="14.8355377838"><ele>0.62</ele><time>2011-10-13T04:12:59Z</time></trkpt><trkpt lat="44.2220445536" lon="14.8355404660"><ele>0.62</ele><time>2011-10-13T04:13:24Z</time></trkpt><trkpt lat="44.2220445536" lon="14.8355404660"><ele>0.62</ele><time>2011-10-13T04:13:49Z</time></trkpt><trkpt lat="44.2220462300" lon="14.8355371132"><ele>0.62</ele><time>2011-10-13T04:14:07Z</time></trkpt><trkpt lat="44.2220462300" lon="14.8355371132"><ele>0.62</ele><time>2011-10-13T04:14:31Z</time></trkpt><trkpt lat="44.2220480740" lon="14.8355379514"><ele>0.62</ele><time>2011-10-13T04:14:50Z</time></trkpt><trkpt lat="44.2220480740" lon="14.8355379514"><ele>0.62</ele><time>2011-10-13T04:15:14Z</time></trkpt><trkpt lat="44.2220482416" lon="14.8355358560"><ele>0.62</ele><time>2011-10-13T04:15:38Z</time></trkpt><trkpt lat="44.2220463138" lon="14.8355377000"><ele>1.10</ele><time>2011-10-13T04:16:01Z</time></trkpt><trkpt lat="44.2220463138" lon="14.8355377000"><ele>1.10</ele><time>2011-10-13T04:16:19Z</time></trkpt><trkpt lat="44.2220415361" lon="14.8355434835"><ele>1.58</ele><time>2011-10-13T04:16:45Z</time></trkpt><trkpt lat="44.2220415361" lon="14.8355434835"><ele>1.58</ele><time>2011-10-13T04:17:11Z</time></trkpt><trkpt lat="44.2220352497" lon="14.8355400469"><ele>2.06</ele><time>2011-10-13T04:17:26Z</time></trkpt><trkpt lat="44.2220352497" lon="14.8355400469"><ele>2.06</ele><time>2011-10-13T04:17:44Z</time></trkpt><trkpt lat="44.2220355850" lon="14.8355397955"><ele>2.06</ele><time>2011-10-13T04:18:02Z</time></trkpt><trkpt lat="44.2220355850" lon="14.8355397955"><ele>2.06</ele><time>2011-10-13T04:18:24Z</time></trkpt><trkpt lat="44.2220396083" lon="14.8355422262"><ele>2.06</ele><time>2011-10-13T04:18:45Z</time></trkpt><trkpt lat="44.2220396083" lon="14.8355422262"><ele>2.06</ele><time>2011-10-13T04:19:07Z</time></trkpt><trkpt lat="44.2220398597" lon="14.8355415557"><ele>2.06</ele><time>2011-10-13T04:19:29Z</time></trkpt><trkpt lat="44.2220398597" lon="14.8355415557"><ele>2.06</ele><time>2011-10-13T04:19:48Z</time></trkpt><trkpt lat="44.2220289633" lon="14.8355397955"><ele>2.54</ele><time>2011-10-13T04:20:09Z</time></trkpt><trkpt lat="44.2220289633" lon="14.8355397955"><ele>2.54</ele><time>2011-10-13T04:20:30Z</time></trkpt><trkpt lat="44.2220306396" lon="14.8355427291"><ele>2.54</ele><time>2011-10-13T04:20:51Z</time></trkpt><trkpt lat="44.2220306396" lon="14.8355427291"><ele>2.54</ele><time>2011-10-13T04:21:12Z</time></trkpt><trkpt lat="44.2220323160" lon="14.8355425615"><ele>2.54</ele><time>2011-10-13T04:21:30Z</time></trkpt><trkpt lat="44.2220323160" lon="14.8355425615"><ele>2.54</ele><time>2011-10-13T04:21:55Z</time></trkpt><trkpt lat="44.2220327351" lon="14.8355400469"><ele>2.54</ele><time>2011-10-13T04:22:16Z</time></trkpt><trkpt lat="44.2220307235" lon="14.8355412204"><ele>2.54</ele><time>2011-10-13T04:22:38Z</time></trkpt><trkpt lat="44.2220307235" lon="14.8355412204"><ele>2.54</ele><time>2011-10-13T04:22:59Z</time></trkpt><trkpt lat="44.2220291309" lon="14.8355402146"><ele>2.54</ele><time>2011-10-13T04:23:21Z</time></trkpt><trkpt lat="44.2220291309" lon="14.8355402146"><ele>2.54</ele><time>2011-10-13T04:23:47Z</time></trkpt><trkpt lat="44.2220308073" lon="14.8355409689"><ele>3.02</ele><time>2011-10-13T04:24:11Z</time></trkpt><trkpt lat="44.2220288794" lon="14.8355367780"><ele>2.54</ele><time>2011-10-13T04:24:32Z</time></trkpt><trkpt lat="44.2220288794" lon="14.8355367780"><ele>2.54</ele><time>2011-10-13T04:24:54Z</time></trkpt><trkpt lat="44.2220317293" lon="14.8355361074"><ele>2.54</ele><time>2011-10-13T04:25:19Z</time></trkpt><trkpt lat="44.2220403627" lon="14.8355382867"><ele>2.54</ele><time>2011-10-13T04:25:37Z</time></trkpt><trkpt lat="44.2220403627" lon="14.8355382867"><ele>2.54</ele><time>2011-10-13T04:25:58Z</time></trkpt><trkpt lat="44.2220438831" lon="14.8355363589"><ele>2.54</ele><time>2011-10-13T04:26:21Z</time></trkpt><trkpt lat="44.2220439669" lon="14.8355369456"><ele>2.54</ele><time>2011-10-13T04:26:45Z</time></trkpt><trkpt lat="44.2220439669" lon="14.8355369456"><ele>2.54</ele><time>2011-10-13T04:27:04Z</time></trkpt><trkpt lat="44.2220386025" lon="14.8355382867"><ele>2.54</ele><time>2011-10-13T04:27:25Z</time></trkpt><trkpt lat="44.2220358364" lon="14.8355351854"><ele>2.54</ele><time>2011-10-13T04:27:53Z</time></trkpt><trkpt lat="44.2220358364" lon="14.8355351854"><ele>2.54</ele><time>2011-10-13T04:28:17Z</time></trkpt><trkpt lat="44.2220357526" lon="14.8355335090"><ele>2.54</ele><time>2011-10-13T04:28:42Z</time></trkpt><trkpt lat="44.2220357526" lon="14.8355335090"><ele>2.54</ele><time>2011-10-13T04:29:02Z</time></trkpt><trkpt lat="44.2220384348" lon="14.8355320841"><ele>2.54</ele><time>2011-10-13T04:29:19Z</time></trkpt><trkpt lat="44.2220340762" lon="14.8355261330"><ele>2.54</ele><time>2011-10-13T04:29:39Z</time></trkpt><trkpt lat="44.2220340762" lon="14.8355261330"><ele>2.54</ele><time>2011-10-13T04:30:01Z</time></trkpt><trkpt lat="44.2220349144" lon="14.8355351016"><ele>2.54</ele><time>2011-10-13T04:30:21Z</time></trkpt><trkpt lat="44.2220349144" lon="14.8355351016"><ele>2.54</ele><time>2011-10-13T04:30:46Z</time></trkpt><trkpt lat="44.2220287956" lon="14.8355392087"><ele>2.54</ele><time>2011-10-13T04:31:07Z</time></trkpt><trkpt lat="44.2220287956" lon="14.8355392087"><ele>2.54</ele><time>2011-10-13T04:31:28Z</time></trkpt><trkpt lat="44.2220269516" lon="14.8355407175"><ele>2.54</ele><time>2011-10-13T04:31:49Z</time></trkpt><trkpt lat="44.2220269516" lon="14.8355407175"><ele>2.54</ele><time>2011-10-13T04:32:15Z</time></trkpt><trkpt lat="44.2220296338" lon="14.8355347663"><ele>2.54</ele><time>2011-10-13T04:32:34Z</time></trkpt><trkpt lat="44.2220343277" lon="14.8355335090"><ele>2.06</ele><time>2011-10-13T04:33:00Z</time></trkpt><trkpt lat="44.2220343277" lon="14.8355335090"><ele>2.06</ele><time>2011-10-13T04:33:24Z</time></trkpt><trkpt lat="44.2220323160" lon="14.8355288990"><ele>2.06</ele><time>2011-10-13T04:33:49Z</time></trkpt><trkpt lat="44.2220323160" lon="14.8355288990"><ele>2.06</ele><time>2011-10-13T04:34:12Z</time></trkpt><trkpt lat="44.2220249400" lon="14.8355438188"><ele>1.58</ele><time>2011-10-13T04:34:38Z</time></trkpt><trkpt lat="44.2220287118" lon="14.8355356883"><ele>1.10</ele><time>2011-10-13T04:34:53Z</time></trkpt><trkpt lat="44.2220287118" lon="14.8355356883"><ele>1.10</ele><time>2011-10-13T04:35:13Z</time></trkpt><trkpt lat="44.2220289633" lon="14.8355354369"><ele>1.10</ele><time>2011-10-13T04:35:28Z</time></trkpt><trkpt lat="44.2220289633" lon="14.8355354369"><ele>1.10</ele><time>2011-10-13T04:35:47Z</time></trkpt><trkpt lat="44.2220337410" lon="14.8355346825"><ele>1.10</ele><time>2011-10-13T04:36:12Z</time></trkpt><trkpt lat="44.2220337410" lon="14.8355346825"><ele>1.10</ele><time>2011-10-13T04:36:31Z</time></trkpt><trkpt lat="44.2220339924" lon="14.8355336767"><ele>0.62</ele><time>2011-10-13T04:36:48Z</time></trkpt><trkpt lat="44.2220339924" lon="14.8355336767"><ele>0.62</ele><time>2011-10-13T04:37:05Z</time></trkpt><trkpt lat="44.2220307235" lon="14.8355382867"><ele>0.62</ele><time>2011-10-13T04:37:30Z</time></trkpt><trkpt lat="44.2220307235" lon="14.8355382867"><ele>0.62</ele><time>2011-10-13T04:37:53Z</time></trkpt><trkpt lat="44.2220308073" lon="14.8355384544"><ele>0.62</ele><time>2011-10-13T04:38:15Z</time></trkpt><trkpt lat="44.2220308073" lon="14.8355384544"><ele>0.62</ele><time>2011-10-13T04:38:37Z</time></trkpt><trkpt lat="44.2220341600" lon="14.8355401307"><ele>0.14</ele><time>2011-10-13T04:38:58Z</time></trkpt><trkpt lat="44.2220380157" lon="14.8355439026"><ele>0.14</ele><time>2011-10-13T04:39:17Z</time></trkpt><trkpt lat="44.2220380157" lon="14.8355439026"><ele>0.14</ele><time>2011-10-13T04:39:39Z</time></trkpt><trkpt lat="44.2220387701" lon="14.8355493508"><ele>0.14</ele><time>2011-10-13T04:39:58Z</time></trkpt><trkpt lat="44.2220387701" lon="14.8355493508"><ele>0.14</ele><time>2011-10-13T04:40:17Z</time></trkpt><trkpt lat="44.2220387701" lon="14.8355514463"><ele>0.14</ele><time>2011-10-13T04:40:37Z</time></trkpt><trkpt lat="44.2220387701" lon="14.8355514463"><ele>0.14</ele><time>2011-10-13T04:40:54Z</time></trkpt><trkpt lat="44.2220364232" lon="14.8355558887"><ele>0.14</ele><time>2011-10-13T04:41:15Z</time></trkpt><trkpt lat="44.2220364232" lon="14.8355558887"><ele>0.14</ele><time>2011-10-13T04:41:38Z</time></trkpt><trkpt lat="44.2220375128" lon="14.8355567269"><ele>0.14</ele><time>2011-10-13T04:42:00Z</time></trkpt><trkpt lat="44.2220375128" lon="14.8355567269"><ele>0.14</ele><time>2011-10-13T04:42:19Z</time></trkpt><trkpt lat="44.2220409494" lon="14.8355606664"><ele>-0.34</ele><time>2011-10-13T04:42:43Z</time></trkpt><trkpt lat="44.2220355850" lon="14.8355611693"><ele>-0.34</ele><time>2011-10-13T04:43:08Z</time></trkpt><trkpt lat="44.2220355850" lon="14.8355611693"><ele>-0.34</ele><time>2011-10-13T04:43:31Z</time></trkpt><trkpt lat="44.2220309749" lon="14.8355620075"><ele>-0.34</ele><time>2011-10-13T04:43:51Z</time></trkpt><trkpt lat="44.2220309749" lon="14.8355620075"><ele>-0.34</ele><time>2011-10-13T04:44:09Z</time></trkpt><trkpt lat="44.2220258620" lon="14.8355509434"><ele>-0.34</ele><time>2011-10-13T04:44:26Z</time></trkpt><trkpt lat="44.2220258620" lon="14.8355509434"><ele>-0.34</ele><time>2011-10-13T04:44:44Z</time></trkpt><trkpt lat="44.2220258620" lon="14.8355509434"><ele>-0.34</ele><time>2011-10-13T04:45:01Z</time></trkpt><trkpt lat="44.2220282089" lon="14.8355509434"><ele>-0.34</ele><time>2011-10-13T04:45:21Z</time></trkpt><trkpt lat="44.2220282089" lon="14.8355509434"><ele>-0.34</ele><time>2011-10-13T04:45:43Z</time></trkpt><trkpt lat="44.2220246047" lon="14.8355489317"><ele>-0.34</ele><time>2011-10-13T04:46:09Z</time></trkpt><trkpt lat="44.2220246047" lon="14.8355489317"><ele>-0.34</ele><time>2011-10-13T04:46:32Z</time></trkpt><trkpt lat="44.2220172286" lon="14.8355520330"><ele>-0.34</ele><time>2011-10-13T04:46:57Z</time></trkpt><trkpt lat="44.2220172286" lon="14.8355520330"><ele>-0.34</ele><time>2011-10-13T04:47:18Z</time></trkpt><trkpt lat="44.2220168933" lon="14.8355510272"><ele>-0.34</ele><time>2011-10-13T04:47:39Z</time></trkpt><trkpt lat="44.2220252752" lon="14.8355505243"><ele>-0.34</ele><time>2011-10-13T04:47:59Z</time></trkpt><trkpt lat="44.2220252752" lon="14.8355505243"><ele>-0.34</ele><time>2011-10-13T04:48:21Z</time></trkpt><trkpt lat="44.2220291309" lon="14.8355542962"><ele>-0.34</ele><time>2011-10-13T04:48:47Z</time></trkpt><trkpt lat="44.2220291309" lon="14.8355542962"><ele>-0.34</ele><time>2011-10-13T04:49:09Z</time></trkpt><trkpt lat="44.2220200785" lon="14.8355558887"><ele>-0.34</ele><time>2011-10-13T04:49:28Z</time></trkpt><trkpt lat="44.2220200785" lon="14.8355558887"><ele>-0.34</ele><time>2011-10-13T04:49:53Z</time></trkpt><trkpt lat="44.2220171448" lon="14.8355547991"><ele>-0.34</ele><time>2011-10-13T04:50:09Z</time></trkpt><trkpt lat="44.2220171448" lon="14.8355547991"><ele>-0.34</ele><time>2011-10-13T04:50:30Z</time></trkpt><trkpt lat="44.2220194917" lon="14.8355523683"><ele>0.14</ele><time>2011-10-13T04:50:52Z</time></trkpt><trkpt lat="44.2220194917" lon="14.8355523683"><ele>0.14</ele><time>2011-10-13T04:51:15Z</time></trkpt><trkpt lat="44.2220241856" lon="14.8355518654"><ele>0.14</ele><time>2011-10-13T04:51:40Z</time></trkpt><trkpt lat="44.2220268678" lon="14.8355576489"><ele>0.14</ele><time>2011-10-13T04:52:03Z</time></trkpt><trkpt lat="44.2220268678" lon="14.8355576489"><ele>0.14</ele><time>2011-10-13T04:52:26Z</time></trkpt><trkpt lat="44.2220228445" lon="14.8355578166"><ele>0.14</ele><time>2011-10-13T04:52:54Z</time></trkpt><trkpt lat="44.2220228445" lon="14.8355578166"><ele>0.14</ele><time>2011-10-13T04:53:15Z</time></trkpt><trkpt lat="44.2220206652" lon="14.8355579842"><ele>0.14</ele><time>2011-10-13T04:53:38Z</time></trkpt><trkpt lat="44.2220203299" lon="14.8355576489"><ele>0.14</ele><time>2011-10-13T04:54:04Z</time></trkpt><trkpt lat="44.2220203299" lon="14.8355576489"><ele>0.14</ele><time>2011-10-13T04:54:27Z</time></trkpt><trkpt lat="44.2220215034" lon="14.8355634324"><ele>0.62</ele><time>2011-10-13T04:54:50Z</time></trkpt><trkpt lat="44.2220215034" lon="14.8355634324"><ele>0.62</ele><time>2011-10-13T04:55:17Z</time></trkpt><trkpt lat="44.2220206652" lon="14.8355593253"><ele>0.62</ele><time>2011-10-13T04:55:37Z</time></trkpt><trkpt lat="44.2220149655" lon="14.8355600797"><ele>0.62</ele><time>2011-10-13T04:56:01Z</time></trkpt><trkpt lat="44.2220149655" lon="14.8355600797"><ele>0.62</ele><time>2011-10-13T04:56:22Z</time></trkpt><trkpt lat="44.2220143788" lon="14.8355594929"><ele>0.62</ele><time>2011-10-13T04:56:43Z</time></trkpt><trkpt lat="44.2220143788" lon="14.8355594929"><ele>0.62</ele><time>2011-10-13T04:57:05Z</time></trkpt><trkpt lat="44.2220154684" lon="14.8355562240"><ele>1.10</ele><time>2011-10-13T04:57:29Z</time></trkpt><trkpt lat="44.2220154684" lon="14.8355562240"><ele>1.10</ele><time>2011-10-13T04:57:50Z</time></trkpt><trkpt lat="44.2220178992" lon="14.8355528712"><ele>1.10</ele><time>2011-10-13T04:58:16Z</time></trkpt><trkpt lat="44.2220178992" lon="14.8355528712"><ele>1.10</ele><time>2011-10-13T04:58:38Z</time></trkpt><trkpt lat="44.2220168095" lon="14.8355500214"><ele>1.10</ele><time>2011-10-13T04:59:01Z</time></trkpt><trkpt lat="44.2220147979" lon="14.8355526198"><ele>1.10</ele><time>2011-10-13T04:59:19Z</time></trkpt><trkpt lat="44.2220147979" lon="14.8355526198"><ele>1.10</ele><time>2011-10-13T04:59:38Z</time></trkpt><trkpt lat="44.2220132053" lon="14.8355505243"><ele>1.58</ele><time>2011-10-13T05:00:06Z</time></trkpt><trkpt lat="44.2220132053" lon="14.8355505243"><ele>1.58</ele><time>2011-10-13T05:00:31Z</time></trkpt><trkpt lat="44.2220137082" lon="14.8355495185"><ele>1.10</ele><time>2011-10-13T05:00:54Z</time></trkpt><trkpt lat="44.2220153846" lon="14.8355499376"><ele>1.58</ele><time>2011-10-13T05:01:19Z</time></trkpt><trkpt lat="44.2220153846" lon="14.8355499376"><ele>1.58</ele><time>2011-10-13T05:01:43Z</time></trkpt><trkpt lat="44.2220125347" lon="14.8355481774"><ele>1.10</ele><time>2011-10-13T05:02:06Z</time></trkpt><trkpt lat="44.2220125347" lon="14.8355481774"><ele>1.10</ele><time>2011-10-13T05:02:27Z</time></trkpt><trkpt lat="44.2220104393" lon="14.8355515301"><ele>1.10</ele><time>2011-10-13T05:02:51Z</time></trkpt><trkpt lat="44.2220094334" lon="14.8355490156"><ele>1.10</ele><time>2011-10-13T05:03:17Z</time></trkpt><trkpt lat="44.2220094334" lon="14.8355490156"><ele>1.10</ele><time>2011-10-13T05:03:40Z</time></trkpt><trkpt lat="44.2220099363" lon="14.8355477583"><ele>1.10</ele><time>2011-10-13T05:03:57Z</time></trkpt><trkpt lat="44.2220099363" lon="14.8355477583"><ele>1.10</ele><time>2011-10-13T05:04:19Z</time></trkpt><trkpt lat="44.2220111098" lon="14.8355510272"><ele>1.10</ele><time>2011-10-13T05:04:42Z</time></trkpt><trkpt lat="44.2220111098" lon="14.8355510272"><ele>1.10</ele><time>2011-10-13T05:05:03Z</time></trkpt><trkpt lat="44.2220073380" lon="14.8355489317"><ele>1.58</ele><time>2011-10-13T05:05:24Z</time></trkpt><trkpt lat="44.2220073380" lon="14.8355489317"><ele>1.58</ele><time>2011-10-13T05:05:48Z</time></trkpt><trkpt lat="44.2220044881" lon="14.8355522007"><ele>1.58</ele><time>2011-10-13T05:06:09Z</time></trkpt><trkpt lat="44.2220044881" lon="14.8355522007"><ele>1.58</ele><time>2011-10-13T05:06:31Z</time></trkpt><trkpt lat="44.2220023926" lon="14.8355464172"><ele>1.10</ele><time>2011-10-13T05:06:57Z</time></trkpt><trkpt lat="44.2220030632" lon="14.8355496861"><ele>1.10</ele><time>2011-10-13T05:07:22Z</time></trkpt><trkpt lat="44.2220030632" lon="14.8355496861"><ele>1.10</ele><time>2011-10-13T05:07:43Z</time></trkpt><trkpt lat="44.2220078409" lon="14.8355485965"><ele>1.10</ele><time>2011-10-13T05:08:07Z</time></trkpt><trkpt lat="44.2220078409" lon="14.8355485965"><ele>1.10</ele><time>2011-10-13T05:08:26Z</time></trkpt><trkpt lat="44.2220021412" lon="14.8355530389"><ele>0.62</ele><time>2011-10-13T05:08:40Z</time></trkpt><trkpt lat="44.2220017221" lon="14.8355541285"><ele>0.62</ele><time>2011-10-13T05:09:00Z</time></trkpt><trkpt lat="44.2220017221" lon="14.8355541285"><ele>0.62</ele><time>2011-10-13T05:09:20Z</time></trkpt><trkpt lat="44.2220013868" lon="14.8355547991"><ele>0.62</ele><time>2011-10-13T05:09:40Z</time></trkpt><trkpt lat="44.2220013868" lon="14.8355547991"><ele>0.62</ele><time>2011-10-13T05:09:58Z</time></trkpt><trkpt lat="44.2220048234" lon="14.8355500214"><ele>0.62</ele><time>2011-10-13T05:10:21Z</time></trkpt><trkpt lat="44.2220048234" lon="14.8355500214"><ele>0.62</ele><time>2011-10-13T05:10:45Z</time></trkpt><trkpt lat="44.2220049072" lon="14.8355526198"><ele>0.14</ele><time>2011-10-13T05:11:05Z</time></trkpt><trkpt lat="44.2220049072" lon="14.8355526198"><ele>0.14</ele><time>2011-10-13T05:11:26Z</time></trkpt><trkpt lat="44.2220033985" lon="14.8355526198"><ele>0.14</ele><time>2011-10-13T05:11:49Z</time></trkpt><trkpt lat="44.2220033985" lon="14.8355526198"><ele>0.14</ele><time>2011-10-13T05:12:14Z</time></trkpt><trkpt lat="44.2220002972" lon="14.8355527874"><ele>-0.34</ele><time>2011-10-13T05:12:34Z</time></trkpt><trkpt lat="44.2219959386" lon="14.8355539609"><ele>-0.34</ele><time>2011-10-13T05:12:57Z</time></trkpt><trkpt lat="44.2219959386" lon="14.8355539609"><ele>-0.34</ele><time>2011-10-13T05:13:20Z</time></trkpt><trkpt lat="44.2219931725" lon="14.8355520330"><ele>-0.34</ele><time>2011-10-13T05:13:43Z</time></trkpt><trkpt lat="44.2219931725" lon="14.8355520330"><ele>-0.34</ele><time>2011-10-13T05:14:06Z</time></trkpt><trkpt lat="44.2219904903" lon="14.8355502728"><ele>-0.34</ele><time>2011-10-13T05:14:22Z</time></trkpt><trkpt lat="44.2219904903" lon="14.8355502728"><ele>-0.34</ele><time>2011-10-13T05:14:45Z</time></trkpt><trkpt lat="44.2219879758" lon="14.8355510272"><ele>-0.34</ele><time>2011-10-13T05:15:06Z</time></trkpt><trkpt lat="44.2219879758" lon="14.8355510272"><ele>-0.34</ele><time>2011-10-13T05:15:29Z</time></trkpt><trkpt lat="44.2219847906" lon="14.8355479259"><ele>-0.34</ele><time>2011-10-13T05:15:49Z</time></trkpt><trkpt lat="44.2219847906" lon="14.8355479259"><ele>-0.34</ele><time>2011-10-13T05:16:10Z</time></trkpt><trkpt lat="44.2219826113" lon="14.8355516139"><ele>-0.34</ele><time>2011-10-13T05:16:30Z</time></trkpt><trkpt lat="44.2219836172" lon="14.8355490994"><ele>-0.34</ele><time>2011-10-13T05:16:50Z</time></trkpt><trkpt lat="44.2219821922" lon="14.8355504405"><ele>-0.34</ele><time>2011-10-13T05:17:11Z</time></trkpt><trkpt lat="44.2219821922" lon="14.8355504405"><ele>-0.34</ele><time>2011-10-13T05:17:31Z</time></trkpt><trkpt lat="44.2219773307" lon="14.8355516139"><ele>-0.82</ele><time>2011-10-13T05:17:52Z</time></trkpt><trkpt lat="44.2219773307" lon="14.8355516139"><ele>-0.82</ele><time>2011-10-13T05:18:16Z</time></trkpt><trkpt lat="44.2219785880" lon="14.8355527036"><ele>-0.34</ele><time>2011-10-13T05:18:33Z</time></trkpt><trkpt lat="44.2219785880" lon="14.8355527036"><ele>-0.34</ele><time>2011-10-13T05:18:58Z</time></trkpt><trkpt lat="44.2219822761" lon="14.8355473392"><ele>-0.34</ele><time>2011-10-13T05:19:17Z</time></trkpt><trkpt lat="44.2219822761" lon="14.8355473392"><ele>-0.34</ele><time>2011-10-13T05:19:41Z</time></trkpt><trkpt lat="44.2219846230" lon="14.8355471715"><ele>0.14</ele><time>2011-10-13T05:20:05Z</time></trkpt><trkpt lat="44.2219846230" lon="14.8355471715"><ele>0.14</ele><time>2011-10-13T05:20:29Z</time></trkpt><trkpt lat="44.2219840363" lon="14.8355498537"><ele>-0.34</ele><time>2011-10-13T05:20:48Z</time></trkpt><trkpt lat="44.2219802644" lon="14.8355439864"><ele>-0.82</ele><time>2011-10-13T05:21:11Z</time></trkpt><trkpt lat="44.2219802644" lon="14.8355439864"><ele>-0.82</ele><time>2011-10-13T05:21:33Z</time></trkpt><trkpt lat="44.2219821084" lon="14.8355437350"><ele>-0.82</ele><time>2011-10-13T05:21:57Z</time></trkpt><trkpt lat="44.2219821084" lon="14.8355437350"><ele>-0.82</ele><time>2011-10-13T05:22:18Z</time></trkpt><trkpt lat="44.2219832819" lon="14.8355435673"><ele>-0.34</ele><time>2011-10-13T05:22:41Z</time></trkpt><trkpt lat="44.2219832819" lon="14.8355435673"><ele>-0.34</ele><time>2011-10-13T05:23:07Z</time></trkpt><trkpt lat="44.2219839524" lon="14.8355437350"><ele>-0.34</ele><time>2011-10-13T05:23:27Z</time></trkpt><trkpt lat="44.2219839524" lon="14.8355437350"><ele>-0.34</ele><time>2011-10-13T05:23:49Z</time></trkpt><trkpt lat="44.2219829466" lon="14.8355483450"><ele>-0.34</ele><time>2011-10-13T05:24:09Z</time></trkpt><trkpt lat="44.2219835334" lon="14.8355496861"><ele>-0.34</ele><time>2011-10-13T05:24:30Z</time></trkpt><trkpt lat="44.2219835334" lon="14.8355496861"><ele>-0.34</ele><time>2011-10-13T05:24:55Z</time></trkpt><trkpt lat="44.2219864670" lon="14.8355463333"><ele>-0.34</ele><time>2011-10-13T05:25:16Z</time></trkpt><trkpt lat="44.2219864670" lon="14.8355463333"><ele>-0.34</ele><time>2011-10-13T05:25:39Z</time></trkpt><trkpt lat="44.2219840363" lon="14.8355446570"><ele>0.14</ele><time>2011-10-13T05:26:03Z</time></trkpt><trkpt lat="44.2219840363" lon="14.8355446570"><ele>0.14</ele><time>2011-10-13T05:26:21Z</time></trkpt><trkpt lat="44.2219850421" lon="14.8355478421"><ele>0.14</ele><time>2011-10-13T05:26:40Z</time></trkpt><trkpt lat="44.2219850421" lon="14.8355478421"><ele>0.14</ele><time>2011-10-13T05:26:59Z</time></trkpt><trkpt lat="44.2219835334" lon="14.8355492670"><ele>-0.34</ele><time>2011-10-13T05:27:24Z</time></trkpt><trkpt lat="44.2219835334" lon="14.8355492670"><ele>-0.34</ele><time>2011-10-13T05:27:44Z</time></trkpt><trkpt lat="44.2219832819" lon="14.8355511110"><ele>-0.34</ele><time>2011-10-13T05:28:05Z</time></trkpt><trkpt lat="44.2219832819" lon="14.8355511110"><ele>-0.34</ele><time>2011-10-13T05:28:24Z</time></trkpt><trkpt lat="44.2219861317" lon="14.8355500214"><ele>-0.34</ele><time>2011-10-13T05:28:46Z</time></trkpt><trkpt lat="44.2219861317" lon="14.8355500214"><ele>-0.34</ele><time>2011-10-13T05:29:05Z</time></trkpt><trkpt lat="44.2219870538" lon="14.8355495185"><ele>-0.34</ele><time>2011-10-13T05:29:25Z</time></trkpt><trkpt lat="44.2219870538" lon="14.8355495185"><ele>-0.34</ele><time>2011-10-13T05:29:49Z</time></trkpt><trkpt lat="44.2219864670" lon="14.8355510272"><ele>0.14</ele><time>2011-10-13T05:30:10Z</time></trkpt><trkpt lat="44.2219864670" lon="14.8355510272"><ele>0.14</ele><time>2011-10-13T05:30:29Z</time></trkpt><trkpt lat="44.2219874728" lon="14.8355519492"><ele>0.14</ele><time>2011-10-13T05:30:53Z</time></trkpt><trkpt lat="44.2219905742" lon="14.8355491832"><ele>-0.34</ele><time>2011-10-13T05:31:14Z</time></trkpt><trkpt lat="44.2219905742" lon="14.8355491832"><ele>-0.34</ele><time>2011-10-13T05:31:39Z</time></trkpt><trkpt lat="44.2219889816" lon="14.8355495185"><ele>-0.34</ele><time>2011-10-13T05:32:03Z</time></trkpt><trkpt lat="44.2219889816" lon="14.8355495185"><ele>-0.34</ele><time>2011-10-13T05:32:24Z</time></trkpt><trkpt lat="44.2219853774" lon="14.8355498537"><ele>0.14</ele><time>2011-10-13T05:32:45Z</time></trkpt><trkpt lat="44.2219853774" lon="14.8355498537"><ele>0.14</ele><time>2011-10-13T05:33:08Z</time></trkpt><trkpt lat="44.2219842877" lon="14.8355513625"><ele>0.14</ele><time>2011-10-13T05:33:27Z</time></trkpt><trkpt lat="44.2219845392" lon="14.8355519492"><ele>-0.34</ele><time>2011-10-13T05:33:50Z</time></trkpt><trkpt lat="44.2219845392" lon="14.8355519492"><ele>-0.34</ele><time>2011-10-13T05:34:08Z</time></trkpt><trkpt lat="44.2219845392" lon="14.8355519492"><ele>-0.34</ele><time>2011-10-13T05:34:27Z</time></trkpt><trkpt lat="44.2219863832" lon="14.8355503567"><ele>-0.34</ele><time>2011-10-13T05:34:46Z</time></trkpt><trkpt lat="44.2219863832" lon="14.8355503567"><ele>-0.34</ele><time>2011-10-13T05:35:09Z</time></trkpt><trkpt lat="44.2219845392" lon="14.8355496023"><ele>-0.34</ele><time>2011-10-13T05:35:32Z</time></trkpt><trkpt lat="44.2219856288" lon="14.8355498537"><ele>-0.34</ele><time>2011-10-13T05:35:54Z</time></trkpt><trkpt lat="44.2219856288" lon="14.8355498537"><ele>-0.34</ele><time>2011-10-13T05:36:17Z</time></trkpt><trkpt lat="44.2219876405" lon="14.8355527036"><ele>-0.34</ele><time>2011-10-13T05:36:38Z</time></trkpt><trkpt lat="44.2219876405" lon="14.8355527036"><ele>-0.34</ele><time>2011-10-13T05:37:02Z</time></trkpt><trkpt lat="44.2219904065" lon="14.8355507758"><ele>-0.34</ele><time>2011-10-13T05:37:22Z</time></trkpt><trkpt lat="44.2219897360" lon="14.8355572298"><ele>-0.82</ele><time>2011-10-13T05:37:51Z</time></trkpt><trkpt lat="44.2219897360" lon="14.8355572298"><ele>-0.82</ele><time>2011-10-13T05:38:18Z</time></trkpt><trkpt lat="44.2219871376" lon="14.8355568945"><ele>-0.82</ele><time>2011-10-13T05:38:41Z</time></trkpt><trkpt lat="44.2219871376" lon="14.8355568945"><ele>-0.82</ele><time>2011-10-13T05:39:03Z</time></trkpt><trkpt lat="44.2219860479" lon="14.8355570622"><ele>-0.82</ele><time>2011-10-13T05:39:31Z</time></trkpt><trkpt lat="44.2219854612" lon="14.8355556373"><ele>-0.82</ele><time>2011-10-13T05:39:53Z</time></trkpt><trkpt lat="44.2219854612" lon="14.8355556373"><ele>-0.82</ele><time>2011-10-13T05:40:16Z</time></trkpt><trkpt lat="44.2219870538" lon="14.8355552182"><ele>-0.82</ele><time>2011-10-13T05:40:39Z</time></trkpt><trkpt lat="44.2219870538" lon="14.8355552182"><ele>-0.82</ele><time>2011-10-13T05:41:03Z</time></trkpt><trkpt lat="44.2219849583" lon="14.8355513625"><ele>-0.82</ele><time>2011-10-13T05:41:26Z</time></trkpt><trkpt lat="44.2219849583" lon="14.8355513625"><ele>-0.82</ele><time>2011-10-13T05:41:49Z</time></trkpt><trkpt lat="44.2219811026" lon="14.8355568107"><ele>-0.34</ele><time>2011-10-13T05:42:09Z</time></trkpt><trkpt lat="44.2219811026" lon="14.8355568107"><ele>-0.34</ele><time>2011-10-13T05:42:36Z</time></trkpt><trkpt lat="44.2219805997" lon="14.8355568945"><ele>-0.34</ele><time>2011-10-13T05:43:01Z</time></trkpt><trkpt lat="44.2219812702" lon="14.8355580680"><ele>-0.34</ele><time>2011-10-13T05:43:25Z</time></trkpt><trkpt lat="44.2219812702" lon="14.8355580680"><ele>-0.34</ele><time>2011-10-13T05:43:49Z</time></trkpt><trkpt lat="44.2219810188" lon="14.8355574813"><ele>-0.34</ele><time>2011-10-13T05:44:11Z</time></trkpt><trkpt lat="44.2219810188" lon="14.8355574813"><ele>-0.34</ele><time>2011-10-13T05:44:31Z</time></trkpt><trkpt lat="44.2219737265" lon="14.8355535418"><ele>-0.34</ele><time>2011-10-13T05:44:56Z</time></trkpt><trkpt lat="44.2219737265" lon="14.8355535418"><ele>-0.34</ele><time>2011-10-13T05:45:19Z</time></trkpt><trkpt lat="44.2219704576" lon="14.8355559725"><ele>-0.34</ele><time>2011-10-13T05:45:44Z</time></trkpt><trkpt lat="44.2219716311" lon="14.8355524521"><ele>-0.34</ele><time>2011-10-13T05:46:05Z</time></trkpt><trkpt lat="44.2219716311" lon="14.8355524521"><ele>-0.34</ele><time>2011-10-13T05:46:30Z</time></trkpt><trkpt lat="44.2219742294" lon="14.8355501052"><ele>-0.34</ele><time>2011-10-13T05:46:51Z</time></trkpt><trkpt lat="44.2219821084" lon="14.8355521169"><ele>0.14</ele><time>2011-10-13T05:47:15Z</time></trkpt><trkpt lat="44.2219821084" lon="14.8355521169"><ele>0.14</ele><time>2011-10-13T05:47:37Z</time></trkpt><trkpt lat="44.2219815217" lon="14.8355557211"><ele>0.14</ele><time>2011-10-13T05:48:04Z</time></trkpt><trkpt lat="44.2219784204" lon="14.8355589900"><ele>0.14</ele><time>2011-10-13T05:48:19Z</time></trkpt><trkpt lat="44.2219784204" lon="14.8355589900"><ele>0.14</ele><time>2011-10-13T05:48:43Z</time></trkpt><trkpt lat="44.2219783366" lon="14.8355571460"><ele>0.14</ele><time>2011-10-13T05:49:06Z</time></trkpt><trkpt lat="44.2219838686" lon="14.8355577327"><ele>-0.34</ele><time>2011-10-13T05:49:31Z</time></trkpt><trkpt lat="44.2219838686" lon="14.8355577327"><ele>-0.34</ele><time>2011-10-13T05:49:56Z</time></trkpt><trkpt lat="44.2219861317" lon="14.8355572298"><ele>0.14</ele><time>2011-10-13T05:50:17Z</time></trkpt><trkpt lat="44.2219861317" lon="14.8355572298"><ele>0.14</ele><time>2011-10-13T05:50:37Z</time></trkpt><trkpt lat="44.2219820246" lon="14.8355532903"><ele>0.14</ele><time>2011-10-13T05:50:59Z</time></trkpt><trkpt lat="44.2219820246" lon="14.8355532903"><ele>0.14</ele><time>2011-10-13T05:51:21Z</time></trkpt><trkpt lat="44.2219797615" lon="14.8355534580"><ele>0.14</ele><time>2011-10-13T05:51:46Z</time></trkpt><trkpt lat="44.2219797615" lon="14.8355534580"><ele>0.14</ele><time>2011-10-13T05:52:06Z</time></trkpt><trkpt lat="44.2219736427" lon="14.8355572298"><ele>0.14</ele><time>2011-10-13T05:52:28Z</time></trkpt><trkpt lat="44.2219727207" lon="14.8355512787"><ele>0.62</ele><time>2011-10-13T05:52:53Z</time></trkpt><trkpt lat="44.2219727207" lon="14.8355512787"><ele>0.62</ele><time>2011-10-13T05:53:18Z</time></trkpt><trkpt lat="44.2219747324" lon="14.8355486803"><ele>0.14</ele><time>2011-10-13T05:53:36Z</time></trkpt><trkpt lat="44.2219747324" lon="14.8355486803"><ele>0.14</ele><time>2011-10-13T05:54:01Z</time></trkpt><trkpt lat="44.2219764926" lon="14.8355525360"><ele>0.62</ele><time>2011-10-13T05:54:25Z</time></trkpt><trkpt lat="44.2219722178" lon="14.8355577327"><ele>0.62</ele><time>2011-10-13T05:54:49Z</time></trkpt><trkpt lat="44.2219722178" lon="14.8355577327"><ele>0.62</ele><time>2011-10-13T05:55:20Z</time></trkpt><trkpt lat="44.2219723854" lon="14.8355531227"><ele>0.14</ele><time>2011-10-13T05:55:53Z</time></trkpt><trkpt lat="44.2219750676" lon="14.8355516139"><ele>0.14</ele><time>2011-10-13T05:56:17Z</time></trkpt><trkpt lat="44.2219826113" lon="14.8355593253"><ele>0.62</ele><time>2011-10-13T05:56:38Z</time></trkpt><trkpt lat="44.2219807673" lon="14.8355651088"><ele>0.14</ele><time>2011-10-13T05:56:59Z</time></trkpt><trkpt lat="44.2219807673" lon="14.8355651088"><ele>0.14</ele><time>2011-10-13T05:57:22Z</time></trkpt><trkpt lat="44.2219802644" lon="14.8355691321"><ele>0.62</ele><time>2011-10-13T05:57:45Z</time></trkpt><trkpt lat="44.2219802644" lon="14.8355691321"><ele>0.62</ele><time>2011-10-13T05:58:08Z</time></trkpt><trkpt lat="44.2219785042" lon="14.8355663661"><ele>0.62</ele><time>2011-10-13T05:58:34Z</time></trkpt><trkpt lat="44.2219785880" lon="14.8355620075"><ele>0.62</ele><time>2011-10-13T05:59:03Z</time></trkpt><trkpt lat="44.2219785880" lon="14.8355620075"><ele>0.62</ele><time>2011-10-13T05:59:27Z</time></trkpt><trkpt lat="44.2219784204" lon="14.8355585709"><ele>0.62</ele><time>2011-10-13T05:59:48Z</time></trkpt><trkpt lat="44.2219784204" lon="14.8355585709"><ele>0.62</ele><time>2011-10-13T06:00:10Z</time></trkpt><trkpt lat="44.2219780013" lon="14.8355594929"><ele>0.62</ele><time>2011-10-13T06:00:35Z</time></trkpt><trkpt lat="44.2219764087" lon="14.8355612531"><ele>0.62</ele><time>2011-10-13T06:00:57Z</time></trkpt><trkpt lat="44.2219764087" lon="14.8355612531"><ele>0.62</ele><time>2011-10-13T06:01:20Z</time></trkpt><trkpt lat="44.2219753191" lon="14.8355617560"><ele>0.62</ele><time>2011-10-13T06:01:49Z</time></trkpt><trkpt lat="44.2219752353" lon="14.8355589900"><ele>0.62</ele><time>2011-10-13T06:02:20Z</time></trkpt><trkpt lat="44.2219752353" lon="14.8355589900"><ele>0.62</ele><time>2011-10-13T06:02:44Z</time></trkpt><trkpt lat="44.2219757382" lon="14.8355573136"><ele>0.14</ele><time>2011-10-13T06:03:08Z</time></trkpt><trkpt lat="44.2219735589" lon="14.8355586547"><ele>0.14</ele><time>2011-10-13T06:03:28Z</time></trkpt><trkpt lat="44.2219735589" lon="14.8355586547"><ele>0.14</ele><time>2011-10-13T06:03:53Z</time></trkpt><trkpt lat="44.2219760735" lon="14.8355641868"><ele>0.14</ele><time>2011-10-13T06:04:13Z</time></trkpt><trkpt lat="44.2219761573" lon="14.8355635162"><ele>0.14</ele><time>2011-10-13T06:04:41Z</time></trkpt><trkpt lat="44.2219761573" lon="14.8355635162"><ele>0.14</ele><time>2011-10-13T06:05:12Z</time></trkpt><trkpt lat="44.2219790909" lon="14.8355592415"><ele>0.14</ele><time>2011-10-13T06:05:34Z</time></trkpt><trkpt lat="44.2219750676" lon="14.8355500214"><ele>1.10</ele><time>2011-10-13T06:06:01Z</time></trkpt><trkpt lat="44.2219750676" lon="14.8355500214"><ele>1.10</ele><time>2011-10-13T06:06:25Z</time></trkpt><trkpt lat="44.2219738103" lon="14.8355518654"><ele>0.62</ele><time>2011-10-13T06:06:50Z</time></trkpt><trkpt lat="44.2219738103" lon="14.8355518654"><ele>0.62</ele><time>2011-10-13T06:07:14Z</time></trkpt><trkpt lat="44.2219699547" lon="14.8355548829"><ele>1.10</ele><time>2011-10-13T06:07:38Z</time></trkpt><trkpt lat="44.2219718825" lon="14.8355499376"><ele>0.62</ele><time>2011-10-13T06:08:09Z</time></trkpt><trkpt lat="44.2219718825" lon="14.8355499376"><ele>0.62</ele><time>2011-10-13T06:08:33Z</time></trkpt><trkpt lat="44.2219766602" lon="14.8355452437"><ele>0.62</ele><time>2011-10-13T06:09:00Z</time></trkpt><trkpt lat="44.2219765764" lon="14.8355465010"><ele>0.62</ele><time>2011-10-13T06:09:23Z</time></trkpt><trkpt lat="44.2219765764" lon="14.8355465010"><ele>0.62</ele><time>2011-10-13T06:09:49Z</time></trkpt><trkpt lat="44.2219769116" lon="14.8355508596"><ele>0.62</ele><time>2011-10-13T06:10:10Z</time></trkpt><trkpt lat="44.2219769116" lon="14.8355508596"><ele>0.62</ele><time>2011-10-13T06:10:33Z</time></trkpt><trkpt lat="44.2219741456" lon="14.8355483450"><ele>0.62</ele><time>2011-10-13T06:11:01Z</time></trkpt><trkpt lat="44.2219759058" lon="14.8355475906"><ele>1.10</ele><time>2011-10-13T06:11:27Z</time></trkpt><trkpt lat="44.2219759058" lon="14.8355475906"><ele>1.10</ele><time>2011-10-13T06:11:50Z</time></trkpt><trkpt lat="44.2219774984" lon="14.8355475906"><ele>1.10</ele><time>2011-10-13T06:12:12Z</time></trkpt><trkpt lat="44.2219754029" lon="14.8355522007"><ele>0.62</ele><time>2011-10-13T06:12:41Z</time></trkpt><trkpt lat="44.2219754029" lon="14.8355522007"><ele>0.62</ele><time>2011-10-13T06:13:06Z</time></trkpt><trkpt lat="44.2219738942" lon="14.8355573136"><ele>0.62</ele><time>2011-10-13T06:13:33Z</time></trkpt><trkpt lat="44.2219787557" lon="14.8355497699"><ele>0.14</ele><time>2011-10-13T06:14:02Z</time></trkpt><trkpt lat="44.2219787557" lon="14.8355497699"><ele>0.14</ele><time>2011-10-13T06:14:29Z</time></trkpt><trkpt lat="44.2219873890" lon="14.8355485965"><ele>0.62</ele><time>2011-10-13T06:15:03Z</time></trkpt><trkpt lat="44.2219878919" lon="14.8355475906"><ele>0.62</ele><time>2011-10-13T06:15:29Z</time></trkpt><trkpt lat="44.2219857965" lon="14.8355484288"><ele>0.62</ele><time>2011-10-13T06:15:57Z</time></trkpt><trkpt lat="44.2219857965" lon="14.8355484288"><ele>0.62</ele><time>2011-10-13T06:16:20Z</time></trkpt><trkpt lat="44.2219826113" lon="14.8355514463"><ele>0.62</ele><time>2011-10-13T06:16:48Z</time></trkpt><trkpt lat="44.2219826113" lon="14.8355514463"><ele>0.62</ele><time>2011-10-13T06:17:10Z</time></trkpt><trkpt lat="44.2219807673" lon="14.8355558049"><ele>0.62</ele><time>2011-10-13T06:17:34Z</time></trkpt><trkpt lat="44.2219816055" lon="14.8355536256"><ele>0.62</ele><time>2011-10-13T06:17:59Z</time></trkpt><trkpt lat="44.2219816055" lon="14.8355536256"><ele>0.62</ele><time>2011-10-13T06:18:32Z</time></trkpt><trkpt lat="44.2219886463" lon="14.8355554696"><ele>0.62</ele><time>2011-10-13T06:19:00Z</time></trkpt><trkpt lat="44.2219904903" lon="14.8355541285"><ele>0.62</ele><time>2011-10-13T06:19:30Z</time></trkpt><trkpt lat="44.2219904903" lon="14.8355546314"><ele>0.62</ele><time>2011-10-13T06:19:59Z</time></trkpt><trkpt lat="44.2219904903" lon="14.8355546314"><ele>0.62</ele><time>2011-10-13T06:20:25Z</time></trkpt><trkpt lat="44.2219870538" lon="14.8355568945"><ele>0.62</ele><time>2011-10-13T06:20:51Z</time></trkpt><trkpt lat="44.2219870538" lon="14.8355568945"><ele>0.62</ele><time>2011-10-13T06:21:15Z</time></trkpt><trkpt lat="44.2219846230" lon="14.8355601635"><ele>0.62</ele><time>2011-10-13T06:21:38Z</time></trkpt><trkpt lat="44.2219831981" lon="14.8355584033"><ele>0.62</ele><time>2011-10-13T06:22:07Z</time></trkpt><trkpt lat="44.2219843715" lon="14.8355589062"><ele>0.62</ele><time>2011-10-13T06:22:36Z</time></trkpt><trkpt lat="44.2219843715" lon="14.8355589062"><ele>0.62</ele><time>2011-10-13T06:23:03Z</time></trkpt><trkpt lat="44.2219844554" lon="14.8355589062"><ele>1.10</ele><time>2011-10-13T06:23:33Z</time></trkpt><trkpt lat="44.2219809350" lon="14.8355620075"><ele>1.10</ele><time>2011-10-13T06:24:01Z</time></trkpt><trkpt lat="44.2219809350" lon="14.8355620075"><ele>1.10</ele><time>2011-10-13T06:24:31Z</time></trkpt><trkpt lat="44.2219812702" lon="14.8355651088"><ele>1.10</ele><time>2011-10-13T06:24:59Z</time></trkpt><trkpt lat="44.2219827790" lon="14.8355637677"><ele>1.58</ele><time>2011-10-13T06:25:30Z</time></trkpt><trkpt lat="44.2219876405" lon="14.8355646059"><ele>1.58</ele><time>2011-10-13T06:25:57Z</time></trkpt><trkpt lat="44.2219876405" lon="14.8355646059"><ele>1.58</ele><time>2011-10-13T06:26:22Z</time></trkpt><trkpt lat="44.2219880596" lon="14.8355645221"><ele>1.58</ele><time>2011-10-13T06:26:50Z</time></trkpt><trkpt lat="44.2219862156" lon="14.8355646897"><ele>1.10</ele><time>2011-10-13T06:27:23Z</time></trkpt><trkpt lat="44.2219862156" lon="14.8355646897"><ele>1.10</ele><time>2011-10-13T06:27:48Z</time></trkpt><trkpt lat="44.2219874728" lon="14.8355578166"><ele>1.10</ele><time>2011-10-13T06:28:07Z</time></trkpt><trkpt lat="44.2219918314" lon="14.8355589900"><ele>1.10</ele><time>2011-10-13T06:28:38Z</time></trkpt><trkpt lat="44.2219918314" lon="14.8355589900"><ele>1.10</ele><time>2011-10-13T06:29:04Z</time></trkpt><trkpt lat="44.2219907418" lon="14.8355599120"><ele>1.10</ele><time>2011-10-13T06:29:32Z</time></trkpt><trkpt lat="44.2219868023" lon="14.8355594929"><ele>1.10</ele><time>2011-10-13T06:29:57Z</time></trkpt><trkpt lat="44.2219868023" lon="14.8355594929"><ele>1.10</ele><time>2011-10-13T06:30:28Z</time></trkpt><trkpt lat="44.2219827790" lon="14.8355598282"><ele>1.10</ele><time>2011-10-13T06:30:55Z</time></trkpt><trkpt lat="44.2219838686" lon="14.8355575651"><ele>1.58</ele><time>2011-10-13T06:31:29Z</time></trkpt><trkpt lat="44.2219883949" lon="14.8355554696"><ele>1.58</ele><time>2011-10-13T06:31:54Z</time></trkpt><trkpt lat="44.2219883949" lon="14.8355554696"><ele>1.58</ele><time>2011-10-13T06:32:24Z</time></trkpt><trkpt lat="44.2219937593" lon="14.8355554696"><ele>1.58</ele><time>2011-10-13T06:32:53Z</time></trkpt><trkpt lat="44.2219911609" lon="14.8355551343"><ele>1.58</ele><time>2011-10-13T06:33:24Z</time></trkpt><trkpt lat="44.2219911609" lon="14.8355551343"><ele>1.58</ele><time>2011-10-13T06:33:50Z</time></trkpt><trkpt lat="44.2219887301" lon="14.8355578166"><ele>1.58</ele><time>2011-10-13T06:34:19Z</time></trkpt><trkpt lat="44.2219937593" lon="14.8355547991"><ele>1.58</ele><time>2011-10-13T06:34:50Z</time></trkpt><trkpt lat="44.2220059969" lon="14.8355532065"><ele>2.06</ele><time>2011-10-13T06:35:20Z</time></trkpt><trkpt lat="44.2220059969" lon="14.8355532065"><ele>2.06</ele><time>2011-10-13T06:35:46Z</time></trkpt><trkpt lat="44.2220079247" lon="14.8355533741"><ele>1.58</ele><time>2011-10-13T06:36:13Z</time></trkpt><trkpt lat="44.2220081761" lon="14.8355547991"><ele>1.58</ele><time>2011-10-13T06:36:35Z</time></trkpt><trkpt lat="44.2220081761" lon="14.8355547991"><ele>1.58</ele><time>2011-10-13T06:37:05Z</time></trkpt><trkpt lat="44.2220076732" lon="14.8355553858"><ele>1.58</ele><time>2011-10-13T06:37:34Z</time></trkpt><trkpt lat="44.2220110260" lon="14.8355532065"><ele>1.58</ele><time>2011-10-13T06:37:59Z</time></trkpt><trkpt lat="44.2220110260" lon="14.8355532065"><ele>1.58</ele><time>2011-10-13T06:38:25Z</time></trkpt><trkpt lat="44.2220181506" lon="14.8355551343"><ele>1.58</ele><time>2011-10-13T06:38:53Z</time></trkpt><trkpt lat="44.2220164742" lon="14.8355553858"><ele>1.58</ele><time>2011-10-13T06:39:22Z</time></trkpt><trkpt lat="44.2220164742" lon="14.8355553858"><ele>1.58</ele><time>2011-10-13T06:39:49Z</time></trkpt><trkpt lat="44.2220140435" lon="14.8355576489"><ele>1.58</ele><time>2011-10-13T06:40:17Z</time></trkpt><trkpt lat="44.2220118642" lon="14.8355558049"><ele>1.58</ele><time>2011-10-13T06:40:43Z</time></trkpt><trkpt lat="44.2220126186" lon="14.8355533741"><ele>1.58</ele><time>2011-10-13T06:41:15Z</time></trkpt><trkpt lat="44.2220126186" lon="14.8355533741"><ele>1.58</ele><time>2011-10-13T06:41:43Z</time></trkpt><trkpt lat="44.2220157199" lon="14.8355547152"><ele>2.06</ele><time>2011-10-13T06:42:15Z</time></trkpt><trkpt lat="44.2220132053" lon="14.8355543800"><ele>1.58</ele><time>2011-10-13T06:42:47Z</time></trkpt><trkpt lat="44.2220100202" lon="14.8355588224"><ele>1.10</ele><time>2011-10-13T06:43:18Z</time></trkpt><trkpt lat="44.2220100202" lon="14.8355588224"><ele>1.10</ele><time>2011-10-13T06:43:44Z</time></trkpt><trkpt lat="44.2220091820" lon="14.8355560564"><ele>1.10</ele><time>2011-10-13T06:44:10Z</time></trkpt><trkpt lat="44.2220148817" lon="14.8355421424"><ele>1.58</ele><time>2011-10-13T06:44:36Z</time></trkpt><trkpt lat="44.2220148817" lon="14.8355421424"><ele>1.58</ele><time>2011-10-13T06:45:00Z</time></trkpt><trkpt lat="44.2220274545" lon="14.8355541285"><ele>1.10</ele><time>2011-10-13T06:45:34Z</time></trkpt><trkpt lat="44.2220210843" lon="14.8355518654"><ele>1.58</ele><time>2011-10-13T06:46:04Z</time></trkpt><trkpt lat="44.2220138758" lon="14.8355550505"><ele>1.58</ele><time>2011-10-13T06:46:37Z</time></trkpt><trkpt lat="44.2220138758" lon="14.8355550505"><ele>1.58</ele><time>2011-10-13T06:47:07Z</time></trkpt><trkpt lat="44.2220124509" lon="14.8355501890"><ele>1.58</ele><time>2011-10-13T06:47:34Z</time></trkpt><trkpt lat="44.2220118642" lon="14.8355469201"><ele>1.58</ele><time>2011-10-13T06:47:59Z</time></trkpt><trkpt lat="44.2220118642" lon="14.8355469201"><ele>1.58</ele><time>2011-10-13T06:48:28Z</time></trkpt><trkpt lat="44.2220127024" lon="14.8355431482"><ele>1.10</ele><time>2011-10-13T06:49:04Z</time></trkpt><trkpt lat="44.2220176477" lon="14.8355512787"><ele>1.58</ele><time>2011-10-13T06:49:35Z</time></trkpt><trkpt lat="44.2220161390" lon="14.8355509434"><ele>1.10</ele><time>2011-10-13T06:50:07Z</time></trkpt><trkpt lat="44.2220161390" lon="14.8355509434"><ele>1.10</ele><time>2011-10-13T06:50:33Z</time></trkpt><trkpt lat="44.2220114451" lon="14.8355503567"><ele>1.58</ele><time>2011-10-13T06:51:04Z</time></trkpt><trkpt lat="44.2220093496" lon="14.8355514463"><ele>1.58</ele><time>2011-10-13T06:51:38Z</time></trkpt><trkpt lat="44.2220096849" lon="14.8355471715"><ele>1.10</ele><time>2011-10-13T06:52:09Z</time></trkpt><trkpt lat="44.2220096849" lon="14.8355471715"><ele>1.10</ele><time>2011-10-13T06:52:33Z</time></trkpt><trkpt lat="44.2220066674" lon="14.8355507758"><ele>1.10</ele><time>2011-10-13T06:53:00Z</time></trkpt><trkpt lat="44.2220015544" lon="14.8355537094"><ele>1.58</ele><time>2011-10-13T06:53:25Z</time></trkpt><trkpt lat="44.2220015544" lon="14.8355537094"><ele>1.58</ele><time>2011-10-13T06:53:50Z</time></trkpt><trkpt lat="44.2220005486" lon="14.8355532903"><ele>1.58</ele><time>2011-10-13T06:54:18Z</time></trkpt><trkpt lat="44.2219994590" lon="14.8355564754"><ele>2.06</ele><time>2011-10-13T06:54:42Z</time></trkpt><trkpt lat="44.2219994590" lon="14.8355564754"><ele>2.06</ele><time>2011-10-13T06:55:10Z</time></trkpt><trkpt lat="44.2219988722" lon="14.8355558887"><ele>2.06</ele><time>2011-10-13T06:55:42Z</time></trkpt><trkpt lat="44.2219991237" lon="14.8355513625"><ele>2.06</ele><time>2011-10-13T06:56:10Z</time></trkpt><trkpt lat="44.2219966091" lon="14.8355492670"><ele>2.06</ele><time>2011-10-13T06:56:39Z</time></trkpt><trkpt lat="44.2219966091" lon="14.8355492670"><ele>2.06</ele><time>2011-10-13T06:57:09Z</time></trkpt><trkpt lat="44.2219947651" lon="14.8355502728"><ele>2.06</ele><time>2011-10-13T06:57:34Z</time></trkpt><trkpt lat="44.2219741456" lon="14.8355288990"><ele>2.06</ele><time>2011-10-13T06:57:47Z</time></trkpt><trkpt lat="44.2219745647" lon="14.8355291504"><ele>2.06</ele><time>2011-10-13T06:58:06Z</time></trkpt><trkpt lat="44.2219722178" lon="14.8354881629"><ele>6.39</ele><time>2011-10-13T06:58:37Z</time></trkpt><trkpt lat="44.2219956871" lon="14.8355074413"><ele>5.42</ele><time>2011-10-13T06:59:01Z</time></trkpt><trkpt lat="44.2219851259" lon="14.8355257977"><ele>5.42</ele><time>2011-10-13T06:59:17Z</time></trkpt><trkpt lat="44.2219577171" lon="14.8355386220"><ele>6.39</ele><time>2011-10-13T06:59:48Z</time></trkpt><trkpt lat="44.2219519336" lon="14.8355200142"><ele>3.02</ele><time>2011-10-13T07:00:16Z</time></trkpt><trkpt lat="44.2219507601" lon="14.8355190922"><ele>3.02</ele><time>2011-10-13T07:00:45Z</time></trkpt><trkpt lat="44.2219506763" lon="14.8355191760"><ele>3.02</ele><time>2011-10-13T07:01:14Z</time></trkpt><trkpt lat="44.2219504248" lon="14.8355208524"><ele>3.02</ele><time>2011-10-13T07:01:43Z</time></trkpt><trkpt lat="44.2219504248" lon="14.8355208524"><ele>3.02</ele><time>2011-10-13T07:02:15Z</time></trkpt><trkpt lat="44.2219505087" lon="14.8355254624"><ele>3.02</ele><time>2011-10-13T07:02:42Z</time></trkpt><trkpt lat="44.2219504248" lon="14.8355244566"><ele>3.02</ele><time>2011-10-13T07:03:07Z</time></trkpt><trkpt lat="44.2219504248" lon="14.8355244566"><ele>3.02</ele><time>2011-10-13T07:03:36Z</time></trkpt><trkpt lat="44.2219511792" lon="14.8355229478"><ele>3.02</ele><time>2011-10-13T07:04:07Z</time></trkpt><trkpt lat="44.2219514307" lon="14.8355211876"><ele>3.02</ele><time>2011-10-13T07:04:34Z</time></trkpt><trkpt lat="44.2219510116" lon="14.8355223611"><ele>3.02</ele><time>2011-10-13T07:05:00Z</time></trkpt><trkpt lat="44.2219510116" lon="14.8355223611"><ele>3.02</ele><time>2011-10-13T07:05:27Z</time></trkpt><trkpt lat="44.2219518498" lon="14.8355248757"><ele>3.02</ele><time>2011-10-13T07:05:48Z</time></trkpt><trkpt lat="44.2219518498" lon="14.8355248757"><ele>3.02</ele><time>2011-10-13T07:06:05Z</time></trkpt><trkpt lat="44.2219506763" lon="14.8355278093"><ele>3.02</ele><time>2011-10-13T07:06:36Z</time></trkpt><trkpt lat="44.2219498381" lon="14.8355280608"><ele>3.02</ele><time>2011-10-13T07:07:00Z</time></trkpt><trkpt lat="44.2219498381" lon="14.8355280608"><ele>3.02</ele><time>2011-10-13T07:07:25Z</time></trkpt><trkpt lat="44.2219504248" lon="14.8355266359"><ele>3.02</ele><time>2011-10-13T07:07:46Z</time></trkpt><trkpt lat="44.2219504248" lon="14.8355266359"><ele>3.02</ele><time>2011-10-13T07:08:10Z</time></trkpt><trkpt lat="44.2219433840" lon="14.8355437350"><ele>1.58</ele><time>2011-10-13T07:08:36Z</time></trkpt><trkpt lat="44.2219116166" lon="14.8355825432"><ele>1.10</ele><time>2011-10-13T07:08:41Z</time></trkpt><trkpt lat="44.2216264643" lon="14.8359427135"><ele>1.10</ele><time>2011-10-13T07:09:06Z</time></trkpt><trkpt lat="44.2212123983" lon="14.8363897204"><ele>1.10</ele><time>2011-10-13T07:09:32Z</time></trkpt><trkpt lat="44.2207285110" lon="14.8369188700"><ele>0.14</ele><time>2011-10-13T07:10:01Z</time></trkpt><trkpt lat="44.2202585377" lon="14.8374230415"><ele>0.14</ele><time>2011-10-13T07:10:29Z</time></trkpt><trkpt lat="44.2197381053" lon="14.8379145563"><ele>0.62</ele><time>2011-10-13T07:10:59Z</time></trkpt><trkpt lat="44.2193413898" lon="14.8382613994"><ele>0.14</ele><time>2011-10-13T07:11:22Z</time></trkpt><trkpt lat="44.2188870907" lon="14.8386823386"><ele>0.14</ele><time>2011-10-13T07:11:48Z</time></trkpt><trkpt lat="44.2184003536" lon="14.8391600233"><ele>-0.82</ele><time>2011-10-13T07:12:17Z</time></trkpt><trkpt lat="44.2179491557" lon="14.8395656236"><ele>0.62</ele><time>2011-10-13T07:12:43Z</time></trkpt><trkpt lat="44.2175154760" lon="14.8399558850"><ele>0.62</ele><time>2011-10-13T07:13:08Z</time></trkpt><trkpt lat="44.2170141544" lon="14.8403792549"><ele>0.14</ele><time>2011-10-13T07:13:36Z</time></trkpt><trkpt lat="44.2166171875" lon="14.8406935763"><ele>-0.34</ele><time>2011-10-13T07:13:59Z</time></trkpt><trkpt lat="44.2162971664" lon="14.8410111666"><ele>0.14</ele><time>2011-10-13T07:14:24Z</time></trkpt><trkpt lat="44.2162837554" lon="14.8412746936"><ele>0.62</ele><time>2011-10-13T07:14:48Z</time></trkpt><trkpt lat="44.2163409200" lon="14.8414121568"><ele>1.10</ele><time>2011-10-13T07:15:14Z</time></trkpt><trkpt lat="44.2163460329" lon="14.8414212093"><ele>0.62</ele><time>2011-10-13T07:15:38Z</time></trkpt><trkpt lat="44.2162528262" lon="14.8415366281"><ele>0.14</ele><time>2011-10-13T07:16:03Z</time></trkpt><trkpt lat="44.2162365653" lon="14.8415460158"><ele>0.14</ele><time>2011-10-13T07:16:05Z</time></trkpt><trkpt lat="44.2159916461" lon="14.8418187629"><ele>0.14</ele><time>2011-10-13T07:16:30Z</time></trkpt><trkpt lat="44.2157152109" lon="14.8421941046"><ele>1.10</ele><time>2011-10-13T07:16:53Z</time></trkpt><trkpt lat="44.2154830322" lon="14.8425655067"><ele>2.06</ele><time>2011-10-13T07:17:14Z</time></trkpt><trkpt lat="44.2152156495" lon="14.8430349771"><ele>2.06</ele><time>2011-10-13T07:17:36Z</time></trkpt><trkpt lat="44.2147828080" lon="14.8433896154"><ele>2.54</ele><time>2011-10-13T07:17:59Z</time></trkpt><trkpt lat="44.2141845077" lon="14.8438845668"><ele>1.10</ele><time>2011-10-13T07:18:28Z</time></trkpt><trkpt lat="44.2136435397" lon="14.8443247844"><ele>1.10</ele><time>2011-10-13T07:18:55Z</time></trkpt><trkpt lat="44.2131578084" lon="14.8446811829"><ele>1.58</ele><time>2011-10-13T07:19:19Z</time></trkpt><trkpt lat="44.2126947921" lon="14.8450903036"><ele>2.06</ele><time>2011-10-13T07:19:42Z</time></trkpt><trkpt lat="44.2121580150" lon="14.8454979993"><ele>1.10</ele><time>2011-10-13T07:20:09Z</time></trkpt><trkpt lat="44.2117103375" lon="14.8458995763"><ele>1.58</ele><time>2011-10-13T07:20:32Z</time></trkpt><trkpt lat="44.2111916654" lon="14.8464493454"><ele>1.10</ele><time>2011-10-13T07:21:00Z</time></trkpt><trkpt lat="44.2107255477" lon="14.8469504993"><ele>1.10</ele><time>2011-10-13T07:21:24Z</time></trkpt><trkpt lat="44.2103276588" lon="14.8474348057"><ele>2.06</ele><time>2011-10-13T07:21:45Z</time></trkpt><trkpt lat="44.2099551670" lon="14.8478890210"><ele>1.10</ele><time>2011-10-13T07:22:04Z</time></trkpt><trkpt lat="44.2095337249" lon="14.8484061006"><ele>1.58</ele><time>2011-10-13T07:22:25Z</time></trkpt><trkpt lat="44.2091153841" lon="14.8489247728"><ele>1.10</ele><time>2011-10-13T07:22:46Z</time></trkpt><trkpt lat="44.2085700575" lon="14.8495399207"><ele>1.10</ele><time>2011-10-13T07:23:13Z</time></trkpt><trkpt lat="44.2080875952" lon="14.8501730897"><ele>3.02</ele><time>2011-10-13T07:23:37Z</time></trkpt><trkpt lat="44.2076720204" lon="14.8507827893"><ele>2.54</ele><time>2011-10-13T07:23:59Z</time></trkpt><trkpt lat="44.2072268575" lon="14.8514417745"><ele>1.58</ele><time>2011-10-13T07:24:23Z</time></trkpt><trkpt lat="44.2068404518" lon="14.8520461097"><ele>-0.34</ele><time>2011-10-13T07:24:45Z</time></trkpt><trkpt lat="44.2066676170" lon="14.8523187730"><ele>0.62</ele><time>2011-10-13T07:24:55Z</time></trkpt><trkpt lat="44.2063493561" lon="14.8528346792"><ele>2.54</ele><time>2011-10-13T07:25:13Z</time></trkpt><trkpt lat="44.2059626151" lon="14.8534478154"><ele>3.50</ele><time>2011-10-13T07:25:35Z</time></trkpt><trkpt lat="44.2055112496" lon="14.8542158492"><ele>3.98</ele><time>2011-10-13T07:26:00Z</time></trkpt><trkpt lat="44.2050912324" lon="14.8548903409"><ele>4.46</ele><time>2011-10-13T07:26:24Z</time></trkpt><trkpt lat="44.2047354206" lon="14.8553852923"><ele>5.42</ele><time>2011-10-13T07:26:43Z</time></trkpt><trkpt lat="44.2042607535" lon="14.8560099956"><ele>6.39</ele><time>2011-10-13T07:27:08Z</time></trkpt><trkpt lat="44.2038022634" lon="14.8567140754"><ele>7.35</ele><time>2011-10-13T07:27:33Z</time></trkpt><trkpt lat="44.2032312043" lon="14.8576005455"><ele>7.83</ele><time>2011-10-13T07:28:04Z</time></trkpt><trkpt lat="44.2028042302" lon="14.8582034558"><ele>7.35</ele><time>2011-10-13T07:28:27Z</time></trkpt><trkpt lat="44.2023490090" lon="14.8588296678"><ele>4.46</ele><time>2011-10-13T07:28:50Z</time></trkpt><trkpt lat="44.2019994836" lon="14.8595290538"><ele>4.46</ele><time>2011-10-13T07:29:12Z</time></trkpt><trkpt lat="44.2017001659" lon="14.8602128495"><ele>3.50</ele><time>2011-10-13T07:29:33Z</time></trkpt><trkpt lat="44.2013736069" lon="14.8609945457"><ele>3.98</ele><time>2011-10-13T07:29:56Z</time></trkpt><trkpt lat="44.2010994349" lon="14.8616163991"><ele>3.98</ele><time>2011-10-13T07:30:15Z</time></trkpt><trkpt lat="44.2007893883" lon="14.8622980155"><ele>3.98</ele><time>2011-10-13T07:30:36Z</time></trkpt><trkpt lat="44.2004704569" lon="14.8630276602"><ele>4.94</ele><time>2011-10-13T07:31:00Z</time></trkpt><trkpt lat="44.2002192512" lon="14.8636635952"><ele>4.94</ele><time>2011-10-13T07:31:22Z</time></trkpt><trkpt lat="44.1998629365" lon="14.8643514141"><ele>4.46</ele><time>2011-10-13T07:31:46Z</time></trkpt><trkpt lat="44.1995161772" lon="14.8649815656"><ele>3.98</ele><time>2011-10-13T07:32:08Z</time></trkpt><trkpt lat="44.1991407517" lon="14.8656695522"><ele>3.98</ele><time>2011-10-13T07:32:32Z</time></trkpt><trkpt lat="44.1987384204" lon="14.8663328122"><ele>3.50</ele><time>2011-10-13T07:32:56Z</time></trkpt><trkpt lat="44.1982588917" lon="14.8670901172"><ele>3.02</ele><time>2011-10-13T07:33:22Z</time></trkpt><trkpt lat="44.1977746692" lon="14.8678373639"><ele>4.46</ele><time>2011-10-13T07:33:48Z</time></trkpt><trkpt lat="44.1973091383" lon="14.8685624823"><ele>4.46</ele><time>2011-10-13T07:34:14Z</time></trkpt><trkpt lat="44.1968733631" lon="14.8691803124"><ele>3.02</ele><time>2011-10-13T07:34:36Z</time></trkpt><trkpt lat="44.1964268591" lon="14.8698589951"><ele>4.46</ele><time>2011-10-13T07:34:59Z</time></trkpt><trkpt lat="44.1959594842" lon="14.8705969378"><ele>4.94</ele><time>2011-10-13T07:35:24Z</time></trkpt><trkpt lat="44.1955241282" lon="14.8712661490"><ele>5.42</ele><time>2011-10-13T07:35:47Z</time></trkpt><trkpt lat="44.1950373910" lon="14.8719458375"><ele>5.91</ele><time>2011-10-13T07:36:11Z</time></trkpt><trkpt lat="44.1945550963" lon="14.8726647533"><ele>5.42</ele><time>2011-10-13T07:36:35Z</time></trkpt><trkpt lat="44.1941368394" lon="14.8732571024"><ele>5.91</ele><time>2011-10-13T07:36:56Z</time></trkpt><trkpt lat="44.1936922632" lon="14.8739549797"><ele>6.39</ele><time>2011-10-13T07:37:19Z</time></trkpt><trkpt lat="44.1932455078" lon="14.8746589758"><ele>4.94</ele><time>2011-10-13T07:37:43Z</time></trkpt><trkpt lat="44.1928521451" lon="14.8752930667"><ele>5.91</ele><time>2011-10-13T07:38:04Z</time></trkpt><trkpt lat="44.1924902983" lon="14.8759390600"><ele>5.42</ele><time>2011-10-13T07:38:25Z</time></trkpt><trkpt lat="44.1920121945" lon="14.8767785914"><ele>4.94</ele><time>2011-10-13T07:38:52Z</time></trkpt><trkpt lat="44.1915925965" lon="14.8775146902"><ele>6.39</ele><time>2011-10-13T07:39:16Z</time></trkpt><trkpt lat="44.1911671311" lon="14.8782930337"><ele>6.39</ele><time>2011-10-13T07:39:41Z</time></trkpt><trkpt lat="44.1908383090" lon="14.8789153900"><ele>4.94</ele><time>2011-10-13T07:40:02Z</time></trkpt><trkpt lat="44.1904138494" lon="14.8796774726"><ele>5.91</ele><time>2011-10-13T07:40:28Z</time></trkpt><trkpt lat="44.1900336463" lon="14.8803532217"><ele>5.91</ele><time>2011-10-13T07:40:50Z</time></trkpt><trkpt lat="44.1896111984" lon="14.8811954353"><ele>5.91</ele><time>2011-10-13T07:41:16Z</time></trkpt><trkpt lat="44.1892162431" lon="14.8819130100"><ele>5.91</ele><time>2011-10-13T07:41:40Z</time></trkpt><trkpt lat="44.1887292545" lon="14.8827284854"><ele>4.94</ele><time>2011-10-13T07:42:07Z</time></trkpt><trkpt lat="44.1883329581" lon="14.8834218364"><ele>4.46</ele><time>2011-10-13T07:42:30Z</time></trkpt><trkpt lat="44.1879325546" lon="14.8841107450"><ele>3.98</ele><time>2011-10-13T07:42:53Z</time></trkpt><trkpt lat="44.1875435505" lon="14.8847962171"><ele>4.94</ele><time>2011-10-13T07:43:15Z</time></trkpt><trkpt lat="44.1870718170" lon="14.8856490757"><ele>5.91</ele><time>2011-10-13T07:43:42Z</time></trkpt><trkpt lat="44.1866361257" lon="14.8864073027"><ele>5.91</ele><time>2011-10-13T07:44:07Z</time></trkpt><trkpt lat="44.1862710100" lon="14.8870451655"><ele>5.91</ele><time>2011-10-13T07:44:28Z</time></trkpt><trkpt lat="44.1858587041" lon="14.8877703678"><ele>4.94</ele><time>2011-10-13T07:44:52Z</time></trkpt><trkpt lat="44.1854282934" lon="14.8884886969"><ele>5.91</ele><time>2011-10-13T07:45:15Z</time></trkpt><trkpt lat="44.1850309912" lon="14.8891579080"><ele>5.42</ele><time>2011-10-13T07:45:37Z</time></trkpt><trkpt lat="44.1846746765" lon="14.8897855449"><ele>6.39</ele><time>2011-10-13T07:45:57Z</time></trkpt><trkpt lat="44.1843518056" lon="14.8903426062"><ele>5.91</ele><time>2011-10-13T07:46:15Z</time></trkpt><trkpt lat="44.1840005200" lon="14.8909445945"><ele>5.91</ele><time>2011-10-13T07:46:35Z</time></trkpt><trkpt lat="44.1836158745" lon="14.8915462475"><ele>4.94</ele><time>2011-10-13T07:46:57Z</time></trkpt><trkpt lat="44.1832044069" lon="14.8921969347"><ele>5.91</ele><time>2011-10-13T07:47:19Z</time></trkpt><trkpt lat="44.1828815360" lon="14.8927249108"><ele>7.83</ele><time>2011-10-13T07:47:36Z</time></trkpt><trkpt lat="44.1825398896" lon="14.8933284916"><ele>6.87</ele><time>2011-10-13T07:47:55Z</time></trkpt><trkpt lat="44.1822103970" lon="14.8939023167"><ele>6.39</ele><time>2011-10-13T07:48:14Z</time></trkpt><trkpt lat="44.1818890348" lon="14.8944661673"><ele>6.39</ele><time>2011-10-13T07:48:32Z</time></trkpt><trkpt lat="44.1814971808" lon="14.8950480390"><ele>6.87</ele><time>2011-10-13T07:48:53Z</time></trkpt><trkpt lat="44.1811506730" lon="14.8956442438"><ele>6.87</ele><time>2011-10-13T07:49:13Z</time></trkpt><trkpt lat="44.1808413807" lon="14.8961977847"><ele>7.35</ele><time>2011-10-13T07:49:32Z</time></trkpt><trkpt lat="44.1805248801" lon="14.8967726156"><ele>7.83</ele><time>2011-10-13T07:49:52Z</time></trkpt><trkpt lat="44.1802091338" lon="14.8973650485"><ele>6.87</ele><time>2011-10-13T07:50:12Z</time></trkpt><trkpt lat="44.1798903700" lon="14.8980242014"><ele>6.39</ele><time>2011-10-13T07:50:34Z</time></trkpt><trkpt lat="44.1795798205" lon="14.8987154569"><ele>5.91</ele><time>2011-10-13T07:50:57Z</time></trkpt><trkpt lat="44.1792330611" lon="14.8994969856"><ele>5.91</ele><time>2011-10-13T07:51:24Z</time></trkpt><trkpt lat="44.1789200809" lon="14.9002756644"><ele>5.42</ele><time>2011-10-13T07:51:49Z</time></trkpt><trkpt lat="44.1785903368" lon="14.9010574445"><ele>5.42</ele><time>2011-10-13T07:52:13Z</time></trkpt><trkpt lat="44.1782830562" lon="14.9017358758"><ele>4.94</ele><time>2011-10-13T07:52:35Z</time></trkpt><trkpt lat="44.1779347882" lon="14.9025835376"><ele>4.46</ele><time>2011-10-13T07:53:03Z</time></trkpt><trkpt lat="44.1776220594" lon="14.9033136014"><ele>4.94</ele><time>2011-10-13T07:53:29Z</time></trkpt><trkpt lat="44.1773498151" lon="14.9039904401"><ele>5.42</ele><time>2011-10-13T07:53:51Z</time></trkpt><trkpt lat="44.1770561971" lon="14.9046743196"><ele>5.42</ele><time>2011-10-13T07:54:15Z</time></trkpt><trkpt lat="44.1767702904" lon="14.9053226598"><ele>5.91</ele><time>2011-10-13T07:54:38Z</time></trkpt><trkpt lat="44.1765195038" lon="14.9059295096"><ele>5.42</ele><time>2011-10-13T07:54:57Z</time></trkpt><trkpt lat="44.1762216948" lon="14.9066410493"><ele>4.46</ele><time>2011-10-13T07:55:19Z</time></trkpt><trkpt lat="44.1758935433" lon="14.9073668383"><ele>4.46</ele><time>2011-10-13T07:55:44Z</time></trkpt><trkpt lat="44.1756054573" lon="14.9079639651"><ele>5.42</ele><time>2011-10-13T07:56:04Z</time></trkpt><trkpt lat="44.1752962489" lon="14.9086779356"><ele>6.39</ele><time>2011-10-13T07:56:26Z</time></trkpt><trkpt lat="44.1750401817" lon="14.9092644174"><ele>6.39</ele><time>2011-10-13T07:56:44Z</time></trkpt><trkpt lat="44.1747238487" lon="14.9100654759"><ele>6.39</ele><time>2011-10-13T07:57:08Z</time></trkpt><trkpt lat="44.1744464915" lon="14.9107672088"><ele>4.46</ele><time>2011-10-13T07:57:32Z</time></trkpt><trkpt lat="44.1741985548" lon="14.9114190694"><ele>4.94</ele><time>2011-10-13T07:57:52Z</time></trkpt><trkpt lat="44.1739310883" lon="14.9122229777"><ele>4.94</ele><time>2011-10-13T07:58:15Z</time></trkpt><trkpt lat="44.1736640409" lon="14.9129286502"><ele>4.46</ele><time>2011-10-13T07:58:37Z</time></trkpt><trkpt lat="44.1733393259" lon="14.9136435427"><ele>4.46</ele><time>2011-10-13T07:59:01Z</time></trkpt><trkpt lat="44.1730958316" lon="14.9142414238"><ele>3.50</ele><time>2011-10-13T07:59:20Z</time></trkpt><trkpt lat="44.1728460509" lon="14.9149207771"><ele>3.02</ele><time>2011-10-13T07:59:42Z</time></trkpt><trkpt lat="44.1725955997" lon="14.9155123718"><ele>3.50</ele><time>2011-10-13T08:00:02Z</time></trkpt><trkpt lat="44.1723355930" lon="14.9161376618"><ele>5.42</ele><time>2011-10-13T08:00:22Z</time></trkpt><trkpt lat="44.1720343474" lon="14.9169416539"><ele>3.50</ele><time>2011-10-13T08:00:46Z</time></trkpt><trkpt lat="44.1717432439" lon="14.9176228512"><ele>2.54</ele><time>2011-10-13T08:01:08Z</time></trkpt><trkpt lat="44.1714401543" lon="14.9182830099"><ele>3.50</ele><time>2011-10-13T08:01:30Z</time></trkpt><trkpt lat="44.1711695027" lon="14.9189173523"><ele>5.42</ele><time>2011-10-13T08:01:51Z</time></trkpt><trkpt lat="44.1709291935" lon="14.9195651896"><ele>5.91</ele><time>2011-10-13T08:02:14Z</time></trkpt><trkpt lat="44.1707098391" lon="14.9200990330"><ele>4.94</ele><time>2011-10-13T08:02:36Z</time></trkpt><trkpt lat="44.1704229265" lon="14.9207633827"><ele>4.94</ele><time>2011-10-13T08:03:00Z</time></trkpt><trkpt lat="44.1701648477" lon="14.9214751739"><ele>3.98</ele><time>2011-10-13T08:03:23Z</time></trkpt><trkpt lat="44.1698893346" lon="14.9221481569"><ele>4.46</ele><time>2011-10-13T08:03:45Z</time></trkpt><trkpt lat="44.1695523821" lon="14.9228041247"><ele>3.02</ele><time>2011-10-13T08:04:10Z</time></trkpt><trkpt lat="44.1691879369" lon="14.9235032592"><ele>3.02</ele><time>2011-10-13T08:04:36Z</time></trkpt><trkpt lat="44.1689117532" lon="14.9240669422"><ele>3.50</ele><time>2011-10-13T08:04:55Z</time></trkpt><trkpt lat="44.1686260141" lon="14.9248151109"><ele>3.02</ele><time>2011-10-13T08:05:17Z</time></trkpt><trkpt lat="44.1682782490" lon="14.9256064463"><ele>2.54</ele><time>2011-10-13T08:05:43Z</time></trkpt><trkpt lat="44.1680122074" lon="14.9262019806"><ele>5.91</ele><time>2011-10-13T08:06:06Z</time></trkpt><trkpt lat="44.1677214392" lon="14.9268235825"><ele>4.94</ele><time>2011-10-13T08:06:30Z</time></trkpt><trkpt lat="44.1674196906" lon="14.9274945538"><ele>3.50</ele><time>2011-10-13T08:06:52Z</time></trkpt><trkpt lat="44.1670958977" lon="14.9282604922"><ele>3.02</ele><time>2011-10-13T08:07:16Z</time></trkpt><trkpt lat="44.1667810734" lon="14.9289070722"><ele>3.02</ele><time>2011-10-13T08:07:37Z</time></trkpt><trkpt lat="44.1665134393" lon="14.9293332919"><ele>3.98</ele><time>2011-10-13T08:07:52Z</time></trkpt><trkpt lat="44.1661482397" lon="14.9299605936"><ele>3.02</ele><time>2011-10-13T08:08:14Z</time></trkpt><trkpt lat="44.1658670269" lon="14.9307406973"><ele>3.98</ele><time>2011-10-13T08:08:36Z</time></trkpt><trkpt lat="44.1656219400" lon="14.9314363953"><ele>5.42</ele><time>2011-10-13T08:08:55Z</time></trkpt><trkpt lat="44.1652758513" lon="14.9321631063"><ele>5.42</ele><time>2011-10-13T08:09:17Z</time></trkpt><trkpt lat="44.1650039423" lon="14.9327437207"><ele>5.42</ele><time>2011-10-13T08:09:37Z</time></trkpt><trkpt lat="44.1647258308" lon="14.9332053959"><ele>3.50</ele><time>2011-10-13T08:09:57Z</time></trkpt><trkpt lat="44.1643234156" lon="14.9337200448"><ele>3.50</ele><time>2011-10-13T08:10:23Z</time></trkpt><trkpt lat="44.1639544442" lon="14.9342293292"><ele>4.46</ele><time>2011-10-13T08:10:44Z</time></trkpt><trkpt lat="44.1635470837" lon="14.9348625820"><ele>6.39</ele><time>2011-10-13T08:11:06Z</time></trkpt><trkpt lat="44.1631819680" lon="14.9354522489"><ele>6.39</ele><time>2011-10-13T08:11:25Z</time></trkpt><trkpt lat="44.1627975740" lon="14.9359808955"><ele>4.94</ele><time>2011-10-13T08:11:46Z</time></trkpt><trkpt lat="44.1624040436" lon="14.9365088716"><ele>4.94</ele><time>2011-10-13T08:12:10Z</time></trkpt><trkpt lat="44.1620476451" lon="14.9369117897"><ele>5.91</ele><time>2011-10-13T08:12:33Z</time></trkpt><trkpt lat="44.1616940126" lon="14.9373222515"><ele>5.42</ele><time>2011-10-13T08:12:57Z</time></trkpt><trkpt lat="44.1613066848" lon="14.9377224874"><ele>4.46</ele><time>2011-10-13T08:13:22Z</time></trkpt><trkpt lat="44.1609966382" lon="14.9381741881"><ele>3.98</ele><time>2011-10-13T08:13:44Z</time></trkpt><trkpt lat="44.1606093105" lon="14.9388193432"><ele>3.98</ele><time>2011-10-13T08:14:14Z</time></trkpt><trkpt lat="44.1603037063" lon="14.9393446371"><ele>4.94</ele><time>2011-10-13T08:14:40Z</time></trkpt><trkpt lat="44.1600534227" lon="14.9397464655"><ele>3.98</ele><time>2011-10-13T08:15:00Z</time></trkpt><trkpt lat="44.1597564518" lon="14.9401829112"><ele>4.46</ele><time>2011-10-13T08:15:23Z</time></trkpt><trkpt lat="44.1593878157" lon="14.9406946264"><ele>3.02</ele><time>2011-10-13T08:15:49Z</time></trkpt><trkpt lat="44.1591474228" lon="14.9410435650"><ele>3.02</ele><time>2011-10-13T08:16:07Z</time></trkpt><trkpt lat="44.1588617675" lon="14.9414099380"><ele>3.50</ele><time>2011-10-13T08:16:28Z</time></trkpt><trkpt lat="44.1585668921" lon="14.9417764787"><ele>4.94</ele><time>2011-10-13T08:16:51Z</time></trkpt><trkpt lat="44.1583128367" lon="14.9421426840"><ele>5.42</ele><time>2011-10-13T08:17:15Z</time></trkpt><trkpt lat="44.1580842622" lon="14.9424497131"><ele>5.91</ele><time>2011-10-13T08:17:37Z</time></trkpt><trkpt lat="44.1578067373" lon="14.9428246357"><ele>3.98</ele><time>2011-10-13T08:18:01Z</time></trkpt><trkpt lat="44.1574518476" lon="14.9433503486"><ele>3.02</ele><time>2011-10-13T08:18:24Z</time></trkpt><trkpt lat="44.1570099536" lon="14.9439723697"><ele>7.83</ele><time>2011-10-13T08:18:50Z</time></trkpt><trkpt lat="44.1565694846" lon="14.9445178639"><ele>7.35</ele><time>2011-10-13T08:19:14Z</time></trkpt><trkpt lat="44.1561200470" lon="14.9450661242"><ele>6.87</ele><time>2011-10-13T08:19:37Z</time></trkpt><trkpt lat="44.1557139438" lon="14.9454633426"><ele>7.83</ele><time>2011-10-13T08:19:58Z</time></trkpt><trkpt lat="44.1551940981" lon="14.9459581263"><ele>7.83</ele><time>2011-10-13T08:20:23Z</time></trkpt><trkpt lat="44.1546953749" lon="14.9463286903"><ele>7.35</ele><time>2011-10-13T08:20:48Z</time></trkpt><trkpt lat="44.1542677302" lon="14.9466537405"><ele>6.87</ele><time>2011-10-13T08:21:13Z</time></trkpt><trkpt lat="44.1539291013" lon="14.9469902739"><ele>5.91</ele><time>2011-10-13T08:21:35Z</time></trkpt><trkpt lat="44.1535297874" lon="14.9473908450"><ele>5.91</ele><time>2011-10-13T08:21:58Z</time></trkpt><trkpt lat="44.1530547012" lon="14.9478138797"><ele>5.91</ele><time>2011-10-13T08:22:23Z</time></trkpt><trkpt lat="44.1526057664" lon="14.9482169654"><ele>6.87</ele><time>2011-10-13T08:22:44Z</time></trkpt><trkpt lat="44.1521558259" lon="14.9484912213"><ele>4.94</ele><time>2011-10-13T08:23:04Z</time></trkpt><trkpt lat="44.1516912170" lon="14.9487766251"><ele>4.94</ele><time>2011-10-13T08:23:26Z</time></trkpt><trkpt lat="44.1510989517" lon="14.9491569120"><ele>4.94</ele><time>2011-10-13T08:23:51Z</time></trkpt><trkpt lat="44.1505456623" lon="14.9494038429"><ele>3.98</ele><time>2011-10-13T08:24:14Z</time></trkpt><trkpt lat="44.1498046182" lon="14.9496760871"><ele>3.98</ele><time>2011-10-13T08:24:40Z</time></trkpt><trkpt lat="44.1492100060" lon="14.9498474132"><ele>4.46</ele><time>2011-10-13T08:25:04Z</time></trkpt><trkpt lat="44.1486278828" lon="14.9500127882"><ele>3.50</ele><time>2011-10-13T08:25:28Z</time></trkpt><trkpt lat="44.1480476037" lon="14.9501961004"><ele>2.06</ele><time>2011-10-13T08:25:49Z</time></trkpt><trkpt lat="44.1474515665" lon="14.9504250102"><ele>3.98</ele><time>2011-10-13T08:26:06Z</time></trkpt><trkpt lat="44.1467452236" lon="14.9506829213"><ele>5.42</ele><time>2011-10-13T08:26:28Z</time></trkpt><trkpt lat="44.1462066025" lon="14.9508928880"><ele>3.98</ele><time>2011-10-13T08:26:49Z</time></trkpt><trkpt lat="44.1457383055" lon="14.9511067942"><ele>4.46</ele><time>2011-10-13T08:27:08Z</time></trkpt><trkpt lat="44.1451453697" lon="14.9514122307"><ele>4.94</ele><time>2011-10-13T08:27:29Z</time></trkpt><trkpt lat="44.1445584688" lon="14.9516842235"><ele>4.94</ele><time>2011-10-13T08:27:48Z</time></trkpt><trkpt lat="44.1439255513" lon="14.9519961979"><ele>4.94</ele><time>2011-10-13T08:28:10Z</time></trkpt><trkpt lat="44.1432562564" lon="14.9523267802"><ele>5.91</ele><time>2011-10-13T08:28:33Z</time></trkpt><trkpt lat="44.1428170446" lon="14.9524976034"><ele>5.91</ele><time>2011-10-13T08:28:50Z</time></trkpt><trkpt lat="44.1422930080" lon="14.9527431093"><ele>5.91</ele><time>2011-10-13T08:29:11Z</time></trkpt><trkpt lat="44.1417865735" lon="14.9530021939"><ele>6.87</ele><time>2011-10-13T08:29:31Z</time></trkpt><trkpt lat="44.1412388999" lon="14.9532734323"><ele>4.46</ele><time>2011-10-13T08:29:51Z</time></trkpt><trkpt lat="44.1407871153" lon="14.9534998275"><ele>4.46</ele><time>2011-10-13T08:30:07Z</time></trkpt><trkpt lat="44.1402396094" lon="14.9538848922"><ele>3.98</ele><time>2011-10-13T08:30:28Z</time></trkpt><trkpt lat="44.1397362761" lon="14.9543121178"><ele>4.46</ele><time>2011-10-13T08:30:47Z</time></trkpt><trkpt lat="44.1391929612" lon="14.9548338074"><ele>4.94</ele><time>2011-10-13T08:31:07Z</time></trkpt><trkpt lat="44.1387073975" lon="14.9554068781"><ele>6.39</ele><time>2011-10-13T08:31:25Z</time></trkpt><trkpt lat="44.1382460576" lon="14.9559025839"><ele>6.87</ele><time>2011-10-13T08:31:42Z</time></trkpt><trkpt lat="44.1378145572" lon="14.9563082680"><ele>7.35</ele><time>2011-10-13T08:31:58Z</time></trkpt><trkpt lat="44.1372585017" lon="14.9567891378"><ele>5.42</ele><time>2011-10-13T08:32:19Z</time></trkpt><trkpt lat="44.1368559189" lon="14.9571203068"><ele>5.42</ele><time>2011-10-13T08:32:34Z</time></trkpt><trkpt lat="44.1363523342" lon="14.9576077145"><ele>4.94</ele><time>2011-10-13T08:32:54Z</time></trkpt><trkpt lat="44.1357713006" lon="14.9582477566"><ele>4.46</ele><time>2011-10-13T08:33:16Z</time></trkpt><trkpt lat="44.1352522932" lon="14.9588518403"><ele>6.39</ele><time>2011-10-13T08:33:34Z</time></trkpt><trkpt lat="44.1347262450" lon="14.9594778847"><ele>5.91</ele><time>2011-10-13T08:33:53Z</time></trkpt><trkpt lat="44.1341971792" lon="14.9601988122"><ele>4.94</ele><time>2011-10-13T08:34:14Z</time></trkpt><trkpt lat="44.1337326542" lon="14.9608796742"><ele>3.98</ele><time>2011-10-13T08:34:33Z</time></trkpt><trkpt lat="44.1334007308" lon="14.9614709336"><ele>3.98</ele><time>2011-10-13T08:34:48Z</time></trkpt><trkpt lat="44.1330139898" lon="14.9621235486"><ele>3.98</ele><time>2011-10-13T08:35:05Z</time></trkpt><trkpt lat="44.1325819027" lon="14.9627919216"><ele>4.46</ele><time>2011-10-13T08:35:23Z</time></trkpt><trkpt lat="44.1321594547" lon="14.9634231627"><ele>4.46</ele><time>2011-10-13T08:35:40Z</time></trkpt><trkpt lat="44.1317681875" lon="14.9636500608"><ele>5.42</ele><time>2011-10-13T08:35:52Z</time></trkpt><trkpt lat="44.1313818656" lon="14.9634588696"><ele>3.50</ele><time>2011-10-13T08:36:06Z</time></trkpt><trkpt lat="44.1312466655" lon="14.9630216695"><ele>2.54</ele><time>2011-10-13T08:36:20Z</time></trkpt><trkpt lat="44.1312381160" lon="14.9623410590"><ele>3.02</ele><time>2011-10-13T08:36:37Z</time></trkpt><trkpt lat="44.1312443186" lon="14.9616052117"><ele>3.02</ele><time>2011-10-13T08:36:55Z</time></trkpt><trkpt lat="44.1313608270" lon="14.9608666822"><ele>3.02</ele><time>2011-10-13T08:37:13Z</time></trkpt><trkpt lat="44.1315205861" lon="14.9601460900"><ele>2.06</ele><time>2011-10-13T08:37:30Z</time></trkpt><trkpt lat="44.1315652616" lon="14.9594052136"><ele>2.54</ele><time>2011-10-13T08:37:47Z</time></trkpt><trkpt lat="44.1315443907" lon="14.9587046541"><ele>2.06</ele><time>2011-10-13T08:38:03Z</time></trkpt><trkpt lat="44.1315617412" lon="14.9579400569"><ele>2.54</ele><time>2011-10-13T08:38:21Z</time></trkpt><trkpt lat="44.1315888148" lon="14.9572125915"><ele>2.54</ele><time>2011-10-13T08:38:37Z</time></trkpt><trkpt lat="44.1315897368" lon="14.9563906621"><ele>2.06</ele><time>2011-10-13T08:38:56Z</time></trkpt><trkpt lat="44.1316263657" lon="14.9555845745"><ele>2.54</ele><time>2011-10-13T08:39:14Z</time></trkpt><trkpt lat="44.1316946782" lon="14.9548097514"><ele>2.54</ele><time>2011-10-13T08:39:32Z</time></trkpt><trkpt lat="44.1317499150" lon="14.9540800229"><ele>3.50</ele><time>2011-10-13T08:39:49Z</time></trkpt><trkpt lat="44.1318647470" lon="14.9531417526"><ele>2.54</ele><time>2011-10-13T08:40:09Z</time></trkpt><trkpt lat="44.1320000309" lon="14.9523291271"><ele>2.06</ele><time>2011-10-13T08:40:27Z</time></trkpt><trkpt lat="44.1321498994" lon="14.9513125699"><ele>3.50</ele><time>2011-10-13T08:40:49Z</time></trkpt><trkpt lat="44.1323597822" lon="14.9504658300"><ele>1.10</ele><time>2011-10-13T08:41:08Z</time></trkpt><trkpt lat="44.1325757839" lon="14.9496750813"><ele>1.10</ele><time>2011-10-13T08:41:26Z</time></trkpt><trkpt lat="44.1328448430" lon="14.9488668982"><ele>2.06</ele><time>2011-10-13T08:41:44Z</time></trkpt><trkpt lat="44.1330655385" lon="14.9481323920"><ele>2.54</ele><time>2011-10-13T08:42:01Z</time></trkpt><trkpt lat="44.1332274769" lon="14.9474696349"><ele>2.54</ele><time>2011-10-13T08:42:18Z</time></trkpt><trkpt lat="44.1333787702" lon="14.9468662217"><ele>2.54</ele><time>2011-10-13T08:42:34Z</time></trkpt><trkpt lat="44.1336760763" lon="14.9459624849"><ele>2.54</ele><time>2011-10-13T08:42:57Z</time></trkpt><trkpt lat="44.1340436228" lon="14.9452257156"><ele>3.02</ele><time>2011-10-13T08:43:18Z</time></trkpt><trkpt lat="44.1342561040" lon="14.9444139283"><ele>2.06</ele><time>2011-10-13T08:43:37Z</time></trkpt><trkpt lat="44.1344083194" lon="14.9436159711"><ele>1.10</ele><time>2011-10-13T08:43:55Z</time></trkpt><trkpt lat="44.1345675755" lon="14.9427571613"><ele>1.10</ele><time>2011-10-13T08:44:14Z</time></trkpt><trkpt lat="44.1347417515" lon="14.9418278597"><ele>2.06</ele><time>2011-10-13T08:44:34Z</time></trkpt><trkpt lat="44.1349183582" lon="14.9409081135"><ele>3.02</ele><time>2011-10-13T08:44:55Z</time></trkpt><trkpt lat="44.1350771952" lon="14.9399427697"><ele>2.06</ele><time>2011-10-13T08:45:16Z</time></trkpt><trkpt lat="44.1352139041" lon="14.9389094487"><ele>2.06</ele><time>2011-10-13T08:45:38Z</time></trkpt><trkpt lat="44.1353439912" lon="14.9379803147"><ele>2.54</ele><time>2011-10-13T08:45:58Z</time></trkpt><trkpt lat="44.1354783531" lon="14.9371184036"><ele>2.54</ele><time>2011-10-13T08:46:17Z</time></trkpt><trkpt lat="44.1356230248" lon="14.9360353779"><ele>3.02</ele><time>2011-10-13T08:46:41Z</time></trkpt><trkpt lat="44.1357455682" lon="14.9351445492"><ele>2.54</ele><time>2011-10-13T08:47:02Z</time></trkpt><trkpt lat="44.1358557064" lon="14.9343360309"><ele>1.58</ele><time>2011-10-13T08:47:23Z</time></trkpt><trkpt lat="44.1359230969" lon="14.9335859343"><ele>2.06</ele><time>2011-10-13T08:47:43Z</time></trkpt><trkpt lat="44.1361027211" lon="14.9326008931"><ele>2.06</ele><time>2011-10-13T08:48:07Z</time></trkpt><trkpt lat="44.1362370830" lon="14.9314975832"><ele>2.06</ele><time>2011-10-13T08:48:33Z</time></trkpt><trkpt lat="44.1363581177" lon="14.9304556288"><ele>1.58</ele><time>2011-10-13T08:48:57Z</time></trkpt><trkpt lat="44.1365018673" lon="14.9295923766"><ele>1.10</ele><time>2011-10-13T08:49:18Z</time></trkpt><trkpt lat="44.1365705151" lon="14.9286358338"><ele>2.06</ele><time>2011-10-13T08:49:44Z</time></trkpt><trkpt lat="44.1366789769" lon="14.9277976435"><ele>2.54</ele><time>2011-10-13T08:50:07Z</time></trkpt><trkpt lat="44.1367809847" lon="14.9269703496"><ele>2.54</ele><time>2011-10-13T08:50:28Z</time></trkpt><trkpt lat="44.1368955653" lon="14.9261187483"><ele>2.54</ele><time>2011-10-13T08:50:48Z</time></trkpt><trkpt lat="44.1369653866" lon="14.9253298435"><ele>2.06</ele><time>2011-10-13T08:51:08Z</time></trkpt><trkpt lat="44.1370853316" lon="14.9244365841"><ele>2.54</ele><time>2011-10-13T08:51:32Z</time></trkpt><trkpt lat="44.1373061948" lon="14.9236619286"><ele>2.06</ele><time>2011-10-13T08:51:54Z</time></trkpt><trkpt lat="44.1376957018" lon="14.9232400674"><ele>2.54</ele><time>2011-10-13T08:52:11Z</time></trkpt><trkpt lat="44.1380966920" lon="14.9229996745"><ele>1.58</ele><time>2011-10-13T08:52:26Z</time></trkpt><trkpt lat="44.1384748835" lon="14.9228124227"><ele>1.58</ele><time>2011-10-13T08:52:40Z</time></trkpt><trkpt lat="44.1388433520" lon="14.9226096645"><ele>2.54</ele><time>2011-10-13T08:52:56Z</time></trkpt><trkpt lat="44.1392568313" lon="14.9223629851"><ele>2.54</ele><time>2011-10-13T08:53:14Z</time></trkpt><trkpt lat="44.1396527924" lon="14.9221437983"><ele>3.50</ele><time>2011-10-13T08:53:30Z</time></trkpt><trkpt lat="44.1400921717" lon="14.9219745677"><ele>3.50</ele><time>2011-10-13T08:53:46Z</time></trkpt><trkpt lat="44.1404703632" lon="14.9217893276"><ele>3.02</ele><time>2011-10-13T08:54:03Z</time></trkpt><trkpt lat="44.1408340540" lon="14.9215765111"><ele>3.02</ele><time>2011-10-13T08:54:19Z</time></trkpt><trkpt lat="44.1412771214" lon="14.9214396346"><ele>3.02</ele><time>2011-10-13T08:54:35Z</time></trkpt><trkpt lat="44.1416968033" lon="14.9212067015"><ele>3.50</ele><time>2011-10-13T08:54:54Z</time></trkpt><trkpt lat="44.1421356797" lon="14.9209793005"><ele>2.54</ele><time>2011-10-13T08:55:13Z</time></trkpt><trkpt lat="44.1425400227" lon="14.9208211340"><ele>3.50</ele><time>2011-10-13T08:55:29Z</time></trkpt><trkpt lat="44.1425821837" lon="14.9208082259"><ele>3.50</ele><time>2011-10-13T08:55:31Z</time></trkpt><trkpt lat="44.1428542603" lon="14.9207530729"><ele>3.50</ele><time>2011-10-13T08:55:48Z</time></trkpt><trkpt lat="44.1432409175" lon="14.9205041304"><ele>3.02</ele><time>2011-10-13T08:56:10Z</time></trkpt><trkpt lat="44.1436115652" lon="14.9201880489"><ele>2.06</ele><time>2011-10-13T08:56:30Z</time></trkpt><trkpt lat="44.1440516151" lon="14.9199100211"><ele>3.50</ele><time>2011-10-13T08:56:52Z</time></trkpt><trkpt lat="44.1443593986" lon="14.9197301455"><ele>2.54</ele><time>2011-10-13T08:57:12Z</time></trkpt><trkpt lat="44.1446764860" lon="14.9195678718"><ele>1.58</ele><time>2011-10-13T08:57:35Z</time></trkpt><trkpt lat="44.1449583694" lon="14.9194339290"><ele>2.06</ele><time>2011-10-13T08:58:00Z</time></trkpt><trkpt lat="44.1451542545" lon="14.9193529598"><ele>2.06</ele><time>2011-10-13T08:58:19Z</time></trkpt><trkpt lat="44.1454074718" lon="14.9192362837"><ele>2.06</ele><time>2011-10-13T08:58:40Z</time></trkpt><trkpt lat="44.1457067057" lon="14.9190609343"><ele>2.06</ele><time>2011-10-13T08:59:03Z</time></trkpt><trkpt lat="44.1460284870" lon="14.9188731797"><ele>2.06</ele><time>2011-10-13T08:59:28Z</time></trkpt><trkpt lat="44.1463422216" lon="14.9186953995"><ele>2.54</ele><time>2011-10-13T08:59:52Z</time></trkpt><trkpt lat="44.1466837004" lon="14.9185284320"><ele>2.54</ele><time>2011-10-13T09:00:17Z</time></trkpt><trkpt lat="44.1470009554" lon="14.9183804076"><ele>2.54</ele><time>2011-10-13T09:00:41Z</time></trkpt><trkpt lat="44.1473352257" lon="14.9182425253"><ele>3.98</ele><time>2011-10-13T09:01:06Z</time></trkpt><trkpt lat="44.1475921310" lon="14.9181224126"><ele>3.98</ele><time>2011-10-13T09:01:26Z</time></trkpt><trkpt lat="44.1479882598" lon="14.9179644138"><ele>3.98</ele><time>2011-10-13T09:01:56Z</time></trkpt><trkpt lat="44.1482937802" lon="14.9179017171"><ele>4.46</ele><time>2011-10-13T09:02:19Z</time></trkpt><trkpt lat="44.1485775076" lon="14.9178015534"><ele>3.50</ele><time>2011-10-13T09:02:40Z</time></trkpt><trkpt lat="44.1489207465" lon="14.9176334124"><ele>3.02</ele><time>2011-10-13T09:03:06Z</time></trkpt><trkpt lat="44.1492769774" lon="14.9174785148"><ele>2.54</ele><time>2011-10-13T09:03:33Z</time></trkpt><trkpt lat="44.1495842580" lon="14.9173543788"><ele>3.50</ele><time>2011-10-13T09:03:56Z</time></trkpt><trkpt lat="44.1498888563" lon="14.9172682129"><ele>3.50</ele><time>2011-10-13T09:04:18Z</time></trkpt><trkpt lat="44.1501331888" lon="14.9172190949"><ele>4.46</ele><time>2011-10-13T09:04:36Z</time></trkpt><trkpt lat="44.1504315007" lon="14.9171857350"><ele>3.98</ele><time>2011-10-13T09:04:58Z</time></trkpt><trkpt lat="44.1507419664" lon="14.9171223678"><ele>4.46</ele><time>2011-10-13T09:05:20Z</time></trkpt><trkpt lat="44.1510308906" lon="14.9170209467"><ele>5.42</ele><time>2011-10-13T09:05:41Z</time></trkpt><trkpt lat="44.1513635684" lon="14.9169092160"><ele>3.02</ele><time>2011-10-13T09:06:05Z</time></trkpt><trkpt lat="44.1517233197" lon="14.9168092199"><ele>3.02</ele><time>2011-10-13T09:06:30Z</time></trkpt><trkpt lat="44.1520358808" lon="14.9166881852"><ele>2.06</ele><time>2011-10-13T09:06:53Z</time></trkpt><trkpt lat="44.1523961350" lon="14.9165788013"><ele>2.54</ele><time>2011-10-13T09:07:20Z</time></trkpt><trkpt lat="44.1526796948" lon="14.9164615385"><ele>2.54</ele><time>2011-10-13T09:07:42Z</time></trkpt><trkpt lat="44.1531139612" lon="14.9161841813"><ele>2.06</ele><time>2011-10-13T09:08:08Z</time></trkpt><trkpt lat="44.1535260994" lon="14.9159053154"><ele>1.58</ele><time>2011-10-13T09:08:30Z</time></trkpt><trkpt lat="44.1540605295" lon="14.9155894015"><ele>1.58</ele><time>2011-10-13T09:08:57Z</time></trkpt><trkpt lat="44.1545687243" lon="14.9153469969"><ele>2.54</ele><time>2011-10-13T09:09:22Z</time></trkpt><trkpt lat="44.1552154720" lon="14.9151280615"><ele>3.02</ele><time>2011-10-13T09:09:53Z</time></trkpt><trkpt lat="44.1557233315" lon="14.9149031751"><ele>3.02</ele><time>2011-10-13T09:10:20Z</time></trkpt><trkpt lat="44.1562461946" lon="14.9147291668"><ele>3.98</ele><time>2011-10-13T09:10:46Z</time></trkpt><trkpt lat="44.1568677966" lon="14.9145868421"><ele>-0.34</ele><time>2011-10-13T09:11:16Z</time></trkpt><trkpt lat="44.1573517676" lon="14.9145791307"><ele>1.10</ele><time>2011-10-13T09:11:39Z</time></trkpt><trkpt lat="44.1578752175" lon="14.9146652129"><ele>3.02</ele><time>2011-10-13T09:12:03Z</time></trkpt><trkpt lat="44.1584852524" lon="14.9148693960"><ele>5.91</ele><time>2011-10-13T09:12:34Z</time></trkpt><trkpt lat="44.1589272302" lon="14.9150495231"><ele>6.39</ele><time>2011-10-13T09:12:57Z</time></trkpt><trkpt lat="44.1593709681" lon="14.9152004812"><ele>5.42</ele><time>2011-10-13T09:13:26Z</time></trkpt><trkpt lat="44.1597615648" lon="14.9153236952"><ele>2.54</ele><time>2011-10-13T09:13:53Z</time></trkpt><trkpt lat="44.1599970963" lon="14.9153386150"><ele>2.54</ele><time>2011-10-13T09:14:17Z</time></trkpt><trkpt lat="44.1602354776" lon="14.9154061731"><ele>3.02</ele><time>2011-10-13T09:14:40Z</time></trkpt><trkpt lat="44.1604763735" lon="14.9154588953"><ele>2.06</ele><time>2011-10-13T09:15:04Z</time></trkpt><trkpt lat="44.1605826560" lon="14.9154614098"><ele>2.54</ele><time>2011-10-13T09:15:23Z</time></trkpt><trkpt lat="44.1605826560" lon="14.9154614098"><ele>2.54</ele><time>2011-10-13T09:15:47Z</time></trkpt><trkpt lat="44.1605826560" lon="14.9154655170"><ele>3.02</ele><time>2011-10-13T09:16:14Z</time></trkpt><trkpt lat="44.1605839971" lon="14.9154624157"><ele>3.02</ele><time>2011-10-13T09:16:41Z</time></trkpt><trkpt lat="44.1605839971" lon="14.9154624157"><ele>3.02</ele><time>2011-10-13T09:17:11Z</time></trkpt><trkpt lat="44.1605865955" lon="14.9154609069"><ele>3.02</ele><time>2011-10-13T09:17:34Z</time></trkpt><trkpt lat="44.1606130823" lon="14.9154461548"><ele>2.54</ele><time>2011-10-13T09:17:43Z</time></trkpt><trkpt lat="44.1606135014" lon="14.9154279660"><ele>2.06</ele><time>2011-10-13T09:18:00Z</time></trkpt><trkpt lat="44.1606142558" lon="14.9154263735"><ele>2.06</ele><time>2011-10-13T09:18:30Z</time></trkpt><trkpt lat="44.1606142558" lon="14.9154263735"><ele>2.06</ele><time>2011-10-13T09:18:57Z</time></trkpt><trkpt lat="44.1606140882" lon="14.9154257029"><ele>2.06</ele><time>2011-10-13T09:19:23Z</time></trkpt><trkpt lat="44.1606124118" lon="14.9154272955"><ele>1.58</ele><time>2011-10-13T09:19:52Z</time></trkpt><trkpt lat="44.1606124118" lon="14.9154272955"><ele>1.58</ele><time>2011-10-13T09:20:19Z</time></trkpt><trkpt lat="44.1606124956" lon="14.9154275469"><ele>1.58</ele><time>2011-10-13T09:20:41Z</time></trkpt><trkpt lat="44.1606123280" lon="14.9154283013"><ele>1.58</ele><time>2011-10-13T09:21:14Z</time></trkpt><trkpt lat="44.1606130823" lon="14.9154284690"><ele>1.10</ele><time>2011-10-13T09:21:49Z</time></trkpt><trkpt lat="44.1606130823" lon="14.9154284690"><ele>1.10</ele><time>2011-10-13T09:22:19Z</time></trkpt><trkpt lat="44.1606131662" lon="14.9154257029"><ele>1.10</ele><time>2011-10-13T09:22:52Z</time></trkpt><trkpt lat="44.1606133338" lon="14.9154228531"><ele>0.62</ele><time>2011-10-13T09:23:29Z</time></trkpt><trkpt lat="44.1606135014" lon="14.9154217634"><ele>0.62</ele><time>2011-10-13T09:24:05Z</time></trkpt><trkpt lat="44.1606135853" lon="14.9154193327"><ele>0.62</ele><time>2011-10-13T09:24:41Z</time></trkpt><trkpt lat="44.1606135014" lon="14.9154178239"><ele>0.14</ele><time>2011-10-13T09:25:17Z</time></trkpt><trkpt lat="44.1606137529" lon="14.9154159799"><ele>0.14</ele><time>2011-10-13T09:25:53Z</time></trkpt><trkpt lat="44.1606169380" lon="14.9154140521"><ele>-0.34</ele><time>2011-10-13T09:26:32Z</time></trkpt><trkpt lat="44.1606171895" lon="14.9154148903"><ele>-0.34</ele><time>2011-10-13T09:27:05Z</time></trkpt><trkpt lat="44.1606171895" lon="14.9154148903"><ele>-0.34</ele><time>2011-10-13T09:27:36Z</time></trkpt><trkpt lat="44.1606208775" lon="14.9154096097"><ele>-0.34</ele><time>2011-10-13T09:28:08Z</time></trkpt><trkpt lat="44.1606222186" lon="14.9154070951"><ele>-0.82</ele><time>2011-10-13T09:28:43Z</time></trkpt><trkpt lat="44.1606215481" lon="14.9154081009"><ele>-0.82</ele><time>2011-10-13T09:29:15Z</time></trkpt><trkpt lat="44.1606243979" lon="14.9154083524"><ele>-0.82</ele><time>2011-10-13T09:29:46Z</time></trkpt><trkpt lat="44.1606243979" lon="14.9154083524"><ele>-0.82</ele><time>2011-10-13T09:30:16Z</time></trkpt><trkpt lat="44.1606263258" lon="14.9154064246"><ele>-1.30</ele><time>2011-10-13T09:30:50Z</time></trkpt><trkpt lat="44.1606268287" lon="14.9154056702"><ele>-1.30</ele><time>2011-10-13T09:31:18Z</time></trkpt><trkpt lat="44.1606248170" lon="14.9154045805"><ele>-1.30</ele><time>2011-10-13T09:31:51Z</time></trkpt><trkpt lat="44.1606248170" lon="14.9154045805"><ele>-1.30</ele><time>2011-10-13T09:32:23Z</time></trkpt><trkpt lat="44.1606266610" lon="14.9153994676"><ele>-1.30</ele><time>2011-10-13T09:32:51Z</time></trkpt><trkpt lat="44.1606267449" lon="14.9154026527"><ele>-1.30</ele><time>2011-10-13T09:33:25Z</time></trkpt><trkpt lat="44.1606267449" lon="14.9153987970"><ele>-1.79</ele><time>2011-10-13T09:33:55Z</time></trkpt><trkpt lat="44.1606266610" lon="14.9154019821"><ele>-1.30</ele><time>2011-10-13T09:34:26Z</time></trkpt><trkpt lat="44.1606266610" lon="14.9154019821"><ele>-1.30</ele><time>2011-10-13T09:34:59Z</time></trkpt><trkpt lat="44.1606266610" lon="14.9154038262"><ele>-1.79</ele><time>2011-10-13T09:35:32Z</time></trkpt><trkpt lat="44.1606268287" lon="14.9154005572"><ele>-1.79</ele><time>2011-10-13T09:36:04Z</time></trkpt><trkpt lat="44.1606279183" lon="14.9153986294"><ele>-2.27</ele><time>2011-10-13T09:36:34Z</time></trkpt><trkpt lat="44.1606280021" lon="14.9154000543"><ele>-2.27</ele><time>2011-10-13T09:37:07Z</time></trkpt><trkpt lat="44.1606280021" lon="14.9154000543"><ele>-2.27</ele><time>2011-10-13T09:37:43Z</time></trkpt><trkpt lat="44.1606256552" lon="14.9154013116"><ele>-1.79</ele><time>2011-10-13T09:38:18Z</time></trkpt><trkpt lat="44.1606251523" lon="14.9154008087"><ele>-1.79</ele><time>2011-10-13T09:38:57Z</time></trkpt><trkpt lat="44.1606259905" lon="14.9153941870"><ele>-1.30</ele><time>2011-10-13T09:39:31Z</time></trkpt><trkpt lat="44.1606266610" lon="14.9153931811"><ele>-1.30</ele><time>2011-10-13T09:40:05Z</time></trkpt><trkpt lat="44.1606267449" lon="14.9153937679"><ele>-1.30</ele><time>2011-10-13T09:40:38Z</time></trkpt><trkpt lat="44.1606269125" lon="14.9153970368"><ele>-1.79</ele><time>2011-10-13T09:41:09Z</time></trkpt><trkpt lat="44.1606269125" lon="14.9153970368"><ele>-1.79</ele><time>2011-10-13T09:41:40Z</time></trkpt><trkpt lat="44.1606280021" lon="14.9153982103"><ele>-1.79</ele><time>2011-10-13T09:42:09Z</time></trkpt><trkpt lat="44.1606306843" lon="14.9153946061"><ele>-1.79</ele><time>2011-10-13T09:42:40Z</time></trkpt><trkpt lat="44.1606306005" lon="14.9153951090"><ele>-1.79</ele><time>2011-10-13T09:43:14Z</time></trkpt><trkpt lat="44.1606309358" lon="14.9153899960"><ele>-1.79</ele><time>2011-10-13T09:43:49Z</time></trkpt><trkpt lat="44.1606309358" lon="14.9153899960"><ele>-1.79</ele><time>2011-10-13T09:44:21Z</time></trkpt><trkpt lat="44.1606325284" lon="14.9153915048"><ele>-1.79</ele><time>2011-10-13T09:44:55Z</time></trkpt><trkpt lat="44.1606307682" lon="14.9153907504"><ele>-1.30</ele><time>2011-10-13T09:45:33Z</time></trkpt><trkpt lat="44.1606288403" lon="14.9153911695"><ele>-1.79</ele><time>2011-10-13T09:46:08Z</time></trkpt><trkpt lat="44.1606284212" lon="14.9153925944"><ele>-1.79</ele><time>2011-10-13T09:46:44Z</time></trkpt><trkpt lat="44.1606300138" lon="14.9153921753"><ele>-1.79</ele><time>2011-10-13T09:47:21Z</time></trkpt><trkpt lat="44.1606312711" lon="14.9153972045"><ele>-1.79</ele><time>2011-10-13T09:47:54Z</time></trkpt><trkpt lat="44.1606324445" lon="14.9153968692"><ele>-1.30</ele><time>2011-10-13T09:48:29Z</time></trkpt><trkpt lat="44.1606325284" lon="14.9153979588"><ele>-1.79</ele><time>2011-10-13T09:49:07Z</time></trkpt><trkpt lat="44.1606325284" lon="14.9153979588"><ele>-1.79</ele><time>2011-10-13T09:49:35Z</time></trkpt><trkpt lat="44.1606320255" lon="14.9153930973"><ele>-1.30</ele><time>2011-10-13T09:50:10Z</time></trkpt><trkpt lat="44.1606334504" lon="14.9153899122"><ele>-1.30</ele><time>2011-10-13T09:50:43Z</time></trkpt><trkpt lat="44.1606352944" lon="14.9153874815"><ele>-1.30</ele><time>2011-10-13T09:51:16Z</time></trkpt><trkpt lat="44.1606326960" lon="14.9153854698"><ele>-1.30</ele><time>2011-10-13T09:51:52Z</time></trkpt><trkpt lat="44.1606306005" lon="14.9153910019"><ele>-1.30</ele><time>2011-10-13T09:52:27Z</time></trkpt><trkpt lat="44.1606315225" lon="14.9153894093"><ele>-0.82</ele><time>2011-10-13T09:53:07Z</time></trkpt><trkpt lat="44.1606306843" lon="14.9153936002"><ele>-0.82</ele><time>2011-10-13T09:53:45Z</time></trkpt><trkpt lat="44.1606306843" lon="14.9153936002"><ele>-0.82</ele><time>2011-10-13T09:54:23Z</time></trkpt><trkpt lat="44.1606295109" lon="14.9153932650"><ele>-0.82</ele><time>2011-10-13T09:55:04Z</time></trkpt><trkpt lat="44.1606286727" lon="14.9154002219"><ele>-0.82</ele><time>2011-10-13T09:55:43Z</time></trkpt><trkpt lat="44.1606278345" lon="14.9153966177"><ele>-0.82</ele><time>2011-10-13T09:56:22Z</time></trkpt><trkpt lat="44.1606274154" lon="14.9153966177"><ele>-0.82</ele><time>2011-10-13T09:56:55Z</time></trkpt><trkpt lat="44.1606273316" lon="14.9153944384"><ele>-0.82</ele><time>2011-10-13T09:57:33Z</time></trkpt><trkpt lat="44.1606252361" lon="14.9154003058"><ele>-0.82</ele><time>2011-10-13T09:58:10Z</time></trkpt><trkpt lat="44.1606254037" lon="14.9154003896"><ele>-0.82</ele><time>2011-10-13T09:58:51Z</time></trkpt><trkpt lat="44.1606263258" lon="14.9154023174"><ele>-0.82</ele><time>2011-10-13T09:59:20Z</time></trkpt><trkpt lat="44.1606292594" lon="14.9153997190"><ele>-0.34</ele><time>2011-10-13T09:59:48Z</time></trkpt><trkpt lat="44.1606292594" lon="14.9153997190"><ele>-0.34</ele><time>2011-10-13T10:00:22Z</time></trkpt><trkpt lat="44.1606292594" lon="14.9153992999"><ele>-0.82</ele><time>2011-10-13T10:00:53Z</time></trkpt><trkpt lat="44.1606295109" lon="14.9154033232"><ele>-0.82</ele><time>2011-10-13T10:01:30Z</time></trkpt><trkpt lat="44.1606314387" lon="14.9154006410"><ele>-0.82</ele><time>2011-10-13T10:02:03Z</time></trkpt><trkpt lat="44.1606295109" lon="14.9154032394"><ele>-0.82</ele><time>2011-10-13T10:02:34Z</time></trkpt><trkpt lat="44.1606280021" lon="14.9154015630"><ele>-0.82</ele><time>2011-10-13T10:03:05Z</time></trkpt><trkpt lat="44.1606280021" lon="14.9154015630"><ele>-0.82</ele><time>2011-10-13T10:03:36Z</time></trkpt><trkpt lat="44.1606254037" lon="14.9153997190"><ele>-0.82</ele><time>2011-10-13T10:04:07Z</time></trkpt><trkpt lat="44.1606254037" lon="14.9153968692"><ele>-0.82</ele><time>2011-10-13T10:04:39Z</time></trkpt><trkpt lat="44.1606262419" lon="14.9153969530"><ele>-1.30</ele><time>2011-10-13T10:05:07Z</time></trkpt><trkpt lat="44.1606262419" lon="14.9153969530"><ele>-1.30</ele><time>2011-10-13T10:05:41Z</time></trkpt><trkpt lat="44.1606254037" lon="14.9154003058"><ele>-0.82</ele><time>2011-10-13T10:06:13Z</time></trkpt><trkpt lat="44.1606257390" lon="14.9153998867"><ele>-1.30</ele><time>2011-10-13T10:06:44Z</time></trkpt><trkpt lat="44.1606258228" lon="14.9153982103"><ele>-1.30</ele><time>2011-10-13T10:07:17Z</time></trkpt><trkpt lat="44.1606284212" lon="14.9153972045"><ele>-0.82</ele><time>2011-10-13T10:07:48Z</time></trkpt><trkpt lat="44.1606284212" lon="14.9153972045"><ele>-0.82</ele><time>2011-10-13T10:08:19Z</time></trkpt><trkpt lat="44.1606299300" lon="14.9153925944"><ele>-1.30</ele><time>2011-10-13T10:08:49Z</time></trkpt><trkpt lat="44.1606270801" lon="14.9153921753"><ele>-1.30</ele><time>2011-10-13T10:09:20Z</time></trkpt><trkpt lat="44.1606254037" lon="14.9153927621"><ele>-1.30</ele><time>2011-10-13T10:09:54Z</time></trkpt><trkpt lat="44.1606247332" lon="14.9153913371"><ele>-0.82</ele><time>2011-10-13T10:10:25Z</time></trkpt><trkpt lat="44.1606247332" lon="14.9153913371"><ele>-0.82</ele><time>2011-10-13T10:10:55Z</time></trkpt><trkpt lat="44.1606249008" lon="14.9153941870"><ele>-0.82</ele><time>2011-10-13T10:11:18Z</time></trkpt><trkpt lat="44.1606316064" lon="14.9153962824"><ele>-0.34</ele><time>2011-10-13T10:11:48Z</time></trkpt><trkpt lat="44.1605388187" lon="14.9153943546"><ele>2.06</ele><time>2011-10-13T10:12:14Z</time></trkpt><trkpt lat="44.1604775470" lon="14.9153915048"><ele>2.06</ele><time>2011-10-13T10:12:21Z</time></trkpt><trkpt lat="44.1601514071" lon="14.9154169019"><ele>3.02</ele><time>2011-10-13T10:12:49Z</time></trkpt><trkpt lat="44.1598355770" lon="14.9155362602"><ele>1.58</ele><time>2011-10-13T10:13:16Z</time></trkpt><trkpt lat="44.1596629936" lon="14.9157041498"><ele>1.10</ele><time>2011-10-13T10:13:43Z</time></trkpt><trkpt lat="44.1594997980" lon="14.9158578739"><ele>0.62</ele><time>2011-10-13T10:14:11Z</time></trkpt><trkpt lat="44.1596313100" lon="14.9158272799"><ele>2.06</ele><time>2011-10-13T10:14:35Z</time></trkpt><trkpt lat="44.1598189808" lon="14.9158111028"><ele>3.02</ele><time>2011-10-13T10:15:06Z</time></trkpt><trkpt lat="44.1598670930" lon="14.9157764018"><ele>2.54</ele><time>2011-10-13T10:15:30Z</time></trkpt><trkpt lat="44.1598671768" lon="14.9157772399"><ele>2.54</ele><time>2011-10-13T10:16:02Z</time></trkpt><trkpt lat="44.1598671768" lon="14.9157772399"><ele>2.54</ele><time>2011-10-13T10:16:28Z</time></trkpt><trkpt lat="44.1598668415" lon="14.9157758988"><ele>2.54</ele><time>2011-10-13T10:16:57Z</time></trkpt><trkpt lat="44.1598670091" lon="14.9157769047"><ele>2.54</ele><time>2011-10-13T10:17:31Z</time></trkpt><trkpt lat="44.1598666739" lon="14.9157746416"><ele>3.02</ele><time>2011-10-13T10:18:02Z</time></trkpt><trkpt lat="44.1598666739" lon="14.9157746416"><ele>3.02</ele><time>2011-10-13T10:18:28Z</time></trkpt><trkpt lat="44.1598664224" lon="14.9157742225"><ele>3.02</ele><time>2011-10-13T10:18:58Z</time></trkpt><trkpt lat="44.1598660871" lon="14.9157738872"><ele>3.02</ele><time>2011-10-13T10:19:26Z</time></trkpt><trkpt lat="44.1598686855" lon="14.9157742225"><ele>3.02</ele><time>2011-10-13T10:19:58Z</time></trkpt><trkpt lat="44.1598686855" lon="14.9157742225"><ele>3.02</ele><time>2011-10-13T10:20:28Z</time></trkpt><trkpt lat="44.1598686855" lon="14.9157733843"><ele>3.02</ele><time>2011-10-13T10:20:56Z</time></trkpt><trkpt lat="44.1598712001" lon="14.9157753121"><ele>3.02</ele><time>2011-10-13T10:21:24Z</time></trkpt><trkpt lat="44.1598712001" lon="14.9157753121"><ele>3.02</ele><time>2011-10-13T10:21:52Z</time></trkpt><trkpt lat="44.1598696075" lon="14.9157729652"><ele>3.02</ele><time>2011-10-13T10:22:24Z</time></trkpt><trkpt lat="44.1598687693" lon="14.9157702830"><ele>2.54</ele><time>2011-10-13T10:22:53Z</time></trkpt><trkpt lat="44.1598695237" lon="14.9157690257"><ele>2.54</ele><time>2011-10-13T10:23:21Z</time></trkpt><trkpt lat="44.1598695237" lon="14.9157690257"><ele>2.54</ele><time>2011-10-13T10:23:49Z</time></trkpt><trkpt lat="44.1598691884" lon="14.9157697801"><ele>2.54</ele><time>2011-10-13T10:24:17Z</time></trkpt><trkpt lat="44.1598709486" lon="14.9157662597"><ele>2.54</ele><time>2011-10-13T10:24:49Z</time></trkpt><trkpt lat="44.1598705295" lon="14.9157673493"><ele>2.54</ele><time>2011-10-13T10:25:25Z</time></trkpt><trkpt lat="44.1598715354" lon="14.9157703668"><ele>2.54</ele><time>2011-10-13T10:25:58Z</time></trkpt><trkpt lat="44.1598715354" lon="14.9157703668"><ele>2.54</ele><time>2011-10-13T10:26:25Z</time></trkpt><trkpt lat="44.1598722897" lon="14.9157668464"><ele>2.06</ele><time>2011-10-13T10:26:50Z</time></trkpt><trkpt lat="44.1598737985" lon="14.9157650024"><ele>2.06</ele><time>2011-10-13T10:27:22Z</time></trkpt><trkpt lat="44.1598737985" lon="14.9157650024"><ele>2.06</ele><time>2011-10-13T10:27:49Z</time></trkpt><trkpt lat="44.1598778218" lon="14.9157661758"><ele>2.06</ele><time>2011-10-13T10:28:18Z</time></trkpt><trkpt lat="44.1598777380" lon="14.9157634936"><ele>2.06</ele><time>2011-10-13T10:28:49Z</time></trkpt><trkpt lat="44.1598787438" lon="14.9157608114"><ele>1.58</ele><time>2011-10-13T10:29:21Z</time></trkpt><trkpt lat="44.1598787438" lon="14.9157608114"><ele>1.58</ele><time>2011-10-13T10:29:51Z</time></trkpt><trkpt lat="44.1598794982" lon="14.9157633260"><ele>1.58</ele><time>2011-10-13T10:30:20Z</time></trkpt><trkpt lat="44.1598797496" lon="14.9157618172"><ele>1.58</ele><time>2011-10-13T10:30:50Z</time></trkpt><trkpt lat="44.1598803364" lon="14.9157615658"><ele>1.58</ele><time>2011-10-13T10:31:17Z</time></trkpt><trkpt lat="44.1598803364" lon="14.9157615658"><ele>1.58</ele><time>2011-10-13T10:31:48Z</time></trkpt><trkpt lat="44.1598816775" lon="14.9157637451"><ele>1.58</ele><time>2011-10-13T10:32:20Z</time></trkpt><trkpt lat="44.1598808393" lon="14.9157631584"><ele>1.58</ele><time>2011-10-13T10:32:57Z</time></trkpt><trkpt lat="44.1598831862" lon="14.9157614820"><ele>1.10</ele><time>2011-10-13T10:33:32Z</time></trkpt><trkpt lat="44.1598829348" lon="14.9157607276"><ele>1.10</ele><time>2011-10-13T10:34:02Z</time></trkpt><trkpt lat="44.1598829348" lon="14.9157607276"><ele>1.10</ele><time>2011-10-13T10:34:33Z</time></trkpt><trkpt lat="44.1598825995" lon="14.9157594703"><ele>1.10</ele><time>2011-10-13T10:35:02Z</time></trkpt><trkpt lat="44.1598847788" lon="14.9157552794"><ele>1.10</ele><time>2011-10-13T10:35:33Z</time></trkpt><trkpt lat="44.1598855332" lon="14.9157593027"><ele>1.58</ele><time>2011-10-13T10:36:03Z</time></trkpt><trkpt lat="44.1598855332" lon="14.9157593027"><ele>1.58</ele><time>2011-10-13T10:36:34Z</time></trkpt><trkpt lat="44.1598831862" lon="14.9157635774"><ele>1.58</ele><time>2011-10-13T10:37:08Z</time></trkpt><trkpt lat="44.1598829348" lon="14.9157585483"><ele>1.58</ele><time>2011-10-13T10:37:43Z</time></trkpt><trkpt lat="44.1598825157" lon="14.9157601409"><ele>1.58</ele><time>2011-10-13T10:38:18Z</time></trkpt><trkpt lat="44.1598821804" lon="14.9157594703"><ele>1.58</ele><time>2011-10-13T10:38:55Z</time></trkpt><trkpt lat="44.1598821804" lon="14.9157605600"><ele>1.58</ele><time>2011-10-13T10:39:29Z</time></trkpt><trkpt lat="44.1598830186" lon="14.9157581292"><ele>1.58</ele><time>2011-10-13T10:40:02Z</time></trkpt><trkpt lat="44.1598830186" lon="14.9157581292"><ele>1.58</ele><time>2011-10-13T10:40:34Z</time></trkpt><trkpt lat="44.1598846950" lon="14.9157601409"><ele>1.58</ele><time>2011-10-13T10:41:08Z</time></trkpt><trkpt lat="44.1598863713" lon="14.9157602247"><ele>1.58</ele><time>2011-10-13T10:41:40Z</time></trkpt><trkpt lat="44.1598877124" lon="14.9157598056"><ele>1.58</ele><time>2011-10-13T10:42:09Z</time></trkpt><trkpt lat="44.1598883830" lon="14.9157603085"><ele>1.58</ele><time>2011-10-13T10:42:39Z</time></trkpt><trkpt lat="44.1598883830" lon="14.9157603085"><ele>1.58</ele><time>2011-10-13T10:43:12Z</time></trkpt><trkpt lat="44.1598890536" lon="14.9157588836"><ele>1.58</ele><time>2011-10-13T10:43:46Z</time></trkpt><trkpt lat="44.1598888859" lon="14.9157587998"><ele>1.58</ele><time>2011-10-13T10:44:17Z</time></trkpt><trkpt lat="44.1598888021" lon="14.9157542735"><ele>1.58</ele><time>2011-10-13T10:44:51Z</time></trkpt><trkpt lat="44.1598891374" lon="14.9157533515"><ele>1.58</ele><time>2011-10-13T10:45:27Z</time></trkpt><trkpt lat="44.1598888021" lon="14.9157559499"><ele>1.58</ele><time>2011-10-13T10:46:04Z</time></trkpt><trkpt lat="44.1598888021" lon="14.9157559499"><ele>1.58</ele><time>2011-10-13T10:46:33Z</time></trkpt><trkpt lat="44.1598901432" lon="14.9157532677"><ele>1.58</ele><time>2011-10-13T10:47:04Z</time></trkpt><trkpt lat="44.1598900594" lon="14.9157518428"><ele>1.58</ele><time>2011-10-13T10:47:37Z</time></trkpt><trkpt lat="44.1598895565" lon="14.9157507531"><ele>1.58</ele><time>2011-10-13T10:48:09Z</time></trkpt><trkpt lat="44.1598889697" lon="14.9157515075"><ele>1.10</ele><time>2011-10-13T10:48:41Z</time></trkpt><trkpt lat="44.1598889697" lon="14.9157515075"><ele>1.10</ele><time>2011-10-13T10:49:11Z</time></trkpt><trkpt lat="44.1598934960" lon="14.9157474842"><ele>1.58</ele><time>2011-10-13T10:49:42Z</time></trkpt><trkpt lat="44.1597592179" lon="14.9158144556"><ele>2.54</ele><time>2011-10-13T10:50:11Z</time></trkpt><trkpt lat="44.1597767361" lon="14.9157576263"><ele>3.02</ele><time>2011-10-13T10:50:19Z</time></trkpt><trkpt lat="44.1597489081" lon="14.9152866472"><ele>3.02</ele><time>2011-10-13T10:50:40Z</time></trkpt><trkpt lat="44.1595021449" lon="14.9144198745"><ele>3.50</ele><time>2011-10-13T10:51:06Z</time></trkpt><trkpt lat="44.1592627577" lon="14.9134564586"><ele>4.94</ele><time>2011-10-13T10:51:34Z</time></trkpt><trkpt lat="44.1590465885" lon="14.9124866724"><ele>5.42</ele><time>2011-10-13T10:52:02Z</time></trkpt><trkpt lat="44.1587993223" lon="14.9115516711"><ele>3.50</ele><time>2011-10-13T10:52:30Z</time></trkpt><trkpt lat="44.1585724242" lon="14.9106954597"><ele>2.54</ele><time>2011-10-13T10:52:55Z</time></trkpt><trkpt lat="44.1583383176" lon="14.9099323712"><ele>3.98</ele><time>2011-10-13T10:53:18Z</time></trkpt><trkpt lat="44.1582762077" lon="14.9096754659"><ele>2.54</ele><time>2011-10-13T10:53:27Z</time></trkpt><trkpt lat="44.1581799835" lon="14.9092515092"><ele>3.50</ele><time>2011-10-13T10:53:40Z</time></trkpt><trkpt lat="44.1580345575" lon="14.9086291529"><ele>4.46</ele><time>2011-10-13T10:53:58Z</time></trkpt><trkpt lat="44.1578050610" lon="14.9077227339"><ele>5.91</ele><time>2011-10-13T10:54:24Z</time></trkpt><trkpt lat="44.1575557832" lon="14.9067166541"><ele>4.94</ele><time>2011-10-13T10:54:53Z</time></trkpt><trkpt lat="44.1573616583" lon="14.9057925493"><ele>4.94</ele><time>2011-10-13T10:55:19Z</time></trkpt><trkpt lat="44.1571315750" lon="14.9048660975"><ele>5.91</ele><time>2011-10-13T10:55:46Z</time></trkpt><trkpt lat="44.1568869911" lon="14.9039279111"><ele>6.39</ele><time>2011-10-13T10:56:13Z</time></trkpt><trkpt lat="44.1566941235" lon="14.9032035470"><ele>6.39</ele><time>2011-10-13T10:56:34Z</time></trkpt><trkpt lat="44.1565062851" lon="14.9020933639"><ele>6.39</ele><time>2011-10-13T10:57:05Z</time></trkpt><trkpt lat="44.1563973203" lon="14.9012268428"><ele>4.94</ele><time>2011-10-13T10:57:29Z</time></trkpt><trkpt lat="44.1562198754" lon="14.9003236927"><ele>3.98</ele><time>2011-10-13T10:57:54Z</time></trkpt><trkpt lat="44.1560371500" lon="14.8993902840"><ele>4.94</ele><time>2011-10-13T10:58:20Z</time></trkpt><trkpt lat="44.1558504011" lon="14.8986468930"><ele>4.46</ele><time>2011-10-13T10:58:41Z</time></trkpt><trkpt lat="44.1556768958" lon="14.8979842197"><ele>4.46</ele><time>2011-10-13T10:59:00Z</time></trkpt><trkpt lat="44.1554712877" lon="14.8972523119"><ele>4.46</ele><time>2011-10-13T10:59:21Z</time></trkpt><trkpt lat="44.1552479938" lon="14.8965411913"><ele>4.94</ele><time>2011-10-13T10:59:42Z</time></trkpt><trkpt lat="44.1550055053" lon="14.8958738241"><ele>5.42</ele><time>2011-10-13T11:00:02Z</time></trkpt><trkpt lat="44.1546864063" lon="14.8951542377"><ele>4.46</ele><time>2011-10-13T11:00:25Z</time></trkpt><trkpt lat="44.1543435026" lon="14.8945298698"><ele>4.46</ele><time>2011-10-13T11:00:47Z</time></trkpt><trkpt lat="44.1540129203" lon="14.8940660991"><ele>3.98</ele><time>2011-10-13T11:01:07Z</time></trkpt><trkpt lat="44.1536121815" lon="14.8934279848"><ele>3.98</ele><time>2011-10-13T11:01:33Z</time></trkpt><trkpt lat="44.1532720439" lon="14.8928828258"><ele>4.46</ele><time>2011-10-13T11:01:57Z</time></trkpt><trkpt lat="44.1530294716" lon="14.8924198933"><ele>3.02</ele><time>2011-10-13T11:02:21Z</time></trkpt><trkpt lat="44.1529534478" lon="14.8919649236"><ele>3.50</ele><time>2011-10-13T11:02:40Z</time></trkpt><trkpt lat="44.1532338224" lon="14.8917972017"><ele>2.54</ele><time>2011-10-13T11:02:55Z</time></trkpt><trkpt lat="44.1535407677" lon="14.8920016363"><ele>1.10</ele><time>2011-10-13T11:03:12Z</time></trkpt><trkpt lat="44.1536249220" lon="14.8925491422"><ele>1.10</ele><time>2011-10-13T11:03:30Z</time></trkpt><trkpt lat="44.1536588687" lon="14.8932725843"><ele>2.06</ele><time>2011-10-13T11:03:51Z</time></trkpt><trkpt lat="44.1536783986" lon="14.8939842079"><ele>2.54</ele><time>2011-10-13T11:04:11Z</time></trkpt><trkpt lat="44.1537237447" lon="14.8948621284"><ele>1.58</ele><time>2011-10-13T11:04:36Z</time></trkpt><trkpt lat="44.1536632273" lon="14.8956215288"><ele>2.06</ele><time>2011-10-13T11:04:57Z</time></trkpt><trkpt lat="44.1534747183" lon="14.8965309653"><ele>2.54</ele><time>2011-10-13T11:05:22Z</time></trkpt><trkpt lat="44.1532002110" lon="14.8972690757"><ele>2.06</ele><time>2011-10-13T11:05:44Z</time></trkpt><trkpt lat="44.1527506057" lon="14.8980667815"><ele>1.10</ele><time>2011-10-13T11:06:10Z</time></trkpt><trkpt lat="44.1523637809" lon="14.8987406027"><ele>2.06</ele><time>2011-10-13T11:06:32Z</time></trkpt><trkpt lat="44.1519275866" lon="14.8995183595"><ele>2.06</ele><time>2011-10-13T11:06:57Z</time></trkpt><trkpt lat="44.1514991038" lon="14.9002550449"><ele>1.58</ele><time>2011-10-13T11:07:21Z</time></trkpt><trkpt lat="44.1510233469" lon="14.9010880385"><ele>0.62</ele><time>2011-10-13T11:07:48Z</time></trkpt><trkpt lat="44.1504608374" lon="14.9020811263"><ele>1.10</ele><time>2011-10-13T11:08:20Z</time></trkpt><trkpt lat="44.1499158461" lon="14.9029044807"><ele>2.06</ele><time>2011-10-13T11:08:47Z</time></trkpt><trkpt lat="44.1494125128" lon="14.9036404956"><ele>2.06</ele><time>2011-10-13T11:09:12Z</time></trkpt><trkpt lat="44.1488866322" lon="14.9044604972"><ele>3.02</ele><time>2011-10-13T11:09:38Z</time></trkpt><trkpt lat="44.1483222786" lon="14.9053323828"><ele>3.50</ele><time>2011-10-13T11:10:06Z</time></trkpt><trkpt lat="44.1477586795" lon="14.9061310105"><ele>2.54</ele><time>2011-10-13T11:10:33Z</time></trkpt><trkpt lat="44.1472125985" lon="14.9070007168"><ele>2.06</ele><time>2011-10-13T11:11:01Z</time></trkpt><trkpt lat="44.1466973629" lon="14.9078103248"><ele>2.54</ele><time>2011-10-13T11:11:27Z</time></trkpt><trkpt lat="44.1461195145" lon="14.9086729065"><ele>1.58</ele><time>2011-10-13T11:11:55Z</time></trkpt><trkpt lat="44.1455766186" lon="14.9094633199"><ele>2.06</ele><time>2011-10-13T11:12:21Z</time></trkpt><trkpt lat="44.1449805815" lon="14.9103379715"><ele>2.54</ele><time>2011-10-13T11:12:50Z</time></trkpt><trkpt lat="44.1444548685" lon="14.9111862201"><ele>3.98</ele><time>2011-10-13T11:13:17Z</time></trkpt><trkpt lat="44.1438571550" lon="14.9121131748"><ele>5.42</ele><time>2011-10-13T11:13:47Z</time></trkpt><trkpt lat="44.1432884429" lon="14.9129723199"><ele>7.35</ele><time>2011-10-13T11:14:15Z</time></trkpt><trkpt lat="44.1427545995" lon="14.9137691874"><ele>8.31</ele><time>2011-10-13T11:14:41Z</time></trkpt><trkpt lat="44.1421761643" lon="14.9146807194"><ele>7.83</ele><time>2011-10-13T11:15:10Z</time></trkpt><trkpt lat="44.1415589210" lon="14.9154529441"><ele>6.87</ele><time>2011-10-13T11:15:38Z</time></trkpt><trkpt lat="44.1410026979" lon="14.9161282741"><ele>6.39</ele><time>2011-10-13T11:16:03Z</time></trkpt><trkpt lat="44.1404300462" lon="14.9168270733"><ele>6.87</ele><time>2011-10-13T11:16:29Z</time></trkpt><trkpt lat="44.1398575623" lon="14.9174716417"><ele>6.39</ele><time>2011-10-13T11:16:54Z</time></trkpt><trkpt lat="44.1392129101" lon="14.9181504082"><ele>6.39</ele><time>2011-10-13T11:17:22Z</time></trkpt><trkpt lat="44.1386209801" lon="14.9188291747"><ele>5.91</ele><time>2011-10-13T11:17:48Z</time></trkpt><trkpt lat="44.1380586382" lon="14.9194571469"><ele>5.42</ele><time>2011-10-13T11:18:13Z</time></trkpt><trkpt lat="44.1375395469" lon="14.9200061616"><ele>4.94</ele><time>2011-10-13T11:18:36Z</time></trkpt><trkpt lat="44.1370165162" lon="14.9206413422"><ele>4.94</ele><time>2011-10-13T11:19:00Z</time></trkpt><trkpt lat="44.1365248337" lon="14.9213681370"><ele>3.50</ele><time>2011-10-13T11:19:25Z</time></trkpt><trkpt lat="44.1360857058" lon="14.9220580515"><ele>3.50</ele><time>2011-10-13T11:19:48Z</time></trkpt><trkpt lat="44.1356333345" lon="14.9226980098"><ele>3.02</ele><time>2011-10-13T11:20:10Z</time></trkpt><trkpt lat="44.1352158319" lon="14.9233052786"><ele>3.02</ele><time>2011-10-13T11:20:31Z</time></trkpt><trkpt lat="44.1347912885" lon="14.9239416327"><ele>3.02</ele><time>2011-10-13T11:20:53Z</time></trkpt><trkpt lat="44.1343681701" lon="14.9246190581"><ele>3.02</ele><time>2011-10-13T11:21:16Z</time></trkpt><trkpt lat="44.1339323111" lon="14.9252823181"><ele>4.46</ele><time>2011-10-13T11:21:39Z</time></trkpt><trkpt lat="44.1335900780" lon="14.9257814605"><ele>3.50</ele><time>2011-10-13T11:21:56Z</time></trkpt><trkpt lat="44.1331247985" lon="14.9264592212"><ele>4.46</ele><time>2011-10-13T11:22:18Z</time></trkpt><trkpt lat="44.1327863373" lon="14.9269915558"><ele>4.46</ele><time>2011-10-13T11:22:35Z</time></trkpt><trkpt lat="44.1323047969" lon="14.9277602602"><ele>5.42</ele><time>2011-10-13T11:23:00Z</time></trkpt><trkpt lat="44.1319187265" lon="14.9283196684"><ele>5.42</ele><time>2011-10-13T11:23:19Z</time></trkpt><trkpt lat="44.1315464862" lon="14.9289010372"><ele>6.39</ele><time>2011-10-13T11:23:38Z</time></trkpt><trkpt lat="44.1311188415" lon="14.9295727629"><ele>6.87</ele><time>2011-10-13T11:24:00Z</time></trkpt><trkpt lat="44.1308149137" lon="14.9300430715"><ele>6.39</ele><time>2011-10-13T11:24:16Z</time></trkpt><trkpt lat="44.1304395720" lon="14.9306800123"><ele>5.91</ele><time>2011-10-13T11:24:37Z</time></trkpt><trkpt lat="44.1300181299" lon="14.9313229881"><ele>6.39</ele><time>2011-10-13T11:24:58Z</time></trkpt><trkpt lat="44.1297048144" lon="14.9318126589"><ele>6.39</ele><time>2011-10-13T11:25:14Z</time></trkpt><trkpt lat="44.1293633357" lon="14.9323340971"><ele>4.46</ele><time>2011-10-13T11:25:32Z</time></trkpt><trkpt lat="44.1289662849" lon="14.9329746421"><ele>4.46</ele><time>2011-10-13T11:25:53Z</time></trkpt><trkpt lat="44.1285953857" lon="14.9335771333"><ele>5.91</ele><time>2011-10-13T11:26:13Z</time></trkpt><trkpt lat="44.1283096466" lon="14.9341675546"><ele>5.91</ele><time>2011-10-13T11:26:31Z</time></trkpt><trkpt lat="44.1280476283" lon="14.9347612448"><ele>4.46</ele><time>2011-10-13T11:26:49Z</time></trkpt><trkpt lat="44.1277987696" lon="14.9353134446"><ele>2.54</ele><time>2011-10-13T11:27:06Z</time></trkpt><trkpt lat="44.1275396850" lon="14.9358939752"><ele>2.06</ele><time>2011-10-13T11:27:23Z</time></trkpt><trkpt lat="44.1273432970" lon="14.9363117293"><ele>1.58</ele><time>2011-10-13T11:27:36Z</time></trkpt><trkpt lat="44.1270797700" lon="14.9369070958"><ele>1.10</ele><time>2011-10-13T11:27:54Z</time></trkpt><trkpt lat="44.1268294863" lon="14.9374087527"><ele>0.62</ele><time>2011-10-13T11:28:10Z</time></trkpt><trkpt lat="44.1265502851" lon="14.9379706755"><ele>0.62</ele><time>2011-10-13T11:28:28Z</time></trkpt><trkpt lat="44.1262848303" lon="14.9385179300"><ele>0.14</ele><time>2011-10-13T11:28:45Z</time></trkpt><trkpt lat="44.1260677390" lon="14.9389775936"><ele>1.10</ele><time>2011-10-13T11:28:59Z</time></trkpt><trkpt lat="44.1258259211" lon="14.9394292943"><ele>0.62</ele><time>2011-10-13T11:29:14Z</time></trkpt><trkpt lat="44.1256152838" lon="14.9398374930"><ele>0.14</ele><time>2011-10-13T11:29:27Z</time></trkpt><trkpt lat="44.1253432911" lon="14.9404054508"><ele>1.10</ele><time>2011-10-13T11:29:45Z</time></trkpt><trkpt lat="44.1251365095" lon="14.9407931976"><ele>0.62</ele><time>2011-10-13T11:29:58Z</time></trkpt><trkpt lat="44.1248510219" lon="14.9413492531"><ele>1.58</ele><time>2011-10-13T11:30:16Z</time></trkpt><trkpt lat="44.1245780233" lon="14.9418798275"><ele>1.58</ele><time>2011-10-13T11:30:33Z</time></trkpt><trkpt lat="44.1243490297" lon="14.9423417542"><ele>1.58</ele><time>2011-10-13T11:30:48Z</time></trkpt><trkpt lat="44.1241172701" lon="14.9428507034"><ele>1.10</ele><time>2011-10-13T11:31:04Z</time></trkpt><trkpt lat="44.1239143442" lon="14.9432367738"><ele>0.62</ele><time>2011-10-13T11:31:17Z</time></trkpt><trkpt lat="44.1236765496" lon="14.9436927494"><ele>1.10</ele><time>2011-10-13T11:31:32Z</time></trkpt><trkpt lat="44.1235825047" lon="14.9440642353"><ele>1.10</ele><time>2011-10-13T11:31:45Z</time></trkpt><trkpt lat="44.1237345524" lon="14.9442707654"><ele>0.62</ele><time>2011-10-13T11:32:01Z</time></trkpt><trkpt lat="44.1238202155" lon="14.9444510601"><ele>0.14</ele><time>2011-10-13T11:32:21Z</time></trkpt><trkpt lat="44.1238808166" lon="14.9445811473"><ele>0.62</ele><time>2011-10-13T11:32:39Z</time></trkpt><trkpt lat="44.1238904558" lon="14.9447513837"><ele>-0.34</ele><time>2011-10-13T11:32:59Z</time></trkpt><trkpt lat="44.1238898691" lon="14.9447980709"><ele>0.14</ele><time>2011-10-13T11:33:03Z</time></trkpt><trkpt lat="44.1238103248" lon="14.9450053554"><ele>0.14</ele><time>2011-10-13T11:33:19Z</time></trkpt><trkpt lat="44.1236744542" lon="14.9452827964"><ele>1.10</ele><time>2011-10-13T11:33:36Z</time></trkpt><trkpt lat="44.1234881245" lon="14.9456303101"><ele>0.14</ele><time>2011-10-13T11:33:53Z</time></trkpt><trkpt lat="44.1232427023" lon="14.9460811727"><ele>0.14</ele><time>2011-10-13T11:34:13Z</time></trkpt><trkpt lat="44.1229767445" lon="14.9465477094"><ele>0.62</ele><time>2011-10-13T11:34:31Z</time></trkpt><trkpt lat="44.1226852220" lon="14.9471094646"><ele>0.62</ele><time>2011-10-13T11:34:48Z</time></trkpt><trkpt lat="44.1224725731" lon="14.9477488361"><ele>1.10</ele><time>2011-10-13T11:35:05Z</time></trkpt><trkpt lat="44.1222027596" lon="14.9485415965"><ele>0.62</ele><time>2011-10-13T11:35:25Z</time></trkpt><trkpt lat="44.1220195312" lon="14.9491810519"><ele>0.62</ele><time>2011-10-13T11:35:41Z</time></trkpt><trkpt lat="44.1217674036" lon="14.9498845451"><ele>2.54</ele><time>2011-10-13T11:35:59Z</time></trkpt><trkpt lat="44.1215499770" lon="14.9504670035"><ele>2.06</ele><time>2011-10-13T11:36:14Z</time></trkpt><trkpt lat="44.1212903056" lon="14.9511699937"><ele>2.54</ele><time>2011-10-13T11:36:32Z</time></trkpt><trkpt lat="44.1210642457" lon="14.9517269712"><ele>1.58</ele><time>2011-10-13T11:36:47Z</time></trkpt><trkpt lat="44.1207060870" lon="14.9522295501"><ele>1.58</ele><time>2011-10-13T11:37:02Z</time></trkpt><trkpt lat="44.1203037556" lon="14.9528865237"><ele>2.06</ele><time>2011-10-13T11:37:20Z</time></trkpt><trkpt lat="44.1199819744" lon="14.9534460995"><ele>2.54</ele><time>2011-10-13T11:37:35Z</time></trkpt><trkpt lat="44.1196668148" lon="14.9540495966"><ele>1.58</ele><time>2011-10-13T11:37:51Z</time></trkpt><trkpt lat="44.1194135975" lon="14.9545831047"><ele>1.10</ele><time>2011-10-13T11:38:05Z</time></trkpt><trkpt lat="44.1191231646" lon="14.9552389048"><ele>1.58</ele><time>2011-10-13T11:38:22Z</time></trkpt><trkpt lat="44.1188127827" lon="14.9558259733"><ele>1.58</ele><time>2011-10-13T11:38:38Z</time></trkpt><trkpt lat="44.1185293067" lon="14.9564041570"><ele>1.10</ele><time>2011-10-13T11:38:54Z</time></trkpt><trkpt lat="44.1182418074" lon="14.9569382519"><ele>1.58</ele><time>2011-10-13T11:39:09Z</time></trkpt><trkpt lat="44.1179361194" lon="14.9574636295"><ele>0.62</ele><time>2011-10-13T11:39:24Z</time></trkpt><trkpt lat="44.1176582593" lon="14.9579616822"><ele>0.62</ele><time>2011-10-13T11:39:38Z</time></trkpt><trkpt lat="44.1173092369" lon="14.9585614912"><ele>0.14</ele><time>2011-10-13T11:39:55Z</time></trkpt><trkpt lat="44.1169856954" lon="14.9591206480"><ele>-0.34</ele><time>2011-10-13T11:40:11Z</time></trkpt><trkpt lat="44.1167112719" lon="14.9596270826"><ele>1.10</ele><time>2011-10-13T11:40:25Z</time></trkpt><trkpt lat="44.1164128762" lon="14.9601700623"><ele>1.58</ele><time>2011-10-13T11:40:40Z</time></trkpt><trkpt lat="44.1161507741" lon="14.9606517702"><ele>2.06</ele><time>2011-10-13T11:40:53Z</time></trkpt><trkpt lat="44.1158305015" lon="14.9612422753"><ele>2.54</ele><time>2011-10-13T11:41:09Z</time></trkpt><trkpt lat="44.1155217122" lon="14.9617494643"><ele>2.54</ele><time>2011-10-13T11:41:24Z</time></trkpt><trkpt lat="44.1151838377" lon="14.9622984789"><ele>2.06</ele><time>2011-10-13T11:41:40Z</time></trkpt><trkpt lat="44.1148461308" lon="14.9628749024"><ele>1.58</ele><time>2011-10-13T11:41:57Z</time></trkpt><trkpt lat="44.1145286243" lon="14.9633731227"><ele>1.10</ele><time>2011-10-13T11:42:12Z</time></trkpt><trkpt lat="44.1142184939" lon="14.9638925493"><ele>1.58</ele><time>2011-10-13T11:42:27Z</time></trkpt><trkpt lat="44.1138561442" lon="14.9644951243"><ele>1.58</ele><time>2011-10-13T11:42:45Z</time></trkpt><trkpt lat="44.1135410685" lon="14.9650571309"><ele>1.58</ele><time>2011-10-13T11:43:02Z</time></trkpt><trkpt lat="44.1133128293" lon="14.9654934928"><ele>1.58</ele><time>2011-10-13T11:43:15Z</time></trkpt><trkpt lat="44.1130367294" lon="14.9659956526"><ele>1.10</ele><time>2011-10-13T11:43:30Z</time></trkpt><trkpt lat="44.1127186362" lon="14.9665155821"><ele>1.10</ele><time>2011-10-13T11:43:47Z</time></trkpt><trkpt lat="44.1124038957" lon="14.9670753255"><ele>1.10</ele><time>2011-10-13T11:44:04Z</time></trkpt><trkpt lat="44.1121516004" lon="14.9675976858"><ele>1.10</ele><time>2011-10-13T11:44:19Z</time></trkpt><trkpt lat="44.1117987223" lon="14.9682446849"><ele>1.10</ele><time>2011-10-13T11:44:36Z</time></trkpt><trkpt lat="44.1114094667" lon="14.9688887503"><ele>1.58</ele><time>2011-10-13T11:44:54Z</time></trkpt><trkpt lat="44.1111270804" lon="14.9694842845"><ele>1.58</ele><time>2011-10-13T11:45:10Z</time></trkpt><trkpt lat="44.1108176205" lon="14.9700312037"><ele>0.62</ele><time>2011-10-13T11:45:26Z</time></trkpt><trkpt lat="44.1105572786" lon="14.9704750255"><ele>0.62</ele><time>2011-10-13T11:45:39Z</time></trkpt><trkpt lat="44.1102572903" lon="14.9709953740"><ele>0.62</ele><time>2011-10-13T11:45:54Z</time></trkpt><trkpt lat="44.1099549551" lon="14.9715189915"><ele>0.62</ele><time>2011-10-13T11:46:09Z</time></trkpt><trkpt lat="44.1096858121" lon="14.9720659945"><ele>1.58</ele><time>2011-10-13T11:46:24Z</time></trkpt><trkpt lat="44.1093804594" lon="14.9725981615"><ele>2.06</ele><time>2011-10-13T11:46:39Z</time></trkpt><trkpt lat="44.1091046948" lon="14.9730897602"><ele>1.58</ele><time>2011-10-13T11:46:52Z</time></trkpt><trkpt lat="44.1087999288" lon="14.9735739827"><ele>1.10</ele><time>2011-10-13T11:47:06Z</time></trkpt><trkpt lat="44.1085212305" lon="14.9740530923"><ele>1.58</ele><time>2011-10-13T11:47:19Z</time></trkpt><trkpt lat="44.1081884690" lon="14.9746290129"><ele>3.02</ele><time>2011-10-13T11:47:34Z</time></trkpt><trkpt lat="44.1078272928" lon="14.9751874991"><ele>3.50</ele><time>2011-10-13T11:47:50Z</time></trkpt><trkpt lat="44.1075370274" lon="14.9756493419"><ele>2.54</ele><time>2011-10-13T11:48:03Z</time></trkpt><trkpt lat="44.1072042659" lon="14.9762168806"><ele>1.58</ele><time>2011-10-13T11:48:19Z</time></trkpt><trkpt lat="44.1068656370" lon="14.9768833257"><ele>2.54</ele><time>2011-10-13T11:48:37Z</time></trkpt><trkpt lat="44.1065850109" lon="14.9774054345"><ele>2.54</ele><time>2011-10-13T11:48:51Z</time></trkpt><trkpt lat="44.1062856931" lon="14.9780493323"><ele>2.54</ele><time>2011-10-13T11:49:08Z</time></trkpt><trkpt lat="44.1059654206" lon="14.9785592873"><ele>3.02</ele><time>2011-10-13T11:49:23Z</time></trkpt><trkpt lat="44.1056076810" lon="14.9791937135"><ele>2.54</ele><time>2011-10-13T11:49:40Z</time></trkpt><trkpt lat="44.1054223571" lon="14.9797254615"><ele>2.06</ele><time>2011-10-13T11:49:53Z</time></trkpt><trkpt lat="44.1050590016" lon="14.9802740570"><ele>2.54</ele><time>2011-10-13T11:50:09Z</time></trkpt><trkpt lat="44.1047266591" lon="14.9808218144"><ele>3.50</ele><time>2011-10-13T11:50:24Z</time></trkpt><trkpt lat="44.1044611204" lon="14.9812515546"><ele>3.50</ele><time>2011-10-13T11:50:36Z</time></trkpt><trkpt lat="44.1041739564" lon="14.9816944543"><ele>3.02</ele><time>2011-10-13T11:50:49Z</time></trkpt><trkpt lat="44.1037824377" lon="14.9822904076"><ele>3.02</ele><time>2011-10-13T11:51:06Z</time></trkpt><trkpt lat="44.1034684516" lon="14.9828598741"><ele>2.54</ele><time>2011-10-13T11:51:21Z</time></trkpt><trkpt lat="44.1032005660" lon="14.9833610281"><ele>1.10</ele><time>2011-10-13T11:51:34Z</time></trkpt><trkpt lat="44.1029155813" lon="14.9839472584"><ele>2.06</ele><time>2011-10-13T11:51:49Z</time></trkpt><trkpt lat="44.1025777906" lon="14.9843830336"><ele>2.54</ele><time>2011-10-13T11:52:03Z</time></trkpt><trkpt lat="44.1022323724" lon="14.9849245884"><ele>3.02</ele><time>2011-10-13T11:52:19Z</time></trkpt><trkpt lat="44.1019394249" lon="14.9853850063"><ele>2.54</ele><time>2011-10-13T11:52:32Z</time></trkpt><trkpt lat="44.1016893089" lon="14.9857143313"><ele>1.58</ele><time>2011-10-13T11:52:42Z</time></trkpt><trkpt lat="44.1014062520" lon="14.9861490168"><ele>1.58</ele><time>2011-10-13T11:52:54Z</time></trkpt><trkpt lat="44.1010733228" lon="14.9865879770"><ele>2.06</ele><time>2011-10-13T11:53:07Z</time></trkpt><trkpt lat="44.1007460933" lon="14.9870473053"><ele>2.54</ele><time>2011-10-13T11:53:21Z</time></trkpt><trkpt lat="44.1004181933" lon="14.9876392353"><ele>2.06</ele><time>2011-10-13T11:53:37Z</time></trkpt><trkpt lat="44.1000959091" lon="14.9882264715"><ele>3.02</ele><time>2011-10-13T11:53:53Z</time></trkpt><trkpt lat="44.0998237487" lon="14.9887167290"><ele>3.98</ele><time>2011-10-13T11:54:07Z</time></trkpt><trkpt lat="44.0995686036" lon="14.9891931564"><ele>3.98</ele><time>2011-10-13T11:54:20Z</time></trkpt><trkpt lat="44.0992563777" lon="14.9897767883"><ele>3.98</ele><time>2011-10-13T11:54:36Z</time></trkpt><trkpt lat="44.0989667829" lon="14.9903356936"><ele>3.02</ele><time>2011-10-13T11:54:51Z</time></trkpt><trkpt lat="44.0987019148" lon="14.9908288848"><ele>3.02</ele><time>2011-10-13T11:55:04Z</time></trkpt><trkpt lat="44.0984342806" lon="14.9913260993"><ele>3.02</ele><time>2011-10-13T11:55:17Z</time></trkpt><trkpt lat="44.0981643833" lon="14.9918388203"><ele>3.50</ele><time>2011-10-13T11:55:30Z</time></trkpt><trkpt lat="44.0978837572" lon="14.9923523795"><ele>3.02</ele><time>2011-10-13T11:55:43Z</time></trkpt><trkpt lat="44.0976195596" lon="14.9928123783"><ele>3.02</ele><time>2011-10-13T11:55:55Z</time></trkpt><trkpt lat="44.0973327309" lon="14.9933432881"><ele>2.54</ele><time>2011-10-13T11:56:09Z</time></trkpt><trkpt lat="44.0969821159" lon="14.9940008484"><ele>3.02</ele><time>2011-10-13T11:56:26Z</time></trkpt><trkpt lat="44.0967300721" lon="14.9946110509"><ele>3.02</ele><time>2011-10-13T11:56:40Z</time></trkpt><trkpt lat="44.0964721609" lon="14.9951348361"><ele>3.02</ele><time>2011-10-13T11:56:53Z</time></trkpt><trkpt lat="44.0961745195" lon="14.9956844375"><ele>3.50</ele><time>2011-10-13T11:57:07Z</time></trkpt><trkpt lat="44.0959001798" lon="14.9961858429"><ele>2.54</ele><time>2011-10-13T11:57:20Z</time></trkpt><trkpt lat="44.0955633949" lon="14.9967995659"><ele>1.10</ele><time>2011-10-13T11:57:35Z</time></trkpt><trkpt lat="44.0952737164" lon="14.9973657634"><ele>2.06</ele><time>2011-10-13T11:57:49Z</time></trkpt><trkpt lat="44.0949531086" lon="14.9979746249"><ele>2.06</ele><time>2011-10-13T11:58:04Z</time></trkpt><trkpt lat="44.0946427267" lon="14.9985445105"><ele>1.10</ele><time>2011-10-13T11:58:18Z</time></trkpt><trkpt lat="44.0943516232" lon="14.9990470894"><ele>2.06</ele><time>2011-10-13T11:58:31Z</time></trkpt><trkpt lat="44.0940519702" lon="14.9996344093"><ele>1.58</ele><time>2011-10-13T11:58:46Z</time></trkpt><trkpt lat="44.0937607829" lon="15.0001563504"><ele>2.06</ele><time>2011-10-13T11:59:00Z</time></trkpt><trkpt lat="44.0934395883" lon="15.0006963126"><ele>2.54</ele><time>2011-10-13T11:59:15Z</time></trkpt><trkpt lat="44.0931521729" lon="15.0012162421"><ele>1.58</ele><time>2011-10-13T11:59:29Z</time></trkpt><trkpt lat="44.0928229317" lon="15.0017702021"><ele>1.10</ele><time>2011-10-13T11:59:44Z</time></trkpt><trkpt lat="44.0925100353" lon="15.0022944063"><ele>1.10</ele><time>2011-10-13T11:59:58Z</time></trkpt><trkpt lat="44.0921683051" lon="15.0028923713"><ele>1.10</ele><time>2011-10-13T12:00:14Z</time></trkpt><trkpt lat="44.0919055324" lon="15.0033699721"><ele>2.06</ele><time>2011-10-13T12:00:26Z</time></trkpt><trkpt lat="44.0915863495" lon="15.0039334036"><ele>2.06</ele><time>2011-10-13T12:00:40Z</time></trkpt><trkpt lat="44.0911953337" lon="15.0045137666"><ele>1.58</ele><time>2011-10-13T12:00:56Z</time></trkpt><trkpt lat="44.0908735525" lon="15.0050637033"><ele>2.06</ele><time>2011-10-13T12:01:10Z</time></trkpt><trkpt lat="44.0905195009" lon="15.0056494307"><ele>2.54</ele><time>2011-10-13T12:01:25Z</time></trkpt><trkpt lat="44.0903868154" lon="15.0061541889"><ele>2.54</ele><time>2011-10-13T12:01:38Z</time></trkpt><trkpt lat="44.0902514476" lon="15.0065293629"><ele>2.06</ele><time>2011-10-13T12:01:49Z</time></trkpt><trkpt lat="44.0899481066" lon="15.0070197880"><ele>1.58</ele><time>2011-10-13T12:02:02Z</time></trkpt><trkpt lat="44.0898296703" lon="15.0074386317"><ele>2.06</ele><time>2011-10-13T12:02:13Z</time></trkpt><trkpt lat="44.0898317657" lon="15.0075284019"><ele>1.58</ele><time>2011-10-13T12:02:16Z</time></trkpt><trkpt lat="44.0895718429" lon="15.0080575515"><ele>1.58</ele><time>2011-10-13T12:02:31Z</time></trkpt><trkpt lat="44.0892695077" lon="15.0085635670"><ele>1.58</ele><time>2011-10-13T12:02:44Z</time></trkpt><trkpt lat="44.0889626462" lon="15.0089941453"><ele>0.62</ele><time>2011-10-13T12:02:56Z</time></trkpt><trkpt lat="44.0886563715" lon="15.0094868336"><ele>0.14</ele><time>2011-10-13T12:03:09Z</time></trkpt><trkpt lat="44.0883884858" lon="15.0099500176"><ele>0.62</ele><time>2011-10-13T12:03:21Z</time></trkpt><trkpt lat="44.0881156549" lon="15.0104033109"><ele>0.62</ele><time>2011-10-13T12:03:33Z</time></trkpt><trkpt lat="44.0878094640" lon="15.0108944066"><ele>1.10</ele><time>2011-10-13T12:03:46Z</time></trkpt><trkpt lat="44.0875073802" lon="15.0113768689"><ele>2.06</ele><time>2011-10-13T12:03:59Z</time></trkpt><trkpt lat="44.0871498082" lon="15.0119511969"><ele>2.54</ele><time>2011-10-13T12:04:14Z</time></trkpt><trkpt lat="44.0868247580" lon="15.0124210864"><ele>2.06</ele><time>2011-10-13T12:04:27Z</time></trkpt><trkpt lat="44.0865366720" lon="15.0129252579"><ele>1.10</ele><time>2011-10-13T12:04:40Z</time></trkpt><trkpt lat="44.0862724744" lon="15.0133745279"><ele>1.10</ele><time>2011-10-13T12:04:52Z</time></trkpt><trkpt lat="44.0860140603" lon="15.0138158351"><ele>1.10</ele><time>2011-10-13T12:05:04Z</time></trkpt><trkpt lat="44.0857662074" lon="15.0142379478"><ele>0.14</ele><time>2011-10-13T12:05:15Z</time></trkpt><trkpt lat="44.0854986571" lon="15.0147665944"><ele>1.10</ele><time>2011-10-13T12:05:28Z</time></trkpt><trkpt lat="44.0851967409" lon="15.0153918006"><ele>2.06</ele><time>2011-10-13T12:05:43Z</time></trkpt><trkpt lat="44.0849483013" lon="15.0158808008"><ele>2.54</ele><time>2011-10-13T12:05:55Z</time></trkpt><trkpt lat="44.0847146977" lon="15.0163139775"><ele>2.54</ele><time>2011-10-13T12:06:06Z</time></trkpt><trkpt lat="44.0844212472" lon="15.0168582983"><ele>2.54</ele><time>2011-10-13T12:06:20Z</time></trkpt><trkpt lat="44.0841200016" lon="15.0173726957"><ele>2.06</ele><time>2011-10-13T12:06:34Z</time></trkpt><trkpt lat="44.0838125534" lon="15.0175740290"><ele>1.58</ele><time>2011-10-13T12:06:45Z</time></trkpt><trkpt lat="44.0834931191" lon="15.0177332014"><ele>2.06</ele><time>2011-10-13T12:06:57Z</time></trkpt><trkpt lat="44.0831161011" lon="15.0179768633"><ele>2.54</ele><time>2011-10-13T12:07:12Z</time></trkpt><trkpt lat="44.0827542543" lon="15.0181538053"><ele>3.50</ele><time>2011-10-13T12:07:26Z</time></trkpt><trkpt lat="44.0823702794" lon="15.0183738302"><ele>2.06</ele><time>2011-10-13T12:07:41Z</time></trkpt><trkpt lat="44.0819644276" lon="15.0186289754"><ele>2.06</ele><time>2011-10-13T12:07:56Z</time></trkpt><trkpt lat="44.0815620124" lon="15.0189022254"><ele>3.02</ele><time>2011-10-13T12:08:10Z</time></trkpt><trkpt lat="44.0811030194" lon="15.0192524213"><ele>3.02</ele><time>2011-10-13T12:08:26Z</time></trkpt><trkpt lat="44.0806670766" lon="15.0195477158"><ele>3.02</ele><time>2011-10-13T12:08:40Z</time></trkpt><trkpt lat="44.0802133642" lon="15.0198865961"><ele>3.02</ele><time>2011-10-13T12:08:55Z</time></trkpt><trkpt lat="44.0798106138" lon="15.0202548970"><ele>3.02</ele><time>2011-10-13T12:09:10Z</time></trkpt><trkpt lat="44.0793623496" lon="15.0205966271"><ele>3.50</ele><time>2011-10-13T12:09:26Z</time></trkpt><trkpt lat="44.0790243074" lon="15.0208145566"><ele>3.98</ele><time>2011-10-13T12:09:38Z</time></trkpt><trkpt lat="44.0786581021" lon="15.0210636668"><ele>3.98</ele><time>2011-10-13T12:09:51Z</time></trkpt><trkpt lat="44.0782031324" lon="15.0213872083"><ele>2.54</ele><time>2011-10-13T12:10:07Z</time></trkpt><trkpt lat="44.0777946822" lon="15.0216304511"><ele>2.54</ele><time>2011-10-13T12:10:21Z</time></trkpt><trkpt lat="44.0773542132" lon="15.0218905415"><ele>3.50</ele><time>2011-10-13T12:10:36Z</time></trkpt><trkpt lat="44.0769331902" lon="15.0222000014"><ele>3.50</ele><time>2011-10-13T12:10:51Z</time></trkpt><trkpt lat="44.0764696710" lon="15.0224805437"><ele>3.50</ele><time>2011-10-13T12:11:07Z</time></trkpt><trkpt lat="44.0759768989" lon="15.0226061884"><ele>2.54</ele><time>2011-10-13T12:11:24Z</time></trkpt><trkpt lat="44.0755271260" lon="15.0227329228"><ele>2.54</ele><time>2011-10-13T12:11:40Z</time></trkpt><trkpt lat="44.0750859026" lon="15.0229465775"><ele>1.58</ele><time>2011-10-13T12:11:56Z</time></trkpt><trkpt lat="44.0747050289" lon="15.0231528562"><ele>1.58</ele><time>2011-10-13T12:12:10Z</time></trkpt><trkpt lat="44.0743169468" lon="15.0233857892"><ele>2.54</ele><time>2011-10-13T12:12:24Z</time></trkpt><trkpt lat="44.0739289485" lon="15.0237414334"><ele>3.50</ele><time>2011-10-13T12:12:38Z</time></trkpt><trkpt lat="44.0736021381" lon="15.0241202954"><ele>4.46</ele><time>2011-10-13T12:12:50Z</time></trkpt><trkpt lat="44.0732999705" lon="15.0245278236"><ele>4.46</ele><time>2011-10-13T12:13:02Z</time></trkpt><trkpt lat="44.0728864912" lon="15.0248941965"><ele>5.42</ele><time>2011-10-13T12:13:16Z</time></trkpt><trkpt lat="44.0724880155" lon="15.0251199212"><ele>4.94</ele><time>2011-10-13T12:13:29Z</time></trkpt><trkpt lat="44.0721357241" lon="15.0253443886"><ele>4.46</ele><time>2011-10-13T12:13:41Z</time></trkpt><trkpt lat="44.0716888011" lon="15.0256421138"><ele>4.46</ele><time>2011-10-13T12:13:56Z</time></trkpt><trkpt lat="44.0713119507" lon="15.0259892084"><ele>4.94</ele><time>2011-10-13T12:14:09Z</time></trkpt><trkpt lat="44.0709546302" lon="15.0263709202"><ele>4.94</ele><time>2011-10-13T12:14:21Z</time></trkpt><trkpt lat="44.0705017559" lon="15.0267703179"><ele>6.39</ele><time>2011-10-13T12:14:36Z</time></trkpt><trkpt lat="44.0701515600" lon="15.0270983856"><ele>6.39</ele><time>2011-10-13T12:14:48Z</time></trkpt><trkpt lat="44.0696556866" lon="15.0275256950"><ele>4.94</ele><time>2011-10-13T12:15:04Z</time></trkpt><trkpt lat="44.0692111943" lon="15.0279332232"><ele>4.94</ele><time>2011-10-13T12:15:19Z</time></trkpt><trkpt lat="44.0687259659" lon="15.0283487141"><ele>4.46</ele><time>2011-10-13T12:15:35Z</time></trkpt><trkpt lat="44.0683186054" lon="15.0287624449"><ele>4.94</ele><time>2011-10-13T12:15:49Z</time></trkpt><trkpt lat="44.0678737778" lon="15.0291434862"><ele>5.42</ele><time>2011-10-13T12:16:04Z</time></trkpt><trkpt lat="44.0673617274" lon="15.0296944287"><ele>3.98</ele><time>2011-10-13T12:16:22Z</time></trkpt><trkpt lat="44.0668671951" lon="15.0301282760"><ele>4.46</ele><time>2011-10-13T12:16:39Z</time></trkpt><trkpt lat="44.0664418973" lon="15.0305015221"><ele>3.98</ele><time>2011-10-13T12:16:53Z</time></trkpt><trkpt lat="44.0660513844" lon="15.0308978185"><ele>3.50</ele><time>2011-10-13T12:17:06Z</time></trkpt><trkpt lat="44.0655822493" lon="15.0313154049"><ele>3.98</ele><time>2011-10-13T12:17:22Z</time></trkpt><trkpt lat="44.0652060695" lon="15.0316666905"><ele>3.98</ele><time>2011-10-13T12:17:35Z</time></trkpt><trkpt lat="44.0647744015" lon="15.0320654176"><ele>4.46</ele><time>2011-10-13T12:17:50Z</time></trkpt><trkpt lat="44.0643865708" lon="15.0324697606"><ele>4.46</ele><time>2011-10-13T12:18:04Z</time></trkpt><trkpt lat="44.0639416594" lon="15.0328597706"><ele>4.46</ele><time>2011-10-13T12:18:20Z</time></trkpt><trkpt lat="44.0634431038" lon="15.0333151594"><ele>3.98</ele><time>2011-10-13T12:18:38Z</time></trkpt><trkpt lat="44.0630142856" lon="15.0337917544"><ele>3.98</ele><time>2011-10-13T12:18:54Z</time></trkpt><trkpt lat="44.0626707114" lon="15.0340997893"><ele>3.98</ele><time>2011-10-13T12:19:07Z</time></trkpt><trkpt lat="44.0622807015" lon="15.0345485564"><ele>3.50</ele><time>2011-10-13T12:19:22Z</time></trkpt><trkpt lat="44.0618957207" lon="15.0350678153"><ele>3.02</ele><time>2011-10-13T12:19:37Z</time></trkpt><trkpt lat="44.0615463629" lon="15.0355220307"><ele>3.50</ele><time>2011-10-13T12:19:51Z</time></trkpt><trkpt lat="44.0611922275" lon="15.0358026568"><ele>3.50</ele><time>2011-10-13T12:20:03Z</time></trkpt><trkpt lat="44.0607966017" lon="15.0361294672"><ele>5.42</ele><time>2011-10-13T12:20:17Z</time></trkpt><trkpt lat="44.0603222698" lon="15.0363741349"><ele>4.94</ele><time>2011-10-13T12:20:33Z</time></trkpt><trkpt lat="44.0598744247" lon="15.0365630630"><ele>5.42</ele><time>2011-10-13T12:20:48Z</time></trkpt><trkpt lat="44.0593235660" lon="15.0367499795"><ele>4.46</ele><time>2011-10-13T12:21:07Z</time></trkpt><trkpt lat="44.0587597154" lon="15.0369588565"><ele>4.46</ele><time>2011-10-13T12:21:27Z</time></trkpt><trkpt lat="44.0583350044" lon="15.0371163525"><ele>5.42</ele><time>2011-10-13T12:21:43Z</time></trkpt><trkpt lat="44.0577551443" lon="15.0373118185"><ele>4.46</ele><time>2011-10-13T12:22:04Z</time></trkpt><trkpt lat="44.0573806409" lon="15.0375227071"><ele>5.42</ele><time>2011-10-13T12:22:18Z</time></trkpt><trkpt lat="44.0568048880" lon="15.0377776846"><ele>5.42</ele><time>2011-10-13T12:22:39Z</time></trkpt><trkpt lat="44.0563363396" lon="15.0379283074"><ele>4.94</ele><time>2011-10-13T12:22:57Z</time></trkpt><trkpt lat="44.0558843035" lon="15.0380617473"><ele>5.42</ele><time>2011-10-13T12:23:15Z</time></trkpt><trkpt lat="44.0554204490" lon="15.0381995458"><ele>4.46</ele><time>2011-10-13T12:23:34Z</time></trkpt><trkpt lat="44.0549479611" lon="15.0383287948"><ele>4.46</ele><time>2011-10-13T12:23:53Z</time></trkpt><trkpt lat="44.0543565340" lon="15.0385919865"><ele>4.94</ele><time>2011-10-13T12:24:17Z</time></trkpt><trkpt lat="44.0539266262" lon="15.0388366543"><ele>3.98</ele><time>2011-10-13T12:24:35Z</time></trkpt><trkpt lat="44.0535073634" lon="15.0391560886"><ele>3.98</ele><time>2011-10-13T12:24:52Z</time></trkpt><trkpt lat="44.0530170221" lon="15.0395386387"><ele>4.94</ele><time>2011-10-13T12:25:12Z</time></trkpt><trkpt lat="44.0526067279" lon="15.0397874974"><ele>5.42</ele><time>2011-10-13T12:25:29Z</time></trkpt><trkpt lat="44.0521220025" lon="15.0400428101"><ele>5.91</ele><time>2011-10-13T12:25:50Z</time></trkpt><trkpt lat="44.0516832098" lon="15.0403604005"><ele>5.42</ele><time>2011-10-13T12:26:08Z</time></trkpt><trkpt lat="44.0511566587" lon="15.0406582933"><ele>5.42</ele><time>2011-10-13T12:26:29Z</time></trkpt><trkpt lat="44.0506771300" lon="15.0409317110"><ele>4.94</ele><time>2011-10-13T12:26:49Z</time></trkpt><trkpt lat="44.0501791611" lon="15.0412033685"><ele>4.46</ele><time>2011-10-13T12:27:10Z</time></trkpt><trkpt lat="44.0497846249" lon="15.0413923804"><ele>3.50</ele><time>2011-10-13T12:27:28Z</time></trkpt><trkpt lat="44.0493889991" lon="15.0415842421"><ele>3.02</ele><time>2011-10-13T12:27:47Z</time></trkpt><trkpt lat="44.0489736758" lon="15.0418284908"><ele>2.54</ele><time>2011-10-13T12:28:07Z</time></trkpt><trkpt lat="44.0485242382" lon="15.0420650281"><ele>3.02</ele><time>2011-10-13T12:28:28Z</time></trkpt><trkpt lat="44.0481196437" lon="15.0422906689"><ele>1.58</ele><time>2011-10-13T12:28:47Z</time></trkpt><trkpt lat="44.0476106945" lon="15.0425600633"><ele>0.14</ele><time>2011-10-13T12:29:10Z</time></trkpt><trkpt lat="44.0471041761" lon="15.0428280327"><ele>-0.82</ele><time>2011-10-13T12:29:33Z</time></trkpt><trkpt lat="44.0467024315" lon="15.0430349819"><ele>-1.30</ele><time>2011-10-13T12:29:52Z</time></trkpt><trkpt lat="44.0462554246" lon="15.0432700943"><ele>-1.30</ele><time>2011-10-13T12:30:13Z</time></trkpt><trkpt lat="44.0458085854" lon="15.0434854254"><ele>-0.82</ele><time>2011-10-13T12:30:34Z</time></trkpt><trkpt lat="44.0452904161" lon="15.0436847471"><ele>-0.82</ele><time>2011-10-13T12:30:59Z</time></trkpt><trkpt lat="44.0448381286" lon="15.0438932888"><ele>-1.30</ele><time>2011-10-13T12:31:20Z</time></trkpt><trkpt lat="44.0443505533" lon="15.0440816302"><ele>-0.34</ele><time>2011-10-13T12:31:42Z</time></trkpt><trkpt lat="44.0437920671" lon="15.0443012360"><ele>-0.34</ele><time>2011-10-13T12:32:08Z</time></trkpt><trkpt lat="44.0433233511" lon="15.0444977079"><ele>-0.82</ele><time>2011-10-13T12:32:29Z</time></trkpt><trkpt lat="44.0428949520" lon="15.0446784217"><ele>-0.34</ele><time>2011-10-13T12:32:48Z</time></trkpt><trkpt lat="44.0423306823" lon="15.0449172221"><ele>-0.82</ele><time>2011-10-13T12:33:13Z</time></trkpt><trkpt lat="44.0418324620" lon="15.0451320503"><ele>-0.34</ele><time>2011-10-13T12:33:35Z</time></trkpt><trkpt lat="44.0413248539" lon="15.0453827530"><ele>0.14</ele><time>2011-10-13T12:33:59Z</time></trkpt><trkpt lat="44.0408698004" lon="15.0455648918"><ele>-0.34</ele><time>2011-10-13T12:34:23Z</time></trkpt><trkpt lat="44.0403993241" lon="15.0457523111"><ele>-1.30</ele><time>2011-10-13T12:34:48Z</time></trkpt><trkpt lat="44.0399125870" lon="15.0459296722"><ele>-1.30</ele><time>2011-10-13T12:35:14Z</time></trkpt><trkpt lat="44.0394471399" lon="15.0461144093"><ele>-0.82</ele><time>2011-10-13T12:35:38Z</time></trkpt><trkpt lat="44.0390096884" lon="15.0462936144"><ele>-0.34</ele><time>2011-10-13T12:36:00Z</time></trkpt><trkpt lat="44.0385372005" lon="15.0465217698"><ele>-0.34</ele><time>2011-10-13T12:36:22Z</time></trkpt><trkpt lat="44.0380577557" lon="15.0467402022"><ele>0.14</ele><time>2011-10-13T12:36:43Z</time></trkpt><trkpt lat="44.0374669991" lon="15.0469680224"><ele>0.14</ele><time>2011-10-13T12:37:09Z</time></trkpt><trkpt lat="44.0370631590" lon="15.0471524242"><ele>0.62</ele><time>2011-10-13T12:37:29Z</time></trkpt><trkpt lat="44.0366378613" lon="15.0475152768"><ele>0.62</ele><time>2011-10-13T12:37:52Z</time></trkpt><trkpt lat="44.0363834705" lon="15.0478838291"><ele>1.10</ele><time>2011-10-13T12:38:08Z</time></trkpt><trkpt lat="44.0361616015" lon="15.0484308321"><ele>2.06</ele><time>2011-10-13T12:38:26Z</time></trkpt><trkpt lat="44.0360548161" lon="15.0490381848"><ele>1.58</ele><time>2011-10-13T12:38:46Z</time></trkpt><trkpt lat="44.0360299218" lon="15.0494750496"><ele>2.54</ele><time>2011-10-13T12:39:03Z</time></trkpt><trkpt lat="44.0360113140" lon="15.0498405006"><ele>3.50</ele><time>2011-10-13T12:39:19Z</time></trkpt><trkpt lat="44.0359471086" lon="15.0502039399"><ele>3.02</ele><time>2011-10-13T12:39:37Z</time></trkpt><trkpt lat="44.0359280817" lon="15.0505990628"><ele>1.58</ele><time>2011-10-13T12:39:59Z</time></trkpt><trkpt lat="44.0359295066" lon="15.0509022363"><ele>1.58</ele><time>2011-10-13T12:40:21Z</time></trkpt><trkpt lat="44.0359370504" lon="15.0512256101"><ele>2.06</ele><time>2011-10-13T12:40:42Z</time></trkpt><trkpt lat="44.0359962266" lon="15.0515982695"><ele>2.06</ele><time>2011-10-13T12:41:05Z</time></trkpt><trkpt lat="44.0361037664" lon="15.0519648101"><ele>1.58</ele><time>2011-10-13T12:41:27Z</time></trkpt><trkpt lat="44.0361829754" lon="15.0522791315"><ele>2.06</ele><time>2011-10-13T12:41:46Z</time></trkpt><trkpt lat="44.0362919401" lon="15.0526741706"><ele>1.58</ele><time>2011-10-13T12:42:11Z</time></trkpt><trkpt lat="44.0363716520" lon="15.0530469976"><ele>1.10</ele><time>2011-10-13T12:42:35Z</time></trkpt><trkpt lat="44.0365128871" lon="15.0534391031"><ele>0.62</ele><time>2011-10-13T12:43:02Z</time></trkpt><trkpt lat="44.0366827045" lon="15.0537854433"><ele>0.62</ele><time>2011-10-13T12:43:27Z</time></trkpt><trkpt lat="44.0368776675" lon="15.0540984236"><ele>1.10</ele><time>2011-10-13T12:43:52Z</time></trkpt><trkpt lat="44.0371034760" lon="15.0543891080"><ele>1.10</ele><time>2011-10-13T12:44:18Z</time></trkpt><trkpt lat="44.0373660810" lon="15.0546184368"><ele>3.50</ele><time>2011-10-13T12:44:45Z</time></trkpt><trkpt lat="44.0376249980" lon="15.0548143219"><ele>3.02</ele><time>2011-10-13T12:45:10Z</time></trkpt><trkpt lat="44.0378705040" lon="15.0549805351"><ele>4.94</ele><time>2011-10-13T12:45:34Z</time></trkpt><trkpt lat="44.0382004157" lon="15.0549902581"><ele>3.50</ele><time>2011-10-13T12:46:04Z</time></trkpt><trkpt lat="44.0384077001" lon="15.0549509469"><ele>3.02</ele><time>2011-10-13T12:46:26Z</time></trkpt><trkpt lat="44.0386344306" lon="15.0549058523"><ele>3.50</ele><time>2011-10-13T12:46:53Z</time></trkpt><trkpt lat="44.0388428885" lon="15.0548510347"><ele>4.94</ele><time>2011-10-13T12:47:18Z</time></trkpt><trkpt lat="44.0390145499" lon="15.0548131485"><ele>3.98</ele><time>2011-10-13T12:47:43Z</time></trkpt><trkpt lat="44.0390543640" lon="15.0547864940"><ele>3.50</ele><time>2011-10-13T12:48:10Z</time></trkpt><trkpt lat="44.0389685333" lon="15.0547436625"><ele>3.50</ele><time>2011-10-13T12:48:34Z</time></trkpt><trkpt lat="44.0390620753" lon="15.0547323469"><ele>2.54</ele><time>2011-10-13T12:48:55Z</time></trkpt><trkpt lat="44.0391093493" lon="15.0547517091"><ele>2.54</ele><time>2011-10-13T12:49:20Z</time></trkpt><trkpt lat="44.0391093493" lon="15.0547517091"><ele>2.54</ele><time>2011-10-13T12:49:45Z</time></trkpt><trkpt lat="44.0391002968" lon="15.0547422376"><ele>3.02</ele><time>2011-10-13T12:50:13Z</time></trkpt><trkpt lat="44.0391002968" lon="15.0547422376"><ele>3.02</ele><time>2011-10-13T12:50:39Z</time></trkpt><trkpt lat="44.0390951000" lon="15.0547269825"><ele>2.54</ele><time>2011-10-13T12:51:12Z</time></trkpt><trkpt lat="44.0390866343" lon="15.0547186844"><ele>3.02</ele><time>2011-10-13T12:51:42Z</time></trkpt><trkpt lat="44.0390811861" lon="15.0547195226"><ele>3.02</ele><time>2011-10-13T12:52:10Z</time></trkpt><trkpt lat="44.0390750673" lon="15.0547268149"><ele>3.02</ele><time>2011-10-13T12:52:40Z</time></trkpt><trkpt lat="44.0390750673" lon="15.0547268149"><ele>3.02</ele><time>2011-10-13T12:53:11Z</time></trkpt><trkpt lat="44.0390655957" lon="15.0547328498"><ele>2.54</ele><time>2011-10-13T12:53:50Z</time></trkpt><trkpt lat="44.0390612371" lon="15.0547354482"><ele>2.06</ele><time>2011-10-13T12:54:21Z</time></trkpt><trkpt lat="44.0390593931" lon="15.0547367055"><ele>2.06</ele><time>2011-10-13T12:54:48Z</time></trkpt><trkpt lat="44.0390584711" lon="15.0547328498"><ele>2.06</ele><time>2011-10-13T12:55:23Z</time></trkpt><trkpt lat="44.0390584711" lon="15.0547328498"><ele>2.06</ele><time>2011-10-13T12:55:49Z</time></trkpt><trkpt lat="44.0390570462" lon="15.0547295809"><ele>2.06</ele><time>2011-10-13T12:56:16Z</time></trkpt><trkpt lat="44.0390537772" lon="15.0547330175"><ele>2.06</ele><time>2011-10-13T12:56:41Z</time></trkpt><trkpt lat="44.0390537772" lon="15.0547330175"><ele>2.06</ele><time>2011-10-13T12:57:11Z</time></trkpt><trkpt lat="44.0390519332" lon="15.0547389686"><ele>2.06</ele><time>2011-10-13T12:57:38Z</time></trkpt><trkpt lat="44.0390535258" lon="15.0547317602"><ele>1.58</ele><time>2011-10-13T12:58:05Z</time></trkpt><trkpt lat="44.0390535258" lon="15.0547317602"><ele>1.58</ele><time>2011-10-13T12:58:26Z</time></trkpt><trkpt lat="44.0390459821" lon="15.0547438301"><ele>1.10</ele><time>2011-10-13T12:58:53Z</time></trkpt><trkpt lat="44.0390459821" lon="15.0547438301"><ele>1.10</ele><time>2011-10-13T12:59:18Z</time></trkpt><trkpt lat="44.0390398633" lon="15.0547403935"><ele>1.10</ele><time>2011-10-13T12:59:39Z</time></trkpt><trkpt lat="44.0390376002" lon="15.0547460094"><ele>2.06</ele><time>2011-10-13T13:00:03Z</time></trkpt><trkpt lat="44.0390376002" lon="15.0547460094"><ele>2.06</ele><time>2011-10-13T13:00:25Z</time></trkpt><trkpt lat="44.0390375163" lon="15.0547512900"><ele>2.06</ele><time>2011-10-13T13:00:43Z</time></trkpt><trkpt lat="44.0390375163" lon="15.0547512900"><ele>2.06</ele><time>2011-10-13T13:01:10Z</time></trkpt><trkpt lat="44.0390404500" lon="15.0547564030"><ele>2.06</ele><time>2011-10-13T13:01:39Z</time></trkpt><trkpt lat="44.0390391927" lon="15.0547615159"><ele>2.06</ele><time>2011-10-13T13:02:07Z</time></trkpt><trkpt lat="44.0390350856" lon="15.0547693949"><ele>2.06</ele><time>2011-10-13T13:02:41Z</time></trkpt><trkpt lat="44.0390350856" lon="15.0547693949"><ele>2.06</ele><time>2011-10-13T13:03:07Z</time></trkpt><trkpt lat="44.0390259493" lon="15.0547885895"><ele>2.54</ele><time>2011-10-13T13:03:30Z</time></trkpt><trkpt lat="44.0390259493" lon="15.0547885895"><ele>2.54</ele><time>2011-10-13T13:03:56Z</time></trkpt><trkpt lat="44.0390219260" lon="15.0547835603"><ele>2.54</ele><time>2011-10-13T13:04:21Z</time></trkpt><trkpt lat="44.0390216745" lon="15.0547711551"><ele>3.02</ele><time>2011-10-13T13:04:47Z</time></trkpt><trkpt lat="44.0390280448" lon="15.0547726639"><ele>3.02</ele><time>2011-10-13T13:05:07Z</time></trkpt><trkpt lat="44.0391055774" lon="15.0547595043"><ele>2.06</ele><time>2011-10-13T13:05:33Z</time></trkpt><trkpt lat="44.0391236823" lon="15.0547792017"><ele>1.58</ele><time>2011-10-13T13:06:00Z</time></trkpt><trkpt lat="44.0391635802" lon="15.0547052734"><ele>0.62</ele><time>2011-10-13T13:06:31Z</time></trkpt><trkpt lat="44.0391742252" lon="15.0546978135"><ele>0.62</ele><time>2011-10-13T13:06:58Z</time></trkpt><trkpt lat="44.0391733032" lon="15.0546975620"><ele>0.62</ele><time>2011-10-13T13:07:34Z</time></trkpt><trkpt lat="44.0391763207" lon="15.0546932034"><ele>0.62</ele><time>2011-10-13T13:08:09Z</time></trkpt><trkpt lat="44.0391720459" lon="15.0546915270"><ele>0.14</ele><time>2011-10-13T13:08:46Z</time></trkpt><trkpt lat="44.0391697828" lon="15.0546839833"><ele>0.62</ele><time>2011-10-13T13:09:20Z</time></trkpt><trkpt lat="44.0391630773" lon="15.0546830613"><ele>0.62</ele><time>2011-10-13T13:09:57Z</time></trkpt><trkpt lat="44.0391630773" lon="15.0546830613"><ele>0.62</ele><time>2011-10-13T13:10:33Z</time></trkpt><trkpt lat="44.0391609818" lon="15.0546736736"><ele>0.62</ele><time>2011-10-13T13:11:10Z</time></trkpt><trkpt lat="44.0391649213" lon="15.0546700694"><ele>1.10</ele><time>2011-10-13T13:11:40Z</time></trkpt><trkpt lat="44.0391635802" lon="15.0546714943"><ele>1.10</ele><time>2011-10-13T13:12:10Z</time></trkpt><trkpt lat="44.0391562879" lon="15.0546782836"><ele>1.10</ele><time>2011-10-13T13:12:38Z</time></trkpt><trkpt lat="44.0391562879" lon="15.0546782836"><ele>1.10</ele><time>2011-10-13T13:13:12Z</time></trkpt><trkpt lat="44.0391574614" lon="15.0546773616"><ele>1.10</ele><time>2011-10-13T13:13:43Z</time></trkpt><trkpt lat="44.0391572937" lon="15.0546767749"><ele>1.10</ele><time>2011-10-13T13:14:16Z</time></trkpt><trkpt lat="44.0391554497" lon="15.0546720810"><ele>1.10</ele><time>2011-10-13T13:14:56Z</time></trkpt><trkpt lat="44.0391561203" lon="15.0546761882"><ele>1.10</ele><time>2011-10-13T13:15:31Z</time></trkpt><trkpt lat="44.0391541086" lon="15.0546744280"><ele>0.62</ele><time>2011-10-13T13:16:07Z</time></trkpt><trkpt lat="44.0391608980" lon="15.0546735898"><ele>0.62</ele><time>2011-10-13T13:16:39Z</time></trkpt><trkpt lat="44.0391568746" lon="15.0546678901"><ele>1.10</ele><time>2011-10-13T13:17:16Z</time></trkpt><trkpt lat="44.0391568746" lon="15.0546678901"><ele>1.10</ele><time>2011-10-13T13:17:52Z</time></trkpt><trkpt lat="44.0391648374" lon="15.0546764396"><ele>1.58</ele><time>2011-10-13T13:18:26Z</time></trkpt><trkpt lat="44.0391645022" lon="15.0546767749"><ele>0.62</ele><time>2011-10-13T13:18:59Z</time></trkpt><trkpt lat="44.0391650889" lon="15.0546696503"><ele>1.10</ele><time>2011-10-13T13:19:35Z</time></trkpt><trkpt lat="44.0391660109" lon="15.0546625257"><ele>0.62</ele><time>2011-10-13T13:20:11Z</time></trkpt><trkpt lat="44.0391603112" lon="15.0546627771"><ele>0.62</ele><time>2011-10-13T13:20:47Z</time></trkpt><trkpt lat="44.0391613171" lon="15.0546616036"><ele>1.10</ele><time>2011-10-13T13:21:19Z</time></trkpt><trkpt lat="44.0391613171" lon="15.0546616036"><ele>1.10</ele><time>2011-10-13T13:21:53Z</time></trkpt><trkpt lat="44.0391557012" lon="15.0546645373"><ele>1.58</ele><time>2011-10-13T13:22:31Z</time></trkpt><trkpt lat="44.0391571261" lon="15.0546599273"><ele>1.58</ele><time>2011-10-13T13:23:01Z</time></trkpt><trkpt lat="44.0391591378" lon="15.0546631962"><ele>1.10</ele><time>2011-10-13T13:23:38Z</time></trkpt><trkpt lat="44.0391598921" lon="15.0546621904"><ele>1.58</ele><time>2011-10-13T13:24:07Z</time></trkpt><trkpt lat="44.0391686931" lon="15.0546712428"><ele>2.06</ele><time>2011-10-13T13:24:46Z</time></trkpt><trkpt lat="44.0391694475" lon="15.0546744280"><ele>1.58</ele><time>2011-10-13T13:25:18Z</time></trkpt><trkpt lat="44.0391678549" lon="15.0546789542"><ele>0.62</ele><time>2011-10-13T13:25:57Z</time></trkpt><trkpt lat="44.0391678549" lon="15.0546789542"><ele>0.62</ele><time>2011-10-13T13:26:31Z</time></trkpt><trkpt lat="44.0391673520" lon="15.0546725839"><ele>0.62</ele><time>2011-10-13T13:27:07Z</time></trkpt><trkpt lat="44.0391673520" lon="15.0546704046"><ele>0.62</ele><time>2011-10-13T13:27:44Z</time></trkpt><trkpt lat="44.0391682740" lon="15.0546686444"><ele>1.10</ele><time>2011-10-13T13:28:19Z</time></trkpt><trkpt lat="44.0391644184" lon="15.0546681415"><ele>1.10</ele><time>2011-10-13T13:28:58Z</time></trkpt><trkpt lat="44.0391629934" lon="15.0546712428"><ele>1.58</ele><time>2011-10-13T13:29:32Z</time></trkpt><trkpt lat="44.0391651727" lon="15.0546685606"><ele>2.54</ele><time>2011-10-13T13:30:10Z</time></trkpt><trkpt lat="44.0391629096" lon="15.0546710752"><ele>2.06</ele><time>2011-10-13T13:30:42Z</time></trkpt><trkpt lat="44.0391632449" lon="15.0546706561"><ele>1.58</ele><time>2011-10-13T13:31:19Z</time></trkpt><trkpt lat="44.0391636640" lon="15.0546819717"><ele>2.54</ele><time>2011-10-13T13:32:01Z</time></trkpt><trkpt lat="44.0391660109" lon="15.0546835642"><ele>2.06</ele><time>2011-10-13T13:32:38Z</time></trkpt><trkpt lat="44.0391671006" lon="15.0546842348"><ele>1.58</ele><time>2011-10-13T13:33:14Z</time></trkpt><trkpt lat="44.0391671006" lon="15.0546842348"><ele>1.58</ele><time>2011-10-13T13:33:48Z</time></trkpt><trkpt lat="44.0391695313" lon="15.0546837319"><ele>1.58</ele><time>2011-10-13T13:34:25Z</time></trkpt><trkpt lat="44.0391743090" lon="15.0546831451"><ele>1.10</ele><time>2011-10-13T13:35:00Z</time></trkpt><trkpt lat="44.0391818527" lon="15.0546811335"><ele>1.10</ele><time>2011-10-13T13:35:35Z</time></trkpt><trkpt lat="44.0391770750" lon="15.0546753500"><ele>1.10</ele><time>2011-10-13T13:36:15Z</time></trkpt><trkpt lat="44.0391759016" lon="15.0546771102"><ele>1.10</ele><time>2011-10-13T13:36:53Z</time></trkpt><trkpt lat="44.0391719621" lon="15.0546880905"><ele>2.06</ele><time>2011-10-13T13:37:27Z</time></trkpt><trkpt lat="44.0391717106" lon="15.0546831451"><ele>1.58</ele><time>2011-10-13T13:38:06Z</time></trkpt><trkpt lat="44.0391656756" lon="15.0546882581"><ele>1.58</ele><time>2011-10-13T13:38:46Z</time></trkpt><trkpt lat="44.0391660109" lon="15.0546880066"><ele>1.58</ele><time>2011-10-13T13:39:22Z</time></trkpt><trkpt lat="44.0391661786" lon="15.0546801277"><ele>0.62</ele><time>2011-10-13T13:40:01Z</time></trkpt><trkpt lat="44.0391723812" lon="15.0546735059"><ele>1.10</ele><time>2011-10-13T13:40:36Z</time></trkpt><trkpt lat="44.0391723812" lon="15.0546735059"><ele>1.10</ele><time>2011-10-13T13:41:12Z</time></trkpt><trkpt lat="44.0391722973" lon="15.0546757691"><ele>1.10</ele><time>2011-10-13T13:41:53Z</time></trkpt><trkpt lat="44.0391700342" lon="15.0546753500"><ele>1.10</ele><time>2011-10-13T13:42:31Z</time></trkpt><trkpt lat="44.0391739737" lon="15.0546740089"><ele>1.58</ele><time>2011-10-13T13:43:09Z</time></trkpt><trkpt lat="44.0391767398" lon="15.0546709076"><ele>0.14</ele><time>2011-10-13T13:43:54Z</time></trkpt><trkpt lat="44.0391767398" lon="15.0546709076"><ele>0.14</ele><time>2011-10-13T13:44:30Z</time></trkpt><trkpt lat="44.0391771588" lon="15.0546720810"><ele>0.62</ele><time>2011-10-13T13:45:11Z</time></trkpt><trkpt lat="44.0391832776" lon="15.0546813011"><ele>1.58</ele><time>2011-10-13T13:45:56Z</time></trkpt><trkpt lat="44.0391831938" lon="15.0546797924"><ele>2.06</ele><time>2011-10-13T13:46:40Z</time></trkpt><trkpt lat="44.0391784161" lon="15.0546790380"><ele>2.06</ele><time>2011-10-13T13:47:22Z</time></trkpt><trkpt lat="44.0391770750" lon="15.0546776131"><ele>2.54</ele><time>2011-10-13T13:48:08Z</time></trkpt><trkpt lat="44.0391704533" lon="15.0546813849"><ele>2.54</ele><time>2011-10-13T13:48:52Z</time></trkpt><trkpt lat="44.0391686931" lon="15.0546795409"><ele>2.54</ele><time>2011-10-13T13:49:31Z</time></trkpt><trkpt lat="44.0391661786" lon="15.0546792056"><ele>2.54</ele><time>2011-10-13T13:50:09Z</time></trkpt><trkpt lat="44.0391708724" lon="15.0546792895"><ele>2.54</ele><time>2011-10-13T13:50:51Z</time></trkpt><trkpt lat="44.0391711239" lon="15.0546792895"><ele>2.54</ele><time>2011-10-13T13:51:34Z</time></trkpt><trkpt lat="44.0391736384" lon="15.0546842348"><ele>2.06</ele><time>2011-10-13T13:52:23Z</time></trkpt><trkpt lat="44.0391728841" lon="15.0546874199"><ele>1.58</ele><time>2011-10-13T13:53:02Z</time></trkpt><trkpt lat="44.0391694475" lon="15.0546819717"><ele>1.58</ele><time>2011-10-13T13:53:36Z</time></trkpt><trkpt lat="44.0391667653" lon="15.0546868332"><ele>0.62</ele><time>2011-10-13T13:54:19Z</time></trkpt><trkpt lat="44.0391600598" lon="15.0546908565"><ele>0.62</ele><time>2011-10-13T13:54:57Z</time></trkpt><trkpt lat="44.0391603112" lon="15.0546907727"><ele>0.62</ele><time>2011-10-13T13:55:37Z</time></trkpt><trkpt lat="44.0391619038" lon="15.0546934549"><ele>0.62</ele><time>2011-10-13T13:56:13Z</time></trkpt><trkpt lat="44.0391608980" lon="15.0546932034"><ele>0.62</ele><time>2011-10-13T13:56:50Z</time></trkpt><trkpt lat="44.0391637478" lon="15.0546925329"><ele>0.62</ele><time>2011-10-13T13:57:35Z</time></trkpt><trkpt lat="44.0391656756" lon="15.0546924490"><ele>1.10</ele><time>2011-10-13T13:58:14Z</time></trkpt><trkpt lat="44.0391608141" lon="15.0546926167"><ele>1.10</ele><time>2011-10-13T13:58:53Z</time></trkpt><trkpt lat="44.0391627420" lon="15.0546906888"><ele>0.62</ele><time>2011-10-13T13:59:28Z</time></trkpt><trkpt lat="44.0391653404" lon="15.0546871684"><ele>0.62</ele><time>2011-10-13T14:00:10Z</time></trkpt><trkpt lat="44.0391679388" lon="15.0546870846"><ele>1.10</ele><time>2011-10-13T14:00:46Z</time></trkpt><trkpt lat="44.0391653404" lon="15.0546857435"><ele>1.10</ele><time>2011-10-13T14:01:20Z</time></trkpt><trkpt lat="44.0391653404" lon="15.0546857435"><ele>1.10</ele><time>2011-10-13T14:01:52Z</time></trkpt><trkpt lat="44.0391624905" lon="15.0546851568"><ele>1.58</ele><time>2011-10-13T14:02:23Z</time></trkpt><trkpt lat="44.0391649213" lon="15.0546838157"><ele>1.58</ele><time>2011-10-13T14:02:57Z</time></trkpt><trkpt lat="44.0391646698" lon="15.0546820555"><ele>1.58</ele><time>2011-10-13T14:03:31Z</time></trkpt><trkpt lat="44.0391606465" lon="15.0546811335"><ele>1.58</ele><time>2011-10-13T14:04:04Z</time></trkpt><trkpt lat="44.0391606465" lon="15.0546811335"><ele>1.58</ele><time>2011-10-13T14:04:32Z</time></trkpt><trkpt lat="44.0391643345" lon="15.0546765234"><ele>1.10</ele><time>2011-10-13T14:05:06Z</time></trkpt><trkpt lat="44.0391657595" lon="15.0546863303"><ele>0.62</ele><time>2011-10-13T14:05:39Z</time></trkpt><trkpt lat="44.0391647536" lon="15.0546823069"><ele>0.62</ele><time>2011-10-13T14:06:14Z</time></trkpt><trkpt lat="44.0391693637" lon="15.0546844024"><ele>0.14</ele><time>2011-10-13T14:06:50Z</time></trkpt><trkpt lat="44.0391636640" lon="15.0546850730"><ele>0.14</ele><time>2011-10-13T14:07:25Z</time></trkpt><trkpt lat="44.0391635802" lon="15.0546915270"><ele>-0.34</ele><time>2011-10-13T14:08:00Z</time></trkpt><trkpt lat="44.0391650889" lon="15.0546895992"><ele>0.14</ele><time>2011-10-13T14:08:37Z</time></trkpt><trkpt lat="44.0391650889" lon="15.0546895992"><ele>0.14</ele><time>2011-10-13T14:09:11Z</time></trkpt><trkpt lat="44.0391678549" lon="15.0546916947"><ele>0.14</ele><time>2011-10-13T14:09:46Z</time></trkpt><trkpt lat="44.0391663462" lon="15.0546928681"><ele>0.62</ele><time>2011-10-13T14:10:21Z</time></trkpt><trkpt lat="44.0391698666" lon="15.0546872523"><ele>0.62</ele><time>2011-10-13T14:10:53Z</time></trkpt><trkpt lat="44.0391693637" lon="15.0546881743"><ele>0.62</ele><time>2011-10-13T14:11:26Z</time></trkpt><trkpt lat="44.0391658433" lon="15.0546831451"><ele>0.62</ele><time>2011-10-13T14:11:57Z</time></trkpt><trkpt lat="44.0391621552" lon="15.0546879228"><ele>1.10</ele><time>2011-10-13T14:12:36Z</time></trkpt><trkpt lat="44.0391621552" lon="15.0546879228"><ele>1.10</ele><time>2011-10-13T14:13:09Z</time></trkpt><trkpt lat="44.0391637478" lon="15.0546952989"><ele>1.10</ele><time>2011-10-13T14:13:41Z</time></trkpt><trkpt lat="44.0391582157" lon="15.0546890125"><ele>0.62</ele><time>2011-10-13T14:14:13Z</time></trkpt><trkpt lat="44.0391549468" lon="15.0546870846"><ele>1.10</ele><time>2011-10-13T14:14:48Z</time></trkpt><trkpt lat="44.0391629934" lon="15.0546877552"><ele>0.62</ele><time>2011-10-13T14:15:27Z</time></trkpt><trkpt lat="44.0391650889" lon="15.0546875875"><ele>0.62</ele><time>2011-10-13T14:15:59Z</time></trkpt><trkpt lat="44.0391650889" lon="15.0546875875"><ele>0.62</ele><time>2011-10-13T14:16:29Z</time></trkpt><trkpt lat="44.0391719621" lon="15.0546810497"><ele>0.62</ele><time>2011-10-13T14:17:03Z</time></trkpt><trkpt lat="44.0391689446" lon="15.0546825584"><ele>0.14</ele><time>2011-10-13T14:17:37Z</time></trkpt><trkpt lat="44.0391692799" lon="15.0546759367"><ele>0.14</ele><time>2011-10-13T14:18:11Z</time></trkpt><trkpt lat="44.0391708724" lon="15.0546801277"><ele>-0.34</ele><time>2011-10-13T14:18:44Z</time></trkpt><trkpt lat="44.0391736384" lon="15.0546796247"><ele>-0.82</ele><time>2011-10-13T14:19:15Z</time></trkpt><trkpt lat="44.0391736384" lon="15.0546796247"><ele>-0.82</ele><time>2011-10-13T14:19:44Z</time></trkpt><trkpt lat="44.0391706210" lon="15.0546866655"><ele>-0.82</ele><time>2011-10-13T14:20:19Z</time></trkpt><trkpt lat="44.0391660947" lon="15.0546784513"><ele>-1.79</ele><time>2011-10-13T14:20:52Z</time></trkpt><trkpt lat="44.0391645022" lon="15.0546787865"><ele>-1.79</ele><time>2011-10-13T14:21:24Z</time></trkpt><trkpt lat="44.0391647536" lon="15.0546826422"><ele>-2.27</ele><time>2011-10-13T14:21:59Z</time></trkpt><trkpt lat="44.0391647536" lon="15.0546826422"><ele>-2.27</ele><time>2011-10-13T14:22:33Z</time></trkpt><trkpt lat="44.0391709562" lon="15.0546834804"><ele>-1.79</ele><time>2011-10-13T14:23:03Z</time></trkpt><trkpt lat="44.0391645860" lon="15.0546746794"><ele>-2.27</ele><time>2011-10-13T14:23:37Z</time></trkpt><trkpt lat="44.0391578805" lon="15.0546683930"><ele>-1.30</ele><time>2011-10-13T14:24:11Z</time></trkpt><trkpt lat="44.0391557850" lon="15.0546693988"><ele>-1.79</ele><time>2011-10-13T14:24:44Z</time></trkpt><trkpt lat="44.0391557850" lon="15.0546693988"><ele>-1.79</ele><time>2011-10-13T14:25:10Z</time></trkpt><trkpt lat="44.0391551144" lon="15.0546719972"><ele>-1.79</ele><time>2011-10-13T14:25:40Z</time></trkpt><trkpt lat="44.0391563717" lon="15.0546697341"><ele>-2.27</ele><time>2011-10-13T14:26:10Z</time></trkpt><trkpt lat="44.0391562879" lon="15.0546734221"><ele>-1.79</ele><time>2011-10-13T14:26:39Z</time></trkpt><trkpt lat="44.0391562879" lon="15.0546734221"><ele>-1.79</ele><time>2011-10-13T14:27:00Z</time></trkpt><trkpt lat="44.0391572099" lon="15.0546710752"><ele>-2.27</ele><time>2011-10-13T14:27:27Z</time></trkpt><trkpt lat="44.0391572099" lon="15.0546710752"><ele>-2.27</ele><time>2011-10-13T14:27:50Z</time></trkpt><trkpt lat="44.0391583834" lon="15.0546684768"><ele>-1.79</ele><time>2011-10-13T14:28:19Z</time></trkpt><trkpt lat="44.0391612332" lon="15.0546718296"><ele>-1.30</ele><time>2011-10-13T14:28:49Z</time></trkpt><trkpt lat="44.0391588863" lon="15.0546634477"><ele>-1.30</ele><time>2011-10-13T14:29:23Z</time></trkpt><trkpt lat="44.0391537733" lon="15.0546610169"><ele>-1.30</ele><time>2011-10-13T14:29:55Z</time></trkpt><trkpt lat="44.0391537733" lon="15.0546610169"><ele>-1.30</ele><time>2011-10-13T14:30:29Z</time></trkpt><trkpt lat="44.0391507559" lon="15.0546577480"><ele>-2.27</ele><time>2011-10-13T14:30:55Z</time></trkpt><trkpt lat="44.0391528513" lon="15.0546648726"><ele>-1.79</ele><time>2011-10-13T14:31:27Z</time></trkpt><trkpt lat="44.0391529351" lon="15.0546599273"><ele>-1.79</ele><time>2011-10-13T14:32:01Z</time></trkpt><trkpt lat="44.0391486604" lon="15.0546614360"><ele>-2.27</ele><time>2011-10-13T14:32:35Z</time></trkpt><trkpt lat="44.0391432960" lon="15.0546649564"><ele>-1.79</ele><time>2011-10-13T14:33:14Z</time></trkpt><trkpt lat="44.0391432960" lon="15.0546649564"><ele>-1.79</ele><time>2011-10-13T14:33:51Z</time></trkpt><trkpt lat="44.0391367581" lon="15.0546583347"><ele>-1.79</ele><time>2011-10-13T14:34:27Z</time></trkpt><trkpt lat="44.0391328186" lon="15.0546633638"><ele>-1.79</ele><time>2011-10-13T14:35:02Z</time></trkpt><trkpt lat="44.0391328186" lon="15.0546672195"><ele>-2.27</ele><time>2011-10-13T14:35:33Z</time></trkpt><trkpt lat="44.0391384345" lon="15.0546681415"><ele>-2.27</ele><time>2011-10-13T14:36:09Z</time></trkpt><trkpt lat="44.0391370095" lon="15.0546634477"><ele>-2.75</ele><time>2011-10-13T14:36:44Z</time></trkpt><trkpt lat="44.0391356684" lon="15.0546673872"><ele>-2.27</ele><time>2011-10-13T14:37:20Z</time></trkpt><trkpt lat="44.0391356684" lon="15.0546673872"><ele>-2.27</ele><time>2011-10-13T14:37:50Z</time></trkpt><trkpt lat="44.0391421225" lon="15.0546713267"><ele>-2.27</ele><time>2011-10-13T14:38:20Z</time></trkpt><trkpt lat="44.0391344111" lon="15.0546658784"><ele>-2.27</ele><time>2011-10-13T14:38:51Z</time></trkpt><trkpt lat="44.0391376801" lon="15.0546657108"><ele>-2.75</ele><time>2011-10-13T14:39:19Z</time></trkpt><trkpt lat="44.0391376801" lon="15.0546657108"><ele>-2.75</ele><time>2011-10-13T14:39:50Z</time></trkpt><trkpt lat="44.0391344950" lon="15.0546680577"><ele>-2.27</ele><time>2011-10-13T14:40:20Z</time></trkpt><trkpt lat="44.0391401947" lon="15.0546645373"><ele>-3.23</ele><time>2011-10-13T14:40:44Z</time></trkpt><trkpt lat="44.0391401947" lon="15.0546645373"><ele>-3.23</ele><time>2011-10-13T14:41:12Z</time></trkpt><trkpt lat="44.0391368419" lon="15.0546590053"><ele>-3.23</ele><time>2011-10-13T14:41:42Z</time></trkpt><trkpt lat="44.0391399432" lon="15.0546551496"><ele>-3.23</ele><time>2011-10-13T14:42:14Z</time></trkpt><trkpt lat="44.0391440503" lon="15.0546548981"><ele>-3.71</ele><time>2011-10-13T14:42:38Z</time></trkpt><trkpt lat="44.0391440503" lon="15.0546548981"><ele>-3.71</ele><time>2011-10-13T14:43:10Z</time></trkpt><trkpt lat="44.0391417872" lon="15.0546564069"><ele>-3.71</ele><time>2011-10-13T14:43:38Z</time></trkpt><trkpt lat="44.0391438827" lon="15.0546563230"><ele>-3.71</ele><time>2011-10-13T14:44:06Z</time></trkpt><trkpt lat="44.0391425416" lon="15.0546593405"><ele>-4.19</ele><time>2011-10-13T14:44:37Z</time></trkpt><trkpt lat="44.0391425416" lon="15.0546593405"><ele>-4.19</ele><time>2011-10-13T14:45:05Z</time></trkpt><trkpt lat="44.0391408652" lon="15.0546601787"><ele>-3.23</ele><time>2011-10-13T14:45:37Z</time></trkpt><trkpt lat="44.0391439665" lon="15.0546624418"><ele>-3.23</ele><time>2011-10-13T14:46:05Z</time></trkpt><trkpt lat="44.0391439665" lon="15.0546624418"><ele>-3.23</ele><time>2011-10-13T14:46:33Z</time></trkpt><trkpt lat="44.0391405299" lon="15.0546595920"><ele>-2.75</ele><time>2011-10-13T14:47:06Z</time></trkpt><trkpt lat="44.0391449723" lon="15.0546611007"><ele>-2.27</ele><time>2011-10-13T14:47:38Z</time></trkpt><trkpt lat="44.0391452238" lon="15.0546633638"><ele>-2.27</ele><time>2011-10-13T14:48:07Z</time></trkpt><trkpt lat="44.0391437989" lon="15.0546629447"><ele>-1.79</ele><time>2011-10-13T14:48:43Z</time></trkpt><trkpt lat="44.0391437989" lon="15.0546629447"><ele>-1.79</ele><time>2011-10-13T14:49:13Z</time></trkpt><trkpt lat="44.0391451400" lon="15.0546657946"><ele>-2.27</ele><time>2011-10-13T14:49:46Z</time></trkpt><trkpt lat="44.0391487442" lon="15.0546626095"><ele>-1.79</ele><time>2011-10-13T14:50:21Z</time></trkpt><trkpt lat="44.0391472355" lon="15.0546599273"><ele>-1.79</ele><time>2011-10-13T14:50:52Z</time></trkpt><trkpt lat="44.0391509235" lon="15.0546560716"><ele>-1.30</ele><time>2011-10-13T14:51:29Z</time></trkpt><trkpt lat="44.0391534381" lon="15.0546569098"><ele>-1.30</ele><time>2011-10-13T14:52:01Z</time></trkpt><trkpt lat="44.0391560365" lon="15.0546575803"><ele>-1.30</ele><time>2011-10-13T14:52:36Z</time></trkpt><trkpt lat="44.0391560365" lon="15.0546575803"><ele>-1.30</ele><time>2011-10-13T14:53:11Z</time></trkpt><trkpt lat="44.0391515102" lon="15.0546518806"><ele>-0.82</ele><time>2011-10-13T14:53:50Z</time></trkpt><trkpt lat="44.0391527675" lon="15.0546520483"><ele>-0.82</ele><time>2011-10-13T14:54:26Z</time></trkpt><trkpt lat="44.0391553659" lon="15.0546512101"><ele>-0.34</ele><time>2011-10-13T14:55:00Z</time></trkpt><trkpt lat="44.0391543601" lon="15.0546538085"><ele>-0.34</ele><time>2011-10-13T14:55:38Z</time></trkpt><trkpt lat="44.0391460620" lon="15.0546478573"><ele>-0.34</ele><time>2011-10-13T14:56:14Z</time></trkpt><trkpt lat="44.0391479060" lon="15.0546488632"><ele>-0.82</ele><time>2011-10-13T14:56:47Z</time></trkpt><trkpt lat="44.0391492471" lon="15.0546521321"><ele>-0.82</ele><time>2011-10-13T14:57:15Z</time></trkpt><trkpt lat="44.0391492471" lon="15.0546521321"><ele>-0.82</ele><time>2011-10-13T14:57:48Z</time></trkpt><trkpt lat="44.0391469002" lon="15.0546543952"><ele>-0.82</ele><time>2011-10-13T14:58:18Z</time></trkpt><trkpt lat="44.0391475707" lon="15.0546531379"><ele>-0.34</ele><time>2011-10-13T14:58:49Z</time></trkpt><trkpt lat="44.0391494147" lon="15.0546581671"><ele>-0.82</ele><time>2011-10-13T14:59:23Z</time></trkpt><trkpt lat="44.0391494147" lon="15.0546581671"><ele>-0.82</ele><time>2011-10-13T14:59:52Z</time></trkpt><trkpt lat="44.0391493309" lon="15.0546595920"><ele>-1.30</ele><time>2011-10-13T15:00:26Z</time></trkpt><trkpt lat="44.0391494986" lon="15.0546553172"><ele>-1.30</ele><time>2011-10-13T15:00:57Z</time></trkpt><trkpt lat="44.0391588025" lon="15.0546500366"><ele>-1.30</ele><time>2011-10-13T15:01:31Z</time></trkpt><trkpt lat="44.0391568746" lon="15.0546533056"><ele>-1.79</ele><time>2011-10-13T15:02:01Z</time></trkpt><trkpt lat="44.0391554497" lon="15.0546596758"><ele>-1.79</ele><time>2011-10-13T15:02:39Z</time></trkpt><trkpt lat="44.0391531866" lon="15.0546535570"><ele>-1.30</ele><time>2011-10-13T15:03:14Z</time></trkpt><trkpt lat="44.0391531866" lon="15.0546535570"><ele>-1.30</ele><time>2011-10-13T15:03:49Z</time></trkpt><trkpt lat="44.0391517617" lon="15.0546554010"><ele>-0.82</ele><time>2011-10-13T15:04:20Z</time></trkpt><trkpt lat="44.0391510073" lon="15.0546590891"><ele>-1.30</ele><time>2011-10-13T15:04:55Z</time></trkpt><trkpt lat="44.0391506720" lon="15.0546528865"><ele>-1.30</ele><time>2011-10-13T15:05:27Z</time></trkpt><trkpt lat="44.0391506720" lon="15.0546528865"><ele>-1.30</ele><time>2011-10-13T15:05:53Z</time></trkpt><trkpt lat="44.0391538572" lon="15.0546567421"><ele>-1.79</ele><time>2011-10-13T15:06:24Z</time></trkpt><trkpt lat="44.0391524322" lon="15.0546554010"><ele>-1.79</ele><time>2011-10-13T15:06:58Z</time></trkpt><trkpt lat="44.0391515940" lon="15.0546559878"><ele>-2.27</ele><time>2011-10-13T15:07:25Z</time></trkpt><trkpt lat="44.0391504206" lon="15.0546620227"><ele>-2.27</ele><time>2011-10-13T15:07:58Z</time></trkpt><trkpt lat="44.0391504206" lon="15.0546620227"><ele>-2.27</ele><time>2011-10-13T15:08:33Z</time></trkpt><trkpt lat="44.0391501691" lon="15.0546659622"><ele>-1.79</ele><time>2011-10-13T15:09:06Z</time></trkpt><trkpt lat="44.0391534381" lon="15.0546637829"><ele>-1.30</ele><time>2011-10-13T15:09:38Z</time></trkpt><trkpt lat="44.0391522646" lon="15.0546652079"><ele>-1.79</ele><time>2011-10-13T15:10:07Z</time></trkpt><trkpt lat="44.0391498338" lon="15.0546660461"><ele>-1.79</ele><time>2011-10-13T15:10:44Z</time></trkpt><trkpt lat="44.0391466487" lon="15.0546647049"><ele>-2.27</ele><time>2011-10-13T15:11:18Z</time></trkpt><trkpt lat="44.0391466487" lon="15.0546647049"><ele>-2.27</ele><time>2011-10-13T15:11:49Z</time></trkpt><trkpt lat="44.0391427092" lon="15.0546680577"><ele>-2.27</ele><time>2011-10-13T15:12:18Z</time></trkpt><trkpt lat="44.0391447209" lon="15.0546652917"><ele>-1.79</ele><time>2011-10-13T15:12:51Z</time></trkpt><trkpt lat="44.0391443018" lon="15.0546677224"><ele>-1.30</ele><time>2011-10-13T15:13:26Z</time></trkpt><trkpt lat="44.0391451400" lon="15.0546661299"><ele>-0.82</ele><time>2011-10-13T15:14:03Z</time></trkpt><trkpt lat="44.0391451400" lon="15.0546661299"><ele>-0.82</ele><time>2011-10-13T15:14:31Z</time></trkpt><trkpt lat="44.0391484927" lon="15.0546612684"><ele>-0.82</ele><time>2011-10-13T15:15:00Z</time></trkpt><trkpt lat="44.0391452238" lon="15.0546678901"><ele>-0.82</ele><time>2011-10-13T15:15:31Z</time></trkpt><trkpt lat="44.0391461458" lon="15.0546690635"><ele>-0.34</ele><time>2011-10-13T15:16:05Z</time></trkpt><trkpt lat="44.0391463973" lon="15.0546716619"><ele>-0.34</ele><time>2011-10-13T15:16:36Z</time></trkpt><trkpt lat="44.0391463973" lon="15.0546716619"><ele>-0.34</ele><time>2011-10-13T15:17:07Z</time></trkpt><trkpt lat="44.0391459782" lon="15.0546697341"><ele>-0.82</ele><time>2011-10-13T15:17:34Z</time></trkpt><trkpt lat="44.0391462296" lon="15.0546794571"><ele>-1.30</ele><time>2011-10-13T15:18:06Z</time></trkpt><trkpt lat="44.0391470678" lon="15.0546792895"><ele>-1.79</ele><time>2011-10-13T15:18:35Z</time></trkpt><trkpt lat="44.0391470678" lon="15.0546792895"><ele>-1.79</ele><time>2011-10-13T15:19:11Z</time></trkpt><trkpt lat="44.0391521808" lon="15.0546776969"><ele>-2.27</ele><time>2011-10-13T15:19:42Z</time></trkpt><trkpt lat="44.0391535219" lon="15.0546797924"><ele>-1.30</ele><time>2011-10-13T15:20:20Z</time></trkpt><trkpt lat="44.0391510911" lon="15.0546745118"><ele>-1.30</ele><time>2011-10-13T15:20:58Z</time></trkpt><trkpt lat="44.0391571261" lon="15.0546820555"><ele>-0.82</ele><time>2011-10-13T15:21:28Z</time></trkpt><trkpt lat="44.0391551983" lon="15.0546764396"><ele>-0.82</ele><time>2011-10-13T15:22:01Z</time></trkpt><trkpt lat="44.0391518455" lon="15.0546756852"><ele>-0.82</ele><time>2011-10-13T15:22:34Z</time></trkpt><trkpt lat="44.0391518455" lon="15.0546756852"><ele>-0.82</ele><time>2011-10-13T15:23:10Z</time></trkpt><trkpt lat="44.0391520131" lon="15.0546761043"><ele>-0.34</ele><time>2011-10-13T15:23:43Z</time></trkpt><trkpt lat="44.0391496662" lon="15.0546776969"><ele>-0.82</ele><time>2011-10-13T15:24:15Z</time></trkpt><trkpt lat="44.0391538572" lon="15.0546761043"><ele>-0.82</ele><time>2011-10-13T15:24:50Z</time></trkpt><trkpt lat="44.0391551144" lon="15.0546710752"><ele>-0.82</ele><time>2011-10-13T15:25:20Z</time></trkpt><trkpt lat="44.0391551144" lon="15.0546710752"><ele>-0.82</ele><time>2011-10-13T15:25:51Z</time></trkpt><trkpt lat="44.0391469840" lon="15.0546662137"><ele>0.14</ele><time>2011-10-13T15:26:31Z</time></trkpt><trkpt lat="44.0391546953" lon="15.0546779484"><ele>-0.34</ele><time>2011-10-13T15:27:02Z</time></trkpt><trkpt lat="44.0391618200" lon="15.0546813011"><ele>-1.79</ele><time>2011-10-13T15:27:37Z</time></trkpt><trkpt lat="44.0391629096" lon="15.0546813849"><ele>-2.27</ele><time>2011-10-13T15:28:10Z</time></trkpt><trkpt lat="44.0391595569" lon="15.0546797924"><ele>-1.79</ele><time>2011-10-13T15:28:45Z</time></trkpt><trkpt lat="44.0391621552" lon="15.0546764396"><ele>-1.79</ele><time>2011-10-13T15:29:23Z</time></trkpt><trkpt lat="44.0391606465" lon="15.0546704046"><ele>-1.30</ele><time>2011-10-13T15:29:56Z</time></trkpt><trkpt lat="44.0391606465" lon="15.0546704046"><ele>-1.30</ele><time>2011-10-13T15:30:29Z</time></trkpt><trkpt lat="44.0391603112" lon="15.0546706561"><ele>-1.30</ele><time>2011-10-13T15:31:01Z</time></trkpt><trkpt lat="44.0391612332" lon="15.0546701532"><ele>-1.30</ele><time>2011-10-13T15:31:34Z</time></trkpt><trkpt lat="44.0391603112" lon="15.0546740927"><ele>-1.30</ele><time>2011-10-13T15:32:08Z</time></trkpt><trkpt lat="44.0391616523" lon="15.0546681415"><ele>-0.82</ele><time>2011-10-13T15:32:38Z</time></trkpt><trkpt lat="44.0391582157" lon="15.0546603464"><ele>-0.82</ele><time>2011-10-13T15:33:16Z</time></trkpt><trkpt lat="44.0391582157" lon="15.0546603464"><ele>-0.82</ele><time>2011-10-13T15:33:49Z</time></trkpt><trkpt lat="44.0391589701" lon="15.0546674710"><ele>-0.34</ele><time>2011-10-13T15:34:21Z</time></trkpt><trkpt lat="44.0391588025" lon="15.0546676386"><ele>-0.34</ele><time>2011-10-13T15:34:57Z</time></trkpt><trkpt lat="44.0391577128" lon="15.0546626095"><ele>-0.82</ele><time>2011-10-13T15:35:32Z</time></trkpt><trkpt lat="44.0391527675" lon="15.0546645373"><ele>-0.34</ele><time>2011-10-13T15:36:06Z</time></trkpt><trkpt lat="44.0391598083" lon="15.0546663813"><ele>-0.82</ele><time>2011-10-13T15:36:46Z</time></trkpt><trkpt lat="44.0391587187" lon="15.0546597596"><ele>-0.82</ele><time>2011-10-13T15:37:25Z</time></trkpt><trkpt lat="44.0391616523" lon="15.0546632800"><ele>-0.82</ele><time>2011-10-13T15:37:56Z</time></trkpt><trkpt lat="44.0391616523" lon="15.0546632800"><ele>-0.82</ele><time>2011-10-13T15:38:33Z</time></trkpt><trkpt lat="44.0391538572" lon="15.0546638668"><ele>-0.34</ele><time>2011-10-13T15:39:09Z</time></trkpt><trkpt lat="44.0391548630" lon="15.0546678063"><ele>0.62</ele><time>2011-10-13T15:39:51Z</time></trkpt><trkpt lat="44.0391502529" lon="15.0546722487"><ele>0.14</ele><time>2011-10-13T15:40:25Z</time></trkpt><trkpt lat="44.0391481575" lon="15.0546724163"><ele>-0.34</ele><time>2011-10-13T15:41:03Z</time></trkpt><trkpt lat="44.0391533542" lon="15.0546712428"><ele>-0.34</ele><time>2011-10-13T15:41:38Z</time></trkpt><trkpt lat="44.0391542763" lon="15.0546720810"><ele>-0.34</ele><time>2011-10-13T15:42:15Z</time></trkpt><trkpt lat="44.0391562879" lon="15.0546700694"><ele>-0.34</ele><time>2011-10-13T15:42:54Z</time></trkpt><trkpt lat="44.0391547792" lon="15.0546753500"><ele>-0.34</ele><time>2011-10-13T15:43:32Z</time></trkpt><trkpt lat="44.0391519293" lon="15.0546833966"><ele>-0.34</ele><time>2011-10-13T15:44:08Z</time></trkpt><trkpt lat="44.0391484927" lon="15.0546882581"><ele>-0.34</ele><time>2011-10-13T15:44:41Z</time></trkpt><trkpt lat="44.0391484927" lon="15.0546869170"><ele>-0.34</ele><time>2011-10-13T15:45:14Z</time></trkpt><trkpt lat="44.0391458105" lon="15.0546797086"><ele>-0.34</ele><time>2011-10-13T15:45:54Z</time></trkpt><trkpt lat="44.0391458105" lon="15.0546797086"><ele>-0.34</ele><time>2011-10-13T15:46:26Z</time></trkpt><trkpt lat="44.0391442180" lon="15.0546790380"><ele>-0.34</ele><time>2011-10-13T15:47:03Z</time></trkpt><trkpt lat="44.0391546953" lon="15.0546839833"><ele>-1.30</ele><time>2011-10-13T15:47:40Z</time></trkpt><trkpt lat="44.0391554497" lon="15.0546799600"><ele>-0.82</ele><time>2011-10-13T15:48:12Z</time></trkpt><trkpt lat="44.0391551983" lon="15.0546760205"><ele>-0.82</ele><time>2011-10-13T15:48:43Z</time></trkpt><trkpt lat="44.0391549468" lon="15.0546775293"><ele>-0.82</ele><time>2011-10-13T15:49:17Z</time></trkpt><trkpt lat="44.0391538572" lon="15.0546747632"><ele>-0.34</ele><time>2011-10-13T15:49:55Z</time></trkpt><trkpt lat="44.0391538572" lon="15.0546747632"><ele>-0.34</ele><time>2011-10-13T15:50:25Z</time></trkpt><trkpt lat="44.0391619876" lon="15.0546644535"><ele>0.62</ele><time>2011-10-13T15:51:00Z</time></trkpt><trkpt lat="44.0391553659" lon="15.0546668842"><ele>0.62</ele><time>2011-10-13T15:51:32Z</time></trkpt><trkpt lat="44.0391539410" lon="15.0546704046"><ele>0.14</ele><time>2011-10-13T15:52:05Z</time></trkpt><trkpt lat="44.0391560365" lon="15.0546637829"><ele>0.14</ele><time>2011-10-13T15:52:42Z</time></trkpt><trkpt lat="44.0391560365" lon="15.0546637829"><ele>0.14</ele><time>2011-10-13T15:53:11Z</time></trkpt><trkpt lat="44.0391587187" lon="15.0546582509"><ele>0.14</ele><time>2011-10-13T15:53:41Z</time></trkpt><trkpt lat="44.0391572099" lon="15.0546606816"><ele>-0.34</ele><time>2011-10-13T15:54:10Z</time></trkpt><trkpt lat="44.0391541924" lon="15.0546600111"><ele>0.14</ele><time>2011-10-13T15:54:34Z</time></trkpt><trkpt lat="44.0391541924" lon="15.0546600111"><ele>0.14</ele><time>2011-10-13T15:55:04Z</time></trkpt><trkpt lat="44.0391520131" lon="15.0546626933"><ele>0.62</ele><time>2011-10-13T15:55:31Z</time></trkpt><trkpt lat="44.0391562041" lon="15.0546681415"><ele>0.14</ele><time>2011-10-13T15:55:59Z</time></trkpt><trkpt lat="44.0391562041" lon="15.0546681415"><ele>0.14</ele><time>2011-10-13T15:56:26Z</time></trkpt><trkpt lat="44.0391554497" lon="15.0546674710"><ele>0.14</ele><time>2011-10-13T15:56:57Z</time></trkpt><trkpt lat="44.0391557850" lon="15.0546687283"><ele>0.14</ele><time>2011-10-13T15:57:25Z</time></trkpt><trkpt lat="44.0391551144" lon="15.0546657946"><ele>0.62</ele><time>2011-10-13T15:57:57Z</time></trkpt><trkpt lat="44.0391551144" lon="15.0546657946"><ele>0.62</ele><time>2011-10-13T15:58:25Z</time></trkpt><trkpt lat="44.0391570423" lon="15.0546695665"><ele>0.62</ele><time>2011-10-13T15:58:51Z</time></trkpt><trkpt lat="44.0391558688" lon="15.0546714943"><ele>1.10</ele><time>2011-10-13T15:59:16Z</time></trkpt><trkpt lat="44.0391558688" lon="15.0546714943"><ele>1.10</ele><time>2011-10-13T15:59:42Z</time></trkpt><trkpt lat="44.0391536895" lon="15.0546737574"><ele>0.62</ele><time>2011-10-13T16:00:07Z</time></trkpt><trkpt lat="44.0391531028" lon="15.0546662137"><ele>0.62</ele><time>2011-10-13T16:00:34Z</time></trkpt><trkpt lat="44.0391531028" lon="15.0546662137"><ele>0.62</ele><time>2011-10-13T16:00:54Z</time></trkpt><trkpt lat="44.0391536895" lon="15.0546670519"><ele>0.62</ele><time>2011-10-13T16:01:16Z</time></trkpt><trkpt lat="44.0391520131" lon="15.0546667166"><ele>0.62</ele><time>2011-10-13T16:01:41Z</time></trkpt><trkpt lat="44.0391520131" lon="15.0546667166"><ele>0.62</ele><time>2011-10-13T16:02:08Z</time></trkpt><trkpt lat="44.0391508397" lon="15.0546668004"><ele>0.62</ele><time>2011-10-13T16:02:33Z</time></trkpt><trkpt lat="44.0391500015" lon="15.0546621904"><ele>1.10</ele><time>2011-10-13T16:02:53Z</time></trkpt><trkpt lat="44.0391500015" lon="15.0546621904"><ele>1.10</ele><time>2011-10-13T16:03:16Z</time></trkpt><trkpt lat="44.0391540248" lon="15.0546611845"><ele>0.62</ele><time>2011-10-13T16:03:46Z</time></trkpt><trkpt lat="44.0391520131" lon="15.0546643697"><ele>0.62</ele><time>2011-10-13T16:04:15Z</time></trkpt><trkpt lat="44.0391545277" lon="15.0546588376"><ele>1.10</ele><time>2011-10-13T16:04:35Z</time></trkpt><trkpt lat="44.0391545277" lon="15.0546588376"><ele>1.10</ele><time>2011-10-13T16:05:00Z</time></trkpt><trkpt lat="44.0391503368" lon="15.0546668842"><ele>1.58</ele><time>2011-10-13T16:05:23Z</time></trkpt><trkpt lat="44.0391503368" lon="15.0546668842"><ele>1.58</ele><time>2011-10-13T16:05:43Z</time></trkpt><trkpt lat="44.0391525161" lon="15.0546719972"><ele>1.58</ele><time>2011-10-13T16:06:04Z</time></trkpt><trkpt lat="44.0391525161" lon="15.0546719972"><ele>1.58</ele><time>2011-10-13T16:06:27Z</time></trkpt><trkpt lat="44.0391508397" lon="15.0546723325"><ele>2.06</ele><time>2011-10-13T16:07:00Z</time></trkpt><trkpt lat="44.0391545277" lon="15.0546718296"><ele>2.54</ele><time>2011-10-13T16:07:30Z</time></trkpt><trkpt lat="44.0391523484" lon="15.0546725001"><ele>3.02</ele><time>2011-10-13T16:08:02Z</time></trkpt><trkpt lat="44.0391523484" lon="15.0546725001"><ele>3.02</ele><time>2011-10-13T16:08:28Z</time></trkpt><trkpt lat="44.0391531028" lon="15.0546702370"><ele>2.54</ele><time>2011-10-13T16:08:59Z</time></trkpt><trkpt lat="44.0391540248" lon="15.0546691474"><ele>3.02</ele><time>2011-10-13T16:09:24Z</time></trkpt><trkpt lat="44.0391540248" lon="15.0546691474"><ele>3.02</ele><time>2011-10-13T16:09:55Z</time></trkpt><trkpt lat="44.0391568746" lon="15.0546729192"><ele>3.02</ele><time>2011-10-13T16:10:24Z</time></trkpt><trkpt lat="44.0391546953" lon="15.0546784513"><ele>3.50</ele><time>2011-10-13T16:10:48Z</time></trkpt><trkpt lat="44.0391546953" lon="15.0546784513"><ele>3.50</ele><time>2011-10-13T16:11:16Z</time></trkpt><trkpt lat="44.0391567908" lon="15.0546720810"><ele>3.02</ele><time>2011-10-13T16:11:45Z</time></trkpt><trkpt lat="44.0391543601" lon="15.0546707399"><ele>3.50</ele><time>2011-10-13T16:12:08Z</time></trkpt><trkpt lat="44.0391543601" lon="15.0546707399"><ele>3.50</ele><time>2011-10-13T16:12:36Z</time></trkpt><trkpt lat="44.0391551144" lon="15.0546631962"><ele>3.02</ele><time>2011-10-13T16:13:02Z</time></trkpt><trkpt lat="44.0391546953" lon="15.0546665490"><ele>3.50</ele><time>2011-10-13T16:13:33Z</time></trkpt><trkpt lat="44.0391531866" lon="15.0546652917"><ele>3.02</ele><time>2011-10-13T16:13:59Z</time></trkpt><trkpt lat="44.0391531866" lon="15.0546652917"><ele>3.02</ele><time>2011-10-13T16:14:25Z</time></trkpt><trkpt lat="44.0391580481" lon="15.0546678063"><ele>2.06</ele><time>2011-10-13T16:14:59Z</time></trkpt><trkpt lat="44.0391622391" lon="15.0546749309"><ele>1.58</ele><time>2011-10-13T16:15:30Z</time></trkpt><trkpt lat="44.0391582157" lon="15.0546732545"><ele>1.58</ele><time>2011-10-13T16:16:04Z</time></trkpt><trkpt lat="44.0391567070" lon="15.0546716619"><ele>1.58</ele><time>2011-10-13T16:16:39Z</time></trkpt><trkpt lat="44.0391567070" lon="15.0546716619"><ele>1.58</ele><time>2011-10-13T16:17:11Z</time></trkpt><trkpt lat="44.0391577967" lon="15.0546738412"><ele>2.06</ele><time>2011-10-13T16:17:44Z</time></trkpt><trkpt lat="44.0391577967" lon="15.0546674710"><ele>1.58</ele><time>2011-10-13T16:18:15Z</time></trkpt><trkpt lat="44.0391514264" lon="15.0546689797"><ele>1.58</ele><time>2011-10-13T16:18:45Z</time></trkpt><trkpt lat="44.0358414967" lon="15.0536858663"><ele>4.46</ele><time>2011-10-14T06:05:57Z</time></trkpt><trkpt lat="44.0358246490" lon="15.0536708627"><ele>4.46</ele><time>2011-10-14T06:05:58Z</time></trkpt><trkpt lat="44.0354194678" lon="15.0533883926"><ele>4.46</ele><time>2011-10-14T06:06:17Z</time></trkpt><trkpt lat="44.0349722095" lon="15.0531479158"><ele>-0.82</ele><time>2011-10-14T06:06:38Z</time></trkpt><trkpt lat="44.0344038326" lon="15.0532111991"><ele>-1.30</ele><time>2011-10-14T06:07:02Z</time></trkpt><trkpt lat="44.0337220486" lon="15.0533687789"><ele>0.62</ele><time>2011-10-14T06:07:30Z</time></trkpt><trkpt lat="44.0330904722" lon="15.0534722954"><ele>0.14</ele><time>2011-10-14T06:07:56Z</time></trkpt><trkpt lat="44.0324383602" lon="15.0534740556"><ele>-0.34</ele><time>2011-10-14T06:08:23Z</time></trkpt><trkpt lat="44.0318341926" lon="15.0533106923"><ele>1.58</ele><time>2011-10-14T06:08:48Z</time></trkpt><trkpt lat="44.0312614571" lon="15.0531107839"><ele>2.06</ele><time>2011-10-14T06:09:12Z</time></trkpt><trkpt lat="44.0306028072" lon="15.0528457481"><ele>1.58</ele><time>2011-10-14T06:09:40Z</time></trkpt><trkpt lat="44.0300311614" lon="15.0525688939"><ele>0.62</ele><time>2011-10-14T06:10:04Z</time></trkpt><trkpt lat="44.0293888561" lon="15.0523104798"><ele>1.58</ele><time>2011-10-14T06:10:31Z</time></trkpt><trkpt lat="44.0287433658" lon="15.0520573463"><ele>1.58</ele><time>2011-10-14T06:10:58Z</time></trkpt><trkpt lat="44.0281850472" lon="15.0518511515"><ele>0.62</ele><time>2011-10-14T06:11:21Z</time></trkpt><trkpt lat="44.0274366271" lon="15.0517729484"><ele>2.06</ele><time>2011-10-14T06:11:51Z</time></trkpt><trkpt lat="44.0267227404" lon="15.0517457910"><ele>1.10</ele><time>2011-10-14T06:12:20Z</time></trkpt><trkpt lat="44.0259732306" lon="15.0517299492"><ele>1.58</ele><time>2011-10-14T06:12:50Z</time></trkpt><trkpt lat="44.0253346134" lon="15.0518026203"><ele>2.54</ele><time>2011-10-14T06:13:16Z</time></trkpt><trkpt lat="44.0245663282" lon="15.0519701745"><ele>3.98</ele><time>2011-10-14T06:13:48Z</time></trkpt><trkpt lat="44.0238503460" lon="15.0521744415"><ele>3.02</ele><time>2011-10-14T06:14:18Z</time></trkpt><trkpt lat="44.0233698953" lon="15.0524187740"><ele>1.10</ele><time>2011-10-14T06:14:40Z</time></trkpt><trkpt lat="44.0229818132" lon="15.0527629349"><ele>0.62</ele><time>2011-10-14T06:15:01Z</time></trkpt><trkpt lat="44.0225205570" lon="15.0532026496"><ele>0.62</ele><time>2011-10-14T06:15:27Z</time></trkpt><trkpt lat="44.0221549384" lon="15.0537872873"><ele>0.62</ele><time>2011-10-14T06:15:53Z</time></trkpt><trkpt lat="44.0218525194" lon="15.0544644613"><ele>0.62</ele><time>2011-10-14T06:16:19Z</time></trkpt><trkpt lat="44.0217790101" lon="15.0552355126"><ele>1.58</ele><time>2011-10-14T06:16:45Z</time></trkpt><trkpt lat="44.0218040720" lon="15.0559496507"><ele>1.58</ele><time>2011-10-14T06:17:11Z</time></trkpt><trkpt lat="44.0219145454" lon="15.0567018427"><ele>3.02</ele><time>2011-10-14T06:17:39Z</time></trkpt><trkpt lat="44.0220780764" lon="15.0573077705"><ele>1.58</ele><time>2011-10-14T06:18:04Z</time></trkpt><trkpt lat="44.0222622268" lon="15.0578878820"><ele>2.06</ele><time>2011-10-14T06:18:31Z</time></trkpt><trkpt lat="44.0224078204" lon="15.0583695062"><ele>2.06</ele><time>2011-10-14T06:18:56Z</time></trkpt><trkpt lat="44.0226259176" lon="15.0587570854"><ele>1.10</ele><time>2011-10-14T06:19:22Z</time></trkpt><trkpt lat="44.0228640474" lon="15.0589714944"><ele>0.14</ele><time>2011-10-14T06:19:47Z</time></trkpt><trkpt lat="44.0230754390" lon="15.0591759291"><ele>-0.82</ele><time>2011-10-14T06:20:20Z</time></trkpt><trkpt lat="44.0231937077" lon="15.0592810381"><ele>0.62</ele><time>2011-10-14T06:20:45Z</time></trkpt><trkpt lat="44.0233053546" lon="15.0592373684"><ele>2.06</ele><time>2011-10-14T06:21:12Z</time></trkpt><trkpt lat="44.0233257227" lon="15.0591937825"><ele>2.54</ele><time>2011-10-14T06:21:40Z</time></trkpt><trkpt lat="44.0232502855" lon="15.0590090454"><ele>1.10</ele><time>2011-10-14T06:22:04Z</time></trkpt><trkpt lat="44.0231620241" lon="15.0588035211"><ele>2.54</ele><time>2011-10-14T06:22:33Z</time></trkpt><trkpt lat="44.0231532231" lon="15.0588177703"><ele>2.54</ele><time>2011-10-14T06:23:04Z</time></trkpt><trkpt lat="44.0231446736" lon="15.0589925330"><ele>3.02</ele><time>2011-10-14T06:23:33Z</time></trkpt><trkpt lat="44.0231742617" lon="15.0591479335"><ele>3.02</ele><time>2011-10-14T06:24:01Z</time></trkpt><trkpt lat="44.0231517982" lon="15.0593001489"><ele>3.02</ele><time>2011-10-14T06:24:24Z</time></trkpt><trkpt lat="44.0230656322" lon="15.0594170764"><ele>4.94</ele><time>2011-10-14T06:24:56Z</time></trkpt><trkpt lat="44.0230623633" lon="15.0594158191"><ele>4.94</ele><time>2011-10-14T06:25:25Z</time></trkpt><trkpt lat="44.0230620280" lon="15.0594179984"><ele>4.94</ele><time>2011-10-14T06:25:54Z</time></trkpt><trkpt lat="44.0230608545" lon="15.0594205130"><ele>4.46</ele><time>2011-10-14T06:26:23Z</time></trkpt><trkpt lat="44.0230608545" lon="15.0594205130"><ele>4.46</ele><time>2011-10-14T06:26:52Z</time></trkpt><trkpt lat="44.0230544005" lon="15.0594201777"><ele>4.94</ele><time>2011-10-14T06:27:20Z</time></trkpt><trkpt lat="44.0230545681" lon="15.0594210997"><ele>4.94</ele><time>2011-10-14T06:27:47Z</time></trkpt><trkpt lat="44.0230545681" lon="15.0594210997"><ele>4.94</ele><time>2011-10-14T06:28:17Z</time></trkpt><trkpt lat="44.0230550710" lon="15.0594220217"><ele>4.46</ele><time>2011-10-14T06:28:44Z</time></trkpt><trkpt lat="44.0230585914" lon="15.0594223570"><ele>3.98</ele><time>2011-10-14T06:29:21Z</time></trkpt><trkpt lat="44.0230543166" lon="15.0594213512"><ele>2.54</ele><time>2011-10-14T06:29:52Z</time></trkpt><trkpt lat="44.0230548196" lon="15.0594187528"><ele>2.54</ele><time>2011-10-14T06:30:24Z</time></trkpt><trkpt lat="44.0230548196" lon="15.0594187528"><ele>2.54</ele><time>2011-10-14T06:30:55Z</time></trkpt><trkpt lat="44.0230528079" lon="15.0594227761"><ele>2.54</ele><time>2011-10-14T06:31:20Z</time></trkpt><trkpt lat="44.0230776183" lon="15.0593392923"><ele>2.06</ele><time>2011-10-14T06:31:44Z</time></trkpt><trkpt lat="44.0230901912" lon="15.0591836404"><ele>1.58</ele><time>2011-10-14T06:32:09Z</time></trkpt><trkpt lat="44.0230319370" lon="15.0589968078"><ele>2.54</ele><time>2011-10-14T06:32:34Z</time></trkpt><trkpt lat="44.0227902867" lon="15.0585825741"><ele>3.98</ele><time>2011-10-14T06:33:00Z</time></trkpt><trkpt lat="44.0225052182" lon="15.0581100862"><ele>4.46</ele><time>2011-10-14T06:33:23Z</time></trkpt><trkpt lat="44.0222648252" lon="15.0573121291"><ele>3.50</ele><time>2011-10-14T06:33:51Z</time></trkpt><trkpt lat="44.0221385099" lon="15.0565908663"><ele>3.50</ele><time>2011-10-14T06:34:14Z</time></trkpt><trkpt lat="44.0220448002" lon="15.0558322202"><ele>3.50</ele><time>2011-10-14T06:34:38Z</time></trkpt><trkpt lat="44.0219918266" lon="15.0549614243"><ele>2.06</ele><time>2011-10-14T06:35:04Z</time></trkpt><trkpt lat="44.0221158788" lon="15.0542095676"><ele>2.54</ele><time>2011-10-14T06:35:27Z</time></trkpt><trkpt lat="44.0224764682" lon="15.0535665080"><ele>2.54</ele><time>2011-10-14T06:35:50Z</time></trkpt><trkpt lat="44.0230004210" lon="15.0530920085"><ele>2.54</ele><time>2011-10-14T06:36:15Z</time></trkpt><trkpt lat="44.0236111265" lon="15.0528639369"><ele>2.54</ele><time>2011-10-14T06:36:41Z</time></trkpt><trkpt lat="44.0241150465" lon="15.0528003182"><ele>2.06</ele><time>2011-10-14T06:37:02Z</time></trkpt><trkpt lat="44.0246656537" lon="15.0527621806"><ele>1.58</ele><time>2011-10-14T06:37:26Z</time></trkpt><trkpt lat="44.0252507105" lon="15.0527418125"><ele>1.10</ele><time>2011-10-14T06:37:51Z</time></trkpt><trkpt lat="44.0257972106" lon="15.0527508650"><ele>0.14</ele><time>2011-10-14T06:38:15Z</time></trkpt><trkpt lat="44.0263090935" lon="15.0529835466"><ele>3.02</ele><time>2011-10-14T06:38:39Z</time></trkpt><trkpt lat="44.0267336369" lon="15.0533821899"><ele>3.02</ele><time>2011-10-14T06:39:02Z</time></trkpt><trkpt lat="44.0270785522" lon="15.0539619662"><ele>2.54</ele><time>2011-10-14T06:39:26Z</time></trkpt><trkpt lat="44.0273849946" lon="15.0546440855"><ele>2.54</ele><time>2011-10-14T06:39:52Z</time></trkpt><trkpt lat="44.0276046842" lon="15.0554119516"><ele>2.54</ele><time>2011-10-14T06:40:18Z</time></trkpt><trkpt lat="44.0277366992" lon="15.0561825838"><ele>1.58</ele><time>2011-10-14T06:40:43Z</time></trkpt><trkpt lat="44.0278560575" lon="15.0570169184"><ele>1.10</ele><time>2011-10-14T06:41:10Z</time></trkpt><trkpt lat="44.0279963706" lon="15.0579240918"><ele>2.06</ele><time>2011-10-14T06:41:39Z</time></trkpt><trkpt lat="44.0281773359" lon="15.0588594284"><ele>2.54</ele><time>2011-10-14T06:42:09Z</time></trkpt><trkpt lat="44.0283248574" lon="15.0594319962"><ele>1.58</ele><time>2011-10-14T06:42:34Z</time></trkpt><trkpt lat="44.0284622367" lon="15.0598197430"><ele>2.54</ele><time>2011-10-14T06:42:54Z</time></trkpt><trkpt lat="44.0285504982" lon="15.0600437075"><ele>2.06</ele><time>2011-10-14T06:43:19Z</time></trkpt><trkpt lat="44.0285735484" lon="15.0600903109"><ele>2.54</ele><time>2011-10-14T06:43:49Z</time></trkpt><trkpt lat="44.0285756439" lon="15.0600948371"><ele>2.54</ele><time>2011-10-14T06:44:19Z</time></trkpt><trkpt lat="44.0285756439" lon="15.0600948371"><ele>2.54</ele><time>2011-10-14T06:44:44Z</time></trkpt><trkpt lat="44.0285777394" lon="15.0601024646"><ele>2.54</ele><time>2011-10-14T06:45:14Z</time></trkpt><trkpt lat="44.0285803378" lon="15.0601069909"><ele>2.06</ele><time>2011-10-14T06:45:43Z</time></trkpt><trkpt lat="44.0285803378" lon="15.0601069909"><ele>2.06</ele><time>2011-10-14T06:46:11Z</time></trkpt><trkpt lat="44.0285869595" lon="15.0601069909"><ele>1.58</ele><time>2011-10-14T06:46:41Z</time></trkpt><trkpt lat="44.0285889711" lon="15.0601027999"><ele>1.58</ele><time>2011-10-14T06:47:16Z</time></trkpt><trkpt lat="44.0285923239" lon="15.0601001177"><ele>1.58</ele><time>2011-10-14T06:47:49Z</time></trkpt><trkpt lat="44.0285941679" lon="15.0601000339"><ele>1.58</ele><time>2011-10-14T06:48:21Z</time></trkpt><trkpt lat="44.0285941679" lon="15.0601000339"><ele>1.58</ele><time>2011-10-14T06:48:50Z</time></trkpt><trkpt lat="44.0285945870" lon="15.0601028837"><ele>1.10</ele><time>2011-10-14T06:49:20Z</time></trkpt><trkpt lat="44.0285978559" lon="15.0601037219"><ele>1.58</ele><time>2011-10-14T06:49:49Z</time></trkpt><trkpt lat="44.0285978559" lon="15.0601037219"><ele>1.58</ele><time>2011-10-14T06:50:17Z</time></trkpt><trkpt lat="44.0285931621" lon="15.0601012073"><ele>1.58</ele><time>2011-10-14T06:50:47Z</time></trkpt><trkpt lat="44.0285860375" lon="15.0600910652"><ele>1.58</ele><time>2011-10-14T06:51:17Z</time></trkpt><trkpt lat="44.0285840258" lon="15.0600841921"><ele>1.58</ele><time>2011-10-14T06:51:48Z</time></trkpt><trkpt lat="44.0285840258" lon="15.0600841921"><ele>1.58</ele><time>2011-10-14T06:52:18Z</time></trkpt><trkpt lat="44.0285821818" lon="15.0600800849"><ele>1.58</ele><time>2011-10-14T06:52:46Z</time></trkpt><trkpt lat="44.0285784937" lon="15.0600680150"><ele>1.58</ele><time>2011-10-14T06:53:11Z</time></trkpt><trkpt lat="44.0285622329" lon="15.0600227527"><ele>3.02</ele><time>2011-10-14T06:53:43Z</time></trkpt><trkpt lat="44.0285622329" lon="15.0600227527"><ele>3.02</ele><time>2011-10-14T06:54:11Z</time></trkpt><trkpt lat="44.0285537671" lon="15.0600010436"><ele>3.50</ele><time>2011-10-14T06:54:39Z</time></trkpt><trkpt lat="44.0285548568" lon="15.0599808432"><ele>4.46</ele><time>2011-10-14T06:55:15Z</time></trkpt><trkpt lat="44.0285567846" lon="15.0599785801"><ele>4.46</ele><time>2011-10-14T06:55:44Z</time></trkpt><trkpt lat="44.0285567846" lon="15.0599785801"><ele>4.46</ele><time>2011-10-14T06:56:12Z</time></trkpt><trkpt lat="44.0285629034" lon="15.0599770714"><ele>4.46</ele><time>2011-10-14T06:56:46Z</time></trkpt><trkpt lat="44.0285722073" lon="15.0599750597"><ele>4.46</ele><time>2011-10-14T06:57:19Z</time></trkpt><trkpt lat="44.0285858698" lon="15.0599640794"><ele>3.98</ele><time>2011-10-14T06:57:50Z</time></trkpt><trkpt lat="44.0285978559" lon="15.0599599723"><ele>4.46</ele><time>2011-10-14T06:58:23Z</time></trkpt><trkpt lat="44.0285978559" lon="15.0599599723"><ele>4.46</ele><time>2011-10-14T06:58:54Z</time></trkpt><trkpt lat="44.0286124405" lon="15.0599523447"><ele>3.98</ele><time>2011-10-14T06:59:26Z</time></trkpt><trkpt lat="44.0286161285" lon="15.0599344913"><ele>3.50</ele><time>2011-10-14T06:59:58Z</time></trkpt><trkpt lat="44.0286139492" lon="15.0599159673"><ele>2.54</ele><time>2011-10-14T07:00:38Z</time></trkpt><trkpt lat="44.0286102612" lon="15.0599115249"><ele>2.54</ele><time>2011-10-14T07:01:11Z</time></trkpt><trkpt lat="44.0286098421" lon="15.0599161349"><ele>3.50</ele><time>2011-10-14T07:01:49Z</time></trkpt><trkpt lat="44.0286176372" lon="15.0599188171"><ele>2.54</ele><time>2011-10-14T07:02:23Z</time></trkpt><trkpt lat="44.0286283661" lon="15.0599246006"><ele>2.54</ele><time>2011-10-14T07:03:00Z</time></trkpt><trkpt lat="44.0286354907" lon="15.0599317253"><ele>2.54</ele><time>2011-10-14T07:03:39Z</time></trkpt><trkpt lat="44.0286354907" lon="15.0599317253"><ele>2.54</ele><time>2011-10-14T07:04:17Z</time></trkpt><trkpt lat="44.0286460519" lon="15.0599214155"><ele>2.06</ele><time>2011-10-14T07:04:56Z</time></trkpt><trkpt lat="44.0286520030" lon="15.0599125307"><ele>2.06</ele><time>2011-10-14T07:05:28Z</time></trkpt><trkpt lat="44.0286555234" lon="15.0599035621"><ele>2.06</ele><time>2011-10-14T07:06:08Z</time></trkpt><trkpt lat="44.0286513325" lon="15.0598955993"><ele>1.58</ele><time>2011-10-14T07:06:44Z</time></trkpt><trkpt lat="44.0286475606" lon="15.0598914921"><ele>1.58</ele><time>2011-10-14T07:07:18Z</time></trkpt><trkpt lat="44.0286381729" lon="15.0598945096"><ele>1.58</ele><time>2011-10-14T07:07:45Z</time></trkpt><trkpt lat="44.0286381729" lon="15.0598945096"><ele>1.58</ele><time>2011-10-14T07:08:17Z</time></trkpt><trkpt lat="44.0286325570" lon="15.0598909054"><ele>2.06</ele><time>2011-10-14T07:08:45Z</time></trkpt><trkpt lat="44.0286292881" lon="15.0598993711"><ele>2.06</ele><time>2011-10-14T07:09:17Z</time></trkpt><trkpt lat="44.0286256000" lon="15.0599070825"><ele>2.06</ele><time>2011-10-14T07:09:53Z</time></trkpt><trkpt lat="44.0286255162" lon="15.0599116087"><ele>2.06</ele><time>2011-10-14T07:10:23Z</time></trkpt><trkpt lat="44.0286255162" lon="15.0599116087"><ele>2.06</ele><time>2011-10-14T07:10:55Z</time></trkpt><trkpt lat="44.0286325570" lon="15.0599150453"><ele>2.54</ele><time>2011-10-14T07:11:27Z</time></trkpt><trkpt lat="44.0286453813" lon="15.0599142909"><ele>2.54</ele><time>2011-10-14T07:11:58Z</time></trkpt><trkpt lat="44.0286515839" lon="15.0599172246"><ele>2.54</ele><time>2011-10-14T07:12:30Z</time></trkpt><trkpt lat="44.0286533441" lon="15.0599142909"><ele>2.54</ele><time>2011-10-14T07:13:01Z</time></trkpt><trkpt lat="44.0286533441" lon="15.0599142909"><ele>2.54</ele><time>2011-10-14T07:13:32Z</time></trkpt><trkpt lat="44.0286506619" lon="15.0599189010"><ele>2.54</ele><time>2011-10-14T07:14:03Z</time></trkpt><trkpt lat="44.0286328085" lon="15.0599110220"><ele>2.06</ele><time>2011-10-14T07:14:35Z</time></trkpt><trkpt lat="44.0286284499" lon="15.0599151291"><ele>2.54</ele><time>2011-10-14T07:15:08Z</time></trkpt><trkpt lat="44.0286284499" lon="15.0599151291"><ele>2.54</ele><time>2011-10-14T07:15:31Z</time></trkpt><trkpt lat="44.0286147874" lon="15.0599266123"><ele>2.54</ele><time>2011-10-14T07:15:59Z</time></trkpt><trkpt lat="44.0286131948" lon="15.0599319767"><ele>2.54</ele><time>2011-10-14T07:16:29Z</time></trkpt><trkpt lat="44.0286131948" lon="15.0599319767"><ele>2.54</ele><time>2011-10-14T07:16:56Z</time></trkpt><trkpt lat="44.0286087524" lon="15.0599329825"><ele>2.54</ele><time>2011-10-14T07:17:18Z</time></trkpt><trkpt lat="44.0286033880" lon="15.0599221699"><ele>2.54</ele><time>2011-10-14T07:17:47Z</time></trkpt><trkpt lat="44.0286033880" lon="15.0599221699"><ele>2.54</ele><time>2011-10-14T07:18:18Z</time></trkpt><trkpt lat="44.0286058187" lon="15.0599121954"><ele>2.54</ele><time>2011-10-14T07:18:50Z</time></trkpt><trkpt lat="44.0286101773" lon="15.0599135365"><ele>2.54</ele><time>2011-10-14T07:19:24Z</time></trkpt><trkpt lat="44.0286146197" lon="15.0599133689"><ele>2.54</ele><time>2011-10-14T07:19:55Z</time></trkpt><trkpt lat="44.0286224987" lon="15.0599050708"><ele>3.50</ele><time>2011-10-14T07:20:24Z</time></trkpt><trkpt lat="44.0286224987" lon="15.0599050708"><ele>3.50</ele><time>2011-10-14T07:20:55Z</time></trkpt><trkpt lat="44.0286318865" lon="15.0598997064"><ele>3.50</ele><time>2011-10-14T07:21:22Z</time></trkpt><trkpt lat="44.0286306292" lon="15.0598959345"><ele>3.98</ele><time>2011-10-14T07:21:53Z</time></trkpt><trkpt lat="44.0286259353" lon="15.0599012990"><ele>3.98</ele><time>2011-10-14T07:22:21Z</time></trkpt><trkpt lat="44.0286259353" lon="15.0599012990"><ele>3.98</ele><time>2011-10-14T07:22:46Z</time></trkpt><trkpt lat="44.0286225826" lon="15.0599023048"><ele>3.98</ele><time>2011-10-14T07:23:16Z</time></trkpt><trkpt lat="44.0286221635" lon="15.0599050708"><ele>3.98</ele><time>2011-10-14T07:23:45Z</time></trkpt><trkpt lat="44.0286221635" lon="15.0599050708"><ele>3.98</ele><time>2011-10-14T07:24:18Z</time></trkpt><trkpt lat="44.0285955928" lon="15.0599210802"><ele>3.50</ele><time>2011-10-14T07:24:37Z</time></trkpt><trkpt lat="44.0285924077" lon="15.0599205773"><ele>2.54</ele><time>2011-10-14T07:25:07Z</time></trkpt><trkpt lat="44.0285910666" lon="15.0599134527"><ele>3.02</ele><time>2011-10-14T07:25:41Z</time></trkpt><trkpt lat="44.0285910666" lon="15.0599134527"><ele>3.02</ele><time>2011-10-14T07:26:11Z</time></trkpt><trkpt lat="44.0285976045" lon="15.0599105190"><ele>2.54</ele><time>2011-10-14T07:26:40Z</time></trkpt><trkpt lat="44.0285994485" lon="15.0599147938"><ele>2.54</ele><time>2011-10-14T07:27:13Z</time></trkpt><trkpt lat="44.0286017116" lon="15.0599113572"><ele>3.02</ele><time>2011-10-14T07:27:46Z</time></trkpt><trkpt lat="44.0286017116" lon="15.0599113572"><ele>3.02</ele><time>2011-10-14T07:28:17Z</time></trkpt><trkpt lat="44.0285984427" lon="15.0599074177"><ele>4.46</ele><time>2011-10-14T07:28:47Z</time></trkpt><trkpt lat="44.0285944194" lon="15.0599027239"><ele>4.46</ele><time>2011-10-14T07:29:21Z</time></trkpt><trkpt lat="44.0285928268" lon="15.0599137042"><ele>4.46</ele><time>2011-10-14T07:29:56Z</time></trkpt><trkpt lat="44.0285962634" lon="15.0599090103"><ele>4.46</ele><time>2011-10-14T07:30:33Z</time></trkpt><trkpt lat="44.0286071599" lon="15.0598985329"><ele>4.94</ele><time>2011-10-14T07:31:08Z</time></trkpt><trkpt lat="44.0286230855" lon="15.0598991197"><ele>4.46</ele><time>2011-10-14T07:31:38Z</time></trkpt><trkpt lat="44.0286230855" lon="15.0598991197"><ele>4.46</ele><time>2011-10-14T07:32:17Z</time></trkpt><trkpt lat="44.0286408551" lon="15.0599043164"><ele>4.46</ele><time>2011-10-14T07:32:52Z</time></trkpt><trkpt lat="44.0286446270" lon="15.0599045679"><ele>4.46</ele><time>2011-10-14T07:33:26Z</time></trkpt><trkpt lat="44.0286537632" lon="15.0598972756"><ele>3.98</ele><time>2011-10-14T07:34:02Z</time></trkpt><trkpt lat="44.0286595467" lon="15.0599002093"><ele>4.46</ele><time>2011-10-14T07:34:33Z</time></trkpt><trkpt lat="44.0286521707" lon="15.0599014666"><ele>4.94</ele><time>2011-10-14T07:35:09Z</time></trkpt><trkpt lat="44.0286500752" lon="15.0599090941"><ele>4.94</ele><time>2011-10-14T07:35:45Z</time></trkpt><trkpt lat="44.0286497399" lon="15.0599149615"><ele>4.94</ele><time>2011-10-14T07:36:18Z</time></trkpt><trkpt lat="44.0286497399" lon="15.0599149615"><ele>4.94</ele><time>2011-10-14T07:36:50Z</time></trkpt><trkpt lat="44.0286526736" lon="15.0599111058"><ele>5.42</ele><time>2011-10-14T07:37:22Z</time></trkpt><trkpt lat="44.0286519192" lon="15.0599135365"><ele>4.46</ele><time>2011-10-14T07:37:57Z</time></trkpt><trkpt lat="44.0286446270" lon="15.0599121116"><ele>4.46</ele><time>2011-10-14T07:38:29Z</time></trkpt><trkpt lat="44.0286395140" lon="15.0599099323"><ele>3.98</ele><time>2011-10-14T07:38:58Z</time></trkpt><trkpt lat="44.0286395140" lon="15.0599099323"><ele>3.98</ele><time>2011-10-14T07:39:27Z</time></trkpt><trkpt lat="44.0286365803" lon="15.0599090103"><ele>3.50</ele><time>2011-10-14T07:39:54Z</time></trkpt><trkpt lat="44.0286383405" lon="15.0599084236"><ele>3.50</ele><time>2011-10-14T07:40:19Z</time></trkpt><trkpt lat="44.0286383405" lon="15.0599084236"><ele>3.50</ele><time>2011-10-14T07:40:52Z</time></trkpt><trkpt lat="44.0286447946" lon="15.0599171408"><ele>3.02</ele><time>2011-10-14T07:41:23Z</time></trkpt><trkpt lat="44.0286441240" lon="15.0599178951"><ele>3.02</ele><time>2011-10-14T07:41:54Z</time></trkpt><trkpt lat="44.0286440402" lon="15.0599205773"><ele>3.02</ele><time>2011-10-14T07:42:26Z</time></trkpt><trkpt lat="44.0286440402" lon="15.0599205773"><ele>3.02</ele><time>2011-10-14T07:42:51Z</time></trkpt><trkpt lat="44.0286350716" lon="15.0599218346"><ele>3.50</ele><time>2011-10-14T07:43:18Z</time></trkpt><trkpt lat="44.0286303777" lon="15.0599278696"><ele>3.50</ele><time>2011-10-14T07:43:46Z</time></trkpt><trkpt lat="44.0286303777" lon="15.0599278696"><ele>3.50</ele><time>2011-10-14T07:44:16Z</time></trkpt><trkpt lat="44.0286232531" lon="15.0599318091"><ele>3.98</ele><time>2011-10-14T07:44:50Z</time></trkpt><trkpt lat="44.0286100935" lon="15.0599301327"><ele>3.50</ele><time>2011-10-14T07:45:21Z</time></trkpt><trkpt lat="44.0285887197" lon="15.0599297136"><ele>2.54</ele><time>2011-10-14T07:45:55Z</time></trkpt><trkpt lat="44.0285847802" lon="15.0599284563"><ele>3.50</ele><time>2011-10-14T07:46:27Z</time></trkpt><trkpt lat="44.0285847802" lon="15.0599284563"><ele>3.50</ele><time>2011-10-14T07:46:56Z</time></trkpt><trkpt lat="44.0285797510" lon="15.0599441305"><ele>3.98</ele><time>2011-10-14T07:47:30Z</time></trkpt><trkpt lat="44.0285773203" lon="15.0599589664"><ele>3.98</ele><time>2011-10-14T07:47:52Z</time></trkpt><trkpt lat="44.0285806730" lon="15.0599619839"><ele>3.98</ele><time>2011-10-14T07:48:22Z</time></trkpt><trkpt lat="44.0285806730" lon="15.0599619839"><ele>3.98</ele><time>2011-10-14T07:48:57Z</time></trkpt><trkpt lat="44.0285787452" lon="15.0599558651"><ele>3.98</ele><time>2011-10-14T07:49:26Z</time></trkpt><trkpt lat="44.0285826009" lon="15.0599481538"><ele>4.46</ele><time>2011-10-14T07:49:56Z</time></trkpt><trkpt lat="44.0285852831" lon="15.0599448849"><ele>4.94</ele><time>2011-10-14T07:50:32Z</time></trkpt><trkpt lat="44.0285950899" lon="15.0599333178"><ele>5.42</ele><time>2011-10-14T07:51:08Z</time></trkpt><trkpt lat="44.0285950899" lon="15.0599333178"><ele>5.42</ele><time>2011-10-14T07:51:37Z</time></trkpt><trkpt lat="44.0286071599" lon="15.0599334855"><ele>4.46</ele><time>2011-10-14T07:52:10Z</time></trkpt><trkpt lat="44.0286187269" lon="15.0599344075"><ele>4.46</ele><time>2011-10-14T07:52:41Z</time></trkpt><trkpt lat="44.0286335628" lon="15.0599387661"><ele>3.50</ele><time>2011-10-14T07:53:16Z</time></trkpt><trkpt lat="44.0286390111" lon="15.0599388499"><ele>3.50</ele><time>2011-10-14T07:53:49Z</time></trkpt><trkpt lat="44.0286401846" lon="15.0599508360"><ele>3.50</ele><time>2011-10-14T07:54:26Z</time></trkpt><trkpt lat="44.0286468063" lon="15.0599525124"><ele>3.02</ele><time>2011-10-14T07:55:01Z</time></trkpt><trkpt lat="44.0286468063" lon="15.0599525124"><ele>3.02</ele><time>2011-10-14T07:55:32Z</time></trkpt><trkpt lat="44.0286494046" lon="15.0599643309"><ele>2.54</ele><time>2011-10-14T07:56:04Z</time></trkpt><trkpt lat="44.0286468063" lon="15.0599624030"><ele>2.54</ele><time>2011-10-14T07:56:39Z</time></trkpt><trkpt lat="44.0286466386" lon="15.0599503331"><ele>2.54</ele><time>2011-10-14T07:57:16Z</time></trkpt><trkpt lat="44.0286352392" lon="15.0599403586"><ele>2.54</ele><time>2011-10-14T07:57:49Z</time></trkpt><trkpt lat="44.0286241751" lon="15.0599329825"><ele>2.06</ele><time>2011-10-14T07:58:19Z</time></trkpt><trkpt lat="44.0286241751" lon="15.0599329825"><ele>2.06</ele><time>2011-10-14T07:58:57Z</time></trkpt><trkpt lat="44.0286132786" lon="15.0599372573"><ele>2.54</ele><time>2011-10-14T07:59:30Z</time></trkpt><trkpt lat="44.0286012087" lon="15.0599484891"><ele>2.54</ele><time>2011-10-14T08:00:04Z</time></trkpt><trkpt lat="44.0285954252" lon="15.0599659234"><ele>2.54</ele><time>2011-10-14T08:00:36Z</time></trkpt><trkpt lat="44.0285790805" lon="15.0599796697"><ele>2.54</ele><time>2011-10-14T08:01:05Z</time></trkpt><trkpt lat="44.0285651665" lon="15.0599899795"><ele>3.50</ele><time>2011-10-14T08:01:39Z</time></trkpt><trkpt lat="44.0285651665" lon="15.0599899795"><ele>3.50</ele><time>2011-10-14T08:02:11Z</time></trkpt><trkpt lat="44.0285485703" lon="15.0600212440"><ele>5.42</ele><time>2011-10-14T08:02:47Z</time></trkpt><trkpt lat="44.0285439603" lon="15.0600382593"><ele>5.91</ele><time>2011-10-14T08:03:17Z</time></trkpt><trkpt lat="44.0285375901" lon="15.0600333977"><ele>5.42</ele><time>2011-10-14T08:03:50Z</time></trkpt><trkpt lat="44.0285328124" lon="15.0600150414"><ele>4.46</ele><time>2011-10-14T08:04:20Z</time></trkpt><trkpt lat="44.0285328124" lon="15.0600150414"><ele>4.46</ele><time>2011-10-14T08:04:52Z</time></trkpt><trkpt lat="44.0285302140" lon="15.0599888898"><ele>5.91</ele><time>2011-10-14T08:05:22Z</time></trkpt><trkpt lat="44.0285344049" lon="15.0599712878"><ele>6.39</ele><time>2011-10-14T08:05:53Z</time></trkpt><trkpt lat="44.0285388473" lon="15.0599534344"><ele>5.91</ele><time>2011-10-14T08:06:20Z</time></trkpt><trkpt lat="44.0285388473" lon="15.0599534344"><ele>5.91</ele><time>2011-10-14T08:06:50Z</time></trkpt><trkpt lat="44.0285542700" lon="15.0599450525"><ele>5.91</ele><time>2011-10-14T08:07:26Z</time></trkpt><trkpt lat="44.0285523422" lon="15.0599456392"><ele>5.91</ele><time>2011-10-14T08:08:00Z</time></trkpt><trkpt lat="44.0285546891" lon="15.0599507522"><ele>5.42</ele><time>2011-10-14T08:08:31Z</time></trkpt><trkpt lat="44.0285519231" lon="15.0599473156"><ele>4.94</ele><time>2011-10-14T08:09:02Z</time></trkpt><trkpt lat="44.0285519231" lon="15.0599473156"><ele>4.94</ele><time>2011-10-14T08:09:31Z</time></trkpt><trkpt lat="44.0285536833" lon="15.0599297974"><ele>4.94</ele><time>2011-10-14T08:10:07Z</time></trkpt><trkpt lat="44.0285529289" lon="15.0599230919"><ele>4.94</ele><time>2011-10-14T08:10:43Z</time></trkpt><trkpt lat="44.0285459720" lon="15.0599227566"><ele>4.94</ele><time>2011-10-14T08:11:20Z</time></trkpt><trkpt lat="44.0285364166" lon="15.0599321444"><ele>4.94</ele><time>2011-10-14T08:11:42Z</time></trkpt><trkpt lat="44.0285325609" lon="15.0599366706"><ele>4.46</ele><time>2011-10-14T08:12:08Z</time></trkpt><trkpt lat="44.0285396855" lon="15.0599300489"><ele>4.94</ele><time>2011-10-14T08:12:39Z</time></trkpt><trkpt lat="44.0285396855" lon="15.0599300489"><ele>4.94</ele><time>2011-10-14T08:13:06Z</time></trkpt><trkpt lat="44.0285468940" lon="15.0599288754"><ele>4.94</ele><time>2011-10-14T08:13:29Z</time></trkpt><trkpt lat="44.0285596345" lon="15.0599142909"><ele>4.94</ele><time>2011-10-14T08:14:01Z</time></trkpt><trkpt lat="44.0285766497" lon="15.0599057414"><ele>5.91</ele><time>2011-10-14T08:14:32Z</time></trkpt><trkpt lat="44.0285766497" lon="15.0599057414"><ele>5.91</ele><time>2011-10-14T08:15:04Z</time></trkpt><trkpt lat="44.0285739675" lon="15.0599063281"><ele>5.91</ele><time>2011-10-14T08:15:36Z</time></trkpt><trkpt lat="44.0285651665" lon="15.0599021371"><ele>6.39</ele><time>2011-10-14T08:16:06Z</time></trkpt><trkpt lat="44.0285598021" lon="15.0599069986"><ele>6.39</ele><time>2011-10-14T08:16:37Z</time></trkpt><trkpt lat="44.0285552759" lon="15.0599220023"><ele>6.39</ele><time>2011-10-14T08:17:08Z</time></trkpt><trkpt lat="44.0285552759" lon="15.0599220023"><ele>6.39</ele><time>2011-10-14T08:17:27Z</time></trkpt><trkpt lat="44.0285573713" lon="15.0599269476"><ele>6.87</ele><time>2011-10-14T08:17:48Z</time></trkpt><trkpt lat="44.0285061579" lon="15.0598961860"><ele>5.91</ele><time>2011-10-14T08:18:11Z</time></trkpt><trkpt lat="44.0285225864" lon="15.0598936714"><ele>4.94</ele><time>2011-10-14T08:18:24Z</time></trkpt><trkpt lat="44.0287864488" lon="15.0596679468"><ele>3.98</ele><time>2011-10-14T08:18:46Z</time></trkpt><trkpt lat="44.0288684238" lon="15.0590829737"><ele>2.54</ele><time>2011-10-14T08:19:06Z</time></trkpt><trkpt lat="44.0290161129" lon="15.0582038797"><ele>3.02</ele><time>2011-10-14T08:19:32Z</time></trkpt><trkpt lat="44.0292437654" lon="15.0571542978"><ele>3.50</ele><time>2011-10-14T08:20:03Z</time></trkpt><trkpt lat="44.0295197815" lon="15.0563131738"><ele>2.06</ele><time>2011-10-14T08:20:30Z</time></trkpt><trkpt lat="44.0299150720" lon="15.0556008797"><ele>3.50</ele><time>2011-10-14T08:20:56Z</time></trkpt><trkpt lat="44.0304179024" lon="15.0549410563"><ele>3.50</ele><time>2011-10-14T08:21:24Z</time></trkpt><trkpt lat="44.0308739617" lon="15.0543867610"><ele>2.54</ele><time>2011-10-14T08:21:49Z</time></trkpt><trkpt lat="44.0313170291" lon="15.0538265985"><ele>3.02</ele><time>2011-10-14T08:22:14Z</time></trkpt><trkpt lat="44.0318284091" lon="15.0532533601"><ele>3.02</ele><time>2011-10-14T08:22:41Z</time></trkpt><trkpt lat="44.0322732367" lon="15.0527578220"><ele>3.02</ele><time>2011-10-14T08:23:04Z</time></trkpt><trkpt lat="44.0327307209" lon="15.0522989966"><ele>3.02</ele><time>2011-10-14T08:23:27Z</time></trkpt><trkpt lat="44.0332788974" lon="15.0516996067"><ele>3.98</ele><time>2011-10-14T08:23:56Z</time></trkpt><trkpt lat="44.0338316839" lon="15.0511667691"><ele>3.02</ele><time>2011-10-14T08:24:24Z</time></trkpt><trkpt lat="44.0343459975" lon="15.0507282279"><ele>3.50</ele><time>2011-10-14T08:24:49Z</time></trkpt><trkpt lat="44.0349137876" lon="15.0502464361"><ele>2.54</ele><time>2011-10-14T08:25:16Z</time></trkpt><trkpt lat="44.0355006047" lon="15.0499305222"><ele>2.54</ele><time>2011-10-14T08:25:42Z</time></trkpt><trkpt lat="44.0361580811" lon="15.0497503113"><ele>2.06</ele><time>2011-10-14T08:26:09Z</time></trkpt><trkpt lat="44.0367894061" lon="15.0494887959"><ele>1.10</ele><time>2011-10-14T08:26:35Z</time></trkpt><trkpt lat="44.0374218207" lon="15.0491189025"><ele>1.10</ele><time>2011-10-14T08:27:02Z</time></trkpt><trkpt lat="44.0380147565" lon="15.0487824529"><ele>0.62</ele><time>2011-10-14T08:27:28Z</time></trkpt><trkpt lat="44.0385660343" lon="15.0484463386"><ele>1.58</ele><time>2011-10-14T08:27:52Z</time></trkpt><trkpt lat="44.0389948525" lon="15.0481564086"><ele>2.54</ele><time>2011-10-14T08:28:11Z</time></trkpt><trkpt lat="44.0394996107" lon="15.0478353817"><ele>3.02</ele><time>2011-10-14T08:28:33Z</time></trkpt><trkpt lat="44.0400182828" lon="15.0475016143"><ele>2.06</ele><time>2011-10-14T08:28:56Z</time></trkpt><trkpt lat="44.0406472608" lon="15.0473654084"><ele>1.10</ele><time>2011-10-14T08:29:19Z</time></trkpt><trkpt lat="44.0413012169" lon="15.0473766401"><ele>1.58</ele><time>2011-10-14T08:29:42Z</time></trkpt><trkpt lat="44.0418964159" lon="15.0474876165"><ele>1.58</ele><time>2011-10-14T08:30:03Z</time></trkpt><trkpt lat="44.0425942931" lon="15.0476385746"><ele>1.58</ele><time>2011-10-14T08:30:28Z</time></trkpt><trkpt lat="44.0431630891" lon="15.0477948133"><ele>2.06</ele><time>2011-10-14T08:30:48Z</time></trkpt><trkpt lat="44.0438812505" lon="15.0480215438"><ele>1.58</ele><time>2011-10-14T08:31:14Z</time></trkpt><trkpt lat="44.0445091389" lon="15.0481685624"><ele>2.54</ele><time>2011-10-14T08:31:36Z</time></trkpt><trkpt lat="44.0452188347" lon="15.0483529642"><ele>2.06</ele><time>2011-10-14T08:32:01Z</time></trkpt><trkpt lat="44.0458781552" lon="15.0485203508"><ele>2.06</ele><time>2011-10-14T08:32:24Z</time></trkpt><trkpt lat="44.0464523993" lon="15.0486298185"><ele>2.06</ele><time>2011-10-14T08:32:44Z</time></trkpt><trkpt lat="44.0470123105" lon="15.0487734005"><ele>2.54</ele><time>2011-10-14T08:33:04Z</time></trkpt><trkpt lat="44.0476067550" lon="15.0489222631"><ele>2.54</ele><time>2011-10-14T08:33:25Z</time></trkpt><trkpt lat="44.0481795743" lon="15.0490039028"><ele>2.06</ele><time>2011-10-14T08:33:45Z</time></trkpt><trkpt lat="44.0485685784" lon="15.0490300544"><ele>1.10</ele><time>2011-10-14T08:33:59Z</time></trkpt><trkpt lat="44.0490010008" lon="15.0488681160"><ele>1.58</ele><time>2011-10-14T08:34:15Z</time></trkpt><trkpt lat="44.0494309925" lon="15.0486735720"><ele>1.10</ele><time>2011-10-14T08:34:31Z</time></trkpt><trkpt lat="44.0497853793" lon="15.0485177524"><ele>1.10</ele><time>2011-10-14T08:34:44Z</time></trkpt><trkpt lat="44.0503103379" lon="15.0482277386"><ele>0.62</ele><time>2011-10-14T08:35:04Z</time></trkpt><trkpt lat="44.0507281758" lon="15.0479904469"><ele>1.10</ele><time>2011-10-14T08:35:20Z</time></trkpt><trkpt lat="44.0513108857" lon="15.0476596132"><ele>1.58</ele><time>2011-10-14T08:35:42Z</time></trkpt><trkpt lat="44.0518217627" lon="15.0473936554"><ele>1.58</ele><time>2011-10-14T08:36:01Z</time></trkpt><trkpt lat="44.0523841046" lon="15.0470840279"><ele>1.58</ele><time>2011-10-14T08:36:22Z</time></trkpt><trkpt lat="44.0528663993" lon="15.0468101911"><ele>1.10</ele><time>2011-10-14T08:36:40Z</time></trkpt><trkpt lat="44.0535929427" lon="15.0464035012"><ele>1.10</ele><time>2011-10-14T08:37:07Z</time></trkpt><trkpt lat="44.0542743076" lon="15.0460840669"><ele>1.58</ele><time>2011-10-14T08:37:32Z</time></trkpt><trkpt lat="44.0548220649" lon="15.0458262395"><ele>0.62</ele><time>2011-10-14T08:37:52Z</time></trkpt><trkpt lat="44.0554768592" lon="15.0455996767"><ele>1.58</ele><time>2011-10-14T08:38:15Z</time></trkpt><trkpt lat="44.0561362635" lon="15.0454214774"><ele>3.02</ele><time>2011-10-14T08:38:38Z</time></trkpt><trkpt lat="44.0567472205" lon="15.0452848524"><ele>3.98</ele><time>2011-10-14T08:38:59Z</time></trkpt><trkpt lat="44.0574628673" lon="15.0451225787"><ele>3.50</ele><time>2011-10-14T08:39:24Z</time></trkpt><trkpt lat="44.0580414701" lon="15.0450328924"><ele>3.50</ele><time>2011-10-14T08:39:44Z</time></trkpt><trkpt lat="44.0586786624" lon="15.0448994525"><ele>3.02</ele><time>2011-10-14T08:40:06Z</time></trkpt><trkpt lat="44.0592601988" lon="15.0447827764"><ele>3.02</ele><time>2011-10-14T08:40:26Z</time></trkpt><trkpt lat="44.0597889293" lon="15.0446941797"><ele>3.50</ele><time>2011-10-14T08:40:44Z</time></trkpt><trkpt lat="44.0603746567" lon="15.0446073432"><ele>3.50</ele><time>2011-10-14T08:41:04Z</time></trkpt><trkpt lat="44.0611162037" lon="15.0444914214"><ele>3.50</ele><time>2011-10-14T08:41:29Z</time></trkpt><trkpt lat="44.0617024340" lon="15.0444060937"><ele>2.54</ele><time>2011-10-14T08:41:49Z</time></trkpt><trkpt lat="44.0623513609" lon="15.0442796107"><ele>2.54</ele><time>2011-10-14T08:42:10Z</time></trkpt><trkpt lat="44.0629458893" lon="15.0441651978"><ele>2.54</ele><time>2011-10-14T08:42:29Z</time></trkpt><trkpt lat="44.0635407530" lon="15.0440676324"><ele>3.50</ele><time>2011-10-14T08:42:48Z</time></trkpt><trkpt lat="44.0641284920" lon="15.0439694803"><ele>3.98</ele><time>2011-10-14T08:43:07Z</time></trkpt><trkpt lat="44.0647420473" lon="15.0438243058"><ele>3.02</ele><time>2011-10-14T08:43:27Z</time></trkpt><trkpt lat="44.0652937442" lon="15.0436737668"><ele>3.02</ele><time>2011-10-14T08:43:45Z</time></trkpt><trkpt lat="44.0657961555" lon="15.0435588509"><ele>3.02</ele><time>2011-10-14T08:44:01Z</time></trkpt><trkpt lat="44.0665057674" lon="15.0433935598"><ele>1.58</ele><time>2011-10-14T08:44:24Z</time></trkpt><trkpt lat="44.0671654232" lon="15.0432239100"><ele>2.06</ele><time>2011-10-14T08:44:44Z</time></trkpt><trkpt lat="44.0679427609" lon="15.0430133566"><ele>3.02</ele><time>2011-10-14T08:45:07Z</time></trkpt><trkpt lat="44.0685662907" lon="15.0428862032"><ele>3.02</ele><time>2011-10-14T08:45:25Z</time></trkpt><trkpt lat="44.0691768285" lon="15.0427580439"><ele>2.54</ele><time>2011-10-14T08:45:43Z</time></trkpt><trkpt lat="44.0698570199" lon="15.0426401943"><ele>3.02</ele><time>2011-10-14T08:46:03Z</time></trkpt><trkpt lat="44.0705388039" lon="15.0425247755"><ele>3.50</ele><time>2011-10-14T08:46:23Z</time></trkpt><trkpt lat="44.0712924208" lon="15.0424286351"><ele>2.54</ele><time>2011-10-14T08:46:45Z</time></trkpt><trkpt lat="44.0720475465" lon="15.0423363503"><ele>1.58</ele><time>2011-10-14T08:47:07Z</time></trkpt><trkpt lat="44.0728371218" lon="15.0422128011"><ele>1.58</ele><time>2011-10-14T08:47:30Z</time></trkpt><trkpt lat="44.0736546088" lon="15.0421161577"><ele>2.54</ele><time>2011-10-14T08:47:54Z</time></trkpt><trkpt lat="44.0744105726" lon="15.0420557242"><ele>2.06</ele><time>2011-10-14T08:48:16Z</time></trkpt><trkpt lat="44.0751839709" lon="15.0419588294"><ele>1.58</ele><time>2011-10-14T08:48:39Z</time></trkpt><trkpt lat="44.0758980252" lon="15.0418717414"><ele>1.58</ele><time>2011-10-14T08:49:00Z</time></trkpt><trkpt lat="44.0765755344" lon="15.0418460928"><ele>1.58</ele><time>2011-10-14T08:49:20Z</time></trkpt><trkpt lat="44.0772197675" lon="15.0417866651"><ele>0.62</ele><time>2011-10-14T08:49:39Z</time></trkpt><trkpt lat="44.0779764019" lon="15.0417585857"><ele>2.06</ele><time>2011-10-14T08:50:01Z</time></trkpt><trkpt lat="44.0785528254" lon="15.0417399779"><ele>1.58</ele><time>2011-10-14T08:50:18Z</time></trkpt><trkpt lat="44.0791270696" lon="15.0417571608"><ele>1.10</ele><time>2011-10-14T08:50:35Z</time></trkpt><trkpt lat="44.0796783473" lon="15.0418982282"><ele>0.62</ele><time>2011-10-14T08:50:51Z</time></trkpt><trkpt lat="44.0803832654" lon="15.0420290697"><ele>0.14</ele><time>2011-10-14T08:51:12Z</time></trkpt><trkpt lat="44.0811159275" lon="15.0421550497"><ele>0.14</ele><time>2011-10-14T08:51:34Z</time></trkpt><trkpt lat="44.0817195922" lon="15.0423226040"><ele>1.10</ele><time>2011-10-14T08:51:52Z</time></trkpt><trkpt lat="44.0824196488" lon="15.0425462332"><ele>0.14</ele><time>2011-10-14T08:52:13Z</time></trkpt><trkpt lat="44.0829491336" lon="15.0427065790"><ele>0.62</ele><time>2011-10-14T08:52:29Z</time></trkpt><trkpt lat="44.0836493578" lon="15.0429232512"><ele>2.06</ele><time>2011-10-14T08:52:50Z</time></trkpt><trkpt lat="44.0843786672" lon="15.0431752950"><ele>3.02</ele><time>2011-10-14T08:53:12Z</time></trkpt><trkpt lat="44.0846104268" lon="15.0432595331"><ele>3.50</ele><time>2011-10-14T08:53:19Z</time></trkpt><trkpt lat="44.0851027798" lon="15.0434145983"><ele>2.54</ele><time>2011-10-14T08:53:34Z</time></trkpt><trkpt lat="44.0858198516" lon="15.0436497945"><ele>2.06</ele><time>2011-10-14T08:53:56Z</time></trkpt><trkpt lat="44.0865605604" lon="15.0438721664"><ele>3.02</ele><time>2011-10-14T08:54:18Z</time></trkpt><trkpt lat="44.0873026941" lon="15.0440688897"><ele>4.94</ele><time>2011-10-14T08:54:40Z</time></trkpt><trkpt lat="44.0879956260" lon="15.0442860648"><ele>3.98</ele><time>2011-10-14T08:55:01Z</time></trkpt><trkpt lat="44.0885911603" lon="15.0445158128"><ele>4.94</ele><time>2011-10-14T08:55:19Z</time></trkpt><trkpt lat="44.0893619601" lon="15.0447297189"><ele>4.94</ele><time>2011-10-14T08:55:42Z</time></trkpt><trkpt lat="44.0900892578" lon="15.0449889712"><ele>5.91</ele><time>2011-10-14T08:56:04Z</time></trkpt><trkpt lat="44.0908201598" lon="15.0452255923"><ele>3.98</ele><time>2011-10-14T08:56:26Z</time></trkpt><trkpt lat="44.0915360581" lon="15.0454499759"><ele>2.54</ele><time>2011-10-14T08:56:48Z</time></trkpt><trkpt lat="44.0922889207" lon="15.0456841663"><ele>2.54</ele><time>2011-10-14T08:57:11Z</time></trkpt><trkpt lat="44.0931417793" lon="15.0459665526"><ele>2.54</ele><time>2011-10-14T08:57:37Z</time></trkpt><trkpt lat="44.0937964059" lon="15.0462063588"><ele>3.02</ele><time>2011-10-14T08:57:57Z</time></trkpt><trkpt lat="44.0944884997" lon="15.0464370288"><ele>3.50</ele><time>2011-10-14T08:58:18Z</time></trkpt><trkpt lat="44.0951303020" lon="15.0466245320"><ele>3.02</ele><time>2011-10-14T08:58:38Z</time></trkpt><trkpt lat="44.0958382376" lon="15.0468658470"><ele>2.54</ele><time>2011-10-14T08:59:00Z</time></trkpt><trkpt lat="44.0964969713" lon="15.0471264403"><ele>1.58</ele><time>2011-10-14T08:59:21Z</time></trkpt><trkpt lat="44.0972645022" lon="15.0473661628"><ele>1.58</ele><time>2011-10-14T08:59:45Z</time></trkpt><trkpt lat="44.0980452765" lon="15.0476172846"><ele>1.58</ele><time>2011-10-14T09:00:09Z</time></trkpt><trkpt lat="44.0987067763" lon="15.0478449371"><ele>1.10</ele><time>2011-10-14T09:00:30Z</time></trkpt><trkpt lat="44.0993591398" lon="15.0480310153"><ele>2.06</ele><time>2011-10-14T09:00:50Z</time></trkpt><trkpt lat="44.1000270098" lon="15.0482250564"><ele>2.06</ele><time>2011-10-14T09:01:11Z</time></trkpt><trkpt lat="44.1006672196" lon="15.0484346040"><ele>1.58</ele><time>2011-10-14T09:01:31Z</time></trkpt><trkpt lat="44.1013713833" lon="15.0486787688"><ele>1.58</ele><time>2011-10-14T09:01:53Z</time></trkpt><trkpt lat="44.1020696796" lon="15.0489317346"><ele>2.06</ele><time>2011-10-14T09:02:15Z</time></trkpt><trkpt lat="44.1028169263" lon="15.0491924956"><ele>2.54</ele><time>2011-10-14T09:02:39Z</time></trkpt><trkpt lat="44.1035026498" lon="15.0494223274"><ele>3.98</ele><time>2011-10-14T09:03:01Z</time></trkpt><trkpt lat="44.1042593680" lon="15.0496994331"><ele>3.02</ele><time>2011-10-14T09:03:26Z</time></trkpt><trkpt lat="44.1049070377" lon="15.0499405805"><ele>3.02</ele><time>2011-10-14T09:03:47Z</time></trkpt><trkpt lat="44.1055366024" lon="15.0501299277"><ele>3.02</ele><time>2011-10-14T09:04:07Z</time></trkpt><trkpt lat="44.1061000340" lon="15.0502823107"><ele>1.58</ele><time>2011-10-14T09:04:25Z</time></trkpt><trkpt lat="44.1066674050" lon="15.0504245516"><ele>0.14</ele><time>2011-10-14T09:04:43Z</time></trkpt><trkpt lat="44.1072268132" lon="15.0506024156"><ele>-0.34</ele><time>2011-10-14T09:05:01Z</time></trkpt><trkpt lat="44.1078499239" lon="15.0507989712"><ele>-0.34</ele><time>2011-10-14T09:05:21Z</time></trkpt><trkpt lat="44.1083136946" lon="15.0509439781"><ele>0.14</ele><time>2011-10-14T09:05:36Z</time></trkpt><trkpt lat="44.1089057084" lon="15.0511443894"><ele>-0.82</ele><time>2011-10-14T09:05:55Z</time></trkpt><trkpt lat="44.1095528752" lon="15.0513752270"><ele>0.14</ele><time>2011-10-14T09:06:16Z</time></trkpt><trkpt lat="44.1101034824" lon="15.0515535101"><ele>1.58</ele><time>2011-10-14T09:06:34Z</time></trkpt><trkpt lat="44.1106902156" lon="15.0517274346"><ele>1.58</ele><time>2011-10-14T09:06:53Z</time></trkpt><trkpt lat="44.1111212969" lon="15.0518633891"><ele>1.58</ele><time>2011-10-14T09:07:07Z</time></trkpt><trkpt lat="44.1116656177" lon="15.0520297699"><ele>2.06</ele><time>2011-10-14T09:07:25Z</time></trkpt><trkpt lat="44.1121842898" lon="15.0521861762"><ele>2.06</ele><time>2011-10-14T09:07:42Z</time></trkpt><trkpt lat="44.1127737053" lon="15.0523615256"><ele>1.10</ele><time>2011-10-14T09:08:01Z</time></trkpt><trkpt lat="44.1132638790" lon="15.0525207818"><ele>2.54</ele><time>2011-10-14T09:08:17Z</time></trkpt><trkpt lat="44.1138904262" lon="15.0527475122"><ele>2.06</ele><time>2011-10-14T09:08:38Z</time></trkpt><trkpt lat="44.1145085078" lon="15.0529452413"><ele>1.58</ele><time>2011-10-14T09:08:58Z</time></trkpt><trkpt lat="44.1151332948" lon="15.0531319901"><ele>2.06</ele><time>2011-10-14T09:09:18Z</time></trkpt><trkpt lat="44.1157628596" lon="15.0533499196"><ele>2.54</ele><time>2011-10-14T09:09:38Z</time></trkpt><trkpt lat="44.1163326614" lon="15.0535460562"><ele>2.54</ele><time>2011-10-14T09:09:56Z</time></trkpt><trkpt lat="44.1168696899" lon="15.0537121855"><ele>3.02</ele><time>2011-10-14T09:10:13Z</time></trkpt><trkpt lat="44.1174387373" lon="15.0538755488"><ele>3.02</ele><time>2011-10-14T09:10:31Z</time></trkpt><trkpt lat="44.1180641949" lon="15.0540591963"><ele>3.02</ele><time>2011-10-14T09:10:51Z</time></trkpt><trkpt lat="44.1186364274" lon="15.0542413350"><ele>3.02</ele><time>2011-10-14T09:11:09Z</time></trkpt><trkpt lat="44.1192400921" lon="15.0544107333"><ele>2.06</ele><time>2011-10-14T09:11:28Z</time></trkpt><trkpt lat="44.1198250651" lon="15.0545937940"><ele>2.06</ele><time>2011-10-14T09:11:47Z</time></trkpt><trkpt lat="44.1202563141" lon="15.0547360349"><ele>2.06</ele><time>2011-10-14T09:12:01Z</time></trkpt><trkpt lat="44.1207831167" lon="15.0549006555"><ele>1.58</ele><time>2011-10-14T09:12:18Z</time></trkpt><trkpt lat="44.1212438699" lon="15.0550409686"><ele>2.06</ele><time>2011-10-14T09:12:33Z</time></trkpt><trkpt lat="44.1217988357" lon="15.0551881548"><ele>2.06</ele><time>2011-10-14T09:12:51Z</time></trkpt><trkpt lat="44.1223220341" lon="15.0553562120"><ele>2.06</ele><time>2011-10-14T09:13:08Z</time></trkpt><trkpt lat="44.1230027284" lon="15.0555499177"><ele>2.06</ele><time>2011-10-14T09:13:30Z</time></trkpt><trkpt lat="44.1236471292" lon="15.0556946732"><ele>2.54</ele><time>2011-10-14T09:13:51Z</time></trkpt><trkpt lat="44.1241983231" lon="15.0558367465"><ele>1.58</ele><time>2011-10-14T09:14:09Z</time></trkpt><trkpt lat="44.1246443242" lon="15.0558021292"><ele>2.54</ele><time>2011-10-14T09:14:23Z</time></trkpt><trkpt lat="44.1251785867" lon="15.0555188209"><ele>2.06</ele><time>2011-10-14T09:14:41Z</time></trkpt><trkpt lat="44.1257719416" lon="15.0550952833"><ele>2.54</ele><time>2011-10-14T09:15:02Z</time></trkpt><trkpt lat="44.1263951361" lon="15.0546400622"><ele>1.58</ele><time>2011-10-14T09:15:24Z</time></trkpt><trkpt lat="44.1269530356" lon="15.0542008504"><ele>1.10</ele><time>2011-10-14T09:15:44Z</time></trkpt><trkpt lat="44.1275106836" lon="15.0537501555"><ele>1.10</ele><time>2011-10-14T09:16:04Z</time></trkpt><trkpt lat="44.1281665675" lon="15.0532082655"><ele>0.14</ele><time>2011-10-14T09:16:28Z</time></trkpt><trkpt lat="44.1287864093" lon="15.0527204387"><ele>0.14</ele><time>2011-10-14T09:16:50Z</time></trkpt><trkpt lat="44.1294069216" lon="15.0522321090"><ele>1.10</ele><time>2011-10-14T09:17:12Z</time></trkpt><trkpt lat="44.1299399268" lon="15.0518503971"><ele>1.58</ele><time>2011-10-14T09:17:31Z</time></trkpt><trkpt lat="44.1304572579" lon="15.0514587946"><ele>1.10</ele><time>2011-10-14T09:17:49Z</time></trkpt><trkpt lat="44.1309245490" lon="15.0510702934"><ele>1.10</ele><time>2011-10-14T09:18:06Z</time></trkpt><trkpt lat="44.1315391101" lon="15.0505708996"><ele>1.58</ele><time>2011-10-14T09:18:28Z</time></trkpt><trkpt lat="44.1321867798" lon="15.0499810651"><ele>2.54</ele><time>2011-10-14T09:18:52Z</time></trkpt><trkpt lat="44.1327699926" lon="15.0495143607"><ele>2.54</ele><time>2011-10-14T09:19:13Z</time></trkpt><trkpt lat="44.1333464999" lon="15.0491242670"><ele>1.58</ele><time>2011-10-14T09:19:33Z</time></trkpt><trkpt lat="44.1338484921" lon="15.0486443192"><ele>2.06</ele><time>2011-10-14T09:19:52Z</time></trkpt><trkpt lat="44.1344081517" lon="15.0480876770"><ele>2.06</ele><time>2011-10-14T09:20:13Z</time></trkpt><trkpt lat="44.1349655483" lon="15.0474599563"><ele>0.62</ele><time>2011-10-14T09:20:35Z</time></trkpt><trkpt lat="44.1354445741" lon="15.0469288789"><ele>0.14</ele><time>2011-10-14T09:20:54Z</time></trkpt><trkpt lat="44.1360493284" lon="15.0463147368"><ele>1.58</ele><time>2011-10-14T09:21:17Z</time></trkpt><trkpt lat="44.1365792323" lon="15.0456513930"><ele>1.10</ele><time>2011-10-14T09:21:39Z</time></trkpt><trkpt lat="44.1371720005" lon="15.0450273603"><ele>1.10</ele><time>2011-10-14T09:22:02Z</time></trkpt><trkpt lat="44.1377411317" lon="15.0444524456"><ele>1.58</ele><time>2011-10-14T09:22:24Z</time></trkpt><trkpt lat="44.1382770706" lon="15.0439739227"><ele>1.58</ele><time>2011-10-14T09:22:44Z</time></trkpt><trkpt lat="44.1387951560" lon="15.0434959028"><ele>1.58</ele><time>2011-10-14T09:23:04Z</time></trkpt><trkpt lat="44.1395050194" lon="15.0427720416"><ele>1.10</ele><time>2011-10-14T09:23:32Z</time></trkpt><trkpt lat="44.1401880607" lon="15.0420993939"><ele>2.06</ele><time>2011-10-14T09:23:59Z</time></trkpt><trkpt lat="44.1409239918" lon="15.0414113235"><ele>1.10</ele><time>2011-10-14T09:24:28Z</time></trkpt><trkpt lat="44.1414984036" lon="15.0407945830"><ele>0.62</ele><time>2011-10-14T09:24:52Z</time></trkpt><trkpt lat="44.1420407966" lon="15.0402155612"><ele>2.06</ele><time>2011-10-14T09:25:15Z</time></trkpt><trkpt lat="44.1426848620" lon="15.0395888463"><ele>2.06</ele><time>2011-10-14T09:25:42Z</time></trkpt><trkpt lat="44.1432794742" lon="15.0388690084"><ele>2.54</ele><time>2011-10-14T09:26:09Z</time></trkpt><trkpt lat="44.1438176762" lon="15.0381478295"><ele>1.58</ele><time>2011-10-14T09:26:35Z</time></trkpt><trkpt lat="44.1444336623" lon="15.0373227149"><ele>1.58</ele><time>2011-10-14T09:27:05Z</time></trkpt><trkpt lat="44.1449494008" lon="15.0366946589"><ele>1.58</ele><time>2011-10-14T09:27:29Z</time></trkpt><trkpt lat="44.1454054601" lon="15.0361556187"><ele>0.62</ele><time>2011-10-14T09:27:50Z</time></trkpt><trkpt lat="44.1459558159" lon="15.0355176721"><ele>0.62</ele><time>2011-10-14T09:28:15Z</time></trkpt><trkpt lat="44.1464734823" lon="15.0349907856"><ele>0.62</ele><time>2011-10-14T09:28:38Z</time></trkpt><trkpt lat="44.1470325552" lon="15.0343257654"><ele>0.62</ele><time>2011-10-14T09:29:04Z</time></trkpt><trkpt lat="44.1475372296" lon="15.0337987952"><ele>0.62</ele><time>2011-10-14T09:29:27Z</time></trkpt><trkpt lat="44.1479994915" lon="15.0332328491"><ele>1.10</ele><time>2011-10-14T09:29:50Z</time></trkpt><trkpt lat="44.1484729853" lon="15.0326565932"><ele>1.10</ele><time>2011-10-14T09:30:14Z</time></trkpt><trkpt lat="44.1489554476" lon="15.0320573710"><ele>1.10</ele><time>2011-10-14T09:30:39Z</time></trkpt><trkpt lat="44.1494664084" lon="15.0314527005"><ele>1.58</ele><time>2011-10-14T09:31:05Z</time></trkpt><trkpt lat="44.1500352044" lon="15.0308851618"><ele>1.10</ele><time>2011-10-14T09:31:32Z</time></trkpt><trkpt lat="44.1505400464" lon="15.0303568505"><ele>0.62</ele><time>2011-10-14T09:31:56Z</time></trkpt><trkpt lat="44.1509870533" lon="15.0298885535"><ele>1.10</ele><time>2011-10-14T09:32:17Z</time></trkpt><trkpt lat="44.1515601240" lon="15.0293445680"><ele>1.10</ele><time>2011-10-14T09:32:42Z</time></trkpt><trkpt lat="44.1521625314" lon="15.0288407318"><ele>2.54</ele><time>2011-10-14T09:33:07Z</time></trkpt><trkpt lat="44.1526094545" lon="15.0284548290"><ele>1.58</ele><time>2011-10-14T09:33:26Z</time></trkpt><trkpt lat="44.1531871352" lon="15.0280435290"><ele>2.06</ele><time>2011-10-14T09:33:49Z</time></trkpt><trkpt lat="44.1537508182" lon="15.0276192371"><ele>1.10</ele><time>2011-10-14T09:34:11Z</time></trkpt><trkpt lat="44.1542036925" lon="15.0272671133"><ele>1.10</ele><time>2011-10-14T09:34:29Z</time></trkpt><trkpt lat="44.1548059322" lon="15.0267964695"><ele>1.10</ele><time>2011-10-14T09:34:53Z</time></trkpt><trkpt lat="44.1552645061" lon="15.0263643824"><ele>1.10</ele><time>2011-10-14T09:35:12Z</time></trkpt><trkpt lat="44.1556675080" lon="15.0259358995"><ele>1.58</ele><time>2011-10-14T09:35:29Z</time></trkpt><trkpt lat="44.1562183667" lon="15.0253670197"><ele>2.06</ele><time>2011-10-14T09:35:52Z</time></trkpt><trkpt lat="44.1566486098" lon="15.0249091163"><ele>1.58</ele><time>2011-10-14T09:36:10Z</time></trkpt><trkpt lat="44.1570944432" lon="15.0243934616"><ele>1.58</ele><time>2011-10-14T09:36:29Z</time></trkpt><trkpt lat="44.1574846208" lon="15.0239700917"><ele>0.62</ele><time>2011-10-14T09:36:45Z</time></trkpt><trkpt lat="44.1579940729" lon="15.0234453846"><ele>1.10</ele><time>2011-10-14T09:37:05Z</time></trkpt><trkpt lat="44.1583748627" lon="15.0230822805"><ele>1.10</ele><time>2011-10-14T09:37:20Z</time></trkpt><trkpt lat="44.1587935388" lon="15.0226896722"><ele>1.10</ele><time>2011-10-14T09:37:36Z</time></trkpt><trkpt lat="44.1591822077" lon="15.0222996622"><ele>0.62</ele><time>2011-10-14T09:37:51Z</time></trkpt><trkpt lat="44.1595411208" lon="15.0219306909"><ele>0.62</ele><time>2011-10-14T09:38:05Z</time></trkpt><trkpt lat="44.1599998623" lon="15.0215149485"><ele>-0.34</ele><time>2011-10-14T09:38:22Z</time></trkpt><trkpt lat="44.1604630463" lon="15.0211020559"><ele>-0.34</ele><time>2011-10-14T09:38:39Z</time></trkpt><trkpt lat="44.1607019305" lon="15.0208956096"><ele>0.62</ele><time>2011-10-14T09:38:48Z</time></trkpt><trkpt lat="44.1610403918" lon="15.0206042547"><ele>-0.82</ele><time>2011-10-14T09:39:00Z</time></trkpt><trkpt lat="44.1613651905" lon="15.0203347765"><ele>-0.82</ele><time>2011-10-14T09:39:12Z</time></trkpt><trkpt lat="44.1617821902" lon="15.0200051162"><ele>-0.82</ele><time>2011-10-14T09:39:27Z</time></trkpt><trkpt lat="44.1621181369" lon="15.0197390746"><ele>-0.34</ele><time>2011-10-14T09:39:39Z</time></trkpt><trkpt lat="44.1624776367" lon="15.0194435287"><ele>-0.82</ele><time>2011-10-14T09:39:52Z</time></trkpt><trkpt lat="44.1628062911" lon="15.0191878807"><ele>-0.82</ele><time>2011-10-14T09:40:04Z</time></trkpt><trkpt lat="44.1631289944" lon="15.0189577974"><ele>-0.82</ele><time>2011-10-14T09:40:16Z</time></trkpt><trkpt lat="44.1634250432" lon="15.0187532790"><ele>-0.34</ele><time>2011-10-14T09:40:27Z</time></trkpt><trkpt lat="44.1637381911" lon="15.0185601600"><ele>-0.34</ele><time>2011-10-14T09:40:39Z</time></trkpt><trkpt lat="44.1640567873" lon="15.0183931086"><ele>0.62</ele><time>2011-10-14T09:40:51Z</time></trkpt><trkpt lat="44.1643882915" lon="15.0182292424"><ele>0.62</ele><time>2011-10-14T09:41:03Z</time></trkpt><trkpt lat="44.1647181194" lon="15.0180181861"><ele>-1.79</ele><time>2011-10-14T09:41:17Z</time></trkpt><trkpt lat="44.1650808044" lon="15.0177723449"><ele>-1.30</ele><time>2011-10-14T09:41:31Z</time></trkpt><trkpt lat="44.1653421521" lon="15.0175726879"><ele>-0.82</ele><time>2011-10-14T09:41:42Z</time></trkpt><trkpt lat="44.1656760871" lon="15.0172576960"><ele>0.14</ele><time>2011-10-14T09:41:56Z</time></trkpt><trkpt lat="44.1660241038" lon="15.0169027224"><ele>0.14</ele><time>2011-10-14T09:42:11Z</time></trkpt><trkpt lat="44.1663377546" lon="15.0166765787"><ele>-0.82</ele><time>2011-10-14T09:42:24Z</time></trkpt><trkpt lat="44.1665425245" lon="15.0166686159"><ele>-0.34</ele><time>2011-10-14T09:42:33Z</time></trkpt><trkpt lat="44.1668782197" lon="15.0167958532"><ele>0.14</ele><time>2011-10-14T09:42:48Z</time></trkpt><trkpt lat="44.1671804711" lon="15.0169575401"><ele>0.62</ele><time>2011-10-14T09:43:03Z</time></trkpt><trkpt lat="44.1674688086" lon="15.0171199813"><ele>1.10</ele><time>2011-10-14T09:43:17Z</time></trkpt><trkpt lat="44.1677299049" lon="15.0173162855"><ele>1.10</ele><time>2011-10-14T09:43:30Z</time></trkpt><trkpt lat="44.1679510195" lon="15.0175151881"><ele>0.14</ele><time>2011-10-14T09:43:42Z</time></trkpt><trkpt lat="44.1681268718" lon="15.0176653918"><ele>-0.34</ele><time>2011-10-14T09:43:52Z</time></trkpt><trkpt lat="44.1683510877" lon="15.0178709999"><ele>0.14</ele><time>2011-10-14T09:44:05Z</time></trkpt><trkpt lat="44.1685639042" lon="15.0181160867"><ele>1.10</ele><time>2011-10-14T09:44:19Z</time></trkpt><trkpt lat="44.1687467974" lon="15.0184103753"><ele>2.06</ele><time>2011-10-14T09:44:32Z</time></trkpt><trkpt lat="44.1689702589" lon="15.0187652651"><ele>2.54</ele><time>2011-10-14T09:44:48Z</time></trkpt><trkpt lat="44.1691568401" lon="15.0189872179"><ele>3.02</ele><time>2011-10-14T09:45:00Z</time></trkpt><trkpt lat="44.1693578381" lon="15.0192317180"><ele>3.02</ele><time>2011-10-14T09:45:12Z</time></trkpt><trkpt lat="44.1695735045" lon="15.0194892939"><ele>2.54</ele><time>2011-10-14T09:45:25Z</time></trkpt><trkpt lat="44.1698072758" lon="15.0197862647"><ele>3.02</ele><time>2011-10-14T09:45:39Z</time></trkpt><trkpt lat="44.1700667795" lon="15.0200561620"><ele>2.54</ele><time>2011-10-14T09:45:54Z</time></trkpt><trkpt lat="44.1703316476" lon="15.0203341898"><ele>2.06</ele><time>2011-10-14T09:46:10Z</time></trkpt><trkpt lat="44.1704710387" lon="15.0204836391"><ele>2.54</ele><time>2011-10-14T09:46:20Z</time></trkpt><trkpt lat="44.1706236731" lon="15.0206532050"><ele>3.02</ele><time>2011-10-14T09:46:32Z</time></trkpt><trkpt lat="44.1707962565" lon="15.0208623335"><ele>3.98</ele><time>2011-10-14T09:46:46Z</time></trkpt><trkpt lat="44.1709294450" lon="15.0210627448"><ele>3.02</ele><time>2011-10-14T09:46:58Z</time></trkpt><trkpt lat="44.1709479690" lon="15.0211029779"><ele>2.54</ele><time>2011-10-14T09:47:01Z</time></trkpt><trkpt lat="44.1710616276" lon="15.0212662574"><ele>3.02</ele><time>2011-10-14T09:47:12Z</time></trkpt><trkpt lat="44.1712166928" lon="15.0213783234"><ele>1.58</ele><time>2011-10-14T09:47:23Z</time></trkpt><trkpt lat="44.1712995898" lon="15.0214411877"><ele>2.54</ele><time>2011-10-14T09:47:29Z</time></trkpt><trkpt lat="44.1714526433" lon="15.0215439498"><ele>2.06</ele><time>2011-10-14T09:47:40Z</time></trkpt><trkpt lat="44.1715264879" lon="15.0215781480"><ele>1.58</ele><time>2011-10-14T09:47:46Z</time></trkpt><trkpt lat="44.1717527993" lon="15.0216930639"><ele>1.58</ele><time>2011-10-14T09:47:59Z</time></trkpt><trkpt lat="44.1719773505" lon="15.0218331255"><ele>2.06</ele><time>2011-10-14T09:48:12Z</time></trkpt><trkpt lat="44.1721578967" lon="15.0219872687"><ele>2.54</ele><time>2011-10-14T09:48:24Z</time></trkpt><trkpt lat="44.1723288875" lon="15.0222143345"><ele>3.50</ele><time>2011-10-14T09:48:37Z</time></trkpt><trkpt lat="44.1723694559" lon="15.0222595967"><ele>3.02</ele><time>2011-10-14T09:48:40Z</time></trkpt><trkpt lat="44.1724659316" lon="15.0223954674"><ele>4.46</ele><time>2011-10-14T09:48:50Z</time></trkpt><trkpt lat="44.1724992078" lon="15.0226368662"><ele>3.50</ele><time>2011-10-14T09:49:03Z</time></trkpt><trkpt lat="44.1725013871" lon="15.0227622595"><ele>3.98</ele><time>2011-10-14T09:49:08Z</time></trkpt><trkpt lat="44.1725407820" lon="15.0229567196"><ele>3.50</ele><time>2011-10-14T09:49:17Z</time></trkpt><trkpt lat="44.1725609824" lon="15.0230985414"><ele>3.02</ele><time>2011-10-14T09:49:23Z</time></trkpt><trkpt lat="44.1726871300" lon="15.0234269444"><ele>3.50</ele><time>2011-10-14T09:49:36Z</time></trkpt><trkpt lat="44.1728016268" lon="15.0237338897"><ele>3.02</ele><time>2011-10-14T09:49:47Z</time></trkpt><trkpt lat="44.1728953365" lon="15.0240026135"><ele>2.54</ele><time>2011-10-14T09:49:57Z</time></trkpt><trkpt lat="44.1729043052" lon="15.0241720118"><ele>3.02</ele><time>2011-10-14T09:50:03Z</time></trkpt><trkpt lat="44.1729172133" lon="15.0243010093"><ele>2.54</ele><time>2011-10-14T09:50:08Z</time></trkpt><trkpt lat="44.1729584523" lon="15.0245546456"><ele>3.02</ele><time>2011-10-14T09:50:17Z</time></trkpt><trkpt lat="44.1730347276" lon="15.0250596553"><ele>3.02</ele><time>2011-10-14T09:50:32Z</time></trkpt><trkpt lat="44.1730438638" lon="15.0254580472"><ele>2.06</ele><time>2011-10-14T09:50:43Z</time></trkpt><trkpt lat="44.1730048042" lon="15.0258094165"><ele>2.54</ele><time>2011-10-14T09:50:53Z</time></trkpt><trkpt lat="44.1729746293" lon="15.0261091534"><ele>3.02</ele><time>2011-10-14T09:51:02Z</time></trkpt><trkpt lat="44.1729361564" lon="15.0264989957"><ele>2.06</ele><time>2011-10-14T09:51:13Z</time></trkpt><trkpt lat="44.1728950012" lon="15.0267755985"><ele>3.02</ele><time>2011-10-14T09:51:21Z</time></trkpt><trkpt lat="44.1728750523" lon="15.0270902552"><ele>2.54</ele><time>2011-10-14T09:51:30Z</time></trkpt><trkpt lat="44.1728534270" lon="15.0274977833"><ele>2.54</ele><time>2011-10-14T09:51:41Z</time></trkpt><trkpt lat="44.1728141997" lon="15.0279784016"><ele>2.54</ele><time>2011-10-14T09:51:54Z</time></trkpt><trkpt lat="44.1728116851" lon="15.0280898809"><ele>2.54</ele><time>2011-10-14T09:51:57Z</time></trkpt><trkpt lat="44.1727953404" lon="15.0282202195"><ele>1.58</ele><time>2011-10-14T09:52:01Z</time></trkpt><trkpt lat="44.1727758106" lon="15.0284622889"><ele>1.58</ele><time>2011-10-14T09:52:08Z</time></trkpt><trkpt lat="44.1727522574" lon="15.0287625287"><ele>0.62</ele><time>2011-10-14T09:52:17Z</time></trkpt><trkpt lat="44.1727183945" lon="15.0290496927"><ele>0.14</ele><time>2011-10-14T09:52:25Z</time></trkpt><trkpt lat="44.1726935841" lon="15.0293885730"><ele>-0.34</ele><time>2011-10-14T09:52:34Z</time></trkpt><trkpt lat="44.1726694442" lon="15.0297739729"><ele>0.62</ele><time>2011-10-14T09:52:44Z</time></trkpt><trkpt lat="44.1726442147" lon="15.0301014539"><ele>1.58</ele><time>2011-10-14T09:52:53Z</time></trkpt><trkpt lat="44.1726186499" lon="15.0305396598"><ele>2.54</ele><time>2011-10-14T09:53:05Z</time></trkpt><trkpt lat="44.1726152133" lon="15.0308219623"><ele>3.02</ele><time>2011-10-14T09:53:13Z</time></trkpt><trkpt lat="44.1726010479" lon="15.0311677996"><ele>2.54</ele><time>2011-10-14T09:53:23Z</time></trkpt><trkpt lat="44.1725765727" lon="15.0315009803"><ele>3.02</ele><time>2011-10-14T09:53:32Z</time></trkpt><trkpt lat="44.1725473199" lon="15.0318107754"><ele>3.02</ele><time>2011-10-14T09:53:41Z</time></trkpt><trkpt lat="44.1724778339" lon="15.0322387554"><ele>2.06</ele><time>2011-10-14T09:53:53Z</time></trkpt><trkpt lat="44.1724209208" lon="15.0326169468"><ele>2.54</ele><time>2011-10-14T09:54:03Z</time></trkpt><trkpt lat="44.1723550390" lon="15.0329375546"><ele>2.06</ele><time>2011-10-14T09:54:12Z</time></trkpt><trkpt lat="44.1723018978" lon="15.0332490262"><ele>2.06</ele><time>2011-10-14T09:54:21Z</time></trkpt><trkpt lat="44.1722730640" lon="15.0333951227"><ele>1.58</ele><time>2011-10-14T09:54:25Z</time></trkpt><trkpt lat="44.1721995547" lon="15.0337946881"><ele>1.58</ele><time>2011-10-14T09:54:36Z</time></trkpt><trkpt lat="44.1721392889" lon="15.0341144577"><ele>0.62</ele><time>2011-10-14T09:54:45Z</time></trkpt><trkpt lat="44.1720774304" lon="15.0344436150"><ele>1.10</ele><time>2011-10-14T09:54:54Z</time></trkpt><trkpt lat="44.1720233671" lon="15.0347813219"><ele>2.06</ele><time>2011-10-14T09:55:03Z</time></trkpt><trkpt lat="44.1719747521" lon="15.0351311825"><ele>2.54</ele><time>2011-10-14T09:55:12Z</time></trkpt><trkpt lat="44.1719477624" lon="15.0352678914"><ele>1.58</ele><time>2011-10-14T09:55:16Z</time></trkpt><trkpt lat="44.1719158273" lon="15.0354464259"><ele>1.10</ele><time>2011-10-14T09:55:21Z</time></trkpt><trkpt lat="44.1718647815" lon="15.0356792752"><ele>2.06</ele><time>2011-10-14T09:55:28Z</time></trkpt><trkpt lat="44.1718394682" lon="15.0358227734"><ele>2.54</ele><time>2011-10-14T09:55:32Z</time></trkpt><trkpt lat="44.1717706528" lon="15.0362090115"><ele>2.54</ele><time>2011-10-14T09:55:43Z</time></trkpt><trkpt lat="44.1717543919" lon="15.0362812635"><ele>2.06</ele><time>2011-10-14T09:55:45Z</time></trkpt><trkpt lat="44.1717052739" lon="15.0366232451"><ele>2.54</ele><time>2011-10-14T09:55:54Z</time></trkpt><trkpt lat="44.1716761887" lon="15.0370425917"><ele>2.54</ele><time>2011-10-14T09:56:05Z</time></trkpt><trkpt lat="44.1716760211" lon="15.0371820666"><ele>3.02</ele><time>2011-10-14T09:56:09Z</time></trkpt><trkpt lat="44.1716689803" lon="15.0373634510"><ele>2.06</ele><time>2011-10-14T09:56:14Z</time></trkpt><trkpt lat="44.1716015898" lon="15.0378097035"><ele>2.06</ele><time>2011-10-14T09:56:26Z</time></trkpt><trkpt lat="44.1715147533" lon="15.0382515136"><ele>1.10</ele><time>2011-10-14T09:56:38Z</time></trkpt><trkpt lat="44.1714322753" lon="15.0386220776"><ele>1.10</ele><time>2011-10-14T09:56:48Z</time></trkpt><trkpt lat="44.1713226400" lon="15.0390218943"><ele>1.10</ele><time>2011-10-14T09:56:59Z</time></trkpt><trkpt lat="44.1712315287" lon="15.0393701624"><ele>1.10</ele><time>2011-10-14T09:57:09Z</time></trkpt><trkpt lat="44.1711473744" lon="15.0397793669"><ele>2.06</ele><time>2011-10-14T09:57:20Z</time></trkpt><trkpt lat="44.1711100750" lon="15.0399678759"><ele>2.54</ele><time>2011-10-14T09:57:25Z</time></trkpt><trkpt lat="44.1710752062" lon="15.0401572231"><ele>2.06</ele><time>2011-10-14T09:57:30Z</time></trkpt><trkpt lat="44.1710235737" lon="15.0405889750"><ele>1.10</ele><time>2011-10-14T09:57:42Z</time></trkpt><trkpt lat="44.1709871963" lon="15.0408986025"><ele>0.62</ele><time>2011-10-14T09:57:51Z</time></trkpt><trkpt lat="44.1709794849" lon="15.0409651548"><ele>0.62</ele><time>2011-10-14T09:57:53Z</time></trkpt><trkpt lat="44.1709453706" lon="15.0412202999"><ele>1.10</ele><time>2011-10-14T09:58:00Z</time></trkpt><trkpt lat="44.1709167045" lon="15.0414644647"><ele>1.10</ele><time>2011-10-14T09:58:07Z</time></trkpt><trkpt lat="44.1709099151" lon="15.0415681489"><ele>1.10</ele><time>2011-10-14T09:58:10Z</time></trkpt><trkpt lat="44.1708838474" lon="15.0419608410"><ele>1.10</ele><time>2011-10-14T09:58:21Z</time></trkpt><trkpt lat="44.1708444525" lon="15.0422219373"><ele>1.10</ele><time>2011-10-14T09:58:29Z</time></trkpt><trkpt lat="44.1708385851" lon="15.0423224363"><ele>1.10</ele><time>2011-10-14T09:58:32Z</time></trkpt><trkpt lat="44.1707965918" lon="15.0425964408"><ele>0.62</ele><time>2011-10-14T09:58:40Z</time></trkpt><trkpt lat="44.1707764752" lon="15.0427841954"><ele>1.58</ele><time>2011-10-14T09:58:45Z</time></trkpt><trkpt lat="44.1707478929" lon="15.0431803241"><ele>2.06</ele><time>2011-10-14T09:58:56Z</time></trkpt><trkpt lat="44.1707280278" lon="15.0433508959"><ele>1.58</ele><time>2011-10-14T09:59:01Z</time></trkpt><trkpt lat="44.1706711147" lon="15.0437357090"><ele>1.10</ele><time>2011-10-14T09:59:12Z</time></trkpt><trkpt lat="44.1706660856" lon="15.0437720027"><ele>1.10</ele><time>2011-10-14T09:59:13Z</time></trkpt><trkpt lat="44.1706250980" lon="15.0440255553"><ele>1.58</ele><time>2011-10-14T09:59:20Z</time></trkpt><trkpt lat="44.1705888044" lon="15.0442359410"><ele>1.58</ele><time>2011-10-14T09:59:26Z</time></trkpt><trkpt lat="44.1705122776" lon="15.0446902402"><ele>1.10</ele><time>2011-10-14T09:59:39Z</time></trkpt><trkpt lat="44.1705004591" lon="15.0447529368"><ele>0.62</ele><time>2011-10-14T09:59:41Z</time></trkpt><trkpt lat="44.1704332363" lon="15.0451834314"><ele>0.62</ele><time>2011-10-14T09:59:53Z</time></trkpt><trkpt lat="44.1703635827" lon="15.0455762073"><ele>0.14</ele><time>2011-10-14T10:00:04Z</time></trkpt><trkpt lat="44.1703525186" lon="15.0456076395"><ele>0.62</ele><time>2011-10-14T10:00:05Z</time></trkpt><trkpt lat="44.1703384370" lon="15.0456808973"><ele>0.14</ele><time>2011-10-14T10:00:07Z</time></trkpt><trkpt lat="44.1702405363" lon="15.0460243039"><ele>0.14</ele><time>2011-10-14T10:00:17Z</time></trkpt><trkpt lat="44.1702171508" lon="15.0460884254"><ele>0.14</ele><time>2011-10-14T10:00:19Z</time></trkpt><trkpt lat="44.1701386124" lon="15.0463343505"><ele>1.58</ele><time>2011-10-14T10:00:26Z</time></trkpt><trkpt lat="44.1700350959" lon="15.0467194989"><ele>2.06</ele><time>2011-10-14T10:00:37Z</time></trkpt><trkpt lat="44.1699312441" lon="15.0470997859"><ele>2.54</ele><time>2011-10-14T10:00:48Z</time></trkpt><trkpt lat="44.1698597465" lon="15.0473385025"><ele>2.54</ele><time>2011-10-14T10:00:55Z</time></trkpt><trkpt lat="44.1697603371" lon="15.0476877764"><ele>2.54</ele><time>2011-10-14T10:01:05Z</time></trkpt><trkpt lat="44.1697185114" lon="15.0478553306"><ele>2.54</ele><time>2011-10-14T10:01:10Z</time></trkpt><trkpt lat="44.1696305014" lon="15.0481104758"><ele>1.58</ele><time>2011-10-14T10:01:18Z</time></trkpt><trkpt lat="44.1696136538" lon="15.0481787883"><ele>1.58</ele><time>2011-10-14T10:01:20Z</time></trkpt><trkpt lat="44.1695163399" lon="15.0484672934"><ele>2.06</ele><time>2011-10-14T10:01:29Z</time></trkpt><trkpt lat="44.1694849078" lon="15.0486349314"><ele>2.54</ele><time>2011-10-14T10:01:34Z</time></trkpt><trkpt lat="44.1694005858" lon="15.0490023941"><ele>2.54</ele><time>2011-10-14T10:01:45Z</time></trkpt><trkpt lat="44.1693894379" lon="15.0490730535"><ele>2.54</ele><time>2011-10-14T10:01:47Z</time></trkpt><trkpt lat="44.1693412419" lon="15.0493006222"><ele>2.06</ele><time>2011-10-14T10:01:54Z</time></trkpt><trkpt lat="44.1693285014" lon="15.0494639017"><ele>2.54</ele><time>2011-10-14T10:01:59Z</time></trkpt><trkpt lat="44.1693088040" lon="15.0498061348"><ele>3.98</ele><time>2011-10-14T10:02:09Z</time></trkpt><trkpt lat="44.1692997515" lon="15.0499357190"><ele>3.98</ele><time>2011-10-14T10:02:13Z</time></trkpt><trkpt lat="44.1692906152" lon="15.0501348730"><ele>3.98</ele><time>2011-10-14T10:02:19Z</time></trkpt><trkpt lat="44.1692764498" lon="15.0504820514"><ele>3.02</ele><time>2011-10-14T10:02:30Z</time></trkpt><trkpt lat="44.1692624521" lon="15.0506537128"><ele>3.50</ele><time>2011-10-14T10:02:35Z</time></trkpt><trkpt lat="44.1692437604" lon="15.0509084389"><ele>3.50</ele><time>2011-10-14T10:02:43Z</time></trkpt><trkpt lat="44.1692414973" lon="15.0510683656"><ele>2.54</ele><time>2011-10-14T10:02:48Z</time></trkpt><trkpt lat="44.1692258231" lon="15.0513872132"><ele>3.50</ele><time>2011-10-14T10:02:58Z</time></trkpt><trkpt lat="44.1692065448" lon="15.0516759697"><ele>3.98</ele><time>2011-10-14T10:03:07Z</time></trkpt><trkpt lat="44.1692010127" lon="15.0518698432"><ele>3.50</ele><time>2011-10-14T10:03:13Z</time></trkpt><trkpt lat="44.1691914573" lon="15.0519840047"><ele>3.50</ele><time>2011-10-14T10:03:17Z</time></trkpt><trkpt lat="44.1691759508" lon="15.0524103083"><ele>3.98</ele><time>2011-10-14T10:03:30Z</time></trkpt><trkpt lat="44.1691712569" lon="15.0527501944"><ele>3.98</ele><time>2011-10-14T10:03:41Z</time></trkpt><trkpt lat="44.1691711731" lon="15.0529595744"><ele>4.94</ele><time>2011-10-14T10:03:48Z</time></trkpt><trkpt lat="44.1691827402" lon="15.0531837065"><ele>4.46</ele><time>2011-10-14T10:03:56Z</time></trkpt><trkpt lat="44.1692380607" lon="15.0534904841"><ele>3.98</ele><time>2011-10-14T10:04:07Z</time></trkpt><trkpt lat="44.1692580935" lon="15.0536853634"><ele>3.98</ele><time>2011-10-14T10:04:14Z</time></trkpt><trkpt lat="44.1693129111" lon="15.0541173667"><ele>3.50</ele><time>2011-10-14T10:04:28Z</time></trkpt><trkpt lat="44.1693466064" lon="15.0544997491"><ele>3.50</ele><time>2011-10-14T10:04:40Z</time></trkpt><trkpt lat="44.1693960596" lon="15.0549448282"><ele>4.46</ele><time>2011-10-14T10:04:54Z</time></trkpt><trkpt lat="44.1694345325" lon="15.0553112011"><ele>3.50</ele><time>2011-10-14T10:05:06Z</time></trkpt><trkpt lat="44.1694660485" lon="15.0556198228"><ele>2.54</ele><time>2011-10-14T10:05:16Z</time></trkpt><trkpt lat="44.1695113108" lon="15.0559602119"><ele>3.02</ele><time>2011-10-14T10:05:27Z</time></trkpt><trkpt lat="44.1695442516" lon="15.0562689174"><ele>3.02</ele><time>2011-10-14T10:05:37Z</time></trkpt><trkpt lat="44.1695522983" lon="15.0563258305"><ele>3.02</ele><time>2011-10-14T10:05:39Z</time></trkpt><trkpt lat="44.1695828084" lon="15.0566541497"><ele>2.06</ele><time>2011-10-14T10:05:51Z</time></trkpt><trkpt lat="44.1695936210" lon="15.0567569956"><ele>2.06</ele><time>2011-10-14T10:05:55Z</time></trkpt><trkpt lat="44.1696111392" lon="15.0570187625"><ele>1.58</ele><time>2011-10-14T10:06:05Z</time></trkpt><trkpt lat="44.1696161684" lon="15.0571023300"><ele>0.62</ele><time>2011-10-14T10:06:08Z</time></trkpt><trkpt lat="44.1696570721" lon="15.0574226864"><ele>1.10</ele><time>2011-10-14T10:06:19Z</time></trkpt><trkpt lat="44.1697120573" lon="15.0578438770"><ele>2.06</ele><time>2011-10-14T10:06:32Z</time></trkpt><trkpt lat="44.1697368678" lon="15.0581101701"><ele>1.58</ele><time>2011-10-14T10:06:41Z</time></trkpt><trkpt lat="44.1697802860" lon="15.0585178658"><ele>1.58</ele><time>2011-10-14T10:06:54Z</time></trkpt><trkpt lat="44.1698363610" lon="15.0588968117"><ele>0.62</ele><time>2011-10-14T10:07:06Z</time></trkpt><trkpt lat="44.1698832996" lon="15.0592665374"><ele>-1.30</ele><time>2011-10-14T10:07:19Z</time></trkpt><trkpt lat="44.1699300706" lon="15.0596527755"><ele>-0.34</ele><time>2011-10-14T10:07:31Z</time></trkpt><trkpt lat="44.1699699685" lon="15.0600634050"><ele>0.62</ele><time>2011-10-14T10:07:44Z</time></trkpt><trkpt lat="44.1699960362" lon="15.0603699312"><ele>-0.34</ele><time>2011-10-14T10:07:55Z</time></trkpt><trkpt lat="44.1699990537" lon="15.0604237430"><ele>-0.34</ele><time>2011-10-14T10:07:57Z</time></trkpt><trkpt lat="44.1700047534" lon="15.0606168620"><ele>-0.34</ele><time>2011-10-14T10:08:04Z</time></trkpt><trkpt lat="44.1700262111" lon="15.0610449258"><ele>0.14</ele><time>2011-10-14T10:08:19Z</time></trkpt><trkpt lat="44.1700424720" lon="15.0612995680"><ele>-0.34</ele><time>2011-10-14T10:08:28Z</time></trkpt><trkpt lat="44.1700482555" lon="15.0613602530"><ele>-0.34</ele><time>2011-10-14T10:08:30Z</time></trkpt><trkpt lat="44.1700524464" lon="15.0614686310"><ele>-0.82</ele><time>2011-10-14T10:08:34Z</time></trkpt><trkpt lat="44.1700985469" lon="15.0618166476"><ele>-0.82</ele><time>2011-10-14T10:08:46Z</time></trkpt><trkpt lat="44.1701171547" lon="15.0619676057"><ele>-1.30</ele><time>2011-10-14T10:08:51Z</time></trkpt><trkpt lat="44.1701274645" lon="15.0621539354"><ele>-0.82</ele><time>2011-10-14T10:08:57Z</time></trkpt><trkpt lat="44.1701710504" lon="15.0625177100"><ele>-0.34</ele><time>2011-10-14T10:09:09Z</time></trkpt><trkpt lat="44.1702401172" lon="15.0629410800"><ele>0.14</ele><time>2011-10-14T10:09:23Z</time></trkpt><trkpt lat="44.1702888999" lon="15.0632924493"><ele>0.62</ele><time>2011-10-14T10:09:34Z</time></trkpt><trkpt lat="44.1703099385" lon="15.0636123028"><ele>0.62</ele><time>2011-10-14T10:09:44Z</time></trkpt><trkpt lat="44.1703136265" lon="15.0637009833"><ele>0.62</ele><time>2011-10-14T10:09:47Z</time></trkpt><trkpt lat="44.1703318153" lon="15.0638757460"><ele>-0.34</ele><time>2011-10-14T10:09:53Z</time></trkpt><trkpt lat="44.1703457292" lon="15.0641487446"><ele>-0.82</ele><time>2011-10-14T10:10:02Z</time></trkpt><trkpt lat="44.1703859624" lon="15.0645052269"><ele>-1.30</ele><time>2011-10-14T10:10:13Z</time></trkpt><trkpt lat="44.1704171430" lon="15.0648456998"><ele>0.14</ele><time>2011-10-14T10:10:23Z</time></trkpt><trkpt lat="44.1704309732" lon="15.0650456920"><ele>-0.82</ele><time>2011-10-14T10:10:29Z</time></trkpt><trkpt lat="44.1704562027" lon="15.0653365441"><ele>-0.34</ele><time>2011-10-14T10:10:38Z</time></trkpt><trkpt lat="44.1704917420" lon="15.0656794477"><ele>0.14</ele><time>2011-10-14T10:10:49Z</time></trkpt><trkpt lat="44.1705343220" lon="15.0660454016"><ele>0.62</ele><time>2011-10-14T10:11:00Z</time></trkpt><trkpt lat="44.1705615632" lon="15.0663392711"><ele>0.62</ele><time>2011-10-14T10:11:09Z</time></trkpt><trkpt lat="44.1705912352" lon="15.0666542631"><ele>1.10</ele><time>2011-10-14T10:11:19Z</time></trkpt><trkpt lat="44.1706288699" lon="15.0670264196"><ele>1.10</ele><time>2011-10-14T10:11:31Z</time></trkpt><trkpt lat="44.1706362460" lon="15.0670875236"><ele>1.10</ele><time>2011-10-14T10:11:33Z</time></trkpt><trkpt lat="44.1706520040" lon="15.0672784634"><ele>2.06</ele><time>2011-10-14T10:11:39Z</time></trkpt><trkpt lat="44.1706740484" lon="15.0675973110"><ele>1.58</ele><time>2011-10-14T10:11:50Z</time></trkpt><trkpt lat="44.1707206517" lon="15.0679768436"><ele>2.06</ele><time>2011-10-14T10:12:02Z</time></trkpt><trkpt lat="44.1707500722" lon="15.0683217589"><ele>1.58</ele><time>2011-10-14T10:12:13Z</time></trkpt><trkpt lat="44.1707821749" lon="15.0686305482"><ele>2.06</ele><time>2011-10-14T10:12:23Z</time></trkpt><trkpt lat="44.1708153673" lon="15.0690116733"><ele>1.58</ele><time>2011-10-14T10:12:35Z</time></trkpt><trkpt lat="44.1708258446" lon="15.0692989212"><ele>1.58</ele><time>2011-10-14T10:12:45Z</time></trkpt><trkpt lat="44.1708522476" lon="15.0695662200"><ele>1.58</ele><time>2011-10-14T10:12:54Z</time></trkpt><trkpt lat="44.1708746273" lon="15.0698597543"><ele>2.06</ele><time>2011-10-14T10:13:04Z</time></trkpt><trkpt lat="44.1708810814" lon="15.0699879974"><ele>2.06</ele><time>2011-10-14T10:13:08Z</time></trkpt><trkpt lat="44.1708978452" lon="15.0701181684"><ele>2.06</ele><time>2011-10-14T10:13:12Z</time></trkpt><trkpt lat="44.1709553450" lon="15.0705732219"><ele>3.02</ele><time>2011-10-14T10:13:25Z</time></trkpt><trkpt lat="44.1709840111" lon="15.0709020440"><ele>2.06</ele><time>2011-10-14T10:13:35Z</time></trkpt><trkpt lat="44.1710133478" lon="15.0711198896"><ele>1.58</ele><time>2011-10-14T10:13:42Z</time></trkpt><trkpt lat="44.1710250825" lon="15.0712415949"><ele>1.10</ele><time>2011-10-14T10:13:46Z</time></trkpt><trkpt lat="44.1710716020" lon="15.0716350414"><ele>0.62</ele><time>2011-10-14T10:13:58Z</time></trkpt><trkpt lat="44.1711270064" lon="15.0720193516"><ele>1.10</ele><time>2011-10-14T10:14:09Z</time></trkpt><trkpt lat="44.1711774655" lon="15.0724148937"><ele>1.10</ele><time>2011-10-14T10:14:20Z</time></trkpt><trkpt lat="44.1712078918" lon="15.0728914049"><ele>1.10</ele><time>2011-10-14T10:14:33Z</time></trkpt><trkpt lat="44.1711513139" lon="15.0732679199"><ele>0.14</ele><time>2011-10-14T10:14:43Z</time></trkpt><trkpt lat="44.1711131763" lon="15.0736123323"><ele>0.14</ele><time>2011-10-14T10:14:52Z</time></trkpt><trkpt lat="44.1710956581" lon="15.0740749296"><ele>0.14</ele><time>2011-10-14T10:15:04Z</time></trkpt><trkpt lat="44.1710709315" lon="15.0744465832"><ele>0.14</ele><time>2011-10-14T10:15:14Z</time></trkpt><trkpt lat="44.1710599512" lon="15.0745199248"><ele>0.14</ele><time>2011-10-14T10:15:16Z</time></trkpt><trkpt lat="44.1710487194" lon="15.0746970344"><ele>0.62</ele><time>2011-10-14T10:15:21Z</time></trkpt><trkpt lat="44.1710462887" lon="15.0750518404"><ele>0.62</ele><time>2011-10-14T10:15:31Z</time></trkpt><trkpt lat="44.1710340511" lon="15.0755361468"><ele>-0.34</ele><time>2011-10-14T10:15:44Z</time></trkpt><trkpt lat="44.1710291896" lon="15.0760501251"><ele>0.14</ele><time>2011-10-14T10:15:58Z</time></trkpt><trkpt lat="44.1710655671" lon="15.0764492713"><ele>0.14</ele><time>2011-10-14T10:16:09Z</time></trkpt><trkpt lat="44.1711176187" lon="15.0767806917"><ele>-0.34</ele><time>2011-10-14T10:16:19Z</time></trkpt><trkpt lat="44.1712020244" lon="15.0772259384"><ele>0.62</ele><time>2011-10-14T10:16:33Z</time></trkpt><trkpt lat="44.1713067982" lon="15.0776381604"><ele>-0.34</ele><time>2011-10-14T10:16:46Z</time></trkpt><trkpt lat="44.1714029387" lon="15.0779362209"><ele>-0.34</ele><time>2011-10-14T10:16:56Z</time></trkpt><trkpt lat="44.1714539845" lon="15.0782231335"><ele>-0.34</ele><time>2011-10-14T10:17:06Z</time></trkpt><trkpt lat="44.1714780405" lon="15.0784999039"><ele>0.62</ele><time>2011-10-14T10:17:16Z</time></trkpt><trkpt lat="44.1714930441" lon="15.0786149874"><ele>0.62</ele><time>2011-10-14T10:17:20Z</time></trkpt><trkpt lat="44.1715119034" lon="15.0788785983"><ele>0.14</ele><time>2011-10-14T10:17:29Z</time></trkpt><trkpt lat="44.1715186089" lon="15.0789982919"><ele>-0.34</ele><time>2011-10-14T10:17:33Z</time></trkpt><trkpt lat="44.1715546511" lon="15.0793665927"><ele>-0.34</ele><time>2011-10-14T10:17:45Z</time></trkpt><trkpt lat="44.1715889331" lon="15.0796457101"><ele>-0.34</ele><time>2011-10-14T10:17:54Z</time></trkpt><trkpt lat="44.1716222093" lon="15.0799912121"><ele>0.14</ele><time>2011-10-14T10:18:05Z</time></trkpt><trkpt lat="44.1716358718" lon="15.0803072937"><ele>0.14</ele><time>2011-10-14T10:18:15Z</time></trkpt><trkpt lat="44.1716166772" lon="15.0805944577"><ele>0.14</ele><time>2011-10-14T10:18:25Z</time></trkpt><trkpt lat="44.1715963930" lon="15.0809079409"><ele>0.14</ele><time>2011-10-14T10:18:35Z</time></trkpt><trkpt lat="44.1715869214" lon="15.0810051709"><ele>-0.34</ele><time>2011-10-14T10:18:38Z</time></trkpt><trkpt lat="44.1715652961" lon="15.0813891459"><ele>-0.82</ele><time>2011-10-14T10:18:50Z</time></trkpt><trkpt lat="44.1715422459" lon="15.0817130227"><ele>-0.34</ele><time>2011-10-14T10:19:00Z</time></trkpt><trkpt lat="44.1715326905" lon="15.0819705985"><ele>-0.34</ele><time>2011-10-14T10:19:08Z</time></trkpt><trkpt lat="44.1715357918" lon="15.0820914656"><ele>-0.82</ele><time>2011-10-14T10:19:12Z</time></trkpt><trkpt lat="44.1715518851" lon="15.0826077908"><ele>-0.34</ele><time>2011-10-14T10:19:27Z</time></trkpt><trkpt lat="44.1715574171" lon="15.0829754211"><ele>-0.82</ele><time>2011-10-14T10:19:37Z</time></trkpt><trkpt lat="44.1715533100" lon="15.0832784269"><ele>-1.30</ele><time>2011-10-14T10:19:45Z</time></trkpt><trkpt lat="44.1715552378" lon="15.0834557042"><ele>-1.30</ele><time>2011-10-14T10:19:50Z</time></trkpt><trkpt lat="44.1715759411" lon="15.0839100033"><ele>-0.82</ele><time>2011-10-14T10:20:02Z</time></trkpt><trkpt lat="44.1715844907" lon="15.0843490474"><ele>0.62</ele><time>2011-10-14T10:20:14Z</time></trkpt><trkpt lat="44.1715782881" lon="15.0844148453"><ele>0.62</ele><time>2011-10-14T10:20:16Z</time></trkpt><trkpt lat="44.1715194471" lon="15.0848414004"><ele>-0.34</ele><time>2011-10-14T10:20:28Z</time></trkpt><trkpt lat="44.1714613605" lon="15.0853109546"><ele>0.62</ele><time>2011-10-14T10:20:40Z</time></trkpt><trkpt lat="44.1714083031" lon="15.0858158804"><ele>0.62</ele><time>2011-10-14T10:20:53Z</time></trkpt><trkpt lat="44.1713469476" lon="15.0862058066"><ele>1.10</ele><time>2011-10-14T10:21:03Z</time></trkpt><trkpt lat="44.1712580994" lon="15.0865974091"><ele>0.14</ele><time>2011-10-14T10:21:13Z</time></trkpt><trkpt lat="44.1711512301" lon="15.0870687235"><ele>0.14</ele><time>2011-10-14T10:21:25Z</time></trkpt><trkpt lat="44.1710810736" lon="15.0874332525"><ele>-0.34</ele><time>2011-10-14T10:21:34Z</time></trkpt><trkpt lat="44.1709550098" lon="15.0879391842"><ele>1.10</ele><time>2011-10-14T10:21:47Z</time></trkpt><trkpt lat="44.1708871163" lon="15.0883723609"><ele>0.14</ele><time>2011-10-14T10:21:58Z</time></trkpt><trkpt lat="44.1708067339" lon="15.0887694117"><ele>0.14</ele><time>2011-10-14T10:22:08Z</time></trkpt><trkpt lat="44.1707392596" lon="15.0890779495"><ele>-0.34</ele><time>2011-10-14T10:22:16Z</time></trkpt><trkpt lat="44.1706769820" lon="15.0894690491"><ele>-0.82</ele><time>2011-10-14T10:22:26Z</time></trkpt><trkpt lat="44.1706555244" lon="15.0898571312"><ele>-0.82</ele><time>2011-10-14T10:22:36Z</time></trkpt><trkpt lat="44.1706442926" lon="15.0902497396"><ele>0.14</ele><time>2011-10-14T10:22:46Z</time></trkpt><trkpt lat="44.1706304625" lon="15.0906293560"><ele>0.14</ele><time>2011-10-14T10:22:56Z</time></trkpt><trkpt lat="44.1705944203" lon="15.0910163485"><ele>-0.34</ele><time>2011-10-14T10:23:06Z</time></trkpt><trkpt lat="44.1705541033" lon="15.0913517922"><ele>-0.34</ele><time>2011-10-14T10:23:15Z</time></trkpt><trkpt lat="44.1705371719" lon="15.0915361103"><ele>-0.34</ele><time>2011-10-14T10:23:20Z</time></trkpt><trkpt lat="44.1705056559" lon="15.0919526909"><ele>-0.82</ele><time>2011-10-14T10:23:31Z</time></trkpt><trkpt lat="44.1704432946" lon="15.0923794974"><ele>-0.82</ele><time>2011-10-14T10:23:42Z</time></trkpt><trkpt lat="44.1703738924" lon="15.0928078964"><ele>-1.30</ele><time>2011-10-14T10:23:53Z</time></trkpt><trkpt lat="44.1703397781" lon="15.0932369661"><ele>-1.30</ele><time>2011-10-14T10:24:04Z</time></trkpt><trkpt lat="44.1703329049" lon="15.0938185025"><ele>-0.34</ele><time>2011-10-14T10:24:19Z</time></trkpt><trkpt lat="44.1703349166" lon="15.0942752324"><ele>0.14</ele><time>2011-10-14T10:24:31Z</time></trkpt><trkpt lat="44.1703407839" lon="15.0944555271"><ele>0.62</ele><time>2011-10-14T10:24:36Z</time></trkpt><trkpt lat="44.1703839507" lon="15.0947316270"><ele>0.14</ele><time>2011-10-14T10:24:44Z</time></trkpt><trkpt lat="44.1704546101" lon="15.0951595232"><ele>0.14</ele><time>2011-10-14T10:24:56Z</time></trkpt><trkpt lat="44.1705549415" lon="15.0955462642"><ele>1.58</ele><time>2011-10-14T10:25:07Z</time></trkpt><trkpt lat="44.1706416104" lon="15.0959222764"><ele>1.10</ele><time>2011-10-14T10:25:19Z</time></trkpt><trkpt lat="44.1706991941" lon="15.0963264517"><ele>1.10</ele><time>2011-10-14T10:25:31Z</time></trkpt><trkpt lat="44.1708055604" lon="15.0967258494"><ele>2.06</ele><time>2011-10-14T10:25:43Z</time></trkpt><trkpt lat="44.1708846856" lon="15.0969482213"><ele>1.58</ele><time>2011-10-14T10:25:51Z</time></trkpt><trkpt lat="44.1709377430" lon="15.0973891094"><ele>1.10</ele><time>2011-10-14T10:26:05Z</time></trkpt><trkpt lat="44.1709669121" lon="15.0976617727"><ele>0.62</ele><time>2011-10-14T10:26:13Z</time></trkpt><trkpt lat="44.1710053012" lon="15.0981315784"><ele>0.14</ele><time>2011-10-14T10:26:26Z</time></trkpt><trkpt lat="44.1710422654" lon="15.0986318942"><ele>-0.34</ele><time>2011-10-14T10:26:39Z</time></trkpt><trkpt lat="44.1710954066" lon="15.0991634745"><ele>-0.34</ele><time>2011-10-14T10:26:53Z</time></trkpt><trkpt lat="44.1711101588" lon="15.0995304342"><ele>0.14</ele><time>2011-10-14T10:27:03Z</time></trkpt><trkpt lat="44.1711239051" lon="15.0999020040"><ele>0.14</ele><time>2011-10-14T10:27:13Z</time></trkpt><trkpt lat="44.1711440217" lon="15.1004168205"><ele>1.10</ele><time>2011-10-14T10:27:27Z</time></trkpt><trkpt lat="44.1711752862" lon="15.1008817647"><ele>1.58</ele><time>2011-10-14T10:27:40Z</time></trkpt><trkpt lat="44.1712390725" lon="15.1013545040"><ele>0.14</ele><time>2011-10-14T10:27:54Z</time></trkpt><trkpt lat="44.1712617036" lon="15.1017114054"><ele>-0.34</ele><time>2011-10-14T10:28:04Z</time></trkpt><trkpt lat="44.1712621227" lon="15.1021707337"><ele>0.14</ele><time>2011-10-14T10:28:17Z</time></trkpt><trkpt lat="44.1712623741" lon="15.1025772560"><ele>0.62</ele><time>2011-10-14T10:28:28Z</time></trkpt><trkpt lat="44.1713130008" lon="15.1030890550"><ele>-0.34</ele><time>2011-10-14T10:28:42Z</time></trkpt><trkpt lat="44.1713690758" lon="15.1034395862"><ele>1.10</ele><time>2011-10-14T10:28:52Z</time></trkpt><trkpt lat="44.1714383941" lon="15.1038546581"><ele>1.58</ele><time>2011-10-14T10:29:04Z</time></trkpt><trkpt lat="44.1715248115" lon="15.1042170078"><ele>1.58</ele><time>2011-10-14T10:29:15Z</time></trkpt><trkpt lat="44.1715581715" lon="15.1045788545"><ele>1.10</ele><time>2011-10-14T10:29:26Z</time></trkpt><trkpt lat="44.1715449281" lon="15.1049812697"><ele>-0.34</ele><time>2011-10-14T10:29:37Z</time></trkpt><trkpt lat="44.1715516336" lon="15.1053442899"><ele>-0.34</ele><time>2011-10-14T10:29:47Z</time></trkpt><trkpt lat="44.1715463530" lon="15.1057785563"><ele>-0.82</ele><time>2011-10-14T10:29:58Z</time></trkpt><trkpt lat="44.1715321038" lon="15.1061616093"><ele>0.14</ele><time>2011-10-14T10:30:07Z</time></trkpt><trkpt lat="44.1715237219" lon="15.1066366117"><ele>0.14</ele><time>2011-10-14T10:30:18Z</time></trkpt><trkpt lat="44.1714777891" lon="15.1072047371"><ele>0.14</ele><time>2011-10-14T10:30:31Z</time></trkpt><trkpt lat="44.1714191996" lon="15.1077680010"><ele>-0.82</ele><time>2011-10-14T10:30:44Z</time></trkpt><trkpt lat="44.1713616159" lon="15.1082444284"><ele>-0.34</ele><time>2011-10-14T10:30:55Z</time></trkpt><trkpt lat="44.1713276692" lon="15.1088177506"><ele>-0.34</ele><time>2011-10-14T10:31:08Z</time></trkpt><trkpt lat="44.1713066306" lon="15.1092952676"><ele>0.14</ele><time>2011-10-14T10:31:19Z</time></trkpt><trkpt lat="44.1712824069" lon="15.1096742135"><ele>-0.82</ele><time>2011-10-14T10:31:28Z</time></trkpt><trkpt lat="44.1712695826" lon="15.1101513114"><ele>-0.82</ele><time>2011-10-14T10:31:39Z</time></trkpt><trkpt lat="44.1712816525" lon="15.1107167546"><ele>-0.82</ele><time>2011-10-14T10:31:52Z</time></trkpt><trkpt lat="44.1712956503" lon="15.1110524498"><ele>-0.34</ele><time>2011-10-14T10:32:00Z</time></trkpt><trkpt lat="44.1712942254" lon="15.1112267934"><ele>-0.34</ele><time>2011-10-14T10:32:04Z</time></trkpt><trkpt lat="44.1712655593" lon="15.1117241755"><ele>0.14</ele><time>2011-10-14T10:32:16Z</time></trkpt><trkpt lat="44.1712277569" lon="15.1121489704"><ele>0.14</ele><time>2011-10-14T10:32:26Z</time></trkpt><trkpt lat="44.1711813211" lon="15.1125350408"><ele>-0.34</ele><time>2011-10-14T10:32:35Z</time></trkpt><trkpt lat="44.1711353883" lon="15.1130045950"><ele>-0.82</ele><time>2011-10-14T10:32:46Z</time></trkpt><trkpt lat="44.1710876115" lon="15.1134746522"><ele>-1.79</ele><time>2011-10-14T10:32:57Z</time></trkpt><trkpt lat="44.1710168682" lon="15.1139977667"><ele>-1.79</ele><time>2011-10-14T10:33:09Z</time></trkpt><trkpt lat="44.1709526628" lon="15.1145184506"><ele>-1.79</ele><time>2011-10-14T10:33:21Z</time></trkpt><trkpt lat="44.1709108371" lon="15.1150350273"><ele>-1.79</ele><time>2011-10-14T10:33:33Z</time></trkpt><trkpt lat="44.1708634794" lon="15.1156547014"><ele>-1.30</ele><time>2011-10-14T10:33:47Z</time></trkpt><trkpt lat="44.1708542593" lon="15.1161925681"><ele>-0.82</ele><time>2011-10-14T10:33:59Z</time></trkpt><trkpt lat="44.1708312090" lon="15.1167696621"><ele>-1.30</ele><time>2011-10-14T10:34:12Z</time></trkpt><trkpt lat="44.1708346456" lon="15.1173792779"><ele>-1.30</ele><time>2011-10-14T10:34:26Z</time></trkpt><trkpt lat="44.1708203126" lon="15.1179935876"><ele>-1.30</ele><time>2011-10-14T10:34:40Z</time></trkpt><trkpt lat="44.1708075721" lon="15.1184322126"><ele>-1.30</ele><time>2011-10-14T10:34:50Z</time></trkpt><trkpt lat="44.1708251741" lon="15.1189127471"><ele>-0.82</ele><time>2011-10-14T10:35:01Z</time></trkpt><trkpt lat="44.1708229948" lon="15.1193492766"><ele>-0.82</ele><time>2011-10-14T10:35:11Z</time></trkpt><trkpt lat="44.1708287783" lon="15.1197431423"><ele>0.14</ele><time>2011-10-14T10:35:20Z</time></trkpt><trkpt lat="44.1708408482" lon="15.1202251017"><ele>0.14</ele><time>2011-10-14T10:35:31Z</time></trkpt><trkpt lat="44.1708461288" lon="15.1207555085"><ele>0.14</ele><time>2011-10-14T10:35:43Z</time></trkpt><trkpt lat="44.1708439495" lon="15.1213185210"><ele>0.14</ele><time>2011-10-14T10:35:56Z</time></trkpt><trkpt lat="44.1708002798" lon="15.1218441501"><ele>0.14</ele><time>2011-10-14T10:36:08Z</time></trkpt><trkpt lat="44.1707110126" lon="15.1224068273"><ele>0.62</ele><time>2011-10-14T10:36:21Z</time></trkpt><trkpt lat="44.1706661694" lon="15.1228388306"><ele>-1.30</ele><time>2011-10-14T10:36:31Z</time></trkpt><trkpt lat="44.1706341505" lon="15.1233674772"><ele>-1.30</ele><time>2011-10-14T10:36:43Z</time></trkpt><trkpt lat="44.1706323903" lon="15.1238424797"><ele>-0.82</ele><time>2011-10-14T10:36:54Z</time></trkpt><trkpt lat="44.1706704441" lon="15.1243188232"><ele>-0.82</ele><time>2011-10-14T10:37:05Z</time></trkpt><trkpt lat="44.1707375832" lon="15.1248240843"><ele>-1.30</ele><time>2011-10-14T10:37:17Z</time></trkpt><trkpt lat="44.1708314605" lon="15.1253152639"><ele>-1.79</ele><time>2011-10-14T10:37:29Z</time></trkpt><trkpt lat="44.1709219012" lon="15.1258125622"><ele>-1.30</ele><time>2011-10-14T10:37:41Z</time></trkpt><trkpt lat="44.1709821671" lon="15.1264142152"><ele>-1.30</ele><time>2011-10-14T10:37:55Z</time></trkpt><trkpt lat="44.1710044630" lon="15.1269378327"><ele>-0.82</ele><time>2011-10-14T10:38:07Z</time></trkpt><trkpt lat="44.1710410081" lon="15.1275482867"><ele>-0.82</ele><time>2011-10-14T10:38:21Z</time></trkpt><trkpt lat="44.1710782237" lon="15.1281496882"><ele>-0.34</ele><time>2011-10-14T10:38:35Z</time></trkpt><trkpt lat="44.1710935626" lon="15.1286133751"><ele>0.62</ele><time>2011-10-14T10:38:46Z</time></trkpt><trkpt lat="44.1711383220" lon="15.1291623060"><ele>1.10</ele><time>2011-10-14T10:38:59Z</time></trkpt><trkpt lat="44.1711471230" lon="15.1295318641"><ele>0.62</ele><time>2011-10-14T10:39:08Z</time></trkpt><trkpt lat="44.1711360589" lon="15.1300426573"><ele>0.62</ele><time>2011-10-14T10:39:20Z</time></trkpt><trkpt lat="44.1711286828" lon="15.1305948570"><ele>0.14</ele><time>2011-10-14T10:39:33Z</time></trkpt><trkpt lat="44.1711161938" lon="15.1311132777"><ele>0.62</ele><time>2011-10-14T10:39:45Z</time></trkpt><trkpt lat="44.1711020283" lon="15.1315848436"><ele>0.62</ele><time>2011-10-14T10:39:56Z</time></trkpt><trkpt lat="44.1710692551" lon="15.1320107281"><ele>1.10</ele><time>2011-10-14T10:40:06Z</time></trkpt><trkpt lat="44.1710472945" lon="15.1325233653"><ele>1.10</ele><time>2011-10-14T10:40:18Z</time></trkpt><trkpt lat="44.1710540839" lon="15.1330404449"><ele>1.10</ele><time>2011-10-14T10:40:30Z</time></trkpt><trkpt lat="44.1710942332" lon="15.1337742805"><ele>0.62</ele><time>2011-10-14T10:40:47Z</time></trkpt><trkpt lat="44.1710762959" lon="15.1342415716"><ele>0.62</ele><time>2011-10-14T10:40:58Z</time></trkpt><trkpt lat="44.1710515693" lon="15.1346731558"><ele>1.10</ele><time>2011-10-14T10:41:08Z</time></trkpt><trkpt lat="44.1710278485" lon="15.1351816021"><ele>0.14</ele><time>2011-10-14T10:41:20Z</time></trkpt><trkpt lat="44.1709871124" lon="15.1357822493"><ele>0.14</ele><time>2011-10-14T10:41:34Z</time></trkpt><trkpt lat="44.1709717736" lon="15.1365521271"><ele>-0.34</ele><time>2011-10-14T10:41:52Z</time></trkpt><trkpt lat="44.1709617153" lon="15.1370709669"><ele>0.14</ele><time>2011-10-14T10:42:04Z</time></trkpt><trkpt lat="44.1709736176" lon="15.1375947520"><ele>0.14</ele><time>2011-10-14T10:42:16Z</time></trkpt><trkpt lat="44.1709833406" lon="15.1382049546"><ele>-0.82</ele><time>2011-10-14T10:42:30Z</time></trkpt><trkpt lat="44.1709898785" lon="15.1388568990"><ele>-1.79</ele><time>2011-10-14T10:42:45Z</time></trkpt><trkpt lat="44.1709904652" lon="15.1394246053"><ele>-2.27</ele><time>2011-10-14T10:42:58Z</time></trkpt><trkpt lat="44.1709993500" lon="15.1401200518"><ele>-1.79</ele><time>2011-10-14T10:43:14Z</time></trkpt><trkpt lat="44.1710055526" lon="15.1409616787"><ele>-1.30</ele><time>2011-10-14T10:43:33Z</time></trkpt><trkpt lat="44.1709776409" lon="15.1416459773"><ele>-0.34</ele><time>2011-10-14T10:43:49Z</time></trkpt><trkpt lat="44.1710115876" lon="15.1424074732"><ele>-0.82</ele><time>2011-10-14T10:44:06Z</time></trkpt><trkpt lat="44.1710374877" lon="15.1431000698"><ele>-0.82</ele><time>2011-10-14T10:44:22Z</time></trkpt><trkpt lat="44.1710614599" lon="15.1436175685"><ele>0.14</ele><time>2011-10-14T10:44:34Z</time></trkpt><trkpt lat="44.1710438579" lon="15.1442809962"><ele>0.62</ele><time>2011-10-14T10:44:49Z</time></trkpt><trkpt lat="44.1710053012" lon="15.1449816395"><ele>1.10</ele><time>2011-10-14T10:45:05Z</time></trkpt><trkpt lat="44.1709445324" lon="15.1458029822"><ele>0.14</ele><time>2011-10-14T10:45:24Z</time></trkpt><trkpt lat="44.1709467117" lon="15.1465000212"><ele>1.10</ele><time>2011-10-14T10:45:40Z</time></trkpt><trkpt lat="44.1709973384" lon="15.1471521333"><ele>1.58</ele><time>2011-10-14T10:45:55Z</time></trkpt><trkpt lat="44.1710708477" lon="15.1477895770"><ele>1.58</ele><time>2011-10-14T10:46:10Z</time></trkpt><trkpt lat="44.1711934749" lon="15.1482452173"><ele>0.62</ele><time>2011-10-14T10:46:25Z</time></trkpt><trkpt lat="44.1713809781" lon="15.1485026255"><ele>0.14</ele><time>2011-10-14T10:46:40Z</time></trkpt><trkpt lat="44.1716734227" lon="15.1485965867"><ele>0.62</ele><time>2011-10-14T10:46:58Z</time></trkpt><trkpt lat="44.1719531268" lon="15.1486503985"><ele>1.10</ele><time>2011-10-14T10:47:15Z</time></trkpt><trkpt lat="44.1722347587" lon="15.1487619616"><ele>1.10</ele><time>2011-10-14T10:47:33Z</time></trkpt><trkpt lat="44.1723178234" lon="15.1491853315"><ele>1.58</ele><time>2011-10-14T10:47:51Z</time></trkpt><trkpt lat="44.1721646860" lon="15.1495004911"><ele>1.58</ele><time>2011-10-14T10:48:07Z</time></trkpt><trkpt lat="44.1718494426" lon="15.1497210190"><ele>1.10</ele><time>2011-10-14T10:48:27Z</time></trkpt><trkpt lat="44.1715028509" lon="15.1500390284"><ele>0.62</ele><time>2011-10-14T10:48:49Z</time></trkpt><trkpt lat="44.1712150164" lon="15.1503021363"><ele>1.10</ele><time>2011-10-14T10:49:08Z</time></trkpt><trkpt lat="44.1709444486" lon="15.1505905576"><ele>1.58</ele><time>2011-10-14T10:49:26Z</time></trkpt><trkpt lat="44.1706101783" lon="15.1510816533"><ele>1.58</ele><time>2011-10-14T10:49:45Z</time></trkpt><trkpt lat="44.1702045780" lon="15.1516154129"><ele>1.10</ele><time>2011-10-14T10:50:05Z</time></trkpt><trkpt lat="44.1698463354" lon="15.1519785170"><ele>0.14</ele><time>2011-10-14T10:50:22Z</time></trkpt><trkpt lat="44.1694394778" lon="15.1523554511"><ele>-0.34</ele><time>2011-10-14T10:50:41Z</time></trkpt><trkpt lat="44.1691039503" lon="15.1526789088"><ele>-0.34</ele><time>2011-10-14T10:50:58Z</time></trkpt><trkpt lat="44.1688053031" lon="15.1529970020"><ele>0.14</ele><time>2011-10-14T10:51:15Z</time></trkpt><trkpt lat="44.1684035584" lon="15.1534502953"><ele>-0.82</ele><time>2011-10-14T10:51:36Z</time></trkpt><trkpt lat="44.1679614969" lon="15.1538659539"><ele>-1.30</ele><time>2011-10-14T10:51:58Z</time></trkpt><trkpt lat="44.1675854009" lon="15.1542307343"><ele>-1.30</ele><time>2011-10-14T10:52:17Z</time></trkpt><trkpt lat="44.1672031861" lon="15.1546308026"><ele>-1.79</ele><time>2011-10-14T10:52:36Z</time></trkpt><trkpt lat="44.1668313649" lon="15.1551322080"><ele>-0.34</ele><time>2011-10-14T10:52:54Z</time></trkpt><trkpt lat="44.1664913949" lon="15.1555402391"><ele>-0.82</ele><time>2011-10-14T10:53:10Z</time></trkpt><trkpt lat="44.1661147960" lon="15.1560931094"><ele>-0.34</ele><time>2011-10-14T10:53:28Z</time></trkpt><trkpt lat="44.1657422204" lon="15.1566839498"><ele>-0.82</ele><time>2011-10-14T10:53:46Z</time></trkpt><trkpt lat="44.1653301660" lon="15.1571261790"><ele>-1.79</ele><time>2011-10-14T10:54:05Z</time></trkpt><trkpt lat="44.1648983303" lon="15.1575941406"><ele>-0.82</ele><time>2011-10-14T10:54:25Z</time></trkpt><trkpt lat="44.1644490603" lon="15.1580282394"><ele>-0.82</ele><time>2011-10-14T10:54:46Z</time></trkpt><trkpt lat="44.1640968528" lon="15.1583624259"><ele>-0.34</ele><time>2011-10-14T10:55:02Z</time></trkpt><trkpt lat="44.1636649333" lon="15.1588337403"><ele>-0.34</ele><time>2011-10-14T10:55:21Z</time></trkpt><trkpt lat="44.1632970516" lon="15.1593226567"><ele>0.14</ele><time>2011-10-14T10:55:38Z</time></trkpt><trkpt lat="44.1629077122" lon="15.1598285045"><ele>0.14</ele><time>2011-10-14T10:55:54Z</time></trkpt><trkpt lat="44.1624379903" lon="15.1603246294"><ele>0.14</ele><time>2011-10-14T10:56:12Z</time></trkpt><trkpt lat="44.1619771533" lon="15.1608592272"><ele>0.62</ele><time>2011-10-14T10:56:32Z</time></trkpt><trkpt lat="44.1615631711" lon="15.1613132749"><ele>1.10</ele><time>2011-10-14T10:56:51Z</time></trkpt><trkpt lat="44.1611440759" lon="15.1617424283"><ele>1.10</ele><time>2011-10-14T10:57:10Z</time></trkpt><trkpt lat="44.1607430857" lon="15.1621262357"><ele>0.62</ele><time>2011-10-14T10:57:28Z</time></trkpt><trkpt lat="44.1602907982" lon="15.1625552215"><ele>0.14</ele><time>2011-10-14T10:57:50Z</time></trkpt><trkpt lat="44.1598853655" lon="15.1629077643"><ele>-0.34</ele><time>2011-10-14T10:58:11Z</time></trkpt><trkpt lat="44.1595085990" lon="15.1632367540"><ele>0.14</ele><time>2011-10-14T10:58:31Z</time></trkpt><trkpt lat="44.1591618396" lon="15.1635928173"><ele>1.58</ele><time>2011-10-14T10:58:51Z</time></trkpt><trkpt lat="44.1588745080" lon="15.1638368983"><ele>1.10</ele><time>2011-10-14T10:59:09Z</time></trkpt><trkpt lat="44.1585744359" lon="15.1640858408"><ele>0.62</ele><time>2011-10-14T10:59:30Z</time></trkpt><trkpt lat="44.1582583543" lon="15.1643665507"><ele>1.10</ele><time>2011-10-14T10:59:53Z</time></trkpt><trkpt lat="44.1579839308" lon="15.1646659523"><ele>1.58</ele><time>2011-10-14T11:00:14Z</time></trkpt><trkpt lat="44.1577168833" lon="15.1650907472"><ele>2.06</ele><time>2011-10-14T11:00:34Z</time></trkpt><trkpt lat="44.1574811004" lon="15.1656061504"><ele>3.02</ele><time>2011-10-14T11:00:56Z</time></trkpt><trkpt lat="44.1571553797" lon="15.1659317035"><ele>2.54</ele><time>2011-10-14T11:01:18Z</time></trkpt><trkpt lat="44.1568307485" lon="15.1662171073"><ele>2.54</ele><time>2011-10-14T11:01:39Z</time></trkpt><trkpt lat="44.1565407347" lon="15.1664417423"><ele>1.10</ele><time>2011-10-14T11:02:00Z</time></trkpt><trkpt lat="44.1562710050" lon="15.1666372083"><ele>0.62</ele><time>2011-10-14T11:02:21Z</time></trkpt><trkpt lat="44.1560256667" lon="15.1668319199"><ele>1.58</ele><time>2011-10-14T11:02:42Z</time></trkpt><trkpt lat="44.1557993554" lon="15.1670249552"><ele>1.58</ele><time>2011-10-14T11:03:01Z</time></trkpt><trkpt lat="44.1555500776" lon="15.1672604866"><ele>2.54</ele><time>2011-10-14T11:03:21Z</time></trkpt><trkpt lat="44.1552636679" lon="15.1675494947"><ele>2.54</ele><time>2011-10-14T11:03:41Z</time></trkpt><trkpt lat="44.1548123024" lon="15.1680040453"><ele>2.54</ele><time>2011-10-14T11:04:02Z</time></trkpt><trkpt lat="44.1543300916" lon="15.1684860047"><ele>3.50</ele><time>2011-10-14T11:04:24Z</time></trkpt><trkpt lat="44.1539459489" lon="15.1688284054"><ele>2.06</ele><time>2011-10-14T11:04:44Z</time></trkpt><trkpt lat="44.1535541788" lon="15.1691334229"><ele>1.10</ele><time>2011-10-14T11:05:05Z</time></trkpt><trkpt lat="44.1531252768" lon="15.1695207506"><ele>2.06</ele><time>2011-10-14T11:05:30Z</time></trkpt><trkpt lat="44.1527661961" lon="15.1698961761"><ele>3.02</ele><time>2011-10-14T11:05:52Z</time></trkpt><trkpt lat="44.1523989011" lon="15.1702075638"><ele>2.06</ele><time>2011-10-14T11:06:14Z</time></trkpt><trkpt lat="44.1519805603" lon="15.1706295926"><ele>3.02</ele><time>2011-10-14T11:06:40Z</time></trkpt><trkpt lat="44.1516849305" lon="15.1709275693"><ele>1.58</ele><time>2011-10-14T11:06:59Z</time></trkpt><trkpt lat="44.1512908973" lon="15.1712879911"><ele>1.58</ele><time>2011-10-14T11:07:21Z</time></trkpt><trkpt lat="44.1508850455" lon="15.1716925856"><ele>1.58</ele><time>2011-10-14T11:07:41Z</time></trkpt><trkpt lat="44.1504366137" lon="15.1721315458"><ele>1.58</ele><time>2011-10-14T11:08:04Z</time></trkpt><trkpt lat="44.1499968152" lon="15.1725461148"><ele>1.10</ele><time>2011-10-14T11:08:28Z</time></trkpt><trkpt lat="44.1495698411" lon="15.1730205305"><ele>1.10</ele><time>2011-10-14T11:08:49Z</time></trkpt><trkpt lat="44.1491418611" lon="15.1734874025"><ele>1.10</ele><time>2011-10-14T11:09:11Z</time></trkpt><trkpt lat="44.1487001348" lon="15.1739274524"><ele>1.58</ele><time>2011-10-14T11:09:33Z</time></trkpt><trkpt lat="44.1482304968" lon="15.1744322944"><ele>2.06</ele><time>2011-10-14T11:09:56Z</time></trkpt><trkpt lat="44.1477704141" lon="15.1749278326"><ele>2.54</ele><time>2011-10-14T11:10:20Z</time></trkpt><trkpt lat="44.1473873612" lon="15.1753303315"><ele>1.10</ele><time>2011-10-14T11:10:41Z</time></trkpt><trkpt lat="44.1470560245" lon="15.1756683737"><ele>2.06</ele><time>2011-10-14T11:11:00Z</time></trkpt><trkpt lat="44.1466536932" lon="15.1761403587"><ele>3.02</ele><time>2011-10-14T11:11:24Z</time></trkpt><trkpt lat="44.1463067662" lon="15.1765440311"><ele>3.50</ele><time>2011-10-14T11:11:45Z</time></trkpt><trkpt lat="44.1459293291" lon="15.1769721787"><ele>3.98</ele><time>2011-10-14T11:12:07Z</time></trkpt><trkpt lat="44.1456166841" lon="15.1773445867"><ele>3.98</ele><time>2011-10-14T11:12:25Z</time></trkpt><trkpt lat="44.1452038754" lon="15.1778300665"><ele>4.46</ele><time>2011-10-14T11:12:51Z</time></trkpt><trkpt lat="44.1449227463" lon="15.1781561226"><ele>4.46</ele><time>2011-10-14T11:13:10Z</time></trkpt><trkpt lat="44.1446317267" lon="15.1784648281"><ele>3.98</ele><time>2011-10-14T11:13:32Z</time></trkpt><trkpt lat="44.1443779226" lon="15.1786820870"><ele>3.50</ele><time>2011-10-14T11:13:52Z</time></trkpt><trkpt lat="44.1440803651" lon="15.1789466199"><ele>3.50</ele><time>2011-10-14T11:14:15Z</time></trkpt><trkpt lat="44.1438344400" lon="15.1792477816"><ele>3.02</ele><time>2011-10-14T11:14:36Z</time></trkpt><trkpt lat="44.1436000820" lon="15.1796039287"><ele>2.54</ele><time>2011-10-14T11:14:57Z</time></trkpt><trkpt lat="44.1433559172" lon="15.1799770072"><ele>2.06</ele><time>2011-10-14T11:15:19Z</time></trkpt><trkpt lat="44.1431612894" lon="15.1802786719"><ele>2.54</ele><time>2011-10-14T11:15:37Z</time></trkpt><trkpt lat="44.1429727804" lon="15.1805829350"><ele>2.06</ele><time>2011-10-14T11:15:56Z</time></trkpt><trkpt lat="44.1427347343" lon="15.1809225697"><ele>3.02</ele><time>2011-10-14T11:16:20Z</time></trkpt><trkpt lat="44.1424860433" lon="15.1812575106"><ele>2.54</ele><time>2011-10-14T11:16:41Z</time></trkpt><trkpt lat="44.1422319878" lon="15.1815951336"><ele>3.02</ele><time>2011-10-14T11:17:04Z</time></trkpt><trkpt lat="44.1419770941" lon="15.1818847284"><ele>3.02</ele><time>2011-10-14T11:17:26Z</time></trkpt><trkpt lat="44.1417082865" lon="15.1821575593"><ele>3.02</ele><time>2011-10-14T11:17:45Z</time></trkpt><trkpt lat="44.1414486151" lon="15.1823838707"><ele>3.02</ele><time>2011-10-14T11:18:03Z</time></trkpt><trkpt lat="44.1412380617" lon="15.1826757286"><ele>3.98</ele><time>2011-10-14T11:18:21Z</time></trkpt><trkpt lat="44.1410114150" lon="15.1829543430"><ele>3.50</ele><time>2011-10-14T11:18:44Z</time></trkpt><trkpt lat="44.1408648156" lon="15.1830965001"><ele>1.58</ele><time>2011-10-14T11:19:06Z</time></trkpt><trkpt lat="44.1407571081" lon="15.1831196342"><ele>-0.34</ele><time>2011-10-14T11:19:19Z</time></trkpt><trkpt lat="44.1406076588" lon="15.1831779722"><ele>-0.34</ele><time>2011-10-14T11:19:36Z</time></trkpt><trkpt lat="44.1404587962" lon="15.1832793932"><ele>0.62</ele><time>2011-10-14T11:19:58Z</time></trkpt><trkpt lat="44.1401808523" lon="15.1836143341"><ele>0.62</ele><time>2011-10-14T11:20:17Z</time></trkpt><trkpt lat="44.1397853941" lon="15.1841159910"><ele>1.10</ele><time>2011-10-14T11:20:39Z</time></trkpt><trkpt lat="44.1392840724" lon="15.1847684383"><ele>1.10</ele><time>2011-10-14T11:21:06Z</time></trkpt><trkpt lat="44.1388017777" lon="15.1854540780"><ele>0.62</ele><time>2011-10-14T11:21:33Z</time></trkpt><trkpt lat="44.1383750550" lon="15.1860294957"><ele>0.62</ele><time>2011-10-14T11:21:56Z</time></trkpt><trkpt lat="44.1380697023" lon="15.1865843777"><ele>1.10</ele><time>2011-10-14T11:22:17Z</time></trkpt><trkpt lat="44.1378548741" lon="15.1869960129"><ele>1.10</ele><time>2011-10-14T11:22:37Z</time></trkpt><trkpt lat="44.1376661137" lon="15.1874333806"><ele>1.58</ele><time>2011-10-14T11:22:59Z</time></trkpt><trkpt lat="44.1374321748" lon="15.1877570059"><ele>1.10</ele><time>2011-10-14T11:23:20Z</time></trkpt><trkpt lat="44.1371127404" lon="15.1880072895"><ele>2.06</ele><time>2011-10-14T11:23:42Z</time></trkpt><trkpt lat="44.1366804857" lon="15.1882202737"><ele>1.58</ele><time>2011-10-14T11:24:05Z</time></trkpt><trkpt lat="44.1362246778" lon="15.1885607466"><ele>2.54</ele><time>2011-10-14T11:24:28Z</time></trkpt><trkpt lat="44.1357729770" lon="15.1888682786"><ele>2.54</ele><time>2011-10-14T11:24:47Z</time></trkpt><trkpt lat="44.1353140678" lon="15.1891779061"><ele>1.58</ele><time>2011-10-14T11:25:07Z</time></trkpt><trkpt lat="44.1348321922" lon="15.1894711051"><ele>0.62</ele><time>2011-10-14T11:25:29Z</time></trkpt><trkpt lat="44.1343692597" lon="15.1896849275"><ele>0.62</ele><time>2011-10-14T11:25:51Z</time></trkpt><trkpt lat="44.1339402739" lon="15.1899022702"><ele>-0.82</ele><time>2011-10-14T11:26:12Z</time></trkpt><trkpt lat="44.1335050855" lon="15.1901428308"><ele>-0.34</ele><time>2011-10-14T11:26:33Z</time></trkpt><trkpt lat="44.1330987308" lon="15.1905379537"><ele>2.06</ele><time>2011-10-14T11:26:54Z</time></trkpt><trkpt lat="44.1327015962" lon="15.1909660175"><ele>0.62</ele><time>2011-10-14T11:27:16Z</time></trkpt><trkpt lat="44.1323449463" lon="15.1913327258"><ele>1.10</ele><time>2011-10-14T11:27:37Z</time></trkpt><trkpt lat="44.1319255996" lon="15.1917678304"><ele>0.62</ele><time>2011-10-14T11:28:01Z</time></trkpt><trkpt lat="44.1315671057" lon="15.1921245642"><ele>1.58</ele><time>2011-10-14T11:28:21Z</time></trkpt><trkpt lat="44.1312813666" lon="15.1924251392"><ele>0.62</ele><time>2011-10-14T11:28:37Z</time></trkpt><trkpt lat="44.1309760138" lon="15.1927968767"><ele>1.10</ele><time>2011-10-14T11:28:56Z</time></trkpt><trkpt lat="44.1306554899" lon="15.1932049077"><ele>0.62</ele><time>2011-10-14T11:29:17Z</time></trkpt><trkpt lat="44.1303675715" lon="15.1935446262"><ele>1.10</ele><time>2011-10-14T11:29:36Z</time></trkpt><trkpt lat="44.1300740372" lon="15.1938325446"><ele>2.06</ele><time>2011-10-14T11:29:58Z</time></trkpt><trkpt lat="44.1297826823" lon="15.1940911263"><ele>1.58</ele><time>2011-10-14T11:30:20Z</time></trkpt><trkpt lat="44.1294861306" lon="15.1943699084"><ele>1.58</ele><time>2011-10-14T11:30:45Z</time></trkpt><trkpt lat="44.1292103659" lon="15.1946921926"><ele>2.06</ele><time>2011-10-14T11:31:13Z</time></trkpt><trkpt lat="44.1290079430" lon="15.1949512772"><ele>1.58</ele><time>2011-10-14T11:31:38Z</time></trkpt><trkpt lat="44.1288380418" lon="15.1951633394"><ele>1.10</ele><time>2011-10-14T11:32:02Z</time></trkpt><trkpt lat="44.1286968905" lon="15.1953381859"><ele>1.58</ele><time>2011-10-14T11:32:26Z</time></trkpt><trkpt lat="44.1285567451" lon="15.1955192350"><ele>1.10</ele><time>2011-10-14T11:32:50Z</time></trkpt><trkpt lat="44.1283865925" lon="15.1956229191"><ele>3.50</ele><time>2011-10-14T11:33:16Z</time></trkpt><trkpt lat="44.1282700002" lon="15.1956904773"><ele>3.50</ele><time>2011-10-14T11:33:37Z</time></trkpt><trkpt lat="44.1281695850" lon="15.1957682613"><ele>3.02</ele><time>2011-10-14T11:34:01Z</time></trkpt><trkpt lat="44.1280798148" lon="15.1958180498"><ele>3.98</ele><time>2011-10-14T11:34:25Z</time></trkpt><trkpt lat="44.1279943194" lon="15.1958302874"><ele>3.50</ele><time>2011-10-14T11:34:46Z</time></trkpt><trkpt lat="44.1278815828" lon="15.1958543435"><ele>3.02</ele><time>2011-10-14T11:35:10Z</time></trkpt><trkpt lat="44.1277772281" lon="15.1958756335"><ele>2.54</ele><time>2011-10-14T11:35:32Z</time></trkpt><trkpt lat="44.1276251804" lon="15.1959658228"><ele>1.58</ele><time>2011-10-14T11:35:55Z</time></trkpt><trkpt lat="44.1274911538" lon="15.1962862629"><ele>1.58</ele><time>2011-10-14T11:36:21Z</time></trkpt><trkpt lat="44.1273176484" lon="15.1967458427"><ele>1.58</ele><time>2011-10-14T11:36:52Z</time></trkpt><trkpt lat="44.1271449812" lon="15.1971492637"><ele>-0.34</ele><time>2011-10-14T11:37:20Z</time></trkpt><trkpt lat="44.1270065121" lon="15.1975384355"><ele>0.14</ele><time>2011-10-14T11:37:43Z</time></trkpt><trkpt lat="44.1268618405" lon="15.1979830954"><ele>0.14</ele><time>2011-10-14T11:38:11Z</time></trkpt><trkpt lat="44.1267364472" lon="15.1982735284"><ele>1.58</ele><time>2011-10-14T11:38:31Z</time></trkpt><trkpt lat="44.1265695635" lon="15.1986808050"><ele>1.10</ele><time>2011-10-14T11:38:59Z</time></trkpt><trkpt lat="44.1263681464" lon="15.1990527101"><ele>1.10</ele><time>2011-10-14T11:39:26Z</time></trkpt><trkpt lat="44.1260094009" lon="15.1993585657"><ele>1.58</ele><time>2011-10-14T11:39:47Z</time></trkpt><trkpt lat="44.1256349813" lon="15.1995614916"><ele>1.58</ele><time>2011-10-14T11:40:06Z</time></trkpt><trkpt lat="44.1254046466" lon="15.1997183170"><ele>1.58</ele><time>2011-10-14T11:40:20Z</time></trkpt><trkpt lat="44.1253122780" lon="15.2001113445"><ele>1.58</ele><time>2011-10-14T11:40:41Z</time></trkpt><trkpt lat="44.1254049819" lon="15.2002531663"><ele>1.58</ele><time>2011-10-14T11:40:55Z</time></trkpt><trkpt lat="44.1254770663" lon="15.2000227477"><ele>0.62</ele><time>2011-10-14T11:41:12Z</time></trkpt><trkpt lat="44.1254706960" lon="15.1997103542"><ele>1.58</ele><time>2011-10-14T11:41:31Z</time></trkpt><trkpt lat="44.1255006194" lon="15.1994283032"><ele>2.06</ele><time>2011-10-14T11:41:50Z</time></trkpt><trkpt lat="44.1256449558" lon="15.1993512735"><ele>1.10</ele><time>2011-10-14T11:42:09Z</time></trkpt><trkpt lat="44.1257345583" lon="15.1994469948"><ele>-0.34</ele><time>2011-10-14T11:42:31Z</time></trkpt><trkpt lat="44.1257655714" lon="15.1994487550"><ele>-0.34</ele><time>2011-10-14T11:42:51Z</time></trkpt><trkpt lat="44.1257963330" lon="15.1996284630"><ele>0.62</ele><time>2011-10-14T11:43:15Z</time></trkpt><trkpt lat="44.1257925611" lon="15.1998619828"><ele>-0.34</ele><time>2011-10-14T11:43:39Z</time></trkpt><trkpt lat="44.1257462092" lon="15.2001180500"><ele>-0.34</ele><time>2011-10-14T11:44:02Z</time></trkpt><trkpt lat="44.1255995259" lon="15.2002845984"><ele>0.62</ele><time>2011-10-14T11:44:26Z</time></trkpt><trkpt lat="44.1254691873" lon="15.2002447844"><ele>1.58</ele><time>2011-10-14T11:44:44Z</time></trkpt><trkpt lat="44.1254253499" lon="15.2000473905"><ele>2.06</ele><time>2011-10-14T11:45:02Z</time></trkpt><trkpt lat="44.1253746394" lon="15.1997113600"><ele>3.02</ele><time>2011-10-14T11:45:23Z</time></trkpt><trkpt lat="44.1253197379" lon="15.1991577353"><ele>3.02</ele><time>2011-10-14T11:45:43Z</time></trkpt><trkpt lat="44.1254208237" lon="15.1988328528"><ele>1.58</ele><time>2011-10-14T11:45:58Z</time></trkpt><trkpt lat="44.1252836119" lon="15.1984986663"><ele>1.58</ele><time>2011-10-14T11:46:15Z</time></trkpt><trkpt lat="44.1250488348" lon="15.1985088922"><ele>0.62</ele><time>2011-10-14T11:46:32Z</time></trkpt><trkpt lat="44.1247682087" lon="15.1986222155"><ele>1.10</ele><time>2011-10-14T11:46:53Z</time></trkpt><trkpt lat="44.1243795399" lon="15.1988348644"><ele>0.62</ele><time>2011-10-14T11:47:15Z</time></trkpt><trkpt lat="44.1239161883" lon="15.1990920212"><ele>1.58</ele><time>2011-10-14T11:47:37Z</time></trkpt><trkpt lat="44.1234025452" lon="15.1994625852"><ele>1.58</ele><time>2011-10-14T11:47:59Z</time></trkpt><trkpt lat="44.1228948534" lon="15.1998156309"><ele>1.10</ele><time>2011-10-14T11:48:20Z</time></trkpt><trkpt lat="44.1222620197" lon="15.2001806628"><ele>1.10</ele><time>2011-10-14T11:48:43Z</time></trkpt><trkpt lat="44.1216460336" lon="15.2005882747"><ele>1.10</ele><time>2011-10-14T11:49:05Z</time></trkpt><trkpt lat="44.1209950112" lon="15.2010399755"><ele>2.54</ele><time>2011-10-14T11:49:29Z</time></trkpt><trkpt lat="44.1203054320" lon="15.2015863080"><ele>1.58</ele><time>2011-10-14T11:49:53Z</time></trkpt><trkpt lat="44.1196706705" lon="15.2021420281"><ele>1.58</ele><time>2011-10-14T11:50:15Z</time></trkpt><trkpt lat="44.1190390103" lon="15.2026255801"><ele>0.62</ele><time>2011-10-14T11:50:37Z</time></trkpt><trkpt lat="44.1184402909" lon="15.2031079587"><ele>1.10</ele><time>2011-10-14T11:50:57Z</time></trkpt><trkpt lat="44.1178834811" lon="15.2035112958"><ele>0.62</ele><time>2011-10-14T11:51:15Z</time></trkpt><trkpt lat="44.1173193790" lon="15.2039391082"><ele>1.10</ele><time>2011-10-14T11:51:37Z</time></trkpt><trkpt lat="44.1167876311" lon="15.2043172996"><ele>0.62</ele><time>2011-10-14T11:51:59Z</time></trkpt><trkpt lat="44.1162831243" lon="15.2046969160"><ele>0.14</ele><time>2011-10-14T11:52:19Z</time></trkpt><trkpt lat="44.1157117300" lon="15.2052176837"><ele>-0.34</ele><time>2011-10-14T11:52:42Z</time></trkpt><trkpt lat="44.1152199637" lon="15.2056439873"><ele>-0.34</ele><time>2011-10-14T11:53:02Z</time></trkpt><trkpt lat="44.1147335619" lon="15.2059956081"><ele>0.62</ele><time>2011-10-14T11:53:21Z</time></trkpt><trkpt lat="44.1141743213" lon="15.2064862847"><ele>1.10</ele><time>2011-10-14T11:53:42Z</time></trkpt><trkpt lat="44.1137418989" lon="15.2070158534"><ele>0.14</ele><time>2011-10-14T11:54:00Z</time></trkpt><trkpt lat="44.1132377274" lon="15.2076517045"><ele>0.14</ele><time>2011-10-14T11:54:21Z</time></trkpt><trkpt lat="44.1127682570" lon="15.2082384378"><ele>0.62</ele><time>2011-10-14T11:54:43Z</time></trkpt><trkpt lat="44.1122546140" lon="15.2088933997"><ele>1.10</ele><time>2011-10-14T11:55:05Z</time></trkpt><trkpt lat="44.1117265541" lon="15.2095118165"><ele>0.62</ele><time>2011-10-14T11:55:26Z</time></trkpt><trkpt lat="44.1111508012" lon="15.2101952769"><ele>0.62</ele><time>2011-10-14T11:55:49Z</time></trkpt><trkpt lat="44.1106634773" lon="15.2108352352"><ele>0.14</ele><time>2011-10-14T11:56:10Z</time></trkpt><trkpt lat="44.1101520136" lon="15.2115039434"><ele>0.62</ele><time>2011-10-14T11:56:35Z</time></trkpt><trkpt lat="44.1096813697" lon="15.2119749226"><ele>1.10</ele><time>2011-10-14T11:56:58Z</time></trkpt><trkpt lat="44.1092320159" lon="15.2124130446"><ele>0.62</ele><time>2011-10-14T11:57:21Z</time></trkpt><trkpt lat="44.1088456940" lon="15.2128333133"><ele>0.14</ele><time>2011-10-14T11:57:42Z</time></trkpt><trkpt lat="44.1085434426" lon="15.2131798211"><ele>0.62</ele><time>2011-10-14T11:57:58Z</time></trkpt><trkpt lat="44.1082342342" lon="15.2136095613"><ele>0.14</ele><time>2011-10-14T11:58:15Z</time></trkpt><trkpt lat="44.1078732256" lon="15.2141237911"><ele>0.14</ele><time>2011-10-14T11:58:32Z</time></trkpt><trkpt lat="44.1073487699" lon="15.2147412859"><ele>0.14</ele><time>2011-10-14T11:58:54Z</time></trkpt><trkpt lat="44.1068637092" lon="15.2153144404"><ele>0.62</ele><time>2011-10-14T11:59:14Z</time></trkpt><trkpt lat="44.1064117569" lon="15.2159677260"><ele>0.14</ele><time>2011-10-14T11:59:34Z</time></trkpt><trkpt lat="44.1059451364" lon="15.2167298086"><ele>0.14</ele><time>2011-10-14T11:59:56Z</time></trkpt><trkpt lat="44.1054546274" lon="15.2174090780"><ele>-0.82</ele><time>2011-10-14T12:00:18Z</time></trkpt><trkpt lat="44.1050332692" lon="15.2179883514"><ele>-0.82</ele><time>2011-10-14T12:00:38Z</time></trkpt><trkpt lat="44.1046468634" lon="15.2184442431"><ele>-0.82</ele><time>2011-10-14T12:00:56Z</time></trkpt><trkpt lat="44.1042625532" lon="15.2189006377"><ele>-1.30</ele><time>2011-10-14T12:01:15Z</time></trkpt><trkpt lat="44.1038225032" lon="15.2194456290"><ele>-0.82</ele><time>2011-10-14T12:01:38Z</time></trkpt><trkpt lat="44.1035168152" lon="15.2199102379"><ele>0.62</ele><time>2011-10-14T12:01:58Z</time></trkpt><trkpt lat="44.1031846404" lon="15.2204466797"><ele>0.14</ele><time>2011-10-14T12:02:19Z</time></trkpt><trkpt lat="44.1026904434" lon="15.2210883982"><ele>0.62</ele><time>2011-10-14T12:02:44Z</time></trkpt><trkpt lat="44.1022122558" lon="15.2216299530"><ele>0.62</ele><time>2011-10-14T12:03:07Z</time></trkpt><trkpt lat="44.1018799134" lon="15.2220226452"><ele>1.10</ele><time>2011-10-14T12:03:24Z</time></trkpt><trkpt lat="44.1014146339" lon="15.2225521300"><ele>1.10</ele><time>2011-10-14T12:03:49Z</time></trkpt><trkpt lat="44.1009482648" lon="15.2230528649"><ele>-0.34</ele><time>2011-10-14T12:04:12Z</time></trkpt><trkpt lat="44.1004237253" lon="15.2235485706"><ele>1.58</ele><time>2011-10-14T12:04:37Z</time></trkpt><trkpt lat="44.0998530015" lon="15.2240072284"><ele>0.62</ele><time>2011-10-14T12:05:05Z</time></trkpt><trkpt lat="44.0993780829" lon="15.2243719250"><ele>-0.34</ele><time>2011-10-14T12:05:30Z</time></trkpt><trkpt lat="44.0990404598" lon="15.2245877590"><ele>1.10</ele><time>2011-10-14T12:05:51Z</time></trkpt><trkpt lat="44.0987185948" lon="15.2247821353"><ele>0.62</ele><time>2011-10-14T12:06:16Z</time></trkpt><trkpt lat="44.0984357893" lon="15.2249800321"><ele>0.62</ele><time>2011-10-14T12:06:40Z</time></trkpt><trkpt lat="44.0981728490" lon="15.2251690440"><ele>0.62</ele><time>2011-10-14T12:07:03Z</time></trkpt><trkpt lat="44.0980059654" lon="15.2255212516"><ele>0.14</ele><time>2011-10-14T12:07:21Z</time></trkpt><trkpt lat="44.0978215635" lon="15.2260540891"><ele>-0.34</ele><time>2011-10-14T12:07:43Z</time></trkpt><trkpt lat="44.0975788236" lon="15.2265754435"><ele>-0.34</ele><time>2011-10-14T12:08:07Z</time></trkpt><trkpt lat="44.0973852016" lon="15.2271213569"><ele>0.14</ele><time>2011-10-14T12:08:30Z</time></trkpt><trkpt lat="44.0971556213" lon="15.2275311481"><ele>0.62</ele><time>2011-10-14T12:08:51Z</time></trkpt><trkpt lat="44.0968780126" lon="15.2278378420"><ele>2.06</ele><time>2011-10-14T12:09:12Z</time></trkpt><trkpt lat="44.0964631923" lon="15.2282494772"><ele>3.50</ele><time>2011-10-14T12:09:36Z</time></trkpt><trkpt lat="44.0959994216" lon="15.2288132440"><ele>3.50</ele><time>2011-10-14T12:09:59Z</time></trkpt><trkpt lat="44.0954619739" lon="15.2294077724"><ele>3.02</ele><time>2011-10-14T12:10:25Z</time></trkpt><trkpt lat="44.0950737242" lon="15.2297934238"><ele>3.98</ele><time>2011-10-14T12:10:46Z</time></trkpt><trkpt lat="44.0946791880" lon="15.2302493155"><ele>3.02</ele><time>2011-10-14T12:11:12Z</time></trkpt><trkpt lat="44.0943797026" lon="15.2306912094"><ele>2.06</ele><time>2011-10-14T12:11:37Z</time></trkpt><trkpt lat="44.0941113979" lon="15.2311368752"><ele>1.10</ele><time>2011-10-14T12:11:57Z</time></trkpt><trkpt lat="44.0937843360" lon="15.2315631788"><ele>2.06</ele><time>2011-10-14T12:12:17Z</time></trkpt><trkpt lat="44.0933325514" lon="15.2320524305"><ele>2.06</ele><time>2011-10-14T12:12:44Z</time></trkpt><trkpt lat="44.0929098520" lon="15.2324512415"><ele>2.54</ele><time>2011-10-14T12:13:08Z</time></trkpt><trkpt lat="44.0924044233" lon="15.2328529861"><ele>2.54</ele><time>2011-10-14T12:13:36Z</time></trkpt><trkpt lat="44.0919544827" lon="15.2332181856"><ele>4.46</ele><time>2011-10-14T12:14:00Z</time></trkpt><trkpt lat="44.0914912988" lon="15.2335955389"><ele>4.46</ele><time>2011-10-14T12:14:26Z</time></trkpt><trkpt lat="44.0910154581" lon="15.2339029871"><ele>3.98</ele><time>2011-10-14T12:14:54Z</time></trkpt><trkpt lat="44.0905878972" lon="15.2341137081"><ele>3.98</ele><time>2011-10-14T12:15:17Z</time></trkpt><trkpt lat="44.0901553910" lon="15.2343456354"><ele>3.50</ele><time>2011-10-14T12:15:41Z</time></trkpt><trkpt lat="44.0897367988" lon="15.2346703503"><ele>2.54</ele><time>2011-10-14T12:16:06Z</time></trkpt><trkpt lat="44.0892792307" lon="15.2350712568"><ele>3.98</ele><time>2011-10-14T12:16:31Z</time></trkpt><trkpt lat="44.0888808388" lon="15.2354348637"><ele>3.50</ele><time>2011-10-14T12:16:52Z</time></trkpt><trkpt lat="44.0884785913" lon="15.2357480954"><ele>5.42</ele><time>2011-10-14T12:17:15Z</time></trkpt><trkpt lat="44.0881199297" lon="15.2360161487"><ele>6.39</ele><time>2011-10-14T12:17:36Z</time></trkpt><trkpt lat="44.0877201129" lon="15.2363791689"><ele>4.94</ele><time>2011-10-14T12:17:59Z</time></trkpt><trkpt lat="44.0872416738" lon="15.2368363179"><ele>4.46</ele><time>2011-10-14T12:18:26Z</time></trkpt><trkpt lat="44.0867363289" lon="15.2373924572"><ele>4.46</ele><time>2011-10-14T12:18:53Z</time></trkpt><trkpt lat="44.0862723906" lon="15.2379157394"><ele>4.46</ele><time>2011-10-14T12:19:16Z</time></trkpt><trkpt lat="44.0857972205" lon="15.2383713797"><ele>3.98</ele><time>2011-10-14T12:19:38Z</time></trkpt><trkpt lat="44.0853772871" lon="15.2387953363"><ele>3.98</ele><time>2011-10-14T12:19:59Z</time></trkpt><trkpt lat="44.0849568509" lon="15.2392063010"><ele>3.50</ele><time>2011-10-14T12:20:22Z</time></trkpt><trkpt lat="44.0844738856" lon="15.2397307567"><ele>3.98</ele><time>2011-10-14T12:20:51Z</time></trkpt><trkpt lat="44.0841105301" lon="15.2401038352"><ele>4.94</ele><time>2011-10-14T12:21:16Z</time></trkpt><trkpt lat="44.0837019123" lon="15.2404873073"><ele>6.87</ele><time>2011-10-14T12:21:49Z</time></trkpt><trkpt lat="44.0833610203" lon="15.2407978568"><ele>6.87</ele><time>2011-10-14T12:22:19Z</time></trkpt><trkpt lat="44.0830503032" lon="15.2411173750"><ele>7.83</ele><time>2011-10-14T12:22:48Z</time></trkpt><trkpt lat="44.0828420967" lon="15.2413329575"><ele>7.83</ele><time>2011-10-14T12:23:10Z</time></trkpt><trkpt lat="44.0825987700" lon="15.2415741049"><ele>7.83</ele><time>2011-10-14T12:23:39Z</time></trkpt><trkpt lat="44.0823834389" lon="15.2417606022"><ele>7.35</ele><time>2011-10-14T12:24:05Z</time></trkpt><trkpt lat="44.0821992047" lon="15.2419409808"><ele>7.35</ele><time>2011-10-14T12:24:29Z</time></trkpt><trkpt lat="44.0819642600" lon="15.2421485167"><ele>6.87</ele><time>2011-10-14T12:25:00Z</time></trkpt><trkpt lat="44.0817380324" lon="15.2423255425"><ele>4.94</ele><time>2011-10-14T12:25:31Z</time></trkpt><trkpt lat="44.0815275628" lon="15.2424845472"><ele>3.50</ele><time>2011-10-14T12:25:58Z</time></trkpt><trkpt lat="44.0813164227" lon="15.2426557057"><ele>3.02</ele><time>2011-10-14T12:26:20Z</time></trkpt><trkpt lat="44.0810855012" lon="15.2428452205"><ele>2.06</ele><time>2011-10-14T12:26:41Z</time></trkpt><trkpt lat="44.0807602834" lon="15.2430913132"><ele>0.62</ele><time>2011-10-14T12:27:11Z</time></trkpt><trkpt lat="44.0804648213" lon="15.2433736995"><ele>2.06</ele><time>2011-10-14T12:27:43Z</time></trkpt><trkpt lat="44.0801828541" lon="15.2436244022"><ele>3.02</ele><time>2011-10-14T12:28:15Z</time></trkpt><trkpt lat="44.0799510106" lon="15.2438226342"><ele>1.58</ele><time>2011-10-14T12:28:45Z</time></trkpt><trkpt lat="44.0797297284" lon="15.2440093830"><ele>0.62</ele><time>2011-10-14T12:29:16Z</time></trkpt><trkpt lat="44.0795411356" lon="15.2441972215"><ele>2.06</ele><time>2011-10-14T12:29:44Z</time></trkpt><trkpt lat="44.0793523751" lon="15.2443900891"><ele>3.50</ele><time>2011-10-14T12:30:08Z</time></trkpt><trkpt lat="44.0790678933" lon="15.2447171509"><ele>2.54</ele><time>2011-10-14T12:30:40Z</time></trkpt><trkpt lat="44.0787078906" lon="15.2450120263"><ele>1.10</ele><time>2011-10-14T12:31:10Z</time></trkpt><trkpt lat="44.0783778112" lon="15.2452146169"><ele>0.14</ele><time>2011-10-14T12:31:37Z</time></trkpt><trkpt lat="44.0780791640" lon="15.2453880385"><ele>-1.30</ele><time>2011-10-14T12:32:06Z</time></trkpt><trkpt lat="44.0778332390" lon="15.2455753740"><ele>-1.30</ele><time>2011-10-14T12:32:32Z</time></trkpt><trkpt lat="44.0776103642" lon="15.2457471192"><ele>-1.79</ele><time>2011-10-14T12:32:57Z</time></trkpt><trkpt lat="44.0773463342" lon="15.2459316049"><ele>-2.75</ele><time>2011-10-14T12:33:26Z</time></trkpt><trkpt lat="44.0771356970" lon="15.2460492030"><ele>-2.27</ele><time>2011-10-14T12:33:52Z</time></trkpt><trkpt lat="44.0769913606" lon="15.2462090459"><ele>-1.79</ele><time>2011-10-14T12:34:15Z</time></trkpt><trkpt lat="44.0768057015" lon="15.2463646140"><ele>-2.75</ele><time>2011-10-14T12:34:43Z</time></trkpt><trkpt lat="44.0766535699" lon="15.2464834694"><ele>-2.75</ele><time>2011-10-14T12:35:07Z</time></trkpt><trkpt lat="44.0764928889" lon="15.2466033306"><ele>-3.23</ele><time>2011-10-14T12:35:35Z</time></trkpt><trkpt lat="44.0763478819" lon="15.2467060089"><ele>-1.79</ele><time>2011-10-14T12:36:05Z</time></trkpt><trkpt lat="44.0762552619" lon="15.2467822842"><ele>-1.79</ele><time>2011-10-14T12:36:27Z</time></trkpt><trkpt lat="44.0761297848" lon="15.2468752395"><ele>-1.30</ele><time>2011-10-14T12:36:48Z</time></trkpt><trkpt lat="44.0760190599" lon="15.2469971124"><ele>-1.79</ele><time>2011-10-14T12:37:10Z</time></trkpt><trkpt lat="44.0758608095" lon="15.2471607272"><ele>0.14</ele><time>2011-10-14T12:37:39Z</time></trkpt><trkpt lat="44.0756361745" lon="15.2474074904"><ele>1.10</ele><time>2011-10-14T12:38:06Z</time></trkpt><trkpt lat="44.0754433069" lon="15.2475523297"><ele>0.14</ele><time>2011-10-14T12:38:26Z</time></trkpt><trkpt lat="44.0752288140" lon="15.2476501465"><ele>1.58</ele><time>2011-10-14T12:38:47Z</time></trkpt><trkpt lat="44.0750123933" lon="15.2477723546"><ele>0.62</ele><time>2011-10-14T12:39:11Z</time></trkpt><trkpt lat="44.0749690589" lon="15.2477723546"><ele>0.14</ele><time>2011-10-14T12:39:16Z</time></trkpt><trkpt lat="44.0747564100" lon="15.2478004340"><ele>0.14</ele><time>2011-10-14T12:39:39Z</time></trkpt><trkpt lat="44.0745556634" lon="15.2480192855"><ele>0.62</ele><time>2011-10-14T12:40:06Z</time></trkpt><trkpt lat="44.0745038632" lon="15.2481257357"><ele>-0.34</ele><time>2011-10-14T12:40:16Z</time></trkpt><trkpt lat="44.0743944794" lon="15.2484760992"><ele>0.62</ele><time>2011-10-14T12:40:46Z</time></trkpt><trkpt lat="44.0742882807" lon="15.2487977967"><ele>-0.34</ele><time>2011-10-14T12:41:14Z</time></trkpt><trkpt lat="44.0741550922" lon="15.2490355913"><ele>-0.34</ele><time>2011-10-14T12:41:41Z</time></trkpt><trkpt lat="44.0740061458" lon="15.2491973620"><ele>0.62</ele><time>2011-10-14T12:42:05Z</time></trkpt><trkpt lat="44.0738646593" lon="15.2493128646"><ele>1.58</ele><time>2011-10-14T12:42:30Z</time></trkpt><trkpt lat="44.0737032238" lon="15.2493914030"><ele>0.62</ele><time>2011-10-14T12:42:58Z</time></trkpt><trkpt lat="44.0735467337" lon="15.2494416106"><ele>0.62</ele><time>2011-10-14T12:43:22Z</time></trkpt><trkpt lat="44.0734127909" lon="15.2495291177"><ele>1.58</ele><time>2011-10-14T12:43:46Z</time></trkpt><trkpt lat="44.0732838772" lon="15.2496472187"><ele>0.14</ele><time>2011-10-14T12:44:15Z</time></trkpt><trkpt lat="44.0731883235" lon="15.2497551776"><ele>-1.30</ele><time>2011-10-14T12:44:41Z</time></trkpt><trkpt lat="44.0731143113" lon="15.2498420142"><ele>0.14</ele><time>2011-10-14T12:45:05Z</time></trkpt><trkpt lat="44.0730724018" lon="15.2498758771"><ele>0.62</ele><time>2011-10-14T12:45:32Z</time></trkpt><trkpt lat="44.0730496030" lon="15.2498861868"><ele>0.14</ele><time>2011-10-14T12:46:01Z</time></trkpt><trkpt lat="44.0730496030" lon="15.2498861868"><ele>0.14</ele><time>2011-10-14T12:46:28Z</time></trkpt><trkpt lat="44.0730252955" lon="15.2498991787"><ele>0.14</ele><time>2011-10-14T12:46:56Z</time></trkpt><trkpt lat="44.0729912650" lon="15.2499199659"><ele>-0.34</ele><time>2011-10-14T12:47:24Z</time></trkpt><trkpt lat="44.0729302447" lon="15.2499775495"><ele>-1.30</ele><time>2011-10-14T12:47:44Z</time></trkpt><trkpt lat="44.0725325234" lon="15.2501451876"><ele>-4.67</ele><time>2011-10-14T12:48:01Z</time></trkpt><trkpt lat="44.0721737780" lon="15.2503543161"><ele>-3.71</ele><time>2011-10-14T12:48:25Z</time></trkpt><trkpt lat="44.0717909764" lon="15.2507076133"><ele>-1.79</ele><time>2011-10-14T12:48:48Z</time></trkpt><trkpt lat="44.0713080950" lon="15.2510927618"><ele>-1.30</ele><time>2011-10-14T12:49:11Z</time></trkpt><trkpt lat="44.0708734933" lon="15.2514822688"><ele>-1.30</ele><time>2011-10-14T12:49:31Z</time></trkpt><trkpt lat="44.0703685675" lon="15.2519090753"><ele>-0.34</ele><time>2011-10-14T12:49:54Z</time></trkpt><trkpt lat="44.0698550921" lon="15.2523300145"><ele>2.06</ele><time>2011-10-14T12:50:17Z</time></trkpt><trkpt lat="44.0693587996" lon="15.2527227905"><ele>1.58</ele><time>2011-10-14T12:50:39Z</time></trkpt><trkpt lat="44.0688358527" lon="15.2532578073"><ele>2.06</ele><time>2011-10-14T12:51:04Z</time></trkpt><trkpt lat="44.0682655480" lon="15.2537458856"><ele>1.10</ele><time>2011-10-14T12:51:30Z</time></trkpt><trkpt lat="44.0677056368" lon="15.2542160265"><ele>1.10</ele><time>2011-10-14T12:51:55Z</time></trkpt><trkpt lat="44.0671759006" lon="15.2546622790"><ele>-0.34</ele><time>2011-10-14T12:52:19Z</time></trkpt><trkpt lat="44.0666391235" lon="15.2550819609"><ele>-0.34</ele><time>2011-10-14T12:52:43Z</time></trkpt><trkpt lat="44.0661107283" lon="15.2555137128"><ele>-2.27</ele><time>2011-10-14T12:53:07Z</time></trkpt><trkpt lat="44.0655179601" lon="15.2559447940"><ele>-2.75</ele><time>2011-10-14T12:53:33Z</time></trkpt><trkpt lat="44.0649438836" lon="15.2563761268"><ele>-3.71</ele><time>2011-10-14T12:53:59Z</time></trkpt><trkpt lat="44.0644185897" lon="15.2567587607"><ele>-2.75</ele><time>2011-10-14T12:54:22Z</time></trkpt><trkpt lat="44.0638678148" lon="15.2571586613"><ele>-2.75</ele><time>2011-10-14T12:54:46Z</time></trkpt><trkpt lat="44.0633545071" lon="15.2575508505"><ele>-2.75</ele><time>2011-10-14T12:55:09Z</time></trkpt><trkpt lat="44.0628278721" lon="15.2579678502"><ele>-1.30</ele><time>2011-10-14T12:55:33Z</time></trkpt><trkpt lat="44.0622067731" lon="15.2584367339"><ele>-1.79</ele><time>2011-10-14T12:56:01Z</time></trkpt><trkpt lat="44.0617073793" lon="15.2588299289"><ele>-2.27</ele><time>2011-10-14T12:56:23Z</time></trkpt><trkpt lat="44.0611837618" lon="15.2592646144"><ele>-2.27</ele><time>2011-10-14T12:56:47Z</time></trkpt><trkpt lat="44.0605831984" lon="15.2597802691"><ele>-2.75</ele><time>2011-10-14T12:57:15Z</time></trkpt><trkpt lat="44.0601607505" lon="15.2601442952"><ele>-1.79</ele><time>2011-10-14T12:57:35Z</time></trkpt><trkpt lat="44.0596524719" lon="15.2605945710"><ele>-1.79</ele><time>2011-10-14T12:57:59Z</time></trkpt><trkpt lat="44.0590887051" lon="15.2611372992"><ele>-1.79</ele><time>2011-10-14T12:58:26Z</time></trkpt><trkpt lat="44.0585448872" lon="15.2616994735"><ele>-1.30</ele><time>2011-10-14T12:58:53Z</time></trkpt><trkpt lat="44.0581076872" lon="15.2621320635"><ele>0.14</ele><time>2011-10-14T12:59:15Z</time></trkpt><trkpt lat="44.0576160885" lon="15.2626399230"><ele>0.14</ele><time>2011-10-14T12:59:40Z</time></trkpt><trkpt lat="44.0570589434" lon="15.2632844914"><ele>0.62</ele><time>2011-10-14T13:00:09Z</time></trkpt><trkpt lat="44.0566900559" lon="15.2639084402"><ele>0.14</ele><time>2011-10-14T13:00:33Z</time></trkpt><trkpt lat="44.0563912410" lon="15.2645226661"><ele>-0.34</ele><time>2011-10-14T13:00:56Z</time></trkpt><trkpt lat="44.0560940187" lon="15.2652108204"><ele>0.62</ele><time>2011-10-14T13:01:20Z</time></trkpt><trkpt lat="44.0558089502" lon="15.2657775208"><ele>0.62</ele><time>2011-10-14T13:01:41Z</time></trkpt><trkpt lat="44.0555217862" lon="15.2663474064"><ele>1.10</ele><time>2011-10-14T13:02:02Z</time></trkpt><trkpt lat="44.0550785512" lon="15.2671193797"><ele>1.58</ele><time>2011-10-14T13:02:32Z</time></trkpt><trkpt lat="44.0546877868" lon="15.2677560691"><ele>0.14</ele><time>2011-10-14T13:02:58Z</time></trkpt><trkpt lat="44.0542774927" lon="15.2684003860"><ele>0.14</ele><time>2011-10-14T13:03:24Z</time></trkpt><trkpt lat="44.0538225230" lon="15.2690923121"><ele>0.62</ele><time>2011-10-14T13:03:52Z</time></trkpt><trkpt lat="44.0534678008" lon="15.2696078829"><ele>-0.34</ele><time>2011-10-14T13:04:13Z</time></trkpt><trkpt lat="44.0531757753" lon="15.2701476775"><ele>-0.34</ele><time>2011-10-14T13:04:33Z</time></trkpt><trkpt lat="44.0528520662" lon="15.2707401942"><ele>0.14</ele><time>2011-10-14T13:04:56Z</time></trkpt><trkpt lat="44.0524361562" lon="15.2713418473"><ele>0.14</ele><time>2011-10-14T13:05:22Z</time></trkpt><trkpt lat="44.0520006325" lon="15.2719452605"><ele>-1.30</ele><time>2011-10-14T13:05:47Z</time></trkpt><trkpt lat="44.0515721496" lon="15.2724701352"><ele>-1.30</ele><time>2011-10-14T13:06:09Z</time></trkpt><trkpt lat="44.0510960575" lon="15.2729968540"><ele>-0.34</ele><time>2011-10-14T13:06:32Z</time></trkpt><trkpt lat="44.0507035330" lon="15.2736915462"><ele>-0.82</ele><time>2011-10-14T13:06:57Z</time></trkpt><trkpt lat="44.0504064783" lon="15.2744616754"><ele>-0.82</ele><time>2011-10-14T13:07:22Z</time></trkpt><trkpt lat="44.0501454659" lon="15.2751420345"><ele>-0.34</ele><time>2011-10-14T13:07:44Z</time></trkpt><trkpt lat="44.0499308892" lon="15.2758705895"><ele>-0.82</ele><time>2011-10-14T13:08:07Z</time></trkpt><trkpt lat="44.0498213377" lon="15.2764587477"><ele>-1.79</ele><time>2011-10-14T13:08:25Z</time></trkpt><trkpt lat="44.0497305617" lon="15.2771326527"><ele>-1.79</ele><time>2011-10-14T13:08:45Z</time></trkpt><trkpt lat="44.0496181604" lon="15.2778257523"><ele>-1.30</ele><time>2011-10-14T13:09:06Z</time></trkpt><trkpt lat="44.0495112911" lon="15.2784502879"><ele>-1.30</ele><time>2011-10-14T13:09:25Z</time></trkpt><trkpt lat="44.0494194254" lon="15.2790557127"><ele>-1.79</ele><time>2011-10-14T13:09:43Z</time></trkpt><trkpt lat="44.0493091196" lon="15.2798527479"><ele>-1.79</ele><time>2011-10-14T13:10:07Z</time></trkpt><trkpt lat="44.0491993167" lon="15.2804805525"><ele>-2.27</ele><time>2011-10-14T13:10:26Z</time></trkpt><trkpt lat="44.0490879212" lon="15.2811393701"><ele>-2.75</ele><time>2011-10-14T13:10:46Z</time></trkpt><trkpt lat="44.0489704907" lon="15.2818268538"><ele>-2.75</ele><time>2011-10-14T13:11:07Z</time></trkpt><trkpt lat="44.0488289203" lon="15.2826036885"><ele>-3.23</ele><time>2011-10-14T13:11:30Z</time></trkpt><trkpt lat="44.0486482065" lon="15.2833578084"><ele>-2.27</ele><time>2011-10-14T13:11:52Z</time></trkpt><trkpt lat="44.0484362282" lon="15.2841440309"><ele>-1.79</ele><time>2011-10-14T13:12:15Z</time></trkpt><trkpt lat="44.0482110064" lon="15.2849352825"><ele>-1.30</ele><time>2011-10-14T13:12:39Z</time></trkpt><trkpt lat="44.0480442066" lon="15.2855468262"><ele>-1.30</ele><time>2011-10-14T13:12:58Z</time></trkpt><trkpt lat="44.0479055699" lon="15.2861198131"><ele>-1.79</ele><time>2011-10-14T13:13:16Z</time></trkpt><trkpt lat="44.0478220861" lon="15.2866678219"><ele>-1.79</ele><time>2011-10-14T13:13:34Z</time></trkpt><trkpt lat="44.0477692802" lon="15.2873356920"><ele>-1.30</ele><time>2011-10-14T13:13:55Z</time></trkpt><trkpt lat="44.0477617364" lon="15.2879661787"><ele>-1.30</ele><time>2011-10-14T13:14:15Z</time></trkpt><trkpt lat="44.0477748960" lon="15.2885462902"><ele>-1.30</ele><time>2011-10-14T13:14:33Z</time></trkpt><trkpt lat="44.0478171408" lon="15.2892188542"><ele>-0.82</ele><time>2011-10-14T13:14:54Z</time></trkpt><trkpt lat="44.0478690248" lon="15.2898716368"><ele>-2.75</ele><time>2011-10-14T13:15:14Z</time></trkpt><trkpt lat="44.0479189809" lon="15.2905864455"><ele>-2.27</ele><time>2011-10-14T13:15:36Z</time></trkpt><trkpt lat="44.0479413606" lon="15.2913400624"><ele>-1.30</ele><time>2011-10-14T13:15:59Z</time></trkpt><trkpt lat="44.0479387622" lon="15.2918824553"><ele>-1.30</ele><time>2011-10-14T13:16:17Z</time></trkpt><trkpt lat="44.0479786601" lon="15.2923699468"><ele>-1.30</ele><time>2011-10-14T13:16:35Z</time></trkpt><trkpt lat="44.0480572823" lon="15.2929432690"><ele>-2.27</ele><time>2011-10-14T13:16:56Z</time></trkpt><trkpt lat="44.0481174644" lon="15.2934796270"><ele>-1.79</ele><time>2011-10-14T13:17:16Z</time></trkpt><trkpt lat="44.0481947456" lon="15.2939532045"><ele>-1.79</ele><time>2011-10-14T13:17:36Z</time></trkpt><trkpt lat="44.0482919756" lon="15.2945104335"><ele>-1.79</ele><time>2011-10-14T13:17:59Z</time></trkpt><trkpt lat="44.0483361483" lon="15.2950434387"><ele>-2.27</ele><time>2011-10-14T13:18:21Z</time></trkpt><trkpt lat="44.0484446101" lon="15.2956214547"><ele>-1.30</ele><time>2011-10-14T13:18:44Z</time></trkpt><trkpt lat="44.0486643836" lon="15.2964729723"><ele>-1.79</ele><time>2011-10-14T13:19:10Z</time></trkpt><trkpt lat="44.0488744341" lon="15.2970928978"><ele>-0.82</ele><time>2011-10-14T13:19:31Z</time></trkpt><trkpt lat="44.0491731651" lon="15.2976877615"><ele>-0.82</ele><time>2011-10-14T13:19:54Z</time></trkpt><trkpt lat="44.0494946949" lon="15.2983020712"><ele>-0.82</ele><time>2011-10-14T13:20:19Z</time></trkpt><trkpt lat="44.0497873910" lon="15.2987997048"><ele>-1.30</ele><time>2011-10-14T13:20:46Z</time></trkpt><trkpt lat="44.0501163807" lon="15.2990508266"><ele>-1.30</ele><time>2011-10-14T13:21:08Z</time></trkpt><trkpt lat="44.0503927320" lon="15.2992115915"><ele>-1.30</ele><time>2011-10-14T13:21:27Z</time></trkpt><trkpt lat="44.0506288502" lon="15.2993230708"><ele>-0.82</ele><time>2011-10-14T13:21:45Z</time></trkpt><trkpt lat="44.0507922135" lon="15.2993349731"><ele>-0.34</ele><time>2011-10-14T13:22:02Z</time></trkpt><trkpt lat="44.0509832371" lon="15.2993189637"><ele>-0.34</ele><time>2011-10-14T13:22:22Z</time></trkpt><trkpt lat="44.0511967242" lon="15.2992050536"><ele>0.14</ele><time>2011-10-14T13:22:44Z</time></trkpt><trkpt lat="44.0512973908" lon="15.2989549376"><ele>0.62</ele><time>2011-10-14T13:23:02Z</time></trkpt><trkpt lat="44.0514159109" lon="15.2985023148"><ele>0.62</ele><time>2011-10-14T13:23:32Z</time></trkpt><trkpt lat="44.0514891688" lon="15.2982008178"><ele>1.58</ele><time>2011-10-14T13:23:57Z</time></trkpt><trkpt lat="44.0514367819" lon="15.2981921006"><ele>2.54</ele><time>2011-10-14T13:24:23Z</time></trkpt><trkpt lat="44.0513399709" lon="15.2982925996"><ele>1.58</ele><time>2011-10-14T13:24:44Z</time></trkpt><trkpt lat="44.0512408968" lon="15.2984348405"><ele>2.54</ele><time>2011-10-14T13:25:06Z</time></trkpt><trkpt lat="44.0512481052" lon="15.2982859779"><ele>1.58</ele><time>2011-10-14T13:25:25Z</time></trkpt><trkpt lat="44.0513315890" lon="15.2979206108"><ele>1.58</ele><time>2011-10-14T13:25:52Z</time></trkpt><trkpt lat="44.0513870772" lon="15.2977049444"><ele>1.58</ele><time>2011-10-14T13:26:17Z</time></trkpt><trkpt lat="44.0514349379" lon="15.2976433374"><ele>0.62</ele><time>2011-10-14T13:26:37Z</time></trkpt><trkpt lat="44.0514349379" lon="15.2976433374"><ele>0.62</ele><time>2011-10-14T13:27:06Z</time></trkpt><trkpt lat="44.0514318366" lon="15.2976421639"><ele>0.14</ele><time>2011-10-14T13:27:34Z</time></trkpt><trkpt lat="44.0514315013" lon="15.2976416610"><ele>0.62</ele><time>2011-10-14T13:28:01Z</time></trkpt><trkpt lat="44.0514315013" lon="15.2976416610"><ele>0.62</ele><time>2011-10-14T13:28:30Z</time></trkpt><trkpt lat="44.0514337644" lon="15.2976371348"><ele>0.14</ele><time>2011-10-14T13:28:58Z</time></trkpt><trkpt lat="44.0514334291" lon="15.2976406552"><ele>0.62</ele><time>2011-10-14T13:29:24Z</time></trkpt><trkpt lat="44.0514338482" lon="15.2976424154"><ele>0.14</ele><time>2011-10-14T13:29:52Z</time></trkpt><trkpt lat="44.0514338482" lon="15.2976424154"><ele>0.14</ele><time>2011-10-14T13:30:19Z</time></trkpt><trkpt lat="44.0514309984" lon="15.2976437565"><ele>0.14</ele><time>2011-10-14T13:30:47Z</time></trkpt><trkpt lat="44.0514323395" lon="15.2976481151"><ele>0.14</ele><time>2011-10-14T13:31:17Z</time></trkpt><trkpt lat="44.0514323395" lon="15.2976481151"><ele>0.14</ele><time>2011-10-14T13:31:46Z</time></trkpt><trkpt lat="44.0514285676" lon="15.2976513002"><ele>1.10</ele><time>2011-10-14T13:32:17Z</time></trkpt><trkpt lat="44.0514725726" lon="15.2975983266"><ele>-0.82</ele><time>2011-10-14T13:32:45Z</time></trkpt><trkpt lat="44.0515259653" lon="15.2975767013"><ele>0.62</ele><time>2011-10-14T13:33:10Z</time></trkpt><trkpt lat="44.0515288152" lon="15.2975754440"><ele>0.62</ele><time>2011-10-14T13:33:37Z</time></trkpt><trkpt lat="44.0515288152" lon="15.2975754440"><ele>0.62</ele><time>2011-10-14T13:34:07Z</time></trkpt><trkpt lat="44.0515335090" lon="15.2975798026"><ele>1.10</ele><time>2011-10-14T13:34:34Z</time></trkpt><trkpt lat="44.0515327547" lon="15.2975803893"><ele>0.62</ele><time>2011-10-14T13:35:04Z</time></trkpt><trkpt lat="44.0515340958" lon="15.2975829039"><ele>0.62</ele><time>2011-10-14T13:35:32Z</time></trkpt><trkpt lat="44.0515340958" lon="15.2975829039"><ele>0.62</ele><time>2011-10-14T13:36:00Z</time></trkpt><trkpt lat="44.0515365265" lon="15.2975777909"><ele>0.62</ele><time>2011-10-14T13:36:31Z</time></trkpt><trkpt lat="44.0515410528" lon="15.2975765336"><ele>1.10</ele><time>2011-10-14T13:37:03Z</time></trkpt><trkpt lat="44.0515429806" lon="15.2975721750"><ele>1.10</ele><time>2011-10-14T13:37:35Z</time></trkpt><trkpt lat="44.0515429806" lon="15.2975721750"><ele>1.10</ele><time>2011-10-14T13:38:09Z</time></trkpt><trkpt lat="44.0515435673" lon="15.2975665592"><ele>1.58</ele><time>2011-10-14T13:38:36Z</time></trkpt><trkpt lat="44.0515445732" lon="15.2975669783"><ele>1.10</ele><time>2011-10-14T13:39:07Z</time></trkpt><trkpt lat="44.0515454113" lon="15.2975691576"><ele>1.58</ele><time>2011-10-14T13:39:39Z</time></trkpt><trkpt lat="44.0515475068" lon="15.2975718398"><ele>1.58</ele><time>2011-10-14T13:40:11Z</time></trkpt><trkpt lat="44.0515475068" lon="15.2975718398"><ele>1.58</ele><time>2011-10-14T13:40:42Z</time></trkpt><trkpt lat="44.0515469201" lon="15.2975736000"><ele>1.58</ele><time>2011-10-14T13:41:14Z</time></trkpt><trkpt lat="44.0515527874" lon="15.2975723427"><ele>1.58</ele><time>2011-10-14T13:41:43Z</time></trkpt><trkpt lat="44.0515512787" lon="15.2975730132"><ele>1.58</ele><time>2011-10-14T13:42:11Z</time></trkpt><trkpt lat="44.0515512787" lon="15.2975730132"><ele>1.58</ele><time>2011-10-14T13:42:41Z</time></trkpt><trkpt lat="44.0515625104" lon="15.2975703310"><ele>1.58</ele><time>2011-10-14T13:43:14Z</time></trkpt><trkpt lat="44.0515614208" lon="15.2975693252"><ele>2.06</ele><time>2011-10-14T13:43:42Z</time></trkpt><trkpt lat="44.0515632648" lon="15.2975694090"><ele>2.06</ele><time>2011-10-14T13:44:12Z</time></trkpt><trkpt lat="44.0515632648" lon="15.2975694090"><ele>2.06</ele><time>2011-10-14T13:44:42Z</time></trkpt><trkpt lat="44.0515658632" lon="15.2975679003"><ele>2.06</ele><time>2011-10-14T13:45:06Z</time></trkpt><trkpt lat="44.0515694674" lon="15.2975912020"><ele>0.62</ele><time>2011-10-14T13:45:28Z</time></trkpt><trkpt lat="44.0515645221" lon="15.2976277471"><ele>0.14</ele><time>2011-10-14T13:45:32Z</time></trkpt><trkpt lat="44.0514434874" lon="15.2978670504"><ele>0.14</ele><time>2011-10-14T13:45:53Z</time></trkpt><trkpt lat="44.0514164139" lon="15.2978910226"><ele>0.14</ele><time>2011-10-14T13:46:05Z</time></trkpt><trkpt lat="44.0516735706" lon="15.2978419047"><ele>1.10</ele><time>2011-10-14T13:46:22Z</time></trkpt><trkpt lat="44.0518794302" lon="15.2978788689"><ele>1.58</ele><time>2011-10-14T13:46:40Z</time></trkpt><trkpt lat="44.0520828590" lon="15.2980045136"><ele>1.58</ele><time>2011-10-14T13:47:02Z</time></trkpt><trkpt lat="44.0521857888" lon="15.2979898453"><ele>1.58</ele><time>2011-10-14T13:47:24Z</time></trkpt><trkpt lat="44.0523072425" lon="15.2979641967"><ele>3.02</ele><time>2011-10-14T13:47:45Z</time></trkpt><trkpt lat="44.0524144471" lon="15.2980009094"><ele>2.06</ele><time>2011-10-14T13:48:09Z</time></trkpt><trkpt lat="44.0524289478" lon="15.2980360296"><ele>2.54</ele><time>2011-10-14T13:48:34Z</time></trkpt><trkpt lat="44.0524718631" lon="15.2981344331"><ele>2.06</ele><time>2011-10-14T13:48:55Z</time></trkpt><trkpt lat="44.0524745453" lon="15.2981390432"><ele>2.06</ele><time>2011-10-14T13:49:19Z</time></trkpt><trkpt lat="44.0524765570" lon="15.2981408034"><ele>2.54</ele><time>2011-10-14T13:49:39Z</time></trkpt><trkpt lat="44.0524765570" lon="15.2981408034"><ele>2.54</ele><time>2011-10-14T13:50:05Z</time></trkpt><trkpt lat="44.0524727851" lon="15.2981211059"><ele>2.54</ele><time>2011-10-14T13:50:26Z</time></trkpt><trkpt lat="44.0524727851" lon="15.2981211059"><ele>2.54</ele><time>2011-10-14T13:50:50Z</time></trkpt><trkpt lat="44.0524776466" lon="15.2981356904"><ele>2.54</ele><time>2011-10-14T13:51:15Z</time></trkpt><trkpt lat="44.0524949972" lon="15.2981430665"><ele>2.54</ele><time>2011-10-14T13:51:19Z</time></trkpt><trkpt lat="44.0526381601" lon="15.2982458286"><ele>2.06</ele><time>2011-10-14T13:51:42Z</time></trkpt><trkpt lat="44.0525501501" lon="15.2981751692"><ele>1.10</ele><time>2011-10-14T13:52:03Z</time></trkpt><trkpt lat="44.0525024571" lon="15.2981470060"><ele>0.62</ele><time>2011-10-14T13:52:09Z</time></trkpt><trkpt lat="44.0523452125" lon="15.2979825530"><ele>2.06</ele><time>2011-10-14T13:52:28Z</time></trkpt><trkpt lat="44.0523011237" lon="15.2979454212"><ele>2.06</ele><time>2011-10-14T13:52:46Z</time></trkpt><trkpt lat="44.0524045564" lon="15.2979180962"><ele>1.58</ele><time>2011-10-14T13:53:06Z</time></trkpt><trkpt lat="44.0525195561" lon="15.2979361173"><ele>1.10</ele><time>2011-10-14T13:53:28Z</time></trkpt><trkpt lat="44.0525599569" lon="15.2979542222"><ele>2.06</ele><time>2011-10-14T13:53:51Z</time></trkpt><trkpt lat="44.0523291193" lon="15.2977994923"><ele>2.06</ele><time>2011-10-14T13:54:09Z</time></trkpt><trkpt lat="44.0522818454" lon="15.2977804653"><ele>2.06</ele><time>2011-10-14T13:54:19Z</time></trkpt><trkpt lat="44.0525461268" lon="15.2977306768"><ele>1.58</ele><time>2011-10-14T13:54:39Z</time></trkpt><trkpt lat="44.0527488012" lon="15.2976891026"><ele>1.10</ele><time>2011-10-14T13:54:58Z</time></trkpt><trkpt lat="44.0527599491" lon="15.2976786252"><ele>1.10</ele><time>2011-10-14T13:55:15Z</time></trkpt><trkpt lat="44.0527599491" lon="15.2976786252"><ele>1.10</ele><time>2011-10-14T13:55:36Z</time></trkpt><trkpt lat="44.0527586080" lon="15.2976763621"><ele>1.10</ele><time>2011-10-14T13:55:56Z</time></trkpt><trkpt lat="44.0527586080" lon="15.2976763621"><ele>1.10</ele><time>2011-10-14T13:56:14Z</time></trkpt><trkpt lat="44.0527591947" lon="15.2976761945"><ele>1.58</ele><time>2011-10-14T13:56:34Z</time></trkpt><trkpt lat="44.0527591947" lon="15.2976761945"><ele>1.58</ele><time>2011-10-14T13:56:55Z</time></trkpt><trkpt lat="44.0527625475" lon="15.2976761106"><ele>1.58</ele><time>2011-10-14T13:57:14Z</time></trkpt><trkpt lat="44.0527625475" lon="15.2976761106"><ele>1.58</ele><time>2011-10-14T13:57:36Z</time></trkpt><trkpt lat="44.0527643077" lon="15.2976724226"><ele>1.58</ele><time>2011-10-14T13:58:00Z</time></trkpt><trkpt lat="44.0527648106" lon="15.2976740990"><ele>1.58</ele><time>2011-10-14T13:58:21Z</time></trkpt><trkpt lat="44.0527648106" lon="15.2976740990"><ele>1.58</ele><time>2011-10-14T13:58:43Z</time></trkpt><trkpt lat="44.0527618770" lon="15.2976727579"><ele>1.58</ele><time>2011-10-14T13:59:03Z</time></trkpt><trkpt lat="44.0527618770" lon="15.2976727579"><ele>1.58</ele><time>2011-10-14T13:59:22Z</time></trkpt><trkpt lat="44.0527618770" lon="15.2976727579"><ele>1.58</ele><time>2011-10-14T13:59:39Z</time></trkpt><trkpt lat="44.0527646430" lon="15.2976730932"><ele>1.58</ele><time>2011-10-14T14:00:00Z</time></trkpt><trkpt lat="44.0528993402" lon="15.2979015000"><ele>2.06</ele><time>2011-10-14T14:00:18Z</time></trkpt><trkpt lat="44.0530587640" lon="15.2983283903"><ele>1.58</ele><time>2011-10-14T14:00:37Z</time></trkpt><trkpt lat="44.0533585008" lon="15.2985423803"><ele>1.10</ele><time>2011-10-14T14:00:55Z</time></trkpt><trkpt lat="44.0537993889" lon="15.2984185796"><ele>1.58</ele><time>2011-10-14T14:01:16Z</time></trkpt><trkpt lat="44.0543195698" lon="15.2981833834"><ele>1.10</ele><time>2011-10-14T14:01:40Z</time></trkpt><trkpt lat="44.0543929115" lon="15.2978884242"><ele>0.14</ele><time>2011-10-14T14:01:53Z</time></trkpt><trkpt lat="44.0543266945" lon="15.2978517953"><ele>0.62</ele><time>2011-10-14T14:02:09Z</time></trkpt><trkpt lat="44.0543417819" lon="15.2978407312"><ele>0.62</ele><time>2011-10-14T14:02:11Z</time></trkpt><trkpt lat="44.0546030458" lon="15.2976449300"><ele>-0.34</ele><time>2011-10-14T14:02:33Z</time></trkpt><trkpt lat="44.0546332207" lon="15.2973003499"><ele>-0.82</ele><time>2011-10-14T14:02:54Z</time></trkpt><trkpt lat="44.0545371640" lon="15.2969180513"><ele>1.10</ele><time>2011-10-14T14:03:17Z</time></trkpt><trkpt lat="44.0543566179" lon="15.2966652531"><ele>1.10</ele><time>2011-10-14T14:03:39Z</time></trkpt><trkpt lat="44.0541866329" lon="15.2967147063"><ele>1.58</ele><time>2011-10-14T14:04:02Z</time></trkpt><trkpt lat="44.0541866329" lon="15.2967147063"><ele>1.58</ele><time>2011-10-14T14:04:27Z</time></trkpt><trkpt lat="44.0541869681" lon="15.2967143711"><ele>1.58</ele><time>2011-10-14T14:04:54Z</time></trkpt><trkpt lat="44.0541874710" lon="15.2967165504"><ele>1.10</ele><time>2011-10-14T14:05:24Z</time></trkpt><trkpt lat="44.0541874710" lon="15.2967165504"><ele>1.10</ele><time>2011-10-14T14:05:50Z</time></trkpt><trkpt lat="44.0541874710" lon="15.2967113536"><ele>1.10</ele><time>2011-10-14T14:06:14Z</time></trkpt><trkpt lat="44.0541826934" lon="15.2967129461"><ele>1.10</ele><time>2011-10-14T14:06:45Z</time></trkpt><trkpt lat="44.0541826934" lon="15.2967129461"><ele>1.10</ele><time>2011-10-14T14:07:17Z</time></trkpt><trkpt lat="44.0541839506" lon="15.2967133652"><ele>0.62</ele><time>2011-10-14T14:07:51Z</time></trkpt><trkpt lat="44.0541854594" lon="15.2967080846"><ele>0.62</ele><time>2011-10-14T14:08:25Z</time></trkpt><trkpt lat="44.0541811846" lon="15.2967132814"><ele>0.14</ele><time>2011-10-14T14:08:57Z</time></trkpt><trkpt lat="44.0541877225" lon="15.2967012115"><ele>-0.34</ele><time>2011-10-14T14:09:31Z</time></trkpt><trkpt lat="44.0541877225" lon="15.2967012115"><ele>-0.34</ele><time>2011-10-14T14:09:56Z</time></trkpt><trkpt lat="44.0541856270" lon="15.2967017982"><ele>-0.34</ele><time>2011-10-14T14:10:24Z</time></trkpt><trkpt lat="44.0541873872" lon="15.2967048157"><ele>-0.34</ele><time>2011-10-14T14:10:51Z</time></trkpt><trkpt lat="44.0541816037" lon="15.2967092581"><ele>0.14</ele><time>2011-10-14T14:11:20Z</time></trkpt><trkpt lat="44.0541816037" lon="15.2967092581"><ele>0.14</ele><time>2011-10-14T14:11:52Z</time></trkpt><trkpt lat="44.0541797597" lon="15.2967157122"><ele>0.14</ele><time>2011-10-14T14:12:16Z</time></trkpt><trkpt lat="44.0541832801" lon="15.2967188973"><ele>0.14</ele><time>2011-10-14T14:12:44Z</time></trkpt><trkpt lat="44.0541832801" lon="15.2967188973"><ele>0.14</ele><time>2011-10-14T14:13:11Z</time></trkpt><trkpt lat="44.0541928355" lon="15.2967282012"><ele>0.14</ele><time>2011-10-14T14:13:40Z</time></trkpt><trkpt lat="44.0541932546" lon="15.2967284527"><ele>0.14</ele><time>2011-10-14T14:14:09Z</time></trkpt><trkpt lat="44.0541932546" lon="15.2967284527"><ele>0.14</ele><time>2011-10-14T14:14:32Z</time></trkpt><trkpt lat="44.0541915782" lon="15.2967294585"><ele>0.62</ele><time>2011-10-14T14:14:59Z</time></trkpt><trkpt lat="44.0541940928" lon="15.2967316378"><ele>1.10</ele><time>2011-10-14T14:15:25Z</time></trkpt><trkpt lat="44.0541940928" lon="15.2967316378"><ele>1.10</ele><time>2011-10-14T14:15:57Z</time></trkpt><trkpt lat="44.0541938413" lon="15.2967276145"><ele>1.10</ele><time>2011-10-14T14:16:30Z</time></trkpt><trkpt lat="44.0541925840" lon="15.2967256028"><ele>0.62</ele><time>2011-10-14T14:17:01Z</time></trkpt><trkpt lat="44.0541931707" lon="15.2967274468"><ele>0.62</ele><time>2011-10-14T14:17:35Z</time></trkpt><trkpt lat="44.0541852918" lon="15.2967164665"><ele>0.14</ele><time>2011-10-14T14:18:00Z</time></trkpt><trkpt lat="44.0541852918" lon="15.2967164665"><ele>0.14</ele><time>2011-10-14T14:18:26Z</time></trkpt><trkpt lat="44.0541942604" lon="15.2967135329"><ele>0.14</ele><time>2011-10-14T14:18:54Z</time></trkpt><trkpt lat="44.0541953500" lon="15.2967123594"><ele>0.62</ele><time>2011-10-14T14:19:20Z</time></trkpt><trkpt lat="44.0541953500" lon="15.2967123594"><ele>0.62</ele><time>2011-10-14T14:19:50Z</time></trkpt><trkpt lat="44.0541904885" lon="15.2967101801"><ele>0.62</ele><time>2011-10-14T14:20:24Z</time></trkpt><trkpt lat="44.0541906562" lon="15.2967046481"><ele>0.14</ele><time>2011-10-14T14:20:56Z</time></trkpt><trkpt lat="44.0541901533" lon="15.2967085037"><ele>0.14</ele><time>2011-10-14T14:21:29Z</time></trkpt><trkpt lat="44.0541828610" lon="15.2967130300"><ele>-0.34</ele><time>2011-10-14T14:22:02Z</time></trkpt><trkpt lat="44.0541828610" lon="15.2967130300"><ele>-0.34</ele><time>2011-10-14T14:22:38Z</time></trkpt><trkpt lat="44.0541790053" lon="15.2967172209"><ele>0.14</ele><time>2011-10-14T14:23:09Z</time></trkpt><trkpt lat="44.0541769937" lon="15.2967175562"><ele>-0.34</ele><time>2011-10-14T14:23:43Z</time></trkpt><trkpt lat="44.0541776642" lon="15.2967152931"><ele>-0.34</ele><time>2011-10-14T14:24:20Z</time></trkpt><trkpt lat="44.0541774128" lon="15.2967135329"><ele>-0.82</ele><time>2011-10-14T14:24:47Z</time></trkpt><trkpt lat="44.0541763231" lon="15.2967096772"><ele>-0.34</ele><time>2011-10-14T14:25:22Z</time></trkpt><trkpt lat="44.0541763231" lon="15.2967096772"><ele>-0.34</ele><time>2011-10-14T14:25:53Z</time></trkpt><trkpt lat="44.0541769098" lon="15.2967085037"><ele>-0.34</ele><time>2011-10-14T14:26:29Z</time></trkpt><trkpt lat="44.0541751496" lon="15.2967120241"><ele>-0.82</ele><time>2011-10-14T14:27:01Z</time></trkpt><trkpt lat="44.0541759878" lon="15.2967095096"><ele>-1.30</ele><time>2011-10-14T14:27:36Z</time></trkpt><trkpt lat="44.0541782510" lon="15.2967147902"><ele>-0.82</ele><time>2011-10-14T14:28:14Z</time></trkpt><trkpt lat="44.0541766584" lon="15.2967147902"><ele>0.14</ele><time>2011-10-14T14:28:47Z</time></trkpt><trkpt lat="44.0541826934" lon="15.2967023011"><ele>0.14</ele><time>2011-10-14T14:28:57Z</time></trkpt><trkpt lat="44.0541795082" lon="15.2966996189"><ele>0.14</ele><time>2011-10-14T14:29:17Z</time></trkpt><trkpt lat="44.0541794244" lon="15.2966985293"><ele>0.14</ele><time>2011-10-14T14:29:47Z</time></trkpt><trkpt lat="44.0541798435" lon="15.2966974396"><ele>0.14</ele><time>2011-10-14T14:30:22Z</time></trkpt><trkpt lat="44.0541798435" lon="15.2966974396"><ele>0.14</ele><time>2011-10-14T14:30:50Z</time></trkpt><trkpt lat="44.0541801788" lon="15.2966969367"><ele>0.14</ele><time>2011-10-14T14:31:22Z</time></trkpt><trkpt lat="44.0541802626" lon="15.2966965176"><ele>-0.34</ele><time>2011-10-14T14:31:52Z</time></trkpt><trkpt lat="44.0541802626" lon="15.2966965176"><ele>-0.34</ele><time>2011-10-14T14:32:16Z</time></trkpt><trkpt lat="44.0541800950" lon="15.2966956794"><ele>-0.34</ele><time>2011-10-14T14:32:43Z</time></trkpt><trkpt lat="44.0541811008" lon="15.2966962662"><ele>-0.34</ele><time>2011-10-14T14:33:13Z</time></trkpt><trkpt lat="44.0541811846" lon="15.2966966014"><ele>-0.34</ele><time>2011-10-14T14:33:41Z</time></trkpt><trkpt lat="44.0541811846" lon="15.2966966014"><ele>-0.34</ele><time>2011-10-14T14:34:04Z</time></trkpt><trkpt lat="44.0541817714" lon="15.2966967691"><ele>-0.34</ele><time>2011-10-14T14:34:30Z</time></trkpt><trkpt lat="44.0541842021" lon="15.2966936678"><ele>-0.34</ele><time>2011-10-14T14:34:56Z</time></trkpt><trkpt lat="44.0541848727" lon="15.2966954280"><ele>-0.34</ele><time>2011-10-14T14:35:24Z</time></trkpt><trkpt lat="44.0541848727" lon="15.2966954280"><ele>-0.34</ele><time>2011-10-14T14:35:52Z</time></trkpt><trkpt lat="44.0541860461" lon="15.2966953442"><ele>-0.34</ele><time>2011-10-14T14:36:18Z</time></trkpt><trkpt lat="44.0541866329" lon="15.2966966014"><ele>-0.34</ele><time>2011-10-14T14:36:46Z</time></trkpt><trkpt lat="44.0541866329" lon="15.2966966014"><ele>-0.34</ele><time>2011-10-14T14:37:14Z</time></trkpt><trkpt lat="44.0541873034" lon="15.2966970205"><ele>-0.34</ele><time>2011-10-14T14:37:43Z</time></trkpt><trkpt lat="44.0541873034" lon="15.2966960147"><ele>-0.34</ele><time>2011-10-14T14:38:13Z</time></trkpt><trkpt lat="44.0541883931" lon="15.2966966853"><ele>-0.34</ele><time>2011-10-14T14:38:45Z</time></trkpt><trkpt lat="44.0541883931" lon="15.2966966853"><ele>-0.34</ele><time>2011-10-14T14:39:15Z</time></trkpt><trkpt lat="44.0541885607" lon="15.2966965176"><ele>-0.34</ele><time>2011-10-14T14:39:41Z</time></trkpt><trkpt lat="44.0541897342" lon="15.2966986969"><ele>-0.34</ele><time>2011-10-14T14:40:08Z</time></trkpt><trkpt lat="44.0541897342" lon="15.2966986969"><ele>-0.34</ele><time>2011-10-14T14:40:33Z</time></trkpt><trkpt lat="44.0541914944" lon="15.2967042290"><ele>-0.82</ele><time>2011-10-14T14:41:01Z</time></trkpt><trkpt lat="44.0541921649" lon="15.2967037261"><ele>-0.82</ele><time>2011-10-14T14:41:30Z</time></trkpt><trkpt lat="44.0541921649" lon="15.2967037261"><ele>-0.82</ele><time>2011-10-14T14:41:58Z</time></trkpt><trkpt lat="44.0541911591" lon="15.2967035584"><ele>-1.30</ele><time>2011-10-14T14:42:26Z</time></trkpt><trkpt lat="44.0541910753" lon="15.2967015468"><ele>-1.30</ele><time>2011-10-14T14:42:54Z</time></trkpt><trkpt lat="44.0541895665" lon="15.2967017982"><ele>-1.30</ele><time>2011-10-14T14:43:23Z</time></trkpt><trkpt lat="44.0541895665" lon="15.2967017982"><ele>-1.30</ele><time>2011-10-14T14:43:51Z</time></trkpt><trkpt lat="44.0541895665" lon="15.2967005409"><ele>-1.30</ele><time>2011-10-14T14:44:21Z</time></trkpt><trkpt lat="44.0541914105" lon="15.2967080008"><ele>-1.30</ele><time>2011-10-14T14:44:52Z</time></trkpt><trkpt lat="44.0541914105" lon="15.2967080008"><ele>-1.30</ele><time>2011-10-14T14:45:19Z</time></trkpt><trkpt lat="44.0541930031" lon="15.2967071626"><ele>-1.30</ele><time>2011-10-14T14:45:48Z</time></trkpt><trkpt lat="44.0541913267" lon="15.2967075817"><ele>-1.30</ele><time>2011-10-14T14:46:16Z</time></trkpt><trkpt lat="44.0541934222" lon="15.2967092581"><ele>-1.30</ele><time>2011-10-14T14:46:45Z</time></trkpt><trkpt lat="44.0541934222" lon="15.2967092581"><ele>-1.30</ele><time>2011-10-14T14:47:13Z</time></trkpt><trkpt lat="44.0541941766" lon="15.2967101801"><ele>-1.30</ele><time>2011-10-14T14:47:43Z</time></trkpt><trkpt lat="44.0541939251" lon="15.2967110183"><ele>-1.79</ele><time>2011-10-14T14:48:20Z</time></trkpt><trkpt lat="44.0541938413" lon="15.2967123594"><ele>-1.30</ele><time>2011-10-14T14:48:48Z</time></trkpt><trkpt lat="44.0541938413" lon="15.2967123594"><ele>-1.30</ele><time>2011-10-14T14:49:16Z</time></trkpt><trkpt lat="44.0541949309" lon="15.2967126947"><ele>-1.79</ele><time>2011-10-14T14:49:44Z</time></trkpt><trkpt lat="44.0541956853" lon="15.2967124432"><ele>-1.79</ele><time>2011-10-14T14:50:16Z</time></trkpt><trkpt lat="44.0541959368" lon="15.2967142034"><ele>-1.30</ele><time>2011-10-14T14:50:51Z</time></trkpt><trkpt lat="44.0541959368" lon="15.2967142034"><ele>-1.30</ele><time>2011-10-14T14:51:18Z</time></trkpt><trkpt lat="44.0541943442" lon="15.2967143711"><ele>-1.30</ele><time>2011-10-14T14:51:49Z</time></trkpt><trkpt lat="44.0541915782" lon="15.2967142034"><ele>-1.30</ele><time>2011-10-14T14:52:21Z</time></trkpt><trkpt lat="44.0541922487" lon="15.2967144549"><ele>-0.82</ele><time>2011-10-14T14:52:53Z</time></trkpt><trkpt lat="44.0541926678" lon="15.2967100963"><ele>-0.82</ele><time>2011-10-14T14:53:27Z</time></trkpt><trkpt lat="44.0541926678" lon="15.2967100963"><ele>-0.82</ele><time>2011-10-14T14:53:55Z</time></trkpt><trkpt lat="44.0541937575" lon="15.2967093419"><ele>-0.82</ele><time>2011-10-14T14:54:25Z</time></trkpt><trkpt lat="44.0541960206" lon="15.2967097610"><ele>-0.82</ele><time>2011-10-14T14:54:55Z</time></trkpt><trkpt lat="44.0541949309" lon="15.2967100125"><ele>-0.82</ele><time>2011-10-14T14:55:30Z</time></trkpt><trkpt lat="44.0541987028" lon="15.2967085876"><ele>-0.82</ele><time>2011-10-14T14:56:03Z</time></trkpt><trkpt lat="44.0541987028" lon="15.2967085876"><ele>-0.82</ele><time>2011-10-14T14:56:37Z</time></trkpt><trkpt lat="44.0541971102" lon="15.2967069950"><ele>-0.82</ele><time>2011-10-14T14:57:13Z</time></trkpt><trkpt lat="44.0541976970" lon="15.2967060730"><ele>-0.82</ele><time>2011-10-14T14:57:48Z</time></trkpt><trkpt lat="44.0541970264" lon="15.2967043128"><ele>-0.82</ele><time>2011-10-14T14:58:18Z</time></trkpt><trkpt lat="44.0541971941" lon="15.2967026364"><ele>-0.82</ele><time>2011-10-14T14:58:50Z</time></trkpt><trkpt lat="44.0541988704" lon="15.2967044804"><ele>-0.82</ele><time>2011-10-14T14:59:28Z</time></trkpt><trkpt lat="44.0541988704" lon="15.2967044804"><ele>-0.82</ele><time>2011-10-14T14:59:59Z</time></trkpt><trkpt lat="44.0541991219" lon="15.2967048157"><ele>-0.82</ele><time>2011-10-14T15:00:32Z</time></trkpt><trkpt lat="44.0542007145" lon="15.2966826037"><ele>-1.79</ele><time>2011-10-14T15:00:50Z</time></trkpt><trkpt lat="44.0542018879" lon="15.2966812626"><ele>-1.79</ele><time>2011-10-14T15:01:10Z</time></trkpt></trkseg></trk></gpx>